<?xml version="1.0" encoding="UTF-8" standalone="no" ?>
<gpx xmlns="http://www.topografix.com/GPX/1/1" xmlns:xsi="http://www.w3.org/2001/XMLSchema-instance" xsi:schemaLocation="http://www.topografix.com/GPX/1/1 http://www.topografix.com/GPX/1/1/gpx.xsd" version="1.1" creator="VisuGPX - https://www.visugpx.com">
  <metadata>
    <name>Crevant-Laveine Cyclisme</name>
  </metadata>
  <trk>
    <name><![CDATA[Crevant-Laveine Cyclisme_1]]></name>
    <trkseg>
      <trkpt lat="45.91331" lon="3.37354">
        <ele>317.2</ele>
        <time>2024-05-19T06:29:14Z</time>
      </trkpt>
      <trkpt lat="45.91331" lon="3.37354">
        <ele>317</ele>
        <time>2024-05-19T06:29:15Z</time>
      </trkpt>
      <trkpt lat="45.91331" lon="3.37354">
        <ele>317</ele>
        <time>2024-05-19T06:29:16Z</time>
      </trkpt>
      <trkpt lat="45.91327" lon="3.37355">
        <ele>316.8</ele>
        <time>2024-05-19T06:29:17Z</time>
      </trkpt>
      <trkpt lat="45.91323" lon="3.37357">
        <ele>316.8</ele>
        <time>2024-05-19T06:29:18Z</time>
      </trkpt>
      <trkpt lat="45.91321" lon="3.37358">
        <ele>316.6</ele>
        <time>2024-05-19T06:29:19Z</time>
      </trkpt>
      <trkpt lat="45.91319" lon="3.37358">
        <ele>316.6</ele>
        <time>2024-05-19T06:29:20Z</time>
      </trkpt>
      <trkpt lat="45.91317" lon="3.37359">
        <ele>316.4</ele>
        <time>2024-05-19T06:29:21Z</time>
      </trkpt>
      <trkpt lat="45.91315" lon="3.3736">
        <ele>316.4</ele>
        <time>2024-05-19T06:29:22Z</time>
      </trkpt>
      <trkpt lat="45.91312" lon="3.37361">
        <ele>316.4</ele>
        <time>2024-05-19T06:29:23Z</time>
      </trkpt>
      <trkpt lat="45.91309" lon="3.37363">
        <ele>316.2</ele>
        <time>2024-05-19T06:29:24Z</time>
      </trkpt>
      <trkpt lat="45.91305" lon="3.37364">
        <ele>316.2</ele>
        <time>2024-05-19T06:29:25Z</time>
      </trkpt>
      <trkpt lat="45.91301" lon="3.37366">
        <ele>316.2</ele>
        <time>2024-05-19T06:29:26Z</time>
      </trkpt>
      <trkpt lat="45.91295" lon="3.37368">
        <ele>316.2</ele>
        <time>2024-05-19T06:29:27Z</time>
      </trkpt>
      <trkpt lat="45.91289" lon="3.3737">
        <ele>316.2</ele>
        <time>2024-05-19T06:29:28Z</time>
      </trkpt>
      <trkpt lat="45.91284" lon="3.37373">
        <ele>316.2</ele>
        <time>2024-05-19T06:29:29Z</time>
      </trkpt>
      <trkpt lat="45.91279" lon="3.37375">
        <ele>316.2</ele>
        <time>2024-05-19T06:29:30Z</time>
      </trkpt>
      <trkpt lat="45.91274" lon="3.37377">
        <ele>316.2</ele>
        <time>2024-05-19T06:29:31Z</time>
      </trkpt>
      <trkpt lat="45.91267" lon="3.37383">
        <ele>316.2</ele>
        <time>2024-05-19T06:29:32Z</time>
      </trkpt>
      <trkpt lat="45.91266" lon="3.37389">
        <ele>316.2</ele>
        <time>2024-05-19T06:29:33Z</time>
      </trkpt>
      <trkpt lat="45.91264" lon="3.37395">
        <ele>316.2</ele>
        <time>2024-05-19T06:29:34Z</time>
      </trkpt>
      <trkpt lat="45.91263" lon="3.37401">
        <ele>316.2</ele>
        <time>2024-05-19T06:29:35Z</time>
      </trkpt>
      <trkpt lat="45.91261" lon="3.37407">
        <ele>316.2</ele>
        <time>2024-05-19T06:29:36Z</time>
      </trkpt>
      <trkpt lat="45.9126" lon="3.37413">
        <ele>316.2</ele>
        <time>2024-05-19T06:29:37Z</time>
      </trkpt>
      <trkpt lat="45.91259" lon="3.37419">
        <ele>316.2</ele>
        <time>2024-05-19T06:29:38Z</time>
      </trkpt>
      <trkpt lat="45.91257" lon="3.37425">
        <ele>316.4</ele>
        <time>2024-05-19T06:29:39Z</time>
      </trkpt>
      <trkpt lat="45.91254" lon="3.37431">
        <ele>316.4</ele>
        <time>2024-05-19T06:29:40Z</time>
      </trkpt>
      <trkpt lat="45.91252" lon="3.37437">
        <ele>316</ele>
        <time>2024-05-19T06:29:41Z</time>
      </trkpt>
      <trkpt lat="45.9125" lon="3.37443">
        <ele>317</ele>
        <time>2024-05-19T06:29:42Z</time>
      </trkpt>
      <trkpt lat="45.91247" lon="3.37448">
        <ele>316.8</ele>
        <time>2024-05-19T06:29:43Z</time>
      </trkpt>
      <trkpt lat="45.91244" lon="3.37453">
        <ele>317</ele>
        <time>2024-05-19T06:29:44Z</time>
      </trkpt>
      <trkpt lat="45.91241" lon="3.37457">
        <ele>317</ele>
        <time>2024-05-19T06:29:45Z</time>
      </trkpt>
      <trkpt lat="45.91238" lon="3.37462">
        <ele>317</ele>
        <time>2024-05-19T06:29:46Z</time>
      </trkpt>
      <trkpt lat="45.91235" lon="3.37466">
        <ele>317.2</ele>
        <time>2024-05-19T06:29:47Z</time>
      </trkpt>
      <trkpt lat="45.91232" lon="3.37471">
        <ele>317.2</ele>
        <time>2024-05-19T06:29:48Z</time>
      </trkpt>
      <trkpt lat="45.91229" lon="3.37475">
        <ele>317.2</ele>
        <time>2024-05-19T06:29:49Z</time>
      </trkpt>
      <trkpt lat="45.91226" lon="3.3748">
        <ele>317.2</ele>
        <time>2024-05-19T06:29:50Z</time>
      </trkpt>
      <trkpt lat="45.91223" lon="3.37484">
        <ele>317.4</ele>
        <time>2024-05-19T06:29:51Z</time>
      </trkpt>
      <trkpt lat="45.9122" lon="3.37488">
        <ele>317.4</ele>
        <time>2024-05-19T06:29:52Z</time>
      </trkpt>
      <trkpt lat="45.91217" lon="3.37492">
        <ele>317.4</ele>
        <time>2024-05-19T06:29:53Z</time>
      </trkpt>
      <trkpt lat="45.91214" lon="3.37497">
        <ele>317.4</ele>
        <time>2024-05-19T06:29:54Z</time>
      </trkpt>
      <trkpt lat="45.91211" lon="3.37501">
        <ele>317.6</ele>
        <time>2024-05-19T06:29:55Z</time>
      </trkpt>
      <trkpt lat="45.91209" lon="3.37504">
        <ele>317.6</ele>
        <time>2024-05-19T06:29:56Z</time>
      </trkpt>
      <trkpt lat="45.91206" lon="3.37509">
        <ele>317.6</ele>
        <time>2024-05-19T06:29:57Z</time>
      </trkpt>
      <trkpt lat="45.91203" lon="3.37513">
        <ele>317.8</ele>
        <time>2024-05-19T06:29:58Z</time>
      </trkpt>
      <trkpt lat="45.912" lon="3.37518">
        <ele>317.8</ele>
        <time>2024-05-19T06:29:59Z</time>
      </trkpt>
      <trkpt lat="45.91197" lon="3.37522">
        <ele>318</ele>
        <time>2024-05-19T06:30:00Z</time>
      </trkpt>
      <trkpt lat="45.91193" lon="3.37527">
        <ele>318</ele>
        <time>2024-05-19T06:30:01Z</time>
      </trkpt>
      <trkpt lat="45.9119" lon="3.37531">
        <ele>318.2</ele>
        <time>2024-05-19T06:30:02Z</time>
      </trkpt>
      <trkpt lat="45.91187" lon="3.37536">
        <ele>318.2</ele>
        <time>2024-05-19T06:30:03Z</time>
      </trkpt>
      <trkpt lat="45.91184" lon="3.3754">
        <ele>318.4</ele>
        <time>2024-05-19T06:30:04Z</time>
      </trkpt>
      <trkpt lat="45.91181" lon="3.37545">
        <ele>318.4</ele>
        <time>2024-05-19T06:30:05Z</time>
      </trkpt>
      <trkpt lat="45.91178" lon="3.37549">
        <ele>318.6</ele>
        <time>2024-05-19T06:30:06Z</time>
      </trkpt>
      <trkpt lat="45.91175" lon="3.37554">
        <ele>318.6</ele>
        <time>2024-05-19T06:30:07Z</time>
      </trkpt>
      <trkpt lat="45.91171" lon="3.37558">
        <ele>318.8</ele>
        <time>2024-05-19T06:30:08Z</time>
      </trkpt>
      <trkpt lat="45.91168" lon="3.37563">
        <ele>318.8</ele>
        <time>2024-05-19T06:30:09Z</time>
      </trkpt>
      <trkpt lat="45.91165" lon="3.37567">
        <ele>318.8</ele>
        <time>2024-05-19T06:30:10Z</time>
      </trkpt>
      <trkpt lat="45.91162" lon="3.37572">
        <ele>319</ele>
        <time>2024-05-19T06:30:11Z</time>
      </trkpt>
      <trkpt lat="45.91159" lon="3.37576">
        <ele>319</ele>
        <time>2024-05-19T06:30:12Z</time>
      </trkpt>
      <trkpt lat="45.91156" lon="3.3758">
        <ele>319.2</ele>
        <time>2024-05-19T06:30:13Z</time>
      </trkpt>
      <trkpt lat="45.91153" lon="3.37585">
        <ele>319.2</ele>
        <time>2024-05-19T06:30:14Z</time>
      </trkpt>
      <trkpt lat="45.9115" lon="3.3759">
        <ele>319.2</ele>
        <time>2024-05-19T06:30:15Z</time>
      </trkpt>
      <trkpt lat="45.91147" lon="3.37595">
        <ele>319.2</ele>
        <time>2024-05-19T06:30:16Z</time>
      </trkpt>
      <trkpt lat="45.91144" lon="3.37601">
        <ele>319.4</ele>
        <time>2024-05-19T06:30:17Z</time>
      </trkpt>
      <trkpt lat="45.91141" lon="3.37607">
        <ele>319.4</ele>
        <time>2024-05-19T06:30:18Z</time>
      </trkpt>
      <trkpt lat="45.91137" lon="3.37613">
        <ele>319.4</ele>
        <time>2024-05-19T06:30:19Z</time>
      </trkpt>
      <trkpt lat="45.91134" lon="3.37619">
        <ele>319.4</ele>
        <time>2024-05-19T06:30:20Z</time>
      </trkpt>
      <trkpt lat="45.91131" lon="3.37625">
        <ele>319.6</ele>
        <time>2024-05-19T06:30:21Z</time>
      </trkpt>
      <trkpt lat="45.91128" lon="3.3763">
        <ele>319.6</ele>
        <time>2024-05-19T06:30:22Z</time>
      </trkpt>
      <trkpt lat="45.91125" lon="3.37636">
        <ele>319.6</ele>
        <time>2024-05-19T06:30:23Z</time>
      </trkpt>
      <trkpt lat="45.91122" lon="3.37642">
        <ele>319.6</ele>
        <time>2024-05-19T06:30:24Z</time>
      </trkpt>
      <trkpt lat="45.91119" lon="3.37647">
        <ele>319.8</ele>
        <time>2024-05-19T06:30:25Z</time>
      </trkpt>
      <trkpt lat="45.91117" lon="3.37654">
        <ele>319.8</ele>
        <time>2024-05-19T06:30:26Z</time>
      </trkpt>
      <trkpt lat="45.91115" lon="3.3766">
        <ele>319.8</ele>
        <time>2024-05-19T06:30:27Z</time>
      </trkpt>
      <trkpt lat="45.91114" lon="3.37667">
        <ele>319.8</ele>
        <time>2024-05-19T06:30:28Z</time>
      </trkpt>
      <trkpt lat="45.91111" lon="3.37677">
        <ele>320</ele>
        <time>2024-05-19T06:30:29Z</time>
      </trkpt>
      <trkpt lat="45.91107" lon="3.3768">
        <ele>320</ele>
        <time>2024-05-19T06:30:30Z</time>
      </trkpt>
      <trkpt lat="45.91102" lon="3.37682">
        <ele>320</ele>
        <time>2024-05-19T06:30:31Z</time>
      </trkpt>
      <trkpt lat="45.91098" lon="3.37685">
        <ele>320.2</ele>
        <time>2024-05-19T06:30:32Z</time>
      </trkpt>
      <trkpt lat="45.91095" lon="3.37687">
        <ele>320.2</ele>
        <time>2024-05-19T06:30:33Z</time>
      </trkpt>
      <trkpt lat="45.91091" lon="3.37689">
        <ele>320.2</ele>
        <time>2024-05-19T06:30:34Z</time>
      </trkpt>
      <trkpt lat="45.91086" lon="3.37691">
        <ele>320.4</ele>
        <time>2024-05-19T06:30:35Z</time>
      </trkpt>
      <trkpt lat="45.91082" lon="3.37694">
        <ele>320.4</ele>
        <time>2024-05-19T06:30:36Z</time>
      </trkpt>
      <trkpt lat="45.91078" lon="3.37696">
        <ele>320.4</ele>
        <time>2024-05-19T06:30:37Z</time>
      </trkpt>
      <trkpt lat="45.91075" lon="3.37698">
        <ele>320.4</ele>
        <time>2024-05-19T06:30:38Z</time>
      </trkpt>
      <trkpt lat="45.91071" lon="3.377">
        <ele>320.6</ele>
        <time>2024-05-19T06:30:39Z</time>
      </trkpt>
      <trkpt lat="45.91068" lon="3.37702">
        <ele>320.6</ele>
        <time>2024-05-19T06:30:40Z</time>
      </trkpt>
      <trkpt lat="45.91064" lon="3.37704">
        <ele>320.6</ele>
        <time>2024-05-19T06:30:41Z</time>
      </trkpt>
      <trkpt lat="45.91061" lon="3.37706">
        <ele>320.6</ele>
        <time>2024-05-19T06:30:42Z</time>
      </trkpt>
      <trkpt lat="45.91058" lon="3.37708">
        <ele>320.6</ele>
        <time>2024-05-19T06:30:43Z</time>
      </trkpt>
      <trkpt lat="45.91055" lon="3.37709">
        <ele>320.8</ele>
        <time>2024-05-19T06:30:44Z</time>
      </trkpt>
      <trkpt lat="45.91052" lon="3.37711">
        <ele>320.8</ele>
        <time>2024-05-19T06:30:45Z</time>
      </trkpt>
      <trkpt lat="45.91049" lon="3.37713">
        <ele>320.8</ele>
        <time>2024-05-19T06:30:46Z</time>
      </trkpt>
      <trkpt lat="45.91045" lon="3.37715">
        <ele>320.8</ele>
        <time>2024-05-19T06:30:47Z</time>
      </trkpt>
      <trkpt lat="45.91042" lon="3.37717">
        <ele>320.8</ele>
        <time>2024-05-19T06:30:48Z</time>
      </trkpt>
      <trkpt lat="45.91039" lon="3.37719">
        <ele>321</ele>
        <time>2024-05-19T06:30:49Z</time>
      </trkpt>
      <trkpt lat="45.91036" lon="3.3772">
        <ele>321</ele>
        <time>2024-05-19T06:30:50Z</time>
      </trkpt>
      <trkpt lat="45.91033" lon="3.37722">
        <ele>321</ele>
        <time>2024-05-19T06:30:51Z</time>
      </trkpt>
      <trkpt lat="45.9103" lon="3.37723">
        <ele>321</ele>
        <time>2024-05-19T06:30:52Z</time>
      </trkpt>
      <trkpt lat="45.91027" lon="3.37725">
        <ele>321</ele>
        <time>2024-05-19T06:30:53Z</time>
      </trkpt>
      <trkpt lat="45.91023" lon="3.37727">
        <ele>321</ele>
        <time>2024-05-19T06:30:54Z</time>
      </trkpt>
      <trkpt lat="45.91019" lon="3.3773">
        <ele>321.2</ele>
        <time>2024-05-19T06:30:55Z</time>
      </trkpt>
      <trkpt lat="45.91015" lon="3.37732">
        <ele>321.2</ele>
        <time>2024-05-19T06:30:56Z</time>
      </trkpt>
      <trkpt lat="45.91011" lon="3.37734">
        <ele>321.2</ele>
        <time>2024-05-19T06:30:57Z</time>
      </trkpt>
      <trkpt lat="45.91007" lon="3.37737">
        <ele>321.2</ele>
        <time>2024-05-19T06:30:58Z</time>
      </trkpt>
      <trkpt lat="45.91002" lon="3.37739">
        <ele>321.2</ele>
        <time>2024-05-19T06:30:59Z</time>
      </trkpt>
      <trkpt lat="45.90998" lon="3.37742">
        <ele>321.2</ele>
        <time>2024-05-19T06:31:00Z</time>
      </trkpt>
      <trkpt lat="45.90993" lon="3.37744">
        <ele>321.2</ele>
        <time>2024-05-19T06:31:01Z</time>
      </trkpt>
      <trkpt lat="45.90989" lon="3.37747">
        <ele>321.4</ele>
        <time>2024-05-19T06:31:02Z</time>
      </trkpt>
      <trkpt lat="45.90985" lon="3.37749">
        <ele>321.4</ele>
        <time>2024-05-19T06:31:03Z</time>
      </trkpt>
      <trkpt lat="45.9098" lon="3.37752">
        <ele>321.4</ele>
        <time>2024-05-19T06:31:04Z</time>
      </trkpt>
      <trkpt lat="45.90975" lon="3.37755">
        <ele>321.4</ele>
        <time>2024-05-19T06:31:05Z</time>
      </trkpt>
      <trkpt lat="45.9097" lon="3.37757">
        <ele>321.4</ele>
        <time>2024-05-19T06:31:06Z</time>
      </trkpt>
      <trkpt lat="45.90965" lon="3.3776">
        <ele>321.4</ele>
        <time>2024-05-19T06:31:07Z</time>
      </trkpt>
      <trkpt lat="45.9096" lon="3.37763">
        <ele>321.4</ele>
        <time>2024-05-19T06:31:08Z</time>
      </trkpt>
      <trkpt lat="45.90955" lon="3.37766">
        <ele>321.4</ele>
        <time>2024-05-19T06:31:09Z</time>
      </trkpt>
      <trkpt lat="45.9095" lon="3.37769">
        <ele>321.4</ele>
        <time>2024-05-19T06:31:10Z</time>
      </trkpt>
      <trkpt lat="45.90945" lon="3.37772">
        <ele>321.4</ele>
        <time>2024-05-19T06:31:11Z</time>
      </trkpt>
      <trkpt lat="45.9094" lon="3.37775">
        <ele>321.4</ele>
        <time>2024-05-19T06:31:12Z</time>
      </trkpt>
      <trkpt lat="45.90935" lon="3.37778">
        <ele>321.4</ele>
        <time>2024-05-19T06:31:13Z</time>
      </trkpt>
      <trkpt lat="45.90929" lon="3.37781">
        <ele>321.4</ele>
        <time>2024-05-19T06:31:14Z</time>
      </trkpt>
      <trkpt lat="45.90924" lon="3.37784">
        <ele>321.4</ele>
        <time>2024-05-19T06:31:15Z</time>
      </trkpt>
      <trkpt lat="45.90919" lon="3.37787">
        <ele>321.4</ele>
        <time>2024-05-19T06:31:16Z</time>
      </trkpt>
      <trkpt lat="45.90914" lon="3.3779">
        <ele>321.4</ele>
        <time>2024-05-19T06:31:17Z</time>
      </trkpt>
      <trkpt lat="45.90908" lon="3.37793">
        <ele>321.4</ele>
        <time>2024-05-19T06:31:18Z</time>
      </trkpt>
      <trkpt lat="45.90904" lon="3.37795">
        <ele>321.4</ele>
        <time>2024-05-19T06:31:19Z</time>
      </trkpt>
      <trkpt lat="45.90899" lon="3.37798">
        <ele>321.4</ele>
        <time>2024-05-19T06:31:20Z</time>
      </trkpt>
      <trkpt lat="45.90894" lon="3.37801">
        <ele>321.4</ele>
        <time>2024-05-19T06:31:21Z</time>
      </trkpt>
      <trkpt lat="45.90889" lon="3.37804">
        <ele>321.4</ele>
        <time>2024-05-19T06:31:22Z</time>
      </trkpt>
      <trkpt lat="45.90884" lon="3.37806">
        <ele>321.4</ele>
        <time>2024-05-19T06:31:23Z</time>
      </trkpt>
      <trkpt lat="45.90879" lon="3.37809">
        <ele>321.4</ele>
        <time>2024-05-19T06:31:24Z</time>
      </trkpt>
      <trkpt lat="45.90874" lon="3.37812">
        <ele>321.4</ele>
        <time>2024-05-19T06:31:25Z</time>
      </trkpt>
      <trkpt lat="45.90869" lon="3.37815">
        <ele>321.4</ele>
        <time>2024-05-19T06:31:26Z</time>
      </trkpt>
      <trkpt lat="45.90864" lon="3.37818">
        <ele>321.4</ele>
        <time>2024-05-19T06:31:27Z</time>
      </trkpt>
      <trkpt lat="45.90859" lon="3.37821">
        <ele>321.4</ele>
        <time>2024-05-19T06:31:28Z</time>
      </trkpt>
      <trkpt lat="45.90853" lon="3.37824">
        <ele>321.4</ele>
        <time>2024-05-19T06:31:29Z</time>
      </trkpt>
      <trkpt lat="45.90848" lon="3.37827">
        <ele>321.4</ele>
        <time>2024-05-19T06:31:30Z</time>
      </trkpt>
      <trkpt lat="45.90843" lon="3.3783">
        <ele>321.4</ele>
        <time>2024-05-19T06:31:31Z</time>
      </trkpt>
      <trkpt lat="45.90838" lon="3.37833">
        <ele>321.4</ele>
        <time>2024-05-19T06:31:32Z</time>
      </trkpt>
      <trkpt lat="45.90827" lon="3.37839">
        <ele>321.6</ele>
        <time>2024-05-19T06:31:33Z</time>
      </trkpt>
      <trkpt lat="45.90827" lon="3.37839">
        <ele>321.6</ele>
        <time>2024-05-19T06:31:34Z</time>
      </trkpt>
      <trkpt lat="45.90822" lon="3.37842">
        <ele>321.6</ele>
        <time>2024-05-19T06:31:35Z</time>
      </trkpt>
      <trkpt lat="45.90817" lon="3.37845">
        <ele>321.6</ele>
        <time>2024-05-19T06:31:36Z</time>
      </trkpt>
      <trkpt lat="45.90811" lon="3.37848">
        <ele>321.8</ele>
        <time>2024-05-19T06:31:37Z</time>
      </trkpt>
      <trkpt lat="45.90806" lon="3.37851">
        <ele>321.8</ele>
        <time>2024-05-19T06:31:38Z</time>
      </trkpt>
      <trkpt lat="45.90801" lon="3.37854">
        <ele>321.8</ele>
        <time>2024-05-19T06:31:39Z</time>
      </trkpt>
      <trkpt lat="45.90796" lon="3.37858">
        <ele>321.8</ele>
        <time>2024-05-19T06:31:40Z</time>
      </trkpt>
      <trkpt lat="45.90791" lon="3.37861">
        <ele>322</ele>
        <time>2024-05-19T06:31:41Z</time>
      </trkpt>
      <trkpt lat="45.90786" lon="3.37864">
        <ele>322</ele>
        <time>2024-05-19T06:31:42Z</time>
      </trkpt>
      <trkpt lat="45.90781" lon="3.37867">
        <ele>322</ele>
        <time>2024-05-19T06:31:43Z</time>
      </trkpt>
      <trkpt lat="45.90776" lon="3.3787">
        <ele>322</ele>
        <time>2024-05-19T06:31:44Z</time>
      </trkpt>
      <trkpt lat="45.90771" lon="3.37874">
        <ele>322.2</ele>
        <time>2024-05-19T06:31:45Z</time>
      </trkpt>
      <trkpt lat="45.90766" lon="3.37877">
        <ele>322.2</ele>
        <time>2024-05-19T06:31:46Z</time>
      </trkpt>
      <trkpt lat="45.90761" lon="3.3788">
        <ele>322.2</ele>
        <time>2024-05-19T06:31:47Z</time>
      </trkpt>
      <trkpt lat="45.90756" lon="3.37883">
        <ele>322.4</ele>
        <time>2024-05-19T06:31:48Z</time>
      </trkpt>
      <trkpt lat="45.90751" lon="3.37886">
        <ele>322.4</ele>
        <time>2024-05-19T06:31:49Z</time>
      </trkpt>
      <trkpt lat="45.90746" lon="3.37889">
        <ele>322.4</ele>
        <time>2024-05-19T06:31:50Z</time>
      </trkpt>
      <trkpt lat="45.90741" lon="3.37892">
        <ele>322.4</ele>
        <time>2024-05-19T06:31:51Z</time>
      </trkpt>
      <trkpt lat="45.90736" lon="3.37895">
        <ele>322.4</ele>
        <time>2024-05-19T06:31:52Z</time>
      </trkpt>
      <trkpt lat="45.90732" lon="3.37898">
        <ele>322.6</ele>
        <time>2024-05-19T06:31:53Z</time>
      </trkpt>
      <trkpt lat="45.90727" lon="3.37901">
        <ele>322.6</ele>
        <time>2024-05-19T06:31:54Z</time>
      </trkpt>
      <trkpt lat="45.90723" lon="3.37904">
        <ele>322.6</ele>
        <time>2024-05-19T06:31:55Z</time>
      </trkpt>
      <trkpt lat="45.90719" lon="3.37906">
        <ele>322.8</ele>
        <time>2024-05-19T06:31:56Z</time>
      </trkpt>
      <trkpt lat="45.90715" lon="3.37909">
        <ele>322.8</ele>
        <time>2024-05-19T06:31:57Z</time>
      </trkpt>
      <trkpt lat="45.9071" lon="3.37911">
        <ele>323</ele>
        <time>2024-05-19T06:31:58Z</time>
      </trkpt>
      <trkpt lat="45.9071" lon="3.37911">
        <ele>323</ele>
        <time>2024-05-19T06:31:59Z</time>
      </trkpt>
      <trkpt lat="45.90702" lon="3.37917">
        <ele>323.2</ele>
        <time>2024-05-19T06:32:00Z</time>
      </trkpt>
      <trkpt lat="45.90697" lon="3.3792">
        <ele>323.2</ele>
        <time>2024-05-19T06:32:01Z</time>
      </trkpt>
      <trkpt lat="45.90697" lon="3.3792">
        <ele>323.2</ele>
        <time>2024-05-19T06:32:02Z</time>
      </trkpt>
      <trkpt lat="45.90684" lon="3.37915">
        <ele>323.2</ele>
        <time>2024-05-19T06:32:03Z</time>
      </trkpt>
      <trkpt lat="45.90677" lon="3.37926">
        <ele>323.4</ele>
        <time>2024-05-19T06:32:04Z</time>
      </trkpt>
      <trkpt lat="45.90675" lon="3.37932">
        <ele>323.4</ele>
        <time>2024-05-19T06:32:05Z</time>
      </trkpt>
      <trkpt lat="45.90674" lon="3.37939">
        <ele>323.4</ele>
        <time>2024-05-19T06:32:06Z</time>
      </trkpt>
      <trkpt lat="45.90678" lon="3.37948">
        <ele>323.6</ele>
        <time>2024-05-19T06:32:07Z</time>
      </trkpt>
      <trkpt lat="45.90684" lon="3.37958">
        <ele>323.6</ele>
        <time>2024-05-19T06:32:08Z</time>
      </trkpt>
      <trkpt lat="45.90683" lon="3.37965">
        <ele>323.6</ele>
        <time>2024-05-19T06:32:09Z</time>
      </trkpt>
      <trkpt lat="45.90683" lon="3.37973">
        <ele>323.6</ele>
        <time>2024-05-19T06:32:10Z</time>
      </trkpt>
      <trkpt lat="45.90682" lon="3.37981">
        <ele>323.8</ele>
        <time>2024-05-19T06:32:11Z</time>
      </trkpt>
      <trkpt lat="45.90681" lon="3.37989">
        <ele>323.8</ele>
        <time>2024-05-19T06:32:12Z</time>
      </trkpt>
      <trkpt lat="45.9068" lon="3.37997">
        <ele>324</ele>
        <time>2024-05-19T06:32:13Z</time>
      </trkpt>
      <trkpt lat="45.90679" lon="3.38005">
        <ele>324</ele>
        <time>2024-05-19T06:32:14Z</time>
      </trkpt>
      <trkpt lat="45.90679" lon="3.38013">
        <ele>324</ele>
        <time>2024-05-19T06:32:15Z</time>
      </trkpt>
      <trkpt lat="45.90678" lon="3.38021">
        <ele>324.2</ele>
        <time>2024-05-19T06:32:16Z</time>
      </trkpt>
      <trkpt lat="45.90677" lon="3.38029">
        <ele>324.2</ele>
        <time>2024-05-19T06:32:17Z</time>
      </trkpt>
      <trkpt lat="45.90676" lon="3.38037">
        <ele>324.2</ele>
        <time>2024-05-19T06:32:18Z</time>
      </trkpt>
      <trkpt lat="45.90676" lon="3.38045">
        <ele>324.4</ele>
        <time>2024-05-19T06:32:19Z</time>
      </trkpt>
      <trkpt lat="45.90675" lon="3.38052">
        <ele>324.4</ele>
        <time>2024-05-19T06:32:20Z</time>
      </trkpt>
      <trkpt lat="45.90674" lon="3.3806">
        <ele>324.6</ele>
        <time>2024-05-19T06:32:21Z</time>
      </trkpt>
      <trkpt lat="45.90673" lon="3.38069">
        <ele>324.6</ele>
        <time>2024-05-19T06:32:22Z</time>
      </trkpt>
      <trkpt lat="45.90672" lon="3.38076">
        <ele>324.6</ele>
        <time>2024-05-19T06:32:23Z</time>
      </trkpt>
      <trkpt lat="45.90672" lon="3.38084">
        <ele>324.6</ele>
        <time>2024-05-19T06:32:24Z</time>
      </trkpt>
      <trkpt lat="45.90671" lon="3.38092">
        <ele>324.6</ele>
        <time>2024-05-19T06:32:25Z</time>
      </trkpt>
      <trkpt lat="45.9067" lon="3.381">
        <ele>324.8</ele>
        <time>2024-05-19T06:32:26Z</time>
      </trkpt>
      <trkpt lat="45.90669" lon="3.38108">
        <ele>324.8</ele>
        <time>2024-05-19T06:32:27Z</time>
      </trkpt>
      <trkpt lat="45.90669" lon="3.38115">
        <ele>324.8</ele>
        <time>2024-05-19T06:32:28Z</time>
      </trkpt>
      <trkpt lat="45.90668" lon="3.38123">
        <ele>325</ele>
        <time>2024-05-19T06:32:29Z</time>
      </trkpt>
      <trkpt lat="45.90667" lon="3.38131">
        <ele>325</ele>
        <time>2024-05-19T06:32:30Z</time>
      </trkpt>
      <trkpt lat="45.90666" lon="3.38139">
        <ele>325</ele>
        <time>2024-05-19T06:32:31Z</time>
      </trkpt>
      <trkpt lat="45.90665" lon="3.38147">
        <ele>325</ele>
        <time>2024-05-19T06:32:32Z</time>
      </trkpt>
      <trkpt lat="45.90665" lon="3.38155">
        <ele>325.2</ele>
        <time>2024-05-19T06:32:33Z</time>
      </trkpt>
      <trkpt lat="45.90664" lon="3.38163">
        <ele>325.2</ele>
        <time>2024-05-19T06:32:34Z</time>
      </trkpt>
      <trkpt lat="45.90663" lon="3.38171">
        <ele>325.2</ele>
        <time>2024-05-19T06:32:35Z</time>
      </trkpt>
      <trkpt lat="45.90662" lon="3.38179">
        <ele>325.4</ele>
        <time>2024-05-19T06:32:36Z</time>
      </trkpt>
      <trkpt lat="45.90662" lon="3.38186">
        <ele>325.4</ele>
        <time>2024-05-19T06:32:37Z</time>
      </trkpt>
      <trkpt lat="45.90661" lon="3.38194">
        <ele>325.4</ele>
        <time>2024-05-19T06:32:38Z</time>
      </trkpt>
      <trkpt lat="45.9066" lon="3.38202">
        <ele>325.4</ele>
        <time>2024-05-19T06:32:39Z</time>
      </trkpt>
      <trkpt lat="45.90659" lon="3.38209">
        <ele>325.6</ele>
        <time>2024-05-19T06:32:40Z</time>
      </trkpt>
      <trkpt lat="45.90659" lon="3.38217">
        <ele>325.6</ele>
        <time>2024-05-19T06:32:41Z</time>
      </trkpt>
      <trkpt lat="45.90658" lon="3.38225">
        <ele>325.6</ele>
        <time>2024-05-19T06:32:42Z</time>
      </trkpt>
      <trkpt lat="45.90657" lon="3.38232">
        <ele>325.6</ele>
        <time>2024-05-19T06:32:43Z</time>
      </trkpt>
      <trkpt lat="45.90656" lon="3.3824">
        <ele>325.8</ele>
        <time>2024-05-19T06:32:44Z</time>
      </trkpt>
      <trkpt lat="45.90656" lon="3.38248">
        <ele>325.8</ele>
        <time>2024-05-19T06:32:45Z</time>
      </trkpt>
      <trkpt lat="45.90655" lon="3.38256">
        <ele>325.8</ele>
        <time>2024-05-19T06:32:46Z</time>
      </trkpt>
      <trkpt lat="45.90654" lon="3.38263">
        <ele>326</ele>
        <time>2024-05-19T06:32:47Z</time>
      </trkpt>
      <trkpt lat="45.90653" lon="3.38271">
        <ele>326</ele>
        <time>2024-05-19T06:32:48Z</time>
      </trkpt>
      <trkpt lat="45.90653" lon="3.38278">
        <ele>326</ele>
        <time>2024-05-19T06:32:49Z</time>
      </trkpt>
      <trkpt lat="45.90652" lon="3.38286">
        <ele>326.2</ele>
        <time>2024-05-19T06:32:50Z</time>
      </trkpt>
      <trkpt lat="45.90651" lon="3.38293">
        <ele>326.2</ele>
        <time>2024-05-19T06:32:51Z</time>
      </trkpt>
      <trkpt lat="45.9065" lon="3.38301">
        <ele>326.2</ele>
        <time>2024-05-19T06:32:52Z</time>
      </trkpt>
      <trkpt lat="45.9065" lon="3.38308">
        <ele>326.4</ele>
        <time>2024-05-19T06:32:53Z</time>
      </trkpt>
      <trkpt lat="45.90649" lon="3.38315">
        <ele>326.4</ele>
        <time>2024-05-19T06:32:54Z</time>
      </trkpt>
      <trkpt lat="45.90648" lon="3.38322">
        <ele>326.4</ele>
        <time>2024-05-19T06:32:55Z</time>
      </trkpt>
      <trkpt lat="45.90648" lon="3.38329">
        <ele>326.4</ele>
        <time>2024-05-19T06:32:56Z</time>
      </trkpt>
      <trkpt lat="45.90647" lon="3.38337">
        <ele>326.6</ele>
        <time>2024-05-19T06:32:57Z</time>
      </trkpt>
      <trkpt lat="45.90646" lon="3.38344">
        <ele>326.6</ele>
        <time>2024-05-19T06:32:58Z</time>
      </trkpt>
      <trkpt lat="45.90645" lon="3.38352">
        <ele>326.6</ele>
        <time>2024-05-19T06:32:59Z</time>
      </trkpt>
      <trkpt lat="45.90645" lon="3.3836">
        <ele>326.8</ele>
        <time>2024-05-19T06:33:00Z</time>
      </trkpt>
      <trkpt lat="45.90644" lon="3.38367">
        <ele>326.8</ele>
        <time>2024-05-19T06:33:01Z</time>
      </trkpt>
      <trkpt lat="45.90642" lon="3.38375">
        <ele>327</ele>
        <time>2024-05-19T06:33:02Z</time>
      </trkpt>
      <trkpt lat="45.9064" lon="3.38382">
        <ele>327</ele>
        <time>2024-05-19T06:33:03Z</time>
      </trkpt>
      <trkpt lat="45.90638" lon="3.38388">
        <ele>327</ele>
        <time>2024-05-19T06:33:04Z</time>
      </trkpt>
      <trkpt lat="45.90636" lon="3.38396">
        <ele>327.2</ele>
        <time>2024-05-19T06:33:05Z</time>
      </trkpt>
      <trkpt lat="45.90634" lon="3.38402">
        <ele>327.2</ele>
        <time>2024-05-19T06:33:06Z</time>
      </trkpt>
      <trkpt lat="45.90632" lon="3.38409">
        <ele>327.4</ele>
        <time>2024-05-19T06:33:07Z</time>
      </trkpt>
      <trkpt lat="45.9063" lon="3.38416">
        <ele>327.4</ele>
        <time>2024-05-19T06:33:08Z</time>
      </trkpt>
      <trkpt lat="45.90628" lon="3.38423">
        <ele>327.4</ele>
        <time>2024-05-19T06:33:09Z</time>
      </trkpt>
      <trkpt lat="45.90626" lon="3.3843">
        <ele>327.6</ele>
        <time>2024-05-19T06:33:10Z</time>
      </trkpt>
      <trkpt lat="45.90624" lon="3.38437">
        <ele>327.6</ele>
        <time>2024-05-19T06:33:11Z</time>
      </trkpt>
      <trkpt lat="45.90622" lon="3.38444">
        <ele>327.8</ele>
        <time>2024-05-19T06:33:12Z</time>
      </trkpt>
      <trkpt lat="45.9062" lon="3.3845">
        <ele>327.8</ele>
        <time>2024-05-19T06:33:13Z</time>
      </trkpt>
      <trkpt lat="45.90618" lon="3.38457">
        <ele>327.8</ele>
        <time>2024-05-19T06:33:14Z</time>
      </trkpt>
      <trkpt lat="45.90616" lon="3.38464">
        <ele>327.8</ele>
        <time>2024-05-19T06:33:15Z</time>
      </trkpt>
      <trkpt lat="45.90615" lon="3.38471">
        <ele>328</ele>
        <time>2024-05-19T06:33:16Z</time>
      </trkpt>
      <trkpt lat="45.90613" lon="3.38478">
        <ele>328</ele>
        <time>2024-05-19T06:33:17Z</time>
      </trkpt>
      <trkpt lat="45.90611" lon="3.38484">
        <ele>328</ele>
        <time>2024-05-19T06:33:18Z</time>
      </trkpt>
      <trkpt lat="45.90609" lon="3.38491">
        <ele>328.2</ele>
        <time>2024-05-19T06:33:19Z</time>
      </trkpt>
      <trkpt lat="45.90607" lon="3.38498">
        <ele>328.2</ele>
        <time>2024-05-19T06:33:20Z</time>
      </trkpt>
      <trkpt lat="45.90605" lon="3.38505">
        <ele>328.2</ele>
        <time>2024-05-19T06:33:21Z</time>
      </trkpt>
      <trkpt lat="45.90603" lon="3.38511">
        <ele>328.2</ele>
        <time>2024-05-19T06:33:22Z</time>
      </trkpt>
      <trkpt lat="45.90601" lon="3.38518">
        <ele>328.4</ele>
        <time>2024-05-19T06:33:23Z</time>
      </trkpt>
      <trkpt lat="45.90599" lon="3.38525">
        <ele>328.4</ele>
        <time>2024-05-19T06:33:24Z</time>
      </trkpt>
      <trkpt lat="45.90597" lon="3.38532">
        <ele>328.6</ele>
        <time>2024-05-19T06:33:25Z</time>
      </trkpt>
      <trkpt lat="45.90595" lon="3.38539">
        <ele>328.6</ele>
        <time>2024-05-19T06:33:26Z</time>
      </trkpt>
      <trkpt lat="45.90593" lon="3.38546">
        <ele>328.6</ele>
        <time>2024-05-19T06:33:27Z</time>
      </trkpt>
      <trkpt lat="45.90591" lon="3.38553">
        <ele>328.8</ele>
        <time>2024-05-19T06:33:28Z</time>
      </trkpt>
      <trkpt lat="45.90589" lon="3.3856">
        <ele>328.8</ele>
        <time>2024-05-19T06:33:29Z</time>
      </trkpt>
      <trkpt lat="45.90586" lon="3.38567">
        <ele>328.8</ele>
        <time>2024-05-19T06:33:30Z</time>
      </trkpt>
      <trkpt lat="45.90585" lon="3.38574">
        <ele>328.8</ele>
        <time>2024-05-19T06:33:31Z</time>
      </trkpt>
      <trkpt lat="45.90584" lon="3.38582">
        <ele>329</ele>
        <time>2024-05-19T06:33:32Z</time>
      </trkpt>
      <trkpt lat="45.90583" lon="3.38589">
        <ele>329</ele>
        <time>2024-05-19T06:33:33Z</time>
      </trkpt>
      <trkpt lat="45.90581" lon="3.38597">
        <ele>329</ele>
        <time>2024-05-19T06:33:34Z</time>
      </trkpt>
      <trkpt lat="45.9058" lon="3.38604">
        <ele>329.2</ele>
        <time>2024-05-19T06:33:35Z</time>
      </trkpt>
      <trkpt lat="45.90579" lon="3.38611">
        <ele>329.2</ele>
        <time>2024-05-19T06:33:36Z</time>
      </trkpt>
      <trkpt lat="45.90578" lon="3.38618">
        <ele>329.2</ele>
        <time>2024-05-19T06:33:37Z</time>
      </trkpt>
      <trkpt lat="45.90577" lon="3.38625">
        <ele>329.2</ele>
        <time>2024-05-19T06:33:38Z</time>
      </trkpt>
      <trkpt lat="45.90576" lon="3.38633">
        <ele>329.4</ele>
        <time>2024-05-19T06:33:39Z</time>
      </trkpt>
      <trkpt lat="45.90575" lon="3.3864">
        <ele>329.4</ele>
        <time>2024-05-19T06:33:40Z</time>
      </trkpt>
      <trkpt lat="45.90573" lon="3.38647">
        <ele>329.4</ele>
        <time>2024-05-19T06:33:41Z</time>
      </trkpt>
      <trkpt lat="45.90572" lon="3.38653">
        <ele>329.6</ele>
        <time>2024-05-19T06:33:42Z</time>
      </trkpt>
      <trkpt lat="45.90571" lon="3.38661">
        <ele>329.6</ele>
        <time>2024-05-19T06:33:43Z</time>
      </trkpt>
      <trkpt lat="45.9057" lon="3.38668">
        <ele>329.8</ele>
        <time>2024-05-19T06:33:44Z</time>
      </trkpt>
      <trkpt lat="45.90569" lon="3.38675">
        <ele>329.8</ele>
        <time>2024-05-19T06:33:45Z</time>
      </trkpt>
      <trkpt lat="45.90568" lon="3.38682">
        <ele>329.8</ele>
        <time>2024-05-19T06:33:46Z</time>
      </trkpt>
      <trkpt lat="45.90567" lon="3.38688">
        <ele>330</ele>
        <time>2024-05-19T06:33:47Z</time>
      </trkpt>
      <trkpt lat="45.90566" lon="3.38695">
        <ele>330</ele>
        <time>2024-05-19T06:33:48Z</time>
      </trkpt>
      <trkpt lat="45.90565" lon="3.38702">
        <ele>330</ele>
        <time>2024-05-19T06:33:49Z</time>
      </trkpt>
      <trkpt lat="45.90564" lon="3.38709">
        <ele>330</ele>
        <time>2024-05-19T06:33:50Z</time>
      </trkpt>
      <trkpt lat="45.90562" lon="3.38716">
        <ele>330.2</ele>
        <time>2024-05-19T06:33:51Z</time>
      </trkpt>
      <trkpt lat="45.90561" lon="3.38723">
        <ele>330.2</ele>
        <time>2024-05-19T06:33:52Z</time>
      </trkpt>
      <trkpt lat="45.9056" lon="3.3873">
        <ele>330.2</ele>
        <time>2024-05-19T06:33:53Z</time>
      </trkpt>
      <trkpt lat="45.90559" lon="3.38736">
        <ele>330.2</ele>
        <time>2024-05-19T06:33:54Z</time>
      </trkpt>
      <trkpt lat="45.90558" lon="3.38743">
        <ele>330.4</ele>
        <time>2024-05-19T06:33:55Z</time>
      </trkpt>
      <trkpt lat="45.90557" lon="3.3875">
        <ele>330.4</ele>
        <time>2024-05-19T06:33:56Z</time>
      </trkpt>
      <trkpt lat="45.90556" lon="3.38757">
        <ele>330.6</ele>
        <time>2024-05-19T06:33:57Z</time>
      </trkpt>
      <trkpt lat="45.90555" lon="3.38763">
        <ele>330.6</ele>
        <time>2024-05-19T06:33:58Z</time>
      </trkpt>
      <trkpt lat="45.90554" lon="3.3877">
        <ele>330.6</ele>
        <time>2024-05-19T06:33:59Z</time>
      </trkpt>
      <trkpt lat="45.90553" lon="3.38776">
        <ele>330.8</ele>
        <time>2024-05-19T06:34:00Z</time>
      </trkpt>
      <trkpt lat="45.90552" lon="3.38783">
        <ele>330.8</ele>
        <time>2024-05-19T06:34:01Z</time>
      </trkpt>
      <trkpt lat="45.90551" lon="3.38789">
        <ele>331</ele>
        <time>2024-05-19T06:34:02Z</time>
      </trkpt>
      <trkpt lat="45.9055" lon="3.38796">
        <ele>331</ele>
        <time>2024-05-19T06:34:03Z</time>
      </trkpt>
      <trkpt lat="45.90549" lon="3.38802">
        <ele>331</ele>
        <time>2024-05-19T06:34:04Z</time>
      </trkpt>
      <trkpt lat="45.90548" lon="3.38808">
        <ele>331</ele>
        <time>2024-05-19T06:34:05Z</time>
      </trkpt>
      <trkpt lat="45.90547" lon="3.38816">
        <ele>331.2</ele>
        <time>2024-05-19T06:34:06Z</time>
      </trkpt>
      <trkpt lat="45.90548" lon="3.38822">
        <ele>331.2</ele>
        <time>2024-05-19T06:34:07Z</time>
      </trkpt>
      <trkpt lat="45.90548" lon="3.38828">
        <ele>331.2</ele>
        <time>2024-05-19T06:34:08Z</time>
      </trkpt>
      <trkpt lat="45.90549" lon="3.38834">
        <ele>331.4</ele>
        <time>2024-05-19T06:34:09Z</time>
      </trkpt>
      <trkpt lat="45.90549" lon="3.38839">
        <ele>331.4</ele>
        <time>2024-05-19T06:34:10Z</time>
      </trkpt>
      <trkpt lat="45.90549" lon="3.38846">
        <ele>331.6</ele>
        <time>2024-05-19T06:34:11Z</time>
      </trkpt>
      <trkpt lat="45.90551" lon="3.38851">
        <ele>331.6</ele>
        <time>2024-05-19T06:34:12Z</time>
      </trkpt>
      <trkpt lat="45.90552" lon="3.38856">
        <ele>331.8</ele>
        <time>2024-05-19T06:34:13Z</time>
      </trkpt>
      <trkpt lat="45.90553" lon="3.38861">
        <ele>331.8</ele>
        <time>2024-05-19T06:34:14Z</time>
      </trkpt>
      <trkpt lat="45.90555" lon="3.38866">
        <ele>331.8</ele>
        <time>2024-05-19T06:34:15Z</time>
      </trkpt>
      <trkpt lat="45.90556" lon="3.38871">
        <ele>332</ele>
        <time>2024-05-19T06:34:16Z</time>
      </trkpt>
      <trkpt lat="45.90557" lon="3.38877">
        <ele>332</ele>
        <time>2024-05-19T06:34:17Z</time>
      </trkpt>
      <trkpt lat="45.90559" lon="3.38882">
        <ele>332.2</ele>
        <time>2024-05-19T06:34:18Z</time>
      </trkpt>
      <trkpt lat="45.9056" lon="3.38887">
        <ele>332.2</ele>
        <time>2024-05-19T06:34:19Z</time>
      </trkpt>
      <trkpt lat="45.90562" lon="3.38893">
        <ele>332.4</ele>
        <time>2024-05-19T06:34:20Z</time>
      </trkpt>
      <trkpt lat="45.90563" lon="3.38898">
        <ele>332.6</ele>
        <time>2024-05-19T06:34:21Z</time>
      </trkpt>
      <trkpt lat="45.90564" lon="3.38903">
        <ele>332.6</ele>
        <time>2024-05-19T06:34:22Z</time>
      </trkpt>
      <trkpt lat="45.90566" lon="3.38908">
        <ele>332.8</ele>
        <time>2024-05-19T06:34:23Z</time>
      </trkpt>
      <trkpt lat="45.90567" lon="3.38913">
        <ele>332.8</ele>
        <time>2024-05-19T06:34:24Z</time>
      </trkpt>
      <trkpt lat="45.90568" lon="3.38918">
        <ele>333</ele>
        <time>2024-05-19T06:34:25Z</time>
      </trkpt>
      <trkpt lat="45.90569" lon="3.38923">
        <ele>333.2</ele>
        <time>2024-05-19T06:34:26Z</time>
      </trkpt>
      <trkpt lat="45.90571" lon="3.38928">
        <ele>333.2</ele>
        <time>2024-05-19T06:34:27Z</time>
      </trkpt>
      <trkpt lat="45.90572" lon="3.38933">
        <ele>333.4</ele>
        <time>2024-05-19T06:34:28Z</time>
      </trkpt>
      <trkpt lat="45.90573" lon="3.38938">
        <ele>333.4</ele>
        <time>2024-05-19T06:34:29Z</time>
      </trkpt>
      <trkpt lat="45.90575" lon="3.38943">
        <ele>333.6</ele>
        <time>2024-05-19T06:34:30Z</time>
      </trkpt>
      <trkpt lat="45.90576" lon="3.38948">
        <ele>333.8</ele>
        <time>2024-05-19T06:34:31Z</time>
      </trkpt>
      <trkpt lat="45.90577" lon="3.38953">
        <ele>333.8</ele>
        <time>2024-05-19T06:34:32Z</time>
      </trkpt>
      <trkpt lat="45.90578" lon="3.38958">
        <ele>334</ele>
        <time>2024-05-19T06:34:33Z</time>
      </trkpt>
      <trkpt lat="45.9058" lon="3.38964">
        <ele>334.2</ele>
        <time>2024-05-19T06:34:34Z</time>
      </trkpt>
      <trkpt lat="45.90581" lon="3.38969">
        <ele>334.2</ele>
        <time>2024-05-19T06:34:35Z</time>
      </trkpt>
      <trkpt lat="45.90582" lon="3.38974">
        <ele>334.4</ele>
        <time>2024-05-19T06:34:36Z</time>
      </trkpt>
      <trkpt lat="45.90584" lon="3.38979">
        <ele>334.6</ele>
        <time>2024-05-19T06:34:37Z</time>
      </trkpt>
      <trkpt lat="45.90585" lon="3.38983">
        <ele>334.8</ele>
        <time>2024-05-19T06:34:38Z</time>
      </trkpt>
      <trkpt lat="45.90586" lon="3.38988">
        <ele>334.8</ele>
        <time>2024-05-19T06:34:39Z</time>
      </trkpt>
      <trkpt lat="45.90587" lon="3.38993">
        <ele>335</ele>
        <time>2024-05-19T06:34:40Z</time>
      </trkpt>
      <trkpt lat="45.90589" lon="3.38998">
        <ele>335.2</ele>
        <time>2024-05-19T06:34:41Z</time>
      </trkpt>
      <trkpt lat="45.9059" lon="3.39004">
        <ele>335.4</ele>
        <time>2024-05-19T06:34:42Z</time>
      </trkpt>
      <trkpt lat="45.9059" lon="3.39009">
        <ele>335.6</ele>
        <time>2024-05-19T06:34:43Z</time>
      </trkpt>
      <trkpt lat="45.9059" lon="3.39015">
        <ele>335.8</ele>
        <time>2024-05-19T06:34:44Z</time>
      </trkpt>
      <trkpt lat="45.9059" lon="3.39021">
        <ele>336</ele>
        <time>2024-05-19T06:34:45Z</time>
      </trkpt>
      <trkpt lat="45.9059" lon="3.39026">
        <ele>336.2</ele>
        <time>2024-05-19T06:34:46Z</time>
      </trkpt>
      <trkpt lat="45.90591" lon="3.39032">
        <ele>336.2</ele>
        <time>2024-05-19T06:34:47Z</time>
      </trkpt>
      <trkpt lat="45.90591" lon="3.39038">
        <ele>336.4</ele>
        <time>2024-05-19T06:34:48Z</time>
      </trkpt>
      <trkpt lat="45.90591" lon="3.39044">
        <ele>336.6</ele>
        <time>2024-05-19T06:34:49Z</time>
      </trkpt>
      <trkpt lat="45.90591" lon="3.3905">
        <ele>336.8</ele>
        <time>2024-05-19T06:34:50Z</time>
      </trkpt>
      <trkpt lat="45.90591" lon="3.39056">
        <ele>337</ele>
        <time>2024-05-19T06:34:51Z</time>
      </trkpt>
      <trkpt lat="45.90591" lon="3.39063">
        <ele>337.2</ele>
        <time>2024-05-19T06:34:52Z</time>
      </trkpt>
      <trkpt lat="45.90591" lon="3.39069">
        <ele>337.2</ele>
        <time>2024-05-19T06:34:53Z</time>
      </trkpt>
      <trkpt lat="45.90592" lon="3.39076">
        <ele>337.4</ele>
        <time>2024-05-19T06:34:54Z</time>
      </trkpt>
      <trkpt lat="45.90592" lon="3.39082">
        <ele>337.4</ele>
        <time>2024-05-19T06:34:55Z</time>
      </trkpt>
      <trkpt lat="45.90592" lon="3.39089">
        <ele>337.6</ele>
        <time>2024-05-19T06:34:56Z</time>
      </trkpt>
      <trkpt lat="45.90592" lon="3.39096">
        <ele>337.8</ele>
        <time>2024-05-19T06:34:57Z</time>
      </trkpt>
      <trkpt lat="45.90592" lon="3.39103">
        <ele>337.8</ele>
        <time>2024-05-19T06:34:58Z</time>
      </trkpt>
      <trkpt lat="45.90592" lon="3.3911">
        <ele>338</ele>
        <time>2024-05-19T06:34:59Z</time>
      </trkpt>
      <trkpt lat="45.90592" lon="3.39117">
        <ele>338</ele>
        <time>2024-05-19T06:35:00Z</time>
      </trkpt>
      <trkpt lat="45.90591" lon="3.39124">
        <ele>338.2</ele>
        <time>2024-05-19T06:35:01Z</time>
      </trkpt>
      <trkpt lat="45.90591" lon="3.39131">
        <ele>338.2</ele>
        <time>2024-05-19T06:35:02Z</time>
      </trkpt>
      <trkpt lat="45.9059" lon="3.39138">
        <ele>338.4</ele>
        <time>2024-05-19T06:35:03Z</time>
      </trkpt>
      <trkpt lat="45.9059" lon="3.39145">
        <ele>338.6</ele>
        <time>2024-05-19T06:35:04Z</time>
      </trkpt>
      <trkpt lat="45.9059" lon="3.39152">
        <ele>338.6</ele>
        <time>2024-05-19T06:35:05Z</time>
      </trkpt>
      <trkpt lat="45.90589" lon="3.39159">
        <ele>338.8</ele>
        <time>2024-05-19T06:35:06Z</time>
      </trkpt>
      <trkpt lat="45.90589" lon="3.39166">
        <ele>339</ele>
        <time>2024-05-19T06:35:07Z</time>
      </trkpt>
      <trkpt lat="45.90588" lon="3.39173">
        <ele>339</ele>
        <time>2024-05-19T06:35:08Z</time>
      </trkpt>
      <trkpt lat="45.90588" lon="3.3918">
        <ele>339.2</ele>
        <time>2024-05-19T06:35:09Z</time>
      </trkpt>
      <trkpt lat="45.90587" lon="3.39187">
        <ele>339.4</ele>
        <time>2024-05-19T06:35:10Z</time>
      </trkpt>
      <trkpt lat="45.90586" lon="3.39193">
        <ele>339.4</ele>
        <time>2024-05-19T06:35:11Z</time>
      </trkpt>
      <trkpt lat="45.90585" lon="3.392">
        <ele>339.6</ele>
        <time>2024-05-19T06:35:12Z</time>
      </trkpt>
      <trkpt lat="45.90584" lon="3.39206">
        <ele>339.8</ele>
        <time>2024-05-19T06:35:13Z</time>
      </trkpt>
      <trkpt lat="45.90583" lon="3.39213">
        <ele>340</ele>
        <time>2024-05-19T06:35:14Z</time>
      </trkpt>
      <trkpt lat="45.90582" lon="3.39219">
        <ele>340.2</ele>
        <time>2024-05-19T06:35:15Z</time>
      </trkpt>
      <trkpt lat="45.90581" lon="3.39225">
        <ele>340.4</ele>
        <time>2024-05-19T06:35:16Z</time>
      </trkpt>
      <trkpt lat="45.9058" lon="3.39231">
        <ele>340.4</ele>
        <time>2024-05-19T06:35:17Z</time>
      </trkpt>
      <trkpt lat="45.90579" lon="3.39237">
        <ele>340.6</ele>
        <time>2024-05-19T06:35:18Z</time>
      </trkpt>
      <trkpt lat="45.90578" lon="3.39244">
        <ele>340.8</ele>
        <time>2024-05-19T06:35:19Z</time>
      </trkpt>
      <trkpt lat="45.90577" lon="3.3925">
        <ele>340.8</ele>
        <time>2024-05-19T06:35:20Z</time>
      </trkpt>
      <trkpt lat="45.90576" lon="3.39256">
        <ele>341</ele>
        <time>2024-05-19T06:35:21Z</time>
      </trkpt>
      <trkpt lat="45.90576" lon="3.39262">
        <ele>341.2</ele>
        <time>2024-05-19T06:35:22Z</time>
      </trkpt>
      <trkpt lat="45.90575" lon="3.39268">
        <ele>341.2</ele>
        <time>2024-05-19T06:35:23Z</time>
      </trkpt>
      <trkpt lat="45.90574" lon="3.39274">
        <ele>341.4</ele>
        <time>2024-05-19T06:35:24Z</time>
      </trkpt>
      <trkpt lat="45.90573" lon="3.3928">
        <ele>341.6</ele>
        <time>2024-05-19T06:35:25Z</time>
      </trkpt>
      <trkpt lat="45.90572" lon="3.39286">
        <ele>341.8</ele>
        <time>2024-05-19T06:35:26Z</time>
      </trkpt>
      <trkpt lat="45.90571" lon="3.39292">
        <ele>341.8</ele>
        <time>2024-05-19T06:35:27Z</time>
      </trkpt>
      <trkpt lat="45.9057" lon="3.39299">
        <ele>342</ele>
        <time>2024-05-19T06:35:28Z</time>
      </trkpt>
      <trkpt lat="45.90569" lon="3.39305">
        <ele>342</ele>
        <time>2024-05-19T06:35:29Z</time>
      </trkpt>
      <trkpt lat="45.90568" lon="3.39311">
        <ele>342.2</ele>
        <time>2024-05-19T06:35:30Z</time>
      </trkpt>
      <trkpt lat="45.90567" lon="3.39317">
        <ele>342.4</ele>
        <time>2024-05-19T06:35:31Z</time>
      </trkpt>
      <trkpt lat="45.90566" lon="3.39323">
        <ele>342.4</ele>
        <time>2024-05-19T06:35:32Z</time>
      </trkpt>
      <trkpt lat="45.90565" lon="3.3933">
        <ele>342.6</ele>
        <time>2024-05-19T06:35:33Z</time>
      </trkpt>
      <trkpt lat="45.90564" lon="3.39336">
        <ele>342.8</ele>
        <time>2024-05-19T06:35:34Z</time>
      </trkpt>
      <trkpt lat="45.90563" lon="3.39342">
        <ele>343</ele>
        <time>2024-05-19T06:35:35Z</time>
      </trkpt>
      <trkpt lat="45.90562" lon="3.39349">
        <ele>343</ele>
        <time>2024-05-19T06:35:36Z</time>
      </trkpt>
      <trkpt lat="45.90561" lon="3.39355">
        <ele>343.2</ele>
        <time>2024-05-19T06:35:37Z</time>
      </trkpt>
      <trkpt lat="45.9056" lon="3.39361">
        <ele>343.4</ele>
        <time>2024-05-19T06:35:38Z</time>
      </trkpt>
      <trkpt lat="45.90559" lon="3.39368">
        <ele>343.4</ele>
        <time>2024-05-19T06:35:39Z</time>
      </trkpt>
      <trkpt lat="45.90558" lon="3.39374">
        <ele>343.6</ele>
        <time>2024-05-19T06:35:40Z</time>
      </trkpt>
      <trkpt lat="45.90556" lon="3.39381">
        <ele>343.6</ele>
        <time>2024-05-19T06:35:41Z</time>
      </trkpt>
      <trkpt lat="45.90555" lon="3.39387">
        <ele>343.8</ele>
        <time>2024-05-19T06:35:42Z</time>
      </trkpt>
      <trkpt lat="45.90554" lon="3.39394">
        <ele>344</ele>
        <time>2024-05-19T06:35:43Z</time>
      </trkpt>
      <trkpt lat="45.90552" lon="3.394">
        <ele>344</ele>
        <time>2024-05-19T06:35:44Z</time>
      </trkpt>
      <trkpt lat="45.90551" lon="3.39407">
        <ele>344.2</ele>
        <time>2024-05-19T06:35:45Z</time>
      </trkpt>
      <trkpt lat="45.90549" lon="3.39414">
        <ele>344.4</ele>
        <time>2024-05-19T06:35:46Z</time>
      </trkpt>
      <trkpt lat="45.90548" lon="3.39421">
        <ele>344.4</ele>
        <time>2024-05-19T06:35:47Z</time>
      </trkpt>
      <trkpt lat="45.90546" lon="3.39428">
        <ele>344.6</ele>
        <time>2024-05-19T06:35:48Z</time>
      </trkpt>
      <trkpt lat="45.90544" lon="3.39436">
        <ele>344.6</ele>
        <time>2024-05-19T06:35:49Z</time>
      </trkpt>
      <trkpt lat="45.90543" lon="3.39443">
        <ele>344.8</ele>
        <time>2024-05-19T06:35:50Z</time>
      </trkpt>
      <trkpt lat="45.90541" lon="3.39451">
        <ele>344.8</ele>
        <time>2024-05-19T06:35:51Z</time>
      </trkpt>
      <trkpt lat="45.9054" lon="3.39458">
        <ele>344.8</ele>
        <time>2024-05-19T06:35:52Z</time>
      </trkpt>
      <trkpt lat="45.90538" lon="3.39466">
        <ele>345</ele>
        <time>2024-05-19T06:35:53Z</time>
      </trkpt>
      <trkpt lat="45.90536" lon="3.39474">
        <ele>345</ele>
        <time>2024-05-19T06:35:54Z</time>
      </trkpt>
      <trkpt lat="45.90535" lon="3.39481">
        <ele>345.2</ele>
        <time>2024-05-19T06:35:55Z</time>
      </trkpt>
      <trkpt lat="45.90533" lon="3.39489">
        <ele>345.4</ele>
        <time>2024-05-19T06:35:56Z</time>
      </trkpt>
      <trkpt lat="45.90531" lon="3.39497">
        <ele>345.4</ele>
        <time>2024-05-19T06:35:57Z</time>
      </trkpt>
      <trkpt lat="45.9053" lon="3.39504">
        <ele>345.4</ele>
        <time>2024-05-19T06:35:58Z</time>
      </trkpt>
      <trkpt lat="45.90528" lon="3.39512">
        <ele>345.4</ele>
        <time>2024-05-19T06:35:59Z</time>
      </trkpt>
      <trkpt lat="45.90526" lon="3.39519">
        <ele>345.6</ele>
        <time>2024-05-19T06:36:00Z</time>
      </trkpt>
      <trkpt lat="45.90525" lon="3.39527">
        <ele>345.6</ele>
        <time>2024-05-19T06:36:01Z</time>
      </trkpt>
      <trkpt lat="45.90523" lon="3.39535">
        <ele>345.8</ele>
        <time>2024-05-19T06:36:02Z</time>
      </trkpt>
      <trkpt lat="45.90521" lon="3.39543">
        <ele>345.8</ele>
        <time>2024-05-19T06:36:03Z</time>
      </trkpt>
      <trkpt lat="45.9052" lon="3.39551">
        <ele>346</ele>
        <time>2024-05-19T06:36:04Z</time>
      </trkpt>
      <trkpt lat="45.90518" lon="3.39559">
        <ele>346</ele>
        <time>2024-05-19T06:36:05Z</time>
      </trkpt>
      <trkpt lat="45.90516" lon="3.39566">
        <ele>346</ele>
        <time>2024-05-19T06:36:06Z</time>
      </trkpt>
      <trkpt lat="45.90515" lon="3.39574">
        <ele>346</ele>
        <time>2024-05-19T06:36:07Z</time>
      </trkpt>
      <trkpt lat="45.90513" lon="3.39582">
        <ele>346.2</ele>
        <time>2024-05-19T06:36:08Z</time>
      </trkpt>
      <trkpt lat="45.90511" lon="3.3959">
        <ele>346.2</ele>
        <time>2024-05-19T06:36:09Z</time>
      </trkpt>
      <trkpt lat="45.9051" lon="3.39598">
        <ele>346.2</ele>
        <time>2024-05-19T06:36:10Z</time>
      </trkpt>
      <trkpt lat="45.90508" lon="3.39605">
        <ele>346.4</ele>
        <time>2024-05-19T06:36:11Z</time>
      </trkpt>
      <trkpt lat="45.90506" lon="3.39613">
        <ele>346.4</ele>
        <time>2024-05-19T06:36:12Z</time>
      </trkpt>
      <trkpt lat="45.90505" lon="3.39621">
        <ele>346.4</ele>
        <time>2024-05-19T06:36:13Z</time>
      </trkpt>
      <trkpt lat="45.90503" lon="3.39629">
        <ele>346.6</ele>
        <time>2024-05-19T06:36:14Z</time>
      </trkpt>
      <trkpt lat="45.90501" lon="3.39637">
        <ele>346.6</ele>
        <time>2024-05-19T06:36:15Z</time>
      </trkpt>
      <trkpt lat="45.905" lon="3.39646">
        <ele>346.6</ele>
        <time>2024-05-19T06:36:16Z</time>
      </trkpt>
      <trkpt lat="45.90499" lon="3.39654">
        <ele>346.8</ele>
        <time>2024-05-19T06:36:17Z</time>
      </trkpt>
      <trkpt lat="45.90498" lon="3.39663">
        <ele>346.8</ele>
        <time>2024-05-19T06:36:18Z</time>
      </trkpt>
      <trkpt lat="45.90497" lon="3.39671">
        <ele>346.8</ele>
        <time>2024-05-19T06:36:19Z</time>
      </trkpt>
      <trkpt lat="45.90496" lon="3.3968">
        <ele>347</ele>
        <time>2024-05-19T06:36:20Z</time>
      </trkpt>
      <trkpt lat="45.90496" lon="3.39688">
        <ele>347</ele>
        <time>2024-05-19T06:36:21Z</time>
      </trkpt>
      <trkpt lat="45.90496" lon="3.39697">
        <ele>347</ele>
        <time>2024-05-19T06:36:22Z</time>
      </trkpt>
      <trkpt lat="45.90497" lon="3.39707">
        <ele>347</ele>
        <time>2024-05-19T06:36:23Z</time>
      </trkpt>
      <trkpt lat="45.90498" lon="3.39716">
        <ele>347</ele>
        <time>2024-05-19T06:36:24Z</time>
      </trkpt>
      <trkpt lat="45.90499" lon="3.39725">
        <ele>347</ele>
        <time>2024-05-19T06:36:25Z</time>
      </trkpt>
      <trkpt lat="45.90499" lon="3.39734">
        <ele>347</ele>
        <time>2024-05-19T06:36:26Z</time>
      </trkpt>
      <trkpt lat="45.905" lon="3.39743">
        <ele>347</ele>
        <time>2024-05-19T06:36:27Z</time>
      </trkpt>
      <trkpt lat="45.90501" lon="3.39752">
        <ele>347</ele>
        <time>2024-05-19T06:36:28Z</time>
      </trkpt>
      <trkpt lat="45.90502" lon="3.39761">
        <ele>347</ele>
        <time>2024-05-19T06:36:29Z</time>
      </trkpt>
      <trkpt lat="45.90502" lon="3.39771">
        <ele>347</ele>
        <time>2024-05-19T06:36:30Z</time>
      </trkpt>
      <trkpt lat="45.90503" lon="3.3978">
        <ele>347</ele>
        <time>2024-05-19T06:36:31Z</time>
      </trkpt>
      <trkpt lat="45.90504" lon="3.39789">
        <ele>347.2</ele>
        <time>2024-05-19T06:36:32Z</time>
      </trkpt>
      <trkpt lat="45.90505" lon="3.39798">
        <ele>347.2</ele>
        <time>2024-05-19T06:36:33Z</time>
      </trkpt>
      <trkpt lat="45.90505" lon="3.39807">
        <ele>347.2</ele>
        <time>2024-05-19T06:36:34Z</time>
      </trkpt>
      <trkpt lat="45.90506" lon="3.39815">
        <ele>347.2</ele>
        <time>2024-05-19T06:36:35Z</time>
      </trkpt>
      <trkpt lat="45.90507" lon="3.39824">
        <ele>347.2</ele>
        <time>2024-05-19T06:36:36Z</time>
      </trkpt>
      <trkpt lat="45.90507" lon="3.39833">
        <ele>347.2</ele>
        <time>2024-05-19T06:36:37Z</time>
      </trkpt>
      <trkpt lat="45.90508" lon="3.39841">
        <ele>347.4</ele>
        <time>2024-05-19T06:36:38Z</time>
      </trkpt>
      <trkpt lat="45.90509" lon="3.39849">
        <ele>347.4</ele>
        <time>2024-05-19T06:36:39Z</time>
      </trkpt>
      <trkpt lat="45.90509" lon="3.39857">
        <ele>347.6</ele>
        <time>2024-05-19T06:36:40Z</time>
      </trkpt>
      <trkpt lat="45.9051" lon="3.39864">
        <ele>347.6</ele>
        <time>2024-05-19T06:36:41Z</time>
      </trkpt>
      <trkpt lat="45.9051" lon="3.39872">
        <ele>347.6</ele>
        <time>2024-05-19T06:36:42Z</time>
      </trkpt>
      <trkpt lat="45.90511" lon="3.39879">
        <ele>347.6</ele>
        <time>2024-05-19T06:36:43Z</time>
      </trkpt>
      <trkpt lat="45.90512" lon="3.39887">
        <ele>347.8</ele>
        <time>2024-05-19T06:36:44Z</time>
      </trkpt>
      <trkpt lat="45.90512" lon="3.39894">
        <ele>347.8</ele>
        <time>2024-05-19T06:36:45Z</time>
      </trkpt>
      <trkpt lat="45.90513" lon="3.39902">
        <ele>347.8</ele>
        <time>2024-05-19T06:36:46Z</time>
      </trkpt>
      <trkpt lat="45.90513" lon="3.3991">
        <ele>348</ele>
        <time>2024-05-19T06:36:47Z</time>
      </trkpt>
      <trkpt lat="45.90514" lon="3.39917">
        <ele>348</ele>
        <time>2024-05-19T06:36:48Z</time>
      </trkpt>
      <trkpt lat="45.90514" lon="3.39925">
        <ele>348</ele>
        <time>2024-05-19T06:36:49Z</time>
      </trkpt>
      <trkpt lat="45.90515" lon="3.39933">
        <ele>348.2</ele>
        <time>2024-05-19T06:36:50Z</time>
      </trkpt>
      <trkpt lat="45.90515" lon="3.39941">
        <ele>348.2</ele>
        <time>2024-05-19T06:36:51Z</time>
      </trkpt>
      <trkpt lat="45.90516" lon="3.3995">
        <ele>348.2</ele>
        <time>2024-05-19T06:36:52Z</time>
      </trkpt>
      <trkpt lat="45.90517" lon="3.39958">
        <ele>348.2</ele>
        <time>2024-05-19T06:36:53Z</time>
      </trkpt>
      <trkpt lat="45.90517" lon="3.39966">
        <ele>348.4</ele>
        <time>2024-05-19T06:36:54Z</time>
      </trkpt>
      <trkpt lat="45.90516" lon="3.39974">
        <ele>348.4</ele>
        <time>2024-05-19T06:36:55Z</time>
      </trkpt>
      <trkpt lat="45.90515" lon="3.39982">
        <ele>348.4</ele>
        <time>2024-05-19T06:36:56Z</time>
      </trkpt>
      <trkpt lat="45.90514" lon="3.3999">
        <ele>348.6</ele>
        <time>2024-05-19T06:36:57Z</time>
      </trkpt>
      <trkpt lat="45.90514" lon="3.39997">
        <ele>348.6</ele>
        <time>2024-05-19T06:36:58Z</time>
      </trkpt>
      <trkpt lat="45.90513" lon="3.40005">
        <ele>348.6</ele>
        <time>2024-05-19T06:36:59Z</time>
      </trkpt>
      <trkpt lat="45.90512" lon="3.40012">
        <ele>348.6</ele>
        <time>2024-05-19T06:37:00Z</time>
      </trkpt>
      <trkpt lat="45.90511" lon="3.4002">
        <ele>348.8</ele>
        <time>2024-05-19T06:37:01Z</time>
      </trkpt>
      <trkpt lat="45.9051" lon="3.40028">
        <ele>348.8</ele>
        <time>2024-05-19T06:37:02Z</time>
      </trkpt>
      <trkpt lat="45.90508" lon="3.40035">
        <ele>348.8</ele>
        <time>2024-05-19T06:37:03Z</time>
      </trkpt>
      <trkpt lat="45.90506" lon="3.40042">
        <ele>349</ele>
        <time>2024-05-19T06:37:04Z</time>
      </trkpt>
      <trkpt lat="45.90504" lon="3.40049">
        <ele>349</ele>
        <time>2024-05-19T06:37:05Z</time>
      </trkpt>
      <trkpt lat="45.90502" lon="3.40056">
        <ele>349.2</ele>
        <time>2024-05-19T06:37:06Z</time>
      </trkpt>
      <trkpt lat="45.90501" lon="3.40063">
        <ele>349.2</ele>
        <time>2024-05-19T06:37:07Z</time>
      </trkpt>
      <trkpt lat="45.90499" lon="3.40071">
        <ele>349.4</ele>
        <time>2024-05-19T06:37:08Z</time>
      </trkpt>
      <trkpt lat="45.90497" lon="3.40078">
        <ele>349.4</ele>
        <time>2024-05-19T06:37:09Z</time>
      </trkpt>
      <trkpt lat="45.90495" lon="3.40085">
        <ele>349.4</ele>
        <time>2024-05-19T06:37:10Z</time>
      </trkpt>
      <trkpt lat="45.90493" lon="3.40092">
        <ele>349.6</ele>
        <time>2024-05-19T06:37:11Z</time>
      </trkpt>
      <trkpt lat="45.90491" lon="3.40099">
        <ele>349.6</ele>
        <time>2024-05-19T06:37:12Z</time>
      </trkpt>
      <trkpt lat="45.90489" lon="3.40106">
        <ele>349.6</ele>
        <time>2024-05-19T06:37:13Z</time>
      </trkpt>
      <trkpt lat="45.90487" lon="3.40113">
        <ele>349.6</ele>
        <time>2024-05-19T06:37:14Z</time>
      </trkpt>
      <trkpt lat="45.90485" lon="3.4012">
        <ele>349.8</ele>
        <time>2024-05-19T06:37:15Z</time>
      </trkpt>
      <trkpt lat="45.90483" lon="3.40127">
        <ele>349.8</ele>
        <time>2024-05-19T06:37:16Z</time>
      </trkpt>
      <trkpt lat="45.90481" lon="3.40133">
        <ele>350</ele>
        <time>2024-05-19T06:37:17Z</time>
      </trkpt>
      <trkpt lat="45.90479" lon="3.4014">
        <ele>350.2</ele>
        <time>2024-05-19T06:37:18Z</time>
      </trkpt>
      <trkpt lat="45.90478" lon="3.40147">
        <ele>350.2</ele>
        <time>2024-05-19T06:37:19Z</time>
      </trkpt>
      <trkpt lat="45.90476" lon="3.40154">
        <ele>350.2</ele>
        <time>2024-05-19T06:37:20Z</time>
      </trkpt>
      <trkpt lat="45.90474" lon="3.40161">
        <ele>350.4</ele>
        <time>2024-05-19T06:37:21Z</time>
      </trkpt>
      <trkpt lat="45.90472" lon="3.40168">
        <ele>350.4</ele>
        <time>2024-05-19T06:37:22Z</time>
      </trkpt>
      <trkpt lat="45.9047" lon="3.40174">
        <ele>350.6</ele>
        <time>2024-05-19T06:37:23Z</time>
      </trkpt>
      <trkpt lat="45.90468" lon="3.40181">
        <ele>350.6</ele>
        <time>2024-05-19T06:37:24Z</time>
      </trkpt>
      <trkpt lat="45.90466" lon="3.40188">
        <ele>350.8</ele>
        <time>2024-05-19T06:37:25Z</time>
      </trkpt>
      <trkpt lat="45.90464" lon="3.40195">
        <ele>350.8</ele>
        <time>2024-05-19T06:37:26Z</time>
      </trkpt>
      <trkpt lat="45.90462" lon="3.40202">
        <ele>350.8</ele>
        <time>2024-05-19T06:37:27Z</time>
      </trkpt>
      <trkpt lat="45.9046" lon="3.40209">
        <ele>351</ele>
        <time>2024-05-19T06:37:28Z</time>
      </trkpt>
      <trkpt lat="45.90458" lon="3.40217">
        <ele>351</ele>
        <time>2024-05-19T06:37:29Z</time>
      </trkpt>
      <trkpt lat="45.90457" lon="3.40224">
        <ele>351.2</ele>
        <time>2024-05-19T06:37:30Z</time>
      </trkpt>
      <trkpt lat="45.90455" lon="3.40231">
        <ele>351.2</ele>
        <time>2024-05-19T06:37:31Z</time>
      </trkpt>
      <trkpt lat="45.90453" lon="3.40238">
        <ele>351.2</ele>
        <time>2024-05-19T06:37:32Z</time>
      </trkpt>
      <trkpt lat="45.90451" lon="3.40245">
        <ele>351.4</ele>
        <time>2024-05-19T06:37:33Z</time>
      </trkpt>
      <trkpt lat="45.90449" lon="3.40253">
        <ele>351.4</ele>
        <time>2024-05-19T06:37:34Z</time>
      </trkpt>
      <trkpt lat="45.90447" lon="3.4026">
        <ele>351.4</ele>
        <time>2024-05-19T06:37:35Z</time>
      </trkpt>
      <trkpt lat="45.90445" lon="3.40267">
        <ele>351.4</ele>
        <time>2024-05-19T06:37:36Z</time>
      </trkpt>
      <trkpt lat="45.90443" lon="3.40274">
        <ele>351.6</ele>
        <time>2024-05-19T06:37:37Z</time>
      </trkpt>
      <trkpt lat="45.90441" lon="3.40282">
        <ele>351.6</ele>
        <time>2024-05-19T06:37:38Z</time>
      </trkpt>
      <trkpt lat="45.90438" lon="3.40289">
        <ele>351.6</ele>
        <time>2024-05-19T06:37:39Z</time>
      </trkpt>
      <trkpt lat="45.90437" lon="3.40296">
        <ele>351.8</ele>
        <time>2024-05-19T06:37:40Z</time>
      </trkpt>
      <trkpt lat="45.90435" lon="3.40304">
        <ele>351.8</ele>
        <time>2024-05-19T06:37:41Z</time>
      </trkpt>
      <trkpt lat="45.90432" lon="3.40311">
        <ele>351.8</ele>
        <time>2024-05-19T06:37:42Z</time>
      </trkpt>
      <trkpt lat="45.9043" lon="3.40318">
        <ele>351.8</ele>
        <time>2024-05-19T06:37:43Z</time>
      </trkpt>
      <trkpt lat="45.90428" lon="3.40325">
        <ele>352</ele>
        <time>2024-05-19T06:37:44Z</time>
      </trkpt>
      <trkpt lat="45.90426" lon="3.40332">
        <ele>352</ele>
        <time>2024-05-19T06:37:45Z</time>
      </trkpt>
      <trkpt lat="45.90424" lon="3.40339">
        <ele>352</ele>
        <time>2024-05-19T06:37:46Z</time>
      </trkpt>
      <trkpt lat="45.90422" lon="3.40346">
        <ele>352.2</ele>
        <time>2024-05-19T06:37:47Z</time>
      </trkpt>
      <trkpt lat="45.90419" lon="3.40353">
        <ele>352.2</ele>
        <time>2024-05-19T06:37:48Z</time>
      </trkpt>
      <trkpt lat="45.90417" lon="3.4036">
        <ele>352.4</ele>
        <time>2024-05-19T06:37:49Z</time>
      </trkpt>
      <trkpt lat="45.90415" lon="3.40367">
        <ele>352.4</ele>
        <time>2024-05-19T06:37:50Z</time>
      </trkpt>
      <trkpt lat="45.90412" lon="3.40374">
        <ele>352.4</ele>
        <time>2024-05-19T06:37:51Z</time>
      </trkpt>
      <trkpt lat="45.90408" lon="3.40379">
        <ele>352.6</ele>
        <time>2024-05-19T06:37:52Z</time>
      </trkpt>
      <trkpt lat="45.90404" lon="3.40385">
        <ele>352.6</ele>
        <time>2024-05-19T06:37:53Z</time>
      </trkpt>
      <trkpt lat="45.90401" lon="3.4039">
        <ele>352.6</ele>
        <time>2024-05-19T06:37:54Z</time>
      </trkpt>
      <trkpt lat="45.90397" lon="3.40396">
        <ele>352.6</ele>
        <time>2024-05-19T06:37:55Z</time>
      </trkpt>
      <trkpt lat="45.90393" lon="3.40402">
        <ele>352.8</ele>
        <time>2024-05-19T06:37:56Z</time>
      </trkpt>
      <trkpt lat="45.90389" lon="3.40407">
        <ele>352.8</ele>
        <time>2024-05-19T06:37:57Z</time>
      </trkpt>
      <trkpt lat="45.90385" lon="3.40413">
        <ele>352.8</ele>
        <time>2024-05-19T06:37:58Z</time>
      </trkpt>
      <trkpt lat="45.90382" lon="3.40419">
        <ele>352.8</ele>
        <time>2024-05-19T06:37:59Z</time>
      </trkpt>
      <trkpt lat="45.90378" lon="3.40425">
        <ele>353</ele>
        <time>2024-05-19T06:38:00Z</time>
      </trkpt>
      <trkpt lat="45.90374" lon="3.40431">
        <ele>353</ele>
        <time>2024-05-19T06:38:01Z</time>
      </trkpt>
      <trkpt lat="45.9037" lon="3.40437">
        <ele>353</ele>
        <time>2024-05-19T06:38:02Z</time>
      </trkpt>
      <trkpt lat="45.90366" lon="3.40443">
        <ele>353.2</ele>
        <time>2024-05-19T06:38:03Z</time>
      </trkpt>
      <trkpt lat="45.90362" lon="3.40449">
        <ele>353.2</ele>
        <time>2024-05-19T06:38:04Z</time>
      </trkpt>
      <trkpt lat="45.90358" lon="3.40455">
        <ele>353.2</ele>
        <time>2024-05-19T06:38:05Z</time>
      </trkpt>
      <trkpt lat="45.90354" lon="3.40461">
        <ele>353.4</ele>
        <time>2024-05-19T06:38:06Z</time>
      </trkpt>
      <trkpt lat="45.9035" lon="3.40467">
        <ele>353.4</ele>
        <time>2024-05-19T06:38:07Z</time>
      </trkpt>
      <trkpt lat="45.90346" lon="3.40473">
        <ele>353.4</ele>
        <time>2024-05-19T06:38:08Z</time>
      </trkpt>
      <trkpt lat="45.90342" lon="3.40478">
        <ele>353.4</ele>
        <time>2024-05-19T06:38:09Z</time>
      </trkpt>
      <trkpt lat="45.90338" lon="3.40484">
        <ele>353.6</ele>
        <time>2024-05-19T06:38:10Z</time>
      </trkpt>
      <trkpt lat="45.90334" lon="3.4049">
        <ele>353.6</ele>
        <time>2024-05-19T06:38:11Z</time>
      </trkpt>
      <trkpt lat="45.90331" lon="3.40496">
        <ele>353.6</ele>
        <time>2024-05-19T06:38:12Z</time>
      </trkpt>
      <trkpt lat="45.90327" lon="3.40501">
        <ele>353.6</ele>
        <time>2024-05-19T06:38:13Z</time>
      </trkpt>
      <trkpt lat="45.90323" lon="3.40507">
        <ele>353.6</ele>
        <time>2024-05-19T06:38:14Z</time>
      </trkpt>
      <trkpt lat="45.9032" lon="3.40512">
        <ele>353.8</ele>
        <time>2024-05-19T06:38:15Z</time>
      </trkpt>
      <trkpt lat="45.90316" lon="3.40518">
        <ele>353.8</ele>
        <time>2024-05-19T06:38:16Z</time>
      </trkpt>
      <trkpt lat="45.90312" lon="3.40524">
        <ele>353.8</ele>
        <time>2024-05-19T06:38:17Z</time>
      </trkpt>
      <trkpt lat="45.90308" lon="3.40529">
        <ele>354</ele>
        <time>2024-05-19T06:38:18Z</time>
      </trkpt>
      <trkpt lat="45.90305" lon="3.40535">
        <ele>354</ele>
        <time>2024-05-19T06:38:19Z</time>
      </trkpt>
      <trkpt lat="45.90301" lon="3.40541">
        <ele>354</ele>
        <time>2024-05-19T06:38:20Z</time>
      </trkpt>
      <trkpt lat="45.90297" lon="3.40547">
        <ele>354</ele>
        <time>2024-05-19T06:38:21Z</time>
      </trkpt>
      <trkpt lat="45.90297" lon="3.40547">
        <ele>354.2</ele>
        <time>2024-05-19T06:38:22Z</time>
      </trkpt>
      <trkpt lat="45.90289" lon="3.40558">
        <ele>354.2</ele>
        <time>2024-05-19T06:38:23Z</time>
      </trkpt>
      <trkpt lat="45.90285" lon="3.40564">
        <ele>354.4</ele>
        <time>2024-05-19T06:38:24Z</time>
      </trkpt>
      <trkpt lat="45.90281" lon="3.4057">
        <ele>354.4</ele>
        <time>2024-05-19T06:38:25Z</time>
      </trkpt>
      <trkpt lat="45.90278" lon="3.40576">
        <ele>354.4</ele>
        <time>2024-05-19T06:38:26Z</time>
      </trkpt>
      <trkpt lat="45.90274" lon="3.40582">
        <ele>354.6</ele>
        <time>2024-05-19T06:38:27Z</time>
      </trkpt>
      <trkpt lat="45.9027" lon="3.40587">
        <ele>354.6</ele>
        <time>2024-05-19T06:38:28Z</time>
      </trkpt>
      <trkpt lat="45.90266" lon="3.40593">
        <ele>354.8</ele>
        <time>2024-05-19T06:38:29Z</time>
      </trkpt>
      <trkpt lat="45.90262" lon="3.40598">
        <ele>354.8</ele>
        <time>2024-05-19T06:38:30Z</time>
      </trkpt>
      <trkpt lat="45.90258" lon="3.40604">
        <ele>354.8</ele>
        <time>2024-05-19T06:38:31Z</time>
      </trkpt>
      <trkpt lat="45.90254" lon="3.40609">
        <ele>354.8</ele>
        <time>2024-05-19T06:38:32Z</time>
      </trkpt>
      <trkpt lat="45.9025" lon="3.40614">
        <ele>355</ele>
        <time>2024-05-19T06:38:33Z</time>
      </trkpt>
      <trkpt lat="45.90246" lon="3.40619">
        <ele>355</ele>
        <time>2024-05-19T06:38:34Z</time>
      </trkpt>
      <trkpt lat="45.90242" lon="3.40625">
        <ele>355</ele>
        <time>2024-05-19T06:38:35Z</time>
      </trkpt>
      <trkpt lat="45.90237" lon="3.40631">
        <ele>355</ele>
        <time>2024-05-19T06:38:36Z</time>
      </trkpt>
      <trkpt lat="45.90233" lon="3.40638">
        <ele>355</ele>
        <time>2024-05-19T06:38:37Z</time>
      </trkpt>
      <trkpt lat="45.90228" lon="3.40644">
        <ele>355</ele>
        <time>2024-05-19T06:38:38Z</time>
      </trkpt>
      <trkpt lat="45.90224" lon="3.4065">
        <ele>355.2</ele>
        <time>2024-05-19T06:38:39Z</time>
      </trkpt>
      <trkpt lat="45.9022" lon="3.40655">
        <ele>355.2</ele>
        <time>2024-05-19T06:38:40Z</time>
      </trkpt>
      <trkpt lat="45.90215" lon="3.40661">
        <ele>355.2</ele>
        <time>2024-05-19T06:38:41Z</time>
      </trkpt>
      <trkpt lat="45.90211" lon="3.40667">
        <ele>355.2</ele>
        <time>2024-05-19T06:38:42Z</time>
      </trkpt>
      <trkpt lat="45.90207" lon="3.40673">
        <ele>355.2</ele>
        <time>2024-05-19T06:38:43Z</time>
      </trkpt>
      <trkpt lat="45.90202" lon="3.40679">
        <ele>355.4</ele>
        <time>2024-05-19T06:38:44Z</time>
      </trkpt>
      <trkpt lat="45.90198" lon="3.40685">
        <ele>355.4</ele>
        <time>2024-05-19T06:38:45Z</time>
      </trkpt>
      <trkpt lat="45.90194" lon="3.4069">
        <ele>355.4</ele>
        <time>2024-05-19T06:38:46Z</time>
      </trkpt>
      <trkpt lat="45.9019" lon="3.40696">
        <ele>355.4</ele>
        <time>2024-05-19T06:38:47Z</time>
      </trkpt>
      <trkpt lat="45.90186" lon="3.40701">
        <ele>355.4</ele>
        <time>2024-05-19T06:38:48Z</time>
      </trkpt>
      <trkpt lat="45.90182" lon="3.40707">
        <ele>355.4</ele>
        <time>2024-05-19T06:38:49Z</time>
      </trkpt>
      <trkpt lat="45.90178" lon="3.40714">
        <ele>355.4</ele>
        <time>2024-05-19T06:38:50Z</time>
      </trkpt>
      <trkpt lat="45.90175" lon="3.40722">
        <ele>355.6</ele>
        <time>2024-05-19T06:38:51Z</time>
      </trkpt>
      <trkpt lat="45.90171" lon="3.40729">
        <ele>355.6</ele>
        <time>2024-05-19T06:38:52Z</time>
      </trkpt>
      <trkpt lat="45.90168" lon="3.40737">
        <ele>355.6</ele>
        <time>2024-05-19T06:38:53Z</time>
      </trkpt>
      <trkpt lat="45.90165" lon="3.40744">
        <ele>355.6</ele>
        <time>2024-05-19T06:38:54Z</time>
      </trkpt>
      <trkpt lat="45.90162" lon="3.40751">
        <ele>355.6</ele>
        <time>2024-05-19T06:38:55Z</time>
      </trkpt>
      <trkpt lat="45.90159" lon="3.40759">
        <ele>355.6</ele>
        <time>2024-05-19T06:38:56Z</time>
      </trkpt>
      <trkpt lat="45.90156" lon="3.40766">
        <ele>355.8</ele>
        <time>2024-05-19T06:38:57Z</time>
      </trkpt>
      <trkpt lat="45.90152" lon="3.40774">
        <ele>355.8</ele>
        <time>2024-05-19T06:38:58Z</time>
      </trkpt>
      <trkpt lat="45.90149" lon="3.40781">
        <ele>355.8</ele>
        <time>2024-05-19T06:38:59Z</time>
      </trkpt>
      <trkpt lat="45.90146" lon="3.40789">
        <ele>355.8</ele>
        <time>2024-05-19T06:39:00Z</time>
      </trkpt>
      <trkpt lat="45.90143" lon="3.40796">
        <ele>355.8</ele>
        <time>2024-05-19T06:39:01Z</time>
      </trkpt>
      <trkpt lat="45.9014" lon="3.40803">
        <ele>355.8</ele>
        <time>2024-05-19T06:39:02Z</time>
      </trkpt>
      <trkpt lat="45.90136" lon="3.40811">
        <ele>356</ele>
        <time>2024-05-19T06:39:03Z</time>
      </trkpt>
      <trkpt lat="45.90133" lon="3.40818">
        <ele>356</ele>
        <time>2024-05-19T06:39:04Z</time>
      </trkpt>
      <trkpt lat="45.9013" lon="3.40826">
        <ele>356</ele>
        <time>2024-05-19T06:39:05Z</time>
      </trkpt>
      <trkpt lat="45.90127" lon="3.40833">
        <ele>356</ele>
        <time>2024-05-19T06:39:06Z</time>
      </trkpt>
      <trkpt lat="45.90124" lon="3.4084">
        <ele>356</ele>
        <time>2024-05-19T06:39:07Z</time>
      </trkpt>
      <trkpt lat="45.9012" lon="3.40848">
        <ele>356</ele>
        <time>2024-05-19T06:39:08Z</time>
      </trkpt>
      <trkpt lat="45.90117" lon="3.40855">
        <ele>356</ele>
        <time>2024-05-19T06:39:09Z</time>
      </trkpt>
      <trkpt lat="45.90114" lon="3.40862">
        <ele>356</ele>
        <time>2024-05-19T06:39:10Z</time>
      </trkpt>
      <trkpt lat="45.90111" lon="3.4087">
        <ele>356</ele>
        <time>2024-05-19T06:39:11Z</time>
      </trkpt>
      <trkpt lat="45.90108" lon="3.40877">
        <ele>356</ele>
        <time>2024-05-19T06:39:12Z</time>
      </trkpt>
      <trkpt lat="45.90104" lon="3.40885">
        <ele>356.2</ele>
        <time>2024-05-19T06:39:13Z</time>
      </trkpt>
      <trkpt lat="45.90101" lon="3.40892">
        <ele>356.2</ele>
        <time>2024-05-19T06:39:14Z</time>
      </trkpt>
      <trkpt lat="45.90098" lon="3.409">
        <ele>356.2</ele>
        <time>2024-05-19T06:39:15Z</time>
      </trkpt>
      <trkpt lat="45.90094" lon="3.40908">
        <ele>356</ele>
        <time>2024-05-19T06:39:16Z</time>
      </trkpt>
      <trkpt lat="45.90091" lon="3.40916">
        <ele>356.2</ele>
        <time>2024-05-19T06:39:17Z</time>
      </trkpt>
      <trkpt lat="45.90087" lon="3.40924">
        <ele>356</ele>
        <time>2024-05-19T06:39:18Z</time>
      </trkpt>
      <trkpt lat="45.90084" lon="3.40932">
        <ele>356.2</ele>
        <time>2024-05-19T06:39:19Z</time>
      </trkpt>
      <trkpt lat="45.9008" lon="3.40939">
        <ele>356</ele>
        <time>2024-05-19T06:39:20Z</time>
      </trkpt>
      <trkpt lat="45.90076" lon="3.40947">
        <ele>356</ele>
        <time>2024-05-19T06:39:21Z</time>
      </trkpt>
      <trkpt lat="45.90072" lon="3.40955">
        <ele>356</ele>
        <time>2024-05-19T06:39:22Z</time>
      </trkpt>
      <trkpt lat="45.90068" lon="3.40962">
        <ele>356</ele>
        <time>2024-05-19T06:39:23Z</time>
      </trkpt>
      <trkpt lat="45.90064" lon="3.4097">
        <ele>356</ele>
        <time>2024-05-19T06:39:24Z</time>
      </trkpt>
      <trkpt lat="45.90059" lon="3.40978">
        <ele>356</ele>
        <time>2024-05-19T06:39:25Z</time>
      </trkpt>
      <trkpt lat="45.90055" lon="3.40986">
        <ele>356</ele>
        <time>2024-05-19T06:39:26Z</time>
      </trkpt>
      <trkpt lat="45.90051" lon="3.40993">
        <ele>356</ele>
        <time>2024-05-19T06:39:27Z</time>
      </trkpt>
      <trkpt lat="45.90046" lon="3.41">
        <ele>356</ele>
        <time>2024-05-19T06:39:28Z</time>
      </trkpt>
      <trkpt lat="45.90041" lon="3.41006">
        <ele>356</ele>
        <time>2024-05-19T06:39:29Z</time>
      </trkpt>
      <trkpt lat="45.90037" lon="3.41013">
        <ele>356.2</ele>
        <time>2024-05-19T06:39:30Z</time>
      </trkpt>
      <trkpt lat="45.90032" lon="3.4102">
        <ele>356</ele>
        <time>2024-05-19T06:39:31Z</time>
      </trkpt>
      <trkpt lat="45.90027" lon="3.41026">
        <ele>356</ele>
        <time>2024-05-19T06:39:32Z</time>
      </trkpt>
      <trkpt lat="45.90021" lon="3.41034">
        <ele>355.8</ele>
        <time>2024-05-19T06:39:33Z</time>
      </trkpt>
      <trkpt lat="45.90016" lon="3.4104">
        <ele>356</ele>
        <time>2024-05-19T06:39:34Z</time>
      </trkpt>
      <trkpt lat="45.90012" lon="3.41047">
        <ele>355.8</ele>
        <time>2024-05-19T06:39:35Z</time>
      </trkpt>
      <trkpt lat="45.90007" lon="3.41053">
        <ele>355.8</ele>
        <time>2024-05-19T06:39:36Z</time>
      </trkpt>
      <trkpt lat="45.90003" lon="3.41059">
        <ele>355.8</ele>
        <time>2024-05-19T06:39:37Z</time>
      </trkpt>
      <trkpt lat="45.89999" lon="3.41064">
        <ele>355.8</ele>
        <time>2024-05-19T06:39:38Z</time>
      </trkpt>
      <trkpt lat="45.89994" lon="3.41071">
        <ele>355.8</ele>
        <time>2024-05-19T06:39:39Z</time>
      </trkpt>
      <trkpt lat="45.8999" lon="3.41077">
        <ele>355.8</ele>
        <time>2024-05-19T06:39:40Z</time>
      </trkpt>
      <trkpt lat="45.89986" lon="3.41083">
        <ele>355.8</ele>
        <time>2024-05-19T06:39:41Z</time>
      </trkpt>
      <trkpt lat="45.89982" lon="3.41091">
        <ele>355.8</ele>
        <time>2024-05-19T06:39:42Z</time>
      </trkpt>
      <trkpt lat="45.89978" lon="3.41099">
        <ele>355.6</ele>
        <time>2024-05-19T06:39:43Z</time>
      </trkpt>
      <trkpt lat="45.89974" lon="3.41107">
        <ele>355.6</ele>
        <time>2024-05-19T06:39:44Z</time>
      </trkpt>
      <trkpt lat="45.89969" lon="3.41116">
        <ele>355.6</ele>
        <time>2024-05-19T06:39:45Z</time>
      </trkpt>
      <trkpt lat="45.89965" lon="3.41124">
        <ele>355.4</ele>
        <time>2024-05-19T06:39:46Z</time>
      </trkpt>
      <trkpt lat="45.89962" lon="3.41131">
        <ele>355.4</ele>
        <time>2024-05-19T06:39:47Z</time>
      </trkpt>
      <trkpt lat="45.89958" lon="3.41139">
        <ele>355.4</ele>
        <time>2024-05-19T06:39:48Z</time>
      </trkpt>
      <trkpt lat="45.89954" lon="3.41147">
        <ele>355.4</ele>
        <time>2024-05-19T06:39:49Z</time>
      </trkpt>
      <trkpt lat="45.8995" lon="3.41154">
        <ele>355.4</ele>
        <time>2024-05-19T06:39:50Z</time>
      </trkpt>
      <trkpt lat="45.89946" lon="3.41162">
        <ele>355.4</ele>
        <time>2024-05-19T06:39:51Z</time>
      </trkpt>
      <trkpt lat="45.89944" lon="3.41169">
        <ele>355.4</ele>
        <time>2024-05-19T06:39:52Z</time>
      </trkpt>
      <trkpt lat="45.89931" lon="3.4117">
        <ele>355.4</ele>
        <time>2024-05-19T06:39:53Z</time>
      </trkpt>
      <trkpt lat="45.89925" lon="3.41169">
        <ele>355.4</ele>
        <time>2024-05-19T06:39:54Z</time>
      </trkpt>
      <trkpt lat="45.8992" lon="3.41172">
        <ele>355.4</ele>
        <time>2024-05-19T06:39:55Z</time>
      </trkpt>
      <trkpt lat="45.89914" lon="3.41174">
        <ele>355.2</ele>
        <time>2024-05-19T06:39:56Z</time>
      </trkpt>
      <trkpt lat="45.89908" lon="3.41177">
        <ele>355.2</ele>
        <time>2024-05-19T06:39:57Z</time>
      </trkpt>
      <trkpt lat="45.89902" lon="3.41179">
        <ele>355.2</ele>
        <time>2024-05-19T06:39:58Z</time>
      </trkpt>
      <trkpt lat="45.89897" lon="3.41182">
        <ele>355.4</ele>
        <time>2024-05-19T06:39:59Z</time>
      </trkpt>
      <trkpt lat="45.89891" lon="3.41184">
        <ele>355.4</ele>
        <time>2024-05-19T06:40:00Z</time>
      </trkpt>
      <trkpt lat="45.89885" lon="3.41187">
        <ele>355.4</ele>
        <time>2024-05-19T06:40:01Z</time>
      </trkpt>
      <trkpt lat="45.89879" lon="3.41189">
        <ele>355.4</ele>
        <time>2024-05-19T06:40:02Z</time>
      </trkpt>
      <trkpt lat="45.89873" lon="3.41191">
        <ele>355.4</ele>
        <time>2024-05-19T06:40:03Z</time>
      </trkpt>
      <trkpt lat="45.89868" lon="3.41194">
        <ele>355.4</ele>
        <time>2024-05-19T06:40:04Z</time>
      </trkpt>
      <trkpt lat="45.89862" lon="3.41196">
        <ele>355.4</ele>
        <time>2024-05-19T06:40:05Z</time>
      </trkpt>
      <trkpt lat="45.89857" lon="3.41199">
        <ele>355.2</ele>
        <time>2024-05-19T06:40:06Z</time>
      </trkpt>
      <trkpt lat="45.89851" lon="3.41201">
        <ele>355.2</ele>
        <time>2024-05-19T06:40:07Z</time>
      </trkpt>
      <trkpt lat="45.89846" lon="3.41203">
        <ele>355</ele>
        <time>2024-05-19T06:40:08Z</time>
      </trkpt>
      <trkpt lat="45.8984" lon="3.41206">
        <ele>355</ele>
        <time>2024-05-19T06:40:09Z</time>
      </trkpt>
      <trkpt lat="45.89835" lon="3.41208">
        <ele>355</ele>
        <time>2024-05-19T06:40:10Z</time>
      </trkpt>
      <trkpt lat="45.8983" lon="3.4121">
        <ele>355.2</ele>
        <time>2024-05-19T06:40:11Z</time>
      </trkpt>
      <trkpt lat="45.89825" lon="3.41212">
        <ele>355.2</ele>
        <time>2024-05-19T06:40:12Z</time>
      </trkpt>
      <trkpt lat="45.89819" lon="3.41215">
        <ele>355.6</ele>
        <time>2024-05-19T06:40:13Z</time>
      </trkpt>
      <trkpt lat="45.89814" lon="3.41217">
        <ele>355.6</ele>
        <time>2024-05-19T06:40:14Z</time>
      </trkpt>
      <trkpt lat="45.89809" lon="3.41219">
        <ele>355.4</ele>
        <time>2024-05-19T06:40:15Z</time>
      </trkpt>
      <trkpt lat="45.89803" lon="3.41222">
        <ele>355.4</ele>
        <time>2024-05-19T06:40:16Z</time>
      </trkpt>
      <trkpt lat="45.89798" lon="3.41224">
        <ele>355.6</ele>
        <time>2024-05-19T06:40:17Z</time>
      </trkpt>
      <trkpt lat="45.89793" lon="3.41226">
        <ele>355.6</ele>
        <time>2024-05-19T06:40:18Z</time>
      </trkpt>
      <trkpt lat="45.89787" lon="3.41228">
        <ele>355.6</ele>
        <time>2024-05-19T06:40:19Z</time>
      </trkpt>
      <trkpt lat="45.89782" lon="3.41231">
        <ele>355.6</ele>
        <time>2024-05-19T06:40:20Z</time>
      </trkpt>
      <trkpt lat="45.89777" lon="3.41233">
        <ele>355.6</ele>
        <time>2024-05-19T06:40:21Z</time>
      </trkpt>
      <trkpt lat="45.89772" lon="3.41235">
        <ele>355.8</ele>
        <time>2024-05-19T06:40:22Z</time>
      </trkpt>
      <trkpt lat="45.89767" lon="3.41237">
        <ele>355.8</ele>
        <time>2024-05-19T06:40:23Z</time>
      </trkpt>
      <trkpt lat="45.89761" lon="3.41239">
        <ele>355.8</ele>
        <time>2024-05-19T06:40:24Z</time>
      </trkpt>
      <trkpt lat="45.89756" lon="3.41241">
        <ele>355.8</ele>
        <time>2024-05-19T06:40:25Z</time>
      </trkpt>
      <trkpt lat="45.89751" lon="3.41243">
        <ele>355.8</ele>
        <time>2024-05-19T06:40:26Z</time>
      </trkpt>
      <trkpt lat="45.89746" lon="3.41245">
        <ele>355.8</ele>
        <time>2024-05-19T06:40:27Z</time>
      </trkpt>
      <trkpt lat="45.8974" lon="3.41248">
        <ele>356</ele>
        <time>2024-05-19T06:40:28Z</time>
      </trkpt>
      <trkpt lat="45.89735" lon="3.4125">
        <ele>355.8</ele>
        <time>2024-05-19T06:40:29Z</time>
      </trkpt>
      <trkpt lat="45.8973" lon="3.41252">
        <ele>355.8</ele>
        <time>2024-05-19T06:40:30Z</time>
      </trkpt>
      <trkpt lat="45.89725" lon="3.41254">
        <ele>356</ele>
        <time>2024-05-19T06:40:31Z</time>
      </trkpt>
      <trkpt lat="45.89719" lon="3.41256">
        <ele>356</ele>
        <time>2024-05-19T06:40:32Z</time>
      </trkpt>
      <trkpt lat="45.89714" lon="3.41259">
        <ele>356</ele>
        <time>2024-05-19T06:40:33Z</time>
      </trkpt>
      <trkpt lat="45.89709" lon="3.41261">
        <ele>356</ele>
        <time>2024-05-19T06:40:34Z</time>
      </trkpt>
      <trkpt lat="45.89704" lon="3.41264">
        <ele>356.2</ele>
        <time>2024-05-19T06:40:35Z</time>
      </trkpt>
      <trkpt lat="45.89699" lon="3.41267">
        <ele>356.2</ele>
        <time>2024-05-19T06:40:36Z</time>
      </trkpt>
      <trkpt lat="45.89694" lon="3.4127">
        <ele>356.2</ele>
        <time>2024-05-19T06:40:37Z</time>
      </trkpt>
      <trkpt lat="45.89689" lon="3.41272">
        <ele>356.2</ele>
        <time>2024-05-19T06:40:38Z</time>
      </trkpt>
      <trkpt lat="45.89683" lon="3.41275">
        <ele>356.4</ele>
        <time>2024-05-19T06:40:39Z</time>
      </trkpt>
      <trkpt lat="45.89679" lon="3.41278">
        <ele>356.4</ele>
        <time>2024-05-19T06:40:40Z</time>
      </trkpt>
      <trkpt lat="45.89673" lon="3.4128">
        <ele>356.4</ele>
        <time>2024-05-19T06:40:41Z</time>
      </trkpt>
      <trkpt lat="45.89668" lon="3.41283">
        <ele>356.4</ele>
        <time>2024-05-19T06:40:42Z</time>
      </trkpt>
      <trkpt lat="45.89663" lon="3.41286">
        <ele>356.6</ele>
        <time>2024-05-19T06:40:43Z</time>
      </trkpt>
      <trkpt lat="45.89657" lon="3.41289">
        <ele>356.6</ele>
        <time>2024-05-19T06:40:44Z</time>
      </trkpt>
      <trkpt lat="45.89652" lon="3.41292">
        <ele>356.6</ele>
        <time>2024-05-19T06:40:45Z</time>
      </trkpt>
      <trkpt lat="45.89646" lon="3.41294">
        <ele>356.6</ele>
        <time>2024-05-19T06:40:46Z</time>
      </trkpt>
      <trkpt lat="45.89641" lon="3.41297">
        <ele>356.6</ele>
        <time>2024-05-19T06:40:47Z</time>
      </trkpt>
      <trkpt lat="45.89636" lon="3.413">
        <ele>356.8</ele>
        <time>2024-05-19T06:40:48Z</time>
      </trkpt>
      <trkpt lat="45.8963" lon="3.41303">
        <ele>356.8</ele>
        <time>2024-05-19T06:40:49Z</time>
      </trkpt>
      <trkpt lat="45.89625" lon="3.41306">
        <ele>356.8</ele>
        <time>2024-05-19T06:40:50Z</time>
      </trkpt>
      <trkpt lat="45.8962" lon="3.41309">
        <ele>356.8</ele>
        <time>2024-05-19T06:40:51Z</time>
      </trkpt>
      <trkpt lat="45.89614" lon="3.41311">
        <ele>356.8</ele>
        <time>2024-05-19T06:40:52Z</time>
      </trkpt>
      <trkpt lat="45.89609" lon="3.41314">
        <ele>356.8</ele>
        <time>2024-05-19T06:40:53Z</time>
      </trkpt>
      <trkpt lat="45.89604" lon="3.41317">
        <ele>357</ele>
        <time>2024-05-19T06:40:54Z</time>
      </trkpt>
      <trkpt lat="45.89599" lon="3.41319">
        <ele>357</ele>
        <time>2024-05-19T06:40:55Z</time>
      </trkpt>
      <trkpt lat="45.89594" lon="3.41322">
        <ele>357</ele>
        <time>2024-05-19T06:40:56Z</time>
      </trkpt>
      <trkpt lat="45.89588" lon="3.41325">
        <ele>357</ele>
        <time>2024-05-19T06:40:57Z</time>
      </trkpt>
      <trkpt lat="45.89583" lon="3.41329">
        <ele>357</ele>
        <time>2024-05-19T06:40:58Z</time>
      </trkpt>
      <trkpt lat="45.89578" lon="3.41332">
        <ele>357</ele>
        <time>2024-05-19T06:40:59Z</time>
      </trkpt>
      <trkpt lat="45.89573" lon="3.41335">
        <ele>357.2</ele>
        <time>2024-05-19T06:41:00Z</time>
      </trkpt>
      <trkpt lat="45.89568" lon="3.41339">
        <ele>357.2</ele>
        <time>2024-05-19T06:41:01Z</time>
      </trkpt>
      <trkpt lat="45.89563" lon="3.41342">
        <ele>357.4</ele>
        <time>2024-05-19T06:41:02Z</time>
      </trkpt>
      <trkpt lat="45.89558" lon="3.41345">
        <ele>357.4</ele>
        <time>2024-05-19T06:41:03Z</time>
      </trkpt>
      <trkpt lat="45.89553" lon="3.41349">
        <ele>357.4</ele>
        <time>2024-05-19T06:41:04Z</time>
      </trkpt>
      <trkpt lat="45.89548" lon="3.41354">
        <ele>357.4</ele>
        <time>2024-05-19T06:41:05Z</time>
      </trkpt>
      <trkpt lat="45.89543" lon="3.41358">
        <ele>357.4</ele>
        <time>2024-05-19T06:41:06Z</time>
      </trkpt>
      <trkpt lat="45.89538" lon="3.41363">
        <ele>357.6</ele>
        <time>2024-05-19T06:41:07Z</time>
      </trkpt>
      <trkpt lat="45.89533" lon="3.41368">
        <ele>357.6</ele>
        <time>2024-05-19T06:41:08Z</time>
      </trkpt>
      <trkpt lat="45.89528" lon="3.41372">
        <ele>357.6</ele>
        <time>2024-05-19T06:41:09Z</time>
      </trkpt>
      <trkpt lat="45.89523" lon="3.41377">
        <ele>357.6</ele>
        <time>2024-05-19T06:41:10Z</time>
      </trkpt>
      <trkpt lat="45.89518" lon="3.41381">
        <ele>357.6</ele>
        <time>2024-05-19T06:41:11Z</time>
      </trkpt>
      <trkpt lat="45.89513" lon="3.41385">
        <ele>357.8</ele>
        <time>2024-05-19T06:41:12Z</time>
      </trkpt>
      <trkpt lat="45.89508" lon="3.4139">
        <ele>357.8</ele>
        <time>2024-05-19T06:41:13Z</time>
      </trkpt>
      <trkpt lat="45.89503" lon="3.41394">
        <ele>357.8</ele>
        <time>2024-05-19T06:41:14Z</time>
      </trkpt>
      <trkpt lat="45.89498" lon="3.41398">
        <ele>357.8</ele>
        <time>2024-05-19T06:41:15Z</time>
      </trkpt>
      <trkpt lat="45.89492" lon="3.41402">
        <ele>357.8</ele>
        <time>2024-05-19T06:41:16Z</time>
      </trkpt>
      <trkpt lat="45.89487" lon="3.41405">
        <ele>357.8</ele>
        <time>2024-05-19T06:41:17Z</time>
      </trkpt>
      <trkpt lat="45.89481" lon="3.41408">
        <ele>357.8</ele>
        <time>2024-05-19T06:41:18Z</time>
      </trkpt>
      <trkpt lat="45.89476" lon="3.4141">
        <ele>358</ele>
        <time>2024-05-19T06:41:19Z</time>
      </trkpt>
      <trkpt lat="45.8947" lon="3.41411">
        <ele>358</ele>
        <time>2024-05-19T06:41:20Z</time>
      </trkpt>
      <trkpt lat="45.89464" lon="3.41413">
        <ele>358</ele>
        <time>2024-05-19T06:41:21Z</time>
      </trkpt>
      <trkpt lat="45.89458" lon="3.41414">
        <ele>358</ele>
        <time>2024-05-19T06:41:22Z</time>
      </trkpt>
      <trkpt lat="45.89452" lon="3.41416">
        <ele>358</ele>
        <time>2024-05-19T06:41:23Z</time>
      </trkpt>
      <trkpt lat="45.89446" lon="3.41417">
        <ele>358</ele>
        <time>2024-05-19T06:41:24Z</time>
      </trkpt>
      <trkpt lat="45.8944" lon="3.41419">
        <ele>358</ele>
        <time>2024-05-19T06:41:25Z</time>
      </trkpt>
      <trkpt lat="45.89434" lon="3.41419">
        <ele>358</ele>
        <time>2024-05-19T06:41:26Z</time>
      </trkpt>
      <trkpt lat="45.89428" lon="3.41419">
        <ele>358</ele>
        <time>2024-05-19T06:41:27Z</time>
      </trkpt>
      <trkpt lat="45.89422" lon="3.41419">
        <ele>358</ele>
        <time>2024-05-19T06:41:28Z</time>
      </trkpt>
      <trkpt lat="45.89416" lon="3.41419">
        <ele>358.2</ele>
        <time>2024-05-19T06:41:29Z</time>
      </trkpt>
      <trkpt lat="45.8941" lon="3.41419">
        <ele>358.2</ele>
        <time>2024-05-19T06:41:30Z</time>
      </trkpt>
      <trkpt lat="45.89404" lon="3.41419">
        <ele>358.2</ele>
        <time>2024-05-19T06:41:31Z</time>
      </trkpt>
      <trkpt lat="45.89398" lon="3.41419">
        <ele>358.2</ele>
        <time>2024-05-19T06:41:32Z</time>
      </trkpt>
      <trkpt lat="45.89392" lon="3.41419">
        <ele>358.2</ele>
        <time>2024-05-19T06:41:33Z</time>
      </trkpt>
      <trkpt lat="45.89386" lon="3.41418">
        <ele>358.2</ele>
        <time>2024-05-19T06:41:34Z</time>
      </trkpt>
      <trkpt lat="45.8938" lon="3.41417">
        <ele>358.4</ele>
        <time>2024-05-19T06:41:35Z</time>
      </trkpt>
      <trkpt lat="45.89374" lon="3.41416">
        <ele>358.4</ele>
        <time>2024-05-19T06:41:36Z</time>
      </trkpt>
      <trkpt lat="45.89368" lon="3.41414">
        <ele>358.4</ele>
        <time>2024-05-19T06:41:37Z</time>
      </trkpt>
      <trkpt lat="45.89362" lon="3.41413">
        <ele>358.4</ele>
        <time>2024-05-19T06:41:38Z</time>
      </trkpt>
      <trkpt lat="45.89356" lon="3.41412">
        <ele>358.4</ele>
        <time>2024-05-19T06:41:39Z</time>
      </trkpt>
      <trkpt lat="45.89351" lon="3.4141">
        <ele>358.4</ele>
        <time>2024-05-19T06:41:40Z</time>
      </trkpt>
      <trkpt lat="45.89345" lon="3.41409">
        <ele>358.6</ele>
        <time>2024-05-19T06:41:41Z</time>
      </trkpt>
      <trkpt lat="45.89339" lon="3.41408">
        <ele>358.6</ele>
        <time>2024-05-19T06:41:42Z</time>
      </trkpt>
      <trkpt lat="45.89333" lon="3.41406">
        <ele>358.6</ele>
        <time>2024-05-19T06:41:43Z</time>
      </trkpt>
      <trkpt lat="45.89327" lon="3.41405">
        <ele>358.6</ele>
        <time>2024-05-19T06:41:44Z</time>
      </trkpt>
      <trkpt lat="45.89322" lon="3.41404">
        <ele>358.8</ele>
        <time>2024-05-19T06:41:45Z</time>
      </trkpt>
      <trkpt lat="45.89316" lon="3.41402">
        <ele>358.8</ele>
        <time>2024-05-19T06:41:46Z</time>
      </trkpt>
      <trkpt lat="45.8931" lon="3.41401">
        <ele>358.8</ele>
        <time>2024-05-19T06:41:47Z</time>
      </trkpt>
      <trkpt lat="45.89304" lon="3.41399">
        <ele>358.8</ele>
        <time>2024-05-19T06:41:48Z</time>
      </trkpt>
      <trkpt lat="45.89299" lon="3.41398">
        <ele>358.8</ele>
        <time>2024-05-19T06:41:49Z</time>
      </trkpt>
      <trkpt lat="45.89293" lon="3.41396">
        <ele>359</ele>
        <time>2024-05-19T06:41:50Z</time>
      </trkpt>
      <trkpt lat="45.89287" lon="3.41394">
        <ele>359</ele>
        <time>2024-05-19T06:41:51Z</time>
      </trkpt>
      <trkpt lat="45.89281" lon="3.41393">
        <ele>359</ele>
        <time>2024-05-19T06:41:52Z</time>
      </trkpt>
      <trkpt lat="45.89275" lon="3.41391">
        <ele>359</ele>
        <time>2024-05-19T06:41:53Z</time>
      </trkpt>
      <trkpt lat="45.89269" lon="3.41389">
        <ele>359</ele>
        <time>2024-05-19T06:41:54Z</time>
      </trkpt>
      <trkpt lat="45.89263" lon="3.41388">
        <ele>359.2</ele>
        <time>2024-05-19T06:41:55Z</time>
      </trkpt>
      <trkpt lat="45.89258" lon="3.41386">
        <ele>359.2</ele>
        <time>2024-05-19T06:41:56Z</time>
      </trkpt>
      <trkpt lat="45.89252" lon="3.41384">
        <ele>359.2</ele>
        <time>2024-05-19T06:41:57Z</time>
      </trkpt>
      <trkpt lat="45.89246" lon="3.41383">
        <ele>359.2</ele>
        <time>2024-05-19T06:41:58Z</time>
      </trkpt>
      <trkpt lat="45.8924" lon="3.41381">
        <ele>359.4</ele>
        <time>2024-05-19T06:41:59Z</time>
      </trkpt>
      <trkpt lat="45.89235" lon="3.41379">
        <ele>359.4</ele>
        <time>2024-05-19T06:42:00Z</time>
      </trkpt>
      <trkpt lat="45.89229" lon="3.41378">
        <ele>359.4</ele>
        <time>2024-05-19T06:42:01Z</time>
      </trkpt>
      <trkpt lat="45.89223" lon="3.41376">
        <ele>359.6</ele>
        <time>2024-05-19T06:42:02Z</time>
      </trkpt>
      <trkpt lat="45.89217" lon="3.41374">
        <ele>359.6</ele>
        <time>2024-05-19T06:42:03Z</time>
      </trkpt>
      <trkpt lat="45.89211" lon="3.41373">
        <ele>359.6</ele>
        <time>2024-05-19T06:42:04Z</time>
      </trkpt>
      <trkpt lat="45.89205" lon="3.41371">
        <ele>359.6</ele>
        <time>2024-05-19T06:42:05Z</time>
      </trkpt>
      <trkpt lat="45.892" lon="3.41369">
        <ele>359.8</ele>
        <time>2024-05-19T06:42:06Z</time>
      </trkpt>
      <trkpt lat="45.89194" lon="3.41368">
        <ele>359.8</ele>
        <time>2024-05-19T06:42:07Z</time>
      </trkpt>
      <trkpt lat="45.89188" lon="3.41366">
        <ele>359.8</ele>
        <time>2024-05-19T06:42:08Z</time>
      </trkpt>
      <trkpt lat="45.89183" lon="3.41364">
        <ele>359.8</ele>
        <time>2024-05-19T06:42:09Z</time>
      </trkpt>
      <trkpt lat="45.89177" lon="3.41361">
        <ele>359.8</ele>
        <time>2024-05-19T06:42:10Z</time>
      </trkpt>
      <trkpt lat="45.89171" lon="3.41359">
        <ele>360</ele>
        <time>2024-05-19T06:42:11Z</time>
      </trkpt>
      <trkpt lat="45.89165" lon="3.41356">
        <ele>360</ele>
        <time>2024-05-19T06:42:12Z</time>
      </trkpt>
      <trkpt lat="45.8916" lon="3.41353">
        <ele>360.2</ele>
        <time>2024-05-19T06:42:13Z</time>
      </trkpt>
      <trkpt lat="45.89154" lon="3.41351">
        <ele>360.2</ele>
        <time>2024-05-19T06:42:14Z</time>
      </trkpt>
      <trkpt lat="45.89149" lon="3.41348">
        <ele>360.4</ele>
        <time>2024-05-19T06:42:15Z</time>
      </trkpt>
      <trkpt lat="45.89143" lon="3.41346">
        <ele>360.4</ele>
        <time>2024-05-19T06:42:16Z</time>
      </trkpt>
      <trkpt lat="45.89138" lon="3.41343">
        <ele>360.4</ele>
        <time>2024-05-19T06:42:17Z</time>
      </trkpt>
      <trkpt lat="45.89132" lon="3.41341">
        <ele>360.4</ele>
        <time>2024-05-19T06:42:18Z</time>
      </trkpt>
      <trkpt lat="45.89127" lon="3.41338">
        <ele>360.4</ele>
        <time>2024-05-19T06:42:19Z</time>
      </trkpt>
      <trkpt lat="45.89121" lon="3.41336">
        <ele>360.6</ele>
        <time>2024-05-19T06:42:20Z</time>
      </trkpt>
      <trkpt lat="45.89115" lon="3.41333">
        <ele>360.6</ele>
        <time>2024-05-19T06:42:21Z</time>
      </trkpt>
      <trkpt lat="45.8911" lon="3.4133">
        <ele>360.6</ele>
        <time>2024-05-19T06:42:22Z</time>
      </trkpt>
      <trkpt lat="45.89104" lon="3.41328">
        <ele>360.8</ele>
        <time>2024-05-19T06:42:23Z</time>
      </trkpt>
      <trkpt lat="45.89099" lon="3.41326">
        <ele>360.8</ele>
        <time>2024-05-19T06:42:24Z</time>
      </trkpt>
      <trkpt lat="45.89093" lon="3.41325">
        <ele>360.8</ele>
        <time>2024-05-19T06:42:25Z</time>
      </trkpt>
      <trkpt lat="45.89087" lon="3.41324">
        <ele>361</ele>
        <time>2024-05-19T06:42:26Z</time>
      </trkpt>
      <trkpt lat="45.89081" lon="3.41323">
        <ele>361</ele>
        <time>2024-05-19T06:42:27Z</time>
      </trkpt>
      <trkpt lat="45.89075" lon="3.41321">
        <ele>361</ele>
        <time>2024-05-19T06:42:28Z</time>
      </trkpt>
      <trkpt lat="45.8907" lon="3.4132">
        <ele>361.2</ele>
        <time>2024-05-19T06:42:29Z</time>
      </trkpt>
      <trkpt lat="45.89064" lon="3.41319">
        <ele>361.2</ele>
        <time>2024-05-19T06:42:30Z</time>
      </trkpt>
      <trkpt lat="45.89058" lon="3.41318">
        <ele>361.2</ele>
        <time>2024-05-19T06:42:31Z</time>
      </trkpt>
      <trkpt lat="45.89052" lon="3.41317">
        <ele>361.2</ele>
        <time>2024-05-19T06:42:32Z</time>
      </trkpt>
      <trkpt lat="45.89046" lon="3.41315">
        <ele>361.4</ele>
        <time>2024-05-19T06:42:33Z</time>
      </trkpt>
      <trkpt lat="45.8904" lon="3.41314">
        <ele>361.4</ele>
        <time>2024-05-19T06:42:34Z</time>
      </trkpt>
      <trkpt lat="45.89034" lon="3.41313">
        <ele>361.4</ele>
        <time>2024-05-19T06:42:35Z</time>
      </trkpt>
      <trkpt lat="45.89029" lon="3.41312">
        <ele>361.6</ele>
        <time>2024-05-19T06:42:36Z</time>
      </trkpt>
      <trkpt lat="45.89023" lon="3.41311">
        <ele>361.6</ele>
        <time>2024-05-19T06:42:37Z</time>
      </trkpt>
      <trkpt lat="45.89017" lon="3.41309">
        <ele>361.6</ele>
        <time>2024-05-19T06:42:38Z</time>
      </trkpt>
      <trkpt lat="45.89011" lon="3.41308">
        <ele>361.8</ele>
        <time>2024-05-19T06:42:39Z</time>
      </trkpt>
      <trkpt lat="45.89005" lon="3.41307">
        <ele>361.8</ele>
        <time>2024-05-19T06:42:40Z</time>
      </trkpt>
      <trkpt lat="45.89" lon="3.41306">
        <ele>361.8</ele>
        <time>2024-05-19T06:42:41Z</time>
      </trkpt>
      <trkpt lat="45.88994" lon="3.41305">
        <ele>362</ele>
        <time>2024-05-19T06:42:42Z</time>
      </trkpt>
      <trkpt lat="45.88989" lon="3.41304">
        <ele>362</ele>
        <time>2024-05-19T06:42:43Z</time>
      </trkpt>
      <trkpt lat="45.88983" lon="3.41302">
        <ele>362</ele>
        <time>2024-05-19T06:42:44Z</time>
      </trkpt>
      <trkpt lat="45.88977" lon="3.41301">
        <ele>362.2</ele>
        <time>2024-05-19T06:42:45Z</time>
      </trkpt>
      <trkpt lat="45.88971" lon="3.413">
        <ele>362.2</ele>
        <time>2024-05-19T06:42:46Z</time>
      </trkpt>
      <trkpt lat="45.88965" lon="3.41299">
        <ele>362.2</ele>
        <time>2024-05-19T06:42:47Z</time>
      </trkpt>
      <trkpt lat="45.88959" lon="3.41298">
        <ele>362.4</ele>
        <time>2024-05-19T06:42:48Z</time>
      </trkpt>
      <trkpt lat="45.88953" lon="3.41297">
        <ele>362.4</ele>
        <time>2024-05-19T06:42:49Z</time>
      </trkpt>
      <trkpt lat="45.88947" lon="3.41296">
        <ele>362.4</ele>
        <time>2024-05-19T06:42:50Z</time>
      </trkpt>
      <trkpt lat="45.88942" lon="3.41295">
        <ele>362.6</ele>
        <time>2024-05-19T06:42:51Z</time>
      </trkpt>
      <trkpt lat="45.88936" lon="3.41294">
        <ele>362.6</ele>
        <time>2024-05-19T06:42:52Z</time>
      </trkpt>
      <trkpt lat="45.8893" lon="3.41293">
        <ele>362.6</ele>
        <time>2024-05-19T06:42:53Z</time>
      </trkpt>
      <trkpt lat="45.88924" lon="3.41292">
        <ele>362.6</ele>
        <time>2024-05-19T06:42:54Z</time>
      </trkpt>
      <trkpt lat="45.88918" lon="3.41291">
        <ele>362.8</ele>
        <time>2024-05-19T06:42:55Z</time>
      </trkpt>
      <trkpt lat="45.88912" lon="3.4129">
        <ele>362.8</ele>
        <time>2024-05-19T06:42:56Z</time>
      </trkpt>
      <trkpt lat="45.88906" lon="3.41289">
        <ele>362.8</ele>
        <time>2024-05-19T06:42:57Z</time>
      </trkpt>
      <trkpt lat="45.889" lon="3.41288">
        <ele>363</ele>
        <time>2024-05-19T06:42:58Z</time>
      </trkpt>
      <trkpt lat="45.88894" lon="3.41287">
        <ele>363</ele>
        <time>2024-05-19T06:42:59Z</time>
      </trkpt>
      <trkpt lat="45.88888" lon="3.41286">
        <ele>363</ele>
        <time>2024-05-19T06:43:00Z</time>
      </trkpt>
      <trkpt lat="45.88882" lon="3.41285">
        <ele>363.2</ele>
        <time>2024-05-19T06:43:01Z</time>
      </trkpt>
      <trkpt lat="45.88876" lon="3.41284">
        <ele>363.2</ele>
        <time>2024-05-19T06:43:02Z</time>
      </trkpt>
      <trkpt lat="45.8887" lon="3.41283">
        <ele>363.2</ele>
        <time>2024-05-19T06:43:03Z</time>
      </trkpt>
      <trkpt lat="45.88865" lon="3.41282">
        <ele>363.4</ele>
        <time>2024-05-19T06:43:04Z</time>
      </trkpt>
      <trkpt lat="45.88859" lon="3.41282">
        <ele>363.4</ele>
        <time>2024-05-19T06:43:05Z</time>
      </trkpt>
      <trkpt lat="45.88853" lon="3.41281">
        <ele>363.4</ele>
        <time>2024-05-19T06:43:06Z</time>
      </trkpt>
      <trkpt lat="45.88847" lon="3.4128">
        <ele>363.4</ele>
        <time>2024-05-19T06:43:07Z</time>
      </trkpt>
      <trkpt lat="45.88841" lon="3.41279">
        <ele>363.6</ele>
        <time>2024-05-19T06:43:08Z</time>
      </trkpt>
      <trkpt lat="45.88835" lon="3.41278">
        <ele>363.6</ele>
        <time>2024-05-19T06:43:09Z</time>
      </trkpt>
      <trkpt lat="45.88829" lon="3.41277">
        <ele>363.6</ele>
        <time>2024-05-19T06:43:10Z</time>
      </trkpt>
      <trkpt lat="45.88823" lon="3.41276">
        <ele>363.6</ele>
        <time>2024-05-19T06:43:11Z</time>
      </trkpt>
      <trkpt lat="45.88817" lon="3.41275">
        <ele>363.8</ele>
        <time>2024-05-19T06:43:12Z</time>
      </trkpt>
      <trkpt lat="45.8881" lon="3.41274">
        <ele>363.8</ele>
        <time>2024-05-19T06:43:13Z</time>
      </trkpt>
      <trkpt lat="45.88804" lon="3.41273">
        <ele>363.8</ele>
        <time>2024-05-19T06:43:14Z</time>
      </trkpt>
      <trkpt lat="45.88799" lon="3.41272">
        <ele>364</ele>
        <time>2024-05-19T06:43:15Z</time>
      </trkpt>
      <trkpt lat="45.88793" lon="3.41271">
        <ele>364</ele>
        <time>2024-05-19T06:43:16Z</time>
      </trkpt>
      <trkpt lat="45.88787" lon="3.4127">
        <ele>364.2</ele>
        <time>2024-05-19T06:43:17Z</time>
      </trkpt>
      <trkpt lat="45.88782" lon="3.41269">
        <ele>364.2</ele>
        <time>2024-05-19T06:43:18Z</time>
      </trkpt>
      <trkpt lat="45.88776" lon="3.41268">
        <ele>364.4</ele>
        <time>2024-05-19T06:43:19Z</time>
      </trkpt>
      <trkpt lat="45.8877" lon="3.41268">
        <ele>364.4</ele>
        <time>2024-05-19T06:43:20Z</time>
      </trkpt>
      <trkpt lat="45.88764" lon="3.41267">
        <ele>364.6</ele>
        <time>2024-05-19T06:43:21Z</time>
      </trkpt>
      <trkpt lat="45.88758" lon="3.41266">
        <ele>364.6</ele>
        <time>2024-05-19T06:43:22Z</time>
      </trkpt>
      <trkpt lat="45.88752" lon="3.41265">
        <ele>364.6</ele>
        <time>2024-05-19T06:43:23Z</time>
      </trkpt>
      <trkpt lat="45.88747" lon="3.41264">
        <ele>364.8</ele>
        <time>2024-05-19T06:43:24Z</time>
      </trkpt>
      <trkpt lat="45.88741" lon="3.41263">
        <ele>364.8</ele>
        <time>2024-05-19T06:43:25Z</time>
      </trkpt>
      <trkpt lat="45.88735" lon="3.41263">
        <ele>365</ele>
        <time>2024-05-19T06:43:26Z</time>
      </trkpt>
      <trkpt lat="45.88729" lon="3.41263">
        <ele>365</ele>
        <time>2024-05-19T06:43:27Z</time>
      </trkpt>
      <trkpt lat="45.88723" lon="3.41264">
        <ele>365</ele>
        <time>2024-05-19T06:43:28Z</time>
      </trkpt>
      <trkpt lat="45.88718" lon="3.41264">
        <ele>365.2</ele>
        <time>2024-05-19T06:43:29Z</time>
      </trkpt>
      <trkpt lat="45.88712" lon="3.41264">
        <ele>365.2</ele>
        <time>2024-05-19T06:43:30Z</time>
      </trkpt>
      <trkpt lat="45.88706" lon="3.41265">
        <ele>365.2</ele>
        <time>2024-05-19T06:43:31Z</time>
      </trkpt>
      <trkpt lat="45.887" lon="3.41265">
        <ele>365.4</ele>
        <time>2024-05-19T06:43:32Z</time>
      </trkpt>
      <trkpt lat="45.88695" lon="3.41266">
        <ele>365.4</ele>
        <time>2024-05-19T06:43:33Z</time>
      </trkpt>
      <trkpt lat="45.88689" lon="3.41268">
        <ele>365.6</ele>
        <time>2024-05-19T06:43:34Z</time>
      </trkpt>
      <trkpt lat="45.88684" lon="3.41269">
        <ele>365.6</ele>
        <time>2024-05-19T06:43:35Z</time>
      </trkpt>
      <trkpt lat="45.88678" lon="3.41271">
        <ele>365.6</ele>
        <time>2024-05-19T06:43:36Z</time>
      </trkpt>
      <trkpt lat="45.88672" lon="3.41272">
        <ele>365.6</ele>
        <time>2024-05-19T06:43:37Z</time>
      </trkpt>
      <trkpt lat="45.88666" lon="3.41274">
        <ele>365.8</ele>
        <time>2024-05-19T06:43:38Z</time>
      </trkpt>
      <trkpt lat="45.8866" lon="3.41276">
        <ele>365.8</ele>
        <time>2024-05-19T06:43:39Z</time>
      </trkpt>
      <trkpt lat="45.88654" lon="3.41277">
        <ele>365.8</ele>
        <time>2024-05-19T06:43:40Z</time>
      </trkpt>
      <trkpt lat="45.88648" lon="3.41279">
        <ele>366</ele>
        <time>2024-05-19T06:43:41Z</time>
      </trkpt>
      <trkpt lat="45.88642" lon="3.4128">
        <ele>366</ele>
        <time>2024-05-19T06:43:42Z</time>
      </trkpt>
      <trkpt lat="45.88638" lon="3.41281">
        <ele>366</ele>
        <time>2024-05-19T06:43:43Z</time>
      </trkpt>
      <trkpt lat="45.88632" lon="3.41283">
        <ele>366</ele>
        <time>2024-05-19T06:43:44Z</time>
      </trkpt>
      <trkpt lat="45.88626" lon="3.41285">
        <ele>366</ele>
        <time>2024-05-19T06:43:45Z</time>
      </trkpt>
      <trkpt lat="45.88619" lon="3.41286">
        <ele>366</ele>
        <time>2024-05-19T06:43:46Z</time>
      </trkpt>
      <trkpt lat="45.88613" lon="3.41288">
        <ele>366.2</ele>
        <time>2024-05-19T06:43:47Z</time>
      </trkpt>
      <trkpt lat="45.88607" lon="3.4129">
        <ele>366.2</ele>
        <time>2024-05-19T06:43:48Z</time>
      </trkpt>
      <trkpt lat="45.88601" lon="3.41292">
        <ele>366.2</ele>
        <time>2024-05-19T06:43:49Z</time>
      </trkpt>
      <trkpt lat="45.88595" lon="3.41295">
        <ele>366.2</ele>
        <time>2024-05-19T06:43:50Z</time>
      </trkpt>
      <trkpt lat="45.88589" lon="3.41298">
        <ele>366.2</ele>
        <time>2024-05-19T06:43:51Z</time>
      </trkpt>
      <trkpt lat="45.88583" lon="3.41302">
        <ele>366.4</ele>
        <time>2024-05-19T06:43:52Z</time>
      </trkpt>
      <trkpt lat="45.88577" lon="3.41305">
        <ele>366.4</ele>
        <time>2024-05-19T06:43:53Z</time>
      </trkpt>
      <trkpt lat="45.88572" lon="3.41308">
        <ele>366.4</ele>
        <time>2024-05-19T06:43:54Z</time>
      </trkpt>
      <trkpt lat="45.88566" lon="3.41311">
        <ele>366.4</ele>
        <time>2024-05-19T06:43:55Z</time>
      </trkpt>
      <trkpt lat="45.8856" lon="3.41315">
        <ele>366.6</ele>
        <time>2024-05-19T06:43:56Z</time>
      </trkpt>
      <trkpt lat="45.88554" lon="3.41318">
        <ele>366.6</ele>
        <time>2024-05-19T06:43:57Z</time>
      </trkpt>
      <trkpt lat="45.88548" lon="3.41321">
        <ele>366.6</ele>
        <time>2024-05-19T06:43:58Z</time>
      </trkpt>
      <trkpt lat="45.88541" lon="3.41325">
        <ele>366.8</ele>
        <time>2024-05-19T06:43:59Z</time>
      </trkpt>
      <trkpt lat="45.88536" lon="3.41328">
        <ele>366.8</ele>
        <time>2024-05-19T06:44:00Z</time>
      </trkpt>
      <trkpt lat="45.8853" lon="3.41331">
        <ele>366.8</ele>
        <time>2024-05-19T06:44:01Z</time>
      </trkpt>
      <trkpt lat="45.88525" lon="3.41334">
        <ele>367</ele>
        <time>2024-05-19T06:44:02Z</time>
      </trkpt>
      <trkpt lat="45.88519" lon="3.41337">
        <ele>367</ele>
        <time>2024-05-19T06:44:03Z</time>
      </trkpt>
      <trkpt lat="45.88514" lon="3.4134">
        <ele>367</ele>
        <time>2024-05-19T06:44:04Z</time>
      </trkpt>
      <trkpt lat="45.88508" lon="3.41343">
        <ele>367</ele>
        <time>2024-05-19T06:44:05Z</time>
      </trkpt>
      <trkpt lat="45.88502" lon="3.41347">
        <ele>367</ele>
        <time>2024-05-19T06:44:06Z</time>
      </trkpt>
      <trkpt lat="45.88495" lon="3.41349">
        <ele>367</ele>
        <time>2024-05-19T06:44:07Z</time>
      </trkpt>
      <trkpt lat="45.88488" lon="3.41352">
        <ele>367</ele>
        <time>2024-05-19T06:44:08Z</time>
      </trkpt>
      <trkpt lat="45.88482" lon="3.41354">
        <ele>367</ele>
        <time>2024-05-19T06:44:09Z</time>
      </trkpt>
      <trkpt lat="45.88475" lon="3.41357">
        <ele>367</ele>
        <time>2024-05-19T06:44:10Z</time>
      </trkpt>
      <trkpt lat="45.88469" lon="3.41359">
        <ele>367</ele>
        <time>2024-05-19T06:44:11Z</time>
      </trkpt>
      <trkpt lat="45.88462" lon="3.41361">
        <ele>367</ele>
        <time>2024-05-19T06:44:12Z</time>
      </trkpt>
      <trkpt lat="45.88456" lon="3.41364">
        <ele>367.2</ele>
        <time>2024-05-19T06:44:13Z</time>
      </trkpt>
      <trkpt lat="45.8845" lon="3.41366">
        <ele>367.2</ele>
        <time>2024-05-19T06:44:14Z</time>
      </trkpt>
      <trkpt lat="45.88444" lon="3.41368">
        <ele>367.2</ele>
        <time>2024-05-19T06:44:15Z</time>
      </trkpt>
      <trkpt lat="45.88437" lon="3.41371">
        <ele>367.2</ele>
        <time>2024-05-19T06:44:16Z</time>
      </trkpt>
      <trkpt lat="45.88431" lon="3.41373">
        <ele>367.2</ele>
        <time>2024-05-19T06:44:17Z</time>
      </trkpt>
      <trkpt lat="45.88425" lon="3.41375">
        <ele>367.2</ele>
        <time>2024-05-19T06:44:18Z</time>
      </trkpt>
      <trkpt lat="45.88419" lon="3.41377">
        <ele>367.2</ele>
        <time>2024-05-19T06:44:19Z</time>
      </trkpt>
      <trkpt lat="45.88413" lon="3.41378">
        <ele>367.2</ele>
        <time>2024-05-19T06:44:20Z</time>
      </trkpt>
      <trkpt lat="45.88406" lon="3.4138">
        <ele>367.2</ele>
        <time>2024-05-19T06:44:21Z</time>
      </trkpt>
      <trkpt lat="45.884" lon="3.41381">
        <ele>367.4</ele>
        <time>2024-05-19T06:44:22Z</time>
      </trkpt>
      <trkpt lat="45.88394" lon="3.41383">
        <ele>367.4</ele>
        <time>2024-05-19T06:44:23Z</time>
      </trkpt>
      <trkpt lat="45.88388" lon="3.41384">
        <ele>367.4</ele>
        <time>2024-05-19T06:44:24Z</time>
      </trkpt>
      <trkpt lat="45.88382" lon="3.41386">
        <ele>367.4</ele>
        <time>2024-05-19T06:44:25Z</time>
      </trkpt>
      <trkpt lat="45.88376" lon="3.41388">
        <ele>367.4</ele>
        <time>2024-05-19T06:44:26Z</time>
      </trkpt>
      <trkpt lat="45.8837" lon="3.41389">
        <ele>367.4</ele>
        <time>2024-05-19T06:44:27Z</time>
      </trkpt>
      <trkpt lat="45.88364" lon="3.41391">
        <ele>367.6</ele>
        <time>2024-05-19T06:44:28Z</time>
      </trkpt>
      <trkpt lat="45.88357" lon="3.41392">
        <ele>367.6</ele>
        <time>2024-05-19T06:44:29Z</time>
      </trkpt>
      <trkpt lat="45.88351" lon="3.41394">
        <ele>367.6</ele>
        <time>2024-05-19T06:44:30Z</time>
      </trkpt>
      <trkpt lat="45.88345" lon="3.41395">
        <ele>367.6</ele>
        <time>2024-05-19T06:44:31Z</time>
      </trkpt>
      <trkpt lat="45.88339" lon="3.41397">
        <ele>367.6</ele>
        <time>2024-05-19T06:44:32Z</time>
      </trkpt>
      <trkpt lat="45.88333" lon="3.41399">
        <ele>367.6</ele>
        <time>2024-05-19T06:44:33Z</time>
      </trkpt>
      <trkpt lat="45.88327" lon="3.414">
        <ele>367.8</ele>
        <time>2024-05-19T06:44:34Z</time>
      </trkpt>
      <trkpt lat="45.88321" lon="3.41402">
        <ele>367.8</ele>
        <time>2024-05-19T06:44:35Z</time>
      </trkpt>
      <trkpt lat="45.88315" lon="3.41403">
        <ele>367.8</ele>
        <time>2024-05-19T06:44:36Z</time>
      </trkpt>
      <trkpt lat="45.88309" lon="3.41405">
        <ele>367.8</ele>
        <time>2024-05-19T06:44:37Z</time>
      </trkpt>
      <trkpt lat="45.88302" lon="3.41406">
        <ele>367.8</ele>
        <time>2024-05-19T06:44:38Z</time>
      </trkpt>
      <trkpt lat="45.88296" lon="3.41408">
        <ele>368</ele>
        <time>2024-05-19T06:44:39Z</time>
      </trkpt>
      <trkpt lat="45.8829" lon="3.41409">
        <ele>368</ele>
        <time>2024-05-19T06:44:40Z</time>
      </trkpt>
      <trkpt lat="45.88284" lon="3.41411">
        <ele>368</ele>
        <time>2024-05-19T06:44:41Z</time>
      </trkpt>
      <trkpt lat="45.88278" lon="3.41413">
        <ele>368</ele>
        <time>2024-05-19T06:44:42Z</time>
      </trkpt>
      <trkpt lat="45.88272" lon="3.41414">
        <ele>368</ele>
        <time>2024-05-19T06:44:43Z</time>
      </trkpt>
      <trkpt lat="45.88266" lon="3.41415">
        <ele>368</ele>
        <time>2024-05-19T06:44:44Z</time>
      </trkpt>
      <trkpt lat="45.88259" lon="3.41414">
        <ele>368</ele>
        <time>2024-05-19T06:44:45Z</time>
      </trkpt>
      <trkpt lat="45.88252" lon="3.41413">
        <ele>368</ele>
        <time>2024-05-19T06:44:46Z</time>
      </trkpt>
      <trkpt lat="45.88246" lon="3.41412">
        <ele>368</ele>
        <time>2024-05-19T06:44:47Z</time>
      </trkpt>
      <trkpt lat="45.8824" lon="3.41411">
        <ele>368</ele>
        <time>2024-05-19T06:44:48Z</time>
      </trkpt>
      <trkpt lat="45.88233" lon="3.4141">
        <ele>368.2</ele>
        <time>2024-05-19T06:44:49Z</time>
      </trkpt>
      <trkpt lat="45.88227" lon="3.4141">
        <ele>368.2</ele>
        <time>2024-05-19T06:44:50Z</time>
      </trkpt>
      <trkpt lat="45.88221" lon="3.41409">
        <ele>368.2</ele>
        <time>2024-05-19T06:44:51Z</time>
      </trkpt>
      <trkpt lat="45.88214" lon="3.41407">
        <ele>368.2</ele>
        <time>2024-05-19T06:44:52Z</time>
      </trkpt>
      <trkpt lat="45.88208" lon="3.41405">
        <ele>368.2</ele>
        <time>2024-05-19T06:44:53Z</time>
      </trkpt>
      <trkpt lat="45.88202" lon="3.41403">
        <ele>368.2</ele>
        <time>2024-05-19T06:44:54Z</time>
      </trkpt>
      <trkpt lat="45.88196" lon="3.414">
        <ele>368.4</ele>
        <time>2024-05-19T06:44:55Z</time>
      </trkpt>
      <trkpt lat="45.88191" lon="3.41397">
        <ele>368.4</ele>
        <time>2024-05-19T06:44:56Z</time>
      </trkpt>
      <trkpt lat="45.88185" lon="3.41393">
        <ele>368.4</ele>
        <time>2024-05-19T06:44:57Z</time>
      </trkpt>
      <trkpt lat="45.88179" lon="3.4139">
        <ele>368.4</ele>
        <time>2024-05-19T06:44:58Z</time>
      </trkpt>
      <trkpt lat="45.88174" lon="3.41386">
        <ele>368.4</ele>
        <time>2024-05-19T06:44:59Z</time>
      </trkpt>
      <trkpt lat="45.88168" lon="3.41383">
        <ele>368.4</ele>
        <time>2024-05-19T06:45:00Z</time>
      </trkpt>
      <trkpt lat="45.88163" lon="3.41379">
        <ele>368.4</ele>
        <time>2024-05-19T06:45:01Z</time>
      </trkpt>
      <trkpt lat="45.88158" lon="3.41375">
        <ele>368.4</ele>
        <time>2024-05-19T06:45:02Z</time>
      </trkpt>
      <trkpt lat="45.88153" lon="3.4137">
        <ele>368.6</ele>
        <time>2024-05-19T06:45:03Z</time>
      </trkpt>
      <trkpt lat="45.88148" lon="3.41365">
        <ele>368.6</ele>
        <time>2024-05-19T06:45:04Z</time>
      </trkpt>
      <trkpt lat="45.88143" lon="3.4136">
        <ele>368.6</ele>
        <time>2024-05-19T06:45:05Z</time>
      </trkpt>
      <trkpt lat="45.88139" lon="3.41355">
        <ele>368.6</ele>
        <time>2024-05-19T06:45:06Z</time>
      </trkpt>
      <trkpt lat="45.88134" lon="3.4135">
        <ele>368.6</ele>
        <time>2024-05-19T06:45:07Z</time>
      </trkpt>
      <trkpt lat="45.88129" lon="3.41344">
        <ele>368.8</ele>
        <time>2024-05-19T06:45:08Z</time>
      </trkpt>
      <trkpt lat="45.88124" lon="3.41339">
        <ele>368.8</ele>
        <time>2024-05-19T06:45:09Z</time>
      </trkpt>
      <trkpt lat="45.8812" lon="3.41334">
        <ele>368.8</ele>
        <time>2024-05-19T06:45:10Z</time>
      </trkpt>
      <trkpt lat="45.88115" lon="3.41329">
        <ele>369</ele>
        <time>2024-05-19T06:45:11Z</time>
      </trkpt>
      <trkpt lat="45.8811" lon="3.41324">
        <ele>369</ele>
        <time>2024-05-19T06:45:12Z</time>
      </trkpt>
      <trkpt lat="45.88105" lon="3.41319">
        <ele>369</ele>
        <time>2024-05-19T06:45:13Z</time>
      </trkpt>
      <trkpt lat="45.88101" lon="3.41314">
        <ele>369.2</ele>
        <time>2024-05-19T06:45:14Z</time>
      </trkpt>
      <trkpt lat="45.88096" lon="3.41309">
        <ele>369.2</ele>
        <time>2024-05-19T06:45:15Z</time>
      </trkpt>
      <trkpt lat="45.88092" lon="3.41304">
        <ele>369.2</ele>
        <time>2024-05-19T06:45:16Z</time>
      </trkpt>
      <trkpt lat="45.88087" lon="3.41299">
        <ele>369.2</ele>
        <time>2024-05-19T06:45:17Z</time>
      </trkpt>
      <trkpt lat="45.88082" lon="3.41294">
        <ele>369.2</ele>
        <time>2024-05-19T06:45:18Z</time>
      </trkpt>
      <trkpt lat="45.88077" lon="3.4129">
        <ele>369.4</ele>
        <time>2024-05-19T06:45:19Z</time>
      </trkpt>
      <trkpt lat="45.88072" lon="3.41287">
        <ele>369.4</ele>
        <time>2024-05-19T06:45:20Z</time>
      </trkpt>
      <trkpt lat="45.88067" lon="3.41284">
        <ele>369.4</ele>
        <time>2024-05-19T06:45:21Z</time>
      </trkpt>
      <trkpt lat="45.88062" lon="3.41281">
        <ele>369.6</ele>
        <time>2024-05-19T06:45:22Z</time>
      </trkpt>
      <trkpt lat="45.88056" lon="3.41279">
        <ele>369.6</ele>
        <time>2024-05-19T06:45:23Z</time>
      </trkpt>
      <trkpt lat="45.8805" lon="3.41277">
        <ele>369.6</ele>
        <time>2024-05-19T06:45:24Z</time>
      </trkpt>
      <trkpt lat="45.88044" lon="3.41276">
        <ele>369.4</ele>
        <time>2024-05-19T06:45:25Z</time>
      </trkpt>
      <trkpt lat="45.88039" lon="3.41274">
        <ele>369.6</ele>
        <time>2024-05-19T06:45:26Z</time>
      </trkpt>
      <trkpt lat="45.88033" lon="3.41272">
        <ele>369.6</ele>
        <time>2024-05-19T06:45:27Z</time>
      </trkpt>
      <trkpt lat="45.88027" lon="3.4127">
        <ele>369.6</ele>
        <time>2024-05-19T06:45:28Z</time>
      </trkpt>
      <trkpt lat="45.8802" lon="3.41268">
        <ele>369.6</ele>
        <time>2024-05-19T06:45:29Z</time>
      </trkpt>
      <trkpt lat="45.88014" lon="3.41266">
        <ele>369.8</ele>
        <time>2024-05-19T06:45:30Z</time>
      </trkpt>
      <trkpt lat="45.88008" lon="3.41264">
        <ele>369.8</ele>
        <time>2024-05-19T06:45:31Z</time>
      </trkpt>
      <trkpt lat="45.88002" lon="3.41262">
        <ele>369.8</ele>
        <time>2024-05-19T06:45:32Z</time>
      </trkpt>
      <trkpt lat="45.87996" lon="3.4126">
        <ele>369.8</ele>
        <time>2024-05-19T06:45:33Z</time>
      </trkpt>
      <trkpt lat="45.8799" lon="3.41258">
        <ele>369.8</ele>
        <time>2024-05-19T06:45:34Z</time>
      </trkpt>
      <trkpt lat="45.87983" lon="3.41255">
        <ele>370</ele>
        <time>2024-05-19T06:45:35Z</time>
      </trkpt>
      <trkpt lat="45.87977" lon="3.41253">
        <ele>370</ele>
        <time>2024-05-19T06:45:36Z</time>
      </trkpt>
      <trkpt lat="45.8797" lon="3.41251">
        <ele>370</ele>
        <time>2024-05-19T06:45:37Z</time>
      </trkpt>
      <trkpt lat="45.87964" lon="3.41249">
        <ele>370</ele>
        <time>2024-05-19T06:45:38Z</time>
      </trkpt>
      <trkpt lat="45.87958" lon="3.41247">
        <ele>370</ele>
        <time>2024-05-19T06:45:39Z</time>
      </trkpt>
      <trkpt lat="45.87952" lon="3.41245">
        <ele>370.2</ele>
        <time>2024-05-19T06:45:40Z</time>
      </trkpt>
      <trkpt lat="45.87945" lon="3.41244">
        <ele>370.2</ele>
        <time>2024-05-19T06:45:41Z</time>
      </trkpt>
      <trkpt lat="45.87939" lon="3.41244">
        <ele>370</ele>
        <time>2024-05-19T06:45:42Z</time>
      </trkpt>
      <trkpt lat="45.87933" lon="3.41244">
        <ele>370.2</ele>
        <time>2024-05-19T06:45:43Z</time>
      </trkpt>
      <trkpt lat="45.87926" lon="3.41244">
        <ele>370.2</ele>
        <time>2024-05-19T06:45:44Z</time>
      </trkpt>
      <trkpt lat="45.8792" lon="3.41244">
        <ele>370.2</ele>
        <time>2024-05-19T06:45:45Z</time>
      </trkpt>
      <trkpt lat="45.87914" lon="3.41244">
        <ele>370.2</ele>
        <time>2024-05-19T06:45:46Z</time>
      </trkpt>
      <trkpt lat="45.87907" lon="3.41244">
        <ele>370.2</ele>
        <time>2024-05-19T06:45:47Z</time>
      </trkpt>
      <trkpt lat="45.87901" lon="3.41245">
        <ele>370.2</ele>
        <time>2024-05-19T06:45:48Z</time>
      </trkpt>
      <trkpt lat="45.87894" lon="3.41245">
        <ele>370.2</ele>
        <time>2024-05-19T06:45:49Z</time>
      </trkpt>
      <trkpt lat="45.87888" lon="3.41245">
        <ele>370.2</ele>
        <time>2024-05-19T06:45:50Z</time>
      </trkpt>
      <trkpt lat="45.87882" lon="3.41245">
        <ele>370.4</ele>
        <time>2024-05-19T06:45:51Z</time>
      </trkpt>
      <trkpt lat="45.87876" lon="3.41245">
        <ele>370.4</ele>
        <time>2024-05-19T06:45:52Z</time>
      </trkpt>
      <trkpt lat="45.8787" lon="3.41245">
        <ele>370.4</ele>
        <time>2024-05-19T06:45:53Z</time>
      </trkpt>
      <trkpt lat="45.87863" lon="3.41245">
        <ele>370.4</ele>
        <time>2024-05-19T06:45:54Z</time>
      </trkpt>
      <trkpt lat="45.87858" lon="3.41246">
        <ele>370.6</ele>
        <time>2024-05-19T06:45:55Z</time>
      </trkpt>
      <trkpt lat="45.87851" lon="3.41246">
        <ele>370.6</ele>
        <time>2024-05-19T06:45:56Z</time>
      </trkpt>
      <trkpt lat="45.87845" lon="3.41244">
        <ele>370.6</ele>
        <time>2024-05-19T06:45:57Z</time>
      </trkpt>
      <trkpt lat="45.87839" lon="3.41243">
        <ele>370.6</ele>
        <time>2024-05-19T06:45:58Z</time>
      </trkpt>
      <trkpt lat="45.87833" lon="3.41242">
        <ele>370.6</ele>
        <time>2024-05-19T06:45:59Z</time>
      </trkpt>
      <trkpt lat="45.87827" lon="3.4124">
        <ele>370.6</ele>
        <time>2024-05-19T06:46:00Z</time>
      </trkpt>
      <trkpt lat="45.87822" lon="3.41239">
        <ele>370.8</ele>
        <time>2024-05-19T06:46:01Z</time>
      </trkpt>
      <trkpt lat="45.87816" lon="3.41238">
        <ele>370.8</ele>
        <time>2024-05-19T06:46:02Z</time>
      </trkpt>
      <trkpt lat="45.8781" lon="3.41237">
        <ele>370.8</ele>
        <time>2024-05-19T06:46:03Z</time>
      </trkpt>
      <trkpt lat="45.87804" lon="3.41236">
        <ele>371</ele>
        <time>2024-05-19T06:46:04Z</time>
      </trkpt>
      <trkpt lat="45.87799" lon="3.41235">
        <ele>371</ele>
        <time>2024-05-19T06:46:05Z</time>
      </trkpt>
      <trkpt lat="45.87794" lon="3.41233">
        <ele>371</ele>
        <time>2024-05-19T06:46:06Z</time>
      </trkpt>
      <trkpt lat="45.87788" lon="3.41232">
        <ele>371.2</ele>
        <time>2024-05-19T06:46:07Z</time>
      </trkpt>
      <trkpt lat="45.87782" lon="3.41231">
        <ele>371.2</ele>
        <time>2024-05-19T06:46:08Z</time>
      </trkpt>
      <trkpt lat="45.87776" lon="3.4123">
        <ele>371.2</ele>
        <time>2024-05-19T06:46:09Z</time>
      </trkpt>
      <trkpt lat="45.8777" lon="3.41229">
        <ele>371.4</ele>
        <time>2024-05-19T06:46:10Z</time>
      </trkpt>
      <trkpt lat="45.87765" lon="3.41227">
        <ele>371.4</ele>
        <time>2024-05-19T06:46:11Z</time>
      </trkpt>
      <trkpt lat="45.87759" lon="3.41226">
        <ele>371.4</ele>
        <time>2024-05-19T06:46:12Z</time>
      </trkpt>
      <trkpt lat="45.87753" lon="3.41225">
        <ele>371.4</ele>
        <time>2024-05-19T06:46:13Z</time>
      </trkpt>
      <trkpt lat="45.87747" lon="3.41224">
        <ele>371.6</ele>
        <time>2024-05-19T06:46:14Z</time>
      </trkpt>
      <trkpt lat="45.87741" lon="3.41222">
        <ele>371.6</ele>
        <time>2024-05-19T06:46:15Z</time>
      </trkpt>
      <trkpt lat="45.87735" lon="3.41221">
        <ele>371.6</ele>
        <time>2024-05-19T06:46:16Z</time>
      </trkpt>
      <trkpt lat="45.87729" lon="3.4122">
        <ele>371.6</ele>
        <time>2024-05-19T06:46:17Z</time>
      </trkpt>
      <trkpt lat="45.87723" lon="3.41219">
        <ele>371.8</ele>
        <time>2024-05-19T06:46:18Z</time>
      </trkpt>
      <trkpt lat="45.87717" lon="3.41217">
        <ele>371.8</ele>
        <time>2024-05-19T06:46:19Z</time>
      </trkpt>
      <trkpt lat="45.87711" lon="3.41215">
        <ele>372</ele>
        <time>2024-05-19T06:46:20Z</time>
      </trkpt>
      <trkpt lat="45.87705" lon="3.41213">
        <ele>372</ele>
        <time>2024-05-19T06:46:21Z</time>
      </trkpt>
      <trkpt lat="45.87699" lon="3.41211">
        <ele>372</ele>
        <time>2024-05-19T06:46:22Z</time>
      </trkpt>
      <trkpt lat="45.87693" lon="3.41208">
        <ele>372</ele>
        <time>2024-05-19T06:46:23Z</time>
      </trkpt>
      <trkpt lat="45.87687" lon="3.41205">
        <ele>372</ele>
        <time>2024-05-19T06:46:24Z</time>
      </trkpt>
      <trkpt lat="45.87682" lon="3.41199">
        <ele>372</ele>
        <time>2024-05-19T06:46:25Z</time>
      </trkpt>
      <trkpt lat="45.87677" lon="3.41194">
        <ele>372.2</ele>
        <time>2024-05-19T06:46:26Z</time>
      </trkpt>
      <trkpt lat="45.87672" lon="3.41189">
        <ele>372.2</ele>
        <time>2024-05-19T06:46:27Z</time>
      </trkpt>
      <trkpt lat="45.87667" lon="3.41183">
        <ele>372.2</ele>
        <time>2024-05-19T06:46:28Z</time>
      </trkpt>
      <trkpt lat="45.87663" lon="3.41178">
        <ele>372.2</ele>
        <time>2024-05-19T06:46:29Z</time>
      </trkpt>
      <trkpt lat="45.87658" lon="3.41173">
        <ele>372.4</ele>
        <time>2024-05-19T06:46:30Z</time>
      </trkpt>
      <trkpt lat="45.87653" lon="3.41168">
        <ele>372.4</ele>
        <time>2024-05-19T06:46:31Z</time>
      </trkpt>
      <trkpt lat="45.87649" lon="3.41163">
        <ele>372.4</ele>
        <time>2024-05-19T06:46:32Z</time>
      </trkpt>
      <trkpt lat="45.87644" lon="3.41158">
        <ele>372.4</ele>
        <time>2024-05-19T06:46:33Z</time>
      </trkpt>
      <trkpt lat="45.87639" lon="3.41152">
        <ele>372.6</ele>
        <time>2024-05-19T06:46:34Z</time>
      </trkpt>
      <trkpt lat="45.87634" lon="3.41147">
        <ele>372.6</ele>
        <time>2024-05-19T06:46:35Z</time>
      </trkpt>
      <trkpt lat="45.87629" lon="3.41142">
        <ele>372.6</ele>
        <time>2024-05-19T06:46:36Z</time>
      </trkpt>
      <trkpt lat="45.87625" lon="3.41136">
        <ele>372.8</ele>
        <time>2024-05-19T06:46:37Z</time>
      </trkpt>
      <trkpt lat="45.8762" lon="3.41131">
        <ele>372.8</ele>
        <time>2024-05-19T06:46:38Z</time>
      </trkpt>
      <trkpt lat="45.87615" lon="3.41125">
        <ele>372.8</ele>
        <time>2024-05-19T06:46:39Z</time>
      </trkpt>
      <trkpt lat="45.8761" lon="3.4112">
        <ele>373</ele>
        <time>2024-05-19T06:46:40Z</time>
      </trkpt>
      <trkpt lat="45.87605" lon="3.41115">
        <ele>373</ele>
        <time>2024-05-19T06:46:41Z</time>
      </trkpt>
      <trkpt lat="45.87599" lon="3.41111">
        <ele>373</ele>
        <time>2024-05-19T06:46:42Z</time>
      </trkpt>
      <trkpt lat="45.87593" lon="3.41109">
        <ele>373</ele>
        <time>2024-05-19T06:46:43Z</time>
      </trkpt>
      <trkpt lat="45.87587" lon="3.41106">
        <ele>373.2</ele>
        <time>2024-05-19T06:46:44Z</time>
      </trkpt>
      <trkpt lat="45.87581" lon="3.41104">
        <ele>373.2</ele>
        <time>2024-05-19T06:46:45Z</time>
      </trkpt>
      <trkpt lat="45.87575" lon="3.41102">
        <ele>373.2</ele>
        <time>2024-05-19T06:46:46Z</time>
      </trkpt>
      <trkpt lat="45.87569" lon="3.41099">
        <ele>373.2</ele>
        <time>2024-05-19T06:46:47Z</time>
      </trkpt>
      <trkpt lat="45.87563" lon="3.41097">
        <ele>373.2</ele>
        <time>2024-05-19T06:46:48Z</time>
      </trkpt>
      <trkpt lat="45.87557" lon="3.41095">
        <ele>373.2</ele>
        <time>2024-05-19T06:46:49Z</time>
      </trkpt>
      <trkpt lat="45.87551" lon="3.41092">
        <ele>373.2</ele>
        <time>2024-05-19T06:46:50Z</time>
      </trkpt>
      <trkpt lat="45.87545" lon="3.4109">
        <ele>373.4</ele>
        <time>2024-05-19T06:46:51Z</time>
      </trkpt>
      <trkpt lat="45.87538" lon="3.41087">
        <ele>373.2</ele>
        <time>2024-05-19T06:46:52Z</time>
      </trkpt>
      <trkpt lat="45.87532" lon="3.41085">
        <ele>373.4</ele>
        <time>2024-05-19T06:46:53Z</time>
      </trkpt>
      <trkpt lat="45.87526" lon="3.41083">
        <ele>373.4</ele>
        <time>2024-05-19T06:46:54Z</time>
      </trkpt>
      <trkpt lat="45.87519" lon="3.4108">
        <ele>373.4</ele>
        <time>2024-05-19T06:46:55Z</time>
      </trkpt>
      <trkpt lat="45.87514" lon="3.41078">
        <ele>373.4</ele>
        <time>2024-05-19T06:46:56Z</time>
      </trkpt>
      <trkpt lat="45.87507" lon="3.41076">
        <ele>373.4</ele>
        <time>2024-05-19T06:46:57Z</time>
      </trkpt>
      <trkpt lat="45.87502" lon="3.41073">
        <ele>373.4</ele>
        <time>2024-05-19T06:46:58Z</time>
      </trkpt>
      <trkpt lat="45.87496" lon="3.41071">
        <ele>373.6</ele>
        <time>2024-05-19T06:46:59Z</time>
      </trkpt>
      <trkpt lat="45.8749" lon="3.41069">
        <ele>373.6</ele>
        <time>2024-05-19T06:47:00Z</time>
      </trkpt>
      <trkpt lat="45.87484" lon="3.41066">
        <ele>373.6</ele>
        <time>2024-05-19T06:47:01Z</time>
      </trkpt>
      <trkpt lat="45.87478" lon="3.41064">
        <ele>373.6</ele>
        <time>2024-05-19T06:47:02Z</time>
      </trkpt>
      <trkpt lat="45.87472" lon="3.41062">
        <ele>373.8</ele>
        <time>2024-05-19T06:47:03Z</time>
      </trkpt>
      <trkpt lat="45.87466" lon="3.41059">
        <ele>373.8</ele>
        <time>2024-05-19T06:47:04Z</time>
      </trkpt>
      <trkpt lat="45.8746" lon="3.41057">
        <ele>373.8</ele>
        <time>2024-05-19T06:47:05Z</time>
      </trkpt>
      <trkpt lat="45.87454" lon="3.41055">
        <ele>373.8</ele>
        <time>2024-05-19T06:47:06Z</time>
      </trkpt>
      <trkpt lat="45.87449" lon="3.41053">
        <ele>373.8</ele>
        <time>2024-05-19T06:47:07Z</time>
      </trkpt>
      <trkpt lat="45.87443" lon="3.41051">
        <ele>374</ele>
        <time>2024-05-19T06:47:08Z</time>
      </trkpt>
      <trkpt lat="45.87437" lon="3.41049">
        <ele>374</ele>
        <time>2024-05-19T06:47:09Z</time>
      </trkpt>
      <trkpt lat="45.87432" lon="3.41046">
        <ele>374</ele>
        <time>2024-05-19T06:47:10Z</time>
      </trkpt>
      <trkpt lat="45.87426" lon="3.41044">
        <ele>374</ele>
        <time>2024-05-19T06:47:11Z</time>
      </trkpt>
      <trkpt lat="45.8742" lon="3.41042">
        <ele>374</ele>
        <time>2024-05-19T06:47:12Z</time>
      </trkpt>
      <trkpt lat="45.87414" lon="3.4104">
        <ele>374</ele>
        <time>2024-05-19T06:47:13Z</time>
      </trkpt>
      <trkpt lat="45.87409" lon="3.41038">
        <ele>374.2</ele>
        <time>2024-05-19T06:47:14Z</time>
      </trkpt>
      <trkpt lat="45.87403" lon="3.41036">
        <ele>374.2</ele>
        <time>2024-05-19T06:47:15Z</time>
      </trkpt>
      <trkpt lat="45.87397" lon="3.41033">
        <ele>374.2</ele>
        <time>2024-05-19T06:47:16Z</time>
      </trkpt>
      <trkpt lat="45.87391" lon="3.41031">
        <ele>374.2</ele>
        <time>2024-05-19T06:47:17Z</time>
      </trkpt>
      <trkpt lat="45.87385" lon="3.41029">
        <ele>374.2</ele>
        <time>2024-05-19T06:47:18Z</time>
      </trkpt>
      <trkpt lat="45.87379" lon="3.41027">
        <ele>374.4</ele>
        <time>2024-05-19T06:47:19Z</time>
      </trkpt>
      <trkpt lat="45.87373" lon="3.41024">
        <ele>374.4</ele>
        <time>2024-05-19T06:47:20Z</time>
      </trkpt>
      <trkpt lat="45.87367" lon="3.41022">
        <ele>374.4</ele>
        <time>2024-05-19T06:47:21Z</time>
      </trkpt>
      <trkpt lat="45.87361" lon="3.4102">
        <ele>374.4</ele>
        <time>2024-05-19T06:47:22Z</time>
      </trkpt>
      <trkpt lat="45.87355" lon="3.41018">
        <ele>374.4</ele>
        <time>2024-05-19T06:47:23Z</time>
      </trkpt>
      <trkpt lat="45.87349" lon="3.41016">
        <ele>374.6</ele>
        <time>2024-05-19T06:47:24Z</time>
      </trkpt>
      <trkpt lat="45.87343" lon="3.41013">
        <ele>374.6</ele>
        <time>2024-05-19T06:47:25Z</time>
      </trkpt>
      <trkpt lat="45.87337" lon="3.41011">
        <ele>374.6</ele>
        <time>2024-05-19T06:47:26Z</time>
      </trkpt>
      <trkpt lat="45.87331" lon="3.41009">
        <ele>374.6</ele>
        <time>2024-05-19T06:47:27Z</time>
      </trkpt>
      <trkpt lat="45.87325" lon="3.41007">
        <ele>374.6</ele>
        <time>2024-05-19T06:47:28Z</time>
      </trkpt>
      <trkpt lat="45.87319" lon="3.41004">
        <ele>374.8</ele>
        <time>2024-05-19T06:47:29Z</time>
      </trkpt>
      <trkpt lat="45.87313" lon="3.41002">
        <ele>374.8</ele>
        <time>2024-05-19T06:47:30Z</time>
      </trkpt>
      <trkpt lat="45.87307" lon="3.41">
        <ele>374.8</ele>
        <time>2024-05-19T06:47:31Z</time>
      </trkpt>
      <trkpt lat="45.87301" lon="3.40998">
        <ele>374.8</ele>
        <time>2024-05-19T06:47:32Z</time>
      </trkpt>
      <trkpt lat="45.87295" lon="3.40996">
        <ele>374.8</ele>
        <time>2024-05-19T06:47:33Z</time>
      </trkpt>
      <trkpt lat="45.87289" lon="3.40993">
        <ele>375</ele>
        <time>2024-05-19T06:47:34Z</time>
      </trkpt>
      <trkpt lat="45.87284" lon="3.40991">
        <ele>375</ele>
        <time>2024-05-19T06:47:35Z</time>
      </trkpt>
      <trkpt lat="45.87278" lon="3.40989">
        <ele>375</ele>
        <time>2024-05-19T06:47:36Z</time>
      </trkpt>
      <trkpt lat="45.87272" lon="3.40987">
        <ele>375</ele>
        <time>2024-05-19T06:47:37Z</time>
      </trkpt>
      <trkpt lat="45.87266" lon="3.40985">
        <ele>375.2</ele>
        <time>2024-05-19T06:47:38Z</time>
      </trkpt>
      <trkpt lat="45.8726" lon="3.40983">
        <ele>375.2</ele>
        <time>2024-05-19T06:47:39Z</time>
      </trkpt>
      <trkpt lat="45.87255" lon="3.4098">
        <ele>375.2</ele>
        <time>2024-05-19T06:47:40Z</time>
      </trkpt>
      <trkpt lat="45.87249" lon="3.40978">
        <ele>375.2</ele>
        <time>2024-05-19T06:47:41Z</time>
      </trkpt>
      <trkpt lat="45.87243" lon="3.40976">
        <ele>375.2</ele>
        <time>2024-05-19T06:47:42Z</time>
      </trkpt>
      <trkpt lat="45.87237" lon="3.40974">
        <ele>375.4</ele>
        <time>2024-05-19T06:47:43Z</time>
      </trkpt>
      <trkpt lat="45.87232" lon="3.40972">
        <ele>375.4</ele>
        <time>2024-05-19T06:47:44Z</time>
      </trkpt>
      <trkpt lat="45.87226" lon="3.4097">
        <ele>375.4</ele>
        <time>2024-05-19T06:47:45Z</time>
      </trkpt>
      <trkpt lat="45.8722" lon="3.40968">
        <ele>375.4</ele>
        <time>2024-05-19T06:47:46Z</time>
      </trkpt>
      <trkpt lat="45.87214" lon="3.40965">
        <ele>375.4</ele>
        <time>2024-05-19T06:47:47Z</time>
      </trkpt>
      <trkpt lat="45.87208" lon="3.40963">
        <ele>375.6</ele>
        <time>2024-05-19T06:47:48Z</time>
      </trkpt>
      <trkpt lat="45.87202" lon="3.40961">
        <ele>375.6</ele>
        <time>2024-05-19T06:47:49Z</time>
      </trkpt>
      <trkpt lat="45.87196" lon="3.40959">
        <ele>375.6</ele>
        <time>2024-05-19T06:47:50Z</time>
      </trkpt>
      <trkpt lat="45.8719" lon="3.40957">
        <ele>375.8</ele>
        <time>2024-05-19T06:47:51Z</time>
      </trkpt>
      <trkpt lat="45.87184" lon="3.40955">
        <ele>375.8</ele>
        <time>2024-05-19T06:47:52Z</time>
      </trkpt>
      <trkpt lat="45.87178" lon="3.40952">
        <ele>375.8</ele>
        <time>2024-05-19T06:47:53Z</time>
      </trkpt>
      <trkpt lat="45.87173" lon="3.4095">
        <ele>375.8</ele>
        <time>2024-05-19T06:47:54Z</time>
      </trkpt>
      <trkpt lat="45.87167" lon="3.40948">
        <ele>376</ele>
        <time>2024-05-19T06:47:55Z</time>
      </trkpt>
      <trkpt lat="45.87161" lon="3.40946">
        <ele>376</ele>
        <time>2024-05-19T06:47:56Z</time>
      </trkpt>
      <trkpt lat="45.87156" lon="3.40944">
        <ele>376</ele>
        <time>2024-05-19T06:47:57Z</time>
      </trkpt>
      <trkpt lat="45.87151" lon="3.40942">
        <ele>376.2</ele>
        <time>2024-05-19T06:47:58Z</time>
      </trkpt>
      <trkpt lat="45.87145" lon="3.4094">
        <ele>376.2</ele>
        <time>2024-05-19T06:47:59Z</time>
      </trkpt>
      <trkpt lat="45.87141" lon="3.40939">
        <ele>376.2</ele>
        <time>2024-05-19T06:48:00Z</time>
      </trkpt>
      <trkpt lat="45.87135" lon="3.40937">
        <ele>376.4</ele>
        <time>2024-05-19T06:48:01Z</time>
      </trkpt>
      <trkpt lat="45.8713" lon="3.40935">
        <ele>376.4</ele>
        <time>2024-05-19T06:48:02Z</time>
      </trkpt>
      <trkpt lat="45.87125" lon="3.40933">
        <ele>376.4</ele>
        <time>2024-05-19T06:48:03Z</time>
      </trkpt>
      <trkpt lat="45.8712" lon="3.40931">
        <ele>376.6</ele>
        <time>2024-05-19T06:48:04Z</time>
      </trkpt>
      <trkpt lat="45.87114" lon="3.40929">
        <ele>376.6</ele>
        <time>2024-05-19T06:48:05Z</time>
      </trkpt>
      <trkpt lat="45.87109" lon="3.40927">
        <ele>376.8</ele>
        <time>2024-05-19T06:48:06Z</time>
      </trkpt>
      <trkpt lat="45.87104" lon="3.40925">
        <ele>376.8</ele>
        <time>2024-05-19T06:48:07Z</time>
      </trkpt>
      <trkpt lat="45.87099" lon="3.40923">
        <ele>376.8</ele>
        <time>2024-05-19T06:48:08Z</time>
      </trkpt>
      <trkpt lat="45.87093" lon="3.40921">
        <ele>377</ele>
        <time>2024-05-19T06:48:09Z</time>
      </trkpt>
      <trkpt lat="45.87086" lon="3.40919">
        <ele>377</ele>
        <time>2024-05-19T06:48:10Z</time>
      </trkpt>
      <trkpt lat="45.8708" lon="3.40916">
        <ele>377</ele>
        <time>2024-05-19T06:48:11Z</time>
      </trkpt>
      <trkpt lat="45.87074" lon="3.40914">
        <ele>377</ele>
        <time>2024-05-19T06:48:12Z</time>
      </trkpt>
      <trkpt lat="45.87069" lon="3.40912">
        <ele>377.2</ele>
        <time>2024-05-19T06:48:13Z</time>
      </trkpt>
      <trkpt lat="45.87063" lon="3.4091">
        <ele>377.2</ele>
        <time>2024-05-19T06:48:14Z</time>
      </trkpt>
      <trkpt lat="45.87057" lon="3.40908">
        <ele>377.2</ele>
        <time>2024-05-19T06:48:15Z</time>
      </trkpt>
      <trkpt lat="45.87051" lon="3.40906">
        <ele>377.4</ele>
        <time>2024-05-19T06:48:16Z</time>
      </trkpt>
      <trkpt lat="45.87045" lon="3.40904">
        <ele>377.4</ele>
        <time>2024-05-19T06:48:17Z</time>
      </trkpt>
      <trkpt lat="45.87039" lon="3.40901">
        <ele>377.4</ele>
        <time>2024-05-19T06:48:18Z</time>
      </trkpt>
      <trkpt lat="45.87033" lon="3.40899">
        <ele>377.6</ele>
        <time>2024-05-19T06:48:19Z</time>
      </trkpt>
      <trkpt lat="45.87028" lon="3.40897">
        <ele>377.6</ele>
        <time>2024-05-19T06:48:20Z</time>
      </trkpt>
      <trkpt lat="45.87022" lon="3.40895">
        <ele>377.6</ele>
        <time>2024-05-19T06:48:21Z</time>
      </trkpt>
      <trkpt lat="45.87017" lon="3.40893">
        <ele>377.8</ele>
        <time>2024-05-19T06:48:22Z</time>
      </trkpt>
      <trkpt lat="45.87011" lon="3.40891">
        <ele>377.8</ele>
        <time>2024-05-19T06:48:23Z</time>
      </trkpt>
      <trkpt lat="45.87006" lon="3.40889">
        <ele>377.8</ele>
        <time>2024-05-19T06:48:24Z</time>
      </trkpt>
      <trkpt lat="45.87" lon="3.40887">
        <ele>377.8</ele>
        <time>2024-05-19T06:48:25Z</time>
      </trkpt>
      <trkpt lat="45.86994" lon="3.40885">
        <ele>378</ele>
        <time>2024-05-19T06:48:26Z</time>
      </trkpt>
      <trkpt lat="45.86987" lon="3.40882">
        <ele>378</ele>
        <time>2024-05-19T06:48:27Z</time>
      </trkpt>
      <trkpt lat="45.86982" lon="3.4088">
        <ele>378</ele>
        <time>2024-05-19T06:48:28Z</time>
      </trkpt>
      <trkpt lat="45.86976" lon="3.40878">
        <ele>378</ele>
        <time>2024-05-19T06:48:29Z</time>
      </trkpt>
      <trkpt lat="45.8697" lon="3.40876">
        <ele>378.2</ele>
        <time>2024-05-19T06:48:30Z</time>
      </trkpt>
      <trkpt lat="45.86965" lon="3.40874">
        <ele>378.4</ele>
        <time>2024-05-19T06:48:31Z</time>
      </trkpt>
      <trkpt lat="45.86959" lon="3.40872">
        <ele>378.4</ele>
        <time>2024-05-19T06:48:32Z</time>
      </trkpt>
      <trkpt lat="45.86953" lon="3.4087">
        <ele>378.6</ele>
        <time>2024-05-19T06:48:33Z</time>
      </trkpt>
      <trkpt lat="45.86947" lon="3.40868">
        <ele>378.6</ele>
        <time>2024-05-19T06:48:34Z</time>
      </trkpt>
      <trkpt lat="45.86941" lon="3.40865">
        <ele>378.6</ele>
        <time>2024-05-19T06:48:35Z</time>
      </trkpt>
      <trkpt lat="45.86935" lon="3.40863">
        <ele>378.8</ele>
        <time>2024-05-19T06:48:36Z</time>
      </trkpt>
      <trkpt lat="45.8693" lon="3.40861">
        <ele>378.8</ele>
        <time>2024-05-19T06:48:37Z</time>
      </trkpt>
      <trkpt lat="45.86924" lon="3.40859">
        <ele>378.8</ele>
        <time>2024-05-19T06:48:38Z</time>
      </trkpt>
      <trkpt lat="45.86917" lon="3.40857">
        <ele>378.8</ele>
        <time>2024-05-19T06:48:39Z</time>
      </trkpt>
      <trkpt lat="45.86911" lon="3.40854">
        <ele>378.8</ele>
        <time>2024-05-19T06:48:40Z</time>
      </trkpt>
      <trkpt lat="45.86904" lon="3.40852">
        <ele>378.8</ele>
        <time>2024-05-19T06:48:41Z</time>
      </trkpt>
      <trkpt lat="45.86898" lon="3.40849">
        <ele>378.8</ele>
        <time>2024-05-19T06:48:42Z</time>
      </trkpt>
      <trkpt lat="45.86892" lon="3.40845">
        <ele>379</ele>
        <time>2024-05-19T06:48:43Z</time>
      </trkpt>
      <trkpt lat="45.86886" lon="3.40841">
        <ele>379</ele>
        <time>2024-05-19T06:48:44Z</time>
      </trkpt>
      <trkpt lat="45.86881" lon="3.40838">
        <ele>379</ele>
        <time>2024-05-19T06:48:45Z</time>
      </trkpt>
      <trkpt lat="45.86875" lon="3.40834">
        <ele>379</ele>
        <time>2024-05-19T06:48:46Z</time>
      </trkpt>
      <trkpt lat="45.8687" lon="3.40831">
        <ele>379.2</ele>
        <time>2024-05-19T06:48:47Z</time>
      </trkpt>
      <trkpt lat="45.86864" lon="3.40827">
        <ele>379.2</ele>
        <time>2024-05-19T06:48:48Z</time>
      </trkpt>
      <trkpt lat="45.86859" lon="3.40824">
        <ele>379.2</ele>
        <time>2024-05-19T06:48:49Z</time>
      </trkpt>
      <trkpt lat="45.86854" lon="3.40821">
        <ele>379.2</ele>
        <time>2024-05-19T06:48:50Z</time>
      </trkpt>
      <trkpt lat="45.86848" lon="3.40817">
        <ele>379.4</ele>
        <time>2024-05-19T06:48:51Z</time>
      </trkpt>
      <trkpt lat="45.86843" lon="3.40814">
        <ele>379.4</ele>
        <time>2024-05-19T06:48:52Z</time>
      </trkpt>
      <trkpt lat="45.86838" lon="3.40811">
        <ele>379.4</ele>
        <time>2024-05-19T06:48:53Z</time>
      </trkpt>
      <trkpt lat="45.86833" lon="3.40807">
        <ele>379.6</ele>
        <time>2024-05-19T06:48:54Z</time>
      </trkpt>
      <trkpt lat="45.86827" lon="3.40804">
        <ele>379.6</ele>
        <time>2024-05-19T06:48:55Z</time>
      </trkpt>
      <trkpt lat="45.86821" lon="3.408">
        <ele>379.6</ele>
        <time>2024-05-19T06:48:56Z</time>
      </trkpt>
      <trkpt lat="45.86816" lon="3.40797">
        <ele>379.6</ele>
        <time>2024-05-19T06:48:57Z</time>
      </trkpt>
      <trkpt lat="45.86811" lon="3.40793">
        <ele>379.8</ele>
        <time>2024-05-19T06:48:58Z</time>
      </trkpt>
      <trkpt lat="45.86805" lon="3.4079">
        <ele>379.8</ele>
        <time>2024-05-19T06:48:59Z</time>
      </trkpt>
      <trkpt lat="45.868" lon="3.40787">
        <ele>379.8</ele>
        <time>2024-05-19T06:49:00Z</time>
      </trkpt>
      <trkpt lat="45.86794" lon="3.40783">
        <ele>379.8</ele>
        <time>2024-05-19T06:49:01Z</time>
      </trkpt>
      <trkpt lat="45.86789" lon="3.4078">
        <ele>380</ele>
        <time>2024-05-19T06:49:02Z</time>
      </trkpt>
      <trkpt lat="45.86784" lon="3.40777">
        <ele>380</ele>
        <time>2024-05-19T06:49:03Z</time>
      </trkpt>
      <trkpt lat="45.86779" lon="3.40773">
        <ele>380</ele>
        <time>2024-05-19T06:49:04Z</time>
      </trkpt>
      <trkpt lat="45.86774" lon="3.4077">
        <ele>380.2</ele>
        <time>2024-05-19T06:49:05Z</time>
      </trkpt>
      <trkpt lat="45.86769" lon="3.40767">
        <ele>380.2</ele>
        <time>2024-05-19T06:49:06Z</time>
      </trkpt>
      <trkpt lat="45.86764" lon="3.40764">
        <ele>380.2</ele>
        <time>2024-05-19T06:49:07Z</time>
      </trkpt>
      <trkpt lat="45.86759" lon="3.40761">
        <ele>380.2</ele>
        <time>2024-05-19T06:49:08Z</time>
      </trkpt>
      <trkpt lat="45.86753" lon="3.40757">
        <ele>380.4</ele>
        <time>2024-05-19T06:49:09Z</time>
      </trkpt>
      <trkpt lat="45.86748" lon="3.40754">
        <ele>380.4</ele>
        <time>2024-05-19T06:49:10Z</time>
      </trkpt>
      <trkpt lat="45.86743" lon="3.40751">
        <ele>380.4</ele>
        <time>2024-05-19T06:49:11Z</time>
      </trkpt>
      <trkpt lat="45.86737" lon="3.40747">
        <ele>380.6</ele>
        <time>2024-05-19T06:49:12Z</time>
      </trkpt>
      <trkpt lat="45.86732" lon="3.40744">
        <ele>380.6</ele>
        <time>2024-05-19T06:49:13Z</time>
      </trkpt>
      <trkpt lat="45.86727" lon="3.4074">
        <ele>380.6</ele>
        <time>2024-05-19T06:49:14Z</time>
      </trkpt>
      <trkpt lat="45.86722" lon="3.40737">
        <ele>380.6</ele>
        <time>2024-05-19T06:49:15Z</time>
      </trkpt>
      <trkpt lat="45.86716" lon="3.40734">
        <ele>380.8</ele>
        <time>2024-05-19T06:49:16Z</time>
      </trkpt>
      <trkpt lat="45.86711" lon="3.40731">
        <ele>380.8</ele>
        <time>2024-05-19T06:49:17Z</time>
      </trkpt>
      <trkpt lat="45.86706" lon="3.40727">
        <ele>380.8</ele>
        <time>2024-05-19T06:49:18Z</time>
      </trkpt>
      <trkpt lat="45.867" lon="3.40724">
        <ele>381</ele>
        <time>2024-05-19T06:49:19Z</time>
      </trkpt>
      <trkpt lat="45.86695" lon="3.40721">
        <ele>381</ele>
        <time>2024-05-19T06:49:20Z</time>
      </trkpt>
      <trkpt lat="45.8669" lon="3.40718">
        <ele>381.2</ele>
        <time>2024-05-19T06:49:21Z</time>
      </trkpt>
      <trkpt lat="45.86684" lon="3.40715">
        <ele>381.2</ele>
        <time>2024-05-19T06:49:22Z</time>
      </trkpt>
      <trkpt lat="45.86679" lon="3.40713">
        <ele>381.2</ele>
        <time>2024-05-19T06:49:23Z</time>
      </trkpt>
      <trkpt lat="45.86674" lon="3.4071">
        <ele>381.4</ele>
        <time>2024-05-19T06:49:24Z</time>
      </trkpt>
      <trkpt lat="45.86669" lon="3.40707">
        <ele>381.4</ele>
        <time>2024-05-19T06:49:25Z</time>
      </trkpt>
      <trkpt lat="45.86664" lon="3.40705">
        <ele>381.4</ele>
        <time>2024-05-19T06:49:26Z</time>
      </trkpt>
      <trkpt lat="45.86658" lon="3.40702">
        <ele>381.6</ele>
        <time>2024-05-19T06:49:27Z</time>
      </trkpt>
      <trkpt lat="45.86653" lon="3.40699">
        <ele>381.6</ele>
        <time>2024-05-19T06:49:28Z</time>
      </trkpt>
      <trkpt lat="45.86648" lon="3.40697">
        <ele>381.8</ele>
        <time>2024-05-19T06:49:29Z</time>
      </trkpt>
      <trkpt lat="45.86642" lon="3.40694">
        <ele>381.8</ele>
        <time>2024-05-19T06:49:30Z</time>
      </trkpt>
      <trkpt lat="45.86637" lon="3.40691">
        <ele>382</ele>
        <time>2024-05-19T06:49:31Z</time>
      </trkpt>
      <trkpt lat="45.86631" lon="3.40688">
        <ele>382</ele>
        <time>2024-05-19T06:49:32Z</time>
      </trkpt>
      <trkpt lat="45.86626" lon="3.40685">
        <ele>382</ele>
        <time>2024-05-19T06:49:33Z</time>
      </trkpt>
      <trkpt lat="45.8662" lon="3.40683">
        <ele>382.2</ele>
        <time>2024-05-19T06:49:34Z</time>
      </trkpt>
      <trkpt lat="45.86615" lon="3.4068">
        <ele>382.2</ele>
        <time>2024-05-19T06:49:35Z</time>
      </trkpt>
      <trkpt lat="45.86609" lon="3.40677">
        <ele>382.2</ele>
        <time>2024-05-19T06:49:36Z</time>
      </trkpt>
      <trkpt lat="45.86604" lon="3.40673">
        <ele>382.2</ele>
        <time>2024-05-19T06:49:37Z</time>
      </trkpt>
      <trkpt lat="45.86599" lon="3.40668">
        <ele>382.4</ele>
        <time>2024-05-19T06:49:38Z</time>
      </trkpt>
      <trkpt lat="45.86594" lon="3.40664">
        <ele>382.4</ele>
        <time>2024-05-19T06:49:39Z</time>
      </trkpt>
      <trkpt lat="45.86589" lon="3.4066">
        <ele>382.6</ele>
        <time>2024-05-19T06:49:40Z</time>
      </trkpt>
      <trkpt lat="45.86584" lon="3.40656">
        <ele>382.6</ele>
        <time>2024-05-19T06:49:41Z</time>
      </trkpt>
      <trkpt lat="45.86579" lon="3.40652">
        <ele>382.6</ele>
        <time>2024-05-19T06:49:42Z</time>
      </trkpt>
      <trkpt lat="45.86574" lon="3.40648">
        <ele>382.8</ele>
        <time>2024-05-19T06:49:43Z</time>
      </trkpt>
      <trkpt lat="45.86569" lon="3.40644">
        <ele>382.8</ele>
        <time>2024-05-19T06:49:44Z</time>
      </trkpt>
      <trkpt lat="45.86564" lon="3.4064">
        <ele>382.8</ele>
        <time>2024-05-19T06:49:45Z</time>
      </trkpt>
      <trkpt lat="45.86559" lon="3.40636">
        <ele>383</ele>
        <time>2024-05-19T06:49:46Z</time>
      </trkpt>
      <trkpt lat="45.86554" lon="3.40632">
        <ele>383</ele>
        <time>2024-05-19T06:49:47Z</time>
      </trkpt>
      <trkpt lat="45.86548" lon="3.40628">
        <ele>383.2</ele>
        <time>2024-05-19T06:49:48Z</time>
      </trkpt>
      <trkpt lat="45.86543" lon="3.40625">
        <ele>383.2</ele>
        <time>2024-05-19T06:49:49Z</time>
      </trkpt>
      <trkpt lat="45.86538" lon="3.40622">
        <ele>383.2</ele>
        <time>2024-05-19T06:49:50Z</time>
      </trkpt>
      <trkpt lat="45.86532" lon="3.40619">
        <ele>383.4</ele>
        <time>2024-05-19T06:49:51Z</time>
      </trkpt>
      <trkpt lat="45.86527" lon="3.40616">
        <ele>383.4</ele>
        <time>2024-05-19T06:49:52Z</time>
      </trkpt>
      <trkpt lat="45.86522" lon="3.40613">
        <ele>383.6</ele>
        <time>2024-05-19T06:49:53Z</time>
      </trkpt>
      <trkpt lat="45.86516" lon="3.4061">
        <ele>383.6</ele>
        <time>2024-05-19T06:49:54Z</time>
      </trkpt>
      <trkpt lat="45.86511" lon="3.40607">
        <ele>383.6</ele>
        <time>2024-05-19T06:49:55Z</time>
      </trkpt>
      <trkpt lat="45.86505" lon="3.40604">
        <ele>383.6</ele>
        <time>2024-05-19T06:49:56Z</time>
      </trkpt>
      <trkpt lat="45.865" lon="3.40601">
        <ele>383.8</ele>
        <time>2024-05-19T06:49:57Z</time>
      </trkpt>
      <trkpt lat="45.86495" lon="3.40597">
        <ele>383.8</ele>
        <time>2024-05-19T06:49:58Z</time>
      </trkpt>
      <trkpt lat="45.86489" lon="3.40594">
        <ele>384</ele>
        <time>2024-05-19T06:49:59Z</time>
      </trkpt>
      <trkpt lat="45.86483" lon="3.40591">
        <ele>384</ele>
        <time>2024-05-19T06:50:00Z</time>
      </trkpt>
      <trkpt lat="45.86478" lon="3.40588">
        <ele>384</ele>
        <time>2024-05-19T06:50:01Z</time>
      </trkpt>
      <trkpt lat="45.86472" lon="3.40585">
        <ele>384.2</ele>
        <time>2024-05-19T06:50:02Z</time>
      </trkpt>
      <trkpt lat="45.86467" lon="3.40582">
        <ele>384.4</ele>
        <time>2024-05-19T06:50:03Z</time>
      </trkpt>
      <trkpt lat="45.86461" lon="3.40578">
        <ele>384.4</ele>
        <time>2024-05-19T06:50:04Z</time>
      </trkpt>
      <trkpt lat="45.86456" lon="3.40575">
        <ele>384.6</ele>
        <time>2024-05-19T06:50:05Z</time>
      </trkpt>
      <trkpt lat="45.8645" lon="3.40572">
        <ele>384.6</ele>
        <time>2024-05-19T06:50:06Z</time>
      </trkpt>
      <trkpt lat="45.86445" lon="3.40569">
        <ele>384.6</ele>
        <time>2024-05-19T06:50:07Z</time>
      </trkpt>
      <trkpt lat="45.86439" lon="3.40566">
        <ele>384.8</ele>
        <time>2024-05-19T06:50:08Z</time>
      </trkpt>
      <trkpt lat="45.86434" lon="3.40561">
        <ele>384.8</ele>
        <time>2024-05-19T06:50:09Z</time>
      </trkpt>
      <trkpt lat="45.86429" lon="3.40555">
        <ele>384.8</ele>
        <time>2024-05-19T06:50:10Z</time>
      </trkpt>
      <trkpt lat="45.86423" lon="3.40549">
        <ele>384.8</ele>
        <time>2024-05-19T06:50:11Z</time>
      </trkpt>
      <trkpt lat="45.86418" lon="3.40543">
        <ele>384.8</ele>
        <time>2024-05-19T06:50:12Z</time>
      </trkpt>
      <trkpt lat="45.86412" lon="3.40537">
        <ele>384.8</ele>
        <time>2024-05-19T06:50:13Z</time>
      </trkpt>
      <trkpt lat="45.86408" lon="3.40532">
        <ele>385</ele>
        <time>2024-05-19T06:50:14Z</time>
      </trkpt>
      <trkpt lat="45.86403" lon="3.40527">
        <ele>385</ele>
        <time>2024-05-19T06:50:15Z</time>
      </trkpt>
      <trkpt lat="45.86398" lon="3.40522">
        <ele>384.8</ele>
        <time>2024-05-19T06:50:16Z</time>
      </trkpt>
      <trkpt lat="45.86393" lon="3.40515">
        <ele>385</ele>
        <time>2024-05-19T06:50:17Z</time>
      </trkpt>
      <trkpt lat="45.86389" lon="3.40508">
        <ele>384.8</ele>
        <time>2024-05-19T06:50:18Z</time>
      </trkpt>
      <trkpt lat="45.86386" lon="3.40501">
        <ele>385</ele>
        <time>2024-05-19T06:50:19Z</time>
      </trkpt>
      <trkpt lat="45.86382" lon="3.40494">
        <ele>385</ele>
        <time>2024-05-19T06:50:20Z</time>
      </trkpt>
      <trkpt lat="45.86378" lon="3.40487">
        <ele>385</ele>
        <time>2024-05-19T06:50:21Z</time>
      </trkpt>
      <trkpt lat="45.86374" lon="3.4048">
        <ele>385</ele>
        <time>2024-05-19T06:50:22Z</time>
      </trkpt>
      <trkpt lat="45.8637" lon="3.40473">
        <ele>385.2</ele>
        <time>2024-05-19T06:50:23Z</time>
      </trkpt>
      <trkpt lat="45.86367" lon="3.40466">
        <ele>385.2</ele>
        <time>2024-05-19T06:50:24Z</time>
      </trkpt>
      <trkpt lat="45.86363" lon="3.40459">
        <ele>385.2</ele>
        <time>2024-05-19T06:50:25Z</time>
      </trkpt>
      <trkpt lat="45.86359" lon="3.40452">
        <ele>385.2</ele>
        <time>2024-05-19T06:50:26Z</time>
      </trkpt>
      <trkpt lat="45.86354" lon="3.40446">
        <ele>385.2</ele>
        <time>2024-05-19T06:50:27Z</time>
      </trkpt>
      <trkpt lat="45.86349" lon="3.40442">
        <ele>385.2</ele>
        <time>2024-05-19T06:50:28Z</time>
      </trkpt>
      <trkpt lat="45.86344" lon="3.40438">
        <ele>385.4</ele>
        <time>2024-05-19T06:50:29Z</time>
      </trkpt>
      <trkpt lat="45.86338" lon="3.40434">
        <ele>385.4</ele>
        <time>2024-05-19T06:50:30Z</time>
      </trkpt>
      <trkpt lat="45.86333" lon="3.40429">
        <ele>385.4</ele>
        <time>2024-05-19T06:50:31Z</time>
      </trkpt>
      <trkpt lat="45.86327" lon="3.40425">
        <ele>385.4</ele>
        <time>2024-05-19T06:50:32Z</time>
      </trkpt>
      <trkpt lat="45.86322" lon="3.40421">
        <ele>385.4</ele>
        <time>2024-05-19T06:50:33Z</time>
      </trkpt>
      <trkpt lat="45.86317" lon="3.40417">
        <ele>385.6</ele>
        <time>2024-05-19T06:50:34Z</time>
      </trkpt>
      <trkpt lat="45.86312" lon="3.40413">
        <ele>385.6</ele>
        <time>2024-05-19T06:50:35Z</time>
      </trkpt>
      <trkpt lat="45.86307" lon="3.40409">
        <ele>385.6</ele>
        <time>2024-05-19T06:50:36Z</time>
      </trkpt>
      <trkpt lat="45.86301" lon="3.40405">
        <ele>385.6</ele>
        <time>2024-05-19T06:50:37Z</time>
      </trkpt>
      <trkpt lat="45.86296" lon="3.40401">
        <ele>385.8</ele>
        <time>2024-05-19T06:50:38Z</time>
      </trkpt>
      <trkpt lat="45.86291" lon="3.40397">
        <ele>385.8</ele>
        <time>2024-05-19T06:50:39Z</time>
      </trkpt>
      <trkpt lat="45.86286" lon="3.40393">
        <ele>385.8</ele>
        <time>2024-05-19T06:50:40Z</time>
      </trkpt>
      <trkpt lat="45.86281" lon="3.40389">
        <ele>385.8</ele>
        <time>2024-05-19T06:50:41Z</time>
      </trkpt>
      <trkpt lat="45.86276" lon="3.40384">
        <ele>386</ele>
        <time>2024-05-19T06:50:42Z</time>
      </trkpt>
      <trkpt lat="45.86271" lon="3.40379">
        <ele>386</ele>
        <time>2024-05-19T06:50:43Z</time>
      </trkpt>
      <trkpt lat="45.86267" lon="3.40374">
        <ele>386</ele>
        <time>2024-05-19T06:50:44Z</time>
      </trkpt>
      <trkpt lat="45.86262" lon="3.40369">
        <ele>386</ele>
        <time>2024-05-19T06:50:45Z</time>
      </trkpt>
      <trkpt lat="45.86258" lon="3.40365">
        <ele>386.2</ele>
        <time>2024-05-19T06:50:46Z</time>
      </trkpt>
      <trkpt lat="45.86253" lon="3.4036">
        <ele>386.2</ele>
        <time>2024-05-19T06:50:47Z</time>
      </trkpt>
      <trkpt lat="45.86249" lon="3.40355">
        <ele>386.2</ele>
        <time>2024-05-19T06:50:48Z</time>
      </trkpt>
      <trkpt lat="45.86244" lon="3.40351">
        <ele>386.4</ele>
        <time>2024-05-19T06:50:49Z</time>
      </trkpt>
      <trkpt lat="45.8624" lon="3.40346">
        <ele>386.4</ele>
        <time>2024-05-19T06:50:50Z</time>
      </trkpt>
      <trkpt lat="45.86235" lon="3.40341">
        <ele>386.6</ele>
        <time>2024-05-19T06:50:51Z</time>
      </trkpt>
      <trkpt lat="45.86231" lon="3.40336">
        <ele>386.6</ele>
        <time>2024-05-19T06:50:52Z</time>
      </trkpt>
      <trkpt lat="45.86226" lon="3.40331">
        <ele>386.6</ele>
        <time>2024-05-19T06:50:53Z</time>
      </trkpt>
      <trkpt lat="45.86221" lon="3.40326">
        <ele>386.8</ele>
        <time>2024-05-19T06:50:54Z</time>
      </trkpt>
      <trkpt lat="45.86217" lon="3.40322">
        <ele>386.8</ele>
        <time>2024-05-19T06:50:55Z</time>
      </trkpt>
      <trkpt lat="45.86212" lon="3.40317">
        <ele>387</ele>
        <time>2024-05-19T06:50:56Z</time>
      </trkpt>
      <trkpt lat="45.86207" lon="3.40312">
        <ele>387</ele>
        <time>2024-05-19T06:50:57Z</time>
      </trkpt>
      <trkpt lat="45.86203" lon="3.40307">
        <ele>387.2</ele>
        <time>2024-05-19T06:50:58Z</time>
      </trkpt>
      <trkpt lat="45.86199" lon="3.40303">
        <ele>387.2</ele>
        <time>2024-05-19T06:50:59Z</time>
      </trkpt>
      <trkpt lat="45.86194" lon="3.40298">
        <ele>387.2</ele>
        <time>2024-05-19T06:51:00Z</time>
      </trkpt>
      <trkpt lat="45.86189" lon="3.40294">
        <ele>387.4</ele>
        <time>2024-05-19T06:51:01Z</time>
      </trkpt>
      <trkpt lat="45.86184" lon="3.4029">
        <ele>387.4</ele>
        <time>2024-05-19T06:51:02Z</time>
      </trkpt>
      <trkpt lat="45.86179" lon="3.40286">
        <ele>387.6</ele>
        <time>2024-05-19T06:51:03Z</time>
      </trkpt>
      <trkpt lat="45.86174" lon="3.40282">
        <ele>387.6</ele>
        <time>2024-05-19T06:51:04Z</time>
      </trkpt>
      <trkpt lat="45.86169" lon="3.40279">
        <ele>387.8</ele>
        <time>2024-05-19T06:51:05Z</time>
      </trkpt>
      <trkpt lat="45.86164" lon="3.40275">
        <ele>387.8</ele>
        <time>2024-05-19T06:51:06Z</time>
      </trkpt>
      <trkpt lat="45.8616" lon="3.40271">
        <ele>388</ele>
        <time>2024-05-19T06:51:07Z</time>
      </trkpt>
      <trkpt lat="45.86155" lon="3.40267">
        <ele>388</ele>
        <time>2024-05-19T06:51:08Z</time>
      </trkpt>
      <trkpt lat="45.8615" lon="3.40263">
        <ele>388.2</ele>
        <time>2024-05-19T06:51:09Z</time>
      </trkpt>
      <trkpt lat="45.86145" lon="3.40259">
        <ele>388.4</ele>
        <time>2024-05-19T06:51:10Z</time>
      </trkpt>
      <trkpt lat="45.86139" lon="3.40256">
        <ele>388.4</ele>
        <time>2024-05-19T06:51:11Z</time>
      </trkpt>
      <trkpt lat="45.86134" lon="3.40253">
        <ele>388.6</ele>
        <time>2024-05-19T06:51:12Z</time>
      </trkpt>
      <trkpt lat="45.86128" lon="3.4025">
        <ele>388.6</ele>
        <time>2024-05-19T06:51:13Z</time>
      </trkpt>
      <trkpt lat="45.86123" lon="3.40247">
        <ele>388.8</ele>
        <time>2024-05-19T06:51:14Z</time>
      </trkpt>
      <trkpt lat="45.86118" lon="3.40244">
        <ele>388.8</ele>
        <time>2024-05-19T06:51:15Z</time>
      </trkpt>
      <trkpt lat="45.86112" lon="3.40241">
        <ele>389</ele>
        <time>2024-05-19T06:51:16Z</time>
      </trkpt>
      <trkpt lat="45.86107" lon="3.40238">
        <ele>389</ele>
        <time>2024-05-19T06:51:17Z</time>
      </trkpt>
      <trkpt lat="45.86101" lon="3.40235">
        <ele>389.2</ele>
        <time>2024-05-19T06:51:18Z</time>
      </trkpt>
      <trkpt lat="45.86096" lon="3.40233">
        <ele>389.2</ele>
        <time>2024-05-19T06:51:19Z</time>
      </trkpt>
      <trkpt lat="45.8609" lon="3.40231">
        <ele>389.4</ele>
        <time>2024-05-19T06:51:20Z</time>
      </trkpt>
      <trkpt lat="45.86084" lon="3.40228">
        <ele>389.4</ele>
        <time>2024-05-19T06:51:21Z</time>
      </trkpt>
      <trkpt lat="45.86078" lon="3.40226">
        <ele>389.6</ele>
        <time>2024-05-19T06:51:22Z</time>
      </trkpt>
      <trkpt lat="45.86072" lon="3.40223">
        <ele>389.6</ele>
        <time>2024-05-19T06:51:23Z</time>
      </trkpt>
      <trkpt lat="45.86067" lon="3.40221">
        <ele>389.8</ele>
        <time>2024-05-19T06:51:24Z</time>
      </trkpt>
      <trkpt lat="45.86061" lon="3.40218">
        <ele>389.8</ele>
        <time>2024-05-19T06:51:25Z</time>
      </trkpt>
      <trkpt lat="45.86056" lon="3.40216">
        <ele>389.8</ele>
        <time>2024-05-19T06:51:26Z</time>
      </trkpt>
      <trkpt lat="45.8605" lon="3.40214">
        <ele>390</ele>
        <time>2024-05-19T06:51:27Z</time>
      </trkpt>
      <trkpt lat="45.86045" lon="3.40211">
        <ele>390</ele>
        <time>2024-05-19T06:51:28Z</time>
      </trkpt>
      <trkpt lat="45.8604" lon="3.40209">
        <ele>390.2</ele>
        <time>2024-05-19T06:51:29Z</time>
      </trkpt>
      <trkpt lat="45.86035" lon="3.40207">
        <ele>390.2</ele>
        <time>2024-05-19T06:51:30Z</time>
      </trkpt>
      <trkpt lat="45.86029" lon="3.40205">
        <ele>390.4</ele>
        <time>2024-05-19T06:51:31Z</time>
      </trkpt>
      <trkpt lat="45.86023" lon="3.40202">
        <ele>390.4</ele>
        <time>2024-05-19T06:51:32Z</time>
      </trkpt>
      <trkpt lat="45.86017" lon="3.402">
        <ele>390.6</ele>
        <time>2024-05-19T06:51:33Z</time>
      </trkpt>
      <trkpt lat="45.86012" lon="3.40197">
        <ele>390.6</ele>
        <time>2024-05-19T06:51:34Z</time>
      </trkpt>
      <trkpt lat="45.86007" lon="3.40195">
        <ele>390.6</ele>
        <time>2024-05-19T06:51:35Z</time>
      </trkpt>
      <trkpt lat="45.86" lon="3.40193">
        <ele>390.8</ele>
        <time>2024-05-19T06:51:36Z</time>
      </trkpt>
      <trkpt lat="45.85993" lon="3.40189">
        <ele>390.8</ele>
        <time>2024-05-19T06:51:37Z</time>
      </trkpt>
      <trkpt lat="45.85986" lon="3.40186">
        <ele>390.6</ele>
        <time>2024-05-19T06:51:38Z</time>
      </trkpt>
      <trkpt lat="45.85979" lon="3.40184">
        <ele>390.8</ele>
        <time>2024-05-19T06:51:39Z</time>
      </trkpt>
      <trkpt lat="45.85973" lon="3.40181">
        <ele>390.8</ele>
        <time>2024-05-19T06:51:40Z</time>
      </trkpt>
      <trkpt lat="45.85967" lon="3.40178">
        <ele>390.8</ele>
        <time>2024-05-19T06:51:41Z</time>
      </trkpt>
      <trkpt lat="45.85961" lon="3.40176">
        <ele>390.8</ele>
        <time>2024-05-19T06:51:42Z</time>
      </trkpt>
      <trkpt lat="45.85955" lon="3.40173">
        <ele>390.8</ele>
        <time>2024-05-19T06:51:43Z</time>
      </trkpt>
      <trkpt lat="45.85949" lon="3.40171">
        <ele>390.8</ele>
        <time>2024-05-19T06:51:44Z</time>
      </trkpt>
      <trkpt lat="45.85943" lon="3.40168">
        <ele>390.8</ele>
        <time>2024-05-19T06:51:45Z</time>
      </trkpt>
      <trkpt lat="45.85938" lon="3.40166">
        <ele>391</ele>
        <time>2024-05-19T06:51:46Z</time>
      </trkpt>
      <trkpt lat="45.85932" lon="3.40163">
        <ele>391</ele>
        <time>2024-05-19T06:51:47Z</time>
      </trkpt>
      <trkpt lat="45.85927" lon="3.40161">
        <ele>391</ele>
        <time>2024-05-19T06:51:48Z</time>
      </trkpt>
      <trkpt lat="45.85921" lon="3.40159">
        <ele>391</ele>
        <time>2024-05-19T06:51:49Z</time>
      </trkpt>
      <trkpt lat="45.85916" lon="3.40157">
        <ele>391</ele>
        <time>2024-05-19T06:51:50Z</time>
      </trkpt>
      <trkpt lat="45.8591" lon="3.40156">
        <ele>391.2</ele>
        <time>2024-05-19T06:51:51Z</time>
      </trkpt>
      <trkpt lat="45.85904" lon="3.40155">
        <ele>391.2</ele>
        <time>2024-05-19T06:51:52Z</time>
      </trkpt>
      <trkpt lat="45.85898" lon="3.40154">
        <ele>391.2</ele>
        <time>2024-05-19T06:51:53Z</time>
      </trkpt>
      <trkpt lat="45.85893" lon="3.40153">
        <ele>391.2</ele>
        <time>2024-05-19T06:51:54Z</time>
      </trkpt>
      <trkpt lat="45.85887" lon="3.40152">
        <ele>391.2</ele>
        <time>2024-05-19T06:51:55Z</time>
      </trkpt>
      <trkpt lat="45.85881" lon="3.40151">
        <ele>391.2</ele>
        <time>2024-05-19T06:51:56Z</time>
      </trkpt>
      <trkpt lat="45.85876" lon="3.4015">
        <ele>391.4</ele>
        <time>2024-05-19T06:51:57Z</time>
      </trkpt>
      <trkpt lat="45.85871" lon="3.40149">
        <ele>391.4</ele>
        <time>2024-05-19T06:51:58Z</time>
      </trkpt>
      <trkpt lat="45.85865" lon="3.40148">
        <ele>391.4</ele>
        <time>2024-05-19T06:51:59Z</time>
      </trkpt>
      <trkpt lat="45.85859" lon="3.40147">
        <ele>391.4</ele>
        <time>2024-05-19T06:52:00Z</time>
      </trkpt>
      <trkpt lat="45.85853" lon="3.40146">
        <ele>391.6</ele>
        <time>2024-05-19T06:52:01Z</time>
      </trkpt>
      <trkpt lat="45.85846" lon="3.40144">
        <ele>391.6</ele>
        <time>2024-05-19T06:52:02Z</time>
      </trkpt>
      <trkpt lat="45.8584" lon="3.40143">
        <ele>391.6</ele>
        <time>2024-05-19T06:52:03Z</time>
      </trkpt>
      <trkpt lat="45.85834" lon="3.40142">
        <ele>391.8</ele>
        <time>2024-05-19T06:52:04Z</time>
      </trkpt>
      <trkpt lat="45.85828" lon="3.40141">
        <ele>391.8</ele>
        <time>2024-05-19T06:52:05Z</time>
      </trkpt>
      <trkpt lat="45.85822" lon="3.4014">
        <ele>391.8</ele>
        <time>2024-05-19T06:52:06Z</time>
      </trkpt>
      <trkpt lat="45.85817" lon="3.40139">
        <ele>391.8</ele>
        <time>2024-05-19T06:52:07Z</time>
      </trkpt>
      <trkpt lat="45.85811" lon="3.40138">
        <ele>392</ele>
        <time>2024-05-19T06:52:08Z</time>
      </trkpt>
      <trkpt lat="45.85805" lon="3.40137">
        <ele>392</ele>
        <time>2024-05-19T06:52:09Z</time>
      </trkpt>
      <trkpt lat="45.85799" lon="3.40136">
        <ele>392</ele>
        <time>2024-05-19T06:52:10Z</time>
      </trkpt>
      <trkpt lat="45.85793" lon="3.40135">
        <ele>392.2</ele>
        <time>2024-05-19T06:52:11Z</time>
      </trkpt>
      <trkpt lat="45.85787" lon="3.40134">
        <ele>392.2</ele>
        <time>2024-05-19T06:52:12Z</time>
      </trkpt>
      <trkpt lat="45.85782" lon="3.40133">
        <ele>392.2</ele>
        <time>2024-05-19T06:52:13Z</time>
      </trkpt>
      <trkpt lat="45.85776" lon="3.40132">
        <ele>392.2</ele>
        <time>2024-05-19T06:52:14Z</time>
      </trkpt>
      <trkpt lat="45.85771" lon="3.40131">
        <ele>392.2</ele>
        <time>2024-05-19T06:52:15Z</time>
      </trkpt>
      <trkpt lat="45.85765" lon="3.4013">
        <ele>392.4</ele>
        <time>2024-05-19T06:52:16Z</time>
      </trkpt>
      <trkpt lat="45.8576" lon="3.40128">
        <ele>392.4</ele>
        <time>2024-05-19T06:52:17Z</time>
      </trkpt>
      <trkpt lat="45.85755" lon="3.40128">
        <ele>392.4</ele>
        <time>2024-05-19T06:52:18Z</time>
      </trkpt>
      <trkpt lat="45.85749" lon="3.40127">
        <ele>392.4</ele>
        <time>2024-05-19T06:52:19Z</time>
      </trkpt>
      <trkpt lat="45.85743" lon="3.40126">
        <ele>392.6</ele>
        <time>2024-05-19T06:52:20Z</time>
      </trkpt>
      <trkpt lat="45.85738" lon="3.40124">
        <ele>392.6</ele>
        <time>2024-05-19T06:52:21Z</time>
      </trkpt>
      <trkpt lat="45.85732" lon="3.40123">
        <ele>392.6</ele>
        <time>2024-05-19T06:52:22Z</time>
      </trkpt>
      <trkpt lat="45.85726" lon="3.40122">
        <ele>392.8</ele>
        <time>2024-05-19T06:52:23Z</time>
      </trkpt>
      <trkpt lat="45.8572" lon="3.40121">
        <ele>392.8</ele>
        <time>2024-05-19T06:52:24Z</time>
      </trkpt>
      <trkpt lat="45.85715" lon="3.4012">
        <ele>392.8</ele>
        <time>2024-05-19T06:52:25Z</time>
      </trkpt>
      <trkpt lat="45.85709" lon="3.40119">
        <ele>392.8</ele>
        <time>2024-05-19T06:52:26Z</time>
      </trkpt>
      <trkpt lat="45.85704" lon="3.40117">
        <ele>393</ele>
        <time>2024-05-19T06:52:27Z</time>
      </trkpt>
      <trkpt lat="45.85698" lon="3.40115">
        <ele>393</ele>
        <time>2024-05-19T06:52:28Z</time>
      </trkpt>
      <trkpt lat="45.85692" lon="3.40114">
        <ele>393</ele>
        <time>2024-05-19T06:52:29Z</time>
      </trkpt>
      <trkpt lat="45.85686" lon="3.40112">
        <ele>393</ele>
        <time>2024-05-19T06:52:30Z</time>
      </trkpt>
      <trkpt lat="45.85681" lon="3.4011">
        <ele>393</ele>
        <time>2024-05-19T06:52:31Z</time>
      </trkpt>
      <trkpt lat="45.85675" lon="3.40108">
        <ele>393.2</ele>
        <time>2024-05-19T06:52:32Z</time>
      </trkpt>
      <trkpt lat="45.8567" lon="3.40107">
        <ele>393.2</ele>
        <time>2024-05-19T06:52:33Z</time>
      </trkpt>
      <trkpt lat="45.85664" lon="3.40105">
        <ele>393.4</ele>
        <time>2024-05-19T06:52:34Z</time>
      </trkpt>
      <trkpt lat="45.85659" lon="3.40104">
        <ele>393.4</ele>
        <time>2024-05-19T06:52:35Z</time>
      </trkpt>
      <trkpt lat="45.85653" lon="3.40102">
        <ele>393.6</ele>
        <time>2024-05-19T06:52:36Z</time>
      </trkpt>
      <trkpt lat="45.85647" lon="3.401">
        <ele>393.6</ele>
        <time>2024-05-19T06:52:37Z</time>
      </trkpt>
      <trkpt lat="45.85642" lon="3.401">
        <ele>393.6</ele>
        <time>2024-05-19T06:52:38Z</time>
      </trkpt>
      <trkpt lat="45.85637" lon="3.40099">
        <ele>393.6</ele>
        <time>2024-05-19T06:52:39Z</time>
      </trkpt>
      <trkpt lat="45.85633" lon="3.40099">
        <ele>393.6</ele>
        <time>2024-05-19T06:52:40Z</time>
      </trkpt>
      <trkpt lat="45.85628" lon="3.40098">
        <ele>393.6</ele>
        <time>2024-05-19T06:52:41Z</time>
      </trkpt>
      <trkpt lat="45.85624" lon="3.40098">
        <ele>393.8</ele>
        <time>2024-05-19T06:52:42Z</time>
      </trkpt>
      <trkpt lat="45.8562" lon="3.40098">
        <ele>393.8</ele>
        <time>2024-05-19T06:52:43Z</time>
      </trkpt>
      <trkpt lat="45.85614" lon="3.40098">
        <ele>393.8</ele>
        <time>2024-05-19T06:52:44Z</time>
      </trkpt>
      <trkpt lat="45.85609" lon="3.40098">
        <ele>393.6</ele>
        <time>2024-05-19T06:52:45Z</time>
      </trkpt>
      <trkpt lat="45.85603" lon="3.40099">
        <ele>393.6</ele>
        <time>2024-05-19T06:52:46Z</time>
      </trkpt>
      <trkpt lat="45.85596" lon="3.40099">
        <ele>393.6</ele>
        <time>2024-05-19T06:52:47Z</time>
      </trkpt>
      <trkpt lat="45.85589" lon="3.401">
        <ele>393.6</ele>
        <time>2024-05-19T06:52:48Z</time>
      </trkpt>
      <trkpt lat="45.85582" lon="3.401">
        <ele>393.6</ele>
        <time>2024-05-19T06:52:49Z</time>
      </trkpt>
      <trkpt lat="45.85579" lon="3.401">
        <ele>393.6</ele>
        <time>2024-05-19T06:52:50Z</time>
      </trkpt>
      <trkpt lat="45.85576" lon="3.401">
        <ele>393.4</ele>
        <time>2024-05-19T06:52:51Z</time>
      </trkpt>
      <trkpt lat="45.85573" lon="3.401">
        <ele>394</ele>
        <time>2024-05-19T06:52:52Z</time>
      </trkpt>
      <trkpt lat="45.85568" lon="3.40101">
        <ele>393.8</ele>
        <time>2024-05-19T06:52:53Z</time>
      </trkpt>
      <trkpt lat="45.85563" lon="3.40101">
        <ele>392.8</ele>
        <time>2024-05-19T06:52:54Z</time>
      </trkpt>
      <trkpt lat="45.8554" lon="3.40103">
        <ele>392.8</ele>
        <time>2024-05-19T06:52:55Z</time>
      </trkpt>
      <trkpt lat="45.8553" lon="3.40103">
        <ele>392.6</ele>
        <time>2024-05-19T06:52:56Z</time>
      </trkpt>
      <trkpt lat="45.85523" lon="3.40104">
        <ele>392.6</ele>
        <time>2024-05-19T06:52:57Z</time>
      </trkpt>
      <trkpt lat="45.85516" lon="3.40104">
        <ele>392.6</ele>
        <time>2024-05-19T06:52:58Z</time>
      </trkpt>
      <trkpt lat="45.85509" lon="3.40103">
        <ele>392.6</ele>
        <time>2024-05-19T06:52:59Z</time>
      </trkpt>
      <trkpt lat="45.85503" lon="3.40102">
        <ele>392.4</ele>
        <time>2024-05-19T06:53:00Z</time>
      </trkpt>
      <trkpt lat="45.85496" lon="3.40101">
        <ele>392.4</ele>
        <time>2024-05-19T06:53:01Z</time>
      </trkpt>
      <trkpt lat="45.8549" lon="3.401">
        <ele>392.4</ele>
        <time>2024-05-19T06:53:02Z</time>
      </trkpt>
      <trkpt lat="45.85484" lon="3.40099">
        <ele>392.4</ele>
        <time>2024-05-19T06:53:03Z</time>
      </trkpt>
      <trkpt lat="45.85478" lon="3.40098">
        <ele>392.4</ele>
        <time>2024-05-19T06:53:04Z</time>
      </trkpt>
      <trkpt lat="45.85471" lon="3.40097">
        <ele>392.4</ele>
        <time>2024-05-19T06:53:05Z</time>
      </trkpt>
      <trkpt lat="45.85464" lon="3.40096">
        <ele>392.4</ele>
        <time>2024-05-19T06:53:06Z</time>
      </trkpt>
      <trkpt lat="45.85458" lon="3.40095">
        <ele>392.4</ele>
        <time>2024-05-19T06:53:07Z</time>
      </trkpt>
      <trkpt lat="45.85452" lon="3.40095">
        <ele>392.4</ele>
        <time>2024-05-19T06:53:08Z</time>
      </trkpt>
      <trkpt lat="45.85446" lon="3.40094">
        <ele>392.4</ele>
        <time>2024-05-19T06:53:09Z</time>
      </trkpt>
      <trkpt lat="45.8544" lon="3.40093">
        <ele>392.4</ele>
        <time>2024-05-19T06:53:10Z</time>
      </trkpt>
      <trkpt lat="45.85435" lon="3.40092">
        <ele>392.4</ele>
        <time>2024-05-19T06:53:11Z</time>
      </trkpt>
      <trkpt lat="45.85429" lon="3.40091">
        <ele>392.4</ele>
        <time>2024-05-19T06:53:12Z</time>
      </trkpt>
      <trkpt lat="45.85422" lon="3.40092">
        <ele>392.6</ele>
        <time>2024-05-19T06:53:13Z</time>
      </trkpt>
      <trkpt lat="45.85417" lon="3.40093">
        <ele>392.6</ele>
        <time>2024-05-19T06:53:14Z</time>
      </trkpt>
      <trkpt lat="45.85417" lon="3.40093">
        <ele>392.6</ele>
        <time>2024-05-19T06:53:15Z</time>
      </trkpt>
      <trkpt lat="45.85403" lon="3.40099">
        <ele>392.2</ele>
        <time>2024-05-19T06:53:16Z</time>
      </trkpt>
      <trkpt lat="45.85398" lon="3.40095">
        <ele>392.8</ele>
        <time>2024-05-19T06:53:17Z</time>
      </trkpt>
      <trkpt lat="45.85393" lon="3.40091">
        <ele>393.2</ele>
        <time>2024-05-19T06:53:18Z</time>
      </trkpt>
      <trkpt lat="45.85388" lon="3.40087">
        <ele>393.6</ele>
        <time>2024-05-19T06:53:19Z</time>
      </trkpt>
      <trkpt lat="45.85384" lon="3.40083">
        <ele>393.2</ele>
        <time>2024-05-19T06:53:20Z</time>
      </trkpt>
      <trkpt lat="45.8538" lon="3.4008">
        <ele>393.2</ele>
        <time>2024-05-19T06:53:21Z</time>
      </trkpt>
      <trkpt lat="45.85376" lon="3.40076">
        <ele>393.2</ele>
        <time>2024-05-19T06:53:22Z</time>
      </trkpt>
      <trkpt lat="45.85371" lon="3.40072">
        <ele>393.4</ele>
        <time>2024-05-19T06:53:23Z</time>
      </trkpt>
      <trkpt lat="45.85366" lon="3.40068">
        <ele>393.4</ele>
        <time>2024-05-19T06:53:24Z</time>
      </trkpt>
      <trkpt lat="45.85362" lon="3.40064">
        <ele>393.4</ele>
        <time>2024-05-19T06:53:25Z</time>
      </trkpt>
      <trkpt lat="45.85357" lon="3.4006">
        <ele>393.6</ele>
        <time>2024-05-19T06:53:26Z</time>
      </trkpt>
      <trkpt lat="45.85352" lon="3.40056">
        <ele>393.6</ele>
        <time>2024-05-19T06:53:27Z</time>
      </trkpt>
      <trkpt lat="45.85347" lon="3.40051">
        <ele>393.6</ele>
        <time>2024-05-19T06:53:28Z</time>
      </trkpt>
      <trkpt lat="45.85341" lon="3.40046">
        <ele>393.6</ele>
        <time>2024-05-19T06:53:29Z</time>
      </trkpt>
      <trkpt lat="45.85335" lon="3.40041">
        <ele>393.6</ele>
        <time>2024-05-19T06:53:30Z</time>
      </trkpt>
      <trkpt lat="45.85329" lon="3.40036">
        <ele>393.6</ele>
        <time>2024-05-19T06:53:31Z</time>
      </trkpt>
      <trkpt lat="45.85323" lon="3.4003">
        <ele>393.6</ele>
        <time>2024-05-19T06:53:32Z</time>
      </trkpt>
      <trkpt lat="45.85318" lon="3.40024">
        <ele>393.6</ele>
        <time>2024-05-19T06:53:33Z</time>
      </trkpt>
      <trkpt lat="45.85312" lon="3.40017">
        <ele>393.6</ele>
        <time>2024-05-19T06:53:34Z</time>
      </trkpt>
      <trkpt lat="45.85306" lon="3.40012">
        <ele>393.6</ele>
        <time>2024-05-19T06:53:35Z</time>
      </trkpt>
      <trkpt lat="45.85301" lon="3.40006">
        <ele>393.8</ele>
        <time>2024-05-19T06:53:36Z</time>
      </trkpt>
      <trkpt lat="45.85296" lon="3.40001">
        <ele>393.8</ele>
        <time>2024-05-19T06:53:37Z</time>
      </trkpt>
      <trkpt lat="45.85291" lon="3.39995">
        <ele>393.8</ele>
        <time>2024-05-19T06:53:38Z</time>
      </trkpt>
      <trkpt lat="45.85287" lon="3.39988">
        <ele>393.8</ele>
        <time>2024-05-19T06:53:39Z</time>
      </trkpt>
      <trkpt lat="45.85283" lon="3.39982">
        <ele>394</ele>
        <time>2024-05-19T06:53:40Z</time>
      </trkpt>
      <trkpt lat="45.85279" lon="3.39975">
        <ele>394</ele>
        <time>2024-05-19T06:53:41Z</time>
      </trkpt>
      <trkpt lat="45.85275" lon="3.39968">
        <ele>394.2</ele>
        <time>2024-05-19T06:53:42Z</time>
      </trkpt>
      <trkpt lat="45.85271" lon="3.39961">
        <ele>394.2</ele>
        <time>2024-05-19T06:53:43Z</time>
      </trkpt>
      <trkpt lat="45.85268" lon="3.39953">
        <ele>394.2</ele>
        <time>2024-05-19T06:53:44Z</time>
      </trkpt>
      <trkpt lat="45.85265" lon="3.39945">
        <ele>394.2</ele>
        <time>2024-05-19T06:53:45Z</time>
      </trkpt>
      <trkpt lat="45.85262" lon="3.39937">
        <ele>394.4</ele>
        <time>2024-05-19T06:53:46Z</time>
      </trkpt>
      <trkpt lat="45.85259" lon="3.39929">
        <ele>394.4</ele>
        <time>2024-05-19T06:53:47Z</time>
      </trkpt>
      <trkpt lat="45.85256" lon="3.39921">
        <ele>394.4</ele>
        <time>2024-05-19T06:53:48Z</time>
      </trkpt>
      <trkpt lat="45.85253" lon="3.39914">
        <ele>394.4</ele>
        <time>2024-05-19T06:53:49Z</time>
      </trkpt>
      <trkpt lat="45.8525" lon="3.39906">
        <ele>394.4</ele>
        <time>2024-05-19T06:53:50Z</time>
      </trkpt>
      <trkpt lat="45.85248" lon="3.39895">
        <ele>394.6</ele>
        <time>2024-05-19T06:53:51Z</time>
      </trkpt>
      <trkpt lat="45.85248" lon="3.39886">
        <ele>394.6</ele>
        <time>2024-05-19T06:53:52Z</time>
      </trkpt>
      <trkpt lat="45.85247" lon="3.39876">
        <ele>394.8</ele>
        <time>2024-05-19T06:53:53Z</time>
      </trkpt>
      <trkpt lat="45.85246" lon="3.39867">
        <ele>394.6</ele>
        <time>2024-05-19T06:53:54Z</time>
      </trkpt>
      <trkpt lat="45.85245" lon="3.39857">
        <ele>394.8</ele>
        <time>2024-05-19T06:53:55Z</time>
      </trkpt>
      <trkpt lat="45.85244" lon="3.39848">
        <ele>394.8</ele>
        <time>2024-05-19T06:53:56Z</time>
      </trkpt>
      <trkpt lat="45.85243" lon="3.39838">
        <ele>394.8</ele>
        <time>2024-05-19T06:53:57Z</time>
      </trkpt>
      <trkpt lat="45.85243" lon="3.39828">
        <ele>394.8</ele>
        <time>2024-05-19T06:53:58Z</time>
      </trkpt>
      <trkpt lat="45.85244" lon="3.39818">
        <ele>394.8</ele>
        <time>2024-05-19T06:53:59Z</time>
      </trkpt>
      <trkpt lat="45.85244" lon="3.39809">
        <ele>394.8</ele>
        <time>2024-05-19T06:54:00Z</time>
      </trkpt>
      <trkpt lat="45.85245" lon="3.39799">
        <ele>394.8</ele>
        <time>2024-05-19T06:54:01Z</time>
      </trkpt>
      <trkpt lat="45.85245" lon="3.3979">
        <ele>394.8</ele>
        <time>2024-05-19T06:54:02Z</time>
      </trkpt>
      <trkpt lat="45.85246" lon="3.3978">
        <ele>394.8</ele>
        <time>2024-05-19T06:54:03Z</time>
      </trkpt>
      <trkpt lat="45.85246" lon="3.3977">
        <ele>394.8</ele>
        <time>2024-05-19T06:54:04Z</time>
      </trkpt>
      <trkpt lat="45.85247" lon="3.39761">
        <ele>394.8</ele>
        <time>2024-05-19T06:54:05Z</time>
      </trkpt>
      <trkpt lat="45.85248" lon="3.39751">
        <ele>394.8</ele>
        <time>2024-05-19T06:54:06Z</time>
      </trkpt>
      <trkpt lat="45.85248" lon="3.39741">
        <ele>394.8</ele>
        <time>2024-05-19T06:54:07Z</time>
      </trkpt>
      <trkpt lat="45.85249" lon="3.39732">
        <ele>394.8</ele>
        <time>2024-05-19T06:54:08Z</time>
      </trkpt>
      <trkpt lat="45.85249" lon="3.39722">
        <ele>395</ele>
        <time>2024-05-19T06:54:09Z</time>
      </trkpt>
      <trkpt lat="45.8525" lon="3.39713">
        <ele>395</ele>
        <time>2024-05-19T06:54:10Z</time>
      </trkpt>
      <trkpt lat="45.8525" lon="3.39704">
        <ele>395</ele>
        <time>2024-05-19T06:54:11Z</time>
      </trkpt>
      <trkpt lat="45.85251" lon="3.39695">
        <ele>395</ele>
        <time>2024-05-19T06:54:12Z</time>
      </trkpt>
      <trkpt lat="45.85252" lon="3.39685">
        <ele>395</ele>
        <time>2024-05-19T06:54:13Z</time>
      </trkpt>
      <trkpt lat="45.85252" lon="3.39675">
        <ele>395</ele>
        <time>2024-05-19T06:54:14Z</time>
      </trkpt>
      <trkpt lat="45.85253" lon="3.39665">
        <ele>395</ele>
        <time>2024-05-19T06:54:15Z</time>
      </trkpt>
      <trkpt lat="45.85253" lon="3.39655">
        <ele>395</ele>
        <time>2024-05-19T06:54:16Z</time>
      </trkpt>
      <trkpt lat="45.85254" lon="3.39645">
        <ele>395</ele>
        <time>2024-05-19T06:54:17Z</time>
      </trkpt>
      <trkpt lat="45.85254" lon="3.39635">
        <ele>395</ele>
        <time>2024-05-19T06:54:18Z</time>
      </trkpt>
      <trkpt lat="45.85255" lon="3.39625">
        <ele>395</ele>
        <time>2024-05-19T06:54:19Z</time>
      </trkpt>
      <trkpt lat="45.85256" lon="3.39616">
        <ele>395</ele>
        <time>2024-05-19T06:54:20Z</time>
      </trkpt>
      <trkpt lat="45.85256" lon="3.39606">
        <ele>395</ele>
        <time>2024-05-19T06:54:21Z</time>
      </trkpt>
      <trkpt lat="45.85257" lon="3.39596">
        <ele>395</ele>
        <time>2024-05-19T06:54:22Z</time>
      </trkpt>
      <trkpt lat="45.85257" lon="3.39586">
        <ele>395</ele>
        <time>2024-05-19T06:54:23Z</time>
      </trkpt>
      <trkpt lat="45.85258" lon="3.39577">
        <ele>395</ele>
        <time>2024-05-19T06:54:24Z</time>
      </trkpt>
      <trkpt lat="45.85259" lon="3.39567">
        <ele>395</ele>
        <time>2024-05-19T06:54:25Z</time>
      </trkpt>
      <trkpt lat="45.85259" lon="3.39557">
        <ele>395</ele>
        <time>2024-05-19T06:54:26Z</time>
      </trkpt>
      <trkpt lat="45.8526" lon="3.39548">
        <ele>395.2</ele>
        <time>2024-05-19T06:54:27Z</time>
      </trkpt>
      <trkpt lat="45.85261" lon="3.39538">
        <ele>395</ele>
        <time>2024-05-19T06:54:28Z</time>
      </trkpt>
      <trkpt lat="45.85262" lon="3.39529">
        <ele>395</ele>
        <time>2024-05-19T06:54:29Z</time>
      </trkpt>
      <trkpt lat="45.85264" lon="3.39519">
        <ele>395</ele>
        <time>2024-05-19T06:54:30Z</time>
      </trkpt>
      <trkpt lat="45.85265" lon="3.3951">
        <ele>395.2</ele>
        <time>2024-05-19T06:54:31Z</time>
      </trkpt>
      <trkpt lat="45.85267" lon="3.39501">
        <ele>395</ele>
        <time>2024-05-19T06:54:32Z</time>
      </trkpt>
      <trkpt lat="45.85268" lon="3.39492">
        <ele>394.8</ele>
        <time>2024-05-19T06:54:33Z</time>
      </trkpt>
      <trkpt lat="45.8527" lon="3.39482">
        <ele>394.8</ele>
        <time>2024-05-19T06:54:34Z</time>
      </trkpt>
      <trkpt lat="45.85273" lon="3.39473">
        <ele>394.8</ele>
        <time>2024-05-19T06:54:35Z</time>
      </trkpt>
      <trkpt lat="45.85275" lon="3.39465">
        <ele>394.8</ele>
        <time>2024-05-19T06:54:36Z</time>
      </trkpt>
      <trkpt lat="45.85277" lon="3.39457">
        <ele>394.8</ele>
        <time>2024-05-19T06:54:37Z</time>
      </trkpt>
      <trkpt lat="45.85279" lon="3.39448">
        <ele>394.8</ele>
        <time>2024-05-19T06:54:38Z</time>
      </trkpt>
      <trkpt lat="45.85281" lon="3.3944">
        <ele>394.8</ele>
        <time>2024-05-19T06:54:39Z</time>
      </trkpt>
      <trkpt lat="45.85283" lon="3.39432">
        <ele>394.6</ele>
        <time>2024-05-19T06:54:40Z</time>
      </trkpt>
      <trkpt lat="45.85284" lon="3.39424">
        <ele>394.6</ele>
        <time>2024-05-19T06:54:41Z</time>
      </trkpt>
      <trkpt lat="45.85286" lon="3.39416">
        <ele>394.6</ele>
        <time>2024-05-19T06:54:42Z</time>
      </trkpt>
      <trkpt lat="45.85288" lon="3.39408">
        <ele>394.4</ele>
        <time>2024-05-19T06:54:43Z</time>
      </trkpt>
      <trkpt lat="45.8529" lon="3.39401">
        <ele>394.4</ele>
        <time>2024-05-19T06:54:44Z</time>
      </trkpt>
      <trkpt lat="45.85292" lon="3.39394">
        <ele>394.4</ele>
        <time>2024-05-19T06:54:45Z</time>
      </trkpt>
      <trkpt lat="45.85294" lon="3.39386">
        <ele>394.4</ele>
        <time>2024-05-19T06:54:46Z</time>
      </trkpt>
      <trkpt lat="45.85296" lon="3.39378">
        <ele>394.4</ele>
        <time>2024-05-19T06:54:47Z</time>
      </trkpt>
      <trkpt lat="45.85297" lon="3.3937">
        <ele>394.4</ele>
        <time>2024-05-19T06:54:48Z</time>
      </trkpt>
      <trkpt lat="45.85297" lon="3.39361">
        <ele>394.4</ele>
        <time>2024-05-19T06:54:49Z</time>
      </trkpt>
      <trkpt lat="45.85297" lon="3.39353">
        <ele>394.4</ele>
        <time>2024-05-19T06:54:50Z</time>
      </trkpt>
      <trkpt lat="45.85298" lon="3.39346">
        <ele>394.4</ele>
        <time>2024-05-19T06:54:51Z</time>
      </trkpt>
      <trkpt lat="45.85298" lon="3.39338">
        <ele>394.4</ele>
        <time>2024-05-19T06:54:52Z</time>
      </trkpt>
      <trkpt lat="45.85298" lon="3.3933">
        <ele>394.4</ele>
        <time>2024-05-19T06:54:53Z</time>
      </trkpt>
      <trkpt lat="45.85299" lon="3.39321">
        <ele>394.4</ele>
        <time>2024-05-19T06:54:54Z</time>
      </trkpt>
      <trkpt lat="45.85299" lon="3.39313">
        <ele>394.4</ele>
        <time>2024-05-19T06:54:55Z</time>
      </trkpt>
      <trkpt lat="45.85299" lon="3.39305">
        <ele>394.4</ele>
        <time>2024-05-19T06:54:56Z</time>
      </trkpt>
      <trkpt lat="45.85299" lon="3.39298">
        <ele>394.4</ele>
        <time>2024-05-19T06:54:57Z</time>
      </trkpt>
      <trkpt lat="45.85299" lon="3.39291">
        <ele>394.4</ele>
        <time>2024-05-19T06:54:58Z</time>
      </trkpt>
      <trkpt lat="45.853" lon="3.39285">
        <ele>394.4</ele>
        <time>2024-05-19T06:54:59Z</time>
      </trkpt>
      <trkpt lat="45.85301" lon="3.39279">
        <ele>394.4</ele>
        <time>2024-05-19T06:55:00Z</time>
      </trkpt>
      <trkpt lat="45.85302" lon="3.39274">
        <ele>394.4</ele>
        <time>2024-05-19T06:55:01Z</time>
      </trkpt>
      <trkpt lat="45.85303" lon="3.39271">
        <ele>394.4</ele>
        <time>2024-05-19T06:55:02Z</time>
      </trkpt>
      <trkpt lat="45.85304" lon="3.39268">
        <ele>394.4</ele>
        <time>2024-05-19T06:55:03Z</time>
      </trkpt>
      <trkpt lat="45.85292" lon="3.39255">
        <ele>394.2</ele>
        <time>2024-05-19T06:55:04Z</time>
      </trkpt>
      <trkpt lat="45.85289" lon="3.39256">
        <ele>394.4</ele>
        <time>2024-05-19T06:55:05Z</time>
      </trkpt>
      <trkpt lat="45.85286" lon="3.39256">
        <ele>394.4</ele>
        <time>2024-05-19T06:55:06Z</time>
      </trkpt>
      <trkpt lat="45.85283" lon="3.39257">
        <ele>394.6</ele>
        <time>2024-05-19T06:55:07Z</time>
      </trkpt>
      <trkpt lat="45.85279" lon="3.39258">
        <ele>394.6</ele>
        <time>2024-05-19T06:55:08Z</time>
      </trkpt>
      <trkpt lat="45.85274" lon="3.39259">
        <ele>394.6</ele>
        <time>2024-05-19T06:55:09Z</time>
      </trkpt>
      <trkpt lat="45.85267" lon="3.39261">
        <ele>394.6</ele>
        <time>2024-05-19T06:55:10Z</time>
      </trkpt>
      <trkpt lat="45.85261" lon="3.39262">
        <ele>394.6</ele>
        <time>2024-05-19T06:55:11Z</time>
      </trkpt>
      <trkpt lat="45.85256" lon="3.39262">
        <ele>394.8</ele>
        <time>2024-05-19T06:55:12Z</time>
      </trkpt>
      <trkpt lat="45.85249" lon="3.39263">
        <ele>394.8</ele>
        <time>2024-05-19T06:55:13Z</time>
      </trkpt>
      <trkpt lat="45.85243" lon="3.39264">
        <ele>395</ele>
        <time>2024-05-19T06:55:14Z</time>
      </trkpt>
      <trkpt lat="45.85237" lon="3.39265">
        <ele>395</ele>
        <time>2024-05-19T06:55:15Z</time>
      </trkpt>
      <trkpt lat="45.85232" lon="3.39266">
        <ele>395</ele>
        <time>2024-05-19T06:55:16Z</time>
      </trkpt>
      <trkpt lat="45.85226" lon="3.39267">
        <ele>395</ele>
        <time>2024-05-19T06:55:17Z</time>
      </trkpt>
      <trkpt lat="45.8522" lon="3.39267">
        <ele>395</ele>
        <time>2024-05-19T06:55:18Z</time>
      </trkpt>
      <trkpt lat="45.85215" lon="3.39268">
        <ele>395</ele>
        <time>2024-05-19T06:55:19Z</time>
      </trkpt>
      <trkpt lat="45.85209" lon="3.39268">
        <ele>395.2</ele>
        <time>2024-05-19T06:55:20Z</time>
      </trkpt>
      <trkpt lat="45.85203" lon="3.39269">
        <ele>395.2</ele>
        <time>2024-05-19T06:55:21Z</time>
      </trkpt>
      <trkpt lat="45.85198" lon="3.39269">
        <ele>395.4</ele>
        <time>2024-05-19T06:55:22Z</time>
      </trkpt>
      <trkpt lat="45.85192" lon="3.3927">
        <ele>395.4</ele>
        <time>2024-05-19T06:55:23Z</time>
      </trkpt>
      <trkpt lat="45.85186" lon="3.3927">
        <ele>395.4</ele>
        <time>2024-05-19T06:55:24Z</time>
      </trkpt>
      <trkpt lat="45.85181" lon="3.39271">
        <ele>395.4</ele>
        <time>2024-05-19T06:55:25Z</time>
      </trkpt>
      <trkpt lat="45.85175" lon="3.39271">
        <ele>395.4</ele>
        <time>2024-05-19T06:55:26Z</time>
      </trkpt>
      <trkpt lat="45.8517" lon="3.39271">
        <ele>395.6</ele>
        <time>2024-05-19T06:55:27Z</time>
      </trkpt>
      <trkpt lat="45.85163" lon="3.39272">
        <ele>395.6</ele>
        <time>2024-05-19T06:55:28Z</time>
      </trkpt>
      <trkpt lat="45.85157" lon="3.39272">
        <ele>395.6</ele>
        <time>2024-05-19T06:55:29Z</time>
      </trkpt>
      <trkpt lat="45.85152" lon="3.39273">
        <ele>395.8</ele>
        <time>2024-05-19T06:55:30Z</time>
      </trkpt>
      <trkpt lat="45.85146" lon="3.39273">
        <ele>395.8</ele>
        <time>2024-05-19T06:55:31Z</time>
      </trkpt>
      <trkpt lat="45.8514" lon="3.39274">
        <ele>396</ele>
        <time>2024-05-19T06:55:32Z</time>
      </trkpt>
      <trkpt lat="45.85135" lon="3.39274">
        <ele>396</ele>
        <time>2024-05-19T06:55:33Z</time>
      </trkpt>
      <trkpt lat="45.85129" lon="3.39274">
        <ele>396</ele>
        <time>2024-05-19T06:55:34Z</time>
      </trkpt>
      <trkpt lat="45.85123" lon="3.39275">
        <ele>396.2</ele>
        <time>2024-05-19T06:55:35Z</time>
      </trkpt>
      <trkpt lat="45.85117" lon="3.39275">
        <ele>396.2</ele>
        <time>2024-05-19T06:55:36Z</time>
      </trkpt>
      <trkpt lat="45.85111" lon="3.39276">
        <ele>396.2</ele>
        <time>2024-05-19T06:55:37Z</time>
      </trkpt>
      <trkpt lat="45.85105" lon="3.39276">
        <ele>396.2</ele>
        <time>2024-05-19T06:55:38Z</time>
      </trkpt>
      <trkpt lat="45.85099" lon="3.39277">
        <ele>396.2</ele>
        <time>2024-05-19T06:55:39Z</time>
      </trkpt>
      <trkpt lat="45.85094" lon="3.39277">
        <ele>396.4</ele>
        <time>2024-05-19T06:55:40Z</time>
      </trkpt>
      <trkpt lat="45.85088" lon="3.39278">
        <ele>396.4</ele>
        <time>2024-05-19T06:55:41Z</time>
      </trkpt>
      <trkpt lat="45.85082" lon="3.39278">
        <ele>396.4</ele>
        <time>2024-05-19T06:55:42Z</time>
      </trkpt>
      <trkpt lat="45.85076" lon="3.39278">
        <ele>396.6</ele>
        <time>2024-05-19T06:55:43Z</time>
      </trkpt>
      <trkpt lat="45.8507" lon="3.39278">
        <ele>396.6</ele>
        <time>2024-05-19T06:55:44Z</time>
      </trkpt>
      <trkpt lat="45.85063" lon="3.39277">
        <ele>396.8</ele>
        <time>2024-05-19T06:55:45Z</time>
      </trkpt>
      <trkpt lat="45.85057" lon="3.39277">
        <ele>396.8</ele>
        <time>2024-05-19T06:55:46Z</time>
      </trkpt>
      <trkpt lat="45.85051" lon="3.39277">
        <ele>396.8</ele>
        <time>2024-05-19T06:55:47Z</time>
      </trkpt>
      <trkpt lat="45.85045" lon="3.39277">
        <ele>396.8</ele>
        <time>2024-05-19T06:55:48Z</time>
      </trkpt>
      <trkpt lat="45.85039" lon="3.39276">
        <ele>396.8</ele>
        <time>2024-05-19T06:55:49Z</time>
      </trkpt>
      <trkpt lat="45.85032" lon="3.39276">
        <ele>397</ele>
        <time>2024-05-19T06:55:50Z</time>
      </trkpt>
      <trkpt lat="45.85026" lon="3.39276">
        <ele>397</ele>
        <time>2024-05-19T06:55:51Z</time>
      </trkpt>
      <trkpt lat="45.8502" lon="3.39276">
        <ele>397.2</ele>
        <time>2024-05-19T06:55:52Z</time>
      </trkpt>
      <trkpt lat="45.85014" lon="3.39275">
        <ele>397.2</ele>
        <time>2024-05-19T06:55:53Z</time>
      </trkpt>
      <trkpt lat="45.85008" lon="3.39275">
        <ele>397.2</ele>
        <time>2024-05-19T06:55:54Z</time>
      </trkpt>
      <trkpt lat="45.85002" lon="3.39275">
        <ele>397.2</ele>
        <time>2024-05-19T06:55:55Z</time>
      </trkpt>
      <trkpt lat="45.84996" lon="3.39275">
        <ele>397.4</ele>
        <time>2024-05-19T06:55:56Z</time>
      </trkpt>
      <trkpt lat="45.8499" lon="3.39275">
        <ele>397.4</ele>
        <time>2024-05-19T06:55:57Z</time>
      </trkpt>
      <trkpt lat="45.84984" lon="3.39274">
        <ele>397.4</ele>
        <time>2024-05-19T06:55:58Z</time>
      </trkpt>
      <trkpt lat="45.84979" lon="3.39274">
        <ele>397.6</ele>
        <time>2024-05-19T06:55:59Z</time>
      </trkpt>
      <trkpt lat="45.84973" lon="3.39274">
        <ele>397.6</ele>
        <time>2024-05-19T06:56:00Z</time>
      </trkpt>
      <trkpt lat="45.84967" lon="3.39274">
        <ele>397.8</ele>
        <time>2024-05-19T06:56:01Z</time>
      </trkpt>
      <trkpt lat="45.84961" lon="3.39273">
        <ele>397.8</ele>
        <time>2024-05-19T06:56:02Z</time>
      </trkpt>
      <trkpt lat="45.84955" lon="3.39273">
        <ele>397.8</ele>
        <time>2024-05-19T06:56:03Z</time>
      </trkpt>
      <trkpt lat="45.84948" lon="3.39273">
        <ele>398</ele>
        <time>2024-05-19T06:56:04Z</time>
      </trkpt>
      <trkpt lat="45.84942" lon="3.39273">
        <ele>398</ele>
        <time>2024-05-19T06:56:05Z</time>
      </trkpt>
      <trkpt lat="45.84936" lon="3.39273">
        <ele>398</ele>
        <time>2024-05-19T06:56:06Z</time>
      </trkpt>
      <trkpt lat="45.84929" lon="3.39272">
        <ele>398</ele>
        <time>2024-05-19T06:56:07Z</time>
      </trkpt>
      <trkpt lat="45.84923" lon="3.39272">
        <ele>398.2</ele>
        <time>2024-05-19T06:56:08Z</time>
      </trkpt>
      <trkpt lat="45.84916" lon="3.39272">
        <ele>398.2</ele>
        <time>2024-05-19T06:56:09Z</time>
      </trkpt>
      <trkpt lat="45.8491" lon="3.39272">
        <ele>398.2</ele>
        <time>2024-05-19T06:56:10Z</time>
      </trkpt>
      <trkpt lat="45.84903" lon="3.39271">
        <ele>398.2</ele>
        <time>2024-05-19T06:56:11Z</time>
      </trkpt>
      <trkpt lat="45.84896" lon="3.3927">
        <ele>398.2</ele>
        <time>2024-05-19T06:56:12Z</time>
      </trkpt>
      <trkpt lat="45.8489" lon="3.3927">
        <ele>398.4</ele>
        <time>2024-05-19T06:56:13Z</time>
      </trkpt>
      <trkpt lat="45.84884" lon="3.39269">
        <ele>398.4</ele>
        <time>2024-05-19T06:56:14Z</time>
      </trkpt>
      <trkpt lat="45.84877" lon="3.39269">
        <ele>398.4</ele>
        <time>2024-05-19T06:56:15Z</time>
      </trkpt>
      <trkpt lat="45.84871" lon="3.39268">
        <ele>398.4</ele>
        <time>2024-05-19T06:56:16Z</time>
      </trkpt>
      <trkpt lat="45.84864" lon="3.39268">
        <ele>398.6</ele>
        <time>2024-05-19T06:56:17Z</time>
      </trkpt>
      <trkpt lat="45.84857" lon="3.39267">
        <ele>398.6</ele>
        <time>2024-05-19T06:56:18Z</time>
      </trkpt>
      <trkpt lat="45.84851" lon="3.39265">
        <ele>398.6</ele>
        <time>2024-05-19T06:56:19Z</time>
      </trkpt>
      <trkpt lat="45.84844" lon="3.39264">
        <ele>398.6</ele>
        <time>2024-05-19T06:56:20Z</time>
      </trkpt>
      <trkpt lat="45.84838" lon="3.39263">
        <ele>398.6</ele>
        <time>2024-05-19T06:56:21Z</time>
      </trkpt>
      <trkpt lat="45.84831" lon="3.39262">
        <ele>398.6</ele>
        <time>2024-05-19T06:56:22Z</time>
      </trkpt>
      <trkpt lat="45.84824" lon="3.39261">
        <ele>398.6</ele>
        <time>2024-05-19T06:56:23Z</time>
      </trkpt>
      <trkpt lat="45.84817" lon="3.39259">
        <ele>398.6</ele>
        <time>2024-05-19T06:56:24Z</time>
      </trkpt>
      <trkpt lat="45.84811" lon="3.39255">
        <ele>398.6</ele>
        <time>2024-05-19T06:56:25Z</time>
      </trkpt>
      <trkpt lat="45.84806" lon="3.39249">
        <ele>398.6</ele>
        <time>2024-05-19T06:56:26Z</time>
      </trkpt>
      <trkpt lat="45.84798" lon="3.39246">
        <ele>398.6</ele>
        <time>2024-05-19T06:56:27Z</time>
      </trkpt>
      <trkpt lat="45.84791" lon="3.39248">
        <ele>398.6</ele>
        <time>2024-05-19T06:56:28Z</time>
      </trkpt>
      <trkpt lat="45.84784" lon="3.39255">
        <ele>398.6</ele>
        <time>2024-05-19T06:56:29Z</time>
      </trkpt>
      <trkpt lat="45.84778" lon="3.39259">
        <ele>398.6</ele>
        <time>2024-05-19T06:56:30Z</time>
      </trkpt>
      <trkpt lat="45.84771" lon="3.39263">
        <ele>398.6</ele>
        <time>2024-05-19T06:56:31Z</time>
      </trkpt>
      <trkpt lat="45.84763" lon="3.39264">
        <ele>398.6</ele>
        <time>2024-05-19T06:56:32Z</time>
      </trkpt>
      <trkpt lat="45.84756" lon="3.39266">
        <ele>398.6</ele>
        <time>2024-05-19T06:56:33Z</time>
      </trkpt>
      <trkpt lat="45.84749" lon="3.39267">
        <ele>398.6</ele>
        <time>2024-05-19T06:56:34Z</time>
      </trkpt>
      <trkpt lat="45.84741" lon="3.39268">
        <ele>398.6</ele>
        <time>2024-05-19T06:56:35Z</time>
      </trkpt>
      <trkpt lat="45.84734" lon="3.39269">
        <ele>398.6</ele>
        <time>2024-05-19T06:56:36Z</time>
      </trkpt>
      <trkpt lat="45.84726" lon="3.39269">
        <ele>398.6</ele>
        <time>2024-05-19T06:56:37Z</time>
      </trkpt>
      <trkpt lat="45.84719" lon="3.39269">
        <ele>398.8</ele>
        <time>2024-05-19T06:56:38Z</time>
      </trkpt>
      <trkpt lat="45.84711" lon="3.39269">
        <ele>398.6</ele>
        <time>2024-05-19T06:56:39Z</time>
      </trkpt>
      <trkpt lat="45.84703" lon="3.39269">
        <ele>398.4</ele>
        <time>2024-05-19T06:56:40Z</time>
      </trkpt>
      <trkpt lat="45.84696" lon="3.39269">
        <ele>398.4</ele>
        <time>2024-05-19T06:56:41Z</time>
      </trkpt>
      <trkpt lat="45.84688" lon="3.39269">
        <ele>398.4</ele>
        <time>2024-05-19T06:56:42Z</time>
      </trkpt>
      <trkpt lat="45.8468" lon="3.39269">
        <ele>398.2</ele>
        <time>2024-05-19T06:56:43Z</time>
      </trkpt>
      <trkpt lat="45.84672" lon="3.39269">
        <ele>398.2</ele>
        <time>2024-05-19T06:56:44Z</time>
      </trkpt>
      <trkpt lat="45.84665" lon="3.39269">
        <ele>398.4</ele>
        <time>2024-05-19T06:56:45Z</time>
      </trkpt>
      <trkpt lat="45.84657" lon="3.39269">
        <ele>398.4</ele>
        <time>2024-05-19T06:56:46Z</time>
      </trkpt>
      <trkpt lat="45.84649" lon="3.39269">
        <ele>398.4</ele>
        <time>2024-05-19T06:56:47Z</time>
      </trkpt>
      <trkpt lat="45.84642" lon="3.39269">
        <ele>398.2</ele>
        <time>2024-05-19T06:56:48Z</time>
      </trkpt>
      <trkpt lat="45.84635" lon="3.39269">
        <ele>398.2</ele>
        <time>2024-05-19T06:56:49Z</time>
      </trkpt>
      <trkpt lat="45.84627" lon="3.39269">
        <ele>398.2</ele>
        <time>2024-05-19T06:56:50Z</time>
      </trkpt>
      <trkpt lat="45.8462" lon="3.39269">
        <ele>398.2</ele>
        <time>2024-05-19T06:56:51Z</time>
      </trkpt>
      <trkpt lat="45.84613" lon="3.39269">
        <ele>398.2</ele>
        <time>2024-05-19T06:56:52Z</time>
      </trkpt>
      <trkpt lat="45.84606" lon="3.39269">
        <ele>398.2</ele>
        <time>2024-05-19T06:56:53Z</time>
      </trkpt>
      <trkpt lat="45.84598" lon="3.39269">
        <ele>398.2</ele>
        <time>2024-05-19T06:56:54Z</time>
      </trkpt>
      <trkpt lat="45.84591" lon="3.39269">
        <ele>398.2</ele>
        <time>2024-05-19T06:56:55Z</time>
      </trkpt>
      <trkpt lat="45.84583" lon="3.39269">
        <ele>398.2</ele>
        <time>2024-05-19T06:56:56Z</time>
      </trkpt>
      <trkpt lat="45.84576" lon="3.39269">
        <ele>398.2</ele>
        <time>2024-05-19T06:56:57Z</time>
      </trkpt>
      <trkpt lat="45.84568" lon="3.39269">
        <ele>398.2</ele>
        <time>2024-05-19T06:56:58Z</time>
      </trkpt>
      <trkpt lat="45.84561" lon="3.39269">
        <ele>398</ele>
        <time>2024-05-19T06:56:59Z</time>
      </trkpt>
      <trkpt lat="45.84553" lon="3.39269">
        <ele>398</ele>
        <time>2024-05-19T06:57:00Z</time>
      </trkpt>
      <trkpt lat="45.84546" lon="3.39269">
        <ele>398</ele>
        <time>2024-05-19T06:57:01Z</time>
      </trkpt>
      <trkpt lat="45.84539" lon="3.39269">
        <ele>397.8</ele>
        <time>2024-05-19T06:57:02Z</time>
      </trkpt>
      <trkpt lat="45.84531" lon="3.39269">
        <ele>398</ele>
        <time>2024-05-19T06:57:03Z</time>
      </trkpt>
      <trkpt lat="45.84524" lon="3.39269">
        <ele>398</ele>
        <time>2024-05-19T06:57:04Z</time>
      </trkpt>
      <trkpt lat="45.84516" lon="3.39269">
        <ele>398</ele>
        <time>2024-05-19T06:57:05Z</time>
      </trkpt>
      <trkpt lat="45.84509" lon="3.39269">
        <ele>398</ele>
        <time>2024-05-19T06:57:06Z</time>
      </trkpt>
      <trkpt lat="45.84502" lon="3.39269">
        <ele>397.8</ele>
        <time>2024-05-19T06:57:07Z</time>
      </trkpt>
      <trkpt lat="45.84495" lon="3.39269">
        <ele>398</ele>
        <time>2024-05-19T06:57:08Z</time>
      </trkpt>
      <trkpt lat="45.84488" lon="3.39269">
        <ele>398</ele>
        <time>2024-05-19T06:57:09Z</time>
      </trkpt>
      <trkpt lat="45.84481" lon="3.39269">
        <ele>398</ele>
        <time>2024-05-19T06:57:10Z</time>
      </trkpt>
      <trkpt lat="45.84474" lon="3.39269">
        <ele>398</ele>
        <time>2024-05-19T06:57:11Z</time>
      </trkpt>
      <trkpt lat="45.84467" lon="3.39269">
        <ele>397.8</ele>
        <time>2024-05-19T06:57:12Z</time>
      </trkpt>
      <trkpt lat="45.84459" lon="3.39269">
        <ele>397.8</ele>
        <time>2024-05-19T06:57:13Z</time>
      </trkpt>
      <trkpt lat="45.84453" lon="3.39269">
        <ele>398</ele>
        <time>2024-05-19T06:57:14Z</time>
      </trkpt>
      <trkpt lat="45.84445" lon="3.39269">
        <ele>398</ele>
        <time>2024-05-19T06:57:15Z</time>
      </trkpt>
      <trkpt lat="45.84438" lon="3.39269">
        <ele>398</ele>
        <time>2024-05-19T06:57:16Z</time>
      </trkpt>
      <trkpt lat="45.84431" lon="3.39269">
        <ele>397.8</ele>
        <time>2024-05-19T06:57:17Z</time>
      </trkpt>
      <trkpt lat="45.84424" lon="3.39269">
        <ele>397.8</ele>
        <time>2024-05-19T06:57:18Z</time>
      </trkpt>
      <trkpt lat="45.84417" lon="3.39269">
        <ele>397.8</ele>
        <time>2024-05-19T06:57:19Z</time>
      </trkpt>
      <trkpt lat="45.84409" lon="3.39269">
        <ele>397.8</ele>
        <time>2024-05-19T06:57:20Z</time>
      </trkpt>
      <trkpt lat="45.84402" lon="3.39269">
        <ele>397.8</ele>
        <time>2024-05-19T06:57:21Z</time>
      </trkpt>
      <trkpt lat="45.84395" lon="3.39269">
        <ele>397.8</ele>
        <time>2024-05-19T06:57:22Z</time>
      </trkpt>
      <trkpt lat="45.84387" lon="3.39269">
        <ele>397.6</ele>
        <time>2024-05-19T06:57:23Z</time>
      </trkpt>
      <trkpt lat="45.8438" lon="3.39269">
        <ele>397.6</ele>
        <time>2024-05-19T06:57:24Z</time>
      </trkpt>
      <trkpt lat="45.84372" lon="3.39269">
        <ele>397.4</ele>
        <time>2024-05-19T06:57:25Z</time>
      </trkpt>
      <trkpt lat="45.84365" lon="3.39269">
        <ele>397.4</ele>
        <time>2024-05-19T06:57:26Z</time>
      </trkpt>
      <trkpt lat="45.84358" lon="3.39266">
        <ele>397.2</ele>
        <time>2024-05-19T06:57:27Z</time>
      </trkpt>
      <trkpt lat="45.8435" lon="3.39264">
        <ele>397.2</ele>
        <time>2024-05-19T06:57:28Z</time>
      </trkpt>
      <trkpt lat="45.84343" lon="3.39259">
        <ele>397</ele>
        <time>2024-05-19T06:57:29Z</time>
      </trkpt>
      <trkpt lat="45.84337" lon="3.39254">
        <ele>397</ele>
        <time>2024-05-19T06:57:30Z</time>
      </trkpt>
      <trkpt lat="45.8433" lon="3.39248">
        <ele>396.8</ele>
        <time>2024-05-19T06:57:31Z</time>
      </trkpt>
      <trkpt lat="45.84323" lon="3.39243">
        <ele>396.8</ele>
        <time>2024-05-19T06:57:32Z</time>
      </trkpt>
      <trkpt lat="45.84316" lon="3.39237">
        <ele>396.8</ele>
        <time>2024-05-19T06:57:33Z</time>
      </trkpt>
      <trkpt lat="45.84309" lon="3.39231">
        <ele>396.6</ele>
        <time>2024-05-19T06:57:34Z</time>
      </trkpt>
      <trkpt lat="45.84302" lon="3.39226">
        <ele>396.4</ele>
        <time>2024-05-19T06:57:35Z</time>
      </trkpt>
      <trkpt lat="45.84295" lon="3.3922">
        <ele>396.2</ele>
        <time>2024-05-19T06:57:36Z</time>
      </trkpt>
      <trkpt lat="45.84287" lon="3.39214">
        <ele>396</ele>
        <time>2024-05-19T06:57:37Z</time>
      </trkpt>
      <trkpt lat="45.84279" lon="3.39207">
        <ele>396</ele>
        <time>2024-05-19T06:57:38Z</time>
      </trkpt>
      <trkpt lat="45.84272" lon="3.39201">
        <ele>395.8</ele>
        <time>2024-05-19T06:57:39Z</time>
      </trkpt>
      <trkpt lat="45.84264" lon="3.39195">
        <ele>395.6</ele>
        <time>2024-05-19T06:57:40Z</time>
      </trkpt>
      <trkpt lat="45.84256" lon="3.39189">
        <ele>395.6</ele>
        <time>2024-05-19T06:57:41Z</time>
      </trkpt>
      <trkpt lat="45.84249" lon="3.39183">
        <ele>395.4</ele>
        <time>2024-05-19T06:57:42Z</time>
      </trkpt>
      <trkpt lat="45.84241" lon="3.39177">
        <ele>395.4</ele>
        <time>2024-05-19T06:57:43Z</time>
      </trkpt>
      <trkpt lat="45.84234" lon="3.3917">
        <ele>395.2</ele>
        <time>2024-05-19T06:57:44Z</time>
      </trkpt>
      <trkpt lat="45.84226" lon="3.39164">
        <ele>395.2</ele>
        <time>2024-05-19T06:57:45Z</time>
      </trkpt>
      <trkpt lat="45.84218" lon="3.39158">
        <ele>395</ele>
        <time>2024-05-19T06:57:46Z</time>
      </trkpt>
      <trkpt lat="45.8421" lon="3.39151">
        <ele>394.8</ele>
        <time>2024-05-19T06:57:47Z</time>
      </trkpt>
      <trkpt lat="45.84202" lon="3.39145">
        <ele>394.8</ele>
        <time>2024-05-19T06:57:48Z</time>
      </trkpt>
      <trkpt lat="45.84195" lon="3.39139">
        <ele>394.6</ele>
        <time>2024-05-19T06:57:49Z</time>
      </trkpt>
      <trkpt lat="45.84188" lon="3.39133">
        <ele>394.4</ele>
        <time>2024-05-19T06:57:50Z</time>
      </trkpt>
      <trkpt lat="45.8418" lon="3.39127">
        <ele>394.4</ele>
        <time>2024-05-19T06:57:51Z</time>
      </trkpt>
      <trkpt lat="45.84172" lon="3.39121">
        <ele>394.2</ele>
        <time>2024-05-19T06:57:52Z</time>
      </trkpt>
      <trkpt lat="45.84164" lon="3.39115">
        <ele>394.2</ele>
        <time>2024-05-19T06:57:53Z</time>
      </trkpt>
      <trkpt lat="45.84157" lon="3.39108">
        <ele>394</ele>
        <time>2024-05-19T06:57:54Z</time>
      </trkpt>
      <trkpt lat="45.84149" lon="3.39102">
        <ele>393.8</ele>
        <time>2024-05-19T06:57:55Z</time>
      </trkpt>
      <trkpt lat="45.84141" lon="3.39096">
        <ele>393.8</ele>
        <time>2024-05-19T06:57:56Z</time>
      </trkpt>
      <trkpt lat="45.84134" lon="3.3909">
        <ele>393.6</ele>
        <time>2024-05-19T06:57:57Z</time>
      </trkpt>
      <trkpt lat="45.84127" lon="3.39084">
        <ele>393.6</ele>
        <time>2024-05-19T06:57:58Z</time>
      </trkpt>
      <trkpt lat="45.84119" lon="3.39078">
        <ele>393.4</ele>
        <time>2024-05-19T06:57:59Z</time>
      </trkpt>
      <trkpt lat="45.84112" lon="3.39072">
        <ele>393.4</ele>
        <time>2024-05-19T06:58:00Z</time>
      </trkpt>
      <trkpt lat="45.84104" lon="3.39066">
        <ele>393.4</ele>
        <time>2024-05-19T06:58:01Z</time>
      </trkpt>
      <trkpt lat="45.84097" lon="3.3906">
        <ele>393.2</ele>
        <time>2024-05-19T06:58:02Z</time>
      </trkpt>
      <trkpt lat="45.8409" lon="3.39054">
        <ele>393.2</ele>
        <time>2024-05-19T06:58:03Z</time>
      </trkpt>
      <trkpt lat="45.84082" lon="3.39048">
        <ele>393.2</ele>
        <time>2024-05-19T06:58:04Z</time>
      </trkpt>
      <trkpt lat="45.84075" lon="3.39042">
        <ele>393</ele>
        <time>2024-05-19T06:58:05Z</time>
      </trkpt>
      <trkpt lat="45.84068" lon="3.39037">
        <ele>393</ele>
        <time>2024-05-19T06:58:06Z</time>
      </trkpt>
      <trkpt lat="45.84061" lon="3.39031">
        <ele>393</ele>
        <time>2024-05-19T06:58:07Z</time>
      </trkpt>
      <trkpt lat="45.84053" lon="3.39025">
        <ele>392.8</ele>
        <time>2024-05-19T06:58:08Z</time>
      </trkpt>
      <trkpt lat="45.84047" lon="3.39019">
        <ele>392.8</ele>
        <time>2024-05-19T06:58:09Z</time>
      </trkpt>
      <trkpt lat="45.8404" lon="3.39014">
        <ele>392.6</ele>
        <time>2024-05-19T06:58:10Z</time>
      </trkpt>
      <trkpt lat="45.84033" lon="3.39008">
        <ele>392.4</ele>
        <time>2024-05-19T06:58:11Z</time>
      </trkpt>
      <trkpt lat="45.84025" lon="3.39002">
        <ele>392.4</ele>
        <time>2024-05-19T06:58:12Z</time>
      </trkpt>
      <trkpt lat="45.84018" lon="3.38996">
        <ele>392.2</ele>
        <time>2024-05-19T06:58:13Z</time>
      </trkpt>
      <trkpt lat="45.84011" lon="3.38991">
        <ele>392</ele>
        <time>2024-05-19T06:58:14Z</time>
      </trkpt>
      <trkpt lat="45.84004" lon="3.38985">
        <ele>392</ele>
        <time>2024-05-19T06:58:15Z</time>
      </trkpt>
      <trkpt lat="45.83996" lon="3.38979">
        <ele>391.8</ele>
        <time>2024-05-19T06:58:16Z</time>
      </trkpt>
      <trkpt lat="45.83989" lon="3.38973">
        <ele>391.6</ele>
        <time>2024-05-19T06:58:17Z</time>
      </trkpt>
      <trkpt lat="45.83982" lon="3.38967">
        <ele>391.4</ele>
        <time>2024-05-19T06:58:18Z</time>
      </trkpt>
      <trkpt lat="45.83975" lon="3.38961">
        <ele>391.4</ele>
        <time>2024-05-19T06:58:19Z</time>
      </trkpt>
      <trkpt lat="45.83968" lon="3.38955">
        <ele>391.2</ele>
        <time>2024-05-19T06:58:20Z</time>
      </trkpt>
      <trkpt lat="45.8396" lon="3.3895">
        <ele>391</ele>
        <time>2024-05-19T06:58:21Z</time>
      </trkpt>
      <trkpt lat="45.83953" lon="3.38944">
        <ele>391</ele>
        <time>2024-05-19T06:58:22Z</time>
      </trkpt>
      <trkpt lat="45.83946" lon="3.38938">
        <ele>390.8</ele>
        <time>2024-05-19T06:58:23Z</time>
      </trkpt>
      <trkpt lat="45.83939" lon="3.38932">
        <ele>390.6</ele>
        <time>2024-05-19T06:58:24Z</time>
      </trkpt>
      <trkpt lat="45.83931" lon="3.38926">
        <ele>390.6</ele>
        <time>2024-05-19T06:58:25Z</time>
      </trkpt>
      <trkpt lat="45.83924" lon="3.3892">
        <ele>390.4</ele>
        <time>2024-05-19T06:58:26Z</time>
      </trkpt>
      <trkpt lat="45.83917" lon="3.38914">
        <ele>390.4</ele>
        <time>2024-05-19T06:58:27Z</time>
      </trkpt>
      <trkpt lat="45.8391" lon="3.38909">
        <ele>390.2</ele>
        <time>2024-05-19T06:58:28Z</time>
      </trkpt>
      <trkpt lat="45.83903" lon="3.38903">
        <ele>390.2</ele>
        <time>2024-05-19T06:58:29Z</time>
      </trkpt>
      <trkpt lat="45.83895" lon="3.38897">
        <ele>390</ele>
        <time>2024-05-19T06:58:30Z</time>
      </trkpt>
      <trkpt lat="45.83888" lon="3.38891">
        <ele>389.8</ele>
        <time>2024-05-19T06:58:31Z</time>
      </trkpt>
      <trkpt lat="45.83881" lon="3.38885">
        <ele>389.8</ele>
        <time>2024-05-19T06:58:32Z</time>
      </trkpt>
      <trkpt lat="45.83873" lon="3.38879">
        <ele>389.6</ele>
        <time>2024-05-19T06:58:33Z</time>
      </trkpt>
      <trkpt lat="45.83866" lon="3.38874">
        <ele>389.4</ele>
        <time>2024-05-19T06:58:34Z</time>
      </trkpt>
      <trkpt lat="45.83859" lon="3.38868">
        <ele>389.2</ele>
        <time>2024-05-19T06:58:35Z</time>
      </trkpt>
      <trkpt lat="45.83852" lon="3.38862">
        <ele>389.2</ele>
        <time>2024-05-19T06:58:36Z</time>
      </trkpt>
      <trkpt lat="45.83844" lon="3.38856">
        <ele>389</ele>
        <time>2024-05-19T06:58:37Z</time>
      </trkpt>
      <trkpt lat="45.83837" lon="3.3885">
        <ele>388.8</ele>
        <time>2024-05-19T06:58:38Z</time>
      </trkpt>
      <trkpt lat="45.8383" lon="3.38844">
        <ele>388.6</ele>
        <time>2024-05-19T06:58:39Z</time>
      </trkpt>
      <trkpt lat="45.83823" lon="3.38838">
        <ele>388.4</ele>
        <time>2024-05-19T06:58:40Z</time>
      </trkpt>
      <trkpt lat="45.83815" lon="3.38832">
        <ele>388.4</ele>
        <time>2024-05-19T06:58:41Z</time>
      </trkpt>
      <trkpt lat="45.83808" lon="3.38826">
        <ele>388</ele>
        <time>2024-05-19T06:58:42Z</time>
      </trkpt>
      <trkpt lat="45.838" lon="3.3882">
        <ele>388</ele>
        <time>2024-05-19T06:58:43Z</time>
      </trkpt>
      <trkpt lat="45.83793" lon="3.38814">
        <ele>387.8</ele>
        <time>2024-05-19T06:58:44Z</time>
      </trkpt>
      <trkpt lat="45.83785" lon="3.38808">
        <ele>387.6</ele>
        <time>2024-05-19T06:58:45Z</time>
      </trkpt>
      <trkpt lat="45.83778" lon="3.38802">
        <ele>387.2</ele>
        <time>2024-05-19T06:58:46Z</time>
      </trkpt>
      <trkpt lat="45.8377" lon="3.38796">
        <ele>387</ele>
        <time>2024-05-19T06:58:47Z</time>
      </trkpt>
      <trkpt lat="45.83762" lon="3.3879">
        <ele>386.8</ele>
        <time>2024-05-19T06:58:48Z</time>
      </trkpt>
      <trkpt lat="45.83755" lon="3.38783">
        <ele>386.8</ele>
        <time>2024-05-19T06:58:49Z</time>
      </trkpt>
      <trkpt lat="45.83747" lon="3.38777">
        <ele>386.4</ele>
        <time>2024-05-19T06:58:50Z</time>
      </trkpt>
      <trkpt lat="45.83739" lon="3.38771">
        <ele>386.2</ele>
        <time>2024-05-19T06:58:51Z</time>
      </trkpt>
      <trkpt lat="45.83732" lon="3.38765">
        <ele>386.2</ele>
        <time>2024-05-19T06:58:52Z</time>
      </trkpt>
      <trkpt lat="45.83724" lon="3.38759">
        <ele>386</ele>
        <time>2024-05-19T06:58:53Z</time>
      </trkpt>
      <trkpt lat="45.83717" lon="3.38753">
        <ele>385.8</ele>
        <time>2024-05-19T06:58:54Z</time>
      </trkpt>
      <trkpt lat="45.83709" lon="3.38747">
        <ele>385.6</ele>
        <time>2024-05-19T06:58:55Z</time>
      </trkpt>
      <trkpt lat="45.83702" lon="3.38741">
        <ele>385.6</ele>
        <time>2024-05-19T06:58:56Z</time>
      </trkpt>
      <trkpt lat="45.83695" lon="3.38735">
        <ele>385.4</ele>
        <time>2024-05-19T06:58:57Z</time>
      </trkpt>
      <trkpt lat="45.83688" lon="3.3873">
        <ele>385.2</ele>
        <time>2024-05-19T06:58:58Z</time>
      </trkpt>
      <trkpt lat="45.83682" lon="3.38724">
        <ele>385.2</ele>
        <time>2024-05-19T06:58:59Z</time>
      </trkpt>
      <trkpt lat="45.83675" lon="3.38719">
        <ele>385</ele>
        <time>2024-05-19T06:59:00Z</time>
      </trkpt>
      <trkpt lat="45.83669" lon="3.38714">
        <ele>384.8</ele>
        <time>2024-05-19T06:59:01Z</time>
      </trkpt>
      <trkpt lat="45.83662" lon="3.38708">
        <ele>384.8</ele>
        <time>2024-05-19T06:59:02Z</time>
      </trkpt>
      <trkpt lat="45.83655" lon="3.38703">
        <ele>384.6</ele>
        <time>2024-05-19T06:59:03Z</time>
      </trkpt>
      <trkpt lat="45.83649" lon="3.38697">
        <ele>384.4</ele>
        <time>2024-05-19T06:59:04Z</time>
      </trkpt>
      <trkpt lat="45.83642" lon="3.38692">
        <ele>384.4</ele>
        <time>2024-05-19T06:59:05Z</time>
      </trkpt>
      <trkpt lat="45.83635" lon="3.38687">
        <ele>384.2</ele>
        <time>2024-05-19T06:59:06Z</time>
      </trkpt>
      <trkpt lat="45.83629" lon="3.38682">
        <ele>384.2</ele>
        <time>2024-05-19T06:59:07Z</time>
      </trkpt>
      <trkpt lat="45.83622" lon="3.38676">
        <ele>384</ele>
        <time>2024-05-19T06:59:08Z</time>
      </trkpt>
      <trkpt lat="45.83616" lon="3.38671">
        <ele>383.8</ele>
        <time>2024-05-19T06:59:09Z</time>
      </trkpt>
      <trkpt lat="45.8361" lon="3.38666">
        <ele>383.8</ele>
        <time>2024-05-19T06:59:10Z</time>
      </trkpt>
      <trkpt lat="45.83603" lon="3.38661">
        <ele>383.8</ele>
        <time>2024-05-19T06:59:11Z</time>
      </trkpt>
      <trkpt lat="45.83597" lon="3.38656">
        <ele>383.6</ele>
        <time>2024-05-19T06:59:12Z</time>
      </trkpt>
      <trkpt lat="45.83591" lon="3.38651">
        <ele>383.6</ele>
        <time>2024-05-19T06:59:13Z</time>
      </trkpt>
      <trkpt lat="45.83585" lon="3.38646">
        <ele>383.4</ele>
        <time>2024-05-19T06:59:14Z</time>
      </trkpt>
      <trkpt lat="45.83578" lon="3.38641">
        <ele>383.2</ele>
        <time>2024-05-19T06:59:15Z</time>
      </trkpt>
      <trkpt lat="45.83572" lon="3.38635">
        <ele>383.2</ele>
        <time>2024-05-19T06:59:16Z</time>
      </trkpt>
      <trkpt lat="45.83566" lon="3.3863">
        <ele>383</ele>
        <time>2024-05-19T06:59:17Z</time>
      </trkpt>
      <trkpt lat="45.83559" lon="3.38625">
        <ele>382.8</ele>
        <time>2024-05-19T06:59:18Z</time>
      </trkpt>
      <trkpt lat="45.83553" lon="3.3862">
        <ele>382.6</ele>
        <time>2024-05-19T06:59:19Z</time>
      </trkpt>
      <trkpt lat="45.83547" lon="3.38614">
        <ele>382.6</ele>
        <time>2024-05-19T06:59:20Z</time>
      </trkpt>
      <trkpt lat="45.8354" lon="3.38609">
        <ele>382.4</ele>
        <time>2024-05-19T06:59:21Z</time>
      </trkpt>
      <trkpt lat="45.83534" lon="3.38604">
        <ele>382.4</ele>
        <time>2024-05-19T06:59:22Z</time>
      </trkpt>
      <trkpt lat="45.83528" lon="3.38599">
        <ele>382.2</ele>
        <time>2024-05-19T06:59:23Z</time>
      </trkpt>
      <trkpt lat="45.83522" lon="3.38594">
        <ele>382.2</ele>
        <time>2024-05-19T06:59:24Z</time>
      </trkpt>
      <trkpt lat="45.83515" lon="3.38589">
        <ele>382</ele>
        <time>2024-05-19T06:59:25Z</time>
      </trkpt>
      <trkpt lat="45.83509" lon="3.38583">
        <ele>382</ele>
        <time>2024-05-19T06:59:26Z</time>
      </trkpt>
      <trkpt lat="45.83502" lon="3.38578">
        <ele>381.8</ele>
        <time>2024-05-19T06:59:27Z</time>
      </trkpt>
      <trkpt lat="45.83496" lon="3.38573">
        <ele>381.8</ele>
        <time>2024-05-19T06:59:28Z</time>
      </trkpt>
      <trkpt lat="45.83489" lon="3.38567">
        <ele>381.6</ele>
        <time>2024-05-19T06:59:29Z</time>
      </trkpt>
      <trkpt lat="45.83483" lon="3.38562">
        <ele>381.4</ele>
        <time>2024-05-19T06:59:30Z</time>
      </trkpt>
      <trkpt lat="45.83476" lon="3.38557">
        <ele>381.4</ele>
        <time>2024-05-19T06:59:31Z</time>
      </trkpt>
      <trkpt lat="45.83469" lon="3.38551">
        <ele>381.2</ele>
        <time>2024-05-19T06:59:32Z</time>
      </trkpt>
      <trkpt lat="45.83463" lon="3.38546">
        <ele>381</ele>
        <time>2024-05-19T06:59:33Z</time>
      </trkpt>
      <trkpt lat="45.83456" lon="3.3854">
        <ele>380.8</ele>
        <time>2024-05-19T06:59:34Z</time>
      </trkpt>
      <trkpt lat="45.8345" lon="3.38535">
        <ele>380.8</ele>
        <time>2024-05-19T06:59:35Z</time>
      </trkpt>
      <trkpt lat="45.83443" lon="3.3853">
        <ele>380.6</ele>
        <time>2024-05-19T06:59:36Z</time>
      </trkpt>
      <trkpt lat="45.83436" lon="3.38524">
        <ele>380.6</ele>
        <time>2024-05-19T06:59:37Z</time>
      </trkpt>
      <trkpt lat="45.8343" lon="3.38519">
        <ele>380.4</ele>
        <time>2024-05-19T06:59:38Z</time>
      </trkpt>
      <trkpt lat="45.83423" lon="3.38514">
        <ele>380.4</ele>
        <time>2024-05-19T06:59:39Z</time>
      </trkpt>
      <trkpt lat="45.83416" lon="3.38508">
        <ele>380.2</ele>
        <time>2024-05-19T06:59:40Z</time>
      </trkpt>
      <trkpt lat="45.83409" lon="3.38502">
        <ele>380.2</ele>
        <time>2024-05-19T06:59:41Z</time>
      </trkpt>
      <trkpt lat="45.83402" lon="3.38497">
        <ele>380</ele>
        <time>2024-05-19T06:59:42Z</time>
      </trkpt>
      <trkpt lat="45.83396" lon="3.38492">
        <ele>379.8</ele>
        <time>2024-05-19T06:59:43Z</time>
      </trkpt>
      <trkpt lat="45.83389" lon="3.38486">
        <ele>379.8</ele>
        <time>2024-05-19T06:59:44Z</time>
      </trkpt>
      <trkpt lat="45.83382" lon="3.38481">
        <ele>379.6</ele>
        <time>2024-05-19T06:59:45Z</time>
      </trkpt>
      <trkpt lat="45.83376" lon="3.38475">
        <ele>379.6</ele>
        <time>2024-05-19T06:59:46Z</time>
      </trkpt>
      <trkpt lat="45.83369" lon="3.3847">
        <ele>379.4</ele>
        <time>2024-05-19T06:59:47Z</time>
      </trkpt>
      <trkpt lat="45.83362" lon="3.38464">
        <ele>379.2</ele>
        <time>2024-05-19T06:59:48Z</time>
      </trkpt>
      <trkpt lat="45.83355" lon="3.38459">
        <ele>379.2</ele>
        <time>2024-05-19T06:59:49Z</time>
      </trkpt>
      <trkpt lat="45.83349" lon="3.38454">
        <ele>379</ele>
        <time>2024-05-19T06:59:50Z</time>
      </trkpt>
      <trkpt lat="45.83342" lon="3.38448">
        <ele>378.8</ele>
        <time>2024-05-19T06:59:51Z</time>
      </trkpt>
      <trkpt lat="45.83336" lon="3.38443">
        <ele>378.8</ele>
        <time>2024-05-19T06:59:52Z</time>
      </trkpt>
      <trkpt lat="45.83329" lon="3.38438">
        <ele>378.8</ele>
        <time>2024-05-19T06:59:53Z</time>
      </trkpt>
      <trkpt lat="45.83322" lon="3.38433">
        <ele>378.6</ele>
        <time>2024-05-19T06:59:54Z</time>
      </trkpt>
      <trkpt lat="45.83316" lon="3.38428">
        <ele>378.4</ele>
        <time>2024-05-19T06:59:55Z</time>
      </trkpt>
      <trkpt lat="45.8331" lon="3.38423">
        <ele>378.4</ele>
        <time>2024-05-19T06:59:56Z</time>
      </trkpt>
      <trkpt lat="45.83303" lon="3.38417">
        <ele>378.2</ele>
        <time>2024-05-19T06:59:57Z</time>
      </trkpt>
      <trkpt lat="45.83297" lon="3.38412">
        <ele>378.2</ele>
        <time>2024-05-19T06:59:58Z</time>
      </trkpt>
      <trkpt lat="45.8329" lon="3.38407">
        <ele>378</ele>
        <time>2024-05-19T06:59:59Z</time>
      </trkpt>
      <trkpt lat="45.83283" lon="3.38402">
        <ele>377.8</ele>
        <time>2024-05-19T07:00:00Z</time>
      </trkpt>
      <trkpt lat="45.83277" lon="3.38396">
        <ele>377.8</ele>
        <time>2024-05-19T07:00:01Z</time>
      </trkpt>
      <trkpt lat="45.8327" lon="3.38391">
        <ele>377.8</ele>
        <time>2024-05-19T07:00:02Z</time>
      </trkpt>
      <trkpt lat="45.83263" lon="3.38386">
        <ele>377.6</ele>
        <time>2024-05-19T07:00:03Z</time>
      </trkpt>
      <trkpt lat="45.83257" lon="3.38381">
        <ele>377.4</ele>
        <time>2024-05-19T07:00:04Z</time>
      </trkpt>
      <trkpt lat="45.83251" lon="3.38375">
        <ele>377.2</ele>
        <time>2024-05-19T07:00:05Z</time>
      </trkpt>
      <trkpt lat="45.83244" lon="3.3837">
        <ele>377.2</ele>
        <time>2024-05-19T07:00:06Z</time>
      </trkpt>
      <trkpt lat="45.83238" lon="3.38365">
        <ele>377</ele>
        <time>2024-05-19T07:00:07Z</time>
      </trkpt>
      <trkpt lat="45.83232" lon="3.3836">
        <ele>377</ele>
        <time>2024-05-19T07:00:08Z</time>
      </trkpt>
      <trkpt lat="45.83225" lon="3.38355">
        <ele>376.8</ele>
        <time>2024-05-19T07:00:09Z</time>
      </trkpt>
      <trkpt lat="45.83219" lon="3.3835">
        <ele>376.6</ele>
        <time>2024-05-19T07:00:10Z</time>
      </trkpt>
      <trkpt lat="45.83213" lon="3.38345">
        <ele>376.6</ele>
        <time>2024-05-19T07:00:11Z</time>
      </trkpt>
      <trkpt lat="45.83206" lon="3.3834">
        <ele>376.4</ele>
        <time>2024-05-19T07:00:12Z</time>
      </trkpt>
      <trkpt lat="45.832" lon="3.38334">
        <ele>376.4</ele>
        <time>2024-05-19T07:00:13Z</time>
      </trkpt>
      <trkpt lat="45.83193" lon="3.38329">
        <ele>376.2</ele>
        <time>2024-05-19T07:00:14Z</time>
      </trkpt>
      <trkpt lat="45.83187" lon="3.38324">
        <ele>376.2</ele>
        <time>2024-05-19T07:00:15Z</time>
      </trkpt>
      <trkpt lat="45.83181" lon="3.3832">
        <ele>376</ele>
        <time>2024-05-19T07:00:16Z</time>
      </trkpt>
      <trkpt lat="45.83175" lon="3.38316">
        <ele>376</ele>
        <time>2024-05-19T07:00:17Z</time>
      </trkpt>
      <trkpt lat="45.83168" lon="3.38311">
        <ele>375.8</ele>
        <time>2024-05-19T07:00:18Z</time>
      </trkpt>
      <trkpt lat="45.83162" lon="3.38307">
        <ele>375.6</ele>
        <time>2024-05-19T07:00:19Z</time>
      </trkpt>
      <trkpt lat="45.83156" lon="3.38302">
        <ele>375.6</ele>
        <time>2024-05-19T07:00:20Z</time>
      </trkpt>
      <trkpt lat="45.83149" lon="3.38296">
        <ele>375.6</ele>
        <time>2024-05-19T07:00:21Z</time>
      </trkpt>
      <trkpt lat="45.83143" lon="3.38291">
        <ele>375.4</ele>
        <time>2024-05-19T07:00:22Z</time>
      </trkpt>
      <trkpt lat="45.83137" lon="3.38285">
        <ele>375.2</ele>
        <time>2024-05-19T07:00:23Z</time>
      </trkpt>
      <trkpt lat="45.8313" lon="3.38283">
        <ele>375.2</ele>
        <time>2024-05-19T07:00:24Z</time>
      </trkpt>
      <trkpt lat="45.83121" lon="3.38279">
        <ele>375</ele>
        <time>2024-05-19T07:00:25Z</time>
      </trkpt>
      <trkpt lat="45.83115" lon="3.38273">
        <ele>374.8</ele>
        <time>2024-05-19T07:00:26Z</time>
      </trkpt>
      <trkpt lat="45.83108" lon="3.38268">
        <ele>374.8</ele>
        <time>2024-05-19T07:00:27Z</time>
      </trkpt>
      <trkpt lat="45.83102" lon="3.38262">
        <ele>374.6</ele>
        <time>2024-05-19T07:00:28Z</time>
      </trkpt>
      <trkpt lat="45.83095" lon="3.38257">
        <ele>374.6</ele>
        <time>2024-05-19T07:00:29Z</time>
      </trkpt>
      <trkpt lat="45.83089" lon="3.38251">
        <ele>374.4</ele>
        <time>2024-05-19T07:00:30Z</time>
      </trkpt>
      <trkpt lat="45.83083" lon="3.38246">
        <ele>374.4</ele>
        <time>2024-05-19T07:00:31Z</time>
      </trkpt>
      <trkpt lat="45.83076" lon="3.3824">
        <ele>374.2</ele>
        <time>2024-05-19T07:00:32Z</time>
      </trkpt>
      <trkpt lat="45.8307" lon="3.38235">
        <ele>374.2</ele>
        <time>2024-05-19T07:00:33Z</time>
      </trkpt>
      <trkpt lat="45.83064" lon="3.3823">
        <ele>374</ele>
        <time>2024-05-19T07:00:34Z</time>
      </trkpt>
      <trkpt lat="45.83057" lon="3.38224">
        <ele>373.8</ele>
        <time>2024-05-19T07:00:35Z</time>
      </trkpt>
      <trkpt lat="45.83051" lon="3.38218">
        <ele>373.8</ele>
        <time>2024-05-19T07:00:36Z</time>
      </trkpt>
      <trkpt lat="45.83044" lon="3.38213">
        <ele>373.6</ele>
        <time>2024-05-19T07:00:37Z</time>
      </trkpt>
      <trkpt lat="45.83038" lon="3.38207">
        <ele>373.4</ele>
        <time>2024-05-19T07:00:38Z</time>
      </trkpt>
      <trkpt lat="45.83031" lon="3.38202">
        <ele>373.4</ele>
        <time>2024-05-19T07:00:39Z</time>
      </trkpt>
      <trkpt lat="45.83025" lon="3.38197">
        <ele>373.2</ele>
        <time>2024-05-19T07:00:40Z</time>
      </trkpt>
      <trkpt lat="45.83019" lon="3.38192">
        <ele>373</ele>
        <time>2024-05-19T07:00:41Z</time>
      </trkpt>
      <trkpt lat="45.83013" lon="3.38187">
        <ele>372.8</ele>
        <time>2024-05-19T07:00:42Z</time>
      </trkpt>
      <trkpt lat="45.83007" lon="3.38182">
        <ele>372.8</ele>
        <time>2024-05-19T07:00:43Z</time>
      </trkpt>
      <trkpt lat="45.83" lon="3.38176">
        <ele>372.6</ele>
        <time>2024-05-19T07:00:44Z</time>
      </trkpt>
      <trkpt lat="45.82994" lon="3.38171">
        <ele>372.4</ele>
        <time>2024-05-19T07:00:45Z</time>
      </trkpt>
      <trkpt lat="45.82988" lon="3.38166">
        <ele>372.4</ele>
        <time>2024-05-19T07:00:46Z</time>
      </trkpt>
      <trkpt lat="45.82982" lon="3.38161">
        <ele>372.2</ele>
        <time>2024-05-19T07:00:47Z</time>
      </trkpt>
      <trkpt lat="45.82975" lon="3.38156">
        <ele>372</ele>
        <time>2024-05-19T07:00:48Z</time>
      </trkpt>
      <trkpt lat="45.82969" lon="3.3815">
        <ele>372</ele>
        <time>2024-05-19T07:00:49Z</time>
      </trkpt>
      <trkpt lat="45.82962" lon="3.38145">
        <ele>371.8</ele>
        <time>2024-05-19T07:00:50Z</time>
      </trkpt>
      <trkpt lat="45.82956" lon="3.38139">
        <ele>371.6</ele>
        <time>2024-05-19T07:00:51Z</time>
      </trkpt>
      <trkpt lat="45.82949" lon="3.38134">
        <ele>371.6</ele>
        <time>2024-05-19T07:00:52Z</time>
      </trkpt>
      <trkpt lat="45.82942" lon="3.38128">
        <ele>371.4</ele>
        <time>2024-05-19T07:00:53Z</time>
      </trkpt>
      <trkpt lat="45.82935" lon="3.38123">
        <ele>371.2</ele>
        <time>2024-05-19T07:00:54Z</time>
      </trkpt>
      <trkpt lat="45.82929" lon="3.38117">
        <ele>371</ele>
        <time>2024-05-19T07:00:55Z</time>
      </trkpt>
      <trkpt lat="45.82922" lon="3.38112">
        <ele>370.8</ele>
        <time>2024-05-19T07:00:56Z</time>
      </trkpt>
      <trkpt lat="45.82915" lon="3.38106">
        <ele>370.8</ele>
        <time>2024-05-19T07:00:57Z</time>
      </trkpt>
      <trkpt lat="45.82908" lon="3.381">
        <ele>370.6</ele>
        <time>2024-05-19T07:00:58Z</time>
      </trkpt>
      <trkpt lat="45.82901" lon="3.38095">
        <ele>370.4</ele>
        <time>2024-05-19T07:00:59Z</time>
      </trkpt>
      <trkpt lat="45.82894" lon="3.38089">
        <ele>370.2</ele>
        <time>2024-05-19T07:01:00Z</time>
      </trkpt>
      <trkpt lat="45.82887" lon="3.38083">
        <ele>370</ele>
        <time>2024-05-19T07:01:01Z</time>
      </trkpt>
      <trkpt lat="45.8288" lon="3.38077">
        <ele>370</ele>
        <time>2024-05-19T07:01:02Z</time>
      </trkpt>
      <trkpt lat="45.82874" lon="3.38071">
        <ele>369.8</ele>
        <time>2024-05-19T07:01:03Z</time>
      </trkpt>
      <trkpt lat="45.82867" lon="3.38066">
        <ele>369.6</ele>
        <time>2024-05-19T07:01:04Z</time>
      </trkpt>
      <trkpt lat="45.82861" lon="3.3806">
        <ele>369.4</ele>
        <time>2024-05-19T07:01:05Z</time>
      </trkpt>
      <trkpt lat="45.82855" lon="3.38055">
        <ele>369.2</ele>
        <time>2024-05-19T07:01:06Z</time>
      </trkpt>
      <trkpt lat="45.82849" lon="3.38051">
        <ele>369</ele>
        <time>2024-05-19T07:01:07Z</time>
      </trkpt>
      <trkpt lat="45.82843" lon="3.38046">
        <ele>368.8</ele>
        <time>2024-05-19T07:01:08Z</time>
      </trkpt>
      <trkpt lat="45.82837" lon="3.38042">
        <ele>368.6</ele>
        <time>2024-05-19T07:01:09Z</time>
      </trkpt>
      <trkpt lat="45.82832" lon="3.38038">
        <ele>368.4</ele>
        <time>2024-05-19T07:01:10Z</time>
      </trkpt>
      <trkpt lat="45.82827" lon="3.38034">
        <ele>368.2</ele>
        <time>2024-05-19T07:01:11Z</time>
      </trkpt>
      <trkpt lat="45.8282" lon="3.38022">
        <ele>368</ele>
        <time>2024-05-19T07:01:12Z</time>
      </trkpt>
      <trkpt lat="45.8282" lon="3.38013">
        <ele>367.8</ele>
        <time>2024-05-19T07:01:13Z</time>
      </trkpt>
      <trkpt lat="45.8282" lon="3.38002">
        <ele>367.8</ele>
        <time>2024-05-19T07:01:14Z</time>
      </trkpt>
      <trkpt lat="45.8282" lon="3.37992">
        <ele>367.6</ele>
        <time>2024-05-19T07:01:15Z</time>
      </trkpt>
      <trkpt lat="45.8282" lon="3.37982">
        <ele>367.4</ele>
        <time>2024-05-19T07:01:16Z</time>
      </trkpt>
      <trkpt lat="45.8282" lon="3.37971">
        <ele>367.4</ele>
        <time>2024-05-19T07:01:17Z</time>
      </trkpt>
      <trkpt lat="45.8282" lon="3.37961">
        <ele>367.4</ele>
        <time>2024-05-19T07:01:18Z</time>
      </trkpt>
      <trkpt lat="45.8282" lon="3.3795">
        <ele>367.2</ele>
        <time>2024-05-19T07:01:19Z</time>
      </trkpt>
      <trkpt lat="45.8282" lon="3.37938">
        <ele>367</ele>
        <time>2024-05-19T07:01:20Z</time>
      </trkpt>
      <trkpt lat="45.8282" lon="3.37926">
        <ele>367</ele>
        <time>2024-05-19T07:01:21Z</time>
      </trkpt>
      <trkpt lat="45.8282" lon="3.37914">
        <ele>366.8</ele>
        <time>2024-05-19T07:01:22Z</time>
      </trkpt>
      <trkpt lat="45.8282" lon="3.37902">
        <ele>366.8</ele>
        <time>2024-05-19T07:01:23Z</time>
      </trkpt>
      <trkpt lat="45.82819" lon="3.37891">
        <ele>366.6</ele>
        <time>2024-05-19T07:01:24Z</time>
      </trkpt>
      <trkpt lat="45.82818" lon="3.37879">
        <ele>366.6</ele>
        <time>2024-05-19T07:01:25Z</time>
      </trkpt>
      <trkpt lat="45.82816" lon="3.37867">
        <ele>366.4</ele>
        <time>2024-05-19T07:01:26Z</time>
      </trkpt>
      <trkpt lat="45.82814" lon="3.37855">
        <ele>366.2</ele>
        <time>2024-05-19T07:01:27Z</time>
      </trkpt>
      <trkpt lat="45.82812" lon="3.37844">
        <ele>366</ele>
        <time>2024-05-19T07:01:28Z</time>
      </trkpt>
      <trkpt lat="45.8281" lon="3.37832">
        <ele>365.8</ele>
        <time>2024-05-19T07:01:29Z</time>
      </trkpt>
      <trkpt lat="45.82808" lon="3.3782">
        <ele>365.6</ele>
        <time>2024-05-19T07:01:30Z</time>
      </trkpt>
      <trkpt lat="45.82806" lon="3.37808">
        <ele>365.4</ele>
        <time>2024-05-19T07:01:31Z</time>
      </trkpt>
      <trkpt lat="45.82804" lon="3.37796">
        <ele>365.4</ele>
        <time>2024-05-19T07:01:32Z</time>
      </trkpt>
      <trkpt lat="45.82797" lon="3.37787">
        <ele>365.2</ele>
        <time>2024-05-19T07:01:33Z</time>
      </trkpt>
      <trkpt lat="45.82791" lon="3.37779">
        <ele>365</ele>
        <time>2024-05-19T07:01:34Z</time>
      </trkpt>
      <trkpt lat="45.82785" lon="3.37771">
        <ele>365</ele>
        <time>2024-05-19T07:01:35Z</time>
      </trkpt>
      <trkpt lat="45.82778" lon="3.37766">
        <ele>364.8</ele>
        <time>2024-05-19T07:01:36Z</time>
      </trkpt>
      <trkpt lat="45.82771" lon="3.3776">
        <ele>364.6</ele>
        <time>2024-05-19T07:01:37Z</time>
      </trkpt>
      <trkpt lat="45.82764" lon="3.37754">
        <ele>364.4</ele>
        <time>2024-05-19T07:01:38Z</time>
      </trkpt>
      <trkpt lat="45.82758" lon="3.37748">
        <ele>364.2</ele>
        <time>2024-05-19T07:01:39Z</time>
      </trkpt>
      <trkpt lat="45.82752" lon="3.37743">
        <ele>364</ele>
        <time>2024-05-19T07:01:40Z</time>
      </trkpt>
      <trkpt lat="45.82745" lon="3.37741">
        <ele>363.8</ele>
        <time>2024-05-19T07:01:41Z</time>
      </trkpt>
      <trkpt lat="45.82737" lon="3.37738">
        <ele>363.6</ele>
        <time>2024-05-19T07:01:42Z</time>
      </trkpt>
      <trkpt lat="45.8273" lon="3.37736">
        <ele>363.4</ele>
        <time>2024-05-19T07:01:43Z</time>
      </trkpt>
      <trkpt lat="45.82723" lon="3.37733">
        <ele>363.2</ele>
        <time>2024-05-19T07:01:44Z</time>
      </trkpt>
      <trkpt lat="45.82714" lon="3.3773">
        <ele>363</ele>
        <time>2024-05-19T07:01:45Z</time>
      </trkpt>
      <trkpt lat="45.82707" lon="3.37725">
        <ele>362.8</ele>
        <time>2024-05-19T07:01:46Z</time>
      </trkpt>
      <trkpt lat="45.82702" lon="3.3772">
        <ele>362.6</ele>
        <time>2024-05-19T07:01:47Z</time>
      </trkpt>
      <trkpt lat="45.82701" lon="3.37705">
        <ele>362.4</ele>
        <time>2024-05-19T07:01:48Z</time>
      </trkpt>
      <trkpt lat="45.827" lon="3.37694">
        <ele>362.2</ele>
        <time>2024-05-19T07:01:49Z</time>
      </trkpt>
      <trkpt lat="45.827" lon="3.37683">
        <ele>362</ele>
        <time>2024-05-19T07:01:50Z</time>
      </trkpt>
      <trkpt lat="45.827" lon="3.3767">
        <ele>361.8</ele>
        <time>2024-05-19T07:01:51Z</time>
      </trkpt>
      <trkpt lat="45.827" lon="3.37658">
        <ele>361.6</ele>
        <time>2024-05-19T07:01:52Z</time>
      </trkpt>
      <trkpt lat="45.82701" lon="3.37646">
        <ele>361.4</ele>
        <time>2024-05-19T07:01:53Z</time>
      </trkpt>
      <trkpt lat="45.82702" lon="3.37633">
        <ele>361.2</ele>
        <time>2024-05-19T07:01:54Z</time>
      </trkpt>
      <trkpt lat="45.82703" lon="3.3762">
        <ele>361</ele>
        <time>2024-05-19T07:01:55Z</time>
      </trkpt>
      <trkpt lat="45.82705" lon="3.37607">
        <ele>360.8</ele>
        <time>2024-05-19T07:01:56Z</time>
      </trkpt>
      <trkpt lat="45.82706" lon="3.37594">
        <ele>360.6</ele>
        <time>2024-05-19T07:01:57Z</time>
      </trkpt>
      <trkpt lat="45.82708" lon="3.37581">
        <ele>360.4</ele>
        <time>2024-05-19T07:01:58Z</time>
      </trkpt>
      <trkpt lat="45.82709" lon="3.37568">
        <ele>360.2</ele>
        <time>2024-05-19T07:01:59Z</time>
      </trkpt>
      <trkpt lat="45.82711" lon="3.37556">
        <ele>360</ele>
        <time>2024-05-19T07:02:00Z</time>
      </trkpt>
      <trkpt lat="45.82713" lon="3.37543">
        <ele>359.8</ele>
        <time>2024-05-19T07:02:01Z</time>
      </trkpt>
      <trkpt lat="45.82712" lon="3.3753">
        <ele>359.6</ele>
        <time>2024-05-19T07:02:02Z</time>
      </trkpt>
      <trkpt lat="45.82712" lon="3.37516">
        <ele>359.4</ele>
        <time>2024-05-19T07:02:03Z</time>
      </trkpt>
      <trkpt lat="45.82711" lon="3.37503">
        <ele>359.4</ele>
        <time>2024-05-19T07:02:04Z</time>
      </trkpt>
      <trkpt lat="45.8271" lon="3.3749">
        <ele>359.2</ele>
        <time>2024-05-19T07:02:05Z</time>
      </trkpt>
      <trkpt lat="45.8271" lon="3.37477">
        <ele>359</ele>
        <time>2024-05-19T07:02:06Z</time>
      </trkpt>
      <trkpt lat="45.82709" lon="3.37464">
        <ele>358.8</ele>
        <time>2024-05-19T07:02:07Z</time>
      </trkpt>
      <trkpt lat="45.82709" lon="3.37451">
        <ele>358.6</ele>
        <time>2024-05-19T07:02:08Z</time>
      </trkpt>
      <trkpt lat="45.82709" lon="3.37438">
        <ele>358.4</ele>
        <time>2024-05-19T07:02:09Z</time>
      </trkpt>
      <trkpt lat="45.82709" lon="3.37425">
        <ele>358.2</ele>
        <time>2024-05-19T07:02:10Z</time>
      </trkpt>
      <trkpt lat="45.82709" lon="3.37412">
        <ele>358.2</ele>
        <time>2024-05-19T07:02:11Z</time>
      </trkpt>
      <trkpt lat="45.82708" lon="3.37399">
        <ele>358</ele>
        <time>2024-05-19T07:02:12Z</time>
      </trkpt>
      <trkpt lat="45.82708" lon="3.37386">
        <ele>357.8</ele>
        <time>2024-05-19T07:02:13Z</time>
      </trkpt>
      <trkpt lat="45.82707" lon="3.37374">
        <ele>357.6</ele>
        <time>2024-05-19T07:02:14Z</time>
      </trkpt>
      <trkpt lat="45.82706" lon="3.37361">
        <ele>357.4</ele>
        <time>2024-05-19T07:02:15Z</time>
      </trkpt>
      <trkpt lat="45.82705" lon="3.37349">
        <ele>357.2</ele>
        <time>2024-05-19T07:02:16Z</time>
      </trkpt>
      <trkpt lat="45.82704" lon="3.37336">
        <ele>357</ele>
        <time>2024-05-19T07:02:17Z</time>
      </trkpt>
      <trkpt lat="45.82703" lon="3.37323">
        <ele>356.8</ele>
        <time>2024-05-19T07:02:18Z</time>
      </trkpt>
      <trkpt lat="45.82702" lon="3.37311">
        <ele>356.6</ele>
        <time>2024-05-19T07:02:19Z</time>
      </trkpt>
      <trkpt lat="45.82701" lon="3.37298">
        <ele>356.4</ele>
        <time>2024-05-19T07:02:20Z</time>
      </trkpt>
      <trkpt lat="45.827" lon="3.37286">
        <ele>356.4</ele>
        <time>2024-05-19T07:02:21Z</time>
      </trkpt>
      <trkpt lat="45.827" lon="3.37273">
        <ele>356.2</ele>
        <time>2024-05-19T07:02:22Z</time>
      </trkpt>
      <trkpt lat="45.82699" lon="3.3726">
        <ele>356</ele>
        <time>2024-05-19T07:02:23Z</time>
      </trkpt>
      <trkpt lat="45.82698" lon="3.37248">
        <ele>355.8</ele>
        <time>2024-05-19T07:02:24Z</time>
      </trkpt>
      <trkpt lat="45.82697" lon="3.37235">
        <ele>355.6</ele>
        <time>2024-05-19T07:02:25Z</time>
      </trkpt>
      <trkpt lat="45.82696" lon="3.37223">
        <ele>355.4</ele>
        <time>2024-05-19T07:02:26Z</time>
      </trkpt>
      <trkpt lat="45.82695" lon="3.37211">
        <ele>355.4</ele>
        <time>2024-05-19T07:02:27Z</time>
      </trkpt>
      <trkpt lat="45.82694" lon="3.37198">
        <ele>355.2</ele>
        <time>2024-05-19T07:02:28Z</time>
      </trkpt>
      <trkpt lat="45.82692" lon="3.37186">
        <ele>355</ele>
        <time>2024-05-19T07:02:29Z</time>
      </trkpt>
      <trkpt lat="45.82691" lon="3.37174">
        <ele>354.8</ele>
        <time>2024-05-19T07:02:30Z</time>
      </trkpt>
      <trkpt lat="45.8269" lon="3.37162">
        <ele>354.6</ele>
        <time>2024-05-19T07:02:31Z</time>
      </trkpt>
      <trkpt lat="45.82687" lon="3.3715">
        <ele>354.4</ele>
        <time>2024-05-19T07:02:32Z</time>
      </trkpt>
      <trkpt lat="45.82684" lon="3.37139">
        <ele>354.2</ele>
        <time>2024-05-19T07:02:33Z</time>
      </trkpt>
      <trkpt lat="45.82682" lon="3.37127">
        <ele>354</ele>
        <time>2024-05-19T07:02:34Z</time>
      </trkpt>
      <trkpt lat="45.82678" lon="3.37116">
        <ele>353.8</ele>
        <time>2024-05-19T07:02:35Z</time>
      </trkpt>
      <trkpt lat="45.82673" lon="3.37104">
        <ele>353.6</ele>
        <time>2024-05-19T07:02:36Z</time>
      </trkpt>
      <trkpt lat="45.82669" lon="3.37093">
        <ele>353.2</ele>
        <time>2024-05-19T07:02:37Z</time>
      </trkpt>
      <trkpt lat="45.82665" lon="3.37082">
        <ele>353</ele>
        <time>2024-05-19T07:02:38Z</time>
      </trkpt>
      <trkpt lat="45.8266" lon="3.3707">
        <ele>352.8</ele>
        <time>2024-05-19T07:02:39Z</time>
      </trkpt>
      <trkpt lat="45.82656" lon="3.37059">
        <ele>352.6</ele>
        <time>2024-05-19T07:02:40Z</time>
      </trkpt>
      <trkpt lat="45.82652" lon="3.37047">
        <ele>352.2</ele>
        <time>2024-05-19T07:02:41Z</time>
      </trkpt>
      <trkpt lat="45.82647" lon="3.37035">
        <ele>352</ele>
        <time>2024-05-19T07:02:42Z</time>
      </trkpt>
      <trkpt lat="45.82642" lon="3.37024">
        <ele>351.8</ele>
        <time>2024-05-19T07:02:43Z</time>
      </trkpt>
      <trkpt lat="45.82638" lon="3.37012">
        <ele>351.6</ele>
        <time>2024-05-19T07:02:44Z</time>
      </trkpt>
      <trkpt lat="45.82635" lon="3.36999">
        <ele>351.2</ele>
        <time>2024-05-19T07:02:45Z</time>
      </trkpt>
      <trkpt lat="45.82635" lon="3.36985">
        <ele>351</ele>
        <time>2024-05-19T07:02:46Z</time>
      </trkpt>
      <trkpt lat="45.82634" lon="3.36972">
        <ele>350.8</ele>
        <time>2024-05-19T07:02:47Z</time>
      </trkpt>
      <trkpt lat="45.82634" lon="3.36957">
        <ele>350.4</ele>
        <time>2024-05-19T07:02:48Z</time>
      </trkpt>
      <trkpt lat="45.82633" lon="3.36943">
        <ele>350.2</ele>
        <time>2024-05-19T07:02:49Z</time>
      </trkpt>
      <trkpt lat="45.82633" lon="3.36929">
        <ele>350.2</ele>
        <time>2024-05-19T07:02:50Z</time>
      </trkpt>
      <trkpt lat="45.82633" lon="3.36915">
        <ele>349.8</ele>
        <time>2024-05-19T07:02:51Z</time>
      </trkpt>
      <trkpt lat="45.82633" lon="3.369">
        <ele>349.6</ele>
        <time>2024-05-19T07:02:52Z</time>
      </trkpt>
      <trkpt lat="45.82633" lon="3.36887">
        <ele>349.4</ele>
        <time>2024-05-19T07:02:53Z</time>
      </trkpt>
      <trkpt lat="45.82633" lon="3.36873">
        <ele>349.2</ele>
        <time>2024-05-19T07:02:54Z</time>
      </trkpt>
      <trkpt lat="45.82633" lon="3.36859">
        <ele>349</ele>
        <time>2024-05-19T07:02:55Z</time>
      </trkpt>
      <trkpt lat="45.82633" lon="3.36847">
        <ele>348.8</ele>
        <time>2024-05-19T07:02:56Z</time>
      </trkpt>
      <trkpt lat="45.82633" lon="3.36834">
        <ele>348.6</ele>
        <time>2024-05-19T07:02:57Z</time>
      </trkpt>
      <trkpt lat="45.82632" lon="3.36821">
        <ele>348.4</ele>
        <time>2024-05-19T07:02:58Z</time>
      </trkpt>
      <trkpt lat="45.82632" lon="3.36809">
        <ele>348.2</ele>
        <time>2024-05-19T07:02:59Z</time>
      </trkpt>
      <trkpt lat="45.82632" lon="3.36796">
        <ele>348</ele>
        <time>2024-05-19T07:03:00Z</time>
      </trkpt>
      <trkpt lat="45.82631" lon="3.36784">
        <ele>347.8</ele>
        <time>2024-05-19T07:03:01Z</time>
      </trkpt>
      <trkpt lat="45.82631" lon="3.36772">
        <ele>347.6</ele>
        <time>2024-05-19T07:03:02Z</time>
      </trkpt>
      <trkpt lat="45.8263" lon="3.36759">
        <ele>347.4</ele>
        <time>2024-05-19T07:03:03Z</time>
      </trkpt>
      <trkpt lat="45.8263" lon="3.36747">
        <ele>347.2</ele>
        <time>2024-05-19T07:03:04Z</time>
      </trkpt>
      <trkpt lat="45.82629" lon="3.36735">
        <ele>347</ele>
        <time>2024-05-19T07:03:05Z</time>
      </trkpt>
      <trkpt lat="45.82629" lon="3.36722">
        <ele>346.8</ele>
        <time>2024-05-19T07:03:06Z</time>
      </trkpt>
      <trkpt lat="45.82628" lon="3.3671">
        <ele>346.6</ele>
        <time>2024-05-19T07:03:07Z</time>
      </trkpt>
      <trkpt lat="45.82628" lon="3.36698">
        <ele>346.4</ele>
        <time>2024-05-19T07:03:08Z</time>
      </trkpt>
      <trkpt lat="45.82627" lon="3.36685">
        <ele>346</ele>
        <time>2024-05-19T07:03:09Z</time>
      </trkpt>
      <trkpt lat="45.82627" lon="3.36673">
        <ele>346</ele>
        <time>2024-05-19T07:03:10Z</time>
      </trkpt>
      <trkpt lat="45.82626" lon="3.36661">
        <ele>345.8</ele>
        <time>2024-05-19T07:03:11Z</time>
      </trkpt>
      <trkpt lat="45.82626" lon="3.36648">
        <ele>345.6</ele>
        <time>2024-05-19T07:03:12Z</time>
      </trkpt>
      <trkpt lat="45.82625" lon="3.36636">
        <ele>345.4</ele>
        <time>2024-05-19T07:03:13Z</time>
      </trkpt>
      <trkpt lat="45.82625" lon="3.36623">
        <ele>345.2</ele>
        <time>2024-05-19T07:03:14Z</time>
      </trkpt>
      <trkpt lat="45.82627" lon="3.36611">
        <ele>345</ele>
        <time>2024-05-19T07:03:15Z</time>
      </trkpt>
      <trkpt lat="45.82628" lon="3.36599">
        <ele>344.8</ele>
        <time>2024-05-19T07:03:16Z</time>
      </trkpt>
      <trkpt lat="45.82629" lon="3.36586">
        <ele>344.6</ele>
        <time>2024-05-19T07:03:17Z</time>
      </trkpt>
      <trkpt lat="45.82631" lon="3.36574">
        <ele>344.4</ele>
        <time>2024-05-19T07:03:18Z</time>
      </trkpt>
      <trkpt lat="45.82632" lon="3.36561">
        <ele>344.2</ele>
        <time>2024-05-19T07:03:19Z</time>
      </trkpt>
      <trkpt lat="45.82633" lon="3.36549">
        <ele>344</ele>
        <time>2024-05-19T07:03:20Z</time>
      </trkpt>
      <trkpt lat="45.82634" lon="3.36537">
        <ele>343.8</ele>
        <time>2024-05-19T07:03:21Z</time>
      </trkpt>
      <trkpt lat="45.82636" lon="3.36525">
        <ele>343.6</ele>
        <time>2024-05-19T07:03:22Z</time>
      </trkpt>
      <trkpt lat="45.82637" lon="3.36513">
        <ele>343.6</ele>
        <time>2024-05-19T07:03:23Z</time>
      </trkpt>
      <trkpt lat="45.82638" lon="3.36501">
        <ele>343.4</ele>
        <time>2024-05-19T07:03:24Z</time>
      </trkpt>
      <trkpt lat="45.82639" lon="3.36489">
        <ele>343.2</ele>
        <time>2024-05-19T07:03:25Z</time>
      </trkpt>
      <trkpt lat="45.8264" lon="3.36477">
        <ele>343</ele>
        <time>2024-05-19T07:03:26Z</time>
      </trkpt>
      <trkpt lat="45.82639" lon="3.36465">
        <ele>342.8</ele>
        <time>2024-05-19T07:03:27Z</time>
      </trkpt>
      <trkpt lat="45.82639" lon="3.36453">
        <ele>342.6</ele>
        <time>2024-05-19T07:03:28Z</time>
      </trkpt>
      <trkpt lat="45.82639" lon="3.36442">
        <ele>342.6</ele>
        <time>2024-05-19T07:03:29Z</time>
      </trkpt>
      <trkpt lat="45.82638" lon="3.36431">
        <ele>342.4</ele>
        <time>2024-05-19T07:03:30Z</time>
      </trkpt>
      <trkpt lat="45.82638" lon="3.3642">
        <ele>342.2</ele>
        <time>2024-05-19T07:03:31Z</time>
      </trkpt>
      <trkpt lat="45.82638" lon="3.36409">
        <ele>342</ele>
        <time>2024-05-19T07:03:32Z</time>
      </trkpt>
      <trkpt lat="45.82638" lon="3.36396">
        <ele>341.8</ele>
        <time>2024-05-19T07:03:33Z</time>
      </trkpt>
      <trkpt lat="45.82638" lon="3.36383">
        <ele>341.6</ele>
        <time>2024-05-19T07:03:34Z</time>
      </trkpt>
      <trkpt lat="45.82638" lon="3.36371">
        <ele>341.4</ele>
        <time>2024-05-19T07:03:35Z</time>
      </trkpt>
      <trkpt lat="45.82638" lon="3.36358">
        <ele>341</ele>
        <time>2024-05-19T07:03:36Z</time>
      </trkpt>
      <trkpt lat="45.82638" lon="3.36345">
        <ele>340.8</ele>
        <time>2024-05-19T07:03:37Z</time>
      </trkpt>
      <trkpt lat="45.82638" lon="3.36333">
        <ele>340.6</ele>
        <time>2024-05-19T07:03:38Z</time>
      </trkpt>
      <trkpt lat="45.82638" lon="3.3632">
        <ele>340.4</ele>
        <time>2024-05-19T07:03:39Z</time>
      </trkpt>
      <trkpt lat="45.82638" lon="3.36308">
        <ele>340.2</ele>
        <time>2024-05-19T07:03:40Z</time>
      </trkpt>
      <trkpt lat="45.82638" lon="3.36308">
        <ele>340</ele>
        <time>2024-05-19T07:03:41Z</time>
      </trkpt>
      <trkpt lat="45.82638" lon="3.36284">
        <ele>339.8</ele>
        <time>2024-05-19T07:03:42Z</time>
      </trkpt>
      <trkpt lat="45.82638" lon="3.3626">
        <ele>339.6</ele>
        <time>2024-05-19T07:03:43Z</time>
      </trkpt>
      <trkpt lat="45.82638" lon="3.3626">
        <ele>339.4</ele>
        <time>2024-05-19T07:03:44Z</time>
      </trkpt>
      <trkpt lat="45.82638" lon="3.36247">
        <ele>339.2</ele>
        <time>2024-05-19T07:03:45Z</time>
      </trkpt>
      <trkpt lat="45.82638" lon="3.36236">
        <ele>339</ele>
        <time>2024-05-19T07:03:46Z</time>
      </trkpt>
      <trkpt lat="45.82638" lon="3.36224">
        <ele>339</ele>
        <time>2024-05-19T07:03:47Z</time>
      </trkpt>
      <trkpt lat="45.82638" lon="3.36212">
        <ele>338.8</ele>
        <time>2024-05-19T07:03:48Z</time>
      </trkpt>
      <trkpt lat="45.82638" lon="3.362">
        <ele>338.6</ele>
        <time>2024-05-19T07:03:49Z</time>
      </trkpt>
      <trkpt lat="45.82638" lon="3.36189">
        <ele>338.4</ele>
        <time>2024-05-19T07:03:50Z</time>
      </trkpt>
      <trkpt lat="45.82638" lon="3.36177">
        <ele>338.2</ele>
        <time>2024-05-19T07:03:51Z</time>
      </trkpt>
      <trkpt lat="45.82638" lon="3.36166">
        <ele>338</ele>
        <time>2024-05-19T07:03:52Z</time>
      </trkpt>
      <trkpt lat="45.82638" lon="3.36154">
        <ele>337.8</ele>
        <time>2024-05-19T07:03:53Z</time>
      </trkpt>
      <trkpt lat="45.82638" lon="3.36142">
        <ele>337.8</ele>
        <time>2024-05-19T07:03:54Z</time>
      </trkpt>
      <trkpt lat="45.82638" lon="3.36131">
        <ele>337.6</ele>
        <time>2024-05-19T07:03:55Z</time>
      </trkpt>
      <trkpt lat="45.82638" lon="3.36119">
        <ele>337.6</ele>
        <time>2024-05-19T07:03:56Z</time>
      </trkpt>
      <trkpt lat="45.82638" lon="3.36108">
        <ele>337.4</ele>
        <time>2024-05-19T07:03:57Z</time>
      </trkpt>
      <trkpt lat="45.82638" lon="3.36097">
        <ele>337.2</ele>
        <time>2024-05-19T07:03:58Z</time>
      </trkpt>
      <trkpt lat="45.82637" lon="3.36086">
        <ele>337.2</ele>
        <time>2024-05-19T07:03:59Z</time>
      </trkpt>
      <trkpt lat="45.82637" lon="3.36075">
        <ele>337</ele>
        <time>2024-05-19T07:04:00Z</time>
      </trkpt>
      <trkpt lat="45.82637" lon="3.36064">
        <ele>336.8</ele>
        <time>2024-05-19T07:04:01Z</time>
      </trkpt>
      <trkpt lat="45.82637" lon="3.36053">
        <ele>336.8</ele>
        <time>2024-05-19T07:04:02Z</time>
      </trkpt>
      <trkpt lat="45.82637" lon="3.36042">
        <ele>336.6</ele>
        <time>2024-05-19T07:04:03Z</time>
      </trkpt>
      <trkpt lat="45.82637" lon="3.36031">
        <ele>336.6</ele>
        <time>2024-05-19T07:04:04Z</time>
      </trkpt>
      <trkpt lat="45.82637" lon="3.3602">
        <ele>336.4</ele>
        <time>2024-05-19T07:04:05Z</time>
      </trkpt>
      <trkpt lat="45.82637" lon="3.36009">
        <ele>336.4</ele>
        <time>2024-05-19T07:04:06Z</time>
      </trkpt>
      <trkpt lat="45.82637" lon="3.35998">
        <ele>336.4</ele>
        <time>2024-05-19T07:04:07Z</time>
      </trkpt>
      <trkpt lat="45.82637" lon="3.35988">
        <ele>336.2</ele>
        <time>2024-05-19T07:04:08Z</time>
      </trkpt>
      <trkpt lat="45.82637" lon="3.35977">
        <ele>336</ele>
        <time>2024-05-19T07:04:09Z</time>
      </trkpt>
      <trkpt lat="45.82637" lon="3.35966">
        <ele>336</ele>
        <time>2024-05-19T07:04:10Z</time>
      </trkpt>
      <trkpt lat="45.82636" lon="3.35956">
        <ele>335.8</ele>
        <time>2024-05-19T07:04:11Z</time>
      </trkpt>
      <trkpt lat="45.82636" lon="3.35945">
        <ele>335.8</ele>
        <time>2024-05-19T07:04:12Z</time>
      </trkpt>
      <trkpt lat="45.82636" lon="3.35934">
        <ele>335.6</ele>
        <time>2024-05-19T07:04:13Z</time>
      </trkpt>
      <trkpt lat="45.82636" lon="3.35924">
        <ele>335.6</ele>
        <time>2024-05-19T07:04:14Z</time>
      </trkpt>
      <trkpt lat="45.82636" lon="3.35914">
        <ele>335.4</ele>
        <time>2024-05-19T07:04:15Z</time>
      </trkpt>
      <trkpt lat="45.82636" lon="3.35904">
        <ele>335.4</ele>
        <time>2024-05-19T07:04:16Z</time>
      </trkpt>
      <trkpt lat="45.82636" lon="3.35894">
        <ele>335.2</ele>
        <time>2024-05-19T07:04:17Z</time>
      </trkpt>
      <trkpt lat="45.82636" lon="3.35884">
        <ele>335.2</ele>
        <time>2024-05-19T07:04:18Z</time>
      </trkpt>
      <trkpt lat="45.82636" lon="3.35874">
        <ele>335.2</ele>
        <time>2024-05-19T07:04:19Z</time>
      </trkpt>
      <trkpt lat="45.82636" lon="3.35864">
        <ele>335</ele>
        <time>2024-05-19T07:04:20Z</time>
      </trkpt>
      <trkpt lat="45.82635" lon="3.35854">
        <ele>335</ele>
        <time>2024-05-19T07:04:21Z</time>
      </trkpt>
      <trkpt lat="45.82634" lon="3.35844">
        <ele>335</ele>
        <time>2024-05-19T07:04:22Z</time>
      </trkpt>
      <trkpt lat="45.82632" lon="3.35834">
        <ele>334.8</ele>
        <time>2024-05-19T07:04:23Z</time>
      </trkpt>
      <trkpt lat="45.82631" lon="3.35824">
        <ele>334.8</ele>
        <time>2024-05-19T07:04:24Z</time>
      </trkpt>
      <trkpt lat="45.82629" lon="3.35814">
        <ele>334.6</ele>
        <time>2024-05-19T07:04:25Z</time>
      </trkpt>
      <trkpt lat="45.82628" lon="3.35805">
        <ele>334.6</ele>
        <time>2024-05-19T07:04:26Z</time>
      </trkpt>
      <trkpt lat="45.82627" lon="3.35795">
        <ele>334.4</ele>
        <time>2024-05-19T07:04:27Z</time>
      </trkpt>
      <trkpt lat="45.82625" lon="3.35784">
        <ele>334.4</ele>
        <time>2024-05-19T07:04:28Z</time>
      </trkpt>
      <trkpt lat="45.82624" lon="3.35774">
        <ele>334.4</ele>
        <time>2024-05-19T07:04:29Z</time>
      </trkpt>
      <trkpt lat="45.82622" lon="3.35764">
        <ele>334.2</ele>
        <time>2024-05-19T07:04:30Z</time>
      </trkpt>
      <trkpt lat="45.82621" lon="3.35754">
        <ele>334.2</ele>
        <time>2024-05-19T07:04:31Z</time>
      </trkpt>
      <trkpt lat="45.82619" lon="3.35744">
        <ele>334</ele>
        <time>2024-05-19T07:04:32Z</time>
      </trkpt>
      <trkpt lat="45.82618" lon="3.35733">
        <ele>333.8</ele>
        <time>2024-05-19T07:04:33Z</time>
      </trkpt>
      <trkpt lat="45.82618" lon="3.35733">
        <ele>333.8</ele>
        <time>2024-05-19T07:04:34Z</time>
      </trkpt>
      <trkpt lat="45.82615" lon="3.35713">
        <ele>333.8</ele>
        <time>2024-05-19T07:04:35Z</time>
      </trkpt>
      <trkpt lat="45.82613" lon="3.35702">
        <ele>333.8</ele>
        <time>2024-05-19T07:04:36Z</time>
      </trkpt>
      <trkpt lat="45.82612" lon="3.35692">
        <ele>333.6</ele>
        <time>2024-05-19T07:04:37Z</time>
      </trkpt>
      <trkpt lat="45.8261" lon="3.35681">
        <ele>333.6</ele>
        <time>2024-05-19T07:04:38Z</time>
      </trkpt>
      <trkpt lat="45.82609" lon="3.35671">
        <ele>333.6</ele>
        <time>2024-05-19T07:04:39Z</time>
      </trkpt>
      <trkpt lat="45.82608" lon="3.35661">
        <ele>333.6</ele>
        <time>2024-05-19T07:04:40Z</time>
      </trkpt>
      <trkpt lat="45.82606" lon="3.3565">
        <ele>333.4</ele>
        <time>2024-05-19T07:04:41Z</time>
      </trkpt>
      <trkpt lat="45.82605" lon="3.3564">
        <ele>333.4</ele>
        <time>2024-05-19T07:04:42Z</time>
      </trkpt>
      <trkpt lat="45.82603" lon="3.3563">
        <ele>333.2</ele>
        <time>2024-05-19T07:04:43Z</time>
      </trkpt>
      <trkpt lat="45.82602" lon="3.35619">
        <ele>333.2</ele>
        <time>2024-05-19T07:04:44Z</time>
      </trkpt>
      <trkpt lat="45.826" lon="3.35609">
        <ele>333.2</ele>
        <time>2024-05-19T07:04:45Z</time>
      </trkpt>
      <trkpt lat="45.82599" lon="3.35599">
        <ele>333</ele>
        <time>2024-05-19T07:04:46Z</time>
      </trkpt>
      <trkpt lat="45.82597" lon="3.35588">
        <ele>333</ele>
        <time>2024-05-19T07:04:47Z</time>
      </trkpt>
      <trkpt lat="45.82596" lon="3.35578">
        <ele>332.8</ele>
        <time>2024-05-19T07:04:48Z</time>
      </trkpt>
      <trkpt lat="45.82594" lon="3.35568">
        <ele>332.8</ele>
        <time>2024-05-19T07:04:49Z</time>
      </trkpt>
      <trkpt lat="45.82593" lon="3.35557">
        <ele>332.8</ele>
        <time>2024-05-19T07:04:50Z</time>
      </trkpt>
      <trkpt lat="45.82593" lon="3.35547">
        <ele>332.8</ele>
        <time>2024-05-19T07:04:51Z</time>
      </trkpt>
      <trkpt lat="45.82593" lon="3.35537">
        <ele>332.8</ele>
        <time>2024-05-19T07:04:52Z</time>
      </trkpt>
      <trkpt lat="45.82594" lon="3.35526">
        <ele>332.6</ele>
        <time>2024-05-19T07:04:53Z</time>
      </trkpt>
      <trkpt lat="45.82594" lon="3.35516">
        <ele>332.6</ele>
        <time>2024-05-19T07:04:54Z</time>
      </trkpt>
      <trkpt lat="45.82594" lon="3.35505">
        <ele>332.6</ele>
        <time>2024-05-19T07:04:55Z</time>
      </trkpt>
      <trkpt lat="45.82595" lon="3.35494">
        <ele>332.4</ele>
        <time>2024-05-19T07:04:56Z</time>
      </trkpt>
      <trkpt lat="45.82595" lon="3.35484">
        <ele>332.4</ele>
        <time>2024-05-19T07:04:57Z</time>
      </trkpt>
      <trkpt lat="45.82595" lon="3.35473">
        <ele>332.4</ele>
        <time>2024-05-19T07:04:58Z</time>
      </trkpt>
      <trkpt lat="45.82596" lon="3.35463">
        <ele>332.2</ele>
        <time>2024-05-19T07:04:59Z</time>
      </trkpt>
      <trkpt lat="45.82596" lon="3.35452">
        <ele>332.2</ele>
        <time>2024-05-19T07:05:00Z</time>
      </trkpt>
      <trkpt lat="45.82596" lon="3.35441">
        <ele>332.2</ele>
        <time>2024-05-19T07:05:01Z</time>
      </trkpt>
      <trkpt lat="45.82596" lon="3.35431">
        <ele>332</ele>
        <time>2024-05-19T07:05:02Z</time>
      </trkpt>
      <trkpt lat="45.82597" lon="3.35421">
        <ele>332</ele>
        <time>2024-05-19T07:05:03Z</time>
      </trkpt>
      <trkpt lat="45.82597" lon="3.35409">
        <ele>332</ele>
        <time>2024-05-19T07:05:04Z</time>
      </trkpt>
      <trkpt lat="45.82597" lon="3.35398">
        <ele>331.8</ele>
        <time>2024-05-19T07:05:05Z</time>
      </trkpt>
      <trkpt lat="45.82598" lon="3.35387">
        <ele>331.8</ele>
        <time>2024-05-19T07:05:06Z</time>
      </trkpt>
      <trkpt lat="45.82598" lon="3.35377">
        <ele>331.8</ele>
        <time>2024-05-19T07:05:07Z</time>
      </trkpt>
      <trkpt lat="45.82598" lon="3.35366">
        <ele>331.8</ele>
        <time>2024-05-19T07:05:08Z</time>
      </trkpt>
      <trkpt lat="45.82599" lon="3.35355">
        <ele>331.6</ele>
        <time>2024-05-19T07:05:09Z</time>
      </trkpt>
      <trkpt lat="45.82599" lon="3.35344">
        <ele>331.6</ele>
        <time>2024-05-19T07:05:10Z</time>
      </trkpt>
      <trkpt lat="45.826" lon="3.35332">
        <ele>331.6</ele>
        <time>2024-05-19T07:05:11Z</time>
      </trkpt>
      <trkpt lat="45.82603" lon="3.35322">
        <ele>331.6</ele>
        <time>2024-05-19T07:05:12Z</time>
      </trkpt>
      <trkpt lat="45.82605" lon="3.35312">
        <ele>331.6</ele>
        <time>2024-05-19T07:05:13Z</time>
      </trkpt>
      <trkpt lat="45.82607" lon="3.35302">
        <ele>331.4</ele>
        <time>2024-05-19T07:05:14Z</time>
      </trkpt>
      <trkpt lat="45.82609" lon="3.35292">
        <ele>331.4</ele>
        <time>2024-05-19T07:05:15Z</time>
      </trkpt>
      <trkpt lat="45.82611" lon="3.35281">
        <ele>331.4</ele>
        <time>2024-05-19T07:05:16Z</time>
      </trkpt>
      <trkpt lat="45.82613" lon="3.3527">
        <ele>331.4</ele>
        <time>2024-05-19T07:05:17Z</time>
      </trkpt>
      <trkpt lat="45.82614" lon="3.3526">
        <ele>331.4</ele>
        <time>2024-05-19T07:05:18Z</time>
      </trkpt>
      <trkpt lat="45.82616" lon="3.3525">
        <ele>331.2</ele>
        <time>2024-05-19T07:05:19Z</time>
      </trkpt>
      <trkpt lat="45.82618" lon="3.3524">
        <ele>331.2</ele>
        <time>2024-05-19T07:05:20Z</time>
      </trkpt>
      <trkpt lat="45.8262" lon="3.3523">
        <ele>331</ele>
        <time>2024-05-19T07:05:21Z</time>
      </trkpt>
      <trkpt lat="45.82622" lon="3.3522">
        <ele>331</ele>
        <time>2024-05-19T07:05:22Z</time>
      </trkpt>
      <trkpt lat="45.82624" lon="3.3521">
        <ele>331</ele>
        <time>2024-05-19T07:05:23Z</time>
      </trkpt>
      <trkpt lat="45.82626" lon="3.35201">
        <ele>331</ele>
        <time>2024-05-19T07:05:24Z</time>
      </trkpt>
      <trkpt lat="45.82627" lon="3.35191">
        <ele>331</ele>
        <time>2024-05-19T07:05:25Z</time>
      </trkpt>
      <trkpt lat="45.82629" lon="3.35181">
        <ele>331</ele>
        <time>2024-05-19T07:05:26Z</time>
      </trkpt>
      <trkpt lat="45.82631" lon="3.35171">
        <ele>331</ele>
        <time>2024-05-19T07:05:27Z</time>
      </trkpt>
      <trkpt lat="45.82633" lon="3.35161">
        <ele>331</ele>
        <time>2024-05-19T07:05:28Z</time>
      </trkpt>
      <trkpt lat="45.82635" lon="3.35151">
        <ele>331</ele>
        <time>2024-05-19T07:05:29Z</time>
      </trkpt>
      <trkpt lat="45.82637" lon="3.35142">
        <ele>331</ele>
        <time>2024-05-19T07:05:30Z</time>
      </trkpt>
      <trkpt lat="45.82639" lon="3.35132">
        <ele>331</ele>
        <time>2024-05-19T07:05:31Z</time>
      </trkpt>
      <trkpt lat="45.8264" lon="3.35122">
        <ele>330.8</ele>
        <time>2024-05-19T07:05:32Z</time>
      </trkpt>
      <trkpt lat="45.8264" lon="3.35112">
        <ele>330.8</ele>
        <time>2024-05-19T07:05:33Z</time>
      </trkpt>
      <trkpt lat="45.82641" lon="3.35102">
        <ele>330.8</ele>
        <time>2024-05-19T07:05:34Z</time>
      </trkpt>
      <trkpt lat="45.82641" lon="3.35091">
        <ele>330.8</ele>
        <time>2024-05-19T07:05:35Z</time>
      </trkpt>
      <trkpt lat="45.82641" lon="3.35081">
        <ele>330.8</ele>
        <time>2024-05-19T07:05:36Z</time>
      </trkpt>
      <trkpt lat="45.82641" lon="3.3507">
        <ele>330.8</ele>
        <time>2024-05-19T07:05:37Z</time>
      </trkpt>
      <trkpt lat="45.82642" lon="3.3506">
        <ele>330.8</ele>
        <time>2024-05-19T07:05:38Z</time>
      </trkpt>
      <trkpt lat="45.82642" lon="3.35049">
        <ele>330.6</ele>
        <time>2024-05-19T07:05:39Z</time>
      </trkpt>
      <trkpt lat="45.82642" lon="3.35039">
        <ele>330.6</ele>
        <time>2024-05-19T07:05:40Z</time>
      </trkpt>
      <trkpt lat="45.82642" lon="3.35028">
        <ele>330.6</ele>
        <time>2024-05-19T07:05:41Z</time>
      </trkpt>
      <trkpt lat="45.82643" lon="3.35018">
        <ele>330.6</ele>
        <time>2024-05-19T07:05:42Z</time>
      </trkpt>
      <trkpt lat="45.82643" lon="3.35007">
        <ele>330.6</ele>
        <time>2024-05-19T07:05:43Z</time>
      </trkpt>
      <trkpt lat="45.82643" lon="3.34996">
        <ele>330.6</ele>
        <time>2024-05-19T07:05:44Z</time>
      </trkpt>
      <trkpt lat="45.82643" lon="3.34986">
        <ele>330.6</ele>
        <time>2024-05-19T07:05:45Z</time>
      </trkpt>
      <trkpt lat="45.82644" lon="3.34975">
        <ele>330.6</ele>
        <time>2024-05-19T07:05:46Z</time>
      </trkpt>
      <trkpt lat="45.82644" lon="3.34965">
        <ele>330.6</ele>
        <time>2024-05-19T07:05:47Z</time>
      </trkpt>
      <trkpt lat="45.82644" lon="3.34954">
        <ele>330.4</ele>
        <time>2024-05-19T07:05:48Z</time>
      </trkpt>
      <trkpt lat="45.82645" lon="3.34943">
        <ele>330.4</ele>
        <time>2024-05-19T07:05:49Z</time>
      </trkpt>
      <trkpt lat="45.82646" lon="3.34933">
        <ele>330.4</ele>
        <time>2024-05-19T07:05:50Z</time>
      </trkpt>
      <trkpt lat="45.82648" lon="3.34922">
        <ele>330.4</ele>
        <time>2024-05-19T07:05:51Z</time>
      </trkpt>
      <trkpt lat="45.82649" lon="3.34912">
        <ele>330.4</ele>
        <time>2024-05-19T07:05:52Z</time>
      </trkpt>
      <trkpt lat="45.82651" lon="3.34902">
        <ele>330.4</ele>
        <time>2024-05-19T07:05:53Z</time>
      </trkpt>
      <trkpt lat="45.82652" lon="3.34891">
        <ele>330.4</ele>
        <time>2024-05-19T07:05:54Z</time>
      </trkpt>
      <trkpt lat="45.82654" lon="3.3488">
        <ele>330.2</ele>
        <time>2024-05-19T07:05:55Z</time>
      </trkpt>
      <trkpt lat="45.82656" lon="3.3487">
        <ele>330.2</ele>
        <time>2024-05-19T07:05:56Z</time>
      </trkpt>
      <trkpt lat="45.82657" lon="3.3486">
        <ele>330.2</ele>
        <time>2024-05-19T07:05:57Z</time>
      </trkpt>
      <trkpt lat="45.82659" lon="3.34849">
        <ele>330.2</ele>
        <time>2024-05-19T07:05:58Z</time>
      </trkpt>
      <trkpt lat="45.8266" lon="3.34839">
        <ele>330</ele>
        <time>2024-05-19T07:05:59Z</time>
      </trkpt>
      <trkpt lat="45.82662" lon="3.34829">
        <ele>330</ele>
        <time>2024-05-19T07:06:00Z</time>
      </trkpt>
      <trkpt lat="45.82663" lon="3.34818">
        <ele>330</ele>
        <time>2024-05-19T07:06:01Z</time>
      </trkpt>
      <trkpt lat="45.82664" lon="3.34807">
        <ele>330</ele>
        <time>2024-05-19T07:06:02Z</time>
      </trkpt>
      <trkpt lat="45.82664" lon="3.34797">
        <ele>330</ele>
        <time>2024-05-19T07:06:03Z</time>
      </trkpt>
      <trkpt lat="45.82664" lon="3.34786">
        <ele>330</ele>
        <time>2024-05-19T07:06:04Z</time>
      </trkpt>
      <trkpt lat="45.82664" lon="3.34776">
        <ele>330</ele>
        <time>2024-05-19T07:06:05Z</time>
      </trkpt>
      <trkpt lat="45.82664" lon="3.34766">
        <ele>330</ele>
        <time>2024-05-19T07:06:06Z</time>
      </trkpt>
      <trkpt lat="45.82664" lon="3.34756">
        <ele>330</ele>
        <time>2024-05-19T07:06:07Z</time>
      </trkpt>
      <trkpt lat="45.82663" lon="3.34745">
        <ele>330</ele>
        <time>2024-05-19T07:06:08Z</time>
      </trkpt>
      <trkpt lat="45.82662" lon="3.34735">
        <ele>330</ele>
        <time>2024-05-19T07:06:09Z</time>
      </trkpt>
      <trkpt lat="45.82661" lon="3.34723">
        <ele>329.8</ele>
        <time>2024-05-19T07:06:10Z</time>
      </trkpt>
      <trkpt lat="45.82658" lon="3.34714">
        <ele>329.8</ele>
        <time>2024-05-19T07:06:11Z</time>
      </trkpt>
      <trkpt lat="45.82655" lon="3.34705">
        <ele>329.8</ele>
        <time>2024-05-19T07:06:12Z</time>
      </trkpt>
      <trkpt lat="45.82652" lon="3.34695">
        <ele>329.8</ele>
        <time>2024-05-19T07:06:13Z</time>
      </trkpt>
      <trkpt lat="45.82649" lon="3.34685">
        <ele>329.8</ele>
        <time>2024-05-19T07:06:14Z</time>
      </trkpt>
      <trkpt lat="45.82646" lon="3.34676">
        <ele>329.8</ele>
        <time>2024-05-19T07:06:15Z</time>
      </trkpt>
      <trkpt lat="45.82643" lon="3.34666">
        <ele>329.6</ele>
        <time>2024-05-19T07:06:16Z</time>
      </trkpt>
      <trkpt lat="45.8264" lon="3.34656">
        <ele>329.6</ele>
        <time>2024-05-19T07:06:17Z</time>
      </trkpt>
      <trkpt lat="45.82637" lon="3.34646">
        <ele>329.6</ele>
        <time>2024-05-19T07:06:18Z</time>
      </trkpt>
      <trkpt lat="45.82634" lon="3.34637">
        <ele>329.6</ele>
        <time>2024-05-19T07:06:19Z</time>
      </trkpt>
      <trkpt lat="45.82631" lon="3.34627">
        <ele>329.6</ele>
        <time>2024-05-19T07:06:20Z</time>
      </trkpt>
      <trkpt lat="45.82628" lon="3.34617">
        <ele>329.4</ele>
        <time>2024-05-19T07:06:21Z</time>
      </trkpt>
      <trkpt lat="45.82625" lon="3.34608">
        <ele>329.4</ele>
        <time>2024-05-19T07:06:22Z</time>
      </trkpt>
      <trkpt lat="45.82622" lon="3.34598">
        <ele>329.4</ele>
        <time>2024-05-19T07:06:23Z</time>
      </trkpt>
      <trkpt lat="45.82619" lon="3.34588">
        <ele>329.4</ele>
        <time>2024-05-19T07:06:24Z</time>
      </trkpt>
      <trkpt lat="45.82616" lon="3.34579">
        <ele>329.4</ele>
        <time>2024-05-19T07:06:25Z</time>
      </trkpt>
      <trkpt lat="45.82612" lon="3.34569">
        <ele>329.4</ele>
        <time>2024-05-19T07:06:26Z</time>
      </trkpt>
      <trkpt lat="45.82609" lon="3.34559">
        <ele>329.2</ele>
        <time>2024-05-19T07:06:27Z</time>
      </trkpt>
      <trkpt lat="45.82606" lon="3.34549">
        <ele>329.2</ele>
        <time>2024-05-19T07:06:28Z</time>
      </trkpt>
      <trkpt lat="45.82603" lon="3.34539">
        <ele>329.2</ele>
        <time>2024-05-19T07:06:29Z</time>
      </trkpt>
      <trkpt lat="45.826" lon="3.34529">
        <ele>329</ele>
        <time>2024-05-19T07:06:30Z</time>
      </trkpt>
      <trkpt lat="45.82597" lon="3.34519">
        <ele>329</ele>
        <time>2024-05-19T07:06:31Z</time>
      </trkpt>
      <trkpt lat="45.82594" lon="3.34509">
        <ele>329</ele>
        <time>2024-05-19T07:06:32Z</time>
      </trkpt>
      <trkpt lat="45.8259" lon="3.345">
        <ele>329</ele>
        <time>2024-05-19T07:06:33Z</time>
      </trkpt>
      <trkpt lat="45.82585" lon="3.34491">
        <ele>328.8</ele>
        <time>2024-05-19T07:06:34Z</time>
      </trkpt>
      <trkpt lat="45.82581" lon="3.34482">
        <ele>328.8</ele>
        <time>2024-05-19T07:06:35Z</time>
      </trkpt>
      <trkpt lat="45.82576" lon="3.34473">
        <ele>328.8</ele>
        <time>2024-05-19T07:06:36Z</time>
      </trkpt>
      <trkpt lat="45.82572" lon="3.34463">
        <ele>328.6</ele>
        <time>2024-05-19T07:06:37Z</time>
      </trkpt>
      <trkpt lat="45.82567" lon="3.34454">
        <ele>328.6</ele>
        <time>2024-05-19T07:06:38Z</time>
      </trkpt>
      <trkpt lat="45.82563" lon="3.34445">
        <ele>328.4</ele>
        <time>2024-05-19T07:06:39Z</time>
      </trkpt>
      <trkpt lat="45.82558" lon="3.34436">
        <ele>328.4</ele>
        <time>2024-05-19T07:06:40Z</time>
      </trkpt>
      <trkpt lat="45.82554" lon="3.34427">
        <ele>328.4</ele>
        <time>2024-05-19T07:06:41Z</time>
      </trkpt>
      <trkpt lat="45.82549" lon="3.34418">
        <ele>328.2</ele>
        <time>2024-05-19T07:06:42Z</time>
      </trkpt>
      <trkpt lat="45.82545" lon="3.34409">
        <ele>328.2</ele>
        <time>2024-05-19T07:06:43Z</time>
      </trkpt>
      <trkpt lat="45.8254" lon="3.344">
        <ele>328.2</ele>
        <time>2024-05-19T07:06:44Z</time>
      </trkpt>
      <trkpt lat="45.82536" lon="3.34391">
        <ele>328</ele>
        <time>2024-05-19T07:06:45Z</time>
      </trkpt>
      <trkpt lat="45.82531" lon="3.34382">
        <ele>328</ele>
        <time>2024-05-19T07:06:46Z</time>
      </trkpt>
      <trkpt lat="45.82527" lon="3.34372">
        <ele>328</ele>
        <time>2024-05-19T07:06:47Z</time>
      </trkpt>
      <trkpt lat="45.82522" lon="3.34363">
        <ele>327.8</ele>
        <time>2024-05-19T07:06:48Z</time>
      </trkpt>
      <trkpt lat="45.82518" lon="3.34354">
        <ele>327.8</ele>
        <time>2024-05-19T07:06:49Z</time>
      </trkpt>
      <trkpt lat="45.82513" lon="3.34345">
        <ele>327.6</ele>
        <time>2024-05-19T07:06:50Z</time>
      </trkpt>
      <trkpt lat="45.82509" lon="3.34335">
        <ele>327.6</ele>
        <time>2024-05-19T07:06:51Z</time>
      </trkpt>
      <trkpt lat="45.82506" lon="3.34325">
        <ele>327.6</ele>
        <time>2024-05-19T07:06:52Z</time>
      </trkpt>
      <trkpt lat="45.82502" lon="3.34315">
        <ele>327.4</ele>
        <time>2024-05-19T07:06:53Z</time>
      </trkpt>
      <trkpt lat="45.82499" lon="3.34305">
        <ele>327.4</ele>
        <time>2024-05-19T07:06:54Z</time>
      </trkpt>
      <trkpt lat="45.82496" lon="3.34294">
        <ele>327.4</ele>
        <time>2024-05-19T07:06:55Z</time>
      </trkpt>
      <trkpt lat="45.82493" lon="3.34283">
        <ele>327.4</ele>
        <time>2024-05-19T07:06:56Z</time>
      </trkpt>
      <trkpt lat="45.82492" lon="3.34273">
        <ele>327.2</ele>
        <time>2024-05-19T07:06:57Z</time>
      </trkpt>
      <trkpt lat="45.8249" lon="3.34262">
        <ele>327</ele>
        <time>2024-05-19T07:06:58Z</time>
      </trkpt>
      <trkpt lat="45.82488" lon="3.34251">
        <ele>327.2</ele>
        <time>2024-05-19T07:06:59Z</time>
      </trkpt>
      <trkpt lat="45.82486" lon="3.34241">
        <ele>327</ele>
        <time>2024-05-19T07:07:00Z</time>
      </trkpt>
      <trkpt lat="45.82484" lon="3.3423">
        <ele>327</ele>
        <time>2024-05-19T07:07:01Z</time>
      </trkpt>
      <trkpt lat="45.82482" lon="3.34219">
        <ele>326.8</ele>
        <time>2024-05-19T07:07:02Z</time>
      </trkpt>
      <trkpt lat="45.82482" lon="3.34207">
        <ele>326.8</ele>
        <time>2024-05-19T07:07:03Z</time>
      </trkpt>
      <trkpt lat="45.82482" lon="3.34195">
        <ele>326.6</ele>
        <time>2024-05-19T07:07:04Z</time>
      </trkpt>
      <trkpt lat="45.82483" lon="3.34185">
        <ele>326.6</ele>
        <time>2024-05-19T07:07:05Z</time>
      </trkpt>
      <trkpt lat="45.82484" lon="3.34174">
        <ele>326.6</ele>
        <time>2024-05-19T07:07:06Z</time>
      </trkpt>
      <trkpt lat="45.82485" lon="3.34163">
        <ele>326.6</ele>
        <time>2024-05-19T07:07:07Z</time>
      </trkpt>
      <trkpt lat="45.82487" lon="3.34151">
        <ele>326.6</ele>
        <time>2024-05-19T07:07:08Z</time>
      </trkpt>
      <trkpt lat="45.8249" lon="3.34141">
        <ele>326.4</ele>
        <time>2024-05-19T07:07:09Z</time>
      </trkpt>
      <trkpt lat="45.82493" lon="3.34131">
        <ele>326.4</ele>
        <time>2024-05-19T07:07:10Z</time>
      </trkpt>
      <trkpt lat="45.82496" lon="3.34122">
        <ele>326.4</ele>
        <time>2024-05-19T07:07:11Z</time>
      </trkpt>
      <trkpt lat="45.82499" lon="3.34112">
        <ele>326.4</ele>
        <time>2024-05-19T07:07:12Z</time>
      </trkpt>
      <trkpt lat="45.82502" lon="3.34102">
        <ele>326.4</ele>
        <time>2024-05-19T07:07:13Z</time>
      </trkpt>
      <trkpt lat="45.82505" lon="3.34092">
        <ele>326.2</ele>
        <time>2024-05-19T07:07:14Z</time>
      </trkpt>
      <trkpt lat="45.82508" lon="3.34082">
        <ele>326.2</ele>
        <time>2024-05-19T07:07:15Z</time>
      </trkpt>
      <trkpt lat="45.82512" lon="3.34072">
        <ele>326.2</ele>
        <time>2024-05-19T07:07:16Z</time>
      </trkpt>
      <trkpt lat="45.82517" lon="3.34064">
        <ele>326.2</ele>
        <time>2024-05-19T07:07:17Z</time>
      </trkpt>
      <trkpt lat="45.82521" lon="3.34056">
        <ele>326.2</ele>
        <time>2024-05-19T07:07:18Z</time>
      </trkpt>
      <trkpt lat="45.82526" lon="3.34048">
        <ele>326.2</ele>
        <time>2024-05-19T07:07:19Z</time>
      </trkpt>
      <trkpt lat="45.82531" lon="3.3404">
        <ele>326</ele>
        <time>2024-05-19T07:07:20Z</time>
      </trkpt>
      <trkpt lat="45.82536" lon="3.34032">
        <ele>326</ele>
        <time>2024-05-19T07:07:21Z</time>
      </trkpt>
      <trkpt lat="45.8254" lon="3.34024">
        <ele>326.2</ele>
        <time>2024-05-19T07:07:22Z</time>
      </trkpt>
      <trkpt lat="45.82545" lon="3.34017">
        <ele>326.2</ele>
        <time>2024-05-19T07:07:23Z</time>
      </trkpt>
      <trkpt lat="45.8255" lon="3.34009">
        <ele>326.2</ele>
        <time>2024-05-19T07:07:24Z</time>
      </trkpt>
      <trkpt lat="45.82554" lon="3.34001">
        <ele>326</ele>
        <time>2024-05-19T07:07:25Z</time>
      </trkpt>
      <trkpt lat="45.82559" lon="3.33994">
        <ele>326</ele>
        <time>2024-05-19T07:07:26Z</time>
      </trkpt>
      <trkpt lat="45.82564" lon="3.33986">
        <ele>326</ele>
        <time>2024-05-19T07:07:27Z</time>
      </trkpt>
      <trkpt lat="45.82568" lon="3.33977">
        <ele>326</ele>
        <time>2024-05-19T07:07:28Z</time>
      </trkpt>
      <trkpt lat="45.82571" lon="3.33969">
        <ele>326</ele>
        <time>2024-05-19T07:07:29Z</time>
      </trkpt>
      <trkpt lat="45.82574" lon="3.3396">
        <ele>326</ele>
        <time>2024-05-19T07:07:30Z</time>
      </trkpt>
      <trkpt lat="45.82578" lon="3.33951">
        <ele>326</ele>
        <time>2024-05-19T07:07:31Z</time>
      </trkpt>
      <trkpt lat="45.82581" lon="3.33942">
        <ele>326.2</ele>
        <time>2024-05-19T07:07:32Z</time>
      </trkpt>
      <trkpt lat="45.82585" lon="3.33933">
        <ele>326</ele>
        <time>2024-05-19T07:07:33Z</time>
      </trkpt>
      <trkpt lat="45.82588" lon="3.33923">
        <ele>326</ele>
        <time>2024-05-19T07:07:34Z</time>
      </trkpt>
      <trkpt lat="45.82592" lon="3.33914">
        <ele>326</ele>
        <time>2024-05-19T07:07:35Z</time>
      </trkpt>
      <trkpt lat="45.82595" lon="3.33905">
        <ele>326</ele>
        <time>2024-05-19T07:07:36Z</time>
      </trkpt>
      <trkpt lat="45.82598" lon="3.33895">
        <ele>326</ele>
        <time>2024-05-19T07:07:37Z</time>
      </trkpt>
      <trkpt lat="45.82599" lon="3.33885">
        <ele>326</ele>
        <time>2024-05-19T07:07:38Z</time>
      </trkpt>
      <trkpt lat="45.82601" lon="3.33874">
        <ele>326</ele>
        <time>2024-05-19T07:07:39Z</time>
      </trkpt>
      <trkpt lat="45.82602" lon="3.33864">
        <ele>326</ele>
        <time>2024-05-19T07:07:40Z</time>
      </trkpt>
      <trkpt lat="45.82603" lon="3.33854">
        <ele>326</ele>
        <time>2024-05-19T07:07:41Z</time>
      </trkpt>
      <trkpt lat="45.82605" lon="3.33843">
        <ele>326</ele>
        <time>2024-05-19T07:07:42Z</time>
      </trkpt>
      <trkpt lat="45.82606" lon="3.33833">
        <ele>325.8</ele>
        <time>2024-05-19T07:07:43Z</time>
      </trkpt>
      <trkpt lat="45.82607" lon="3.33823">
        <ele>325.8</ele>
        <time>2024-05-19T07:07:44Z</time>
      </trkpt>
      <trkpt lat="45.82609" lon="3.33813">
        <ele>325.8</ele>
        <time>2024-05-19T07:07:45Z</time>
      </trkpt>
      <trkpt lat="45.8261" lon="3.33802">
        <ele>325.8</ele>
        <time>2024-05-19T07:07:46Z</time>
      </trkpt>
      <trkpt lat="45.8261" lon="3.33791">
        <ele>325.8</ele>
        <time>2024-05-19T07:07:47Z</time>
      </trkpt>
      <trkpt lat="45.8261" lon="3.33781">
        <ele>325.8</ele>
        <time>2024-05-19T07:07:48Z</time>
      </trkpt>
      <trkpt lat="45.8261" lon="3.3377">
        <ele>325.8</ele>
        <time>2024-05-19T07:07:49Z</time>
      </trkpt>
      <trkpt lat="45.8261" lon="3.33759">
        <ele>325.6</ele>
        <time>2024-05-19T07:07:50Z</time>
      </trkpt>
      <trkpt lat="45.8261" lon="3.33749">
        <ele>325.6</ele>
        <time>2024-05-19T07:07:51Z</time>
      </trkpt>
      <trkpt lat="45.8261" lon="3.33738">
        <ele>325.6</ele>
        <time>2024-05-19T07:07:52Z</time>
      </trkpt>
      <trkpt lat="45.8261" lon="3.33728">
        <ele>325.6</ele>
        <time>2024-05-19T07:07:53Z</time>
      </trkpt>
      <trkpt lat="45.8261" lon="3.33717">
        <ele>325.6</ele>
        <time>2024-05-19T07:07:54Z</time>
      </trkpt>
      <trkpt lat="45.8261" lon="3.33706">
        <ele>325.6</ele>
        <time>2024-05-19T07:07:55Z</time>
      </trkpt>
      <trkpt lat="45.8261" lon="3.33696">
        <ele>325.6</ele>
        <time>2024-05-19T07:07:56Z</time>
      </trkpt>
      <trkpt lat="45.8261" lon="3.33685">
        <ele>325.6</ele>
        <time>2024-05-19T07:07:57Z</time>
      </trkpt>
      <trkpt lat="45.8261" lon="3.33675">
        <ele>325.6</ele>
        <time>2024-05-19T07:07:58Z</time>
      </trkpt>
      <trkpt lat="45.8261" lon="3.33664">
        <ele>325.6</ele>
        <time>2024-05-19T07:07:59Z</time>
      </trkpt>
      <trkpt lat="45.8261" lon="3.33654">
        <ele>325.6</ele>
        <time>2024-05-19T07:08:00Z</time>
      </trkpt>
      <trkpt lat="45.8261" lon="3.33644">
        <ele>325.6</ele>
        <time>2024-05-19T07:08:01Z</time>
      </trkpt>
      <trkpt lat="45.82612" lon="3.33634">
        <ele>325.6</ele>
        <time>2024-05-19T07:08:02Z</time>
      </trkpt>
      <trkpt lat="45.82614" lon="3.33624">
        <ele>325.8</ele>
        <time>2024-05-19T07:08:03Z</time>
      </trkpt>
      <trkpt lat="45.82617" lon="3.33615">
        <ele>325.6</ele>
        <time>2024-05-19T07:08:04Z</time>
      </trkpt>
      <trkpt lat="45.82619" lon="3.33606">
        <ele>325.6</ele>
        <time>2024-05-19T07:08:05Z</time>
      </trkpt>
      <trkpt lat="45.82622" lon="3.33597">
        <ele>325.6</ele>
        <time>2024-05-19T07:08:06Z</time>
      </trkpt>
      <trkpt lat="45.82625" lon="3.33587">
        <ele>325.4</ele>
        <time>2024-05-19T07:08:07Z</time>
      </trkpt>
      <trkpt lat="45.82627" lon="3.33578">
        <ele>325.4</ele>
        <time>2024-05-19T07:08:08Z</time>
      </trkpt>
      <trkpt lat="45.82629" lon="3.33568">
        <ele>325.6</ele>
        <time>2024-05-19T07:08:09Z</time>
      </trkpt>
      <trkpt lat="45.82632" lon="3.33558">
        <ele>325.6</ele>
        <time>2024-05-19T07:08:10Z</time>
      </trkpt>
      <trkpt lat="45.82634" lon="3.33549">
        <ele>325.6</ele>
        <time>2024-05-19T07:08:11Z</time>
      </trkpt>
      <trkpt lat="45.82636" lon="3.33539">
        <ele>325.6</ele>
        <time>2024-05-19T07:08:12Z</time>
      </trkpt>
      <trkpt lat="45.82638" lon="3.3353">
        <ele>325.6</ele>
        <time>2024-05-19T07:08:13Z</time>
      </trkpt>
      <trkpt lat="45.8264" lon="3.3352">
        <ele>325.6</ele>
        <time>2024-05-19T07:08:14Z</time>
      </trkpt>
      <trkpt lat="45.82642" lon="3.33511">
        <ele>325.6</ele>
        <time>2024-05-19T07:08:15Z</time>
      </trkpt>
      <trkpt lat="45.82644" lon="3.33502">
        <ele>325.4</ele>
        <time>2024-05-19T07:08:16Z</time>
      </trkpt>
      <trkpt lat="45.82646" lon="3.33493">
        <ele>325.6</ele>
        <time>2024-05-19T07:08:17Z</time>
      </trkpt>
      <trkpt lat="45.82648" lon="3.33484">
        <ele>325.6</ele>
        <time>2024-05-19T07:08:18Z</time>
      </trkpt>
      <trkpt lat="45.8265" lon="3.33474">
        <ele>325.6</ele>
        <time>2024-05-19T07:08:19Z</time>
      </trkpt>
      <trkpt lat="45.82652" lon="3.33465">
        <ele>325.8</ele>
        <time>2024-05-19T07:08:20Z</time>
      </trkpt>
      <trkpt lat="45.82654" lon="3.33455">
        <ele>325.6</ele>
        <time>2024-05-19T07:08:21Z</time>
      </trkpt>
      <trkpt lat="45.82656" lon="3.33446">
        <ele>325.6</ele>
        <time>2024-05-19T07:08:22Z</time>
      </trkpt>
      <trkpt lat="45.82658" lon="3.33437">
        <ele>325.8</ele>
        <time>2024-05-19T07:08:23Z</time>
      </trkpt>
      <trkpt lat="45.8266" lon="3.33427">
        <ele>325.6</ele>
        <time>2024-05-19T07:08:24Z</time>
      </trkpt>
      <trkpt lat="45.82662" lon="3.33417">
        <ele>325.6</ele>
        <time>2024-05-19T07:08:25Z</time>
      </trkpt>
      <trkpt lat="45.82664" lon="3.33408">
        <ele>325.6</ele>
        <time>2024-05-19T07:08:26Z</time>
      </trkpt>
      <trkpt lat="45.82666" lon="3.33398">
        <ele>325.6</ele>
        <time>2024-05-19T07:08:27Z</time>
      </trkpt>
      <trkpt lat="45.82668" lon="3.33389">
        <ele>325.6</ele>
        <time>2024-05-19T07:08:28Z</time>
      </trkpt>
      <trkpt lat="45.8267" lon="3.33379">
        <ele>325.6</ele>
        <time>2024-05-19T07:08:29Z</time>
      </trkpt>
      <trkpt lat="45.82672" lon="3.3337">
        <ele>325.6</ele>
        <time>2024-05-19T07:08:30Z</time>
      </trkpt>
      <trkpt lat="45.82674" lon="3.33361">
        <ele>325.6</ele>
        <time>2024-05-19T07:08:31Z</time>
      </trkpt>
      <trkpt lat="45.82676" lon="3.33352">
        <ele>325.6</ele>
        <time>2024-05-19T07:08:32Z</time>
      </trkpt>
      <trkpt lat="45.82678" lon="3.33342">
        <ele>325.6</ele>
        <time>2024-05-19T07:08:33Z</time>
      </trkpt>
      <trkpt lat="45.8268" lon="3.33333">
        <ele>325.6</ele>
        <time>2024-05-19T07:08:34Z</time>
      </trkpt>
      <trkpt lat="45.82682" lon="3.33324">
        <ele>325.6</ele>
        <time>2024-05-19T07:08:35Z</time>
      </trkpt>
      <trkpt lat="45.82684" lon="3.33315">
        <ele>325.6</ele>
        <time>2024-05-19T07:08:36Z</time>
      </trkpt>
      <trkpt lat="45.82686" lon="3.33306">
        <ele>325.4</ele>
        <time>2024-05-19T07:08:37Z</time>
      </trkpt>
      <trkpt lat="45.82688" lon="3.33297">
        <ele>325.6</ele>
        <time>2024-05-19T07:08:38Z</time>
      </trkpt>
      <trkpt lat="45.8269" lon="3.33288">
        <ele>325.6</ele>
        <time>2024-05-19T07:08:39Z</time>
      </trkpt>
      <trkpt lat="45.82692" lon="3.33279">
        <ele>325.6</ele>
        <time>2024-05-19T07:08:40Z</time>
      </trkpt>
      <trkpt lat="45.82693" lon="3.33271">
        <ele>325.6</ele>
        <time>2024-05-19T07:08:41Z</time>
      </trkpt>
      <trkpt lat="45.82695" lon="3.33263">
        <ele>325.4</ele>
        <time>2024-05-19T07:08:42Z</time>
      </trkpt>
      <trkpt lat="45.82697" lon="3.33256">
        <ele>325.4</ele>
        <time>2024-05-19T07:08:43Z</time>
      </trkpt>
      <trkpt lat="45.82698" lon="3.33249">
        <ele>325.4</ele>
        <time>2024-05-19T07:08:44Z</time>
      </trkpt>
      <trkpt lat="45.82699" lon="3.33243">
        <ele>325.4</ele>
        <time>2024-05-19T07:08:45Z</time>
      </trkpt>
      <trkpt lat="45.82703" lon="3.33238">
        <ele>325.2</ele>
        <time>2024-05-19T07:08:46Z</time>
      </trkpt>
      <trkpt lat="45.82708" lon="3.33235">
        <ele>325.2</ele>
        <time>2024-05-19T07:08:47Z</time>
      </trkpt>
      <trkpt lat="45.82714" lon="3.33231">
        <ele>325.2</ele>
        <time>2024-05-19T07:08:48Z</time>
      </trkpt>
      <trkpt lat="45.8272" lon="3.33228">
        <ele>325.2</ele>
        <time>2024-05-19T07:08:49Z</time>
      </trkpt>
      <trkpt lat="45.82726" lon="3.33224">
        <ele>325.2</ele>
        <time>2024-05-19T07:08:50Z</time>
      </trkpt>
      <trkpt lat="45.82732" lon="3.3322">
        <ele>325.2</ele>
        <time>2024-05-19T07:08:51Z</time>
      </trkpt>
      <trkpt lat="45.82738" lon="3.33216">
        <ele>325.2</ele>
        <time>2024-05-19T07:08:52Z</time>
      </trkpt>
      <trkpt lat="45.82744" lon="3.33213">
        <ele>325.2</ele>
        <time>2024-05-19T07:08:53Z</time>
      </trkpt>
      <trkpt lat="45.8275" lon="3.33209">
        <ele>325</ele>
        <time>2024-05-19T07:08:54Z</time>
      </trkpt>
      <trkpt lat="45.82754" lon="3.33206">
        <ele>325</ele>
        <time>2024-05-19T07:08:55Z</time>
      </trkpt>
      <trkpt lat="45.82754" lon="3.33194">
        <ele>324.8</ele>
        <time>2024-05-19T07:08:56Z</time>
      </trkpt>
      <trkpt lat="45.82753" lon="3.33187">
        <ele>324.8</ele>
        <time>2024-05-19T07:08:57Z</time>
      </trkpt>
      <trkpt lat="45.82752" lon="3.3318">
        <ele>324.8</ele>
        <time>2024-05-19T07:08:58Z</time>
      </trkpt>
      <trkpt lat="45.82751" lon="3.33171">
        <ele>324.8</ele>
        <time>2024-05-19T07:08:59Z</time>
      </trkpt>
      <trkpt lat="45.82748" lon="3.33164">
        <ele>324.6</ele>
        <time>2024-05-19T07:09:00Z</time>
      </trkpt>
      <trkpt lat="45.82745" lon="3.33155">
        <ele>324.6</ele>
        <time>2024-05-19T07:09:01Z</time>
      </trkpt>
      <trkpt lat="45.82742" lon="3.33147">
        <ele>324.6</ele>
        <time>2024-05-19T07:09:02Z</time>
      </trkpt>
      <trkpt lat="45.82738" lon="3.33139">
        <ele>324.4</ele>
        <time>2024-05-19T07:09:03Z</time>
      </trkpt>
      <trkpt lat="45.82735" lon="3.33131">
        <ele>324.4</ele>
        <time>2024-05-19T07:09:04Z</time>
      </trkpt>
      <trkpt lat="45.82736" lon="3.33117">
        <ele>324.4</ele>
        <time>2024-05-19T07:09:05Z</time>
      </trkpt>
      <trkpt lat="45.8274" lon="3.3311">
        <ele>324.2</ele>
        <time>2024-05-19T07:09:06Z</time>
      </trkpt>
      <trkpt lat="45.82745" lon="3.33103">
        <ele>324.2</ele>
        <time>2024-05-19T07:09:07Z</time>
      </trkpt>
      <trkpt lat="45.82749" lon="3.33095">
        <ele>324</ele>
        <time>2024-05-19T07:09:08Z</time>
      </trkpt>
      <trkpt lat="45.82753" lon="3.33087">
        <ele>324</ele>
        <time>2024-05-19T07:09:09Z</time>
      </trkpt>
      <trkpt lat="45.82755" lon="3.33077">
        <ele>324</ele>
        <time>2024-05-19T07:09:10Z</time>
      </trkpt>
      <trkpt lat="45.82757" lon="3.33068">
        <ele>323.8</ele>
        <time>2024-05-19T07:09:11Z</time>
      </trkpt>
      <trkpt lat="45.8276" lon="3.33058">
        <ele>323.8</ele>
        <time>2024-05-19T07:09:12Z</time>
      </trkpt>
      <trkpt lat="45.82762" lon="3.33047">
        <ele>323.8</ele>
        <time>2024-05-19T07:09:13Z</time>
      </trkpt>
      <trkpt lat="45.82765" lon="3.33037">
        <ele>323.6</ele>
        <time>2024-05-19T07:09:14Z</time>
      </trkpt>
      <trkpt lat="45.82767" lon="3.33026">
        <ele>323.4</ele>
        <time>2024-05-19T07:09:15Z</time>
      </trkpt>
      <trkpt lat="45.82769" lon="3.33014">
        <ele>323.2</ele>
        <time>2024-05-19T07:09:16Z</time>
      </trkpt>
      <trkpt lat="45.82772" lon="3.33004">
        <ele>323</ele>
        <time>2024-05-19T07:09:17Z</time>
      </trkpt>
      <trkpt lat="45.82775" lon="3.32993">
        <ele>322.8</ele>
        <time>2024-05-19T07:09:18Z</time>
      </trkpt>
      <trkpt lat="45.82778" lon="3.32982">
        <ele>322.6</ele>
        <time>2024-05-19T07:09:19Z</time>
      </trkpt>
      <trkpt lat="45.82782" lon="3.32972">
        <ele>322.4</ele>
        <time>2024-05-19T07:09:20Z</time>
      </trkpt>
      <trkpt lat="45.82788" lon="3.32962">
        <ele>322.2</ele>
        <time>2024-05-19T07:09:21Z</time>
      </trkpt>
      <trkpt lat="45.82793" lon="3.32953">
        <ele>322</ele>
        <time>2024-05-19T07:09:22Z</time>
      </trkpt>
      <trkpt lat="45.82799" lon="3.32944">
        <ele>321.8</ele>
        <time>2024-05-19T07:09:23Z</time>
      </trkpt>
      <trkpt lat="45.82803" lon="3.32935">
        <ele>321.6</ele>
        <time>2024-05-19T07:09:24Z</time>
      </trkpt>
      <trkpt lat="45.82805" lon="3.32924">
        <ele>321.4</ele>
        <time>2024-05-19T07:09:25Z</time>
      </trkpt>
      <trkpt lat="45.82807" lon="3.32914">
        <ele>321.4</ele>
        <time>2024-05-19T07:09:26Z</time>
      </trkpt>
      <trkpt lat="45.82808" lon="3.32903">
        <ele>321.2</ele>
        <time>2024-05-19T07:09:27Z</time>
      </trkpt>
      <trkpt lat="45.82809" lon="3.32893">
        <ele>321.2</ele>
        <time>2024-05-19T07:09:28Z</time>
      </trkpt>
      <trkpt lat="45.82809" lon="3.32882">
        <ele>321</ele>
        <time>2024-05-19T07:09:29Z</time>
      </trkpt>
      <trkpt lat="45.8281" lon="3.32871">
        <ele>321</ele>
        <time>2024-05-19T07:09:30Z</time>
      </trkpt>
      <trkpt lat="45.82813" lon="3.32861">
        <ele>321</ele>
        <time>2024-05-19T07:09:31Z</time>
      </trkpt>
      <trkpt lat="45.82815" lon="3.32852">
        <ele>321</ele>
        <time>2024-05-19T07:09:32Z</time>
      </trkpt>
      <trkpt lat="45.8282" lon="3.32844">
        <ele>321</ele>
        <time>2024-05-19T07:09:33Z</time>
      </trkpt>
      <trkpt lat="45.82824" lon="3.32837">
        <ele>321</ele>
        <time>2024-05-19T07:09:34Z</time>
      </trkpt>
      <trkpt lat="45.82831" lon="3.32825">
        <ele>321</ele>
        <time>2024-05-19T07:09:35Z</time>
      </trkpt>
      <trkpt lat="45.82832" lon="3.32815">
        <ele>321</ele>
        <time>2024-05-19T07:09:36Z</time>
      </trkpt>
      <trkpt lat="45.82833" lon="3.32805">
        <ele>321.2</ele>
        <time>2024-05-19T07:09:37Z</time>
      </trkpt>
      <trkpt lat="45.8283" lon="3.32793">
        <ele>321.2</ele>
        <time>2024-05-19T07:09:38Z</time>
      </trkpt>
      <trkpt lat="45.82827" lon="3.32785">
        <ele>321.2</ele>
        <time>2024-05-19T07:09:39Z</time>
      </trkpt>
      <trkpt lat="45.82825" lon="3.32776">
        <ele>321.2</ele>
        <time>2024-05-19T07:09:40Z</time>
      </trkpt>
      <trkpt lat="45.82822" lon="3.32766">
        <ele>321.2</ele>
        <time>2024-05-19T07:09:41Z</time>
      </trkpt>
      <trkpt lat="45.82821" lon="3.32756">
        <ele>321.2</ele>
        <time>2024-05-19T07:09:42Z</time>
      </trkpt>
      <trkpt lat="45.82819" lon="3.32747">
        <ele>321.2</ele>
        <time>2024-05-19T07:09:43Z</time>
      </trkpt>
      <trkpt lat="45.82818" lon="3.32738">
        <ele>321.2</ele>
        <time>2024-05-19T07:09:44Z</time>
      </trkpt>
      <trkpt lat="45.82816" lon="3.32729">
        <ele>321.2</ele>
        <time>2024-05-19T07:09:45Z</time>
      </trkpt>
      <trkpt lat="45.82815" lon="3.32719">
        <ele>321.2</ele>
        <time>2024-05-19T07:09:46Z</time>
      </trkpt>
      <trkpt lat="45.82813" lon="3.3271">
        <ele>321.2</ele>
        <time>2024-05-19T07:09:47Z</time>
      </trkpt>
      <trkpt lat="45.82812" lon="3.32701">
        <ele>321.2</ele>
        <time>2024-05-19T07:09:48Z</time>
      </trkpt>
      <trkpt lat="45.82811" lon="3.32692">
        <ele>320</ele>
        <time>2024-05-19T07:09:49Z</time>
      </trkpt>
      <trkpt lat="45.82809" lon="3.32683">
        <ele>320.4</ele>
        <time>2024-05-19T07:09:50Z</time>
      </trkpt>
      <trkpt lat="45.82808" lon="3.32675">
        <ele>320.6</ele>
        <time>2024-05-19T07:09:51Z</time>
      </trkpt>
      <trkpt lat="45.82807" lon="3.32666">
        <ele>321</ele>
        <time>2024-05-19T07:09:52Z</time>
      </trkpt>
      <trkpt lat="45.82805" lon="3.32657">
        <ele>321.2</ele>
        <time>2024-05-19T07:09:53Z</time>
      </trkpt>
      <trkpt lat="45.82804" lon="3.32649">
        <ele>321.4</ele>
        <time>2024-05-19T07:09:54Z</time>
      </trkpt>
      <trkpt lat="45.82803" lon="3.3264">
        <ele>321.4</ele>
        <time>2024-05-19T07:09:55Z</time>
      </trkpt>
      <trkpt lat="45.82802" lon="3.32631">
        <ele>321.8</ele>
        <time>2024-05-19T07:09:56Z</time>
      </trkpt>
      <trkpt lat="45.82802" lon="3.32622">
        <ele>321.4</ele>
        <time>2024-05-19T07:09:57Z</time>
      </trkpt>
      <trkpt lat="45.82801" lon="3.32613">
        <ele>321.4</ele>
        <time>2024-05-19T07:09:58Z</time>
      </trkpt>
      <trkpt lat="45.82801" lon="3.32605">
        <ele>321.4</ele>
        <time>2024-05-19T07:09:59Z</time>
      </trkpt>
      <trkpt lat="45.828" lon="3.32596">
        <ele>321.4</ele>
        <time>2024-05-19T07:10:00Z</time>
      </trkpt>
      <trkpt lat="45.828" lon="3.32587">
        <ele>321.4</ele>
        <time>2024-05-19T07:10:01Z</time>
      </trkpt>
      <trkpt lat="45.82799" lon="3.32579">
        <ele>321.4</ele>
        <time>2024-05-19T07:10:02Z</time>
      </trkpt>
      <trkpt lat="45.828" lon="3.3257">
        <ele>321.4</ele>
        <time>2024-05-19T07:10:03Z</time>
      </trkpt>
      <trkpt lat="45.82804" lon="3.32563">
        <ele>321.4</ele>
        <time>2024-05-19T07:10:04Z</time>
      </trkpt>
      <trkpt lat="45.82808" lon="3.32557">
        <ele>321.6</ele>
        <time>2024-05-19T07:10:05Z</time>
      </trkpt>
      <trkpt lat="45.82812" lon="3.3255">
        <ele>321.6</ele>
        <time>2024-05-19T07:10:06Z</time>
      </trkpt>
      <trkpt lat="45.82818" lon="3.32545">
        <ele>321.6</ele>
        <time>2024-05-19T07:10:07Z</time>
      </trkpt>
      <trkpt lat="45.82824" lon="3.32543">
        <ele>321.8</ele>
        <time>2024-05-19T07:10:08Z</time>
      </trkpt>
      <trkpt lat="45.8283" lon="3.32541">
        <ele>321.8</ele>
        <time>2024-05-19T07:10:09Z</time>
      </trkpt>
      <trkpt lat="45.82835" lon="3.32539">
        <ele>321.8</ele>
        <time>2024-05-19T07:10:10Z</time>
      </trkpt>
      <trkpt lat="45.82842" lon="3.32537">
        <ele>321.8</ele>
        <time>2024-05-19T07:10:11Z</time>
      </trkpt>
      <trkpt lat="45.82847" lon="3.32535">
        <ele>321.8</ele>
        <time>2024-05-19T07:10:12Z</time>
      </trkpt>
      <trkpt lat="45.82853" lon="3.32532">
        <ele>322</ele>
        <time>2024-05-19T07:10:13Z</time>
      </trkpt>
      <trkpt lat="45.82859" lon="3.3253">
        <ele>322</ele>
        <time>2024-05-19T07:10:14Z</time>
      </trkpt>
      <trkpt lat="45.82865" lon="3.32528">
        <ele>322</ele>
        <time>2024-05-19T07:10:15Z</time>
      </trkpt>
      <trkpt lat="45.82871" lon="3.32525">
        <ele>322</ele>
        <time>2024-05-19T07:10:16Z</time>
      </trkpt>
      <trkpt lat="45.82876" lon="3.32521">
        <ele>322</ele>
        <time>2024-05-19T07:10:17Z</time>
      </trkpt>
      <trkpt lat="45.82882" lon="3.32517">
        <ele>322.2</ele>
        <time>2024-05-19T07:10:18Z</time>
      </trkpt>
      <trkpt lat="45.82887" lon="3.32513">
        <ele>322.2</ele>
        <time>2024-05-19T07:10:19Z</time>
      </trkpt>
      <trkpt lat="45.82892" lon="3.32505">
        <ele>322.2</ele>
        <time>2024-05-19T07:10:20Z</time>
      </trkpt>
      <trkpt lat="45.82893" lon="3.32496">
        <ele>322.2</ele>
        <time>2024-05-19T07:10:21Z</time>
      </trkpt>
      <trkpt lat="45.82895" lon="3.32487">
        <ele>322.2</ele>
        <time>2024-05-19T07:10:22Z</time>
      </trkpt>
      <trkpt lat="45.82896" lon="3.32479">
        <ele>322.2</ele>
        <time>2024-05-19T07:10:23Z</time>
      </trkpt>
      <trkpt lat="45.82897" lon="3.3247">
        <ele>322.4</ele>
        <time>2024-05-19T07:10:24Z</time>
      </trkpt>
      <trkpt lat="45.82898" lon="3.32461">
        <ele>322.4</ele>
        <time>2024-05-19T07:10:25Z</time>
      </trkpt>
      <trkpt lat="45.82898" lon="3.32452">
        <ele>322.4</ele>
        <time>2024-05-19T07:10:26Z</time>
      </trkpt>
      <trkpt lat="45.82898" lon="3.32443">
        <ele>322.4</ele>
        <time>2024-05-19T07:10:27Z</time>
      </trkpt>
      <trkpt lat="45.82899" lon="3.32434">
        <ele>322.6</ele>
        <time>2024-05-19T07:10:28Z</time>
      </trkpt>
      <trkpt lat="45.82899" lon="3.32425">
        <ele>322.6</ele>
        <time>2024-05-19T07:10:29Z</time>
      </trkpt>
      <trkpt lat="45.82899" lon="3.32416">
        <ele>322.6</ele>
        <time>2024-05-19T07:10:30Z</time>
      </trkpt>
      <trkpt lat="45.82899" lon="3.32407">
        <ele>322.6</ele>
        <time>2024-05-19T07:10:31Z</time>
      </trkpt>
      <trkpt lat="45.829" lon="3.32399">
        <ele>322.8</ele>
        <time>2024-05-19T07:10:32Z</time>
      </trkpt>
      <trkpt lat="45.829" lon="3.3239">
        <ele>322.8</ele>
        <time>2024-05-19T07:10:33Z</time>
      </trkpt>
      <trkpt lat="45.829" lon="3.32382">
        <ele>322.8</ele>
        <time>2024-05-19T07:10:34Z</time>
      </trkpt>
      <trkpt lat="45.82901" lon="3.32373">
        <ele>322.8</ele>
        <time>2024-05-19T07:10:35Z</time>
      </trkpt>
      <trkpt lat="45.82901" lon="3.32365">
        <ele>323</ele>
        <time>2024-05-19T07:10:36Z</time>
      </trkpt>
      <trkpt lat="45.82901" lon="3.32356">
        <ele>323</ele>
        <time>2024-05-19T07:10:37Z</time>
      </trkpt>
      <trkpt lat="45.82901" lon="3.32348">
        <ele>323</ele>
        <time>2024-05-19T07:10:38Z</time>
      </trkpt>
      <trkpt lat="45.82902" lon="3.3234">
        <ele>323.2</ele>
        <time>2024-05-19T07:10:39Z</time>
      </trkpt>
      <trkpt lat="45.82902" lon="3.32332">
        <ele>323.2</ele>
        <time>2024-05-19T07:10:40Z</time>
      </trkpt>
      <trkpt lat="45.82902" lon="3.32324">
        <ele>323.2</ele>
        <time>2024-05-19T07:10:41Z</time>
      </trkpt>
      <trkpt lat="45.82902" lon="3.32316">
        <ele>323.4</ele>
        <time>2024-05-19T07:10:42Z</time>
      </trkpt>
      <trkpt lat="45.82903" lon="3.32308">
        <ele>323.4</ele>
        <time>2024-05-19T07:10:43Z</time>
      </trkpt>
      <trkpt lat="45.82903" lon="3.323">
        <ele>323.6</ele>
        <time>2024-05-19T07:10:44Z</time>
      </trkpt>
      <trkpt lat="45.82903" lon="3.32293">
        <ele>323.6</ele>
        <time>2024-05-19T07:10:45Z</time>
      </trkpt>
      <trkpt lat="45.82903" lon="3.32285">
        <ele>323.6</ele>
        <time>2024-05-19T07:10:46Z</time>
      </trkpt>
      <trkpt lat="45.82904" lon="3.32278">
        <ele>323.8</ele>
        <time>2024-05-19T07:10:47Z</time>
      </trkpt>
      <trkpt lat="45.82904" lon="3.3227">
        <ele>323.8</ele>
        <time>2024-05-19T07:10:48Z</time>
      </trkpt>
      <trkpt lat="45.82904" lon="3.32263">
        <ele>324</ele>
        <time>2024-05-19T07:10:49Z</time>
      </trkpt>
      <trkpt lat="45.82904" lon="3.32255">
        <ele>324</ele>
        <time>2024-05-19T07:10:50Z</time>
      </trkpt>
      <trkpt lat="45.82905" lon="3.32248">
        <ele>324.2</ele>
        <time>2024-05-19T07:10:51Z</time>
      </trkpt>
      <trkpt lat="45.82905" lon="3.32241">
        <ele>324.2</ele>
        <time>2024-05-19T07:10:52Z</time>
      </trkpt>
      <trkpt lat="45.82905" lon="3.32233">
        <ele>324.2</ele>
        <time>2024-05-19T07:10:53Z</time>
      </trkpt>
      <trkpt lat="45.82905" lon="3.32226">
        <ele>324.4</ele>
        <time>2024-05-19T07:10:54Z</time>
      </trkpt>
      <trkpt lat="45.82906" lon="3.32219">
        <ele>324.4</ele>
        <time>2024-05-19T07:10:55Z</time>
      </trkpt>
      <trkpt lat="45.82906" lon="3.32213">
        <ele>324.6</ele>
        <time>2024-05-19T07:10:56Z</time>
      </trkpt>
      <trkpt lat="45.82906" lon="3.32206">
        <ele>324.8</ele>
        <time>2024-05-19T07:10:57Z</time>
      </trkpt>
      <trkpt lat="45.82906" lon="3.322">
        <ele>324.8</ele>
        <time>2024-05-19T07:10:58Z</time>
      </trkpt>
      <trkpt lat="45.82906" lon="3.32193">
        <ele>325</ele>
        <time>2024-05-19T07:10:59Z</time>
      </trkpt>
      <trkpt lat="45.82907" lon="3.32187">
        <ele>325</ele>
        <time>2024-05-19T07:11:00Z</time>
      </trkpt>
      <trkpt lat="45.82907" lon="3.3218">
        <ele>325.2</ele>
        <time>2024-05-19T07:11:01Z</time>
      </trkpt>
      <trkpt lat="45.82907" lon="3.32174">
        <ele>325.2</ele>
        <time>2024-05-19T07:11:02Z</time>
      </trkpt>
      <trkpt lat="45.82907" lon="3.32168">
        <ele>325.4</ele>
        <time>2024-05-19T07:11:03Z</time>
      </trkpt>
      <trkpt lat="45.82907" lon="3.32161">
        <ele>325.4</ele>
        <time>2024-05-19T07:11:04Z</time>
      </trkpt>
      <trkpt lat="45.82908" lon="3.32154">
        <ele>325.6</ele>
        <time>2024-05-19T07:11:05Z</time>
      </trkpt>
      <trkpt lat="45.82908" lon="3.32148">
        <ele>325.8</ele>
        <time>2024-05-19T07:11:06Z</time>
      </trkpt>
      <trkpt lat="45.82908" lon="3.32142">
        <ele>326</ele>
        <time>2024-05-19T07:11:07Z</time>
      </trkpt>
      <trkpt lat="45.82908" lon="3.32137">
        <ele>326</ele>
        <time>2024-05-19T07:11:08Z</time>
      </trkpt>
      <trkpt lat="45.82908" lon="3.32131">
        <ele>326.2</ele>
        <time>2024-05-19T07:11:09Z</time>
      </trkpt>
      <trkpt lat="45.82909" lon="3.32124">
        <ele>326.4</ele>
        <time>2024-05-19T07:11:10Z</time>
      </trkpt>
      <trkpt lat="45.82909" lon="3.32118">
        <ele>326.4</ele>
        <time>2024-05-19T07:11:11Z</time>
      </trkpt>
      <trkpt lat="45.82909" lon="3.32113">
        <ele>326.4</ele>
        <time>2024-05-19T07:11:12Z</time>
      </trkpt>
      <trkpt lat="45.82909" lon="3.32107">
        <ele>326.6</ele>
        <time>2024-05-19T07:11:13Z</time>
      </trkpt>
      <trkpt lat="45.82909" lon="3.32101">
        <ele>326.8</ele>
        <time>2024-05-19T07:11:14Z</time>
      </trkpt>
      <trkpt lat="45.8291" lon="3.32095">
        <ele>326.8</ele>
        <time>2024-05-19T07:11:15Z</time>
      </trkpt>
      <trkpt lat="45.8291" lon="3.3209">
        <ele>327</ele>
        <time>2024-05-19T07:11:16Z</time>
      </trkpt>
      <trkpt lat="45.8291" lon="3.32085">
        <ele>327.2</ele>
        <time>2024-05-19T07:11:17Z</time>
      </trkpt>
      <trkpt lat="45.8291" lon="3.32079">
        <ele>327.2</ele>
        <time>2024-05-19T07:11:18Z</time>
      </trkpt>
      <trkpt lat="45.8291" lon="3.32074">
        <ele>327.4</ele>
        <time>2024-05-19T07:11:19Z</time>
      </trkpt>
      <trkpt lat="45.8291" lon="3.32068">
        <ele>327.6</ele>
        <time>2024-05-19T07:11:20Z</time>
      </trkpt>
      <trkpt lat="45.82911" lon="3.32063">
        <ele>327.6</ele>
        <time>2024-05-19T07:11:21Z</time>
      </trkpt>
      <trkpt lat="45.82911" lon="3.32058">
        <ele>327.8</ele>
        <time>2024-05-19T07:11:22Z</time>
      </trkpt>
      <trkpt lat="45.82911" lon="3.32053">
        <ele>328</ele>
        <time>2024-05-19T07:11:23Z</time>
      </trkpt>
      <trkpt lat="45.82911" lon="3.32047">
        <ele>328</ele>
        <time>2024-05-19T07:11:24Z</time>
      </trkpt>
      <trkpt lat="45.82911" lon="3.32041">
        <ele>328.2</ele>
        <time>2024-05-19T07:11:25Z</time>
      </trkpt>
      <trkpt lat="45.82911" lon="3.32035">
        <ele>328.4</ele>
        <time>2024-05-19T07:11:26Z</time>
      </trkpt>
      <trkpt lat="45.82912" lon="3.3203">
        <ele>328.4</ele>
        <time>2024-05-19T07:11:27Z</time>
      </trkpt>
      <trkpt lat="45.82912" lon="3.32024">
        <ele>328.6</ele>
        <time>2024-05-19T07:11:28Z</time>
      </trkpt>
      <trkpt lat="45.82912" lon="3.32018">
        <ele>328.8</ele>
        <time>2024-05-19T07:11:29Z</time>
      </trkpt>
      <trkpt lat="45.82912" lon="3.32012">
        <ele>329</ele>
        <time>2024-05-19T07:11:30Z</time>
      </trkpt>
      <trkpt lat="45.82912" lon="3.32006">
        <ele>329</ele>
        <time>2024-05-19T07:11:31Z</time>
      </trkpt>
      <trkpt lat="45.82913" lon="3.32">
        <ele>329.2</ele>
        <time>2024-05-19T07:11:32Z</time>
      </trkpt>
      <trkpt lat="45.82913" lon="3.31994">
        <ele>329.2</ele>
        <time>2024-05-19T07:11:33Z</time>
      </trkpt>
      <trkpt lat="45.82913" lon="3.31988">
        <ele>329.4</ele>
        <time>2024-05-19T07:11:34Z</time>
      </trkpt>
      <trkpt lat="45.82913" lon="3.31982">
        <ele>329.4</ele>
        <time>2024-05-19T07:11:35Z</time>
      </trkpt>
      <trkpt lat="45.82913" lon="3.31976">
        <ele>329.6</ele>
        <time>2024-05-19T07:11:36Z</time>
      </trkpt>
      <trkpt lat="45.82914" lon="3.3197">
        <ele>329.6</ele>
        <time>2024-05-19T07:11:37Z</time>
      </trkpt>
      <trkpt lat="45.82914" lon="3.31963">
        <ele>329.8</ele>
        <time>2024-05-19T07:11:38Z</time>
      </trkpt>
      <trkpt lat="45.82914" lon="3.31957">
        <ele>329.8</ele>
        <time>2024-05-19T07:11:39Z</time>
      </trkpt>
      <trkpt lat="45.82914" lon="3.31951">
        <ele>330</ele>
        <time>2024-05-19T07:11:40Z</time>
      </trkpt>
      <trkpt lat="45.82914" lon="3.31945">
        <ele>330</ele>
        <time>2024-05-19T07:11:41Z</time>
      </trkpt>
      <trkpt lat="45.82915" lon="3.31939">
        <ele>330.2</ele>
        <time>2024-05-19T07:11:42Z</time>
      </trkpt>
      <trkpt lat="45.82915" lon="3.31932">
        <ele>330.2</ele>
        <time>2024-05-19T07:11:43Z</time>
      </trkpt>
      <trkpt lat="45.82915" lon="3.31926">
        <ele>330.4</ele>
        <time>2024-05-19T07:11:44Z</time>
      </trkpt>
      <trkpt lat="45.82915" lon="3.31919">
        <ele>330.4</ele>
        <time>2024-05-19T07:11:45Z</time>
      </trkpt>
      <trkpt lat="45.82915" lon="3.31912">
        <ele>330.6</ele>
        <time>2024-05-19T07:11:46Z</time>
      </trkpt>
      <trkpt lat="45.82915" lon="3.31904">
        <ele>330.6</ele>
        <time>2024-05-19T07:11:47Z</time>
      </trkpt>
      <trkpt lat="45.82916" lon="3.31897">
        <ele>330.6</ele>
        <time>2024-05-19T07:11:48Z</time>
      </trkpt>
      <trkpt lat="45.82916" lon="3.3189">
        <ele>330.8</ele>
        <time>2024-05-19T07:11:49Z</time>
      </trkpt>
      <trkpt lat="45.82916" lon="3.31882">
        <ele>330.8</ele>
        <time>2024-05-19T07:11:50Z</time>
      </trkpt>
      <trkpt lat="45.82916" lon="3.31874">
        <ele>330.8</ele>
        <time>2024-05-19T07:11:51Z</time>
      </trkpt>
      <trkpt lat="45.82916" lon="3.31867">
        <ele>331</ele>
        <time>2024-05-19T07:11:52Z</time>
      </trkpt>
      <trkpt lat="45.82916" lon="3.31859">
        <ele>331.2</ele>
        <time>2024-05-19T07:11:53Z</time>
      </trkpt>
      <trkpt lat="45.82917" lon="3.3185">
        <ele>331.2</ele>
        <time>2024-05-19T07:11:54Z</time>
      </trkpt>
      <trkpt lat="45.82917" lon="3.31842">
        <ele>331.2</ele>
        <time>2024-05-19T07:11:55Z</time>
      </trkpt>
      <trkpt lat="45.82917" lon="3.31835">
        <ele>331.4</ele>
        <time>2024-05-19T07:11:56Z</time>
      </trkpt>
      <trkpt lat="45.82917" lon="3.31827">
        <ele>331.4</ele>
        <time>2024-05-19T07:11:57Z</time>
      </trkpt>
      <trkpt lat="45.82917" lon="3.31819">
        <ele>331.4</ele>
        <time>2024-05-19T07:11:58Z</time>
      </trkpt>
      <trkpt lat="45.82917" lon="3.31811">
        <ele>331.4</ele>
        <time>2024-05-19T07:11:59Z</time>
      </trkpt>
      <trkpt lat="45.82918" lon="3.31803">
        <ele>331.6</ele>
        <time>2024-05-19T07:12:00Z</time>
      </trkpt>
      <trkpt lat="45.82918" lon="3.31796">
        <ele>331.6</ele>
        <time>2024-05-19T07:12:01Z</time>
      </trkpt>
      <trkpt lat="45.82918" lon="3.31788">
        <ele>331.6</ele>
        <time>2024-05-19T07:12:02Z</time>
      </trkpt>
      <trkpt lat="45.82918" lon="3.31781">
        <ele>331.8</ele>
        <time>2024-05-19T07:12:03Z</time>
      </trkpt>
      <trkpt lat="45.82918" lon="3.31773">
        <ele>331.8</ele>
        <time>2024-05-19T07:12:04Z</time>
      </trkpt>
      <trkpt lat="45.82919" lon="3.31765">
        <ele>331.8</ele>
        <time>2024-05-19T07:12:05Z</time>
      </trkpt>
      <trkpt lat="45.82919" lon="3.31757">
        <ele>332</ele>
        <time>2024-05-19T07:12:06Z</time>
      </trkpt>
      <trkpt lat="45.82919" lon="3.31749">
        <ele>332.2</ele>
        <time>2024-05-19T07:12:07Z</time>
      </trkpt>
      <trkpt lat="45.82919" lon="3.31741">
        <ele>332.2</ele>
        <time>2024-05-19T07:12:08Z</time>
      </trkpt>
      <trkpt lat="45.82919" lon="3.31734">
        <ele>332.4</ele>
        <time>2024-05-19T07:12:09Z</time>
      </trkpt>
      <trkpt lat="45.82919" lon="3.31726">
        <ele>332.4</ele>
        <time>2024-05-19T07:12:10Z</time>
      </trkpt>
      <trkpt lat="45.8292" lon="3.31719">
        <ele>332.4</ele>
        <time>2024-05-19T07:12:11Z</time>
      </trkpt>
      <trkpt lat="45.8292" lon="3.31711">
        <ele>332.6</ele>
        <time>2024-05-19T07:12:12Z</time>
      </trkpt>
      <trkpt lat="45.8292" lon="3.31704">
        <ele>332.8</ele>
        <time>2024-05-19T07:12:13Z</time>
      </trkpt>
      <trkpt lat="45.8292" lon="3.31697">
        <ele>332.8</ele>
        <time>2024-05-19T07:12:14Z</time>
      </trkpt>
      <trkpt lat="45.8292" lon="3.3169">
        <ele>333</ele>
        <time>2024-05-19T07:12:15Z</time>
      </trkpt>
      <trkpt lat="45.8292" lon="3.31683">
        <ele>333</ele>
        <time>2024-05-19T07:12:16Z</time>
      </trkpt>
      <trkpt lat="45.8292" lon="3.31677">
        <ele>333.2</ele>
        <time>2024-05-19T07:12:17Z</time>
      </trkpt>
      <trkpt lat="45.82921" lon="3.3167">
        <ele>333.4</ele>
        <time>2024-05-19T07:12:18Z</time>
      </trkpt>
      <trkpt lat="45.82921" lon="3.31663">
        <ele>333.4</ele>
        <time>2024-05-19T07:12:19Z</time>
      </trkpt>
      <trkpt lat="45.82921" lon="3.31657">
        <ele>333.6</ele>
        <time>2024-05-19T07:12:20Z</time>
      </trkpt>
      <trkpt lat="45.82921" lon="3.3165">
        <ele>333.6</ele>
        <time>2024-05-19T07:12:21Z</time>
      </trkpt>
      <trkpt lat="45.8292" lon="3.31644">
        <ele>333.8</ele>
        <time>2024-05-19T07:12:22Z</time>
      </trkpt>
      <trkpt lat="45.8292" lon="3.31638">
        <ele>333.8</ele>
        <time>2024-05-19T07:12:23Z</time>
      </trkpt>
      <trkpt lat="45.8292" lon="3.31632">
        <ele>334</ele>
        <time>2024-05-19T07:12:24Z</time>
      </trkpt>
      <trkpt lat="45.82919" lon="3.31626">
        <ele>334.2</ele>
        <time>2024-05-19T07:12:25Z</time>
      </trkpt>
      <trkpt lat="45.82919" lon="3.3162">
        <ele>334.2</ele>
        <time>2024-05-19T07:12:26Z</time>
      </trkpt>
      <trkpt lat="45.82918" lon="3.31614">
        <ele>334.4</ele>
        <time>2024-05-19T07:12:27Z</time>
      </trkpt>
      <trkpt lat="45.82918" lon="3.31608">
        <ele>334.6</ele>
        <time>2024-05-19T07:12:28Z</time>
      </trkpt>
      <trkpt lat="45.82918" lon="3.31603">
        <ele>334.6</ele>
        <time>2024-05-19T07:12:29Z</time>
      </trkpt>
      <trkpt lat="45.82917" lon="3.31597">
        <ele>334.8</ele>
        <time>2024-05-19T07:12:30Z</time>
      </trkpt>
      <trkpt lat="45.82917" lon="3.31591">
        <ele>334.8</ele>
        <time>2024-05-19T07:12:31Z</time>
      </trkpt>
      <trkpt lat="45.82916" lon="3.31585">
        <ele>335</ele>
        <time>2024-05-19T07:12:32Z</time>
      </trkpt>
      <trkpt lat="45.82915" lon="3.31579">
        <ele>335</ele>
        <time>2024-05-19T07:12:33Z</time>
      </trkpt>
      <trkpt lat="45.82914" lon="3.31573">
        <ele>335.2</ele>
        <time>2024-05-19T07:12:34Z</time>
      </trkpt>
      <trkpt lat="45.82913" lon="3.31568">
        <ele>335.4</ele>
        <time>2024-05-19T07:12:35Z</time>
      </trkpt>
      <trkpt lat="45.82913" lon="3.31562">
        <ele>335.6</ele>
        <time>2024-05-19T07:12:36Z</time>
      </trkpt>
      <trkpt lat="45.82912" lon="3.31556">
        <ele>335.6</ele>
        <time>2024-05-19T07:12:37Z</time>
      </trkpt>
      <trkpt lat="45.82911" lon="3.31551">
        <ele>335.8</ele>
        <time>2024-05-19T07:12:38Z</time>
      </trkpt>
      <trkpt lat="45.8291" lon="3.31545">
        <ele>335.8</ele>
        <time>2024-05-19T07:12:39Z</time>
      </trkpt>
      <trkpt lat="45.8291" lon="3.3154">
        <ele>336</ele>
        <time>2024-05-19T07:12:40Z</time>
      </trkpt>
      <trkpt lat="45.82909" lon="3.31534">
        <ele>336.2</ele>
        <time>2024-05-19T07:12:41Z</time>
      </trkpt>
      <trkpt lat="45.82908" lon="3.31529">
        <ele>336.4</ele>
        <time>2024-05-19T07:12:42Z</time>
      </trkpt>
      <trkpt lat="45.82907" lon="3.31524">
        <ele>336.4</ele>
        <time>2024-05-19T07:12:43Z</time>
      </trkpt>
      <trkpt lat="45.82907" lon="3.31518">
        <ele>336.6</ele>
        <time>2024-05-19T07:12:44Z</time>
      </trkpt>
      <trkpt lat="45.82906" lon="3.31513">
        <ele>336.8</ele>
        <time>2024-05-19T07:12:45Z</time>
      </trkpt>
      <trkpt lat="45.82905" lon="3.31508">
        <ele>337</ele>
        <time>2024-05-19T07:12:46Z</time>
      </trkpt>
      <trkpt lat="45.82904" lon="3.31503">
        <ele>337</ele>
        <time>2024-05-19T07:12:47Z</time>
      </trkpt>
      <trkpt lat="45.82904" lon="3.31497">
        <ele>337.2</ele>
        <time>2024-05-19T07:12:48Z</time>
      </trkpt>
      <trkpt lat="45.82903" lon="3.31492">
        <ele>337.4</ele>
        <time>2024-05-19T07:12:49Z</time>
      </trkpt>
      <trkpt lat="45.82902" lon="3.31487">
        <ele>337.4</ele>
        <time>2024-05-19T07:12:50Z</time>
      </trkpt>
      <trkpt lat="45.82902" lon="3.31482">
        <ele>337.6</ele>
        <time>2024-05-19T07:12:51Z</time>
      </trkpt>
      <trkpt lat="45.82901" lon="3.31477">
        <ele>337.8</ele>
        <time>2024-05-19T07:12:52Z</time>
      </trkpt>
      <trkpt lat="45.829" lon="3.31472">
        <ele>337.8</ele>
        <time>2024-05-19T07:12:53Z</time>
      </trkpt>
      <trkpt lat="45.829" lon="3.31467">
        <ele>338</ele>
        <time>2024-05-19T07:12:54Z</time>
      </trkpt>
      <trkpt lat="45.82899" lon="3.31462">
        <ele>338.2</ele>
        <time>2024-05-19T07:12:55Z</time>
      </trkpt>
      <trkpt lat="45.82898" lon="3.31457">
        <ele>338.2</ele>
        <time>2024-05-19T07:12:56Z</time>
      </trkpt>
      <trkpt lat="45.82897" lon="3.31452">
        <ele>338.4</ele>
        <time>2024-05-19T07:12:57Z</time>
      </trkpt>
      <trkpt lat="45.82897" lon="3.31447">
        <ele>338.6</ele>
        <time>2024-05-19T07:12:58Z</time>
      </trkpt>
      <trkpt lat="45.82896" lon="3.31442">
        <ele>338.6</ele>
        <time>2024-05-19T07:12:59Z</time>
      </trkpt>
      <trkpt lat="45.82896" lon="3.31438">
        <ele>338.8</ele>
        <time>2024-05-19T07:13:00Z</time>
      </trkpt>
      <trkpt lat="45.82895" lon="3.31432">
        <ele>339</ele>
        <time>2024-05-19T07:13:01Z</time>
      </trkpt>
      <trkpt lat="45.82895" lon="3.31427">
        <ele>339</ele>
        <time>2024-05-19T07:13:02Z</time>
      </trkpt>
      <trkpt lat="45.82894" lon="3.31422">
        <ele>339.2</ele>
        <time>2024-05-19T07:13:03Z</time>
      </trkpt>
      <trkpt lat="45.82894" lon="3.31416">
        <ele>339.4</ele>
        <time>2024-05-19T07:13:04Z</time>
      </trkpt>
      <trkpt lat="45.82893" lon="3.31411">
        <ele>339.4</ele>
        <time>2024-05-19T07:13:05Z</time>
      </trkpt>
      <trkpt lat="45.82892" lon="3.31405">
        <ele>339.6</ele>
        <time>2024-05-19T07:13:06Z</time>
      </trkpt>
      <trkpt lat="45.82892" lon="3.314">
        <ele>339.6</ele>
        <time>2024-05-19T07:13:07Z</time>
      </trkpt>
      <trkpt lat="45.82891" lon="3.31394">
        <ele>339.8</ele>
        <time>2024-05-19T07:13:08Z</time>
      </trkpt>
      <trkpt lat="45.82891" lon="3.31389">
        <ele>340</ele>
        <time>2024-05-19T07:13:09Z</time>
      </trkpt>
      <trkpt lat="45.8289" lon="3.31383">
        <ele>340.2</ele>
        <time>2024-05-19T07:13:10Z</time>
      </trkpt>
      <trkpt lat="45.8289" lon="3.31378">
        <ele>340.2</ele>
        <time>2024-05-19T07:13:11Z</time>
      </trkpt>
      <trkpt lat="45.82889" lon="3.31373">
        <ele>340.4</ele>
        <time>2024-05-19T07:13:12Z</time>
      </trkpt>
      <trkpt lat="45.8289" lon="3.31367">
        <ele>340.4</ele>
        <time>2024-05-19T07:13:13Z</time>
      </trkpt>
      <trkpt lat="45.8289" lon="3.31361">
        <ele>340.6</ele>
        <time>2024-05-19T07:13:14Z</time>
      </trkpt>
      <trkpt lat="45.82891" lon="3.31356">
        <ele>340.8</ele>
        <time>2024-05-19T07:13:15Z</time>
      </trkpt>
      <trkpt lat="45.82892" lon="3.31351">
        <ele>341</ele>
        <time>2024-05-19T07:13:16Z</time>
      </trkpt>
      <trkpt lat="45.82893" lon="3.31346">
        <ele>341</ele>
        <time>2024-05-19T07:13:17Z</time>
      </trkpt>
      <trkpt lat="45.82894" lon="3.3134">
        <ele>341.2</ele>
        <time>2024-05-19T07:13:18Z</time>
      </trkpt>
      <trkpt lat="45.82895" lon="3.31335">
        <ele>341.4</ele>
        <time>2024-05-19T07:13:19Z</time>
      </trkpt>
      <trkpt lat="45.82896" lon="3.3133">
        <ele>341.6</ele>
        <time>2024-05-19T07:13:20Z</time>
      </trkpt>
      <trkpt lat="45.82897" lon="3.31324">
        <ele>341.6</ele>
        <time>2024-05-19T07:13:21Z</time>
      </trkpt>
      <trkpt lat="45.82898" lon="3.31318">
        <ele>341.8</ele>
        <time>2024-05-19T07:13:22Z</time>
      </trkpt>
      <trkpt lat="45.82899" lon="3.31312">
        <ele>342</ele>
        <time>2024-05-19T07:13:23Z</time>
      </trkpt>
      <trkpt lat="45.829" lon="3.31306">
        <ele>342</ele>
        <time>2024-05-19T07:13:24Z</time>
      </trkpt>
      <trkpt lat="45.82901" lon="3.31301">
        <ele>342.2</ele>
        <time>2024-05-19T07:13:25Z</time>
      </trkpt>
      <trkpt lat="45.82902" lon="3.31294">
        <ele>342.4</ele>
        <time>2024-05-19T07:13:26Z</time>
      </trkpt>
      <trkpt lat="45.82903" lon="3.31288">
        <ele>342.4</ele>
        <time>2024-05-19T07:13:27Z</time>
      </trkpt>
      <trkpt lat="45.82905" lon="3.31282">
        <ele>342.6</ele>
        <time>2024-05-19T07:13:28Z</time>
      </trkpt>
      <trkpt lat="45.82906" lon="3.31276">
        <ele>342.6</ele>
        <time>2024-05-19T07:13:29Z</time>
      </trkpt>
      <trkpt lat="45.82908" lon="3.31269">
        <ele>342.8</ele>
        <time>2024-05-19T07:13:30Z</time>
      </trkpt>
      <trkpt lat="45.8291" lon="3.31263">
        <ele>342.8</ele>
        <time>2024-05-19T07:13:31Z</time>
      </trkpt>
      <trkpt lat="45.82912" lon="3.31257">
        <ele>343</ele>
        <time>2024-05-19T07:13:32Z</time>
      </trkpt>
      <trkpt lat="45.82914" lon="3.3125">
        <ele>343</ele>
        <time>2024-05-19T07:13:33Z</time>
      </trkpt>
      <trkpt lat="45.82915" lon="3.31243">
        <ele>343</ele>
        <time>2024-05-19T07:13:34Z</time>
      </trkpt>
      <trkpt lat="45.82917" lon="3.31235">
        <ele>343.2</ele>
        <time>2024-05-19T07:13:35Z</time>
      </trkpt>
      <trkpt lat="45.8292" lon="3.31228">
        <ele>343.2</ele>
        <time>2024-05-19T07:13:36Z</time>
      </trkpt>
      <trkpt lat="45.82922" lon="3.3122">
        <ele>343.4</ele>
        <time>2024-05-19T07:13:37Z</time>
      </trkpt>
      <trkpt lat="45.82924" lon="3.31211">
        <ele>343.4</ele>
        <time>2024-05-19T07:13:38Z</time>
      </trkpt>
      <trkpt lat="45.82926" lon="3.31203">
        <ele>343.6</ele>
        <time>2024-05-19T07:13:39Z</time>
      </trkpt>
      <trkpt lat="45.82929" lon="3.31193">
        <ele>343.6</ele>
        <time>2024-05-19T07:13:40Z</time>
      </trkpt>
      <trkpt lat="45.82931" lon="3.31185">
        <ele>343.6</ele>
        <time>2024-05-19T07:13:41Z</time>
      </trkpt>
      <trkpt lat="45.82934" lon="3.31175">
        <ele>343.6</ele>
        <time>2024-05-19T07:13:42Z</time>
      </trkpt>
      <trkpt lat="45.82936" lon="3.31166">
        <ele>343.6</ele>
        <time>2024-05-19T07:13:43Z</time>
      </trkpt>
      <trkpt lat="45.82939" lon="3.31156">
        <ele>343.6</ele>
        <time>2024-05-19T07:13:44Z</time>
      </trkpt>
      <trkpt lat="45.82941" lon="3.31145">
        <ele>343.6</ele>
        <time>2024-05-19T07:13:45Z</time>
      </trkpt>
      <trkpt lat="45.82944" lon="3.31134">
        <ele>343.8</ele>
        <time>2024-05-19T07:13:46Z</time>
      </trkpt>
      <trkpt lat="45.82946" lon="3.31123">
        <ele>343.8</ele>
        <time>2024-05-19T07:13:47Z</time>
      </trkpt>
      <trkpt lat="45.82949" lon="3.31111">
        <ele>343.6</ele>
        <time>2024-05-19T07:13:48Z</time>
      </trkpt>
      <trkpt lat="45.82951" lon="3.311">
        <ele>343.6</ele>
        <time>2024-05-19T07:13:49Z</time>
      </trkpt>
      <trkpt lat="45.82954" lon="3.31088">
        <ele>343.6</ele>
        <time>2024-05-19T07:13:50Z</time>
      </trkpt>
      <trkpt lat="45.82957" lon="3.31076">
        <ele>343.6</ele>
        <time>2024-05-19T07:13:51Z</time>
      </trkpt>
      <trkpt lat="45.8296" lon="3.31064">
        <ele>343.4</ele>
        <time>2024-05-19T07:13:52Z</time>
      </trkpt>
      <trkpt lat="45.82962" lon="3.31051">
        <ele>343.4</ele>
        <time>2024-05-19T07:13:53Z</time>
      </trkpt>
      <trkpt lat="45.82964" lon="3.31037">
        <ele>343.4</ele>
        <time>2024-05-19T07:13:54Z</time>
      </trkpt>
      <trkpt lat="45.82964" lon="3.31024">
        <ele>344.2</ele>
        <time>2024-05-19T07:13:55Z</time>
      </trkpt>
      <trkpt lat="45.82964" lon="3.31011">
        <ele>343.6</ele>
        <time>2024-05-19T07:13:56Z</time>
      </trkpt>
      <trkpt lat="45.82964" lon="3.30997">
        <ele>343.2</ele>
        <time>2024-05-19T07:13:57Z</time>
      </trkpt>
      <trkpt lat="45.82962" lon="3.30984">
        <ele>342.6</ele>
        <time>2024-05-19T07:13:58Z</time>
      </trkpt>
      <trkpt lat="45.8296" lon="3.3097">
        <ele>343</ele>
        <time>2024-05-19T07:13:59Z</time>
      </trkpt>
      <trkpt lat="45.82957" lon="3.30957">
        <ele>342.8</ele>
        <time>2024-05-19T07:14:00Z</time>
      </trkpt>
      <trkpt lat="45.82955" lon="3.30943">
        <ele>342.8</ele>
        <time>2024-05-19T07:14:01Z</time>
      </trkpt>
      <trkpt lat="45.82953" lon="3.30929">
        <ele>342.6</ele>
        <time>2024-05-19T07:14:02Z</time>
      </trkpt>
      <trkpt lat="45.8295" lon="3.30916">
        <ele>342.4</ele>
        <time>2024-05-19T07:14:03Z</time>
      </trkpt>
      <trkpt lat="45.82948" lon="3.30902">
        <ele>342.4</ele>
        <time>2024-05-19T07:14:04Z</time>
      </trkpt>
      <trkpt lat="45.82946" lon="3.30888">
        <ele>342.2</ele>
        <time>2024-05-19T07:14:05Z</time>
      </trkpt>
      <trkpt lat="45.82944" lon="3.30874">
        <ele>342</ele>
        <time>2024-05-19T07:14:06Z</time>
      </trkpt>
      <trkpt lat="45.82943" lon="3.3086">
        <ele>342</ele>
        <time>2024-05-19T07:14:07Z</time>
      </trkpt>
      <trkpt lat="45.82942" lon="3.30846">
        <ele>341.8</ele>
        <time>2024-05-19T07:14:08Z</time>
      </trkpt>
      <trkpt lat="45.82941" lon="3.30832">
        <ele>341.8</ele>
        <time>2024-05-19T07:14:09Z</time>
      </trkpt>
      <trkpt lat="45.8294" lon="3.30818">
        <ele>341.6</ele>
        <time>2024-05-19T07:14:10Z</time>
      </trkpt>
      <trkpt lat="45.82939" lon="3.30806">
        <ele>341.4</ele>
        <time>2024-05-19T07:14:11Z</time>
      </trkpt>
      <trkpt lat="45.82938" lon="3.30794">
        <ele>341.4</ele>
        <time>2024-05-19T07:14:12Z</time>
      </trkpt>
      <trkpt lat="45.82937" lon="3.30782">
        <ele>341.4</ele>
        <time>2024-05-19T07:14:13Z</time>
      </trkpt>
      <trkpt lat="45.82937" lon="3.30772">
        <ele>341.2</ele>
        <time>2024-05-19T07:14:14Z</time>
      </trkpt>
      <trkpt lat="45.82938" lon="3.30761">
        <ele>341.2</ele>
        <time>2024-05-19T07:14:15Z</time>
      </trkpt>
      <trkpt lat="45.82941" lon="3.30754">
        <ele>341</ele>
        <time>2024-05-19T07:14:16Z</time>
      </trkpt>
      <trkpt lat="45.82944" lon="3.30747">
        <ele>340.8</ele>
        <time>2024-05-19T07:14:17Z</time>
      </trkpt>
      <trkpt lat="45.82947" lon="3.30741">
        <ele>340.8</ele>
        <time>2024-05-19T07:14:18Z</time>
      </trkpt>
      <trkpt lat="45.82945" lon="3.30729">
        <ele>340.6</ele>
        <time>2024-05-19T07:14:19Z</time>
      </trkpt>
      <trkpt lat="45.82942" lon="3.30723">
        <ele>340.6</ele>
        <time>2024-05-19T07:14:20Z</time>
      </trkpt>
      <trkpt lat="45.82938" lon="3.30716">
        <ele>340.4</ele>
        <time>2024-05-19T07:14:21Z</time>
      </trkpt>
      <trkpt lat="45.82935" lon="3.3071">
        <ele>340.4</ele>
        <time>2024-05-19T07:14:22Z</time>
      </trkpt>
      <trkpt lat="45.82931" lon="3.30704">
        <ele>340.2</ele>
        <time>2024-05-19T07:14:23Z</time>
      </trkpt>
      <trkpt lat="45.82928" lon="3.30699">
        <ele>340.2</ele>
        <time>2024-05-19T07:14:24Z</time>
      </trkpt>
      <trkpt lat="45.82925" lon="3.30693">
        <ele>340.2</ele>
        <time>2024-05-19T07:14:25Z</time>
      </trkpt>
      <trkpt lat="45.82922" lon="3.30688">
        <ele>340.2</ele>
        <time>2024-05-19T07:14:26Z</time>
      </trkpt>
      <trkpt lat="45.82919" lon="3.30683">
        <ele>340.2</ele>
        <time>2024-05-19T07:14:27Z</time>
      </trkpt>
      <trkpt lat="45.82916" lon="3.30677">
        <ele>340.2</ele>
        <time>2024-05-19T07:14:28Z</time>
      </trkpt>
      <trkpt lat="45.82913" lon="3.30672">
        <ele>340.2</ele>
        <time>2024-05-19T07:14:29Z</time>
      </trkpt>
      <trkpt lat="45.8291" lon="3.30667">
        <ele>340.2</ele>
        <time>2024-05-19T07:14:30Z</time>
      </trkpt>
      <trkpt lat="45.82907" lon="3.30661">
        <ele>340.2</ele>
        <time>2024-05-19T07:14:31Z</time>
      </trkpt>
      <trkpt lat="45.82904" lon="3.30656">
        <ele>340.2</ele>
        <time>2024-05-19T07:14:32Z</time>
      </trkpt>
      <trkpt lat="45.82902" lon="3.30651">
        <ele>340.2</ele>
        <time>2024-05-19T07:14:33Z</time>
      </trkpt>
      <trkpt lat="45.82899" lon="3.30646">
        <ele>340.2</ele>
        <time>2024-05-19T07:14:34Z</time>
      </trkpt>
      <trkpt lat="45.82896" lon="3.30641">
        <ele>340.2</ele>
        <time>2024-05-19T07:14:35Z</time>
      </trkpt>
      <trkpt lat="45.82893" lon="3.30636">
        <ele>340.2</ele>
        <time>2024-05-19T07:14:36Z</time>
      </trkpt>
      <trkpt lat="45.8289" lon="3.30631">
        <ele>340.4</ele>
        <time>2024-05-19T07:14:37Z</time>
      </trkpt>
      <trkpt lat="45.82887" lon="3.30625">
        <ele>340.4</ele>
        <time>2024-05-19T07:14:38Z</time>
      </trkpt>
      <trkpt lat="45.82884" lon="3.3062">
        <ele>340.4</ele>
        <time>2024-05-19T07:14:39Z</time>
      </trkpt>
      <trkpt lat="45.82881" lon="3.30615">
        <ele>339.8</ele>
        <time>2024-05-19T07:14:40Z</time>
      </trkpt>
      <trkpt lat="45.82878" lon="3.3061">
        <ele>340.4</ele>
        <time>2024-05-19T07:14:41Z</time>
      </trkpt>
      <trkpt lat="45.82875" lon="3.30605">
        <ele>340.8</ele>
        <time>2024-05-19T07:14:42Z</time>
      </trkpt>
      <trkpt lat="45.82873" lon="3.306">
        <ele>341</ele>
        <time>2024-05-19T07:14:43Z</time>
      </trkpt>
      <trkpt lat="45.8287" lon="3.30594">
        <ele>341.2</ele>
        <time>2024-05-19T07:14:44Z</time>
      </trkpt>
      <trkpt lat="45.82867" lon="3.3059">
        <ele>340.8</ele>
        <time>2024-05-19T07:14:45Z</time>
      </trkpt>
      <trkpt lat="45.82864" lon="3.30585">
        <ele>340.8</ele>
        <time>2024-05-19T07:14:46Z</time>
      </trkpt>
      <trkpt lat="45.82862" lon="3.3058">
        <ele>340.8</ele>
        <time>2024-05-19T07:14:47Z</time>
      </trkpt>
      <trkpt lat="45.82859" lon="3.30576">
        <ele>340.8</ele>
        <time>2024-05-19T07:14:48Z</time>
      </trkpt>
      <trkpt lat="45.82857" lon="3.3057">
        <ele>340.8</ele>
        <time>2024-05-19T07:14:49Z</time>
      </trkpt>
      <trkpt lat="45.82856" lon="3.30564">
        <ele>340.8</ele>
        <time>2024-05-19T07:14:50Z</time>
      </trkpt>
      <trkpt lat="45.82854" lon="3.30559">
        <ele>340.8</ele>
        <time>2024-05-19T07:14:51Z</time>
      </trkpt>
      <trkpt lat="45.82852" lon="3.30553">
        <ele>340.8</ele>
        <time>2024-05-19T07:14:52Z</time>
      </trkpt>
      <trkpt lat="45.8285" lon="3.30547">
        <ele>341</ele>
        <time>2024-05-19T07:14:53Z</time>
      </trkpt>
      <trkpt lat="45.82849" lon="3.30541">
        <ele>341</ele>
        <time>2024-05-19T07:14:54Z</time>
      </trkpt>
      <trkpt lat="45.82847" lon="3.30535">
        <ele>341</ele>
        <time>2024-05-19T07:14:55Z</time>
      </trkpt>
      <trkpt lat="45.82845" lon="3.30529">
        <ele>341</ele>
        <time>2024-05-19T07:14:56Z</time>
      </trkpt>
      <trkpt lat="45.82843" lon="3.30523">
        <ele>341</ele>
        <time>2024-05-19T07:14:57Z</time>
      </trkpt>
      <trkpt lat="45.82841" lon="3.30517">
        <ele>341.2</ele>
        <time>2024-05-19T07:14:58Z</time>
      </trkpt>
      <trkpt lat="45.82839" lon="3.30511">
        <ele>341.2</ele>
        <time>2024-05-19T07:14:59Z</time>
      </trkpt>
      <trkpt lat="45.82838" lon="3.30505">
        <ele>341.2</ele>
        <time>2024-05-19T07:15:00Z</time>
      </trkpt>
      <trkpt lat="45.82836" lon="3.305">
        <ele>341.4</ele>
        <time>2024-05-19T07:15:01Z</time>
      </trkpt>
      <trkpt lat="45.82834" lon="3.30494">
        <ele>341.4</ele>
        <time>2024-05-19T07:15:02Z</time>
      </trkpt>
      <trkpt lat="45.82832" lon="3.30488">
        <ele>341.6</ele>
        <time>2024-05-19T07:15:03Z</time>
      </trkpt>
      <trkpt lat="45.8283" lon="3.30482">
        <ele>341.6</ele>
        <time>2024-05-19T07:15:04Z</time>
      </trkpt>
      <trkpt lat="45.82829" lon="3.30476">
        <ele>341.6</ele>
        <time>2024-05-19T07:15:05Z</time>
      </trkpt>
      <trkpt lat="45.82827" lon="3.30469">
        <ele>341.6</ele>
        <time>2024-05-19T07:15:06Z</time>
      </trkpt>
      <trkpt lat="45.82825" lon="3.30463">
        <ele>341.8</ele>
        <time>2024-05-19T07:15:07Z</time>
      </trkpt>
      <trkpt lat="45.82823" lon="3.30456">
        <ele>341.8</ele>
        <time>2024-05-19T07:15:08Z</time>
      </trkpt>
      <trkpt lat="45.82821" lon="3.3045">
        <ele>341.8</ele>
        <time>2024-05-19T07:15:09Z</time>
      </trkpt>
      <trkpt lat="45.82819" lon="3.30444">
        <ele>341.8</ele>
        <time>2024-05-19T07:15:10Z</time>
      </trkpt>
      <trkpt lat="45.82817" lon="3.30438">
        <ele>342</ele>
        <time>2024-05-19T07:15:11Z</time>
      </trkpt>
      <trkpt lat="45.82815" lon="3.30432">
        <ele>342</ele>
        <time>2024-05-19T07:15:12Z</time>
      </trkpt>
      <trkpt lat="45.82813" lon="3.30426">
        <ele>342</ele>
        <time>2024-05-19T07:15:13Z</time>
      </trkpt>
      <trkpt lat="45.82811" lon="3.30419">
        <ele>342</ele>
        <time>2024-05-19T07:15:14Z</time>
      </trkpt>
      <trkpt lat="45.8281" lon="3.30413">
        <ele>342.2</ele>
        <time>2024-05-19T07:15:15Z</time>
      </trkpt>
      <trkpt lat="45.82808" lon="3.30407">
        <ele>342.2</ele>
        <time>2024-05-19T07:15:16Z</time>
      </trkpt>
      <trkpt lat="45.82806" lon="3.30401">
        <ele>342.2</ele>
        <time>2024-05-19T07:15:17Z</time>
      </trkpt>
      <trkpt lat="45.82803" lon="3.30396">
        <ele>342.4</ele>
        <time>2024-05-19T07:15:18Z</time>
      </trkpt>
      <trkpt lat="45.82799" lon="3.3039">
        <ele>342.4</ele>
        <time>2024-05-19T07:15:19Z</time>
      </trkpt>
      <trkpt lat="45.82796" lon="3.30386">
        <ele>342.6</ele>
        <time>2024-05-19T07:15:20Z</time>
      </trkpt>
      <trkpt lat="45.82793" lon="3.30381">
        <ele>342.6</ele>
        <time>2024-05-19T07:15:21Z</time>
      </trkpt>
      <trkpt lat="45.82789" lon="3.30376">
        <ele>342.6</ele>
        <time>2024-05-19T07:15:22Z</time>
      </trkpt>
      <trkpt lat="45.82786" lon="3.3037">
        <ele>342.6</ele>
        <time>2024-05-19T07:15:23Z</time>
      </trkpt>
      <trkpt lat="45.82782" lon="3.30365">
        <ele>342.6</ele>
        <time>2024-05-19T07:15:24Z</time>
      </trkpt>
      <trkpt lat="45.82779" lon="3.3036">
        <ele>342.8</ele>
        <time>2024-05-19T07:15:25Z</time>
      </trkpt>
      <trkpt lat="45.82775" lon="3.30356">
        <ele>342.8</ele>
        <time>2024-05-19T07:15:26Z</time>
      </trkpt>
      <trkpt lat="45.82771" lon="3.30351">
        <ele>342.8</ele>
        <time>2024-05-19T07:15:27Z</time>
      </trkpt>
      <trkpt lat="45.82767" lon="3.30347">
        <ele>343</ele>
        <time>2024-05-19T07:15:28Z</time>
      </trkpt>
      <trkpt lat="45.82763" lon="3.30342">
        <ele>343</ele>
        <time>2024-05-19T07:15:29Z</time>
      </trkpt>
      <trkpt lat="45.82759" lon="3.30338">
        <ele>343</ele>
        <time>2024-05-19T07:15:30Z</time>
      </trkpt>
      <trkpt lat="45.82755" lon="3.30334">
        <ele>343</ele>
        <time>2024-05-19T07:15:31Z</time>
      </trkpt>
      <trkpt lat="45.82752" lon="3.30329">
        <ele>343.2</ele>
        <time>2024-05-19T07:15:32Z</time>
      </trkpt>
      <trkpt lat="45.82748" lon="3.30325">
        <ele>343.2</ele>
        <time>2024-05-19T07:15:33Z</time>
      </trkpt>
      <trkpt lat="45.82744" lon="3.30321">
        <ele>343.4</ele>
        <time>2024-05-19T07:15:34Z</time>
      </trkpt>
      <trkpt lat="45.82741" lon="3.30317">
        <ele>343.4</ele>
        <time>2024-05-19T07:15:35Z</time>
      </trkpt>
      <trkpt lat="45.82737" lon="3.30313">
        <ele>343.4</ele>
        <time>2024-05-19T07:15:36Z</time>
      </trkpt>
      <trkpt lat="45.82733" lon="3.30309">
        <ele>343.6</ele>
        <time>2024-05-19T07:15:37Z</time>
      </trkpt>
      <trkpt lat="45.8273" lon="3.30305">
        <ele>343.6</ele>
        <time>2024-05-19T07:15:38Z</time>
      </trkpt>
      <trkpt lat="45.82726" lon="3.30301">
        <ele>343.8</ele>
        <time>2024-05-19T07:15:39Z</time>
      </trkpt>
      <trkpt lat="45.82723" lon="3.30297">
        <ele>343.8</ele>
        <time>2024-05-19T07:15:40Z</time>
      </trkpt>
      <trkpt lat="45.8272" lon="3.30293">
        <ele>343.8</ele>
        <time>2024-05-19T07:15:41Z</time>
      </trkpt>
      <trkpt lat="45.82717" lon="3.3029">
        <ele>344</ele>
        <time>2024-05-19T07:15:42Z</time>
      </trkpt>
      <trkpt lat="45.82713" lon="3.30286">
        <ele>344</ele>
        <time>2024-05-19T07:15:43Z</time>
      </trkpt>
      <trkpt lat="45.8271" lon="3.30283">
        <ele>344.2</ele>
        <time>2024-05-19T07:15:44Z</time>
      </trkpt>
      <trkpt lat="45.82708" lon="3.3028">
        <ele>344.2</ele>
        <time>2024-05-19T07:15:45Z</time>
      </trkpt>
      <trkpt lat="45.82705" lon="3.30276">
        <ele>344.4</ele>
        <time>2024-05-19T07:15:46Z</time>
      </trkpt>
      <trkpt lat="45.82702" lon="3.30273">
        <ele>344.4</ele>
        <time>2024-05-19T07:15:47Z</time>
      </trkpt>
      <trkpt lat="45.82699" lon="3.3027">
        <ele>344.6</ele>
        <time>2024-05-19T07:15:48Z</time>
      </trkpt>
      <trkpt lat="45.82696" lon="3.30267">
        <ele>344.6</ele>
        <time>2024-05-19T07:15:49Z</time>
      </trkpt>
      <trkpt lat="45.82691" lon="3.30261">
        <ele>344.8</ele>
        <time>2024-05-19T07:15:50Z</time>
      </trkpt>
      <trkpt lat="45.82691" lon="3.30261">
        <ele>345</ele>
        <time>2024-05-19T07:15:51Z</time>
      </trkpt>
      <trkpt lat="45.82688" lon="3.30258">
        <ele>345</ele>
        <time>2024-05-19T07:15:52Z</time>
      </trkpt>
      <trkpt lat="45.82686" lon="3.30255">
        <ele>345.2</ele>
        <time>2024-05-19T07:15:53Z</time>
      </trkpt>
      <trkpt lat="45.82683" lon="3.30252">
        <ele>345.2</ele>
        <time>2024-05-19T07:15:54Z</time>
      </trkpt>
      <trkpt lat="45.8268" lon="3.30249">
        <ele>345.4</ele>
        <time>2024-05-19T07:15:55Z</time>
      </trkpt>
      <trkpt lat="45.82678" lon="3.30246">
        <ele>345.6</ele>
        <time>2024-05-19T07:15:56Z</time>
      </trkpt>
      <trkpt lat="45.82676" lon="3.30244">
        <ele>345.8</ele>
        <time>2024-05-19T07:15:57Z</time>
      </trkpt>
      <trkpt lat="45.82674" lon="3.30241">
        <ele>345.8</ele>
        <time>2024-05-19T07:15:58Z</time>
      </trkpt>
      <trkpt lat="45.82671" lon="3.30239">
        <ele>346</ele>
        <time>2024-05-19T07:15:59Z</time>
      </trkpt>
      <trkpt lat="45.82669" lon="3.30236">
        <ele>346.2</ele>
        <time>2024-05-19T07:16:00Z</time>
      </trkpt>
      <trkpt lat="45.82666" lon="3.30233">
        <ele>346.2</ele>
        <time>2024-05-19T07:16:01Z</time>
      </trkpt>
      <trkpt lat="45.82664" lon="3.30231">
        <ele>346.4</ele>
        <time>2024-05-19T07:16:02Z</time>
      </trkpt>
      <trkpt lat="45.82662" lon="3.30228">
        <ele>346.6</ele>
        <time>2024-05-19T07:16:03Z</time>
      </trkpt>
      <trkpt lat="45.82659" lon="3.30225">
        <ele>346.8</ele>
        <time>2024-05-19T07:16:04Z</time>
      </trkpt>
      <trkpt lat="45.82657" lon="3.30223">
        <ele>347</ele>
        <time>2024-05-19T07:16:05Z</time>
      </trkpt>
      <trkpt lat="45.82655" lon="3.3022">
        <ele>347.2</ele>
        <time>2024-05-19T07:16:06Z</time>
      </trkpt>
      <trkpt lat="45.82653" lon="3.30218">
        <ele>347.2</ele>
        <time>2024-05-19T07:16:07Z</time>
      </trkpt>
      <trkpt lat="45.8265" lon="3.30215">
        <ele>347.4</ele>
        <time>2024-05-19T07:16:08Z</time>
      </trkpt>
      <trkpt lat="45.82648" lon="3.30213">
        <ele>347.6</ele>
        <time>2024-05-19T07:16:09Z</time>
      </trkpt>
      <trkpt lat="45.82646" lon="3.30211">
        <ele>347.6</ele>
        <time>2024-05-19T07:16:10Z</time>
      </trkpt>
      <trkpt lat="45.82644" lon="3.30208">
        <ele>347.8</ele>
        <time>2024-05-19T07:16:11Z</time>
      </trkpt>
      <trkpt lat="45.82642" lon="3.30206">
        <ele>348</ele>
        <time>2024-05-19T07:16:12Z</time>
      </trkpt>
      <trkpt lat="45.8264" lon="3.30204">
        <ele>348.2</ele>
        <time>2024-05-19T07:16:13Z</time>
      </trkpt>
      <trkpt lat="45.82638" lon="3.30202">
        <ele>348.4</ele>
        <time>2024-05-19T07:16:14Z</time>
      </trkpt>
      <trkpt lat="45.82636" lon="3.30199">
        <ele>348.6</ele>
        <time>2024-05-19T07:16:15Z</time>
      </trkpt>
      <trkpt lat="45.82634" lon="3.30197">
        <ele>348.8</ele>
        <time>2024-05-19T07:16:16Z</time>
      </trkpt>
      <trkpt lat="45.82632" lon="3.30195">
        <ele>349</ele>
        <time>2024-05-19T07:16:17Z</time>
      </trkpt>
      <trkpt lat="45.8263" lon="3.30192">
        <ele>349.2</ele>
        <time>2024-05-19T07:16:18Z</time>
      </trkpt>
      <trkpt lat="45.82628" lon="3.3019">
        <ele>349.2</ele>
        <time>2024-05-19T07:16:19Z</time>
      </trkpt>
      <trkpt lat="45.82625" lon="3.30187">
        <ele>349.4</ele>
        <time>2024-05-19T07:16:20Z</time>
      </trkpt>
      <trkpt lat="45.82623" lon="3.30184">
        <ele>349.8</ele>
        <time>2024-05-19T07:16:21Z</time>
      </trkpt>
      <trkpt lat="45.8262" lon="3.30182">
        <ele>350</ele>
        <time>2024-05-19T07:16:22Z</time>
      </trkpt>
      <trkpt lat="45.82618" lon="3.3018">
        <ele>350.2</ele>
        <time>2024-05-19T07:16:23Z</time>
      </trkpt>
      <trkpt lat="45.82615" lon="3.30178">
        <ele>350.4</ele>
        <time>2024-05-19T07:16:24Z</time>
      </trkpt>
      <trkpt lat="45.82612" lon="3.30176">
        <ele>350.6</ele>
        <time>2024-05-19T07:16:25Z</time>
      </trkpt>
      <trkpt lat="45.8261" lon="3.30174">
        <ele>350.8</ele>
        <time>2024-05-19T07:16:26Z</time>
      </trkpt>
      <trkpt lat="45.82607" lon="3.30171">
        <ele>351</ele>
        <time>2024-05-19T07:16:27Z</time>
      </trkpt>
      <trkpt lat="45.82605" lon="3.30169">
        <ele>351.2</ele>
        <time>2024-05-19T07:16:28Z</time>
      </trkpt>
      <trkpt lat="45.82602" lon="3.30167">
        <ele>351.4</ele>
        <time>2024-05-19T07:16:29Z</time>
      </trkpt>
      <trkpt lat="45.826" lon="3.30165">
        <ele>351.6</ele>
        <time>2024-05-19T07:16:30Z</time>
      </trkpt>
      <trkpt lat="45.82598" lon="3.30163">
        <ele>351.8</ele>
        <time>2024-05-19T07:16:31Z</time>
      </trkpt>
      <trkpt lat="45.82595" lon="3.30161">
        <ele>352</ele>
        <time>2024-05-19T07:16:32Z</time>
      </trkpt>
      <trkpt lat="45.82592" lon="3.30159">
        <ele>352.2</ele>
        <time>2024-05-19T07:16:33Z</time>
      </trkpt>
      <trkpt lat="45.8259" lon="3.30157">
        <ele>352.4</ele>
        <time>2024-05-19T07:16:34Z</time>
      </trkpt>
      <trkpt lat="45.82588" lon="3.30155">
        <ele>352.6</ele>
        <time>2024-05-19T07:16:35Z</time>
      </trkpt>
      <trkpt lat="45.82585" lon="3.30153">
        <ele>352.8</ele>
        <time>2024-05-19T07:16:36Z</time>
      </trkpt>
      <trkpt lat="45.82583" lon="3.30151">
        <ele>353</ele>
        <time>2024-05-19T07:16:37Z</time>
      </trkpt>
      <trkpt lat="45.8258" lon="3.30149">
        <ele>353</ele>
        <time>2024-05-19T07:16:38Z</time>
      </trkpt>
      <trkpt lat="45.82578" lon="3.30147">
        <ele>353.2</ele>
        <time>2024-05-19T07:16:39Z</time>
      </trkpt>
      <trkpt lat="45.82575" lon="3.30145">
        <ele>353.4</ele>
        <time>2024-05-19T07:16:40Z</time>
      </trkpt>
      <trkpt lat="45.82573" lon="3.30142">
        <ele>353.6</ele>
        <time>2024-05-19T07:16:41Z</time>
      </trkpt>
      <trkpt lat="45.8257" lon="3.30141">
        <ele>353.8</ele>
        <time>2024-05-19T07:16:42Z</time>
      </trkpt>
      <trkpt lat="45.82568" lon="3.30139">
        <ele>353.8</ele>
        <time>2024-05-19T07:16:43Z</time>
      </trkpt>
      <trkpt lat="45.82566" lon="3.30137">
        <ele>354</ele>
        <time>2024-05-19T07:16:44Z</time>
      </trkpt>
      <trkpt lat="45.82563" lon="3.30135">
        <ele>354.2</ele>
        <time>2024-05-19T07:16:45Z</time>
      </trkpt>
      <trkpt lat="45.82561" lon="3.30133">
        <ele>354.4</ele>
        <time>2024-05-19T07:16:46Z</time>
      </trkpt>
      <trkpt lat="45.82559" lon="3.30131">
        <ele>354.6</ele>
        <time>2024-05-19T07:16:47Z</time>
      </trkpt>
      <trkpt lat="45.82556" lon="3.30129">
        <ele>354.8</ele>
        <time>2024-05-19T07:16:48Z</time>
      </trkpt>
      <trkpt lat="45.82554" lon="3.30128">
        <ele>355</ele>
        <time>2024-05-19T07:16:49Z</time>
      </trkpt>
      <trkpt lat="45.82551" lon="3.30127">
        <ele>355.2</ele>
        <time>2024-05-19T07:16:50Z</time>
      </trkpt>
      <trkpt lat="45.82549" lon="3.30126">
        <ele>355.4</ele>
        <time>2024-05-19T07:16:51Z</time>
      </trkpt>
      <trkpt lat="45.82547" lon="3.30124">
        <ele>355.6</ele>
        <time>2024-05-19T07:16:52Z</time>
      </trkpt>
      <trkpt lat="45.82544" lon="3.30123">
        <ele>355.8</ele>
        <time>2024-05-19T07:16:53Z</time>
      </trkpt>
      <trkpt lat="45.82541" lon="3.30121">
        <ele>356</ele>
        <time>2024-05-19T07:16:54Z</time>
      </trkpt>
      <trkpt lat="45.82538" lon="3.3012">
        <ele>356.2</ele>
        <time>2024-05-19T07:16:55Z</time>
      </trkpt>
      <trkpt lat="45.82536" lon="3.30118">
        <ele>356.4</ele>
        <time>2024-05-19T07:16:56Z</time>
      </trkpt>
      <trkpt lat="45.82533" lon="3.30117">
        <ele>356.6</ele>
        <time>2024-05-19T07:16:57Z</time>
      </trkpt>
      <trkpt lat="45.8253" lon="3.30115">
        <ele>356.8</ele>
        <time>2024-05-19T07:16:58Z</time>
      </trkpt>
      <trkpt lat="45.82528" lon="3.30114">
        <ele>357</ele>
        <time>2024-05-19T07:16:59Z</time>
      </trkpt>
      <trkpt lat="45.82525" lon="3.30113">
        <ele>357.2</ele>
        <time>2024-05-19T07:17:00Z</time>
      </trkpt>
      <trkpt lat="45.82522" lon="3.30111">
        <ele>357.4</ele>
        <time>2024-05-19T07:17:01Z</time>
      </trkpt>
      <trkpt lat="45.8252" lon="3.3011">
        <ele>357.4</ele>
        <time>2024-05-19T07:17:02Z</time>
      </trkpt>
      <trkpt lat="45.82518" lon="3.30109">
        <ele>357.6</ele>
        <time>2024-05-19T07:17:03Z</time>
      </trkpt>
      <trkpt lat="45.82516" lon="3.30107">
        <ele>357.8</ele>
        <time>2024-05-19T07:17:04Z</time>
      </trkpt>
      <trkpt lat="45.82513" lon="3.30106">
        <ele>357.8</ele>
        <time>2024-05-19T07:17:05Z</time>
      </trkpt>
      <trkpt lat="45.82511" lon="3.30105">
        <ele>358</ele>
        <time>2024-05-19T07:17:06Z</time>
      </trkpt>
      <trkpt lat="45.82508" lon="3.30103">
        <ele>358.2</ele>
        <time>2024-05-19T07:17:07Z</time>
      </trkpt>
      <trkpt lat="45.82505" lon="3.30102">
        <ele>358.4</ele>
        <time>2024-05-19T07:17:08Z</time>
      </trkpt>
      <trkpt lat="45.82503" lon="3.30102">
        <ele>358.4</ele>
        <time>2024-05-19T07:17:09Z</time>
      </trkpt>
      <trkpt lat="45.825" lon="3.30101">
        <ele>358.6</ele>
        <time>2024-05-19T07:17:10Z</time>
      </trkpt>
      <trkpt lat="45.82498" lon="3.301">
        <ele>358.8</ele>
        <time>2024-05-19T07:17:11Z</time>
      </trkpt>
      <trkpt lat="45.82495" lon="3.301">
        <ele>359</ele>
        <time>2024-05-19T07:17:12Z</time>
      </trkpt>
      <trkpt lat="45.82492" lon="3.30099">
        <ele>359.2</ele>
        <time>2024-05-19T07:17:13Z</time>
      </trkpt>
      <trkpt lat="45.82489" lon="3.30099">
        <ele>359.4</ele>
        <time>2024-05-19T07:17:14Z</time>
      </trkpt>
      <trkpt lat="45.82487" lon="3.30098">
        <ele>359.6</ele>
        <time>2024-05-19T07:17:15Z</time>
      </trkpt>
      <trkpt lat="45.82484" lon="3.30097">
        <ele>359.6</ele>
        <time>2024-05-19T07:17:16Z</time>
      </trkpt>
      <trkpt lat="45.82482" lon="3.30097">
        <ele>359.8</ele>
        <time>2024-05-19T07:17:17Z</time>
      </trkpt>
      <trkpt lat="45.82479" lon="3.30096">
        <ele>360</ele>
        <time>2024-05-19T07:17:18Z</time>
      </trkpt>
      <trkpt lat="45.82476" lon="3.30095">
        <ele>360.2</ele>
        <time>2024-05-19T07:17:19Z</time>
      </trkpt>
      <trkpt lat="45.82473" lon="3.30095">
        <ele>360.4</ele>
        <time>2024-05-19T07:17:20Z</time>
      </trkpt>
      <trkpt lat="45.8247" lon="3.30094">
        <ele>360.6</ele>
        <time>2024-05-19T07:17:21Z</time>
      </trkpt>
      <trkpt lat="45.82467" lon="3.30093">
        <ele>360.8</ele>
        <time>2024-05-19T07:17:22Z</time>
      </trkpt>
      <trkpt lat="45.82464" lon="3.30093">
        <ele>361</ele>
        <time>2024-05-19T07:17:23Z</time>
      </trkpt>
      <trkpt lat="45.82462" lon="3.30092">
        <ele>361.2</ele>
        <time>2024-05-19T07:17:24Z</time>
      </trkpt>
      <trkpt lat="45.82459" lon="3.30091">
        <ele>361.4</ele>
        <time>2024-05-19T07:17:25Z</time>
      </trkpt>
      <trkpt lat="45.82456" lon="3.30091">
        <ele>361.4</ele>
        <time>2024-05-19T07:17:26Z</time>
      </trkpt>
      <trkpt lat="45.82454" lon="3.3009">
        <ele>361.6</ele>
        <time>2024-05-19T07:17:27Z</time>
      </trkpt>
      <trkpt lat="45.82451" lon="3.30089">
        <ele>361.8</ele>
        <time>2024-05-19T07:17:28Z</time>
      </trkpt>
      <trkpt lat="45.82448" lon="3.30089">
        <ele>362</ele>
        <time>2024-05-19T07:17:29Z</time>
      </trkpt>
      <trkpt lat="45.82445" lon="3.30088">
        <ele>362.2</ele>
        <time>2024-05-19T07:17:30Z</time>
      </trkpt>
      <trkpt lat="45.82442" lon="3.30088">
        <ele>362.4</ele>
        <time>2024-05-19T07:17:31Z</time>
      </trkpt>
      <trkpt lat="45.8244" lon="3.30087">
        <ele>362.4</ele>
        <time>2024-05-19T07:17:32Z</time>
      </trkpt>
      <trkpt lat="45.82437" lon="3.30086">
        <ele>362.6</ele>
        <time>2024-05-19T07:17:33Z</time>
      </trkpt>
      <trkpt lat="45.82433" lon="3.30085">
        <ele>362.8</ele>
        <time>2024-05-19T07:17:34Z</time>
      </trkpt>
      <trkpt lat="45.82431" lon="3.30085">
        <ele>363</ele>
        <time>2024-05-19T07:17:35Z</time>
      </trkpt>
      <trkpt lat="45.82427" lon="3.30085">
        <ele>363.2</ele>
        <time>2024-05-19T07:17:36Z</time>
      </trkpt>
      <trkpt lat="45.82424" lon="3.30085">
        <ele>363.4</ele>
        <time>2024-05-19T07:17:37Z</time>
      </trkpt>
      <trkpt lat="45.82421" lon="3.30084">
        <ele>363.6</ele>
        <time>2024-05-19T07:17:38Z</time>
      </trkpt>
      <trkpt lat="45.82418" lon="3.30084">
        <ele>363.6</ele>
        <time>2024-05-19T07:17:39Z</time>
      </trkpt>
      <trkpt lat="45.82414" lon="3.30084">
        <ele>363.8</ele>
        <time>2024-05-19T07:17:40Z</time>
      </trkpt>
      <trkpt lat="45.82411" lon="3.30083">
        <ele>364</ele>
        <time>2024-05-19T07:17:41Z</time>
      </trkpt>
      <trkpt lat="45.82407" lon="3.30083">
        <ele>364.2</ele>
        <time>2024-05-19T07:17:42Z</time>
      </trkpt>
      <trkpt lat="45.82403" lon="3.30083">
        <ele>364.2</ele>
        <time>2024-05-19T07:17:43Z</time>
      </trkpt>
      <trkpt lat="45.824" lon="3.30082">
        <ele>364.4</ele>
        <time>2024-05-19T07:17:44Z</time>
      </trkpt>
      <trkpt lat="45.82396" lon="3.30082">
        <ele>364.6</ele>
        <time>2024-05-19T07:17:45Z</time>
      </trkpt>
      <trkpt lat="45.82392" lon="3.30082">
        <ele>364.6</ele>
        <time>2024-05-19T07:17:46Z</time>
      </trkpt>
      <trkpt lat="45.82389" lon="3.30081">
        <ele>364.8</ele>
        <time>2024-05-19T07:17:47Z</time>
      </trkpt>
      <trkpt lat="45.82385" lon="3.30081">
        <ele>365</ele>
        <time>2024-05-19T07:17:48Z</time>
      </trkpt>
      <trkpt lat="45.82381" lon="3.30081">
        <ele>365</ele>
        <time>2024-05-19T07:17:49Z</time>
      </trkpt>
      <trkpt lat="45.82376" lon="3.3008">
        <ele>365.2</ele>
        <time>2024-05-19T07:17:50Z</time>
      </trkpt>
      <trkpt lat="45.82372" lon="3.3008">
        <ele>365.4</ele>
        <time>2024-05-19T07:17:51Z</time>
      </trkpt>
      <trkpt lat="45.82368" lon="3.3008">
        <ele>365.4</ele>
        <time>2024-05-19T07:17:52Z</time>
      </trkpt>
      <trkpt lat="45.82364" lon="3.30079">
        <ele>365.6</ele>
        <time>2024-05-19T07:17:53Z</time>
      </trkpt>
      <trkpt lat="45.82359" lon="3.30079">
        <ele>365.6</ele>
        <time>2024-05-19T07:17:54Z</time>
      </trkpt>
      <trkpt lat="45.82355" lon="3.30078">
        <ele>365.8</ele>
        <time>2024-05-19T07:17:55Z</time>
      </trkpt>
      <trkpt lat="45.8235" lon="3.30078">
        <ele>365.8</ele>
        <time>2024-05-19T07:17:56Z</time>
      </trkpt>
      <trkpt lat="45.82345" lon="3.30077">
        <ele>366</ele>
        <time>2024-05-19T07:17:57Z</time>
      </trkpt>
      <trkpt lat="45.82341" lon="3.30077">
        <ele>366</ele>
        <time>2024-05-19T07:17:58Z</time>
      </trkpt>
      <trkpt lat="45.82336" lon="3.30077">
        <ele>366.2</ele>
        <time>2024-05-19T07:17:59Z</time>
      </trkpt>
      <trkpt lat="45.82331" lon="3.30076">
        <ele>366.2</ele>
        <time>2024-05-19T07:18:00Z</time>
      </trkpt>
      <trkpt lat="45.82326" lon="3.30076">
        <ele>366.4</ele>
        <time>2024-05-19T07:18:01Z</time>
      </trkpt>
      <trkpt lat="45.82321" lon="3.30075">
        <ele>366.6</ele>
        <time>2024-05-19T07:18:02Z</time>
      </trkpt>
      <trkpt lat="45.82316" lon="3.30075">
        <ele>366.6</ele>
        <time>2024-05-19T07:18:03Z</time>
      </trkpt>
      <trkpt lat="45.8231" lon="3.30074">
        <ele>366.8</ele>
        <time>2024-05-19T07:18:04Z</time>
      </trkpt>
      <trkpt lat="45.82305" lon="3.30074">
        <ele>366.8</ele>
        <time>2024-05-19T07:18:05Z</time>
      </trkpt>
      <trkpt lat="45.823" lon="3.30073">
        <ele>367</ele>
        <time>2024-05-19T07:18:06Z</time>
      </trkpt>
      <trkpt lat="45.82294" lon="3.30073">
        <ele>367</ele>
        <time>2024-05-19T07:18:07Z</time>
      </trkpt>
      <trkpt lat="45.82289" lon="3.30072">
        <ele>367.2</ele>
        <time>2024-05-19T07:18:08Z</time>
      </trkpt>
      <trkpt lat="45.82283" lon="3.30072">
        <ele>367.2</ele>
        <time>2024-05-19T07:18:09Z</time>
      </trkpt>
      <trkpt lat="45.82278" lon="3.30071">
        <ele>367.4</ele>
        <time>2024-05-19T07:18:10Z</time>
      </trkpt>
      <trkpt lat="45.82272" lon="3.30071">
        <ele>367.4</ele>
        <time>2024-05-19T07:18:11Z</time>
      </trkpt>
      <trkpt lat="45.82267" lon="3.3007">
        <ele>367.4</ele>
        <time>2024-05-19T07:18:12Z</time>
      </trkpt>
      <trkpt lat="45.82262" lon="3.3007">
        <ele>367.6</ele>
        <time>2024-05-19T07:18:13Z</time>
      </trkpt>
      <trkpt lat="45.82256" lon="3.30069">
        <ele>367.6</ele>
        <time>2024-05-19T07:18:14Z</time>
      </trkpt>
      <trkpt lat="45.82251" lon="3.30069">
        <ele>367.6</ele>
        <time>2024-05-19T07:18:15Z</time>
      </trkpt>
      <trkpt lat="45.82246" lon="3.30068">
        <ele>367.8</ele>
        <time>2024-05-19T07:18:16Z</time>
      </trkpt>
      <trkpt lat="45.8224" lon="3.30067">
        <ele>367.8</ele>
        <time>2024-05-19T07:18:17Z</time>
      </trkpt>
      <trkpt lat="45.82235" lon="3.30066">
        <ele>368</ele>
        <time>2024-05-19T07:18:18Z</time>
      </trkpt>
      <trkpt lat="45.82229" lon="3.30064">
        <ele>368</ele>
        <time>2024-05-19T07:18:19Z</time>
      </trkpt>
      <trkpt lat="45.82224" lon="3.30063">
        <ele>368.2</ele>
        <time>2024-05-19T07:18:20Z</time>
      </trkpt>
      <trkpt lat="45.82219" lon="3.30062">
        <ele>368.2</ele>
        <time>2024-05-19T07:18:21Z</time>
      </trkpt>
      <trkpt lat="45.82213" lon="3.30061">
        <ele>368.2</ele>
        <time>2024-05-19T07:18:22Z</time>
      </trkpt>
      <trkpt lat="45.82208" lon="3.30059">
        <ele>368.4</ele>
        <time>2024-05-19T07:18:23Z</time>
      </trkpt>
      <trkpt lat="45.82202" lon="3.30058">
        <ele>368.4</ele>
        <time>2024-05-19T07:18:24Z</time>
      </trkpt>
      <trkpt lat="45.82197" lon="3.30057">
        <ele>368.4</ele>
        <time>2024-05-19T07:18:25Z</time>
      </trkpt>
      <trkpt lat="45.82192" lon="3.30055">
        <ele>368.4</ele>
        <time>2024-05-19T07:18:26Z</time>
      </trkpt>
      <trkpt lat="45.82186" lon="3.30054">
        <ele>368.6</ele>
        <time>2024-05-19T07:18:27Z</time>
      </trkpt>
      <trkpt lat="45.82181" lon="3.30053">
        <ele>368.6</ele>
        <time>2024-05-19T07:18:28Z</time>
      </trkpt>
      <trkpt lat="45.82176" lon="3.30051">
        <ele>368.6</ele>
        <time>2024-05-19T07:18:29Z</time>
      </trkpt>
      <trkpt lat="45.8217" lon="3.3005">
        <ele>368.6</ele>
        <time>2024-05-19T07:18:30Z</time>
      </trkpt>
      <trkpt lat="45.82165" lon="3.30049">
        <ele>368.6</ele>
        <time>2024-05-19T07:18:31Z</time>
      </trkpt>
      <trkpt lat="45.82159" lon="3.30047">
        <ele>368.8</ele>
        <time>2024-05-19T07:18:32Z</time>
      </trkpt>
      <trkpt lat="45.82153" lon="3.30046">
        <ele>368.8</ele>
        <time>2024-05-19T07:18:33Z</time>
      </trkpt>
      <trkpt lat="45.82147" lon="3.30044">
        <ele>369</ele>
        <time>2024-05-19T07:18:34Z</time>
      </trkpt>
      <trkpt lat="45.82141" lon="3.30043">
        <ele>369</ele>
        <time>2024-05-19T07:18:35Z</time>
      </trkpt>
      <trkpt lat="45.82135" lon="3.30041">
        <ele>369</ele>
        <time>2024-05-19T07:18:36Z</time>
      </trkpt>
      <trkpt lat="45.82129" lon="3.3004">
        <ele>369</ele>
        <time>2024-05-19T07:18:37Z</time>
      </trkpt>
      <trkpt lat="45.82123" lon="3.30038">
        <ele>369.2</ele>
        <time>2024-05-19T07:18:38Z</time>
      </trkpt>
      <trkpt lat="45.82117" lon="3.30037">
        <ele>369.2</ele>
        <time>2024-05-19T07:18:39Z</time>
      </trkpt>
      <trkpt lat="45.82111" lon="3.30035">
        <ele>369.4</ele>
        <time>2024-05-19T07:18:40Z</time>
      </trkpt>
      <trkpt lat="45.82104" lon="3.30034">
        <ele>369.4</ele>
        <time>2024-05-19T07:18:41Z</time>
      </trkpt>
      <trkpt lat="45.82098" lon="3.30032">
        <ele>369.4</ele>
        <time>2024-05-19T07:18:42Z</time>
      </trkpt>
      <trkpt lat="45.82092" lon="3.30031">
        <ele>369.4</ele>
        <time>2024-05-19T07:18:43Z</time>
      </trkpt>
      <trkpt lat="45.82086" lon="3.3003">
        <ele>369.6</ele>
        <time>2024-05-19T07:18:44Z</time>
      </trkpt>
      <trkpt lat="45.8208" lon="3.30029">
        <ele>369.8</ele>
        <time>2024-05-19T07:18:45Z</time>
      </trkpt>
      <trkpt lat="45.82073" lon="3.30028">
        <ele>369.8</ele>
        <time>2024-05-19T07:18:46Z</time>
      </trkpt>
      <trkpt lat="45.82067" lon="3.30027">
        <ele>369.8</ele>
        <time>2024-05-19T07:18:47Z</time>
      </trkpt>
      <trkpt lat="45.82061" lon="3.30026">
        <ele>370</ele>
        <time>2024-05-19T07:18:48Z</time>
      </trkpt>
      <trkpt lat="45.82055" lon="3.30025">
        <ele>370</ele>
        <time>2024-05-19T07:18:49Z</time>
      </trkpt>
      <trkpt lat="45.82049" lon="3.30024">
        <ele>370.2</ele>
        <time>2024-05-19T07:18:50Z</time>
      </trkpt>
      <trkpt lat="45.82043" lon="3.30023">
        <ele>370.2</ele>
        <time>2024-05-19T07:18:51Z</time>
      </trkpt>
      <trkpt lat="45.82036" lon="3.30022">
        <ele>370.2</ele>
        <time>2024-05-19T07:18:52Z</time>
      </trkpt>
      <trkpt lat="45.8203" lon="3.30021">
        <ele>370.4</ele>
        <time>2024-05-19T07:18:53Z</time>
      </trkpt>
      <trkpt lat="45.82024" lon="3.3002">
        <ele>370.4</ele>
        <time>2024-05-19T07:18:54Z</time>
      </trkpt>
      <trkpt lat="45.82018" lon="3.30019">
        <ele>370.6</ele>
        <time>2024-05-19T07:18:55Z</time>
      </trkpt>
      <trkpt lat="45.82011" lon="3.30018">
        <ele>370.6</ele>
        <time>2024-05-19T07:18:56Z</time>
      </trkpt>
      <trkpt lat="45.82005" lon="3.30018">
        <ele>370.6</ele>
        <time>2024-05-19T07:18:57Z</time>
      </trkpt>
      <trkpt lat="45.81999" lon="3.30017">
        <ele>370.6</ele>
        <time>2024-05-19T07:18:58Z</time>
      </trkpt>
      <trkpt lat="45.81992" lon="3.30017">
        <ele>370.6</ele>
        <time>2024-05-19T07:18:59Z</time>
      </trkpt>
      <trkpt lat="45.81986" lon="3.30016">
        <ele>370.8</ele>
        <time>2024-05-19T07:19:00Z</time>
      </trkpt>
      <trkpt lat="45.8198" lon="3.30016">
        <ele>371</ele>
        <time>2024-05-19T07:19:01Z</time>
      </trkpt>
      <trkpt lat="45.81973" lon="3.30015">
        <ele>371</ele>
        <time>2024-05-19T07:19:02Z</time>
      </trkpt>
      <trkpt lat="45.81967" lon="3.30015">
        <ele>371</ele>
        <time>2024-05-19T07:19:03Z</time>
      </trkpt>
      <trkpt lat="45.81961" lon="3.30015">
        <ele>371</ele>
        <time>2024-05-19T07:19:04Z</time>
      </trkpt>
      <trkpt lat="45.81955" lon="3.30015">
        <ele>371.2</ele>
        <time>2024-05-19T07:19:05Z</time>
      </trkpt>
      <trkpt lat="45.81948" lon="3.30015">
        <ele>371.2</ele>
        <time>2024-05-19T07:19:06Z</time>
      </trkpt>
      <trkpt lat="45.81942" lon="3.30015">
        <ele>371.2</ele>
        <time>2024-05-19T07:19:07Z</time>
      </trkpt>
      <trkpt lat="45.81936" lon="3.30015">
        <ele>371.2</ele>
        <time>2024-05-19T07:19:08Z</time>
      </trkpt>
      <trkpt lat="45.81929" lon="3.30015">
        <ele>371.2</ele>
        <time>2024-05-19T07:19:09Z</time>
      </trkpt>
      <trkpt lat="45.81923" lon="3.30015">
        <ele>371.2</ele>
        <time>2024-05-19T07:19:10Z</time>
      </trkpt>
      <trkpt lat="45.81917" lon="3.30015">
        <ele>371.4</ele>
        <time>2024-05-19T07:19:11Z</time>
      </trkpt>
      <trkpt lat="45.8191" lon="3.30015">
        <ele>371.4</ele>
        <time>2024-05-19T07:19:12Z</time>
      </trkpt>
      <trkpt lat="45.81904" lon="3.30015">
        <ele>371.4</ele>
        <time>2024-05-19T07:19:13Z</time>
      </trkpt>
      <trkpt lat="45.81898" lon="3.30015">
        <ele>371.4</ele>
        <time>2024-05-19T07:19:14Z</time>
      </trkpt>
      <trkpt lat="45.81891" lon="3.30015">
        <ele>371.4</ele>
        <time>2024-05-19T07:19:15Z</time>
      </trkpt>
      <trkpt lat="45.81885" lon="3.30015">
        <ele>371.6</ele>
        <time>2024-05-19T07:19:16Z</time>
      </trkpt>
      <trkpt lat="45.81879" lon="3.30015">
        <ele>371.6</ele>
        <time>2024-05-19T07:19:17Z</time>
      </trkpt>
      <trkpt lat="45.81872" lon="3.30015">
        <ele>371.6</ele>
        <time>2024-05-19T07:19:18Z</time>
      </trkpt>
      <trkpt lat="45.81866" lon="3.30015">
        <ele>371.6</ele>
        <time>2024-05-19T07:19:19Z</time>
      </trkpt>
      <trkpt lat="45.8186" lon="3.30015">
        <ele>371.8</ele>
        <time>2024-05-19T07:19:20Z</time>
      </trkpt>
      <trkpt lat="45.81854" lon="3.30015">
        <ele>371.8</ele>
        <time>2024-05-19T07:19:21Z</time>
      </trkpt>
      <trkpt lat="45.81847" lon="3.30016">
        <ele>371.8</ele>
        <time>2024-05-19T07:19:22Z</time>
      </trkpt>
      <trkpt lat="45.81841" lon="3.30016">
        <ele>371.8</ele>
        <time>2024-05-19T07:19:23Z</time>
      </trkpt>
      <trkpt lat="45.81835" lon="3.30016">
        <ele>372</ele>
        <time>2024-05-19T07:19:24Z</time>
      </trkpt>
      <trkpt lat="45.81829" lon="3.30016">
        <ele>371.8</ele>
        <time>2024-05-19T07:19:25Z</time>
      </trkpt>
      <trkpt lat="45.81823" lon="3.30016">
        <ele>372</ele>
        <time>2024-05-19T07:19:26Z</time>
      </trkpt>
      <trkpt lat="45.81816" lon="3.30016">
        <ele>372</ele>
        <time>2024-05-19T07:19:27Z</time>
      </trkpt>
      <trkpt lat="45.8181" lon="3.30016">
        <ele>372</ele>
        <time>2024-05-19T07:19:28Z</time>
      </trkpt>
      <trkpt lat="45.81804" lon="3.30016">
        <ele>372</ele>
        <time>2024-05-19T07:19:29Z</time>
      </trkpt>
      <trkpt lat="45.81797" lon="3.30016">
        <ele>372</ele>
        <time>2024-05-19T07:19:30Z</time>
      </trkpt>
      <trkpt lat="45.81791" lon="3.30016">
        <ele>372.2</ele>
        <time>2024-05-19T07:19:31Z</time>
      </trkpt>
      <trkpt lat="45.81785" lon="3.30016">
        <ele>372.2</ele>
        <time>2024-05-19T07:19:32Z</time>
      </trkpt>
      <trkpt lat="45.81778" lon="3.30016">
        <ele>372.2</ele>
        <time>2024-05-19T07:19:33Z</time>
      </trkpt>
      <trkpt lat="45.81772" lon="3.30016">
        <ele>372</ele>
        <time>2024-05-19T07:19:34Z</time>
      </trkpt>
      <trkpt lat="45.81765" lon="3.30016">
        <ele>372</ele>
        <time>2024-05-19T07:19:35Z</time>
      </trkpt>
      <trkpt lat="45.81759" lon="3.30016">
        <ele>372</ele>
        <time>2024-05-19T07:19:36Z</time>
      </trkpt>
      <trkpt lat="45.81753" lon="3.30016">
        <ele>372</ele>
        <time>2024-05-19T07:19:37Z</time>
      </trkpt>
      <trkpt lat="45.81747" lon="3.30016">
        <ele>372.2</ele>
        <time>2024-05-19T07:19:38Z</time>
      </trkpt>
      <trkpt lat="45.8174" lon="3.30016">
        <ele>372.2</ele>
        <time>2024-05-19T07:19:39Z</time>
      </trkpt>
      <trkpt lat="45.81734" lon="3.30016">
        <ele>372.2</ele>
        <time>2024-05-19T07:19:40Z</time>
      </trkpt>
      <trkpt lat="45.81728" lon="3.30016">
        <ele>372.2</ele>
        <time>2024-05-19T07:19:41Z</time>
      </trkpt>
      <trkpt lat="45.81722" lon="3.30016">
        <ele>372.2</ele>
        <time>2024-05-19T07:19:42Z</time>
      </trkpt>
      <trkpt lat="45.81716" lon="3.30016">
        <ele>372.2</ele>
        <time>2024-05-19T07:19:43Z</time>
      </trkpt>
      <trkpt lat="45.8171" lon="3.30016">
        <ele>372.2</ele>
        <time>2024-05-19T07:19:44Z</time>
      </trkpt>
      <trkpt lat="45.81704" lon="3.30017">
        <ele>372.2</ele>
        <time>2024-05-19T07:19:45Z</time>
      </trkpt>
      <trkpt lat="45.81698" lon="3.30017">
        <ele>372.2</ele>
        <time>2024-05-19T07:19:46Z</time>
      </trkpt>
      <trkpt lat="45.81691" lon="3.30017">
        <ele>372.2</ele>
        <time>2024-05-19T07:19:47Z</time>
      </trkpt>
      <trkpt lat="45.81685" lon="3.30017">
        <ele>372.2</ele>
        <time>2024-05-19T07:19:48Z</time>
      </trkpt>
      <trkpt lat="45.81679" lon="3.30017">
        <ele>372.2</ele>
        <time>2024-05-19T07:19:49Z</time>
      </trkpt>
      <trkpt lat="45.81672" lon="3.30017">
        <ele>372.4</ele>
        <time>2024-05-19T07:19:50Z</time>
      </trkpt>
      <trkpt lat="45.81666" lon="3.30017">
        <ele>372.4</ele>
        <time>2024-05-19T07:19:51Z</time>
      </trkpt>
      <trkpt lat="45.8166" lon="3.30017">
        <ele>372.4</ele>
        <time>2024-05-19T07:19:52Z</time>
      </trkpt>
      <trkpt lat="45.81653" lon="3.30016">
        <ele>372.4</ele>
        <time>2024-05-19T07:19:53Z</time>
      </trkpt>
      <trkpt lat="45.81647" lon="3.30015">
        <ele>372.6</ele>
        <time>2024-05-19T07:19:54Z</time>
      </trkpt>
      <trkpt lat="45.81641" lon="3.30015">
        <ele>372.6</ele>
        <time>2024-05-19T07:19:55Z</time>
      </trkpt>
      <trkpt lat="45.81635" lon="3.30014">
        <ele>372.6</ele>
        <time>2024-05-19T07:19:56Z</time>
      </trkpt>
      <trkpt lat="45.81629" lon="3.30013">
        <ele>372.6</ele>
        <time>2024-05-19T07:19:57Z</time>
      </trkpt>
      <trkpt lat="45.81622" lon="3.30012">
        <ele>372.6</ele>
        <time>2024-05-19T07:19:58Z</time>
      </trkpt>
      <trkpt lat="45.81615" lon="3.30009">
        <ele>372.6</ele>
        <time>2024-05-19T07:19:59Z</time>
      </trkpt>
      <trkpt lat="45.81609" lon="3.30006">
        <ele>372.6</ele>
        <time>2024-05-19T07:20:00Z</time>
      </trkpt>
      <trkpt lat="45.81603" lon="3.30003">
        <ele>372.6</ele>
        <time>2024-05-19T07:20:01Z</time>
      </trkpt>
      <trkpt lat="45.81597" lon="3.3">
        <ele>372.6</ele>
        <time>2024-05-19T07:20:02Z</time>
      </trkpt>
      <trkpt lat="45.8159" lon="3.29997">
        <ele>372.6</ele>
        <time>2024-05-19T07:20:03Z</time>
      </trkpt>
      <trkpt lat="45.81584" lon="3.29994">
        <ele>372.6</ele>
        <time>2024-05-19T07:20:04Z</time>
      </trkpt>
      <trkpt lat="45.81578" lon="3.29991">
        <ele>372.8</ele>
        <time>2024-05-19T07:20:05Z</time>
      </trkpt>
      <trkpt lat="45.81572" lon="3.29987">
        <ele>372.8</ele>
        <time>2024-05-19T07:20:06Z</time>
      </trkpt>
      <trkpt lat="45.81566" lon="3.29983">
        <ele>372.8</ele>
        <time>2024-05-19T07:20:07Z</time>
      </trkpt>
      <trkpt lat="45.81559" lon="3.29979">
        <ele>372.8</ele>
        <time>2024-05-19T07:20:08Z</time>
      </trkpt>
      <trkpt lat="45.81553" lon="3.29975">
        <ele>372.8</ele>
        <time>2024-05-19T07:20:09Z</time>
      </trkpt>
      <trkpt lat="45.81547" lon="3.29971">
        <ele>372.8</ele>
        <time>2024-05-19T07:20:10Z</time>
      </trkpt>
      <trkpt lat="45.81541" lon="3.29967">
        <ele>372.8</ele>
        <time>2024-05-19T07:20:11Z</time>
      </trkpt>
      <trkpt lat="45.81534" lon="3.29964">
        <ele>373</ele>
        <time>2024-05-19T07:20:12Z</time>
      </trkpt>
      <trkpt lat="45.81528" lon="3.29962">
        <ele>373</ele>
        <time>2024-05-19T07:20:13Z</time>
      </trkpt>
      <trkpt lat="45.81521" lon="3.29959">
        <ele>372.8</ele>
        <time>2024-05-19T07:20:14Z</time>
      </trkpt>
      <trkpt lat="45.81515" lon="3.29956">
        <ele>373</ele>
        <time>2024-05-19T07:20:15Z</time>
      </trkpt>
      <trkpt lat="45.81509" lon="3.29953">
        <ele>373</ele>
        <time>2024-05-19T07:20:16Z</time>
      </trkpt>
      <trkpt lat="45.81502" lon="3.2995">
        <ele>373</ele>
        <time>2024-05-19T07:20:17Z</time>
      </trkpt>
      <trkpt lat="45.81495" lon="3.29947">
        <ele>373</ele>
        <time>2024-05-19T07:20:18Z</time>
      </trkpt>
      <trkpt lat="45.81489" lon="3.29945">
        <ele>373</ele>
        <time>2024-05-19T07:20:19Z</time>
      </trkpt>
      <trkpt lat="45.81482" lon="3.29942">
        <ele>373</ele>
        <time>2024-05-19T07:20:20Z</time>
      </trkpt>
      <trkpt lat="45.81475" lon="3.29939">
        <ele>373</ele>
        <time>2024-05-19T07:20:21Z</time>
      </trkpt>
      <trkpt lat="45.81469" lon="3.29936">
        <ele>373.2</ele>
        <time>2024-05-19T07:20:22Z</time>
      </trkpt>
      <trkpt lat="45.81462" lon="3.29933">
        <ele>373</ele>
        <time>2024-05-19T07:20:23Z</time>
      </trkpt>
      <trkpt lat="45.81455" lon="3.2993">
        <ele>373</ele>
        <time>2024-05-19T07:20:24Z</time>
      </trkpt>
      <trkpt lat="45.81448" lon="3.29927">
        <ele>373</ele>
        <time>2024-05-19T07:20:25Z</time>
      </trkpt>
      <trkpt lat="45.81441" lon="3.29924">
        <ele>373</ele>
        <time>2024-05-19T07:20:26Z</time>
      </trkpt>
      <trkpt lat="45.81435" lon="3.29922">
        <ele>373</ele>
        <time>2024-05-19T07:20:27Z</time>
      </trkpt>
      <trkpt lat="45.81428" lon="3.29921">
        <ele>373</ele>
        <time>2024-05-19T07:20:28Z</time>
      </trkpt>
      <trkpt lat="45.81421" lon="3.2992">
        <ele>373</ele>
        <time>2024-05-19T07:20:29Z</time>
      </trkpt>
      <trkpt lat="45.81414" lon="3.29919">
        <ele>373</ele>
        <time>2024-05-19T07:20:30Z</time>
      </trkpt>
      <trkpt lat="45.81407" lon="3.29919">
        <ele>373</ele>
        <time>2024-05-19T07:20:31Z</time>
      </trkpt>
      <trkpt lat="45.81401" lon="3.29918">
        <ele>373</ele>
        <time>2024-05-19T07:20:32Z</time>
      </trkpt>
      <trkpt lat="45.81394" lon="3.29917">
        <ele>373.2</ele>
        <time>2024-05-19T07:20:33Z</time>
      </trkpt>
      <trkpt lat="45.81387" lon="3.29916">
        <ele>372.6</ele>
        <time>2024-05-19T07:20:34Z</time>
      </trkpt>
      <trkpt lat="45.81381" lon="3.29915">
        <ele>372.6</ele>
        <time>2024-05-19T07:20:35Z</time>
      </trkpt>
      <trkpt lat="45.81374" lon="3.29915">
        <ele>372.6</ele>
        <time>2024-05-19T07:20:36Z</time>
      </trkpt>
      <trkpt lat="45.81368" lon="3.29914">
        <ele>372.4</ele>
        <time>2024-05-19T07:20:37Z</time>
      </trkpt>
      <trkpt lat="45.81361" lon="3.29913">
        <ele>372.4</ele>
        <time>2024-05-19T07:20:38Z</time>
      </trkpt>
      <trkpt lat="45.81355" lon="3.29912">
        <ele>372.4</ele>
        <time>2024-05-19T07:20:39Z</time>
      </trkpt>
      <trkpt lat="45.81349" lon="3.29912">
        <ele>372.4</ele>
        <time>2024-05-19T07:20:40Z</time>
      </trkpt>
      <trkpt lat="45.81343" lon="3.29913">
        <ele>372.2</ele>
        <time>2024-05-19T07:20:41Z</time>
      </trkpt>
      <trkpt lat="45.81337" lon="3.29915">
        <ele>372.2</ele>
        <time>2024-05-19T07:20:42Z</time>
      </trkpt>
      <trkpt lat="45.8133" lon="3.29916">
        <ele>372</ele>
        <time>2024-05-19T07:20:43Z</time>
      </trkpt>
      <trkpt lat="45.81324" lon="3.29917">
        <ele>371.8</ele>
        <time>2024-05-19T07:20:44Z</time>
      </trkpt>
      <trkpt lat="45.81317" lon="3.29919">
        <ele>371.8</ele>
        <time>2024-05-19T07:20:45Z</time>
      </trkpt>
      <trkpt lat="45.81311" lon="3.2992">
        <ele>371.6</ele>
        <time>2024-05-19T07:20:46Z</time>
      </trkpt>
      <trkpt lat="45.81304" lon="3.29922">
        <ele>371.4</ele>
        <time>2024-05-19T07:20:47Z</time>
      </trkpt>
      <trkpt lat="45.81298" lon="3.29923">
        <ele>371.2</ele>
        <time>2024-05-19T07:20:48Z</time>
      </trkpt>
      <trkpt lat="45.81291" lon="3.29924">
        <ele>371</ele>
        <time>2024-05-19T07:20:49Z</time>
      </trkpt>
      <trkpt lat="45.81284" lon="3.29926">
        <ele>370.8</ele>
        <time>2024-05-19T07:20:50Z</time>
      </trkpt>
      <trkpt lat="45.81278" lon="3.29927">
        <ele>370.6</ele>
        <time>2024-05-19T07:20:51Z</time>
      </trkpt>
      <trkpt lat="45.81271" lon="3.29929">
        <ele>370.6</ele>
        <time>2024-05-19T07:20:52Z</time>
      </trkpt>
      <trkpt lat="45.81265" lon="3.2993">
        <ele>370.2</ele>
        <time>2024-05-19T07:20:53Z</time>
      </trkpt>
      <trkpt lat="45.81258" lon="3.29932">
        <ele>370</ele>
        <time>2024-05-19T07:20:54Z</time>
      </trkpt>
      <trkpt lat="45.81251" lon="3.29933">
        <ele>369.8</ele>
        <time>2024-05-19T07:20:55Z</time>
      </trkpt>
      <trkpt lat="45.81244" lon="3.29934">
        <ele>369.6</ele>
        <time>2024-05-19T07:20:56Z</time>
      </trkpt>
      <trkpt lat="45.81238" lon="3.29936">
        <ele>369.4</ele>
        <time>2024-05-19T07:20:57Z</time>
      </trkpt>
      <trkpt lat="45.81231" lon="3.29937">
        <ele>369.4</ele>
        <time>2024-05-19T07:20:58Z</time>
      </trkpt>
      <trkpt lat="45.81225" lon="3.29939">
        <ele>369.2</ele>
        <time>2024-05-19T07:20:59Z</time>
      </trkpt>
      <trkpt lat="45.81219" lon="3.2994">
        <ele>369.2</ele>
        <time>2024-05-19T07:21:00Z</time>
      </trkpt>
      <trkpt lat="45.81212" lon="3.29941">
        <ele>369</ele>
        <time>2024-05-19T07:21:01Z</time>
      </trkpt>
      <trkpt lat="45.81206" lon="3.29943">
        <ele>369</ele>
        <time>2024-05-19T07:21:02Z</time>
      </trkpt>
      <trkpt lat="45.81201" lon="3.29944">
        <ele>369</ele>
        <time>2024-05-19T07:21:03Z</time>
      </trkpt>
      <trkpt lat="45.81195" lon="3.29945">
        <ele>369</ele>
        <time>2024-05-19T07:21:04Z</time>
      </trkpt>
      <trkpt lat="45.81189" lon="3.29946">
        <ele>369</ele>
        <time>2024-05-19T07:21:05Z</time>
      </trkpt>
      <trkpt lat="45.81183" lon="3.29948">
        <ele>369</ele>
        <time>2024-05-19T07:21:06Z</time>
      </trkpt>
      <trkpt lat="45.81177" lon="3.29949">
        <ele>369.2</ele>
        <time>2024-05-19T07:21:07Z</time>
      </trkpt>
      <trkpt lat="45.81172" lon="3.2995">
        <ele>369.2</ele>
        <time>2024-05-19T07:21:08Z</time>
      </trkpt>
      <trkpt lat="45.8117" lon="3.2995">
        <ele>369.2</ele>
        <time>2024-05-19T07:21:09Z</time>
      </trkpt>
      <trkpt lat="45.81159" lon="3.29955">
        <ele>369</ele>
        <time>2024-05-19T07:21:10Z</time>
      </trkpt>
      <trkpt lat="45.81155" lon="3.29955">
        <ele>368.8</ele>
        <time>2024-05-19T07:21:11Z</time>
      </trkpt>
      <trkpt lat="45.8115" lon="3.29956">
        <ele>368.6</ele>
        <time>2024-05-19T07:21:12Z</time>
      </trkpt>
      <trkpt lat="45.81144" lon="3.29957">
        <ele>368.6</ele>
        <time>2024-05-19T07:21:13Z</time>
      </trkpt>
      <trkpt lat="45.81139" lon="3.29958">
        <ele>368.6</ele>
        <time>2024-05-19T07:21:14Z</time>
      </trkpt>
      <trkpt lat="45.81134" lon="3.29959">
        <ele>368.6</ele>
        <time>2024-05-19T07:21:15Z</time>
      </trkpt>
      <trkpt lat="45.81128" lon="3.29959">
        <ele>368.4</ele>
        <time>2024-05-19T07:21:16Z</time>
      </trkpt>
      <trkpt lat="45.81123" lon="3.29959">
        <ele>368.6</ele>
        <time>2024-05-19T07:21:17Z</time>
      </trkpt>
      <trkpt lat="45.81117" lon="3.29959">
        <ele>368.6</ele>
        <time>2024-05-19T07:21:18Z</time>
      </trkpt>
      <trkpt lat="45.81112" lon="3.29959">
        <ele>368.6</ele>
        <time>2024-05-19T07:21:19Z</time>
      </trkpt>
      <trkpt lat="45.81107" lon="3.29958">
        <ele>368.8</ele>
        <time>2024-05-19T07:21:20Z</time>
      </trkpt>
      <trkpt lat="45.81102" lon="3.29957">
        <ele>368.8</ele>
        <time>2024-05-19T07:21:21Z</time>
      </trkpt>
      <trkpt lat="45.81097" lon="3.29957">
        <ele>368.8</ele>
        <time>2024-05-19T07:21:22Z</time>
      </trkpt>
      <trkpt lat="45.81091" lon="3.29957">
        <ele>368.8</ele>
        <time>2024-05-19T07:21:23Z</time>
      </trkpt>
      <trkpt lat="45.81086" lon="3.29957">
        <ele>368.8</ele>
        <time>2024-05-19T07:21:24Z</time>
      </trkpt>
      <trkpt lat="45.81081" lon="3.29956">
        <ele>368.6</ele>
        <time>2024-05-19T07:21:25Z</time>
      </trkpt>
      <trkpt lat="45.81076" lon="3.29956">
        <ele>368.6</ele>
        <time>2024-05-19T07:21:26Z</time>
      </trkpt>
      <trkpt lat="45.81071" lon="3.29955">
        <ele>368.4</ele>
        <time>2024-05-19T07:21:27Z</time>
      </trkpt>
      <trkpt lat="45.81067" lon="3.29955">
        <ele>368.4</ele>
        <time>2024-05-19T07:21:28Z</time>
      </trkpt>
      <trkpt lat="45.81062" lon="3.29954">
        <ele>368.4</ele>
        <time>2024-05-19T07:21:29Z</time>
      </trkpt>
      <trkpt lat="45.81058" lon="3.29954">
        <ele>368.4</ele>
        <time>2024-05-19T07:21:30Z</time>
      </trkpt>
      <trkpt lat="45.81053" lon="3.29953">
        <ele>368.4</ele>
        <time>2024-05-19T07:21:31Z</time>
      </trkpt>
      <trkpt lat="45.81049" lon="3.29953">
        <ele>368.4</ele>
        <time>2024-05-19T07:21:32Z</time>
      </trkpt>
      <trkpt lat="45.81044" lon="3.29952">
        <ele>368.4</ele>
        <time>2024-05-19T07:21:33Z</time>
      </trkpt>
      <trkpt lat="45.81039" lon="3.29952">
        <ele>368.6</ele>
        <time>2024-05-19T07:21:34Z</time>
      </trkpt>
      <trkpt lat="45.81034" lon="3.29952">
        <ele>368.6</ele>
        <time>2024-05-19T07:21:35Z</time>
      </trkpt>
      <trkpt lat="45.81029" lon="3.29951">
        <ele>368.6</ele>
        <time>2024-05-19T07:21:36Z</time>
      </trkpt>
      <trkpt lat="45.81024" lon="3.29951">
        <ele>368.8</ele>
        <time>2024-05-19T07:21:37Z</time>
      </trkpt>
      <trkpt lat="45.81019" lon="3.29951">
        <ele>369.2</ele>
        <time>2024-05-19T07:21:38Z</time>
      </trkpt>
      <trkpt lat="45.81013" lon="3.2995">
        <ele>369.4</ele>
        <time>2024-05-19T07:21:39Z</time>
      </trkpt>
      <trkpt lat="45.81008" lon="3.2995">
        <ele>369.6</ele>
        <time>2024-05-19T07:21:40Z</time>
      </trkpt>
      <trkpt lat="45.81004" lon="3.2995">
        <ele>369.8</ele>
        <time>2024-05-19T07:21:41Z</time>
      </trkpt>
      <trkpt lat="45.80998" lon="3.2995">
        <ele>369.8</ele>
        <time>2024-05-19T07:21:42Z</time>
      </trkpt>
      <trkpt lat="45.80993" lon="3.29949">
        <ele>369.8</ele>
        <time>2024-05-19T07:21:43Z</time>
      </trkpt>
      <trkpt lat="45.80989" lon="3.29948">
        <ele>369.8</ele>
        <time>2024-05-19T07:21:44Z</time>
      </trkpt>
      <trkpt lat="45.80984" lon="3.29947">
        <ele>370.2</ele>
        <time>2024-05-19T07:21:45Z</time>
      </trkpt>
      <trkpt lat="45.80979" lon="3.29946">
        <ele>370.4</ele>
        <time>2024-05-19T07:21:46Z</time>
      </trkpt>
      <trkpt lat="45.80974" lon="3.29946">
        <ele>370.4</ele>
        <time>2024-05-19T07:21:47Z</time>
      </trkpt>
      <trkpt lat="45.80969" lon="3.29945">
        <ele>370.6</ele>
        <time>2024-05-19T07:21:48Z</time>
      </trkpt>
      <trkpt lat="45.80964" lon="3.29944">
        <ele>370.6</ele>
        <time>2024-05-19T07:21:49Z</time>
      </trkpt>
      <trkpt lat="45.80959" lon="3.29943">
        <ele>370.6</ele>
        <time>2024-05-19T07:21:50Z</time>
      </trkpt>
      <trkpt lat="45.80954" lon="3.29942">
        <ele>370.6</ele>
        <time>2024-05-19T07:21:51Z</time>
      </trkpt>
      <trkpt lat="45.8095" lon="3.29941">
        <ele>370.6</ele>
        <time>2024-05-19T07:21:52Z</time>
      </trkpt>
      <trkpt lat="45.80945" lon="3.2994">
        <ele>370.6</ele>
        <time>2024-05-19T07:21:53Z</time>
      </trkpt>
      <trkpt lat="45.8094" lon="3.29939">
        <ele>370.4</ele>
        <time>2024-05-19T07:21:54Z</time>
      </trkpt>
      <trkpt lat="45.80934" lon="3.29938">
        <ele>370.4</ele>
        <time>2024-05-19T07:21:55Z</time>
      </trkpt>
      <trkpt lat="45.80929" lon="3.29937">
        <ele>370.4</ele>
        <time>2024-05-19T07:21:56Z</time>
      </trkpt>
      <trkpt lat="45.80924" lon="3.29936">
        <ele>370.4</ele>
        <time>2024-05-19T07:21:57Z</time>
      </trkpt>
      <trkpt lat="45.80918" lon="3.29935">
        <ele>370.2</ele>
        <time>2024-05-19T07:21:58Z</time>
      </trkpt>
      <trkpt lat="45.80912" lon="3.29933">
        <ele>370.2</ele>
        <time>2024-05-19T07:21:59Z</time>
      </trkpt>
      <trkpt lat="45.80906" lon="3.29932">
        <ele>370</ele>
        <time>2024-05-19T07:22:00Z</time>
      </trkpt>
      <trkpt lat="45.80899" lon="3.29931">
        <ele>370.8</ele>
        <time>2024-05-19T07:22:01Z</time>
      </trkpt>
      <trkpt lat="45.80893" lon="3.29929">
        <ele>369.8</ele>
        <time>2024-05-19T07:22:02Z</time>
      </trkpt>
      <trkpt lat="45.80886" lon="3.29927">
        <ele>368.8</ele>
        <time>2024-05-19T07:22:03Z</time>
      </trkpt>
      <trkpt lat="45.80878" lon="3.29925">
        <ele>369.2</ele>
        <time>2024-05-19T07:22:04Z</time>
      </trkpt>
      <trkpt lat="45.80869" lon="3.2992">
        <ele>368.8</ele>
        <time>2024-05-19T07:22:05Z</time>
      </trkpt>
      <trkpt lat="45.80864" lon="3.29909">
        <ele>368.4</ele>
        <time>2024-05-19T07:22:06Z</time>
      </trkpt>
      <trkpt lat="45.80858" lon="3.29898">
        <ele>368.4</ele>
        <time>2024-05-19T07:22:07Z</time>
      </trkpt>
      <trkpt lat="45.80853" lon="3.29887">
        <ele>368.4</ele>
        <time>2024-05-19T07:22:08Z</time>
      </trkpt>
      <trkpt lat="45.80848" lon="3.29875">
        <ele>368</ele>
        <time>2024-05-19T07:22:09Z</time>
      </trkpt>
      <trkpt lat="45.80842" lon="3.29861">
        <ele>367.8</ele>
        <time>2024-05-19T07:22:10Z</time>
      </trkpt>
      <trkpt lat="45.80839" lon="3.29846">
        <ele>367.8</ele>
        <time>2024-05-19T07:22:11Z</time>
      </trkpt>
      <trkpt lat="45.80837" lon="3.29831">
        <ele>367.6</ele>
        <time>2024-05-19T07:22:12Z</time>
      </trkpt>
      <trkpt lat="45.80835" lon="3.29818">
        <ele>367.4</ele>
        <time>2024-05-19T07:22:13Z</time>
      </trkpt>
      <trkpt lat="45.80833" lon="3.29805">
        <ele>367.2</ele>
        <time>2024-05-19T07:22:14Z</time>
      </trkpt>
      <trkpt lat="45.80832" lon="3.29793">
        <ele>367</ele>
        <time>2024-05-19T07:22:15Z</time>
      </trkpt>
      <trkpt lat="45.80827" lon="3.29786">
        <ele>366.8</ele>
        <time>2024-05-19T07:22:16Z</time>
      </trkpt>
      <trkpt lat="45.80821" lon="3.29781">
        <ele>366.4</ele>
        <time>2024-05-19T07:22:17Z</time>
      </trkpt>
      <trkpt lat="45.80814" lon="3.29786">
        <ele>366.2</ele>
        <time>2024-05-19T07:22:18Z</time>
      </trkpt>
      <trkpt lat="45.80808" lon="3.29791">
        <ele>366.2</ele>
        <time>2024-05-19T07:22:19Z</time>
      </trkpt>
      <trkpt lat="45.80803" lon="3.29813">
        <ele>366.2</ele>
        <time>2024-05-19T07:22:20Z</time>
      </trkpt>
      <trkpt lat="45.80803" lon="3.29813">
        <ele>366.2</ele>
        <time>2024-05-19T07:22:21Z</time>
      </trkpt>
      <trkpt lat="45.80803" lon="3.29825">
        <ele>366.4</ele>
        <time>2024-05-19T07:22:22Z</time>
      </trkpt>
      <trkpt lat="45.80802" lon="3.29838">
        <ele>366.2</ele>
        <time>2024-05-19T07:22:23Z</time>
      </trkpt>
      <trkpt lat="45.80802" lon="3.29852">
        <ele>366.2</ele>
        <time>2024-05-19T07:22:24Z</time>
      </trkpt>
      <trkpt lat="45.80802" lon="3.29866">
        <ele>366.2</ele>
        <time>2024-05-19T07:22:25Z</time>
      </trkpt>
      <trkpt lat="45.80801" lon="3.2988">
        <ele>366</ele>
        <time>2024-05-19T07:22:26Z</time>
      </trkpt>
      <trkpt lat="45.80801" lon="3.29896">
        <ele>365.8</ele>
        <time>2024-05-19T07:22:27Z</time>
      </trkpt>
      <trkpt lat="45.80797" lon="3.29909">
        <ele>365.6</ele>
        <time>2024-05-19T07:22:28Z</time>
      </trkpt>
      <trkpt lat="45.80792" lon="3.29924">
        <ele>365.4</ele>
        <time>2024-05-19T07:22:29Z</time>
      </trkpt>
      <trkpt lat="45.80787" lon="3.29939">
        <ele>365</ele>
        <time>2024-05-19T07:22:30Z</time>
      </trkpt>
      <trkpt lat="45.80778" lon="3.29951">
        <ele>364.6</ele>
        <time>2024-05-19T07:22:31Z</time>
      </trkpt>
      <trkpt lat="45.80769" lon="3.29963">
        <ele>364.4</ele>
        <time>2024-05-19T07:22:32Z</time>
      </trkpt>
      <trkpt lat="45.80757" lon="3.29971">
        <ele>364</ele>
        <time>2024-05-19T07:22:33Z</time>
      </trkpt>
      <trkpt lat="45.80745" lon="3.29974">
        <ele>363.8</ele>
        <time>2024-05-19T07:22:34Z</time>
      </trkpt>
      <trkpt lat="45.80732" lon="3.29976">
        <ele>363.4</ele>
        <time>2024-05-19T07:22:35Z</time>
      </trkpt>
      <trkpt lat="45.80718" lon="3.29978">
        <ele>363</ele>
        <time>2024-05-19T07:22:36Z</time>
      </trkpt>
      <trkpt lat="45.80705" lon="3.29978">
        <ele>362.6</ele>
        <time>2024-05-19T07:22:37Z</time>
      </trkpt>
      <trkpt lat="45.80692" lon="3.29977">
        <ele>362.2</ele>
        <time>2024-05-19T07:22:38Z</time>
      </trkpt>
      <trkpt lat="45.80678" lon="3.29977">
        <ele>361.6</ele>
        <time>2024-05-19T07:22:39Z</time>
      </trkpt>
      <trkpt lat="45.80665" lon="3.29976">
        <ele>361.2</ele>
        <time>2024-05-19T07:22:40Z</time>
      </trkpt>
      <trkpt lat="45.80651" lon="3.29976">
        <ele>360.8</ele>
        <time>2024-05-19T07:22:41Z</time>
      </trkpt>
      <trkpt lat="45.80638" lon="3.29975">
        <ele>360.4</ele>
        <time>2024-05-19T07:22:42Z</time>
      </trkpt>
      <trkpt lat="45.80625" lon="3.29975">
        <ele>360</ele>
        <time>2024-05-19T07:22:43Z</time>
      </trkpt>
      <trkpt lat="45.80611" lon="3.29974">
        <ele>359.6</ele>
        <time>2024-05-19T07:22:44Z</time>
      </trkpt>
      <trkpt lat="45.80599" lon="3.29975">
        <ele>359.4</ele>
        <time>2024-05-19T07:22:45Z</time>
      </trkpt>
      <trkpt lat="45.80586" lon="3.29977">
        <ele>359.2</ele>
        <time>2024-05-19T07:22:46Z</time>
      </trkpt>
      <trkpt lat="45.80574" lon="3.29979">
        <ele>358.8</ele>
        <time>2024-05-19T07:22:47Z</time>
      </trkpt>
      <trkpt lat="45.80561" lon="3.2998">
        <ele>358.6</ele>
        <time>2024-05-19T07:22:48Z</time>
      </trkpt>
      <trkpt lat="45.80549" lon="3.29982">
        <ele>358.4</ele>
        <time>2024-05-19T07:22:49Z</time>
      </trkpt>
      <trkpt lat="45.80537" lon="3.29984">
        <ele>358</ele>
        <time>2024-05-19T07:22:50Z</time>
      </trkpt>
      <trkpt lat="45.80525" lon="3.29985">
        <ele>357.8</ele>
        <time>2024-05-19T07:22:51Z</time>
      </trkpt>
      <trkpt lat="45.80514" lon="3.29987">
        <ele>357.6</ele>
        <time>2024-05-19T07:22:52Z</time>
      </trkpt>
      <trkpt lat="45.80503" lon="3.29988">
        <ele>357.4</ele>
        <time>2024-05-19T07:22:53Z</time>
      </trkpt>
      <trkpt lat="45.80493" lon="3.2999">
        <ele>357.2</ele>
        <time>2024-05-19T07:22:54Z</time>
      </trkpt>
      <trkpt lat="45.80482" lon="3.29991">
        <ele>357</ele>
        <time>2024-05-19T07:22:55Z</time>
      </trkpt>
      <trkpt lat="45.80472" lon="3.29986">
        <ele>356.8</ele>
        <time>2024-05-19T07:22:56Z</time>
      </trkpt>
      <trkpt lat="45.80463" lon="3.29981">
        <ele>356.6</ele>
        <time>2024-05-19T07:22:57Z</time>
      </trkpt>
      <trkpt lat="45.80453" lon="3.29976">
        <ele>356.4</ele>
        <time>2024-05-19T07:22:58Z</time>
      </trkpt>
      <trkpt lat="45.80444" lon="3.29971">
        <ele>356.2</ele>
        <time>2024-05-19T07:22:59Z</time>
      </trkpt>
      <trkpt lat="45.80434" lon="3.29966">
        <ele>355.8</ele>
        <time>2024-05-19T07:23:00Z</time>
      </trkpt>
      <trkpt lat="45.80424" lon="3.29961">
        <ele>355.4</ele>
        <time>2024-05-19T07:23:01Z</time>
      </trkpt>
      <trkpt lat="45.80414" lon="3.29956">
        <ele>355</ele>
        <time>2024-05-19T07:23:02Z</time>
      </trkpt>
      <trkpt lat="45.80405" lon="3.29951">
        <ele>354.8</ele>
        <time>2024-05-19T07:23:03Z</time>
      </trkpt>
      <trkpt lat="45.80395" lon="3.29946">
        <ele>354.6</ele>
        <time>2024-05-19T07:23:04Z</time>
      </trkpt>
      <trkpt lat="45.80385" lon="3.29941">
        <ele>354.4</ele>
        <time>2024-05-19T07:23:05Z</time>
      </trkpt>
      <trkpt lat="45.80376" lon="3.29935">
        <ele>354</ele>
        <time>2024-05-19T07:23:06Z</time>
      </trkpt>
      <trkpt lat="45.80366" lon="3.29931">
        <ele>353.8</ele>
        <time>2024-05-19T07:23:07Z</time>
      </trkpt>
      <trkpt lat="45.80357" lon="3.29925">
        <ele>353.4</ele>
        <time>2024-05-19T07:23:08Z</time>
      </trkpt>
      <trkpt lat="45.80347" lon="3.29921">
        <ele>353</ele>
        <time>2024-05-19T07:23:09Z</time>
      </trkpt>
      <trkpt lat="45.80338" lon="3.29915">
        <ele>352.8</ele>
        <time>2024-05-19T07:23:10Z</time>
      </trkpt>
      <trkpt lat="45.80328" lon="3.29911">
        <ele>352.6</ele>
        <time>2024-05-19T07:23:11Z</time>
      </trkpt>
      <trkpt lat="45.80319" lon="3.29906">
        <ele>352.2</ele>
        <time>2024-05-19T07:23:12Z</time>
      </trkpt>
      <trkpt lat="45.8031" lon="3.29901">
        <ele>352</ele>
        <time>2024-05-19T07:23:13Z</time>
      </trkpt>
      <trkpt lat="45.80301" lon="3.29896">
        <ele>351.6</ele>
        <time>2024-05-19T07:23:14Z</time>
      </trkpt>
      <trkpt lat="45.80292" lon="3.29891">
        <ele>351.2</ele>
        <time>2024-05-19T07:23:15Z</time>
      </trkpt>
      <trkpt lat="45.80282" lon="3.29886">
        <ele>351</ele>
        <time>2024-05-19T07:23:16Z</time>
      </trkpt>
      <trkpt lat="45.80273" lon="3.29883">
        <ele>350.8</ele>
        <time>2024-05-19T07:23:17Z</time>
      </trkpt>
      <trkpt lat="45.80264" lon="3.29879">
        <ele>350.6</ele>
        <time>2024-05-19T07:23:18Z</time>
      </trkpt>
      <trkpt lat="45.80255" lon="3.29876">
        <ele>350.4</ele>
        <time>2024-05-19T07:23:19Z</time>
      </trkpt>
      <trkpt lat="45.80245" lon="3.29872">
        <ele>350.2</ele>
        <time>2024-05-19T07:23:20Z</time>
      </trkpt>
      <trkpt lat="45.80236" lon="3.29869">
        <ele>350</ele>
        <time>2024-05-19T07:23:21Z</time>
      </trkpt>
      <trkpt lat="45.80227" lon="3.29867">
        <ele>349.8</ele>
        <time>2024-05-19T07:23:22Z</time>
      </trkpt>
      <trkpt lat="45.80218" lon="3.2987">
        <ele>349.6</ele>
        <time>2024-05-19T07:23:23Z</time>
      </trkpt>
      <trkpt lat="45.8021" lon="3.29872">
        <ele>349.2</ele>
        <time>2024-05-19T07:23:24Z</time>
      </trkpt>
      <trkpt lat="45.80201" lon="3.29874">
        <ele>349</ele>
        <time>2024-05-19T07:23:25Z</time>
      </trkpt>
      <trkpt lat="45.80194" lon="3.29877">
        <ele>348.8</ele>
        <time>2024-05-19T07:23:26Z</time>
      </trkpt>
      <trkpt lat="45.80187" lon="3.29884">
        <ele>348.8</ele>
        <time>2024-05-19T07:23:27Z</time>
      </trkpt>
      <trkpt lat="45.8018" lon="3.2989">
        <ele>348.6</ele>
        <time>2024-05-19T07:23:28Z</time>
      </trkpt>
      <trkpt lat="45.80173" lon="3.29897">
        <ele>348.4</ele>
        <time>2024-05-19T07:23:29Z</time>
      </trkpt>
      <trkpt lat="45.80166" lon="3.29903">
        <ele>348.4</ele>
        <time>2024-05-19T07:23:30Z</time>
      </trkpt>
      <trkpt lat="45.8016" lon="3.29911">
        <ele>348.2</ele>
        <time>2024-05-19T07:23:31Z</time>
      </trkpt>
      <trkpt lat="45.80155" lon="3.2992">
        <ele>348</ele>
        <time>2024-05-19T07:23:32Z</time>
      </trkpt>
      <trkpt lat="45.8015" lon="3.29929">
        <ele>347.8</ele>
        <time>2024-05-19T07:23:33Z</time>
      </trkpt>
      <trkpt lat="45.80146" lon="3.29938">
        <ele>347.6</ele>
        <time>2024-05-19T07:23:34Z</time>
      </trkpt>
      <trkpt lat="45.80141" lon="3.29946">
        <ele>347.4</ele>
        <time>2024-05-19T07:23:35Z</time>
      </trkpt>
      <trkpt lat="45.80136" lon="3.29954">
        <ele>347.4</ele>
        <time>2024-05-19T07:23:36Z</time>
      </trkpt>
      <trkpt lat="45.80132" lon="3.29962">
        <ele>347.4</ele>
        <time>2024-05-19T07:23:37Z</time>
      </trkpt>
      <trkpt lat="45.80127" lon="3.2997">
        <ele>347.2</ele>
        <time>2024-05-19T07:23:38Z</time>
      </trkpt>
      <trkpt lat="45.80123" lon="3.29978">
        <ele>347</ele>
        <time>2024-05-19T07:23:39Z</time>
      </trkpt>
      <trkpt lat="45.80118" lon="3.29987">
        <ele>346.8</ele>
        <time>2024-05-19T07:23:40Z</time>
      </trkpt>
      <trkpt lat="45.80113" lon="3.29995">
        <ele>346.6</ele>
        <time>2024-05-19T07:23:41Z</time>
      </trkpt>
      <trkpt lat="45.80109" lon="3.30003">
        <ele>346.4</ele>
        <time>2024-05-19T07:23:42Z</time>
      </trkpt>
      <trkpt lat="45.80104" lon="3.30012">
        <ele>346.4</ele>
        <time>2024-05-19T07:23:43Z</time>
      </trkpt>
      <trkpt lat="45.801" lon="3.3002">
        <ele>346.2</ele>
        <time>2024-05-19T07:23:44Z</time>
      </trkpt>
      <trkpt lat="45.80095" lon="3.30028">
        <ele>346</ele>
        <time>2024-05-19T07:23:45Z</time>
      </trkpt>
      <trkpt lat="45.8009" lon="3.30036">
        <ele>345.8</ele>
        <time>2024-05-19T07:23:46Z</time>
      </trkpt>
      <trkpt lat="45.80086" lon="3.30045">
        <ele>345.6</ele>
        <time>2024-05-19T07:23:47Z</time>
      </trkpt>
      <trkpt lat="45.80081" lon="3.30053">
        <ele>345.4</ele>
        <time>2024-05-19T07:23:48Z</time>
      </trkpt>
      <trkpt lat="45.80076" lon="3.30062">
        <ele>345.2</ele>
        <time>2024-05-19T07:23:49Z</time>
      </trkpt>
      <trkpt lat="45.80071" lon="3.3007">
        <ele>345</ele>
        <time>2024-05-19T07:23:50Z</time>
      </trkpt>
      <trkpt lat="45.80067" lon="3.30078">
        <ele>345</ele>
        <time>2024-05-19T07:23:51Z</time>
      </trkpt>
      <trkpt lat="45.80062" lon="3.30087">
        <ele>344.8</ele>
        <time>2024-05-19T07:23:52Z</time>
      </trkpt>
      <trkpt lat="45.80057" lon="3.30094">
        <ele>344.8</ele>
        <time>2024-05-19T07:23:53Z</time>
      </trkpt>
      <trkpt lat="45.80052" lon="3.30102">
        <ele>344.6</ele>
        <time>2024-05-19T07:23:54Z</time>
      </trkpt>
      <trkpt lat="45.80047" lon="3.3011">
        <ele>344.4</ele>
        <time>2024-05-19T07:23:55Z</time>
      </trkpt>
      <trkpt lat="45.80043" lon="3.30117">
        <ele>344.2</ele>
        <time>2024-05-19T07:23:56Z</time>
      </trkpt>
      <trkpt lat="45.80038" lon="3.30125">
        <ele>344.2</ele>
        <time>2024-05-19T07:23:57Z</time>
      </trkpt>
      <trkpt lat="45.80033" lon="3.30132">
        <ele>344</ele>
        <time>2024-05-19T07:23:58Z</time>
      </trkpt>
      <trkpt lat="45.80028" lon="3.30139">
        <ele>343.8</ele>
        <time>2024-05-19T07:23:59Z</time>
      </trkpt>
      <trkpt lat="45.80024" lon="3.30147">
        <ele>343.8</ele>
        <time>2024-05-19T07:24:00Z</time>
      </trkpt>
      <trkpt lat="45.80019" lon="3.30154">
        <ele>343.8</ele>
        <time>2024-05-19T07:24:01Z</time>
      </trkpt>
      <trkpt lat="45.80014" lon="3.30161">
        <ele>343.6</ele>
        <time>2024-05-19T07:24:02Z</time>
      </trkpt>
      <trkpt lat="45.80009" lon="3.30169">
        <ele>343.6</ele>
        <time>2024-05-19T07:24:03Z</time>
      </trkpt>
      <trkpt lat="45.80005" lon="3.30176">
        <ele>343.6</ele>
        <time>2024-05-19T07:24:04Z</time>
      </trkpt>
      <trkpt lat="45.8" lon="3.30184">
        <ele>343.4</ele>
        <time>2024-05-19T07:24:05Z</time>
      </trkpt>
      <trkpt lat="45.79995" lon="3.30191">
        <ele>343.4</ele>
        <time>2024-05-19T07:24:06Z</time>
      </trkpt>
      <trkpt lat="45.79991" lon="3.30198">
        <ele>343.2</ele>
        <time>2024-05-19T07:24:07Z</time>
      </trkpt>
      <trkpt lat="45.79986" lon="3.30206">
        <ele>343</ele>
        <time>2024-05-19T07:24:08Z</time>
      </trkpt>
      <trkpt lat="45.79981" lon="3.30213">
        <ele>343</ele>
        <time>2024-05-19T07:24:09Z</time>
      </trkpt>
      <trkpt lat="45.79976" lon="3.30221">
        <ele>342.8</ele>
        <time>2024-05-19T07:24:10Z</time>
      </trkpt>
      <trkpt lat="45.79971" lon="3.30229">
        <ele>342.8</ele>
        <time>2024-05-19T07:24:11Z</time>
      </trkpt>
      <trkpt lat="45.79966" lon="3.30236">
        <ele>342.8</ele>
        <time>2024-05-19T07:24:12Z</time>
      </trkpt>
      <trkpt lat="45.79962" lon="3.30244">
        <ele>342.6</ele>
        <time>2024-05-19T07:24:13Z</time>
      </trkpt>
      <trkpt lat="45.79957" lon="3.30252">
        <ele>342.6</ele>
        <time>2024-05-19T07:24:14Z</time>
      </trkpt>
      <trkpt lat="45.79952" lon="3.3026">
        <ele>342.4</ele>
        <time>2024-05-19T07:24:15Z</time>
      </trkpt>
      <trkpt lat="45.79948" lon="3.30268">
        <ele>342.4</ele>
        <time>2024-05-19T07:24:16Z</time>
      </trkpt>
      <trkpt lat="45.79943" lon="3.30275">
        <ele>342</ele>
        <time>2024-05-19T07:24:17Z</time>
      </trkpt>
      <trkpt lat="45.79938" lon="3.30283">
        <ele>342</ele>
        <time>2024-05-19T07:24:18Z</time>
      </trkpt>
      <trkpt lat="45.79934" lon="3.30291">
        <ele>341.8</ele>
        <time>2024-05-19T07:24:19Z</time>
      </trkpt>
      <trkpt lat="45.79929" lon="3.30299">
        <ele>341.8</ele>
        <time>2024-05-19T07:24:20Z</time>
      </trkpt>
      <trkpt lat="45.79925" lon="3.30307">
        <ele>341.6</ele>
        <time>2024-05-19T07:24:21Z</time>
      </trkpt>
      <trkpt lat="45.7992" lon="3.30316">
        <ele>341.4</ele>
        <time>2024-05-19T07:24:22Z</time>
      </trkpt>
      <trkpt lat="45.79915" lon="3.30324">
        <ele>341.2</ele>
        <time>2024-05-19T07:24:23Z</time>
      </trkpt>
      <trkpt lat="45.7991" lon="3.30332">
        <ele>341</ele>
        <time>2024-05-19T07:24:24Z</time>
      </trkpt>
      <trkpt lat="45.79906" lon="3.3034">
        <ele>340.8</ele>
        <time>2024-05-19T07:24:25Z</time>
      </trkpt>
      <trkpt lat="45.79901" lon="3.30348">
        <ele>340.8</ele>
        <time>2024-05-19T07:24:26Z</time>
      </trkpt>
      <trkpt lat="45.79896" lon="3.30356">
        <ele>340.6</ele>
        <time>2024-05-19T07:24:27Z</time>
      </trkpt>
      <trkpt lat="45.79892" lon="3.30364">
        <ele>340.4</ele>
        <time>2024-05-19T07:24:28Z</time>
      </trkpt>
      <trkpt lat="45.79887" lon="3.30373">
        <ele>340.4</ele>
        <time>2024-05-19T07:24:29Z</time>
      </trkpt>
      <trkpt lat="45.79882" lon="3.30381">
        <ele>340.2</ele>
        <time>2024-05-19T07:24:30Z</time>
      </trkpt>
      <trkpt lat="45.79877" lon="3.30389">
        <ele>340</ele>
        <time>2024-05-19T07:24:31Z</time>
      </trkpt>
      <trkpt lat="45.79872" lon="3.30397">
        <ele>340</ele>
        <time>2024-05-19T07:24:32Z</time>
      </trkpt>
      <trkpt lat="45.79868" lon="3.30405">
        <ele>339.8</ele>
        <time>2024-05-19T07:24:33Z</time>
      </trkpt>
      <trkpt lat="45.79863" lon="3.30414">
        <ele>339.6</ele>
        <time>2024-05-19T07:24:34Z</time>
      </trkpt>
      <trkpt lat="45.79858" lon="3.30422">
        <ele>339.6</ele>
        <time>2024-05-19T07:24:35Z</time>
      </trkpt>
      <trkpt lat="45.79854" lon="3.3043">
        <ele>339.4</ele>
        <time>2024-05-19T07:24:36Z</time>
      </trkpt>
      <trkpt lat="45.79848" lon="3.30437">
        <ele>339.2</ele>
        <time>2024-05-19T07:24:37Z</time>
      </trkpt>
      <trkpt lat="45.79842" lon="3.30441">
        <ele>339.2</ele>
        <time>2024-05-19T07:24:38Z</time>
      </trkpt>
      <trkpt lat="45.79835" lon="3.30446">
        <ele>339</ele>
        <time>2024-05-19T07:24:39Z</time>
      </trkpt>
      <trkpt lat="45.79828" lon="3.3045">
        <ele>339</ele>
        <time>2024-05-19T07:24:40Z</time>
      </trkpt>
      <trkpt lat="45.79822" lon="3.30454">
        <ele>339</ele>
        <time>2024-05-19T07:24:41Z</time>
      </trkpt>
      <trkpt lat="45.79815" lon="3.30459">
        <ele>338.8</ele>
        <time>2024-05-19T07:24:42Z</time>
      </trkpt>
      <trkpt lat="45.79809" lon="3.30462">
        <ele>338.8</ele>
        <time>2024-05-19T07:24:43Z</time>
      </trkpt>
      <trkpt lat="45.79802" lon="3.30464">
        <ele>338.8</ele>
        <time>2024-05-19T07:24:44Z</time>
      </trkpt>
      <trkpt lat="45.79795" lon="3.30467">
        <ele>338.6</ele>
        <time>2024-05-19T07:24:45Z</time>
      </trkpt>
      <trkpt lat="45.79788" lon="3.30469">
        <ele>338.6</ele>
        <time>2024-05-19T07:24:46Z</time>
      </trkpt>
      <trkpt lat="45.79781" lon="3.30471">
        <ele>338.4</ele>
        <time>2024-05-19T07:24:47Z</time>
      </trkpt>
      <trkpt lat="45.79775" lon="3.30474">
        <ele>338.4</ele>
        <time>2024-05-19T07:24:48Z</time>
      </trkpt>
      <trkpt lat="45.79768" lon="3.30476">
        <ele>338.2</ele>
        <time>2024-05-19T07:24:49Z</time>
      </trkpt>
      <trkpt lat="45.79761" lon="3.30479">
        <ele>338.2</ele>
        <time>2024-05-19T07:24:50Z</time>
      </trkpt>
      <trkpt lat="45.79754" lon="3.30481">
        <ele>338</ele>
        <time>2024-05-19T07:24:51Z</time>
      </trkpt>
      <trkpt lat="45.79747" lon="3.30483">
        <ele>337.8</ele>
        <time>2024-05-19T07:24:52Z</time>
      </trkpt>
      <trkpt lat="45.7974" lon="3.30485">
        <ele>337.8</ele>
        <time>2024-05-19T07:24:53Z</time>
      </trkpt>
      <trkpt lat="45.79734" lon="3.30487">
        <ele>337.6</ele>
        <time>2024-05-19T07:24:54Z</time>
      </trkpt>
      <trkpt lat="45.79727" lon="3.30489">
        <ele>337.6</ele>
        <time>2024-05-19T07:24:55Z</time>
      </trkpt>
      <trkpt lat="45.79721" lon="3.30491">
        <ele>337.6</ele>
        <time>2024-05-19T07:24:56Z</time>
      </trkpt>
      <trkpt lat="45.79715" lon="3.30493">
        <ele>337.4</ele>
        <time>2024-05-19T07:24:57Z</time>
      </trkpt>
      <trkpt lat="45.79709" lon="3.30495">
        <ele>337.4</ele>
        <time>2024-05-19T07:24:58Z</time>
      </trkpt>
      <trkpt lat="45.79703" lon="3.30497">
        <ele>337.2</ele>
        <time>2024-05-19T07:24:59Z</time>
      </trkpt>
      <trkpt lat="45.79698" lon="3.30498">
        <ele>337.2</ele>
        <time>2024-05-19T07:25:00Z</time>
      </trkpt>
      <trkpt lat="45.79693" lon="3.305">
        <ele>337</ele>
        <time>2024-05-19T07:25:01Z</time>
      </trkpt>
      <trkpt lat="45.79687" lon="3.30502">
        <ele>337</ele>
        <time>2024-05-19T07:25:02Z</time>
      </trkpt>
      <trkpt lat="45.79682" lon="3.30504">
        <ele>337</ele>
        <time>2024-05-19T07:25:03Z</time>
      </trkpt>
      <trkpt lat="45.79676" lon="3.30505">
        <ele>336.8</ele>
        <time>2024-05-19T07:25:04Z</time>
      </trkpt>
      <trkpt lat="45.7967" lon="3.30509">
        <ele>336.8</ele>
        <time>2024-05-19T07:25:05Z</time>
      </trkpt>
      <trkpt lat="45.79665" lon="3.30514">
        <ele>336.6</ele>
        <time>2024-05-19T07:25:06Z</time>
      </trkpt>
      <trkpt lat="45.79659" lon="3.30518">
        <ele>336.4</ele>
        <time>2024-05-19T07:25:07Z</time>
      </trkpt>
      <trkpt lat="45.79654" lon="3.30526">
        <ele>336.4</ele>
        <time>2024-05-19T07:25:08Z</time>
      </trkpt>
      <trkpt lat="45.79649" lon="3.30533">
        <ele>336.2</ele>
        <time>2024-05-19T07:25:09Z</time>
      </trkpt>
      <trkpt lat="45.79642" lon="3.30538">
        <ele>336.2</ele>
        <time>2024-05-19T07:25:10Z</time>
      </trkpt>
      <trkpt lat="45.79636" lon="3.30542">
        <ele>336</ele>
        <time>2024-05-19T07:25:11Z</time>
      </trkpt>
      <trkpt lat="45.7963" lon="3.30546">
        <ele>336</ele>
        <time>2024-05-19T07:25:12Z</time>
      </trkpt>
      <trkpt lat="45.79624" lon="3.3055">
        <ele>336</ele>
        <time>2024-05-19T07:25:13Z</time>
      </trkpt>
      <trkpt lat="45.79617" lon="3.30554">
        <ele>335.8</ele>
        <time>2024-05-19T07:25:14Z</time>
      </trkpt>
      <trkpt lat="45.79611" lon="3.30559">
        <ele>335.8</ele>
        <time>2024-05-19T07:25:15Z</time>
      </trkpt>
      <trkpt lat="45.79605" lon="3.30563">
        <ele>335.8</ele>
        <time>2024-05-19T07:25:16Z</time>
      </trkpt>
      <trkpt lat="45.79599" lon="3.30567">
        <ele>335.8</ele>
        <time>2024-05-19T07:25:17Z</time>
      </trkpt>
      <trkpt lat="45.79593" lon="3.30571">
        <ele>335.8</ele>
        <time>2024-05-19T07:25:18Z</time>
      </trkpt>
      <trkpt lat="45.79587" lon="3.30575">
        <ele>335.6</ele>
        <time>2024-05-19T07:25:19Z</time>
      </trkpt>
      <trkpt lat="45.79581" lon="3.30579">
        <ele>335.6</ele>
        <time>2024-05-19T07:25:20Z</time>
      </trkpt>
      <trkpt lat="45.79575" lon="3.30583">
        <ele>335.6</ele>
        <time>2024-05-19T07:25:21Z</time>
      </trkpt>
      <trkpt lat="45.79569" lon="3.30587">
        <ele>335.6</ele>
        <time>2024-05-19T07:25:22Z</time>
      </trkpt>
      <trkpt lat="45.79562" lon="3.30591">
        <ele>335.4</ele>
        <time>2024-05-19T07:25:23Z</time>
      </trkpt>
      <trkpt lat="45.79556" lon="3.30596">
        <ele>335.2</ele>
        <time>2024-05-19T07:25:24Z</time>
      </trkpt>
      <trkpt lat="45.7955" lon="3.30599">
        <ele>335.2</ele>
        <time>2024-05-19T07:25:25Z</time>
      </trkpt>
      <trkpt lat="45.79543" lon="3.30602">
        <ele>335.2</ele>
        <time>2024-05-19T07:25:26Z</time>
      </trkpt>
      <trkpt lat="45.79537" lon="3.30605">
        <ele>335</ele>
        <time>2024-05-19T07:25:27Z</time>
      </trkpt>
      <trkpt lat="45.7953" lon="3.30607">
        <ele>335</ele>
        <time>2024-05-19T07:25:28Z</time>
      </trkpt>
      <trkpt lat="45.79524" lon="3.3061">
        <ele>335</ele>
        <time>2024-05-19T07:25:29Z</time>
      </trkpt>
      <trkpt lat="45.79517" lon="3.30613">
        <ele>334.8</ele>
        <time>2024-05-19T07:25:30Z</time>
      </trkpt>
      <trkpt lat="45.7951" lon="3.30616">
        <ele>334.8</ele>
        <time>2024-05-19T07:25:31Z</time>
      </trkpt>
      <trkpt lat="45.79504" lon="3.30619">
        <ele>334.8</ele>
        <time>2024-05-19T07:25:32Z</time>
      </trkpt>
      <trkpt lat="45.79497" lon="3.30621">
        <ele>334.8</ele>
        <time>2024-05-19T07:25:33Z</time>
      </trkpt>
      <trkpt lat="45.7949" lon="3.30623">
        <ele>334.6</ele>
        <time>2024-05-19T07:25:34Z</time>
      </trkpt>
      <trkpt lat="45.79484" lon="3.30625">
        <ele>334.6</ele>
        <time>2024-05-19T07:25:35Z</time>
      </trkpt>
      <trkpt lat="45.79477" lon="3.30627">
        <ele>334.4</ele>
        <time>2024-05-19T07:25:36Z</time>
      </trkpt>
      <trkpt lat="45.7947" lon="3.30629">
        <ele>334.4</ele>
        <time>2024-05-19T07:25:37Z</time>
      </trkpt>
      <trkpt lat="45.79463" lon="3.30631">
        <ele>334.2</ele>
        <time>2024-05-19T07:25:38Z</time>
      </trkpt>
      <trkpt lat="45.79457" lon="3.30633">
        <ele>334.2</ele>
        <time>2024-05-19T07:25:39Z</time>
      </trkpt>
      <trkpt lat="45.7945" lon="3.30635">
        <ele>334</ele>
        <time>2024-05-19T07:25:40Z</time>
      </trkpt>
      <trkpt lat="45.79443" lon="3.30637">
        <ele>333.8</ele>
        <time>2024-05-19T07:25:41Z</time>
      </trkpt>
      <trkpt lat="45.79436" lon="3.30639">
        <ele>333.8</ele>
        <time>2024-05-19T07:25:42Z</time>
      </trkpt>
      <trkpt lat="45.79429" lon="3.30641">
        <ele>333.6</ele>
        <time>2024-05-19T07:25:43Z</time>
      </trkpt>
      <trkpt lat="45.79422" lon="3.30643">
        <ele>333.6</ele>
        <time>2024-05-19T07:25:44Z</time>
      </trkpt>
      <trkpt lat="45.79414" lon="3.30645">
        <ele>333.4</ele>
        <time>2024-05-19T07:25:45Z</time>
      </trkpt>
      <trkpt lat="45.79407" lon="3.30648">
        <ele>333.2</ele>
        <time>2024-05-19T07:25:46Z</time>
      </trkpt>
      <trkpt lat="45.79399" lon="3.30652">
        <ele>333</ele>
        <time>2024-05-19T07:25:47Z</time>
      </trkpt>
      <trkpt lat="45.79391" lon="3.30656">
        <ele>332.8</ele>
        <time>2024-05-19T07:25:48Z</time>
      </trkpt>
      <trkpt lat="45.79383" lon="3.3066">
        <ele>332.6</ele>
        <time>2024-05-19T07:25:49Z</time>
      </trkpt>
      <trkpt lat="45.79375" lon="3.30664">
        <ele>332.6</ele>
        <time>2024-05-19T07:25:50Z</time>
      </trkpt>
      <trkpt lat="45.79368" lon="3.30668">
        <ele>332.4</ele>
        <time>2024-05-19T07:25:51Z</time>
      </trkpt>
      <trkpt lat="45.7936" lon="3.30672">
        <ele>332.2</ele>
        <time>2024-05-19T07:25:52Z</time>
      </trkpt>
      <trkpt lat="45.79352" lon="3.30676">
        <ele>332</ele>
        <time>2024-05-19T07:25:53Z</time>
      </trkpt>
      <trkpt lat="45.79345" lon="3.30679">
        <ele>331.8</ele>
        <time>2024-05-19T07:25:54Z</time>
      </trkpt>
      <trkpt lat="45.79338" lon="3.30683">
        <ele>331.6</ele>
        <time>2024-05-19T07:25:55Z</time>
      </trkpt>
      <trkpt lat="45.7933" lon="3.30687">
        <ele>331.6</ele>
        <time>2024-05-19T07:25:56Z</time>
      </trkpt>
      <trkpt lat="45.79323" lon="3.30691">
        <ele>331.4</ele>
        <time>2024-05-19T07:25:57Z</time>
      </trkpt>
      <trkpt lat="45.79316" lon="3.30694">
        <ele>331.4</ele>
        <time>2024-05-19T07:25:58Z</time>
      </trkpt>
      <trkpt lat="45.79309" lon="3.30698">
        <ele>331.2</ele>
        <time>2024-05-19T07:25:59Z</time>
      </trkpt>
      <trkpt lat="45.79302" lon="3.30702">
        <ele>331.2</ele>
        <time>2024-05-19T07:26:00Z</time>
      </trkpt>
      <trkpt lat="45.79295" lon="3.30705">
        <ele>331</ele>
        <time>2024-05-19T07:26:01Z</time>
      </trkpt>
      <trkpt lat="45.79289" lon="3.30708">
        <ele>331</ele>
        <time>2024-05-19T07:26:02Z</time>
      </trkpt>
      <trkpt lat="45.79282" lon="3.30712">
        <ele>331</ele>
        <time>2024-05-19T07:26:03Z</time>
      </trkpt>
      <trkpt lat="45.79275" lon="3.30714">
        <ele>331</ele>
        <time>2024-05-19T07:26:04Z</time>
      </trkpt>
      <trkpt lat="45.79269" lon="3.30716">
        <ele>330.8</ele>
        <time>2024-05-19T07:26:05Z</time>
      </trkpt>
      <trkpt lat="45.79262" lon="3.30717">
        <ele>330.8</ele>
        <time>2024-05-19T07:26:06Z</time>
      </trkpt>
      <trkpt lat="45.79256" lon="3.30719">
        <ele>330.8</ele>
        <time>2024-05-19T07:26:07Z</time>
      </trkpt>
      <trkpt lat="45.7925" lon="3.30721">
        <ele>330.8</ele>
        <time>2024-05-19T07:26:08Z</time>
      </trkpt>
      <trkpt lat="45.79243" lon="3.30723">
        <ele>330.6</ele>
        <time>2024-05-19T07:26:09Z</time>
      </trkpt>
      <trkpt lat="45.79237" lon="3.30725">
        <ele>330.6</ele>
        <time>2024-05-19T07:26:10Z</time>
      </trkpt>
      <trkpt lat="45.7923" lon="3.30726">
        <ele>330.4</ele>
        <time>2024-05-19T07:26:11Z</time>
      </trkpt>
      <trkpt lat="45.79223" lon="3.30728">
        <ele>330.4</ele>
        <time>2024-05-19T07:26:12Z</time>
      </trkpt>
      <trkpt lat="45.79217" lon="3.3073">
        <ele>330.4</ele>
        <time>2024-05-19T07:26:13Z</time>
      </trkpt>
      <trkpt lat="45.7921" lon="3.30732">
        <ele>330.2</ele>
        <time>2024-05-19T07:26:14Z</time>
      </trkpt>
      <trkpt lat="45.79203" lon="3.30734">
        <ele>330.2</ele>
        <time>2024-05-19T07:26:15Z</time>
      </trkpt>
      <trkpt lat="45.79197" lon="3.30737">
        <ele>330</ele>
        <time>2024-05-19T07:26:16Z</time>
      </trkpt>
      <trkpt lat="45.7919" lon="3.3074">
        <ele>330</ele>
        <time>2024-05-19T07:26:17Z</time>
      </trkpt>
      <trkpt lat="45.79184" lon="3.30743">
        <ele>329.8</ele>
        <time>2024-05-19T07:26:18Z</time>
      </trkpt>
      <trkpt lat="45.79177" lon="3.30746">
        <ele>329.8</ele>
        <time>2024-05-19T07:26:19Z</time>
      </trkpt>
      <trkpt lat="45.7917" lon="3.30749">
        <ele>329.8</ele>
        <time>2024-05-19T07:26:20Z</time>
      </trkpt>
      <trkpt lat="45.79163" lon="3.30752">
        <ele>329.6</ele>
        <time>2024-05-19T07:26:21Z</time>
      </trkpt>
      <trkpt lat="45.79156" lon="3.30755">
        <ele>329.6</ele>
        <time>2024-05-19T07:26:22Z</time>
      </trkpt>
      <trkpt lat="45.79149" lon="3.30758">
        <ele>329.4</ele>
        <time>2024-05-19T07:26:23Z</time>
      </trkpt>
      <trkpt lat="45.79142" lon="3.30761">
        <ele>329.4</ele>
        <time>2024-05-19T07:26:24Z</time>
      </trkpt>
      <trkpt lat="45.79135" lon="3.30764">
        <ele>329.2</ele>
        <time>2024-05-19T07:26:25Z</time>
      </trkpt>
      <trkpt lat="45.79128" lon="3.30767">
        <ele>329.2</ele>
        <time>2024-05-19T07:26:26Z</time>
      </trkpt>
      <trkpt lat="45.79121" lon="3.3077">
        <ele>329</ele>
        <time>2024-05-19T07:26:27Z</time>
      </trkpt>
      <trkpt lat="45.79114" lon="3.30773">
        <ele>328.8</ele>
        <time>2024-05-19T07:26:28Z</time>
      </trkpt>
      <trkpt lat="45.79107" lon="3.30776">
        <ele>328.8</ele>
        <time>2024-05-19T07:26:29Z</time>
      </trkpt>
      <trkpt lat="45.791" lon="3.30779">
        <ele>328.8</ele>
        <time>2024-05-19T07:26:30Z</time>
      </trkpt>
      <trkpt lat="45.79093" lon="3.30782">
        <ele>328.6</ele>
        <time>2024-05-19T07:26:31Z</time>
      </trkpt>
      <trkpt lat="45.79086" lon="3.30785">
        <ele>328.6</ele>
        <time>2024-05-19T07:26:32Z</time>
      </trkpt>
      <trkpt lat="45.79079" lon="3.30788">
        <ele>328.6</ele>
        <time>2024-05-19T07:26:33Z</time>
      </trkpt>
      <trkpt lat="45.79072" lon="3.30791">
        <ele>328.6</ele>
        <time>2024-05-19T07:26:34Z</time>
      </trkpt>
      <trkpt lat="45.79065" lon="3.30792">
        <ele>328.6</ele>
        <time>2024-05-19T07:26:35Z</time>
      </trkpt>
      <trkpt lat="45.79058" lon="3.30793">
        <ele>328.4</ele>
        <time>2024-05-19T07:26:36Z</time>
      </trkpt>
      <trkpt lat="45.79052" lon="3.30793">
        <ele>328.4</ele>
        <time>2024-05-19T07:26:37Z</time>
      </trkpt>
      <trkpt lat="45.79046" lon="3.30794">
        <ele>328.4</ele>
        <time>2024-05-19T07:26:38Z</time>
      </trkpt>
      <trkpt lat="45.79039" lon="3.30795">
        <ele>328.4</ele>
        <time>2024-05-19T07:26:39Z</time>
      </trkpt>
      <trkpt lat="45.79033" lon="3.30795">
        <ele>328.4</ele>
        <time>2024-05-19T07:26:40Z</time>
      </trkpt>
      <trkpt lat="45.79027" lon="3.30796">
        <ele>328.4</ele>
        <time>2024-05-19T07:26:41Z</time>
      </trkpt>
      <trkpt lat="45.7902" lon="3.30797">
        <ele>328.4</ele>
        <time>2024-05-19T07:26:42Z</time>
      </trkpt>
      <trkpt lat="45.79014" lon="3.30797">
        <ele>328.4</ele>
        <time>2024-05-19T07:26:43Z</time>
      </trkpt>
      <trkpt lat="45.79008" lon="3.30798">
        <ele>328.4</ele>
        <time>2024-05-19T07:26:44Z</time>
      </trkpt>
      <trkpt lat="45.79002" lon="3.30801">
        <ele>328.4</ele>
        <time>2024-05-19T07:26:45Z</time>
      </trkpt>
      <trkpt lat="45.78996" lon="3.30803">
        <ele>328.4</ele>
        <time>2024-05-19T07:26:46Z</time>
      </trkpt>
      <trkpt lat="45.7899" lon="3.30805">
        <ele>328.2</ele>
        <time>2024-05-19T07:26:47Z</time>
      </trkpt>
      <trkpt lat="45.78984" lon="3.30807">
        <ele>328.2</ele>
        <time>2024-05-19T07:26:48Z</time>
      </trkpt>
      <trkpt lat="45.78978" lon="3.3081">
        <ele>328.2</ele>
        <time>2024-05-19T07:26:49Z</time>
      </trkpt>
      <trkpt lat="45.78972" lon="3.30812">
        <ele>328</ele>
        <time>2024-05-19T07:26:50Z</time>
      </trkpt>
      <trkpt lat="45.78966" lon="3.30814">
        <ele>328</ele>
        <time>2024-05-19T07:26:51Z</time>
      </trkpt>
      <trkpt lat="45.7896" lon="3.30816">
        <ele>328</ele>
        <time>2024-05-19T07:26:52Z</time>
      </trkpt>
      <trkpt lat="45.78954" lon="3.30819">
        <ele>328</ele>
        <time>2024-05-19T07:26:53Z</time>
      </trkpt>
      <trkpt lat="45.78948" lon="3.30821">
        <ele>327.8</ele>
        <time>2024-05-19T07:26:54Z</time>
      </trkpt>
      <trkpt lat="45.78942" lon="3.30823">
        <ele>327.8</ele>
        <time>2024-05-19T07:26:55Z</time>
      </trkpt>
      <trkpt lat="45.78936" lon="3.30825">
        <ele>327.8</ele>
        <time>2024-05-19T07:26:56Z</time>
      </trkpt>
      <trkpt lat="45.7893" lon="3.30828">
        <ele>327.8</ele>
        <time>2024-05-19T07:26:57Z</time>
      </trkpt>
      <trkpt lat="45.78924" lon="3.3083">
        <ele>327.8</ele>
        <time>2024-05-19T07:26:58Z</time>
      </trkpt>
      <trkpt lat="45.78918" lon="3.30832">
        <ele>327.8</ele>
        <time>2024-05-19T07:26:59Z</time>
      </trkpt>
      <trkpt lat="45.78912" lon="3.30834">
        <ele>327.8</ele>
        <time>2024-05-19T07:27:00Z</time>
      </trkpt>
      <trkpt lat="45.78906" lon="3.30837">
        <ele>327.6</ele>
        <time>2024-05-19T07:27:01Z</time>
      </trkpt>
      <trkpt lat="45.789" lon="3.30839">
        <ele>327.6</ele>
        <time>2024-05-19T07:27:02Z</time>
      </trkpt>
      <trkpt lat="45.78894" lon="3.30841">
        <ele>327.6</ele>
        <time>2024-05-19T07:27:03Z</time>
      </trkpt>
      <trkpt lat="45.78887" lon="3.30844">
        <ele>327.6</ele>
        <time>2024-05-19T07:27:04Z</time>
      </trkpt>
      <trkpt lat="45.78881" lon="3.30846">
        <ele>327.6</ele>
        <time>2024-05-19T07:27:05Z</time>
      </trkpt>
      <trkpt lat="45.78875" lon="3.30848">
        <ele>327.6</ele>
        <time>2024-05-19T07:27:06Z</time>
      </trkpt>
      <trkpt lat="45.78869" lon="3.3085">
        <ele>327.6</ele>
        <time>2024-05-19T07:27:07Z</time>
      </trkpt>
      <trkpt lat="45.78863" lon="3.30851">
        <ele>327.6</ele>
        <time>2024-05-19T07:27:08Z</time>
      </trkpt>
      <trkpt lat="45.78856" lon="3.30853">
        <ele>327.6</ele>
        <time>2024-05-19T07:27:09Z</time>
      </trkpt>
      <trkpt lat="45.7885" lon="3.30854">
        <ele>327.4</ele>
        <time>2024-05-19T07:27:10Z</time>
      </trkpt>
      <trkpt lat="45.78844" lon="3.30855">
        <ele>327.6</ele>
        <time>2024-05-19T07:27:11Z</time>
      </trkpt>
      <trkpt lat="45.78837" lon="3.30856">
        <ele>327.6</ele>
        <time>2024-05-19T07:27:12Z</time>
      </trkpt>
      <trkpt lat="45.78831" lon="3.30858">
        <ele>327.4</ele>
        <time>2024-05-19T07:27:13Z</time>
      </trkpt>
      <trkpt lat="45.78824" lon="3.30859">
        <ele>327.4</ele>
        <time>2024-05-19T07:27:14Z</time>
      </trkpt>
      <trkpt lat="45.78818" lon="3.3086">
        <ele>327.4</ele>
        <time>2024-05-19T07:27:15Z</time>
      </trkpt>
      <trkpt lat="45.78812" lon="3.30862">
        <ele>327.4</ele>
        <time>2024-05-19T07:27:16Z</time>
      </trkpt>
      <trkpt lat="45.78805" lon="3.30863">
        <ele>327.4</ele>
        <time>2024-05-19T07:27:17Z</time>
      </trkpt>
      <trkpt lat="45.78799" lon="3.30864">
        <ele>327.4</ele>
        <time>2024-05-19T07:27:18Z</time>
      </trkpt>
      <trkpt lat="45.78792" lon="3.30865">
        <ele>327.4</ele>
        <time>2024-05-19T07:27:19Z</time>
      </trkpt>
      <trkpt lat="45.78786" lon="3.30867">
        <ele>327.4</ele>
        <time>2024-05-19T07:27:20Z</time>
      </trkpt>
      <trkpt lat="45.7878" lon="3.30867">
        <ele>327.4</ele>
        <time>2024-05-19T07:27:21Z</time>
      </trkpt>
      <trkpt lat="45.78773" lon="3.30868">
        <ele>327.4</ele>
        <time>2024-05-19T07:27:22Z</time>
      </trkpt>
      <trkpt lat="45.78767" lon="3.30869">
        <ele>327.4</ele>
        <time>2024-05-19T07:27:23Z</time>
      </trkpt>
      <trkpt lat="45.7876" lon="3.3087">
        <ele>327.4</ele>
        <time>2024-05-19T07:27:24Z</time>
      </trkpt>
      <trkpt lat="45.78754" lon="3.30871">
        <ele>327.4</ele>
        <time>2024-05-19T07:27:25Z</time>
      </trkpt>
      <trkpt lat="45.78747" lon="3.30872">
        <ele>327.4</ele>
        <time>2024-05-19T07:27:26Z</time>
      </trkpt>
      <trkpt lat="45.7874" lon="3.30873">
        <ele>327.4</ele>
        <time>2024-05-19T07:27:27Z</time>
      </trkpt>
      <trkpt lat="45.78733" lon="3.30873">
        <ele>327.2</ele>
        <time>2024-05-19T07:27:28Z</time>
      </trkpt>
      <trkpt lat="45.78726" lon="3.30874">
        <ele>327.2</ele>
        <time>2024-05-19T07:27:29Z</time>
      </trkpt>
      <trkpt lat="45.78719" lon="3.30875">
        <ele>327.2</ele>
        <time>2024-05-19T07:27:30Z</time>
      </trkpt>
      <trkpt lat="45.78713" lon="3.30876">
        <ele>327.2</ele>
        <time>2024-05-19T07:27:31Z</time>
      </trkpt>
      <trkpt lat="45.78706" lon="3.30877">
        <ele>327.2</ele>
        <time>2024-05-19T07:27:32Z</time>
      </trkpt>
      <trkpt lat="45.78699" lon="3.30878">
        <ele>327.2</ele>
        <time>2024-05-19T07:27:33Z</time>
      </trkpt>
      <trkpt lat="45.78692" lon="3.30879">
        <ele>327.2</ele>
        <time>2024-05-19T07:27:34Z</time>
      </trkpt>
      <trkpt lat="45.78685" lon="3.3088">
        <ele>327.2</ele>
        <time>2024-05-19T07:27:35Z</time>
      </trkpt>
      <trkpt lat="45.78678" lon="3.30881">
        <ele>327</ele>
        <time>2024-05-19T07:27:36Z</time>
      </trkpt>
      <trkpt lat="45.7867" lon="3.30882">
        <ele>327</ele>
        <time>2024-05-19T07:27:37Z</time>
      </trkpt>
      <trkpt lat="45.78663" lon="3.30885">
        <ele>327</ele>
        <time>2024-05-19T07:27:38Z</time>
      </trkpt>
      <trkpt lat="45.78657" lon="3.30888">
        <ele>327</ele>
        <time>2024-05-19T07:27:39Z</time>
      </trkpt>
      <trkpt lat="45.7865" lon="3.30891">
        <ele>327</ele>
        <time>2024-05-19T07:27:40Z</time>
      </trkpt>
      <trkpt lat="45.78643" lon="3.30894">
        <ele>327</ele>
        <time>2024-05-19T07:27:41Z</time>
      </trkpt>
      <trkpt lat="45.78636" lon="3.30897">
        <ele>327</ele>
        <time>2024-05-19T07:27:42Z</time>
      </trkpt>
      <trkpt lat="45.78628" lon="3.309">
        <ele>326.8</ele>
        <time>2024-05-19T07:27:43Z</time>
      </trkpt>
      <trkpt lat="45.78621" lon="3.30904">
        <ele>326.8</ele>
        <time>2024-05-19T07:27:44Z</time>
      </trkpt>
      <trkpt lat="45.78614" lon="3.30907">
        <ele>326.8</ele>
        <time>2024-05-19T07:27:45Z</time>
      </trkpt>
      <trkpt lat="45.78607" lon="3.3091">
        <ele>326.8</ele>
        <time>2024-05-19T07:27:46Z</time>
      </trkpt>
      <trkpt lat="45.786" lon="3.30913">
        <ele>326.8</ele>
        <time>2024-05-19T07:27:47Z</time>
      </trkpt>
      <trkpt lat="45.78593" lon="3.30916">
        <ele>326.8</ele>
        <time>2024-05-19T07:27:48Z</time>
      </trkpt>
      <trkpt lat="45.78586" lon="3.30919">
        <ele>326.8</ele>
        <time>2024-05-19T07:27:49Z</time>
      </trkpt>
      <trkpt lat="45.78579" lon="3.30922">
        <ele>326.8</ele>
        <time>2024-05-19T07:27:50Z</time>
      </trkpt>
      <trkpt lat="45.78572" lon="3.30926">
        <ele>326.6</ele>
        <time>2024-05-19T07:27:51Z</time>
      </trkpt>
      <trkpt lat="45.78565" lon="3.30929">
        <ele>326.6</ele>
        <time>2024-05-19T07:27:52Z</time>
      </trkpt>
      <trkpt lat="45.78558" lon="3.30932">
        <ele>326.6</ele>
        <time>2024-05-19T07:27:53Z</time>
      </trkpt>
      <trkpt lat="45.78551" lon="3.30935">
        <ele>326.6</ele>
        <time>2024-05-19T07:27:54Z</time>
      </trkpt>
      <trkpt lat="45.78545" lon="3.30938">
        <ele>326.6</ele>
        <time>2024-05-19T07:27:55Z</time>
      </trkpt>
      <trkpt lat="45.78538" lon="3.30941">
        <ele>326.6</ele>
        <time>2024-05-19T07:27:56Z</time>
      </trkpt>
      <trkpt lat="45.78531" lon="3.30944">
        <ele>326.6</ele>
        <time>2024-05-19T07:27:57Z</time>
      </trkpt>
      <trkpt lat="45.78524" lon="3.30947">
        <ele>326.6</ele>
        <time>2024-05-19T07:27:58Z</time>
      </trkpt>
      <trkpt lat="45.78517" lon="3.30949">
        <ele>326.6</ele>
        <time>2024-05-19T07:27:59Z</time>
      </trkpt>
      <trkpt lat="45.78509" lon="3.30951">
        <ele>326.6</ele>
        <time>2024-05-19T07:28:00Z</time>
      </trkpt>
      <trkpt lat="45.78502" lon="3.30952">
        <ele>326.6</ele>
        <time>2024-05-19T07:28:01Z</time>
      </trkpt>
      <trkpt lat="45.78495" lon="3.3095">
        <ele>326.6</ele>
        <time>2024-05-19T07:28:02Z</time>
      </trkpt>
      <trkpt lat="45.78488" lon="3.30949">
        <ele>326.6</ele>
        <time>2024-05-19T07:28:03Z</time>
      </trkpt>
      <trkpt lat="45.78481" lon="3.30946">
        <ele>326.6</ele>
        <time>2024-05-19T07:28:04Z</time>
      </trkpt>
      <trkpt lat="45.78474" lon="3.30942">
        <ele>326.4</ele>
        <time>2024-05-19T07:28:05Z</time>
      </trkpt>
      <trkpt lat="45.78467" lon="3.30939">
        <ele>326.4</ele>
        <time>2024-05-19T07:28:06Z</time>
      </trkpt>
      <trkpt lat="45.78461" lon="3.30936">
        <ele>326.4</ele>
        <time>2024-05-19T07:28:07Z</time>
      </trkpt>
      <trkpt lat="45.78454" lon="3.30932">
        <ele>326.4</ele>
        <time>2024-05-19T07:28:08Z</time>
      </trkpt>
      <trkpt lat="45.78447" lon="3.30929">
        <ele>326.4</ele>
        <time>2024-05-19T07:28:09Z</time>
      </trkpt>
      <trkpt lat="45.78441" lon="3.30926">
        <ele>326.4</ele>
        <time>2024-05-19T07:28:10Z</time>
      </trkpt>
      <trkpt lat="45.78434" lon="3.30922">
        <ele>326.4</ele>
        <time>2024-05-19T07:28:11Z</time>
      </trkpt>
      <trkpt lat="45.78427" lon="3.30919">
        <ele>326.4</ele>
        <time>2024-05-19T07:28:12Z</time>
      </trkpt>
      <trkpt lat="45.78421" lon="3.30916">
        <ele>326.4</ele>
        <time>2024-05-19T07:28:13Z</time>
      </trkpt>
      <trkpt lat="45.78414" lon="3.30912">
        <ele>326.4</ele>
        <time>2024-05-19T07:28:14Z</time>
      </trkpt>
      <trkpt lat="45.78408" lon="3.30909">
        <ele>326.4</ele>
        <time>2024-05-19T07:28:15Z</time>
      </trkpt>
      <trkpt lat="45.78402" lon="3.30906">
        <ele>326.2</ele>
        <time>2024-05-19T07:28:16Z</time>
      </trkpt>
      <trkpt lat="45.78396" lon="3.30903">
        <ele>326.2</ele>
        <time>2024-05-19T07:28:17Z</time>
      </trkpt>
      <trkpt lat="45.7839" lon="3.309">
        <ele>326.2</ele>
        <time>2024-05-19T07:28:18Z</time>
      </trkpt>
      <trkpt lat="45.78384" lon="3.30897">
        <ele>326.2</ele>
        <time>2024-05-19T07:28:19Z</time>
      </trkpt>
      <trkpt lat="45.78379" lon="3.30895">
        <ele>326.2</ele>
        <time>2024-05-19T07:28:20Z</time>
      </trkpt>
      <trkpt lat="45.78373" lon="3.30892">
        <ele>326.2</ele>
        <time>2024-05-19T07:28:21Z</time>
      </trkpt>
      <trkpt lat="45.78367" lon="3.30889">
        <ele>326.2</ele>
        <time>2024-05-19T07:28:22Z</time>
      </trkpt>
      <trkpt lat="45.78361" lon="3.30886">
        <ele>326</ele>
        <time>2024-05-19T07:28:23Z</time>
      </trkpt>
      <trkpt lat="45.78355" lon="3.30883">
        <ele>326.2</ele>
        <time>2024-05-19T07:28:24Z</time>
      </trkpt>
      <trkpt lat="45.7835" lon="3.3088">
        <ele>326.2</ele>
        <time>2024-05-19T07:28:25Z</time>
      </trkpt>
      <trkpt lat="45.78345" lon="3.30878">
        <ele>326.2</ele>
        <time>2024-05-19T07:28:26Z</time>
      </trkpt>
      <trkpt lat="45.7834" lon="3.30875">
        <ele>326.2</ele>
        <time>2024-05-19T07:28:27Z</time>
      </trkpt>
      <trkpt lat="45.78336" lon="3.30873">
        <ele>326</ele>
        <time>2024-05-19T07:28:28Z</time>
      </trkpt>
      <trkpt lat="45.78332" lon="3.30871">
        <ele>326</ele>
        <time>2024-05-19T07:28:29Z</time>
      </trkpt>
      <trkpt lat="45.78329" lon="3.3087">
        <ele>326</ele>
        <time>2024-05-19T07:28:30Z</time>
      </trkpt>
      <trkpt lat="45.78326" lon="3.30869">
        <ele>326</ele>
        <time>2024-05-19T07:28:31Z</time>
      </trkpt>
      <trkpt lat="45.78322" lon="3.30867">
        <ele>326.2</ele>
        <time>2024-05-19T07:28:32Z</time>
      </trkpt>
      <trkpt lat="45.7832" lon="3.30867">
        <ele>326.2</ele>
        <time>2024-05-19T07:28:33Z</time>
      </trkpt>
      <trkpt lat="45.78318" lon="3.30871">
        <ele>326.2</ele>
        <time>2024-05-19T07:28:34Z</time>
      </trkpt>
      <trkpt lat="45.78314" lon="3.30877">
        <ele>326</ele>
        <time>2024-05-19T07:28:35Z</time>
      </trkpt>
      <trkpt lat="45.78311" lon="3.30883">
        <ele>326</ele>
        <time>2024-05-19T07:28:36Z</time>
      </trkpt>
      <trkpt lat="45.78307" lon="3.30889">
        <ele>326</ele>
        <time>2024-05-19T07:28:37Z</time>
      </trkpt>
      <trkpt lat="45.78303" lon="3.30895">
        <ele>326</ele>
        <time>2024-05-19T07:28:38Z</time>
      </trkpt>
      <trkpt lat="45.78299" lon="3.30901">
        <ele>326</ele>
        <time>2024-05-19T07:28:39Z</time>
      </trkpt>
      <trkpt lat="45.78296" lon="3.30908">
        <ele>326.2</ele>
        <time>2024-05-19T07:28:40Z</time>
      </trkpt>
      <trkpt lat="45.78295" lon="3.30916">
        <ele>326</ele>
        <time>2024-05-19T07:28:41Z</time>
      </trkpt>
      <trkpt lat="45.78294" lon="3.30924">
        <ele>326</ele>
        <time>2024-05-19T07:28:42Z</time>
      </trkpt>
      <trkpt lat="45.78292" lon="3.30932">
        <ele>326</ele>
        <time>2024-05-19T07:28:43Z</time>
      </trkpt>
      <trkpt lat="45.78291" lon="3.30941">
        <ele>326</ele>
        <time>2024-05-19T07:28:44Z</time>
      </trkpt>
      <trkpt lat="45.78291" lon="3.30941">
        <ele>326</ele>
        <time>2024-05-19T07:28:45Z</time>
      </trkpt>
      <trkpt lat="45.78288" lon="3.30958">
        <ele>326</ele>
        <time>2024-05-19T07:28:46Z</time>
      </trkpt>
      <trkpt lat="45.78288" lon="3.30976">
        <ele>326</ele>
        <time>2024-05-19T07:28:47Z</time>
      </trkpt>
      <trkpt lat="45.78288" lon="3.30976">
        <ele>326</ele>
        <time>2024-05-19T07:28:48Z</time>
      </trkpt>
      <trkpt lat="45.78288" lon="3.30985">
        <ele>326.2</ele>
        <time>2024-05-19T07:28:49Z</time>
      </trkpt>
      <trkpt lat="45.78288" lon="3.30994">
        <ele>326</ele>
        <time>2024-05-19T07:28:50Z</time>
      </trkpt>
      <trkpt lat="45.78288" lon="3.31003">
        <ele>326</ele>
        <time>2024-05-19T07:28:51Z</time>
      </trkpt>
      <trkpt lat="45.78288" lon="3.31012">
        <ele>326</ele>
        <time>2024-05-19T07:28:52Z</time>
      </trkpt>
      <trkpt lat="45.78288" lon="3.31021">
        <ele>326</ele>
        <time>2024-05-19T07:28:53Z</time>
      </trkpt>
      <trkpt lat="45.78288" lon="3.3103">
        <ele>326</ele>
        <time>2024-05-19T07:28:54Z</time>
      </trkpt>
      <trkpt lat="45.78288" lon="3.31039">
        <ele>326</ele>
        <time>2024-05-19T07:28:55Z</time>
      </trkpt>
      <trkpt lat="45.78288" lon="3.31048">
        <ele>326</ele>
        <time>2024-05-19T07:28:56Z</time>
      </trkpt>
      <trkpt lat="45.78287" lon="3.31057">
        <ele>326</ele>
        <time>2024-05-19T07:28:57Z</time>
      </trkpt>
      <trkpt lat="45.78287" lon="3.31067">
        <ele>326</ele>
        <time>2024-05-19T07:28:58Z</time>
      </trkpt>
      <trkpt lat="45.78287" lon="3.31076">
        <ele>326</ele>
        <time>2024-05-19T07:28:59Z</time>
      </trkpt>
      <trkpt lat="45.78287" lon="3.31085">
        <ele>326</ele>
        <time>2024-05-19T07:29:00Z</time>
      </trkpt>
      <trkpt lat="45.78287" lon="3.31095">
        <ele>326</ele>
        <time>2024-05-19T07:29:01Z</time>
      </trkpt>
      <trkpt lat="45.78287" lon="3.31104">
        <ele>325.8</ele>
        <time>2024-05-19T07:29:02Z</time>
      </trkpt>
      <trkpt lat="45.78287" lon="3.31113">
        <ele>325.8</ele>
        <time>2024-05-19T07:29:03Z</time>
      </trkpt>
      <trkpt lat="45.78286" lon="3.31123">
        <ele>325.8</ele>
        <time>2024-05-19T07:29:04Z</time>
      </trkpt>
      <trkpt lat="45.78286" lon="3.31131">
        <ele>325.8</ele>
        <time>2024-05-19T07:29:05Z</time>
      </trkpt>
      <trkpt lat="45.78281" lon="3.31141">
        <ele>325.8</ele>
        <time>2024-05-19T07:29:06Z</time>
      </trkpt>
      <trkpt lat="45.78275" lon="3.31146">
        <ele>325.8</ele>
        <time>2024-05-19T07:29:07Z</time>
      </trkpt>
      <trkpt lat="45.78269" lon="3.3115">
        <ele>325.8</ele>
        <time>2024-05-19T07:29:08Z</time>
      </trkpt>
      <trkpt lat="45.78263" lon="3.31155">
        <ele>325.8</ele>
        <time>2024-05-19T07:29:09Z</time>
      </trkpt>
      <trkpt lat="45.78256" lon="3.31157">
        <ele>325.8</ele>
        <time>2024-05-19T07:29:10Z</time>
      </trkpt>
      <trkpt lat="45.78249" lon="3.31159">
        <ele>325.8</ele>
        <time>2024-05-19T07:29:11Z</time>
      </trkpt>
      <trkpt lat="45.78243" lon="3.31162">
        <ele>325.8</ele>
        <time>2024-05-19T07:29:12Z</time>
      </trkpt>
      <trkpt lat="45.78237" lon="3.31166">
        <ele>325.8</ele>
        <time>2024-05-19T07:29:13Z</time>
      </trkpt>
      <trkpt lat="45.78232" lon="3.3117">
        <ele>325.8</ele>
        <time>2024-05-19T07:29:14Z</time>
      </trkpt>
      <trkpt lat="45.78226" lon="3.31174">
        <ele>325.8</ele>
        <time>2024-05-19T07:29:15Z</time>
      </trkpt>
      <trkpt lat="45.7822" lon="3.31179">
        <ele>325.8</ele>
        <time>2024-05-19T07:29:16Z</time>
      </trkpt>
      <trkpt lat="45.78215" lon="3.31183">
        <ele>325.8</ele>
        <time>2024-05-19T07:29:17Z</time>
      </trkpt>
      <trkpt lat="45.78209" lon="3.31187">
        <ele>325.8</ele>
        <time>2024-05-19T07:29:18Z</time>
      </trkpt>
      <trkpt lat="45.78203" lon="3.31191">
        <ele>325.8</ele>
        <time>2024-05-19T07:29:19Z</time>
      </trkpt>
      <trkpt lat="45.78198" lon="3.31195">
        <ele>325.8</ele>
        <time>2024-05-19T07:29:20Z</time>
      </trkpt>
      <trkpt lat="45.78192" lon="3.31199">
        <ele>325.8</ele>
        <time>2024-05-19T07:29:21Z</time>
      </trkpt>
      <trkpt lat="45.78187" lon="3.31205">
        <ele>325.8</ele>
        <time>2024-05-19T07:29:22Z</time>
      </trkpt>
      <trkpt lat="45.78182" lon="3.31211">
        <ele>325.8</ele>
        <time>2024-05-19T07:29:23Z</time>
      </trkpt>
      <trkpt lat="45.78177" lon="3.31217">
        <ele>325.8</ele>
        <time>2024-05-19T07:29:24Z</time>
      </trkpt>
      <trkpt lat="45.78172" lon="3.31223">
        <ele>325.8</ele>
        <time>2024-05-19T07:29:25Z</time>
      </trkpt>
      <trkpt lat="45.78168" lon="3.31228">
        <ele>325.8</ele>
        <time>2024-05-19T07:29:26Z</time>
      </trkpt>
      <trkpt lat="45.78163" lon="3.31235">
        <ele>325.8</ele>
        <time>2024-05-19T07:29:27Z</time>
      </trkpt>
      <trkpt lat="45.78158" lon="3.31241">
        <ele>325.8</ele>
        <time>2024-05-19T07:29:28Z</time>
      </trkpt>
      <trkpt lat="45.78153" lon="3.31246">
        <ele>325.8</ele>
        <time>2024-05-19T07:29:29Z</time>
      </trkpt>
      <trkpt lat="45.78148" lon="3.31252">
        <ele>325.8</ele>
        <time>2024-05-19T07:29:30Z</time>
      </trkpt>
      <trkpt lat="45.78143" lon="3.31258">
        <ele>325.8</ele>
        <time>2024-05-19T07:29:31Z</time>
      </trkpt>
      <trkpt lat="45.78138" lon="3.31264">
        <ele>325.8</ele>
        <time>2024-05-19T07:29:32Z</time>
      </trkpt>
      <trkpt lat="45.78134" lon="3.3127">
        <ele>325.8</ele>
        <time>2024-05-19T07:29:33Z</time>
      </trkpt>
      <trkpt lat="45.78128" lon="3.31276">
        <ele>325.8</ele>
        <time>2024-05-19T07:29:34Z</time>
      </trkpt>
      <trkpt lat="45.78123" lon="3.31282">
        <ele>326</ele>
        <time>2024-05-19T07:29:35Z</time>
      </trkpt>
      <trkpt lat="45.78118" lon="3.31288">
        <ele>326</ele>
        <time>2024-05-19T07:29:36Z</time>
      </trkpt>
      <trkpt lat="45.78113" lon="3.31293">
        <ele>326</ele>
        <time>2024-05-19T07:29:37Z</time>
      </trkpt>
      <trkpt lat="45.78108" lon="3.31299">
        <ele>326</ele>
        <time>2024-05-19T07:29:38Z</time>
      </trkpt>
      <trkpt lat="45.78103" lon="3.31305">
        <ele>326</ele>
        <time>2024-05-19T07:29:39Z</time>
      </trkpt>
      <trkpt lat="45.78097" lon="3.31311">
        <ele>326</ele>
        <time>2024-05-19T07:29:40Z</time>
      </trkpt>
      <trkpt lat="45.78093" lon="3.31317">
        <ele>326</ele>
        <time>2024-05-19T07:29:41Z</time>
      </trkpt>
      <trkpt lat="45.78088" lon="3.31323">
        <ele>326</ele>
        <time>2024-05-19T07:29:42Z</time>
      </trkpt>
      <trkpt lat="45.78083" lon="3.31329">
        <ele>326</ele>
        <time>2024-05-19T07:29:43Z</time>
      </trkpt>
      <trkpt lat="45.78078" lon="3.31335">
        <ele>326</ele>
        <time>2024-05-19T07:29:44Z</time>
      </trkpt>
      <trkpt lat="45.78072" lon="3.31341">
        <ele>326</ele>
        <time>2024-05-19T07:29:45Z</time>
      </trkpt>
      <trkpt lat="45.78068" lon="3.31347">
        <ele>326</ele>
        <time>2024-05-19T07:29:46Z</time>
      </trkpt>
      <trkpt lat="45.78063" lon="3.31352">
        <ele>326</ele>
        <time>2024-05-19T07:29:47Z</time>
      </trkpt>
      <trkpt lat="45.78058" lon="3.31358">
        <ele>326</ele>
        <time>2024-05-19T07:29:48Z</time>
      </trkpt>
      <trkpt lat="45.78053" lon="3.31364">
        <ele>326</ele>
        <time>2024-05-19T07:29:49Z</time>
      </trkpt>
      <trkpt lat="45.78047" lon="3.31368">
        <ele>326</ele>
        <time>2024-05-19T07:29:50Z</time>
      </trkpt>
      <trkpt lat="45.78041" lon="3.31371">
        <ele>326</ele>
        <time>2024-05-19T07:29:51Z</time>
      </trkpt>
      <trkpt lat="45.78035" lon="3.31375">
        <ele>326</ele>
        <time>2024-05-19T07:29:52Z</time>
      </trkpt>
      <trkpt lat="45.78029" lon="3.31378">
        <ele>326</ele>
        <time>2024-05-19T07:29:53Z</time>
      </trkpt>
      <trkpt lat="45.78022" lon="3.31382">
        <ele>326</ele>
        <time>2024-05-19T07:29:54Z</time>
      </trkpt>
      <trkpt lat="45.78016" lon="3.31386">
        <ele>326</ele>
        <time>2024-05-19T07:29:55Z</time>
      </trkpt>
      <trkpt lat="45.7801" lon="3.3139">
        <ele>326</ele>
        <time>2024-05-19T07:29:56Z</time>
      </trkpt>
      <trkpt lat="45.78004" lon="3.31393">
        <ele>326</ele>
        <time>2024-05-19T07:29:57Z</time>
      </trkpt>
      <trkpt lat="45.77998" lon="3.31397">
        <ele>326</ele>
        <time>2024-05-19T07:29:58Z</time>
      </trkpt>
      <trkpt lat="45.77992" lon="3.314">
        <ele>326</ele>
        <time>2024-05-19T07:29:59Z</time>
      </trkpt>
      <trkpt lat="45.77986" lon="3.31404">
        <ele>326</ele>
        <time>2024-05-19T07:30:00Z</time>
      </trkpt>
      <trkpt lat="45.7798" lon="3.31407">
        <ele>326</ele>
        <time>2024-05-19T07:30:01Z</time>
      </trkpt>
      <trkpt lat="45.77974" lon="3.31411">
        <ele>326.2</ele>
        <time>2024-05-19T07:30:02Z</time>
      </trkpt>
      <trkpt lat="45.77969" lon="3.31414">
        <ele>326.2</ele>
        <time>2024-05-19T07:30:03Z</time>
      </trkpt>
      <trkpt lat="45.77963" lon="3.31417">
        <ele>326.2</ele>
        <time>2024-05-19T07:30:04Z</time>
      </trkpt>
      <trkpt lat="45.77957" lon="3.31421">
        <ele>326</ele>
        <time>2024-05-19T07:30:05Z</time>
      </trkpt>
      <trkpt lat="45.77951" lon="3.31424">
        <ele>326</ele>
        <time>2024-05-19T07:30:06Z</time>
      </trkpt>
      <trkpt lat="45.77945" lon="3.31428">
        <ele>326</ele>
        <time>2024-05-19T07:30:07Z</time>
      </trkpt>
      <trkpt lat="45.7794" lon="3.31431">
        <ele>325.8</ele>
        <time>2024-05-19T07:30:08Z</time>
      </trkpt>
      <trkpt lat="45.77934" lon="3.31434">
        <ele>325.8</ele>
        <time>2024-05-19T07:30:09Z</time>
      </trkpt>
      <trkpt lat="45.77928" lon="3.31438">
        <ele>325.8</ele>
        <time>2024-05-19T07:30:10Z</time>
      </trkpt>
      <trkpt lat="45.77922" lon="3.31441">
        <ele>325.6</ele>
        <time>2024-05-19T07:30:11Z</time>
      </trkpt>
      <trkpt lat="45.77917" lon="3.31445">
        <ele>325.6</ele>
        <time>2024-05-19T07:30:12Z</time>
      </trkpt>
      <trkpt lat="45.77911" lon="3.31448">
        <ele>325.6</ele>
        <time>2024-05-19T07:30:13Z</time>
      </trkpt>
      <trkpt lat="45.77905" lon="3.31451">
        <ele>325.6</ele>
        <time>2024-05-19T07:30:14Z</time>
      </trkpt>
      <trkpt lat="45.779" lon="3.31455">
        <ele>325.4</ele>
        <time>2024-05-19T07:30:15Z</time>
      </trkpt>
      <trkpt lat="45.77894" lon="3.31458">
        <ele>325.4</ele>
        <time>2024-05-19T07:30:16Z</time>
      </trkpt>
      <trkpt lat="45.77888" lon="3.31462">
        <ele>325.2</ele>
        <time>2024-05-19T07:30:17Z</time>
      </trkpt>
      <trkpt lat="45.77882" lon="3.31466">
        <ele>325.2</ele>
        <time>2024-05-19T07:30:18Z</time>
      </trkpt>
      <trkpt lat="45.77877" lon="3.31471">
        <ele>325</ele>
        <time>2024-05-19T07:30:19Z</time>
      </trkpt>
      <trkpt lat="45.77871" lon="3.31475">
        <ele>325</ele>
        <time>2024-05-19T07:30:20Z</time>
      </trkpt>
      <trkpt lat="45.77865" lon="3.3148">
        <ele>325</ele>
        <time>2024-05-19T07:30:21Z</time>
      </trkpt>
      <trkpt lat="45.77859" lon="3.31485">
        <ele>324.8</ele>
        <time>2024-05-19T07:30:22Z</time>
      </trkpt>
      <trkpt lat="45.77853" lon="3.31487">
        <ele>324.8</ele>
        <time>2024-05-19T07:30:23Z</time>
      </trkpt>
      <trkpt lat="45.77847" lon="3.3149">
        <ele>324.8</ele>
        <time>2024-05-19T07:30:24Z</time>
      </trkpt>
      <trkpt lat="45.77841" lon="3.31493">
        <ele>324.8</ele>
        <time>2024-05-19T07:30:25Z</time>
      </trkpt>
      <trkpt lat="45.77834" lon="3.31495">
        <ele>324.8</ele>
        <time>2024-05-19T07:30:26Z</time>
      </trkpt>
      <trkpt lat="45.77828" lon="3.31498">
        <ele>324.8</ele>
        <time>2024-05-19T07:30:27Z</time>
      </trkpt>
      <trkpt lat="45.77823" lon="3.31502">
        <ele>324.6</ele>
        <time>2024-05-19T07:30:28Z</time>
      </trkpt>
      <trkpt lat="45.77818" lon="3.31507">
        <ele>324.6</ele>
        <time>2024-05-19T07:30:29Z</time>
      </trkpt>
      <trkpt lat="45.77813" lon="3.31512">
        <ele>324.4</ele>
        <time>2024-05-19T07:30:30Z</time>
      </trkpt>
      <trkpt lat="45.77808" lon="3.31517">
        <ele>324.4</ele>
        <time>2024-05-19T07:30:31Z</time>
      </trkpt>
      <trkpt lat="45.77803" lon="3.31522">
        <ele>324.2</ele>
        <time>2024-05-19T07:30:32Z</time>
      </trkpt>
      <trkpt lat="45.77798" lon="3.31527">
        <ele>324.2</ele>
        <time>2024-05-19T07:30:33Z</time>
      </trkpt>
      <trkpt lat="45.77793" lon="3.31532">
        <ele>324</ele>
        <time>2024-05-19T07:30:34Z</time>
      </trkpt>
      <trkpt lat="45.77788" lon="3.31538">
        <ele>324</ele>
        <time>2024-05-19T07:30:35Z</time>
      </trkpt>
      <trkpt lat="45.77783" lon="3.31543">
        <ele>323.8</ele>
        <time>2024-05-19T07:30:36Z</time>
      </trkpt>
      <trkpt lat="45.77779" lon="3.31548">
        <ele>323.6</ele>
        <time>2024-05-19T07:30:37Z</time>
      </trkpt>
      <trkpt lat="45.77775" lon="3.31552">
        <ele>323.6</ele>
        <time>2024-05-19T07:30:38Z</time>
      </trkpt>
      <trkpt lat="45.77772" lon="3.31556">
        <ele>323.4</ele>
        <time>2024-05-19T07:30:39Z</time>
      </trkpt>
      <trkpt lat="45.77769" lon="3.31559">
        <ele>323.4</ele>
        <time>2024-05-19T07:30:40Z</time>
      </trkpt>
      <trkpt lat="45.77762" lon="3.31555">
        <ele>323.4</ele>
        <time>2024-05-19T07:30:41Z</time>
      </trkpt>
      <trkpt lat="45.7776" lon="3.3155">
        <ele>323.4</ele>
        <time>2024-05-19T07:30:42Z</time>
      </trkpt>
      <trkpt lat="45.77758" lon="3.31544">
        <ele>323.4</ele>
        <time>2024-05-19T07:30:43Z</time>
      </trkpt>
      <trkpt lat="45.77756" lon="3.31537">
        <ele>323.4</ele>
        <time>2024-05-19T07:30:44Z</time>
      </trkpt>
      <trkpt lat="45.77753" lon="3.3153">
        <ele>323.2</ele>
        <time>2024-05-19T07:30:45Z</time>
      </trkpt>
      <trkpt lat="45.7775" lon="3.31522">
        <ele>323.4</ele>
        <time>2024-05-19T07:30:46Z</time>
      </trkpt>
      <trkpt lat="45.77748" lon="3.31514">
        <ele>323.4</ele>
        <time>2024-05-19T07:30:47Z</time>
      </trkpt>
      <trkpt lat="45.77745" lon="3.31506">
        <ele>323.4</ele>
        <time>2024-05-19T07:30:48Z</time>
      </trkpt>
      <trkpt lat="45.77742" lon="3.31498">
        <ele>323.4</ele>
        <time>2024-05-19T07:30:49Z</time>
      </trkpt>
      <trkpt lat="45.77739" lon="3.31489">
        <ele>323.4</ele>
        <time>2024-05-19T07:30:50Z</time>
      </trkpt>
      <trkpt lat="45.77736" lon="3.31481">
        <ele>323.4</ele>
        <time>2024-05-19T07:30:51Z</time>
      </trkpt>
      <trkpt lat="45.77734" lon="3.31472">
        <ele>323.4</ele>
        <time>2024-05-19T07:30:52Z</time>
      </trkpt>
      <trkpt lat="45.77731" lon="3.31464">
        <ele>323.4</ele>
        <time>2024-05-19T07:30:53Z</time>
      </trkpt>
      <trkpt lat="45.77729" lon="3.31456">
        <ele>323.6</ele>
        <time>2024-05-19T07:30:54Z</time>
      </trkpt>
      <trkpt lat="45.77726" lon="3.31448">
        <ele>323.6</ele>
        <time>2024-05-19T07:30:55Z</time>
      </trkpt>
      <trkpt lat="45.77722" lon="3.31441">
        <ele>323.6</ele>
        <time>2024-05-19T07:30:56Z</time>
      </trkpt>
      <trkpt lat="45.77717" lon="3.31435">
        <ele>322.8</ele>
        <time>2024-05-19T07:30:57Z</time>
      </trkpt>
      <trkpt lat="45.77713" lon="3.31428">
        <ele>323</ele>
        <time>2024-05-19T07:30:58Z</time>
      </trkpt>
      <trkpt lat="45.77709" lon="3.31422">
        <ele>323</ele>
        <time>2024-05-19T07:30:59Z</time>
      </trkpt>
      <trkpt lat="45.77704" lon="3.31415">
        <ele>323.2</ele>
        <time>2024-05-19T07:31:00Z</time>
      </trkpt>
      <trkpt lat="45.777" lon="3.31409">
        <ele>323.2</ele>
        <time>2024-05-19T07:31:01Z</time>
      </trkpt>
      <trkpt lat="45.77695" lon="3.31402">
        <ele>323.6</ele>
        <time>2024-05-19T07:31:02Z</time>
      </trkpt>
      <trkpt lat="45.77691" lon="3.31396">
        <ele>323.6</ele>
        <time>2024-05-19T07:31:03Z</time>
      </trkpt>
      <trkpt lat="45.77687" lon="3.31389">
        <ele>323.6</ele>
        <time>2024-05-19T07:31:04Z</time>
      </trkpt>
      <trkpt lat="45.77682" lon="3.31382">
        <ele>323.8</ele>
        <time>2024-05-19T07:31:05Z</time>
      </trkpt>
      <trkpt lat="45.77678" lon="3.31376">
        <ele>324</ele>
        <time>2024-05-19T07:31:06Z</time>
      </trkpt>
      <trkpt lat="45.77673" lon="3.31369">
        <ele>324</ele>
        <time>2024-05-19T07:31:07Z</time>
      </trkpt>
      <trkpt lat="45.77669" lon="3.31362">
        <ele>324</ele>
        <time>2024-05-19T07:31:08Z</time>
      </trkpt>
      <trkpt lat="45.77665" lon="3.31354">
        <ele>323.6</ele>
        <time>2024-05-19T07:31:09Z</time>
      </trkpt>
      <trkpt lat="45.77661" lon="3.31347">
        <ele>323.8</ele>
        <time>2024-05-19T07:31:10Z</time>
      </trkpt>
      <trkpt lat="45.77657" lon="3.31339">
        <ele>323.6</ele>
        <time>2024-05-19T07:31:11Z</time>
      </trkpt>
      <trkpt lat="45.77653" lon="3.31332">
        <ele>323.6</ele>
        <time>2024-05-19T07:31:12Z</time>
      </trkpt>
      <trkpt lat="45.7765" lon="3.31324">
        <ele>323.6</ele>
        <time>2024-05-19T07:31:13Z</time>
      </trkpt>
      <trkpt lat="45.77646" lon="3.31316">
        <ele>323.6</ele>
        <time>2024-05-19T07:31:14Z</time>
      </trkpt>
      <trkpt lat="45.77642" lon="3.31309">
        <ele>323.6</ele>
        <time>2024-05-19T07:31:15Z</time>
      </trkpt>
      <trkpt lat="45.77638" lon="3.31301">
        <ele>323.6</ele>
        <time>2024-05-19T07:31:16Z</time>
      </trkpt>
      <trkpt lat="45.77634" lon="3.31293">
        <ele>323.6</ele>
        <time>2024-05-19T07:31:17Z</time>
      </trkpt>
      <trkpt lat="45.77629" lon="3.31286">
        <ele>323.8</ele>
        <time>2024-05-19T07:31:18Z</time>
      </trkpt>
      <trkpt lat="45.77624" lon="3.31279">
        <ele>323.8</ele>
        <time>2024-05-19T07:31:19Z</time>
      </trkpt>
      <trkpt lat="45.7762" lon="3.31273">
        <ele>323.8</ele>
        <time>2024-05-19T07:31:20Z</time>
      </trkpt>
      <trkpt lat="45.77615" lon="3.31266">
        <ele>323.8</ele>
        <time>2024-05-19T07:31:21Z</time>
      </trkpt>
      <trkpt lat="45.7761" lon="3.3126">
        <ele>323.8</ele>
        <time>2024-05-19T07:31:22Z</time>
      </trkpt>
      <trkpt lat="45.77606" lon="3.31253">
        <ele>323.8</ele>
        <time>2024-05-19T07:31:23Z</time>
      </trkpt>
      <trkpt lat="45.77601" lon="3.31246">
        <ele>324</ele>
        <time>2024-05-19T07:31:24Z</time>
      </trkpt>
      <trkpt lat="45.77596" lon="3.3124">
        <ele>324</ele>
        <time>2024-05-19T07:31:25Z</time>
      </trkpt>
      <trkpt lat="45.77592" lon="3.31233">
        <ele>324</ele>
        <time>2024-05-19T07:31:26Z</time>
      </trkpt>
      <trkpt lat="45.77587" lon="3.31227">
        <ele>324</ele>
        <time>2024-05-19T07:31:27Z</time>
      </trkpt>
      <trkpt lat="45.77582" lon="3.3122">
        <ele>324</ele>
        <time>2024-05-19T07:31:28Z</time>
      </trkpt>
      <trkpt lat="45.77577" lon="3.31214">
        <ele>324</ele>
        <time>2024-05-19T07:31:29Z</time>
      </trkpt>
      <trkpt lat="45.77573" lon="3.31207">
        <ele>324</ele>
        <time>2024-05-19T07:31:30Z</time>
      </trkpt>
      <trkpt lat="45.77567" lon="3.31203">
        <ele>324</ele>
        <time>2024-05-19T07:31:31Z</time>
      </trkpt>
      <trkpt lat="45.77561" lon="3.312">
        <ele>324</ele>
        <time>2024-05-19T07:31:32Z</time>
      </trkpt>
      <trkpt lat="45.77555" lon="3.31196">
        <ele>324</ele>
        <time>2024-05-19T07:31:33Z</time>
      </trkpt>
      <trkpt lat="45.77549" lon="3.31193">
        <ele>324.2</ele>
        <time>2024-05-19T07:31:34Z</time>
      </trkpt>
      <trkpt lat="45.77542" lon="3.31189">
        <ele>324.2</ele>
        <time>2024-05-19T07:31:35Z</time>
      </trkpt>
      <trkpt lat="45.77536" lon="3.31186">
        <ele>324.2</ele>
        <time>2024-05-19T07:31:36Z</time>
      </trkpt>
      <trkpt lat="45.7753" lon="3.31182">
        <ele>324.2</ele>
        <time>2024-05-19T07:31:37Z</time>
      </trkpt>
      <trkpt lat="45.77525" lon="3.31179">
        <ele>324.4</ele>
        <time>2024-05-19T07:31:38Z</time>
      </trkpt>
      <trkpt lat="45.77519" lon="3.31176">
        <ele>324.4</ele>
        <time>2024-05-19T07:31:39Z</time>
      </trkpt>
      <trkpt lat="45.77513" lon="3.31172">
        <ele>324.4</ele>
        <time>2024-05-19T07:31:40Z</time>
      </trkpt>
      <trkpt lat="45.77507" lon="3.31169">
        <ele>324.4</ele>
        <time>2024-05-19T07:31:41Z</time>
      </trkpt>
      <trkpt lat="45.77501" lon="3.31166">
        <ele>324.4</ele>
        <time>2024-05-19T07:31:42Z</time>
      </trkpt>
      <trkpt lat="45.77495" lon="3.31162">
        <ele>324.6</ele>
        <time>2024-05-19T07:31:43Z</time>
      </trkpt>
      <trkpt lat="45.7749" lon="3.31159">
        <ele>324.6</ele>
        <time>2024-05-19T07:31:44Z</time>
      </trkpt>
      <trkpt lat="45.77484" lon="3.31156">
        <ele>324.6</ele>
        <time>2024-05-19T07:31:45Z</time>
      </trkpt>
      <trkpt lat="45.77478" lon="3.31152">
        <ele>324.6</ele>
        <time>2024-05-19T07:31:46Z</time>
      </trkpt>
      <trkpt lat="45.77472" lon="3.31149">
        <ele>324.6</ele>
        <time>2024-05-19T07:31:47Z</time>
      </trkpt>
      <trkpt lat="45.77467" lon="3.31146">
        <ele>324.6</ele>
        <time>2024-05-19T07:31:48Z</time>
      </trkpt>
      <trkpt lat="45.77461" lon="3.31143">
        <ele>324.8</ele>
        <time>2024-05-19T07:31:49Z</time>
      </trkpt>
      <trkpt lat="45.77455" lon="3.31139">
        <ele>324.8</ele>
        <time>2024-05-19T07:31:50Z</time>
      </trkpt>
      <trkpt lat="45.7745" lon="3.31136">
        <ele>324.8</ele>
        <time>2024-05-19T07:31:51Z</time>
      </trkpt>
      <trkpt lat="45.77444" lon="3.31129">
        <ele>325</ele>
        <time>2024-05-19T07:31:52Z</time>
      </trkpt>
      <trkpt lat="45.77441" lon="3.31122">
        <ele>325</ele>
        <time>2024-05-19T07:31:53Z</time>
      </trkpt>
      <trkpt lat="45.77437" lon="3.31115">
        <ele>325</ele>
        <time>2024-05-19T07:31:54Z</time>
      </trkpt>
      <trkpt lat="45.77434" lon="3.31108">
        <ele>325</ele>
        <time>2024-05-19T07:31:55Z</time>
      </trkpt>
      <trkpt lat="45.77431" lon="3.31102">
        <ele>325.2</ele>
        <time>2024-05-19T07:31:56Z</time>
      </trkpt>
      <trkpt lat="45.77427" lon="3.31095">
        <ele>325.2</ele>
        <time>2024-05-19T07:31:57Z</time>
      </trkpt>
      <trkpt lat="45.77424" lon="3.31088">
        <ele>325.2</ele>
        <time>2024-05-19T07:31:58Z</time>
      </trkpt>
      <trkpt lat="45.7742" lon="3.31081">
        <ele>325.2</ele>
        <time>2024-05-19T07:31:59Z</time>
      </trkpt>
      <trkpt lat="45.77417" lon="3.31074">
        <ele>325.4</ele>
        <time>2024-05-19T07:32:00Z</time>
      </trkpt>
      <trkpt lat="45.77413" lon="3.31066">
        <ele>325.4</ele>
        <time>2024-05-19T07:32:01Z</time>
      </trkpt>
      <trkpt lat="45.7741" lon="3.31059">
        <ele>325.4</ele>
        <time>2024-05-19T07:32:02Z</time>
      </trkpt>
      <trkpt lat="45.77407" lon="3.31052">
        <ele>325.4</ele>
        <time>2024-05-19T07:32:03Z</time>
      </trkpt>
      <trkpt lat="45.77403" lon="3.31044">
        <ele>325.4</ele>
        <time>2024-05-19T07:32:04Z</time>
      </trkpt>
      <trkpt lat="45.774" lon="3.31036">
        <ele>325.6</ele>
        <time>2024-05-19T07:32:05Z</time>
      </trkpt>
      <trkpt lat="45.77398" lon="3.31028">
        <ele>325.6</ele>
        <time>2024-05-19T07:32:06Z</time>
      </trkpt>
      <trkpt lat="45.77395" lon="3.31019">
        <ele>325.6</ele>
        <time>2024-05-19T07:32:07Z</time>
      </trkpt>
      <trkpt lat="45.77393" lon="3.3101">
        <ele>325.6</ele>
        <time>2024-05-19T07:32:08Z</time>
      </trkpt>
      <trkpt lat="45.77391" lon="3.31001">
        <ele>325.6</ele>
        <time>2024-05-19T07:32:09Z</time>
      </trkpt>
      <trkpt lat="45.77389" lon="3.30991">
        <ele>325.6</ele>
        <time>2024-05-19T07:32:10Z</time>
      </trkpt>
      <trkpt lat="45.77388" lon="3.30982">
        <ele>325.6</ele>
        <time>2024-05-19T07:32:11Z</time>
      </trkpt>
      <trkpt lat="45.77386" lon="3.30973">
        <ele>325.6</ele>
        <time>2024-05-19T07:32:12Z</time>
      </trkpt>
      <trkpt lat="45.77384" lon="3.30963">
        <ele>325.6</ele>
        <time>2024-05-19T07:32:13Z</time>
      </trkpt>
      <trkpt lat="45.77383" lon="3.30953">
        <ele>325.8</ele>
        <time>2024-05-19T07:32:14Z</time>
      </trkpt>
      <trkpt lat="45.77381" lon="3.30943">
        <ele>325.8</ele>
        <time>2024-05-19T07:32:15Z</time>
      </trkpt>
      <trkpt lat="45.77379" lon="3.30933">
        <ele>325.8</ele>
        <time>2024-05-19T07:32:16Z</time>
      </trkpt>
      <trkpt lat="45.77378" lon="3.30923">
        <ele>325.8</ele>
        <time>2024-05-19T07:32:17Z</time>
      </trkpt>
      <trkpt lat="45.77376" lon="3.30913">
        <ele>325.8</ele>
        <time>2024-05-19T07:32:18Z</time>
      </trkpt>
      <trkpt lat="45.77374" lon="3.30904">
        <ele>325.8</ele>
        <time>2024-05-19T07:32:19Z</time>
      </trkpt>
      <trkpt lat="45.77372" lon="3.30894">
        <ele>325.8</ele>
        <time>2024-05-19T07:32:20Z</time>
      </trkpt>
      <trkpt lat="45.77371" lon="3.30884">
        <ele>325.8</ele>
        <time>2024-05-19T07:32:21Z</time>
      </trkpt>
      <trkpt lat="45.77369" lon="3.30875">
        <ele>325.8</ele>
        <time>2024-05-19T07:32:22Z</time>
      </trkpt>
      <trkpt lat="45.77367" lon="3.30865">
        <ele>326</ele>
        <time>2024-05-19T07:32:23Z</time>
      </trkpt>
      <trkpt lat="45.77366" lon="3.30856">
        <ele>326</ele>
        <time>2024-05-19T07:32:24Z</time>
      </trkpt>
      <trkpt lat="45.77364" lon="3.30847">
        <ele>326</ele>
        <time>2024-05-19T07:32:25Z</time>
      </trkpt>
      <trkpt lat="45.77363" lon="3.30838">
        <ele>326</ele>
        <time>2024-05-19T07:32:26Z</time>
      </trkpt>
      <trkpt lat="45.77361" lon="3.30829">
        <ele>326</ele>
        <time>2024-05-19T07:32:27Z</time>
      </trkpt>
      <trkpt lat="45.77359" lon="3.3082">
        <ele>326</ele>
        <time>2024-05-19T07:32:28Z</time>
      </trkpt>
      <trkpt lat="45.77358" lon="3.30811">
        <ele>326.2</ele>
        <time>2024-05-19T07:32:29Z</time>
      </trkpt>
      <trkpt lat="45.77356" lon="3.30802">
        <ele>326.2</ele>
        <time>2024-05-19T07:32:30Z</time>
      </trkpt>
      <trkpt lat="45.77355" lon="3.30793">
        <ele>326.2</ele>
        <time>2024-05-19T07:32:31Z</time>
      </trkpt>
      <trkpt lat="45.77351" lon="3.30774">
        <ele>326.2</ele>
        <time>2024-05-19T07:32:32Z</time>
      </trkpt>
      <trkpt lat="45.77351" lon="3.30774">
        <ele>326.2</ele>
        <time>2024-05-19T07:32:33Z</time>
      </trkpt>
      <trkpt lat="45.7735" lon="3.30766">
        <ele>326.2</ele>
        <time>2024-05-19T07:32:34Z</time>
      </trkpt>
      <trkpt lat="45.77348" lon="3.30757">
        <ele>326.2</ele>
        <time>2024-05-19T07:32:35Z</time>
      </trkpt>
      <trkpt lat="45.77346" lon="3.30748">
        <ele>326.2</ele>
        <time>2024-05-19T07:32:36Z</time>
      </trkpt>
      <trkpt lat="45.77345" lon="3.30739">
        <ele>326.4</ele>
        <time>2024-05-19T07:32:37Z</time>
      </trkpt>
      <trkpt lat="45.77343" lon="3.30731">
        <ele>326.4</ele>
        <time>2024-05-19T07:32:38Z</time>
      </trkpt>
      <trkpt lat="45.77342" lon="3.30722">
        <ele>326.4</ele>
        <time>2024-05-19T07:32:39Z</time>
      </trkpt>
      <trkpt lat="45.7734" lon="3.30713">
        <ele>326.4</ele>
        <time>2024-05-19T07:32:40Z</time>
      </trkpt>
      <trkpt lat="45.77338" lon="3.30704">
        <ele>326.4</ele>
        <time>2024-05-19T07:32:41Z</time>
      </trkpt>
      <trkpt lat="45.77336" lon="3.30696">
        <ele>326.4</ele>
        <time>2024-05-19T07:32:42Z</time>
      </trkpt>
      <trkpt lat="45.77334" lon="3.30688">
        <ele>326.6</ele>
        <time>2024-05-19T07:32:43Z</time>
      </trkpt>
      <trkpt lat="45.77332" lon="3.30681">
        <ele>326.6</ele>
        <time>2024-05-19T07:32:44Z</time>
      </trkpt>
      <trkpt lat="45.77329" lon="3.30673">
        <ele>326.6</ele>
        <time>2024-05-19T07:32:45Z</time>
      </trkpt>
      <trkpt lat="45.77327" lon="3.30666">
        <ele>326.6</ele>
        <time>2024-05-19T07:32:46Z</time>
      </trkpt>
      <trkpt lat="45.77325" lon="3.30658">
        <ele>326.8</ele>
        <time>2024-05-19T07:32:47Z</time>
      </trkpt>
      <trkpt lat="45.77323" lon="3.30651">
        <ele>326.8</ele>
        <time>2024-05-19T07:32:48Z</time>
      </trkpt>
      <trkpt lat="45.77321" lon="3.30643">
        <ele>326.8</ele>
        <time>2024-05-19T07:32:49Z</time>
      </trkpt>
      <trkpt lat="45.77319" lon="3.30636">
        <ele>326.8</ele>
        <time>2024-05-19T07:32:50Z</time>
      </trkpt>
      <trkpt lat="45.77317" lon="3.30629">
        <ele>327</ele>
        <time>2024-05-19T07:32:51Z</time>
      </trkpt>
      <trkpt lat="45.77314" lon="3.30622">
        <ele>327</ele>
        <time>2024-05-19T07:32:52Z</time>
      </trkpt>
      <trkpt lat="45.77312" lon="3.30616">
        <ele>327</ele>
        <time>2024-05-19T07:32:53Z</time>
      </trkpt>
      <trkpt lat="45.7731" lon="3.30609">
        <ele>327.2</ele>
        <time>2024-05-19T07:32:54Z</time>
      </trkpt>
      <trkpt lat="45.77308" lon="3.30602">
        <ele>327.2</ele>
        <time>2024-05-19T07:32:55Z</time>
      </trkpt>
      <trkpt lat="45.77305" lon="3.30596">
        <ele>327.2</ele>
        <time>2024-05-19T07:32:56Z</time>
      </trkpt>
      <trkpt lat="45.77303" lon="3.3059">
        <ele>327.4</ele>
        <time>2024-05-19T07:32:57Z</time>
      </trkpt>
      <trkpt lat="45.77301" lon="3.30584">
        <ele>327.4</ele>
        <time>2024-05-19T07:32:58Z</time>
      </trkpt>
      <trkpt lat="45.77299" lon="3.30577">
        <ele>327.4</ele>
        <time>2024-05-19T07:32:59Z</time>
      </trkpt>
      <trkpt lat="45.77297" lon="3.30571">
        <ele>327.6</ele>
        <time>2024-05-19T07:33:00Z</time>
      </trkpt>
      <trkpt lat="45.77295" lon="3.30565">
        <ele>327.6</ele>
        <time>2024-05-19T07:33:01Z</time>
      </trkpt>
      <trkpt lat="45.77293" lon="3.30559">
        <ele>327.8</ele>
        <time>2024-05-19T07:33:02Z</time>
      </trkpt>
      <trkpt lat="45.77291" lon="3.30552">
        <ele>327.8</ele>
        <time>2024-05-19T07:33:03Z</time>
      </trkpt>
      <trkpt lat="45.77289" lon="3.30546">
        <ele>327.8</ele>
        <time>2024-05-19T07:33:04Z</time>
      </trkpt>
      <trkpt lat="45.77287" lon="3.30539">
        <ele>327.8</ele>
        <time>2024-05-19T07:33:05Z</time>
      </trkpt>
      <trkpt lat="45.77284" lon="3.30533">
        <ele>328</ele>
        <time>2024-05-19T07:33:06Z</time>
      </trkpt>
      <trkpt lat="45.77282" lon="3.30526">
        <ele>328</ele>
        <time>2024-05-19T07:33:07Z</time>
      </trkpt>
      <trkpt lat="45.7728" lon="3.3052">
        <ele>328.2</ele>
        <time>2024-05-19T07:33:08Z</time>
      </trkpt>
      <trkpt lat="45.77278" lon="3.30513">
        <ele>328.2</ele>
        <time>2024-05-19T07:33:09Z</time>
      </trkpt>
      <trkpt lat="45.77276" lon="3.30506">
        <ele>328.2</ele>
        <time>2024-05-19T07:33:10Z</time>
      </trkpt>
      <trkpt lat="45.77273" lon="3.305">
        <ele>328.4</ele>
        <time>2024-05-19T07:33:11Z</time>
      </trkpt>
      <trkpt lat="45.77271" lon="3.30493">
        <ele>328.4</ele>
        <time>2024-05-19T07:33:12Z</time>
      </trkpt>
      <trkpt lat="45.77269" lon="3.30487">
        <ele>328.4</ele>
        <time>2024-05-19T07:33:13Z</time>
      </trkpt>
      <trkpt lat="45.77267" lon="3.3048">
        <ele>328.6</ele>
        <time>2024-05-19T07:33:14Z</time>
      </trkpt>
      <trkpt lat="45.77265" lon="3.30474">
        <ele>328.6</ele>
        <time>2024-05-19T07:33:15Z</time>
      </trkpt>
      <trkpt lat="45.77263" lon="3.30467">
        <ele>328.6</ele>
        <time>2024-05-19T07:33:16Z</time>
      </trkpt>
      <trkpt lat="45.77261" lon="3.3046">
        <ele>328.8</ele>
        <time>2024-05-19T07:33:17Z</time>
      </trkpt>
      <trkpt lat="45.77259" lon="3.30453">
        <ele>328.8</ele>
        <time>2024-05-19T07:33:18Z</time>
      </trkpt>
      <trkpt lat="45.77257" lon="3.30446">
        <ele>328.8</ele>
        <time>2024-05-19T07:33:19Z</time>
      </trkpt>
      <trkpt lat="45.77255" lon="3.3044">
        <ele>329</ele>
        <time>2024-05-19T07:33:20Z</time>
      </trkpt>
      <trkpt lat="45.77253" lon="3.30433">
        <ele>329</ele>
        <time>2024-05-19T07:33:21Z</time>
      </trkpt>
      <trkpt lat="45.77251" lon="3.30426">
        <ele>329</ele>
        <time>2024-05-19T07:33:22Z</time>
      </trkpt>
      <trkpt lat="45.77249" lon="3.30419">
        <ele>329.2</ele>
        <time>2024-05-19T07:33:23Z</time>
      </trkpt>
      <trkpt lat="45.77248" lon="3.30412">
        <ele>329.2</ele>
        <time>2024-05-19T07:33:24Z</time>
      </trkpt>
      <trkpt lat="45.77246" lon="3.30406">
        <ele>329.4</ele>
        <time>2024-05-19T07:33:25Z</time>
      </trkpt>
      <trkpt lat="45.77244" lon="3.30399">
        <ele>329.4</ele>
        <time>2024-05-19T07:33:26Z</time>
      </trkpt>
      <trkpt lat="45.77242" lon="3.30392">
        <ele>329.4</ele>
        <time>2024-05-19T07:33:27Z</time>
      </trkpt>
      <trkpt lat="45.7724" lon="3.30385">
        <ele>329.6</ele>
        <time>2024-05-19T07:33:28Z</time>
      </trkpt>
      <trkpt lat="45.77238" lon="3.30379">
        <ele>329.6</ele>
        <time>2024-05-19T07:33:29Z</time>
      </trkpt>
      <trkpt lat="45.77237" lon="3.30372">
        <ele>329.8</ele>
        <time>2024-05-19T07:33:30Z</time>
      </trkpt>
      <trkpt lat="45.77236" lon="3.30365">
        <ele>329.8</ele>
        <time>2024-05-19T07:33:31Z</time>
      </trkpt>
      <trkpt lat="45.77234" lon="3.30358">
        <ele>329.8</ele>
        <time>2024-05-19T07:33:32Z</time>
      </trkpt>
      <trkpt lat="45.77233" lon="3.30351">
        <ele>330</ele>
        <time>2024-05-19T07:33:33Z</time>
      </trkpt>
      <trkpt lat="45.77232" lon="3.30345">
        <ele>330.2</ele>
        <time>2024-05-19T07:33:34Z</time>
      </trkpt>
      <trkpt lat="45.7723" lon="3.30338">
        <ele>330.2</ele>
        <time>2024-05-19T07:33:35Z</time>
      </trkpt>
      <trkpt lat="45.77229" lon="3.30331">
        <ele>330.4</ele>
        <time>2024-05-19T07:33:36Z</time>
      </trkpt>
      <trkpt lat="45.77228" lon="3.30325">
        <ele>330.4</ele>
        <time>2024-05-19T07:33:37Z</time>
      </trkpt>
      <trkpt lat="45.77226" lon="3.30318">
        <ele>330.4</ele>
        <time>2024-05-19T07:33:38Z</time>
      </trkpt>
      <trkpt lat="45.77225" lon="3.30312">
        <ele>330.6</ele>
        <time>2024-05-19T07:33:39Z</time>
      </trkpt>
      <trkpt lat="45.77224" lon="3.30305">
        <ele>330.6</ele>
        <time>2024-05-19T07:33:40Z</time>
      </trkpt>
      <trkpt lat="45.77222" lon="3.30299">
        <ele>330.6</ele>
        <time>2024-05-19T07:33:41Z</time>
      </trkpt>
      <trkpt lat="45.77221" lon="3.30292">
        <ele>330.8</ele>
        <time>2024-05-19T07:33:42Z</time>
      </trkpt>
      <trkpt lat="45.7722" lon="3.30286">
        <ele>331</ele>
        <time>2024-05-19T07:33:43Z</time>
      </trkpt>
      <trkpt lat="45.77219" lon="3.30279">
        <ele>331</ele>
        <time>2024-05-19T07:33:44Z</time>
      </trkpt>
      <trkpt lat="45.77218" lon="3.30273">
        <ele>331.2</ele>
        <time>2024-05-19T07:33:45Z</time>
      </trkpt>
      <trkpt lat="45.77217" lon="3.30266">
        <ele>331.2</ele>
        <time>2024-05-19T07:33:46Z</time>
      </trkpt>
      <trkpt lat="45.77216" lon="3.3026">
        <ele>331.4</ele>
        <time>2024-05-19T07:33:47Z</time>
      </trkpt>
      <trkpt lat="45.77215" lon="3.30253">
        <ele>331.4</ele>
        <time>2024-05-19T07:33:48Z</time>
      </trkpt>
      <trkpt lat="45.77214" lon="3.30247">
        <ele>331.4</ele>
        <time>2024-05-19T07:33:49Z</time>
      </trkpt>
      <trkpt lat="45.77212" lon="3.3024">
        <ele>331.6</ele>
        <time>2024-05-19T07:33:50Z</time>
      </trkpt>
      <trkpt lat="45.77211" lon="3.30234">
        <ele>331.6</ele>
        <time>2024-05-19T07:33:51Z</time>
      </trkpt>
      <trkpt lat="45.7721" lon="3.30227">
        <ele>331.8</ele>
        <time>2024-05-19T07:33:52Z</time>
      </trkpt>
      <trkpt lat="45.77209" lon="3.30221">
        <ele>332</ele>
        <time>2024-05-19T07:33:53Z</time>
      </trkpt>
      <trkpt lat="45.77208" lon="3.30215">
        <ele>332</ele>
        <time>2024-05-19T07:33:54Z</time>
      </trkpt>
      <trkpt lat="45.77207" lon="3.30208">
        <ele>332.2</ele>
        <time>2024-05-19T07:33:55Z</time>
      </trkpt>
      <trkpt lat="45.77206" lon="3.30202">
        <ele>332.4</ele>
        <time>2024-05-19T07:33:56Z</time>
      </trkpt>
      <trkpt lat="45.77205" lon="3.30196">
        <ele>332.4</ele>
        <time>2024-05-19T07:33:57Z</time>
      </trkpt>
      <trkpt lat="45.77204" lon="3.3019">
        <ele>332.6</ele>
        <time>2024-05-19T07:33:58Z</time>
      </trkpt>
      <trkpt lat="45.77203" lon="3.30184">
        <ele>332.6</ele>
        <time>2024-05-19T07:33:59Z</time>
      </trkpt>
      <trkpt lat="45.77203" lon="3.30177">
        <ele>332.8</ele>
        <time>2024-05-19T07:34:00Z</time>
      </trkpt>
      <trkpt lat="45.77203" lon="3.3017">
        <ele>333</ele>
        <time>2024-05-19T07:34:01Z</time>
      </trkpt>
      <trkpt lat="45.77203" lon="3.30164">
        <ele>333</ele>
        <time>2024-05-19T07:34:02Z</time>
      </trkpt>
      <trkpt lat="45.77203" lon="3.30157">
        <ele>333.2</ele>
        <time>2024-05-19T07:34:03Z</time>
      </trkpt>
      <trkpt lat="45.77203" lon="3.30151">
        <ele>333.2</ele>
        <time>2024-05-19T07:34:04Z</time>
      </trkpt>
      <trkpt lat="45.77203" lon="3.30144">
        <ele>333.4</ele>
        <time>2024-05-19T07:34:05Z</time>
      </trkpt>
      <trkpt lat="45.77203" lon="3.30137">
        <ele>333.6</ele>
        <time>2024-05-19T07:34:06Z</time>
      </trkpt>
      <trkpt lat="45.77203" lon="3.3013">
        <ele>333.6</ele>
        <time>2024-05-19T07:34:07Z</time>
      </trkpt>
      <trkpt lat="45.77203" lon="3.30123">
        <ele>333.8</ele>
        <time>2024-05-19T07:34:08Z</time>
      </trkpt>
      <trkpt lat="45.77203" lon="3.30116">
        <ele>333.8</ele>
        <time>2024-05-19T07:34:09Z</time>
      </trkpt>
      <trkpt lat="45.77203" lon="3.30108">
        <ele>334</ele>
        <time>2024-05-19T07:34:10Z</time>
      </trkpt>
      <trkpt lat="45.77203" lon="3.30101">
        <ele>334</ele>
        <time>2024-05-19T07:34:11Z</time>
      </trkpt>
      <trkpt lat="45.77203" lon="3.30094">
        <ele>334.2</ele>
        <time>2024-05-19T07:34:12Z</time>
      </trkpt>
      <trkpt lat="45.77203" lon="3.30087">
        <ele>334.4</ele>
        <time>2024-05-19T07:34:13Z</time>
      </trkpt>
      <trkpt lat="45.77203" lon="3.30081">
        <ele>334.4</ele>
        <time>2024-05-19T07:34:14Z</time>
      </trkpt>
      <trkpt lat="45.77203" lon="3.30074">
        <ele>334.6</ele>
        <time>2024-05-19T07:34:15Z</time>
      </trkpt>
      <trkpt lat="45.77203" lon="3.30068">
        <ele>334.6</ele>
        <time>2024-05-19T07:34:16Z</time>
      </trkpt>
      <trkpt lat="45.77203" lon="3.30061">
        <ele>334.8</ele>
        <time>2024-05-19T07:34:17Z</time>
      </trkpt>
      <trkpt lat="45.77202" lon="3.30055">
        <ele>335</ele>
        <time>2024-05-19T07:34:18Z</time>
      </trkpt>
      <trkpt lat="45.77202" lon="3.30049">
        <ele>335.2</ele>
        <time>2024-05-19T07:34:19Z</time>
      </trkpt>
      <trkpt lat="45.77201" lon="3.30043">
        <ele>335.2</ele>
        <time>2024-05-19T07:34:20Z</time>
      </trkpt>
      <trkpt lat="45.772" lon="3.30037">
        <ele>335.4</ele>
        <time>2024-05-19T07:34:21Z</time>
      </trkpt>
      <trkpt lat="45.77199" lon="3.30031">
        <ele>335.4</ele>
        <time>2024-05-19T07:34:22Z</time>
      </trkpt>
      <trkpt lat="45.77199" lon="3.30024">
        <ele>335.6</ele>
        <time>2024-05-19T07:34:23Z</time>
      </trkpt>
      <trkpt lat="45.77198" lon="3.30018">
        <ele>335.8</ele>
        <time>2024-05-19T07:34:24Z</time>
      </trkpt>
      <trkpt lat="45.77197" lon="3.30012">
        <ele>335.8</ele>
        <time>2024-05-19T07:34:25Z</time>
      </trkpt>
      <trkpt lat="45.77197" lon="3.30006">
        <ele>336</ele>
        <time>2024-05-19T07:34:26Z</time>
      </trkpt>
      <trkpt lat="45.77196" lon="3.3">
        <ele>336</ele>
        <time>2024-05-19T07:34:27Z</time>
      </trkpt>
      <trkpt lat="45.77195" lon="3.29993">
        <ele>336.2</ele>
        <time>2024-05-19T07:34:28Z</time>
      </trkpt>
      <trkpt lat="45.77194" lon="3.29986">
        <ele>336.4</ele>
        <time>2024-05-19T07:34:29Z</time>
      </trkpt>
      <trkpt lat="45.77194" lon="3.2998">
        <ele>336.4</ele>
        <time>2024-05-19T07:34:30Z</time>
      </trkpt>
      <trkpt lat="45.77193" lon="3.29974">
        <ele>336.6</ele>
        <time>2024-05-19T07:34:31Z</time>
      </trkpt>
      <trkpt lat="45.77192" lon="3.29967">
        <ele>336.6</ele>
        <time>2024-05-19T07:34:32Z</time>
      </trkpt>
      <trkpt lat="45.77191" lon="3.29961">
        <ele>336.8</ele>
        <time>2024-05-19T07:34:33Z</time>
      </trkpt>
      <trkpt lat="45.77191" lon="3.29954">
        <ele>337</ele>
        <time>2024-05-19T07:34:34Z</time>
      </trkpt>
      <trkpt lat="45.7719" lon="3.29948">
        <ele>337</ele>
        <time>2024-05-19T07:34:35Z</time>
      </trkpt>
      <trkpt lat="45.77189" lon="3.29942">
        <ele>337.2</ele>
        <time>2024-05-19T07:34:36Z</time>
      </trkpt>
      <trkpt lat="45.77188" lon="3.29935">
        <ele>337.4</ele>
        <time>2024-05-19T07:34:37Z</time>
      </trkpt>
      <trkpt lat="45.77188" lon="3.29929">
        <ele>337.4</ele>
        <time>2024-05-19T07:34:38Z</time>
      </trkpt>
      <trkpt lat="45.77187" lon="3.29922">
        <ele>337.6</ele>
        <time>2024-05-19T07:34:39Z</time>
      </trkpt>
      <trkpt lat="45.77186" lon="3.29916">
        <ele>337.6</ele>
        <time>2024-05-19T07:34:40Z</time>
      </trkpt>
      <trkpt lat="45.77185" lon="3.2991">
        <ele>337.8</ele>
        <time>2024-05-19T07:34:41Z</time>
      </trkpt>
      <trkpt lat="45.77185" lon="3.29903">
        <ele>338</ele>
        <time>2024-05-19T07:34:42Z</time>
      </trkpt>
      <trkpt lat="45.77184" lon="3.29897">
        <ele>338</ele>
        <time>2024-05-19T07:34:43Z</time>
      </trkpt>
      <trkpt lat="45.77183" lon="3.29891">
        <ele>338.2</ele>
        <time>2024-05-19T07:34:44Z</time>
      </trkpt>
      <trkpt lat="45.77182" lon="3.29885">
        <ele>338.2</ele>
        <time>2024-05-19T07:34:45Z</time>
      </trkpt>
      <trkpt lat="45.77182" lon="3.29879">
        <ele>338.4</ele>
        <time>2024-05-19T07:34:46Z</time>
      </trkpt>
      <trkpt lat="45.77181" lon="3.29873">
        <ele>338.6</ele>
        <time>2024-05-19T07:34:47Z</time>
      </trkpt>
      <trkpt lat="45.7718" lon="3.29867">
        <ele>338.6</ele>
        <time>2024-05-19T07:34:48Z</time>
      </trkpt>
      <trkpt lat="45.77179" lon="3.29861">
        <ele>338.8</ele>
        <time>2024-05-19T07:34:49Z</time>
      </trkpt>
      <trkpt lat="45.77179" lon="3.29855">
        <ele>338.8</ele>
        <time>2024-05-19T07:34:50Z</time>
      </trkpt>
      <trkpt lat="45.77178" lon="3.29849">
        <ele>339</ele>
        <time>2024-05-19T07:34:51Z</time>
      </trkpt>
      <trkpt lat="45.77177" lon="3.29843">
        <ele>339.2</ele>
        <time>2024-05-19T07:34:52Z</time>
      </trkpt>
      <trkpt lat="45.77176" lon="3.29837">
        <ele>339.4</ele>
        <time>2024-05-19T07:34:53Z</time>
      </trkpt>
      <trkpt lat="45.77176" lon="3.29832">
        <ele>339.4</ele>
        <time>2024-05-19T07:34:54Z</time>
      </trkpt>
      <trkpt lat="45.77175" lon="3.29826">
        <ele>339.6</ele>
        <time>2024-05-19T07:34:55Z</time>
      </trkpt>
      <trkpt lat="45.77174" lon="3.29821">
        <ele>339.6</ele>
        <time>2024-05-19T07:34:56Z</time>
      </trkpt>
      <trkpt lat="45.77174" lon="3.29816">
        <ele>339.8</ele>
        <time>2024-05-19T07:34:57Z</time>
      </trkpt>
      <trkpt lat="45.77173" lon="3.29811">
        <ele>340</ele>
        <time>2024-05-19T07:34:58Z</time>
      </trkpt>
      <trkpt lat="45.77172" lon="3.29806">
        <ele>340.2</ele>
        <time>2024-05-19T07:34:59Z</time>
      </trkpt>
      <trkpt lat="45.77172" lon="3.29801">
        <ele>340.2</ele>
        <time>2024-05-19T07:35:00Z</time>
      </trkpt>
      <trkpt lat="45.77171" lon="3.29796">
        <ele>340.4</ele>
        <time>2024-05-19T07:35:01Z</time>
      </trkpt>
      <trkpt lat="45.7717" lon="3.29792">
        <ele>340.8</ele>
        <time>2024-05-19T07:35:02Z</time>
      </trkpt>
      <trkpt lat="45.7717" lon="3.29787">
        <ele>340.8</ele>
        <time>2024-05-19T07:35:03Z</time>
      </trkpt>
      <trkpt lat="45.77169" lon="3.29782">
        <ele>341</ele>
        <time>2024-05-19T07:35:04Z</time>
      </trkpt>
      <trkpt lat="45.77168" lon="3.29777">
        <ele>341.2</ele>
        <time>2024-05-19T07:35:05Z</time>
      </trkpt>
      <trkpt lat="45.77168" lon="3.29773">
        <ele>341.4</ele>
        <time>2024-05-19T07:35:06Z</time>
      </trkpt>
      <trkpt lat="45.77167" lon="3.29768">
        <ele>341.6</ele>
        <time>2024-05-19T07:35:07Z</time>
      </trkpt>
      <trkpt lat="45.77167" lon="3.29764">
        <ele>341.8</ele>
        <time>2024-05-19T07:35:08Z</time>
      </trkpt>
      <trkpt lat="45.77166" lon="3.29759">
        <ele>342</ele>
        <time>2024-05-19T07:35:09Z</time>
      </trkpt>
      <trkpt lat="45.77165" lon="3.29755">
        <ele>342</ele>
        <time>2024-05-19T07:35:10Z</time>
      </trkpt>
      <trkpt lat="45.77165" lon="3.2975">
        <ele>342.2</ele>
        <time>2024-05-19T07:35:11Z</time>
      </trkpt>
      <trkpt lat="45.77164" lon="3.29745">
        <ele>342.4</ele>
        <time>2024-05-19T07:35:12Z</time>
      </trkpt>
      <trkpt lat="45.77164" lon="3.2974">
        <ele>342.6</ele>
        <time>2024-05-19T07:35:13Z</time>
      </trkpt>
      <trkpt lat="45.77164" lon="3.29736">
        <ele>342.8</ele>
        <time>2024-05-19T07:35:14Z</time>
      </trkpt>
      <trkpt lat="45.77165" lon="3.29731">
        <ele>343</ele>
        <time>2024-05-19T07:35:15Z</time>
      </trkpt>
      <trkpt lat="45.77165" lon="3.29726">
        <ele>343</ele>
        <time>2024-05-19T07:35:16Z</time>
      </trkpt>
      <trkpt lat="45.77165" lon="3.29721">
        <ele>343.2</ele>
        <time>2024-05-19T07:35:17Z</time>
      </trkpt>
      <trkpt lat="45.77166" lon="3.29715">
        <ele>343.4</ele>
        <time>2024-05-19T07:35:18Z</time>
      </trkpt>
      <trkpt lat="45.77166" lon="3.2971">
        <ele>343.6</ele>
        <time>2024-05-19T07:35:19Z</time>
      </trkpt>
      <trkpt lat="45.77166" lon="3.29705">
        <ele>343.8</ele>
        <time>2024-05-19T07:35:20Z</time>
      </trkpt>
      <trkpt lat="45.77167" lon="3.29701">
        <ele>343.8</ele>
        <time>2024-05-19T07:35:21Z</time>
      </trkpt>
      <trkpt lat="45.77167" lon="3.29696">
        <ele>344</ele>
        <time>2024-05-19T07:35:22Z</time>
      </trkpt>
      <trkpt lat="45.77167" lon="3.29692">
        <ele>344.2</ele>
        <time>2024-05-19T07:35:23Z</time>
      </trkpt>
      <trkpt lat="45.77167" lon="3.29687">
        <ele>344.4</ele>
        <time>2024-05-19T07:35:24Z</time>
      </trkpt>
      <trkpt lat="45.77168" lon="3.29683">
        <ele>344.6</ele>
        <time>2024-05-19T07:35:25Z</time>
      </trkpt>
      <trkpt lat="45.77168" lon="3.29679">
        <ele>344.8</ele>
        <time>2024-05-19T07:35:26Z</time>
      </trkpt>
      <trkpt lat="45.77168" lon="3.29674">
        <ele>344.8</ele>
        <time>2024-05-19T07:35:27Z</time>
      </trkpt>
      <trkpt lat="45.77169" lon="3.2967">
        <ele>345</ele>
        <time>2024-05-19T07:35:28Z</time>
      </trkpt>
      <trkpt lat="45.7717" lon="3.29665">
        <ele>345.2</ele>
        <time>2024-05-19T07:35:29Z</time>
      </trkpt>
      <trkpt lat="45.77167" lon="3.29657">
        <ele>345.4</ele>
        <time>2024-05-19T07:35:30Z</time>
      </trkpt>
      <trkpt lat="45.77165" lon="3.29654">
        <ele>345.6</ele>
        <time>2024-05-19T07:35:31Z</time>
      </trkpt>
      <trkpt lat="45.77162" lon="3.2965">
        <ele>345.8</ele>
        <time>2024-05-19T07:35:32Z</time>
      </trkpt>
      <trkpt lat="45.7716" lon="3.29645">
        <ele>346</ele>
        <time>2024-05-19T07:35:33Z</time>
      </trkpt>
      <trkpt lat="45.77154" lon="3.29646">
        <ele>346.2</ele>
        <time>2024-05-19T07:35:34Z</time>
      </trkpt>
      <trkpt lat="45.7715" lon="3.29648">
        <ele>346.4</ele>
        <time>2024-05-19T07:35:35Z</time>
      </trkpt>
      <trkpt lat="45.77146" lon="3.29651">
        <ele>346.6</ele>
        <time>2024-05-19T07:35:36Z</time>
      </trkpt>
      <trkpt lat="45.77144" lon="3.29657">
        <ele>346.8</ele>
        <time>2024-05-19T07:35:37Z</time>
      </trkpt>
      <trkpt lat="45.77142" lon="3.29664">
        <ele>346.8</ele>
        <time>2024-05-19T07:35:38Z</time>
      </trkpt>
      <trkpt lat="45.77138" lon="3.29669">
        <ele>347</ele>
        <time>2024-05-19T07:35:39Z</time>
      </trkpt>
      <trkpt lat="45.77135" lon="3.29674">
        <ele>347.2</ele>
        <time>2024-05-19T07:35:40Z</time>
      </trkpt>
      <trkpt lat="45.77132" lon="3.29679">
        <ele>347.2</ele>
        <time>2024-05-19T07:35:41Z</time>
      </trkpt>
      <trkpt lat="45.77129" lon="3.29685">
        <ele>347.4</ele>
        <time>2024-05-19T07:35:42Z</time>
      </trkpt>
      <trkpt lat="45.77125" lon="3.2969">
        <ele>347.4</ele>
        <time>2024-05-19T07:35:43Z</time>
      </trkpt>
      <trkpt lat="45.77122" lon="3.29694">
        <ele>347.6</ele>
        <time>2024-05-19T07:35:44Z</time>
      </trkpt>
      <trkpt lat="45.77119" lon="3.297">
        <ele>347.8</ele>
        <time>2024-05-19T07:35:45Z</time>
      </trkpt>
      <trkpt lat="45.77116" lon="3.29704">
        <ele>347.8</ele>
        <time>2024-05-19T07:35:46Z</time>
      </trkpt>
      <trkpt lat="45.77113" lon="3.2971">
        <ele>348</ele>
        <time>2024-05-19T07:35:47Z</time>
      </trkpt>
      <trkpt lat="45.77109" lon="3.29715">
        <ele>348.2</ele>
        <time>2024-05-19T07:35:48Z</time>
      </trkpt>
      <trkpt lat="45.77105" lon="3.29719">
        <ele>348.2</ele>
        <time>2024-05-19T07:35:49Z</time>
      </trkpt>
      <trkpt lat="45.77101" lon="3.29724">
        <ele>348.4</ele>
        <time>2024-05-19T07:35:50Z</time>
      </trkpt>
      <trkpt lat="45.77097" lon="3.29729">
        <ele>348.6</ele>
        <time>2024-05-19T07:35:51Z</time>
      </trkpt>
      <trkpt lat="45.77093" lon="3.29734">
        <ele>348.6</ele>
        <time>2024-05-19T07:35:52Z</time>
      </trkpt>
      <trkpt lat="45.77089" lon="3.29739">
        <ele>348.6</ele>
        <time>2024-05-19T07:35:53Z</time>
      </trkpt>
      <trkpt lat="45.77085" lon="3.29744">
        <ele>348.8</ele>
        <time>2024-05-19T07:35:54Z</time>
      </trkpt>
      <trkpt lat="45.77081" lon="3.29749">
        <ele>349</ele>
        <time>2024-05-19T07:35:55Z</time>
      </trkpt>
      <trkpt lat="45.77077" lon="3.29754">
        <ele>349</ele>
        <time>2024-05-19T07:35:56Z</time>
      </trkpt>
      <trkpt lat="45.77073" lon="3.29759">
        <ele>349.2</ele>
        <time>2024-05-19T07:35:57Z</time>
      </trkpt>
      <trkpt lat="45.77069" lon="3.29764">
        <ele>349.2</ele>
        <time>2024-05-19T07:35:58Z</time>
      </trkpt>
      <trkpt lat="45.77065" lon="3.2977">
        <ele>349.4</ele>
        <time>2024-05-19T07:35:59Z</time>
      </trkpt>
      <trkpt lat="45.77061" lon="3.29775">
        <ele>349.4</ele>
        <time>2024-05-19T07:36:00Z</time>
      </trkpt>
      <trkpt lat="45.77057" lon="3.2978">
        <ele>349.6</ele>
        <time>2024-05-19T07:36:01Z</time>
      </trkpt>
      <trkpt lat="45.77052" lon="3.29785">
        <ele>349.6</ele>
        <time>2024-05-19T07:36:02Z</time>
      </trkpt>
      <trkpt lat="45.77048" lon="3.29791">
        <ele>349.8</ele>
        <time>2024-05-19T07:36:03Z</time>
      </trkpt>
      <trkpt lat="45.77044" lon="3.29796">
        <ele>349.8</ele>
        <time>2024-05-19T07:36:04Z</time>
      </trkpt>
      <trkpt lat="45.77039" lon="3.29801">
        <ele>350</ele>
        <time>2024-05-19T07:36:05Z</time>
      </trkpt>
      <trkpt lat="45.77035" lon="3.29806">
        <ele>350.2</ele>
        <time>2024-05-19T07:36:06Z</time>
      </trkpt>
      <trkpt lat="45.77031" lon="3.29811">
        <ele>350.2</ele>
        <time>2024-05-19T07:36:07Z</time>
      </trkpt>
      <trkpt lat="45.77026" lon="3.29816">
        <ele>350.4</ele>
        <time>2024-05-19T07:36:08Z</time>
      </trkpt>
      <trkpt lat="45.77022" lon="3.29822">
        <ele>350.4</ele>
        <time>2024-05-19T07:36:09Z</time>
      </trkpt>
      <trkpt lat="45.77017" lon="3.29827">
        <ele>350.6</ele>
        <time>2024-05-19T07:36:10Z</time>
      </trkpt>
      <trkpt lat="45.77012" lon="3.29833">
        <ele>350.6</ele>
        <time>2024-05-19T07:36:11Z</time>
      </trkpt>
      <trkpt lat="45.77007" lon="3.29838">
        <ele>350.8</ele>
        <time>2024-05-19T07:36:12Z</time>
      </trkpt>
      <trkpt lat="45.77003" lon="3.29844">
        <ele>350.8</ele>
        <time>2024-05-19T07:36:13Z</time>
      </trkpt>
      <trkpt lat="45.76998" lon="3.29849">
        <ele>351</ele>
        <time>2024-05-19T07:36:14Z</time>
      </trkpt>
      <trkpt lat="45.76993" lon="3.29855">
        <ele>351</ele>
        <time>2024-05-19T07:36:15Z</time>
      </trkpt>
      <trkpt lat="45.76989" lon="3.2986">
        <ele>351</ele>
        <time>2024-05-19T07:36:16Z</time>
      </trkpt>
      <trkpt lat="45.76984" lon="3.29865">
        <ele>351.2</ele>
        <time>2024-05-19T07:36:17Z</time>
      </trkpt>
      <trkpt lat="45.76979" lon="3.29871">
        <ele>351.2</ele>
        <time>2024-05-19T07:36:18Z</time>
      </trkpt>
      <trkpt lat="45.76975" lon="3.29876">
        <ele>351.4</ele>
        <time>2024-05-19T07:36:19Z</time>
      </trkpt>
      <trkpt lat="45.7697" lon="3.29882">
        <ele>351.4</ele>
        <time>2024-05-19T07:36:20Z</time>
      </trkpt>
      <trkpt lat="45.76965" lon="3.29888">
        <ele>351.4</ele>
        <time>2024-05-19T07:36:21Z</time>
      </trkpt>
      <trkpt lat="45.7696" lon="3.29893">
        <ele>351.4</ele>
        <time>2024-05-19T07:36:22Z</time>
      </trkpt>
      <trkpt lat="45.76955" lon="3.29899">
        <ele>351.6</ele>
        <time>2024-05-19T07:36:23Z</time>
      </trkpt>
      <trkpt lat="45.7695" lon="3.29905">
        <ele>351.6</ele>
        <time>2024-05-19T07:36:24Z</time>
      </trkpt>
      <trkpt lat="45.76944" lon="3.29911">
        <ele>351.6</ele>
        <time>2024-05-19T07:36:25Z</time>
      </trkpt>
      <trkpt lat="45.76939" lon="3.29917">
        <ele>351.8</ele>
        <time>2024-05-19T07:36:26Z</time>
      </trkpt>
      <trkpt lat="45.76934" lon="3.29923">
        <ele>351.8</ele>
        <time>2024-05-19T07:36:27Z</time>
      </trkpt>
      <trkpt lat="45.76929" lon="3.29929">
        <ele>351.8</ele>
        <time>2024-05-19T07:36:28Z</time>
      </trkpt>
      <trkpt lat="45.76924" lon="3.29935">
        <ele>351.8</ele>
        <time>2024-05-19T07:36:29Z</time>
      </trkpt>
      <trkpt lat="45.76919" lon="3.29941">
        <ele>352</ele>
        <time>2024-05-19T07:36:30Z</time>
      </trkpt>
      <trkpt lat="45.76913" lon="3.29947">
        <ele>352</ele>
        <time>2024-05-19T07:36:31Z</time>
      </trkpt>
      <trkpt lat="45.76908" lon="3.29954">
        <ele>352</ele>
        <time>2024-05-19T07:36:32Z</time>
      </trkpt>
      <trkpt lat="45.76903" lon="3.2996">
        <ele>352</ele>
        <time>2024-05-19T07:36:33Z</time>
      </trkpt>
      <trkpt lat="45.76898" lon="3.29966">
        <ele>352.2</ele>
        <time>2024-05-19T07:36:34Z</time>
      </trkpt>
      <trkpt lat="45.76892" lon="3.29972">
        <ele>352.2</ele>
        <time>2024-05-19T07:36:35Z</time>
      </trkpt>
      <trkpt lat="45.76887" lon="3.29978">
        <ele>352.2</ele>
        <time>2024-05-19T07:36:36Z</time>
      </trkpt>
      <trkpt lat="45.76882" lon="3.29983">
        <ele>352.2</ele>
        <time>2024-05-19T07:36:37Z</time>
      </trkpt>
      <trkpt lat="45.76877" lon="3.29989">
        <ele>352.4</ele>
        <time>2024-05-19T07:36:38Z</time>
      </trkpt>
      <trkpt lat="45.76872" lon="3.29995">
        <ele>352.4</ele>
        <time>2024-05-19T07:36:39Z</time>
      </trkpt>
      <trkpt lat="45.76867" lon="3.30001">
        <ele>352.4</ele>
        <time>2024-05-19T07:36:40Z</time>
      </trkpt>
      <trkpt lat="45.76862" lon="3.30007">
        <ele>352.6</ele>
        <time>2024-05-19T07:36:41Z</time>
      </trkpt>
      <trkpt lat="45.76856" lon="3.30013">
        <ele>352.6</ele>
        <time>2024-05-19T07:36:42Z</time>
      </trkpt>
      <trkpt lat="45.76851" lon="3.3002">
        <ele>352.6</ele>
        <time>2024-05-19T07:36:43Z</time>
      </trkpt>
      <trkpt lat="45.76846" lon="3.30026">
        <ele>352.6</ele>
        <time>2024-05-19T07:36:44Z</time>
      </trkpt>
      <trkpt lat="45.76841" lon="3.30032">
        <ele>352.6</ele>
        <time>2024-05-19T07:36:45Z</time>
      </trkpt>
      <trkpt lat="45.76836" lon="3.30037">
        <ele>352.6</ele>
        <time>2024-05-19T07:36:46Z</time>
      </trkpt>
      <trkpt lat="45.76831" lon="3.30043">
        <ele>352.8</ele>
        <time>2024-05-19T07:36:47Z</time>
      </trkpt>
      <trkpt lat="45.76825" lon="3.30049">
        <ele>353</ele>
        <time>2024-05-19T07:36:48Z</time>
      </trkpt>
      <trkpt lat="45.7682" lon="3.30056">
        <ele>353.2</ele>
        <time>2024-05-19T07:36:49Z</time>
      </trkpt>
      <trkpt lat="45.76814" lon="3.30063">
        <ele>353.2</ele>
        <time>2024-05-19T07:36:50Z</time>
      </trkpt>
      <trkpt lat="45.76808" lon="3.30069">
        <ele>353.4</ele>
        <time>2024-05-19T07:36:51Z</time>
      </trkpt>
      <trkpt lat="45.76803" lon="3.30076">
        <ele>353.4</ele>
        <time>2024-05-19T07:36:52Z</time>
      </trkpt>
      <trkpt lat="45.76798" lon="3.30082">
        <ele>353.4</ele>
        <time>2024-05-19T07:36:53Z</time>
      </trkpt>
      <trkpt lat="45.76792" lon="3.30088">
        <ele>353.4</ele>
        <time>2024-05-19T07:36:54Z</time>
      </trkpt>
      <trkpt lat="45.76787" lon="3.30094">
        <ele>353.4</ele>
        <time>2024-05-19T07:36:55Z</time>
      </trkpt>
      <trkpt lat="45.76782" lon="3.30099">
        <ele>353.4</ele>
        <time>2024-05-19T07:36:56Z</time>
      </trkpt>
      <trkpt lat="45.76777" lon="3.30105">
        <ele>353.4</ele>
        <time>2024-05-19T07:36:57Z</time>
      </trkpt>
      <trkpt lat="45.76772" lon="3.30111">
        <ele>353.4</ele>
        <time>2024-05-19T07:36:58Z</time>
      </trkpt>
      <trkpt lat="45.76767" lon="3.30117">
        <ele>353.4</ele>
        <time>2024-05-19T07:36:59Z</time>
      </trkpt>
      <trkpt lat="45.76763" lon="3.30122">
        <ele>353.6</ele>
        <time>2024-05-19T07:37:00Z</time>
      </trkpt>
      <trkpt lat="45.76758" lon="3.30128">
        <ele>353.6</ele>
        <time>2024-05-19T07:37:01Z</time>
      </trkpt>
      <trkpt lat="45.76753" lon="3.30134">
        <ele>353.6</ele>
        <time>2024-05-19T07:37:02Z</time>
      </trkpt>
      <trkpt lat="45.76748" lon="3.30139">
        <ele>353.6</ele>
        <time>2024-05-19T07:37:03Z</time>
      </trkpt>
      <trkpt lat="45.76743" lon="3.30145">
        <ele>353.6</ele>
        <time>2024-05-19T07:37:04Z</time>
      </trkpt>
      <trkpt lat="45.76738" lon="3.30151">
        <ele>353.6</ele>
        <time>2024-05-19T07:37:05Z</time>
      </trkpt>
      <trkpt lat="45.76733" lon="3.30157">
        <ele>353.6</ele>
        <time>2024-05-19T07:37:06Z</time>
      </trkpt>
      <trkpt lat="45.76728" lon="3.30162">
        <ele>353.8</ele>
        <time>2024-05-19T07:37:07Z</time>
      </trkpt>
      <trkpt lat="45.76723" lon="3.30169">
        <ele>353.8</ele>
        <time>2024-05-19T07:37:08Z</time>
      </trkpt>
      <trkpt lat="45.76718" lon="3.30174">
        <ele>353.8</ele>
        <time>2024-05-19T07:37:09Z</time>
      </trkpt>
      <trkpt lat="45.76713" lon="3.3018">
        <ele>353.8</ele>
        <time>2024-05-19T07:37:10Z</time>
      </trkpt>
      <trkpt lat="45.76707" lon="3.30186">
        <ele>353.8</ele>
        <time>2024-05-19T07:37:11Z</time>
      </trkpt>
      <trkpt lat="45.76702" lon="3.30192">
        <ele>353.8</ele>
        <time>2024-05-19T07:37:12Z</time>
      </trkpt>
      <trkpt lat="45.76697" lon="3.30198">
        <ele>354</ele>
        <time>2024-05-19T07:37:13Z</time>
      </trkpt>
      <trkpt lat="45.76692" lon="3.30204">
        <ele>354</ele>
        <time>2024-05-19T07:37:14Z</time>
      </trkpt>
      <trkpt lat="45.76688" lon="3.30209">
        <ele>354</ele>
        <time>2024-05-19T07:37:15Z</time>
      </trkpt>
      <trkpt lat="45.76682" lon="3.30215">
        <ele>354</ele>
        <time>2024-05-19T07:37:16Z</time>
      </trkpt>
      <trkpt lat="45.76677" lon="3.30221">
        <ele>354</ele>
        <time>2024-05-19T07:37:17Z</time>
      </trkpt>
      <trkpt lat="45.76672" lon="3.30227">
        <ele>354</ele>
        <time>2024-05-19T07:37:18Z</time>
      </trkpt>
      <trkpt lat="45.76667" lon="3.30234">
        <ele>354</ele>
        <time>2024-05-19T07:37:19Z</time>
      </trkpt>
      <trkpt lat="45.76661" lon="3.3024">
        <ele>354.2</ele>
        <time>2024-05-19T07:37:20Z</time>
      </trkpt>
      <trkpt lat="45.76656" lon="3.30246">
        <ele>354.2</ele>
        <time>2024-05-19T07:37:21Z</time>
      </trkpt>
      <trkpt lat="45.76651" lon="3.30252">
        <ele>354.2</ele>
        <time>2024-05-19T07:37:22Z</time>
      </trkpt>
      <trkpt lat="45.76645" lon="3.30258">
        <ele>354.2</ele>
        <time>2024-05-19T07:37:23Z</time>
      </trkpt>
      <trkpt lat="45.76641" lon="3.30264">
        <ele>354.2</ele>
        <time>2024-05-19T07:37:24Z</time>
      </trkpt>
      <trkpt lat="45.76635" lon="3.3027">
        <ele>354.2</ele>
        <time>2024-05-19T07:37:25Z</time>
      </trkpt>
      <trkpt lat="45.7663" lon="3.30276">
        <ele>354.2</ele>
        <time>2024-05-19T07:37:26Z</time>
      </trkpt>
      <trkpt lat="45.76625" lon="3.30282">
        <ele>354.2</ele>
        <time>2024-05-19T07:37:27Z</time>
      </trkpt>
      <trkpt lat="45.76619" lon="3.30289">
        <ele>354.2</ele>
        <time>2024-05-19T07:37:28Z</time>
      </trkpt>
      <trkpt lat="45.76614" lon="3.30295">
        <ele>354.2</ele>
        <time>2024-05-19T07:37:29Z</time>
      </trkpt>
      <trkpt lat="45.76609" lon="3.30301">
        <ele>354.2</ele>
        <time>2024-05-19T07:37:30Z</time>
      </trkpt>
      <trkpt lat="45.76603" lon="3.30307">
        <ele>354.2</ele>
        <time>2024-05-19T07:37:31Z</time>
      </trkpt>
      <trkpt lat="45.76599" lon="3.30313">
        <ele>354.4</ele>
        <time>2024-05-19T07:37:32Z</time>
      </trkpt>
      <trkpt lat="45.76594" lon="3.30319">
        <ele>354.2</ele>
        <time>2024-05-19T07:37:33Z</time>
      </trkpt>
      <trkpt lat="45.76589" lon="3.30324">
        <ele>354.2</ele>
        <time>2024-05-19T07:37:34Z</time>
      </trkpt>
      <trkpt lat="45.76584" lon="3.3033">
        <ele>354.2</ele>
        <time>2024-05-19T07:37:35Z</time>
      </trkpt>
      <trkpt lat="45.76579" lon="3.30336">
        <ele>354.2</ele>
        <time>2024-05-19T07:37:36Z</time>
      </trkpt>
      <trkpt lat="45.76574" lon="3.30341">
        <ele>354.2</ele>
        <time>2024-05-19T07:37:37Z</time>
      </trkpt>
      <trkpt lat="45.76569" lon="3.30347">
        <ele>354.2</ele>
        <time>2024-05-19T07:37:38Z</time>
      </trkpt>
      <trkpt lat="45.76564" lon="3.30353">
        <ele>354.2</ele>
        <time>2024-05-19T07:37:39Z</time>
      </trkpt>
      <trkpt lat="45.76559" lon="3.30359">
        <ele>354.2</ele>
        <time>2024-05-19T07:37:40Z</time>
      </trkpt>
      <trkpt lat="45.76554" lon="3.30365">
        <ele>354.2</ele>
        <time>2024-05-19T07:37:41Z</time>
      </trkpt>
      <trkpt lat="45.76548" lon="3.30371">
        <ele>354.2</ele>
        <time>2024-05-19T07:37:42Z</time>
      </trkpt>
      <trkpt lat="45.76543" lon="3.30377">
        <ele>354.4</ele>
        <time>2024-05-19T07:37:43Z</time>
      </trkpt>
      <trkpt lat="45.76538" lon="3.30384">
        <ele>354.2</ele>
        <time>2024-05-19T07:37:44Z</time>
      </trkpt>
      <trkpt lat="45.76532" lon="3.3039">
        <ele>354</ele>
        <time>2024-05-19T07:37:45Z</time>
      </trkpt>
      <trkpt lat="45.76527" lon="3.30396">
        <ele>354</ele>
        <time>2024-05-19T07:37:46Z</time>
      </trkpt>
      <trkpt lat="45.76521" lon="3.30402">
        <ele>354</ele>
        <time>2024-05-19T07:37:47Z</time>
      </trkpt>
      <trkpt lat="45.76516" lon="3.30409">
        <ele>354</ele>
        <time>2024-05-19T07:37:48Z</time>
      </trkpt>
      <trkpt lat="45.7651" lon="3.30416">
        <ele>354</ele>
        <time>2024-05-19T07:37:49Z</time>
      </trkpt>
      <trkpt lat="45.76504" lon="3.30423">
        <ele>354</ele>
        <time>2024-05-19T07:37:50Z</time>
      </trkpt>
      <trkpt lat="45.76498" lon="3.3043">
        <ele>354</ele>
        <time>2024-05-19T07:37:51Z</time>
      </trkpt>
      <trkpt lat="45.76492" lon="3.30437">
        <ele>353.8</ele>
        <time>2024-05-19T07:37:52Z</time>
      </trkpt>
      <trkpt lat="45.76485" lon="3.30444">
        <ele>353.8</ele>
        <time>2024-05-19T07:37:53Z</time>
      </trkpt>
      <trkpt lat="45.76479" lon="3.30452">
        <ele>353.6</ele>
        <time>2024-05-19T07:37:54Z</time>
      </trkpt>
      <trkpt lat="45.76472" lon="3.30459">
        <ele>353.6</ele>
        <time>2024-05-19T07:37:55Z</time>
      </trkpt>
      <trkpt lat="45.76466" lon="3.30467">
        <ele>353.6</ele>
        <time>2024-05-19T07:37:56Z</time>
      </trkpt>
      <trkpt lat="45.76459" lon="3.30475">
        <ele>353.4</ele>
        <time>2024-05-19T07:37:57Z</time>
      </trkpt>
      <trkpt lat="45.76453" lon="3.30482">
        <ele>353.4</ele>
        <time>2024-05-19T07:37:58Z</time>
      </trkpt>
      <trkpt lat="45.76446" lon="3.3049">
        <ele>353.4</ele>
        <time>2024-05-19T07:37:59Z</time>
      </trkpt>
      <trkpt lat="45.7644" lon="3.30497">
        <ele>353.2</ele>
        <time>2024-05-19T07:38:00Z</time>
      </trkpt>
      <trkpt lat="45.76433" lon="3.30505">
        <ele>353.2</ele>
        <time>2024-05-19T07:38:01Z</time>
      </trkpt>
      <trkpt lat="45.76427" lon="3.30513">
        <ele>353</ele>
        <time>2024-05-19T07:38:02Z</time>
      </trkpt>
      <trkpt lat="45.7642" lon="3.30522">
        <ele>353</ele>
        <time>2024-05-19T07:38:03Z</time>
      </trkpt>
      <trkpt lat="45.76414" lon="3.30529">
        <ele>352.8</ele>
        <time>2024-05-19T07:38:04Z</time>
      </trkpt>
      <trkpt lat="45.76407" lon="3.30537">
        <ele>352.6</ele>
        <time>2024-05-19T07:38:05Z</time>
      </trkpt>
      <trkpt lat="45.764" lon="3.30544">
        <ele>352.6</ele>
        <time>2024-05-19T07:38:06Z</time>
      </trkpt>
      <trkpt lat="45.76394" lon="3.30552">
        <ele>352.4</ele>
        <time>2024-05-19T07:38:07Z</time>
      </trkpt>
      <trkpt lat="45.76388" lon="3.30559">
        <ele>352.4</ele>
        <time>2024-05-19T07:38:08Z</time>
      </trkpt>
      <trkpt lat="45.76382" lon="3.30566">
        <ele>352.4</ele>
        <time>2024-05-19T07:38:09Z</time>
      </trkpt>
      <trkpt lat="45.76376" lon="3.30573">
        <ele>352.4</ele>
        <time>2024-05-19T07:38:10Z</time>
      </trkpt>
      <trkpt lat="45.7637" lon="3.3058">
        <ele>352.2</ele>
        <time>2024-05-19T07:38:11Z</time>
      </trkpt>
      <trkpt lat="45.76365" lon="3.30588">
        <ele>352.2</ele>
        <time>2024-05-19T07:38:12Z</time>
      </trkpt>
      <trkpt lat="45.76359" lon="3.30596">
        <ele>352</ele>
        <time>2024-05-19T07:38:13Z</time>
      </trkpt>
      <trkpt lat="45.76354" lon="3.30604">
        <ele>352</ele>
        <time>2024-05-19T07:38:14Z</time>
      </trkpt>
      <trkpt lat="45.76349" lon="3.30612">
        <ele>352</ele>
        <time>2024-05-19T07:38:15Z</time>
      </trkpt>
      <trkpt lat="45.76344" lon="3.3062">
        <ele>352</ele>
        <time>2024-05-19T07:38:16Z</time>
      </trkpt>
      <trkpt lat="45.76339" lon="3.30628">
        <ele>351.8</ele>
        <time>2024-05-19T07:38:17Z</time>
      </trkpt>
      <trkpt lat="45.76334" lon="3.30636">
        <ele>351.8</ele>
        <time>2024-05-19T07:38:18Z</time>
      </trkpt>
      <trkpt lat="45.76329" lon="3.30643">
        <ele>351.8</ele>
        <time>2024-05-19T07:38:19Z</time>
      </trkpt>
      <trkpt lat="45.76325" lon="3.3065">
        <ele>351.6</ele>
        <time>2024-05-19T07:38:20Z</time>
      </trkpt>
      <trkpt lat="45.7632" lon="3.30658">
        <ele>351.6</ele>
        <time>2024-05-19T07:38:21Z</time>
      </trkpt>
      <trkpt lat="45.76315" lon="3.30665">
        <ele>351.6</ele>
        <time>2024-05-19T07:38:22Z</time>
      </trkpt>
      <trkpt lat="45.76311" lon="3.30672">
        <ele>351.4</ele>
        <time>2024-05-19T07:38:23Z</time>
      </trkpt>
      <trkpt lat="45.76306" lon="3.30679">
        <ele>351.4</ele>
        <time>2024-05-19T07:38:24Z</time>
      </trkpt>
      <trkpt lat="45.76301" lon="3.30687">
        <ele>351.4</ele>
        <time>2024-05-19T07:38:25Z</time>
      </trkpt>
      <trkpt lat="45.76295" lon="3.30691">
        <ele>351.2</ele>
        <time>2024-05-19T07:38:26Z</time>
      </trkpt>
      <trkpt lat="45.7629" lon="3.30696">
        <ele>351.2</ele>
        <time>2024-05-19T07:38:27Z</time>
      </trkpt>
      <trkpt lat="45.76284" lon="3.307">
        <ele>351.2</ele>
        <time>2024-05-19T07:38:28Z</time>
      </trkpt>
      <trkpt lat="45.76279" lon="3.30705">
        <ele>351.2</ele>
        <time>2024-05-19T07:38:29Z</time>
      </trkpt>
      <trkpt lat="45.76274" lon="3.30709">
        <ele>351</ele>
        <time>2024-05-19T07:38:30Z</time>
      </trkpt>
      <trkpt lat="45.76268" lon="3.30711">
        <ele>351</ele>
        <time>2024-05-19T07:38:31Z</time>
      </trkpt>
      <trkpt lat="45.76262" lon="3.30717">
        <ele>351</ele>
        <time>2024-05-19T07:38:32Z</time>
      </trkpt>
      <trkpt lat="45.76261" lon="3.30725">
        <ele>351</ele>
        <time>2024-05-19T07:38:33Z</time>
      </trkpt>
      <trkpt lat="45.76257" lon="3.30733">
        <ele>351</ele>
        <time>2024-05-19T07:38:34Z</time>
      </trkpt>
      <trkpt lat="45.76253" lon="3.3074">
        <ele>351</ele>
        <time>2024-05-19T07:38:35Z</time>
      </trkpt>
      <trkpt lat="45.76248" lon="3.30746">
        <ele>351</ele>
        <time>2024-05-19T07:38:36Z</time>
      </trkpt>
      <trkpt lat="45.76243" lon="3.30753">
        <ele>351</ele>
        <time>2024-05-19T07:38:37Z</time>
      </trkpt>
      <trkpt lat="45.76237" lon="3.30759">
        <ele>350.8</ele>
        <time>2024-05-19T07:38:38Z</time>
      </trkpt>
      <trkpt lat="45.76231" lon="3.30764">
        <ele>350.8</ele>
        <time>2024-05-19T07:38:39Z</time>
      </trkpt>
      <trkpt lat="45.76226" lon="3.30769">
        <ele>350.8</ele>
        <time>2024-05-19T07:38:40Z</time>
      </trkpt>
      <trkpt lat="45.7622" lon="3.30775">
        <ele>350.6</ele>
        <time>2024-05-19T07:38:41Z</time>
      </trkpt>
      <trkpt lat="45.76214" lon="3.3078">
        <ele>350.6</ele>
        <time>2024-05-19T07:38:42Z</time>
      </trkpt>
      <trkpt lat="45.76208" lon="3.30785">
        <ele>350.6</ele>
        <time>2024-05-19T07:38:43Z</time>
      </trkpt>
      <trkpt lat="45.76202" lon="3.30791">
        <ele>350.4</ele>
        <time>2024-05-19T07:38:44Z</time>
      </trkpt>
      <trkpt lat="45.76195" lon="3.30796">
        <ele>350.4</ele>
        <time>2024-05-19T07:38:45Z</time>
      </trkpt>
      <trkpt lat="45.76189" lon="3.30802">
        <ele>350.4</ele>
        <time>2024-05-19T07:38:46Z</time>
      </trkpt>
      <trkpt lat="45.76183" lon="3.30807">
        <ele>350.2</ele>
        <time>2024-05-19T07:38:47Z</time>
      </trkpt>
      <trkpt lat="45.76177" lon="3.30813">
        <ele>350.2</ele>
        <time>2024-05-19T07:38:48Z</time>
      </trkpt>
      <trkpt lat="45.76171" lon="3.30818">
        <ele>350.2</ele>
        <time>2024-05-19T07:38:49Z</time>
      </trkpt>
      <trkpt lat="45.76165" lon="3.30823">
        <ele>350</ele>
        <time>2024-05-19T07:38:50Z</time>
      </trkpt>
      <trkpt lat="45.76159" lon="3.30829">
        <ele>350</ele>
        <time>2024-05-19T07:38:51Z</time>
      </trkpt>
      <trkpt lat="45.76153" lon="3.30834">
        <ele>350</ele>
        <time>2024-05-19T07:38:52Z</time>
      </trkpt>
      <trkpt lat="45.76148" lon="3.30839">
        <ele>350</ele>
        <time>2024-05-19T07:38:53Z</time>
      </trkpt>
      <trkpt lat="45.76142" lon="3.30844">
        <ele>349.8</ele>
        <time>2024-05-19T07:38:54Z</time>
      </trkpt>
      <trkpt lat="45.76136" lon="3.30849">
        <ele>349.8</ele>
        <time>2024-05-19T07:38:55Z</time>
      </trkpt>
      <trkpt lat="45.7613" lon="3.30856">
        <ele>349.6</ele>
        <time>2024-05-19T07:38:56Z</time>
      </trkpt>
      <trkpt lat="45.76125" lon="3.30863">
        <ele>349.6</ele>
        <time>2024-05-19T07:38:57Z</time>
      </trkpt>
      <trkpt lat="45.76119" lon="3.30869">
        <ele>349.6</ele>
        <time>2024-05-19T07:38:58Z</time>
      </trkpt>
      <trkpt lat="45.76113" lon="3.30876">
        <ele>349.6</ele>
        <time>2024-05-19T07:38:59Z</time>
      </trkpt>
      <trkpt lat="45.76108" lon="3.30883">
        <ele>349.4</ele>
        <time>2024-05-19T07:39:00Z</time>
      </trkpt>
      <trkpt lat="45.76102" lon="3.3089">
        <ele>349.4</ele>
        <time>2024-05-19T07:39:01Z</time>
      </trkpt>
      <trkpt lat="45.76095" lon="3.30897">
        <ele>349.2</ele>
        <time>2024-05-19T07:39:02Z</time>
      </trkpt>
      <trkpt lat="45.7609" lon="3.30904">
        <ele>349</ele>
        <time>2024-05-19T07:39:03Z</time>
      </trkpt>
      <trkpt lat="45.76084" lon="3.30911">
        <ele>349</ele>
        <time>2024-05-19T07:39:04Z</time>
      </trkpt>
      <trkpt lat="45.76077" lon="3.30918">
        <ele>348.8</ele>
        <time>2024-05-19T07:39:05Z</time>
      </trkpt>
      <trkpt lat="45.76072" lon="3.30925">
        <ele>348.8</ele>
        <time>2024-05-19T07:39:06Z</time>
      </trkpt>
      <trkpt lat="45.76066" lon="3.30932">
        <ele>348.6</ele>
        <time>2024-05-19T07:39:07Z</time>
      </trkpt>
      <trkpt lat="45.76059" lon="3.30939">
        <ele>348.6</ele>
        <time>2024-05-19T07:39:08Z</time>
      </trkpt>
      <trkpt lat="45.76053" lon="3.30946">
        <ele>348.4</ele>
        <time>2024-05-19T07:39:09Z</time>
      </trkpt>
      <trkpt lat="45.76047" lon="3.30954">
        <ele>348.2</ele>
        <time>2024-05-19T07:39:10Z</time>
      </trkpt>
      <trkpt lat="45.76041" lon="3.30961">
        <ele>348.2</ele>
        <time>2024-05-19T07:39:11Z</time>
      </trkpt>
      <trkpt lat="45.76034" lon="3.30969">
        <ele>348</ele>
        <time>2024-05-19T07:39:12Z</time>
      </trkpt>
      <trkpt lat="45.76028" lon="3.30976">
        <ele>347.8</ele>
        <time>2024-05-19T07:39:13Z</time>
      </trkpt>
      <trkpt lat="45.76021" lon="3.30984">
        <ele>347.8</ele>
        <time>2024-05-19T07:39:14Z</time>
      </trkpt>
      <trkpt lat="45.76015" lon="3.30991">
        <ele>347.6</ele>
        <time>2024-05-19T07:39:15Z</time>
      </trkpt>
      <trkpt lat="45.76009" lon="3.30999">
        <ele>347.4</ele>
        <time>2024-05-19T07:39:16Z</time>
      </trkpt>
      <trkpt lat="45.76002" lon="3.31006">
        <ele>347.4</ele>
        <time>2024-05-19T07:39:17Z</time>
      </trkpt>
      <trkpt lat="45.75996" lon="3.31013">
        <ele>347.4</ele>
        <time>2024-05-19T07:39:18Z</time>
      </trkpt>
      <trkpt lat="45.7599" lon="3.31021">
        <ele>347.2</ele>
        <time>2024-05-19T07:39:19Z</time>
      </trkpt>
      <trkpt lat="45.75984" lon="3.31028">
        <ele>347</ele>
        <time>2024-05-19T07:39:20Z</time>
      </trkpt>
      <trkpt lat="45.75978" lon="3.31035">
        <ele>347</ele>
        <time>2024-05-19T07:39:21Z</time>
      </trkpt>
      <trkpt lat="45.75972" lon="3.31042">
        <ele>347</ele>
        <time>2024-05-19T07:39:22Z</time>
      </trkpt>
      <trkpt lat="45.75966" lon="3.31048">
        <ele>347</ele>
        <time>2024-05-19T07:39:23Z</time>
      </trkpt>
      <trkpt lat="45.75961" lon="3.31055">
        <ele>346.8</ele>
        <time>2024-05-19T07:39:24Z</time>
      </trkpt>
      <trkpt lat="45.75955" lon="3.31062">
        <ele>346.8</ele>
        <time>2024-05-19T07:39:25Z</time>
      </trkpt>
      <trkpt lat="45.75949" lon="3.31068">
        <ele>346.8</ele>
        <time>2024-05-19T07:39:26Z</time>
      </trkpt>
      <trkpt lat="45.75944" lon="3.31075">
        <ele>346.6</ele>
        <time>2024-05-19T07:39:27Z</time>
      </trkpt>
      <trkpt lat="45.75938" lon="3.31082">
        <ele>346.6</ele>
        <time>2024-05-19T07:39:28Z</time>
      </trkpt>
      <trkpt lat="45.75932" lon="3.31088">
        <ele>346.6</ele>
        <time>2024-05-19T07:39:29Z</time>
      </trkpt>
      <trkpt lat="45.75927" lon="3.31095">
        <ele>346.6</ele>
        <time>2024-05-19T07:39:30Z</time>
      </trkpt>
      <trkpt lat="45.75921" lon="3.31101">
        <ele>346.4</ele>
        <time>2024-05-19T07:39:31Z</time>
      </trkpt>
      <trkpt lat="45.75916" lon="3.31107">
        <ele>346.4</ele>
        <time>2024-05-19T07:39:32Z</time>
      </trkpt>
      <trkpt lat="45.75911" lon="3.31114">
        <ele>346.2</ele>
        <time>2024-05-19T07:39:33Z</time>
      </trkpt>
      <trkpt lat="45.75905" lon="3.3112">
        <ele>346.2</ele>
        <time>2024-05-19T07:39:34Z</time>
      </trkpt>
      <trkpt lat="45.759" lon="3.31126">
        <ele>346.2</ele>
        <time>2024-05-19T07:39:35Z</time>
      </trkpt>
      <trkpt lat="45.75895" lon="3.31132">
        <ele>346.2</ele>
        <time>2024-05-19T07:39:36Z</time>
      </trkpt>
      <trkpt lat="45.7589" lon="3.31138">
        <ele>346</ele>
        <time>2024-05-19T07:39:37Z</time>
      </trkpt>
      <trkpt lat="45.75885" lon="3.31144">
        <ele>346</ele>
        <time>2024-05-19T07:39:38Z</time>
      </trkpt>
      <trkpt lat="45.75879" lon="3.3115">
        <ele>346</ele>
        <time>2024-05-19T07:39:39Z</time>
      </trkpt>
      <trkpt lat="45.75874" lon="3.31156">
        <ele>346</ele>
        <time>2024-05-19T07:39:40Z</time>
      </trkpt>
      <trkpt lat="45.75869" lon="3.31162">
        <ele>345.8</ele>
        <time>2024-05-19T07:39:41Z</time>
      </trkpt>
      <trkpt lat="45.75864" lon="3.31169">
        <ele>345.8</ele>
        <time>2024-05-19T07:39:42Z</time>
      </trkpt>
      <trkpt lat="45.75858" lon="3.31175">
        <ele>345.8</ele>
        <time>2024-05-19T07:39:43Z</time>
      </trkpt>
      <trkpt lat="45.75853" lon="3.31181">
        <ele>345.8</ele>
        <time>2024-05-19T07:39:44Z</time>
      </trkpt>
      <trkpt lat="45.75848" lon="3.31187">
        <ele>345.8</ele>
        <time>2024-05-19T07:39:45Z</time>
      </trkpt>
      <trkpt lat="45.75843" lon="3.31193">
        <ele>345.6</ele>
        <time>2024-05-19T07:39:46Z</time>
      </trkpt>
      <trkpt lat="45.75838" lon="3.31199">
        <ele>345.6</ele>
        <time>2024-05-19T07:39:47Z</time>
      </trkpt>
      <trkpt lat="45.75833" lon="3.31205">
        <ele>345.6</ele>
        <time>2024-05-19T07:39:48Z</time>
      </trkpt>
      <trkpt lat="45.75827" lon="3.31211">
        <ele>345.6</ele>
        <time>2024-05-19T07:39:49Z</time>
      </trkpt>
      <trkpt lat="45.75822" lon="3.31217">
        <ele>345.6</ele>
        <time>2024-05-19T07:39:50Z</time>
      </trkpt>
      <trkpt lat="45.75817" lon="3.31223">
        <ele>345.4</ele>
        <time>2024-05-19T07:39:51Z</time>
      </trkpt>
      <trkpt lat="45.75812" lon="3.31228">
        <ele>345.4</ele>
        <time>2024-05-19T07:39:52Z</time>
      </trkpt>
      <trkpt lat="45.75807" lon="3.31234">
        <ele>345.4</ele>
        <time>2024-05-19T07:39:53Z</time>
      </trkpt>
      <trkpt lat="45.75802" lon="3.3124">
        <ele>345.4</ele>
        <time>2024-05-19T07:39:54Z</time>
      </trkpt>
      <trkpt lat="45.75797" lon="3.31246">
        <ele>345.4</ele>
        <time>2024-05-19T07:39:55Z</time>
      </trkpt>
      <trkpt lat="45.75792" lon="3.31252">
        <ele>345.4</ele>
        <time>2024-05-19T07:39:56Z</time>
      </trkpt>
      <trkpt lat="45.75787" lon="3.31258">
        <ele>345.2</ele>
        <time>2024-05-19T07:39:57Z</time>
      </trkpt>
      <trkpt lat="45.75782" lon="3.31264">
        <ele>345.2</ele>
        <time>2024-05-19T07:39:58Z</time>
      </trkpt>
      <trkpt lat="45.75777" lon="3.3127">
        <ele>345.2</ele>
        <time>2024-05-19T07:39:59Z</time>
      </trkpt>
      <trkpt lat="45.75772" lon="3.31276">
        <ele>345.2</ele>
        <time>2024-05-19T07:40:00Z</time>
      </trkpt>
      <trkpt lat="45.75766" lon="3.31283">
        <ele>345.2</ele>
        <time>2024-05-19T07:40:01Z</time>
      </trkpt>
      <trkpt lat="45.75761" lon="3.31289">
        <ele>345.2</ele>
        <time>2024-05-19T07:40:02Z</time>
      </trkpt>
      <trkpt lat="45.75756" lon="3.31295">
        <ele>345</ele>
        <time>2024-05-19T07:40:03Z</time>
      </trkpt>
      <trkpt lat="45.75751" lon="3.31301">
        <ele>345</ele>
        <time>2024-05-19T07:40:04Z</time>
      </trkpt>
      <trkpt lat="45.75745" lon="3.31307">
        <ele>345.2</ele>
        <time>2024-05-19T07:40:05Z</time>
      </trkpt>
      <trkpt lat="45.7574" lon="3.31313">
        <ele>345</ele>
        <time>2024-05-19T07:40:06Z</time>
      </trkpt>
      <trkpt lat="45.75735" lon="3.31319">
        <ele>345</ele>
        <time>2024-05-19T07:40:07Z</time>
      </trkpt>
      <trkpt lat="45.7573" lon="3.31325">
        <ele>345</ele>
        <time>2024-05-19T07:40:08Z</time>
      </trkpt>
      <trkpt lat="45.75725" lon="3.31331">
        <ele>345</ele>
        <time>2024-05-19T07:40:09Z</time>
      </trkpt>
      <trkpt lat="45.7572" lon="3.31337">
        <ele>345</ele>
        <time>2024-05-19T07:40:10Z</time>
      </trkpt>
      <trkpt lat="45.75715" lon="3.31342">
        <ele>345</ele>
        <time>2024-05-19T07:40:11Z</time>
      </trkpt>
      <trkpt lat="45.7571" lon="3.31349">
        <ele>344.8</ele>
        <time>2024-05-19T07:40:12Z</time>
      </trkpt>
      <trkpt lat="45.75705" lon="3.31354">
        <ele>344.8</ele>
        <time>2024-05-19T07:40:13Z</time>
      </trkpt>
      <trkpt lat="45.75699" lon="3.3136">
        <ele>344.8</ele>
        <time>2024-05-19T07:40:14Z</time>
      </trkpt>
      <trkpt lat="45.75694" lon="3.31366">
        <ele>344.8</ele>
        <time>2024-05-19T07:40:15Z</time>
      </trkpt>
      <trkpt lat="45.75689" lon="3.31372">
        <ele>344.8</ele>
        <time>2024-05-19T07:40:16Z</time>
      </trkpt>
      <trkpt lat="45.75684" lon="3.31378">
        <ele>345</ele>
        <time>2024-05-19T07:40:17Z</time>
      </trkpt>
      <trkpt lat="45.75679" lon="3.31384">
        <ele>344.8</ele>
        <time>2024-05-19T07:40:18Z</time>
      </trkpt>
      <trkpt lat="45.75674" lon="3.3139">
        <ele>344.8</ele>
        <time>2024-05-19T07:40:19Z</time>
      </trkpt>
      <trkpt lat="45.75669" lon="3.31396">
        <ele>345</ele>
        <time>2024-05-19T07:40:20Z</time>
      </trkpt>
      <trkpt lat="45.75664" lon="3.31402">
        <ele>345</ele>
        <time>2024-05-19T07:40:21Z</time>
      </trkpt>
      <trkpt lat="45.75659" lon="3.31407">
        <ele>345</ele>
        <time>2024-05-19T07:40:22Z</time>
      </trkpt>
      <trkpt lat="45.75654" lon="3.31413">
        <ele>345</ele>
        <time>2024-05-19T07:40:23Z</time>
      </trkpt>
      <trkpt lat="45.75649" lon="3.31419">
        <ele>345</ele>
        <time>2024-05-19T07:40:24Z</time>
      </trkpt>
      <trkpt lat="45.75644" lon="3.31425">
        <ele>345</ele>
        <time>2024-05-19T07:40:25Z</time>
      </trkpt>
      <trkpt lat="45.75639" lon="3.31431">
        <ele>345</ele>
        <time>2024-05-19T07:40:26Z</time>
      </trkpt>
      <trkpt lat="45.75634" lon="3.31436">
        <ele>345</ele>
        <time>2024-05-19T07:40:27Z</time>
      </trkpt>
      <trkpt lat="45.75629" lon="3.31442">
        <ele>344.8</ele>
        <time>2024-05-19T07:40:28Z</time>
      </trkpt>
      <trkpt lat="45.75624" lon="3.31448">
        <ele>344.8</ele>
        <time>2024-05-19T07:40:29Z</time>
      </trkpt>
      <trkpt lat="45.75619" lon="3.31454">
        <ele>345</ele>
        <time>2024-05-19T07:40:30Z</time>
      </trkpt>
      <trkpt lat="45.75614" lon="3.3146">
        <ele>345</ele>
        <time>2024-05-19T07:40:31Z</time>
      </trkpt>
      <trkpt lat="45.75609" lon="3.31466">
        <ele>344.8</ele>
        <time>2024-05-19T07:40:32Z</time>
      </trkpt>
      <trkpt lat="45.75603" lon="3.31472">
        <ele>344.8</ele>
        <time>2024-05-19T07:40:33Z</time>
      </trkpt>
      <trkpt lat="45.75598" lon="3.31478">
        <ele>344.8</ele>
        <time>2024-05-19T07:40:34Z</time>
      </trkpt>
      <trkpt lat="45.75593" lon="3.31483">
        <ele>344.8</ele>
        <time>2024-05-19T07:40:35Z</time>
      </trkpt>
      <trkpt lat="45.75588" lon="3.31489">
        <ele>344.8</ele>
        <time>2024-05-19T07:40:36Z</time>
      </trkpt>
      <trkpt lat="45.75583" lon="3.31495">
        <ele>344.8</ele>
        <time>2024-05-19T07:40:37Z</time>
      </trkpt>
      <trkpt lat="45.75578" lon="3.31501">
        <ele>344.8</ele>
        <time>2024-05-19T07:40:38Z</time>
      </trkpt>
      <trkpt lat="45.75573" lon="3.31507">
        <ele>344.8</ele>
        <time>2024-05-19T07:40:39Z</time>
      </trkpt>
      <trkpt lat="45.75567" lon="3.31513">
        <ele>344.8</ele>
        <time>2024-05-19T07:40:40Z</time>
      </trkpt>
      <trkpt lat="45.75562" lon="3.31519">
        <ele>344.8</ele>
        <time>2024-05-19T07:40:41Z</time>
      </trkpt>
      <trkpt lat="45.75557" lon="3.31525">
        <ele>344.8</ele>
        <time>2024-05-19T07:40:42Z</time>
      </trkpt>
      <trkpt lat="45.75552" lon="3.31532">
        <ele>345</ele>
        <time>2024-05-19T07:40:43Z</time>
      </trkpt>
      <trkpt lat="45.75546" lon="3.31538">
        <ele>345</ele>
        <time>2024-05-19T07:40:44Z</time>
      </trkpt>
      <trkpt lat="45.75541" lon="3.31544">
        <ele>344.8</ele>
        <time>2024-05-19T07:40:45Z</time>
      </trkpt>
      <trkpt lat="45.75536" lon="3.3155">
        <ele>344.8</ele>
        <time>2024-05-19T07:40:46Z</time>
      </trkpt>
      <trkpt lat="45.7553" lon="3.31556">
        <ele>345</ele>
        <time>2024-05-19T07:40:47Z</time>
      </trkpt>
      <trkpt lat="45.75525" lon="3.31563">
        <ele>344.8</ele>
        <time>2024-05-19T07:40:48Z</time>
      </trkpt>
      <trkpt lat="45.75519" lon="3.31569">
        <ele>344.8</ele>
        <time>2024-05-19T07:40:49Z</time>
      </trkpt>
      <trkpt lat="45.75514" lon="3.31575">
        <ele>344.8</ele>
        <time>2024-05-19T07:40:50Z</time>
      </trkpt>
      <trkpt lat="45.75508" lon="3.31582">
        <ele>344.8</ele>
        <time>2024-05-19T07:40:51Z</time>
      </trkpt>
      <trkpt lat="45.75503" lon="3.31588">
        <ele>344.8</ele>
        <time>2024-05-19T07:40:52Z</time>
      </trkpt>
      <trkpt lat="45.75497" lon="3.31595">
        <ele>344.8</ele>
        <time>2024-05-19T07:40:53Z</time>
      </trkpt>
      <trkpt lat="45.75491" lon="3.31602">
        <ele>344.6</ele>
        <time>2024-05-19T07:40:54Z</time>
      </trkpt>
      <trkpt lat="45.75485" lon="3.31609">
        <ele>344.6</ele>
        <time>2024-05-19T07:40:55Z</time>
      </trkpt>
      <trkpt lat="45.75479" lon="3.31616">
        <ele>344.6</ele>
        <time>2024-05-19T07:40:56Z</time>
      </trkpt>
      <trkpt lat="45.75473" lon="3.31623">
        <ele>344.4</ele>
        <time>2024-05-19T07:40:57Z</time>
      </trkpt>
      <trkpt lat="45.75467" lon="3.3163">
        <ele>344.4</ele>
        <time>2024-05-19T07:40:58Z</time>
      </trkpt>
      <trkpt lat="45.7546" lon="3.31638">
        <ele>344.2</ele>
        <time>2024-05-19T07:40:59Z</time>
      </trkpt>
      <trkpt lat="45.75454" lon="3.31645">
        <ele>344.2</ele>
        <time>2024-05-19T07:41:00Z</time>
      </trkpt>
      <trkpt lat="45.75448" lon="3.31652">
        <ele>344</ele>
        <time>2024-05-19T07:41:01Z</time>
      </trkpt>
      <trkpt lat="45.75442" lon="3.31659">
        <ele>344</ele>
        <time>2024-05-19T07:41:02Z</time>
      </trkpt>
      <trkpt lat="45.75435" lon="3.31666">
        <ele>344</ele>
        <time>2024-05-19T07:41:03Z</time>
      </trkpt>
      <trkpt lat="45.75429" lon="3.31674">
        <ele>343.8</ele>
        <time>2024-05-19T07:41:04Z</time>
      </trkpt>
      <trkpt lat="45.75423" lon="3.31681">
        <ele>343.8</ele>
        <time>2024-05-19T07:41:05Z</time>
      </trkpt>
      <trkpt lat="45.75417" lon="3.31688">
        <ele>343.6</ele>
        <time>2024-05-19T07:41:06Z</time>
      </trkpt>
      <trkpt lat="45.75411" lon="3.31695">
        <ele>343.6</ele>
        <time>2024-05-19T07:41:07Z</time>
      </trkpt>
      <trkpt lat="45.75405" lon="3.31702">
        <ele>343.6</ele>
        <time>2024-05-19T07:41:08Z</time>
      </trkpt>
      <trkpt lat="45.75398" lon="3.31709">
        <ele>343.4</ele>
        <time>2024-05-19T07:41:09Z</time>
      </trkpt>
      <trkpt lat="45.75392" lon="3.31716">
        <ele>343.4</ele>
        <time>2024-05-19T07:41:10Z</time>
      </trkpt>
      <trkpt lat="45.75387" lon="3.31723">
        <ele>343.4</ele>
        <time>2024-05-19T07:41:11Z</time>
      </trkpt>
      <trkpt lat="45.75381" lon="3.3173">
        <ele>343.4</ele>
        <time>2024-05-19T07:41:12Z</time>
      </trkpt>
      <trkpt lat="45.75375" lon="3.31736">
        <ele>343.2</ele>
        <time>2024-05-19T07:41:13Z</time>
      </trkpt>
      <trkpt lat="45.75369" lon="3.31743">
        <ele>343.2</ele>
        <time>2024-05-19T07:41:14Z</time>
      </trkpt>
      <trkpt lat="45.75364" lon="3.31749">
        <ele>343.4</ele>
        <time>2024-05-19T07:41:15Z</time>
      </trkpt>
      <trkpt lat="45.75358" lon="3.31756">
        <ele>343.4</ele>
        <time>2024-05-19T07:41:16Z</time>
      </trkpt>
      <trkpt lat="45.75353" lon="3.31762">
        <ele>343.2</ele>
        <time>2024-05-19T07:41:17Z</time>
      </trkpt>
      <trkpt lat="45.75348" lon="3.31768">
        <ele>343.2</ele>
        <time>2024-05-19T07:41:18Z</time>
      </trkpt>
      <trkpt lat="45.75342" lon="3.31775">
        <ele>343.2</ele>
        <time>2024-05-19T07:41:19Z</time>
      </trkpt>
      <trkpt lat="45.75337" lon="3.31781">
        <ele>343.2</ele>
        <time>2024-05-19T07:41:20Z</time>
      </trkpt>
      <trkpt lat="45.75332" lon="3.31787">
        <ele>343.2</ele>
        <time>2024-05-19T07:41:21Z</time>
      </trkpt>
      <trkpt lat="45.75327" lon="3.31792">
        <ele>343.2</ele>
        <time>2024-05-19T07:41:22Z</time>
      </trkpt>
      <trkpt lat="45.75323" lon="3.31797">
        <ele>343.2</ele>
        <time>2024-05-19T07:41:23Z</time>
      </trkpt>
      <trkpt lat="45.75314" lon="3.31793">
        <ele>343.2</ele>
        <time>2024-05-19T07:41:24Z</time>
      </trkpt>
      <trkpt lat="45.75308" lon="3.3179">
        <ele>343.2</ele>
        <time>2024-05-19T07:41:25Z</time>
      </trkpt>
      <trkpt lat="45.75303" lon="3.31787">
        <ele>343.2</ele>
        <time>2024-05-19T07:41:26Z</time>
      </trkpt>
      <trkpt lat="45.75298" lon="3.31785">
        <ele>343.4</ele>
        <time>2024-05-19T07:41:27Z</time>
      </trkpt>
      <trkpt lat="45.75293" lon="3.31777">
        <ele>343.4</ele>
        <time>2024-05-19T07:41:28Z</time>
      </trkpt>
      <trkpt lat="45.75291" lon="3.3177">
        <ele>343.4</ele>
        <time>2024-05-19T07:41:29Z</time>
      </trkpt>
      <trkpt lat="45.75289" lon="3.31762">
        <ele>342.8</ele>
        <time>2024-05-19T07:41:30Z</time>
      </trkpt>
      <trkpt lat="45.75287" lon="3.31754">
        <ele>343.2</ele>
        <time>2024-05-19T07:41:31Z</time>
      </trkpt>
      <trkpt lat="45.75285" lon="3.31746">
        <ele>343.6</ele>
        <time>2024-05-19T07:41:32Z</time>
      </trkpt>
      <trkpt lat="45.75282" lon="3.31738">
        <ele>343.8</ele>
        <time>2024-05-19T07:41:33Z</time>
      </trkpt>
      <trkpt lat="45.7528" lon="3.31731">
        <ele>343.6</ele>
        <time>2024-05-19T07:41:34Z</time>
      </trkpt>
      <trkpt lat="45.75278" lon="3.31723">
        <ele>343.6</ele>
        <time>2024-05-19T07:41:35Z</time>
      </trkpt>
      <trkpt lat="45.75276" lon="3.31716">
        <ele>343.8</ele>
        <time>2024-05-19T07:41:36Z</time>
      </trkpt>
      <trkpt lat="45.75274" lon="3.31708">
        <ele>343.8</ele>
        <time>2024-05-19T07:41:37Z</time>
      </trkpt>
      <trkpt lat="45.75272" lon="3.31701">
        <ele>344</ele>
        <time>2024-05-19T07:41:38Z</time>
      </trkpt>
      <trkpt lat="45.7527" lon="3.31694">
        <ele>344</ele>
        <time>2024-05-19T07:41:39Z</time>
      </trkpt>
      <trkpt lat="45.75268" lon="3.31687">
        <ele>344.2</ele>
        <time>2024-05-19T07:41:40Z</time>
      </trkpt>
      <trkpt lat="45.75266" lon="3.3168">
        <ele>344.2</ele>
        <time>2024-05-19T07:41:41Z</time>
      </trkpt>
      <trkpt lat="45.75264" lon="3.31673">
        <ele>344.2</ele>
        <time>2024-05-19T07:41:42Z</time>
      </trkpt>
      <trkpt lat="45.75262" lon="3.31667">
        <ele>344.4</ele>
        <time>2024-05-19T07:41:43Z</time>
      </trkpt>
      <trkpt lat="45.7526" lon="3.3166">
        <ele>344.4</ele>
        <time>2024-05-19T07:41:44Z</time>
      </trkpt>
      <trkpt lat="45.75258" lon="3.31653">
        <ele>344.6</ele>
        <time>2024-05-19T07:41:45Z</time>
      </trkpt>
      <trkpt lat="45.75256" lon="3.31647">
        <ele>344.6</ele>
        <time>2024-05-19T07:41:46Z</time>
      </trkpt>
      <trkpt lat="45.75255" lon="3.3164">
        <ele>344.8</ele>
        <time>2024-05-19T07:41:47Z</time>
      </trkpt>
      <trkpt lat="45.75253" lon="3.31634">
        <ele>344.8</ele>
        <time>2024-05-19T07:41:48Z</time>
      </trkpt>
      <trkpt lat="45.75251" lon="3.31628">
        <ele>344.8</ele>
        <time>2024-05-19T07:41:49Z</time>
      </trkpt>
      <trkpt lat="45.75249" lon="3.31623">
        <ele>345</ele>
        <time>2024-05-19T07:41:50Z</time>
      </trkpt>
      <trkpt lat="45.75248" lon="3.31617">
        <ele>345</ele>
        <time>2024-05-19T07:41:51Z</time>
      </trkpt>
      <trkpt lat="45.75246" lon="3.31611">
        <ele>345.2</ele>
        <time>2024-05-19T07:41:52Z</time>
      </trkpt>
      <trkpt lat="45.75244" lon="3.31605">
        <ele>345.2</ele>
        <time>2024-05-19T07:41:53Z</time>
      </trkpt>
      <trkpt lat="45.75243" lon="3.31599">
        <ele>345.2</ele>
        <time>2024-05-19T07:41:54Z</time>
      </trkpt>
      <trkpt lat="45.75241" lon="3.31593">
        <ele>345.4</ele>
        <time>2024-05-19T07:41:55Z</time>
      </trkpt>
      <trkpt lat="45.75239" lon="3.31588">
        <ele>345.4</ele>
        <time>2024-05-19T07:41:56Z</time>
      </trkpt>
      <trkpt lat="45.75238" lon="3.31582">
        <ele>345.6</ele>
        <time>2024-05-19T07:41:57Z</time>
      </trkpt>
      <trkpt lat="45.75236" lon="3.31576">
        <ele>345.6</ele>
        <time>2024-05-19T07:41:58Z</time>
      </trkpt>
      <trkpt lat="45.75235" lon="3.3157">
        <ele>345.6</ele>
        <time>2024-05-19T07:41:59Z</time>
      </trkpt>
      <trkpt lat="45.75234" lon="3.31564">
        <ele>345.8</ele>
        <time>2024-05-19T07:42:00Z</time>
      </trkpt>
      <trkpt lat="45.75232" lon="3.31558">
        <ele>345.8</ele>
        <time>2024-05-19T07:42:01Z</time>
      </trkpt>
      <trkpt lat="45.75231" lon="3.31551">
        <ele>345.8</ele>
        <time>2024-05-19T07:42:02Z</time>
      </trkpt>
      <trkpt lat="45.75229" lon="3.31545">
        <ele>346</ele>
        <time>2024-05-19T07:42:03Z</time>
      </trkpt>
      <trkpt lat="45.75228" lon="3.31538">
        <ele>346</ele>
        <time>2024-05-19T07:42:04Z</time>
      </trkpt>
      <trkpt lat="45.75226" lon="3.31532">
        <ele>346</ele>
        <time>2024-05-19T07:42:05Z</time>
      </trkpt>
      <trkpt lat="45.75225" lon="3.31525">
        <ele>346.2</ele>
        <time>2024-05-19T07:42:06Z</time>
      </trkpt>
      <trkpt lat="45.75223" lon="3.31518">
        <ele>346.2</ele>
        <time>2024-05-19T07:42:07Z</time>
      </trkpt>
      <trkpt lat="45.75222" lon="3.31511">
        <ele>346.2</ele>
        <time>2024-05-19T07:42:08Z</time>
      </trkpt>
      <trkpt lat="45.7522" lon="3.31504">
        <ele>346.4</ele>
        <time>2024-05-19T07:42:09Z</time>
      </trkpt>
      <trkpt lat="45.75219" lon="3.31497">
        <ele>346.4</ele>
        <time>2024-05-19T07:42:10Z</time>
      </trkpt>
      <trkpt lat="45.75217" lon="3.31491">
        <ele>346.4</ele>
        <time>2024-05-19T07:42:11Z</time>
      </trkpt>
      <trkpt lat="45.75215" lon="3.31484">
        <ele>346.4</ele>
        <time>2024-05-19T07:42:12Z</time>
      </trkpt>
      <trkpt lat="45.75214" lon="3.31477">
        <ele>346.6</ele>
        <time>2024-05-19T07:42:13Z</time>
      </trkpt>
      <trkpt lat="45.75212" lon="3.3147">
        <ele>346.6</ele>
        <time>2024-05-19T07:42:14Z</time>
      </trkpt>
      <trkpt lat="45.75211" lon="3.31463">
        <ele>346.6</ele>
        <time>2024-05-19T07:42:15Z</time>
      </trkpt>
      <trkpt lat="45.75209" lon="3.31456">
        <ele>346.8</ele>
        <time>2024-05-19T07:42:16Z</time>
      </trkpt>
      <trkpt lat="45.75208" lon="3.3145">
        <ele>346.8</ele>
        <time>2024-05-19T07:42:17Z</time>
      </trkpt>
      <trkpt lat="45.75206" lon="3.31442">
        <ele>346.8</ele>
        <time>2024-05-19T07:42:18Z</time>
      </trkpt>
      <trkpt lat="45.75205" lon="3.31436">
        <ele>346.8</ele>
        <time>2024-05-19T07:42:19Z</time>
      </trkpt>
      <trkpt lat="45.75203" lon="3.31429">
        <ele>347</ele>
        <time>2024-05-19T07:42:20Z</time>
      </trkpt>
      <trkpt lat="45.75201" lon="3.31422">
        <ele>347</ele>
        <time>2024-05-19T07:42:21Z</time>
      </trkpt>
      <trkpt lat="45.752" lon="3.31415">
        <ele>347.2</ele>
        <time>2024-05-19T07:42:22Z</time>
      </trkpt>
      <trkpt lat="45.75198" lon="3.31408">
        <ele>347.2</ele>
        <time>2024-05-19T07:42:23Z</time>
      </trkpt>
      <trkpt lat="45.75196" lon="3.31401">
        <ele>347.4</ele>
        <time>2024-05-19T07:42:24Z</time>
      </trkpt>
      <trkpt lat="45.75194" lon="3.31394">
        <ele>347.4</ele>
        <time>2024-05-19T07:42:25Z</time>
      </trkpt>
      <trkpt lat="45.75192" lon="3.31387">
        <ele>347.4</ele>
        <time>2024-05-19T07:42:26Z</time>
      </trkpt>
      <trkpt lat="45.7519" lon="3.3138">
        <ele>347.4</ele>
        <time>2024-05-19T07:42:27Z</time>
      </trkpt>
      <trkpt lat="45.75188" lon="3.31373">
        <ele>347.6</ele>
        <time>2024-05-19T07:42:28Z</time>
      </trkpt>
      <trkpt lat="45.75185" lon="3.31366">
        <ele>347.6</ele>
        <time>2024-05-19T07:42:29Z</time>
      </trkpt>
      <trkpt lat="45.75183" lon="3.31358">
        <ele>347.6</ele>
        <time>2024-05-19T07:42:30Z</time>
      </trkpt>
      <trkpt lat="45.75181" lon="3.31351">
        <ele>347.6</ele>
        <time>2024-05-19T07:42:31Z</time>
      </trkpt>
      <trkpt lat="45.75179" lon="3.31344">
        <ele>347.8</ele>
        <time>2024-05-19T07:42:32Z</time>
      </trkpt>
      <trkpt lat="45.75177" lon="3.31336">
        <ele>347.8</ele>
        <time>2024-05-19T07:42:33Z</time>
      </trkpt>
      <trkpt lat="45.75175" lon="3.31329">
        <ele>347.8</ele>
        <time>2024-05-19T07:42:34Z</time>
      </trkpt>
      <trkpt lat="45.75173" lon="3.31322">
        <ele>347.8</ele>
        <time>2024-05-19T07:42:35Z</time>
      </trkpt>
      <trkpt lat="45.75171" lon="3.31314">
        <ele>348</ele>
        <time>2024-05-19T07:42:36Z</time>
      </trkpt>
      <trkpt lat="45.75169" lon="3.31307">
        <ele>348</ele>
        <time>2024-05-19T07:42:37Z</time>
      </trkpt>
      <trkpt lat="45.75166" lon="3.31299">
        <ele>348</ele>
        <time>2024-05-19T07:42:38Z</time>
      </trkpt>
      <trkpt lat="45.75164" lon="3.31292">
        <ele>348</ele>
        <time>2024-05-19T07:42:39Z</time>
      </trkpt>
      <trkpt lat="45.75162" lon="3.31285">
        <ele>348</ele>
        <time>2024-05-19T07:42:40Z</time>
      </trkpt>
      <trkpt lat="45.7516" lon="3.31278">
        <ele>348.2</ele>
        <time>2024-05-19T07:42:41Z</time>
      </trkpt>
      <trkpt lat="45.75158" lon="3.3127">
        <ele>348.2</ele>
        <time>2024-05-19T07:42:42Z</time>
      </trkpt>
      <trkpt lat="45.75156" lon="3.31263">
        <ele>348.2</ele>
        <time>2024-05-19T07:42:43Z</time>
      </trkpt>
      <trkpt lat="45.75154" lon="3.31256">
        <ele>348.2</ele>
        <time>2024-05-19T07:42:44Z</time>
      </trkpt>
      <trkpt lat="45.75152" lon="3.31249">
        <ele>348.2</ele>
        <time>2024-05-19T07:42:45Z</time>
      </trkpt>
      <trkpt lat="45.7515" lon="3.31242">
        <ele>348.4</ele>
        <time>2024-05-19T07:42:46Z</time>
      </trkpt>
      <trkpt lat="45.75148" lon="3.31234">
        <ele>348.4</ele>
        <time>2024-05-19T07:42:47Z</time>
      </trkpt>
      <trkpt lat="45.75146" lon="3.31227">
        <ele>348.4</ele>
        <time>2024-05-19T07:42:48Z</time>
      </trkpt>
      <trkpt lat="45.75143" lon="3.3122">
        <ele>348.4</ele>
        <time>2024-05-19T07:42:49Z</time>
      </trkpt>
      <trkpt lat="45.75141" lon="3.31213">
        <ele>348.4</ele>
        <time>2024-05-19T07:42:50Z</time>
      </trkpt>
      <trkpt lat="45.75139" lon="3.31206">
        <ele>348.4</ele>
        <time>2024-05-19T07:42:51Z</time>
      </trkpt>
      <trkpt lat="45.75137" lon="3.31199">
        <ele>348.4</ele>
        <time>2024-05-19T07:42:52Z</time>
      </trkpt>
      <trkpt lat="45.75135" lon="3.31192">
        <ele>348.4</ele>
        <time>2024-05-19T07:42:53Z</time>
      </trkpt>
      <trkpt lat="45.75133" lon="3.31185">
        <ele>348.6</ele>
        <time>2024-05-19T07:42:54Z</time>
      </trkpt>
      <trkpt lat="45.75131" lon="3.31177">
        <ele>348.6</ele>
        <time>2024-05-19T07:42:55Z</time>
      </trkpt>
      <trkpt lat="45.75129" lon="3.3117">
        <ele>348.6</ele>
        <time>2024-05-19T07:42:56Z</time>
      </trkpt>
      <trkpt lat="45.75126" lon="3.31163">
        <ele>348.6</ele>
        <time>2024-05-19T07:42:57Z</time>
      </trkpt>
      <trkpt lat="45.75124" lon="3.31156">
        <ele>348.6</ele>
        <time>2024-05-19T07:42:58Z</time>
      </trkpt>
      <trkpt lat="45.75122" lon="3.31149">
        <ele>348.8</ele>
        <time>2024-05-19T07:42:59Z</time>
      </trkpt>
      <trkpt lat="45.7512" lon="3.31142">
        <ele>348.8</ele>
        <time>2024-05-19T07:43:00Z</time>
      </trkpt>
      <trkpt lat="45.75118" lon="3.31134">
        <ele>348.8</ele>
        <time>2024-05-19T07:43:01Z</time>
      </trkpt>
      <trkpt lat="45.75116" lon="3.31127">
        <ele>348.8</ele>
        <time>2024-05-19T07:43:02Z</time>
      </trkpt>
      <trkpt lat="45.75114" lon="3.3112">
        <ele>348.8</ele>
        <time>2024-05-19T07:43:03Z</time>
      </trkpt>
      <trkpt lat="45.75111" lon="3.31113">
        <ele>348.8</ele>
        <time>2024-05-19T07:43:04Z</time>
      </trkpt>
      <trkpt lat="45.75109" lon="3.31106">
        <ele>349</ele>
        <time>2024-05-19T07:43:05Z</time>
      </trkpt>
      <trkpt lat="45.75107" lon="3.31099">
        <ele>349</ele>
        <time>2024-05-19T07:43:06Z</time>
      </trkpt>
      <trkpt lat="45.75105" lon="3.31092">
        <ele>349</ele>
        <time>2024-05-19T07:43:07Z</time>
      </trkpt>
      <trkpt lat="45.75103" lon="3.31085">
        <ele>349.2</ele>
        <time>2024-05-19T07:43:08Z</time>
      </trkpt>
      <trkpt lat="45.75101" lon="3.31078">
        <ele>349.2</ele>
        <time>2024-05-19T07:43:09Z</time>
      </trkpt>
      <trkpt lat="45.75099" lon="3.31071">
        <ele>349.4</ele>
        <time>2024-05-19T07:43:10Z</time>
      </trkpt>
      <trkpt lat="45.75096" lon="3.31064">
        <ele>349.4</ele>
        <time>2024-05-19T07:43:11Z</time>
      </trkpt>
      <trkpt lat="45.75094" lon="3.31057">
        <ele>349.4</ele>
        <time>2024-05-19T07:43:12Z</time>
      </trkpt>
      <trkpt lat="45.75092" lon="3.3105">
        <ele>349.6</ele>
        <time>2024-05-19T07:43:13Z</time>
      </trkpt>
      <trkpt lat="45.7509" lon="3.31043">
        <ele>349.6</ele>
        <time>2024-05-19T07:43:14Z</time>
      </trkpt>
      <trkpt lat="45.75088" lon="3.31036">
        <ele>349.8</ele>
        <time>2024-05-19T07:43:15Z</time>
      </trkpt>
      <trkpt lat="45.75086" lon="3.31029">
        <ele>349.8</ele>
        <time>2024-05-19T07:43:16Z</time>
      </trkpt>
      <trkpt lat="45.75084" lon="3.31023">
        <ele>349.8</ele>
        <time>2024-05-19T07:43:17Z</time>
      </trkpt>
      <trkpt lat="45.75082" lon="3.31016">
        <ele>350</ele>
        <time>2024-05-19T07:43:18Z</time>
      </trkpt>
      <trkpt lat="45.7508" lon="3.31009">
        <ele>350</ele>
        <time>2024-05-19T07:43:19Z</time>
      </trkpt>
      <trkpt lat="45.75077" lon="3.31002">
        <ele>350</ele>
        <time>2024-05-19T07:43:20Z</time>
      </trkpt>
      <trkpt lat="45.75075" lon="3.30995">
        <ele>350</ele>
        <time>2024-05-19T07:43:21Z</time>
      </trkpt>
      <trkpt lat="45.75073" lon="3.30988">
        <ele>350</ele>
        <time>2024-05-19T07:43:22Z</time>
      </trkpt>
      <trkpt lat="45.75071" lon="3.30981">
        <ele>350.2</ele>
        <time>2024-05-19T07:43:23Z</time>
      </trkpt>
      <trkpt lat="45.75069" lon="3.30974">
        <ele>350.2</ele>
        <time>2024-05-19T07:43:24Z</time>
      </trkpt>
      <trkpt lat="45.75067" lon="3.30967">
        <ele>350.2</ele>
        <time>2024-05-19T07:43:25Z</time>
      </trkpt>
      <trkpt lat="45.75065" lon="3.3096">
        <ele>350.4</ele>
        <time>2024-05-19T07:43:26Z</time>
      </trkpt>
      <trkpt lat="45.75062" lon="3.30953">
        <ele>350.4</ele>
        <time>2024-05-19T07:43:27Z</time>
      </trkpt>
      <trkpt lat="45.7506" lon="3.30946">
        <ele>350.4</ele>
        <time>2024-05-19T07:43:28Z</time>
      </trkpt>
      <trkpt lat="45.75058" lon="3.30939">
        <ele>350.4</ele>
        <time>2024-05-19T07:43:29Z</time>
      </trkpt>
      <trkpt lat="45.75055" lon="3.30933">
        <ele>350.6</ele>
        <time>2024-05-19T07:43:30Z</time>
      </trkpt>
      <trkpt lat="45.75053" lon="3.30926">
        <ele>350.6</ele>
        <time>2024-05-19T07:43:31Z</time>
      </trkpt>
      <trkpt lat="45.75051" lon="3.3092">
        <ele>350.6</ele>
        <time>2024-05-19T07:43:32Z</time>
      </trkpt>
      <trkpt lat="45.75048" lon="3.30913">
        <ele>350.8</ele>
        <time>2024-05-19T07:43:33Z</time>
      </trkpt>
      <trkpt lat="45.75046" lon="3.30907">
        <ele>350.8</ele>
        <time>2024-05-19T07:43:34Z</time>
      </trkpt>
      <trkpt lat="45.75043" lon="3.309">
        <ele>351</ele>
        <time>2024-05-19T07:43:35Z</time>
      </trkpt>
      <trkpt lat="45.75041" lon="3.30893">
        <ele>351</ele>
        <time>2024-05-19T07:43:36Z</time>
      </trkpt>
      <trkpt lat="45.75039" lon="3.30887">
        <ele>351</ele>
        <time>2024-05-19T07:43:37Z</time>
      </trkpt>
      <trkpt lat="45.75036" lon="3.30881">
        <ele>351.2</ele>
        <time>2024-05-19T07:43:38Z</time>
      </trkpt>
      <trkpt lat="45.75033" lon="3.30875">
        <ele>351.2</ele>
        <time>2024-05-19T07:43:39Z</time>
      </trkpt>
      <trkpt lat="45.7503" lon="3.30869">
        <ele>351.4</ele>
        <time>2024-05-19T07:43:40Z</time>
      </trkpt>
      <trkpt lat="45.75027" lon="3.30862">
        <ele>351.4</ele>
        <time>2024-05-19T07:43:41Z</time>
      </trkpt>
      <trkpt lat="45.75024" lon="3.30856">
        <ele>351.6</ele>
        <time>2024-05-19T07:43:42Z</time>
      </trkpt>
      <trkpt lat="45.75022" lon="3.3085">
        <ele>351.6</ele>
        <time>2024-05-19T07:43:43Z</time>
      </trkpt>
      <trkpt lat="45.75019" lon="3.30844">
        <ele>351.8</ele>
        <time>2024-05-19T07:43:44Z</time>
      </trkpt>
      <trkpt lat="45.75016" lon="3.30838">
        <ele>351.8</ele>
        <time>2024-05-19T07:43:45Z</time>
      </trkpt>
      <trkpt lat="45.75012" lon="3.30833">
        <ele>351.8</ele>
        <time>2024-05-19T07:43:46Z</time>
      </trkpt>
      <trkpt lat="45.75009" lon="3.30827">
        <ele>352</ele>
        <time>2024-05-19T07:43:47Z</time>
      </trkpt>
      <trkpt lat="45.75006" lon="3.30822">
        <ele>352</ele>
        <time>2024-05-19T07:43:48Z</time>
      </trkpt>
      <trkpt lat="45.75003" lon="3.30816">
        <ele>352.2</ele>
        <time>2024-05-19T07:43:49Z</time>
      </trkpt>
      <trkpt lat="45.75" lon="3.30811">
        <ele>352.2</ele>
        <time>2024-05-19T07:43:50Z</time>
      </trkpt>
      <trkpt lat="45.74996" lon="3.30806">
        <ele>352.4</ele>
        <time>2024-05-19T07:43:51Z</time>
      </trkpt>
      <trkpt lat="45.74993" lon="3.30801">
        <ele>352.4</ele>
        <time>2024-05-19T07:43:52Z</time>
      </trkpt>
      <trkpt lat="45.7499" lon="3.30795">
        <ele>352.4</ele>
        <time>2024-05-19T07:43:53Z</time>
      </trkpt>
      <trkpt lat="45.74987" lon="3.3079">
        <ele>352.6</ele>
        <time>2024-05-19T07:43:54Z</time>
      </trkpt>
      <trkpt lat="45.74984" lon="3.30785">
        <ele>352.6</ele>
        <time>2024-05-19T07:43:55Z</time>
      </trkpt>
      <trkpt lat="45.74981" lon="3.30779">
        <ele>352.6</ele>
        <time>2024-05-19T07:43:56Z</time>
      </trkpt>
      <trkpt lat="45.74978" lon="3.30775">
        <ele>352.8</ele>
        <time>2024-05-19T07:43:57Z</time>
      </trkpt>
      <trkpt lat="45.74975" lon="3.3077">
        <ele>352.8</ele>
        <time>2024-05-19T07:43:58Z</time>
      </trkpt>
      <trkpt lat="45.74972" lon="3.30765">
        <ele>353</ele>
        <time>2024-05-19T07:43:59Z</time>
      </trkpt>
      <trkpt lat="45.74969" lon="3.30759">
        <ele>353</ele>
        <time>2024-05-19T07:44:00Z</time>
      </trkpt>
      <trkpt lat="45.74966" lon="3.30754">
        <ele>353.2</ele>
        <time>2024-05-19T07:44:01Z</time>
      </trkpt>
      <trkpt lat="45.74963" lon="3.30749">
        <ele>353.2</ele>
        <time>2024-05-19T07:44:02Z</time>
      </trkpt>
      <trkpt lat="45.7496" lon="3.30744">
        <ele>353.4</ele>
        <time>2024-05-19T07:44:03Z</time>
      </trkpt>
      <trkpt lat="45.74956" lon="3.30738">
        <ele>353.4</ele>
        <time>2024-05-19T07:44:04Z</time>
      </trkpt>
      <trkpt lat="45.74953" lon="3.30733">
        <ele>353.6</ele>
        <time>2024-05-19T07:44:05Z</time>
      </trkpt>
      <trkpt lat="45.7495" lon="3.30728">
        <ele>353.6</ele>
        <time>2024-05-19T07:44:06Z</time>
      </trkpt>
      <trkpt lat="45.74947" lon="3.30723">
        <ele>353.8</ele>
        <time>2024-05-19T07:44:07Z</time>
      </trkpt>
      <trkpt lat="45.74944" lon="3.30718">
        <ele>353.8</ele>
        <time>2024-05-19T07:44:08Z</time>
      </trkpt>
      <trkpt lat="45.74941" lon="3.30713">
        <ele>354</ele>
        <time>2024-05-19T07:44:09Z</time>
      </trkpt>
      <trkpt lat="45.74938" lon="3.30708">
        <ele>354</ele>
        <time>2024-05-19T07:44:10Z</time>
      </trkpt>
      <trkpt lat="45.74935" lon="3.30703">
        <ele>354</ele>
        <time>2024-05-19T07:44:11Z</time>
      </trkpt>
      <trkpt lat="45.74932" lon="3.30698">
        <ele>354.2</ele>
        <time>2024-05-19T07:44:12Z</time>
      </trkpt>
      <trkpt lat="45.74929" lon="3.30693">
        <ele>354.2</ele>
        <time>2024-05-19T07:44:13Z</time>
      </trkpt>
      <trkpt lat="45.74926" lon="3.30688">
        <ele>354.4</ele>
        <time>2024-05-19T07:44:14Z</time>
      </trkpt>
      <trkpt lat="45.74923" lon="3.30683">
        <ele>354.4</ele>
        <time>2024-05-19T07:44:15Z</time>
      </trkpt>
      <trkpt lat="45.7492" lon="3.30678">
        <ele>354.6</ele>
        <time>2024-05-19T07:44:16Z</time>
      </trkpt>
      <trkpt lat="45.74917" lon="3.30672">
        <ele>354.6</ele>
        <time>2024-05-19T07:44:17Z</time>
      </trkpt>
      <trkpt lat="45.74914" lon="3.30667">
        <ele>354.8</ele>
        <time>2024-05-19T07:44:18Z</time>
      </trkpt>
      <trkpt lat="45.74911" lon="3.30663">
        <ele>354.8</ele>
        <time>2024-05-19T07:44:19Z</time>
      </trkpt>
      <trkpt lat="45.74908" lon="3.30658">
        <ele>354.8</ele>
        <time>2024-05-19T07:44:20Z</time>
      </trkpt>
      <trkpt lat="45.74905" lon="3.30653">
        <ele>355</ele>
        <time>2024-05-19T07:44:21Z</time>
      </trkpt>
      <trkpt lat="45.74901" lon="3.30648">
        <ele>355</ele>
        <time>2024-05-19T07:44:22Z</time>
      </trkpt>
      <trkpt lat="45.74898" lon="3.30643">
        <ele>355.2</ele>
        <time>2024-05-19T07:44:23Z</time>
      </trkpt>
      <trkpt lat="45.74895" lon="3.30638">
        <ele>355.2</ele>
        <time>2024-05-19T07:44:24Z</time>
      </trkpt>
      <trkpt lat="45.74892" lon="3.30634">
        <ele>355.2</ele>
        <time>2024-05-19T07:44:25Z</time>
      </trkpt>
      <trkpt lat="45.74889" lon="3.30629">
        <ele>355.4</ele>
        <time>2024-05-19T07:44:26Z</time>
      </trkpt>
      <trkpt lat="45.74886" lon="3.30624">
        <ele>355.4</ele>
        <time>2024-05-19T07:44:27Z</time>
      </trkpt>
      <trkpt lat="45.74883" lon="3.30619">
        <ele>355.6</ele>
        <time>2024-05-19T07:44:28Z</time>
      </trkpt>
      <trkpt lat="45.74879" lon="3.30614">
        <ele>355.6</ele>
        <time>2024-05-19T07:44:29Z</time>
      </trkpt>
      <trkpt lat="45.74876" lon="3.30609">
        <ele>355.8</ele>
        <time>2024-05-19T07:44:30Z</time>
      </trkpt>
      <trkpt lat="45.74873" lon="3.30604">
        <ele>355.8</ele>
        <time>2024-05-19T07:44:31Z</time>
      </trkpt>
      <trkpt lat="45.7487" lon="3.30599">
        <ele>356</ele>
        <time>2024-05-19T07:44:32Z</time>
      </trkpt>
      <trkpt lat="45.74867" lon="3.30594">
        <ele>356</ele>
        <time>2024-05-19T07:44:33Z</time>
      </trkpt>
      <trkpt lat="45.74864" lon="3.30589">
        <ele>356.4</ele>
        <time>2024-05-19T07:44:34Z</time>
      </trkpt>
      <trkpt lat="45.7486" lon="3.30585">
        <ele>356.6</ele>
        <time>2024-05-19T07:44:35Z</time>
      </trkpt>
      <trkpt lat="45.74857" lon="3.3058">
        <ele>356.6</ele>
        <time>2024-05-19T07:44:36Z</time>
      </trkpt>
      <trkpt lat="45.74854" lon="3.30575">
        <ele>356.8</ele>
        <time>2024-05-19T07:44:37Z</time>
      </trkpt>
      <trkpt lat="45.74851" lon="3.3057">
        <ele>356.8</ele>
        <time>2024-05-19T07:44:38Z</time>
      </trkpt>
      <trkpt lat="45.74848" lon="3.30566">
        <ele>357</ele>
        <time>2024-05-19T07:44:39Z</time>
      </trkpt>
      <trkpt lat="45.74845" lon="3.30561">
        <ele>357</ele>
        <time>2024-05-19T07:44:40Z</time>
      </trkpt>
      <trkpt lat="45.74842" lon="3.30556">
        <ele>357.2</ele>
        <time>2024-05-19T07:44:41Z</time>
      </trkpt>
      <trkpt lat="45.74839" lon="3.30552">
        <ele>357.2</ele>
        <time>2024-05-19T07:44:42Z</time>
      </trkpt>
      <trkpt lat="45.74836" lon="3.30547">
        <ele>357.4</ele>
        <time>2024-05-19T07:44:43Z</time>
      </trkpt>
      <trkpt lat="45.74833" lon="3.30542">
        <ele>357.4</ele>
        <time>2024-05-19T07:44:44Z</time>
      </trkpt>
      <trkpt lat="45.7483" lon="3.30537">
        <ele>357.6</ele>
        <time>2024-05-19T07:44:45Z</time>
      </trkpt>
      <trkpt lat="45.74826" lon="3.30532">
        <ele>357.6</ele>
        <time>2024-05-19T07:44:46Z</time>
      </trkpt>
      <trkpt lat="45.74823" lon="3.30527">
        <ele>357.6</ele>
        <time>2024-05-19T07:44:47Z</time>
      </trkpt>
      <trkpt lat="45.7482" lon="3.30522">
        <ele>357.8</ele>
        <time>2024-05-19T07:44:48Z</time>
      </trkpt>
      <trkpt lat="45.74816" lon="3.30517">
        <ele>357.8</ele>
        <time>2024-05-19T07:44:49Z</time>
      </trkpt>
      <trkpt lat="45.74813" lon="3.30512">
        <ele>357.8</ele>
        <time>2024-05-19T07:44:50Z</time>
      </trkpt>
      <trkpt lat="45.7481" lon="3.30507">
        <ele>358</ele>
        <time>2024-05-19T07:44:51Z</time>
      </trkpt>
      <trkpt lat="45.74807" lon="3.30502">
        <ele>358</ele>
        <time>2024-05-19T07:44:52Z</time>
      </trkpt>
      <trkpt lat="45.74803" lon="3.30496">
        <ele>358.2</ele>
        <time>2024-05-19T07:44:53Z</time>
      </trkpt>
      <trkpt lat="45.748" lon="3.30492">
        <ele>358.2</ele>
        <time>2024-05-19T07:44:54Z</time>
      </trkpt>
      <trkpt lat="45.74797" lon="3.30486">
        <ele>358.4</ele>
        <time>2024-05-19T07:44:55Z</time>
      </trkpt>
      <trkpt lat="45.74793" lon="3.30481">
        <ele>358.4</ele>
        <time>2024-05-19T07:44:56Z</time>
      </trkpt>
      <trkpt lat="45.7479" lon="3.30476">
        <ele>358.4</ele>
        <time>2024-05-19T07:44:57Z</time>
      </trkpt>
      <trkpt lat="45.74787" lon="3.30472">
        <ele>358.6</ele>
        <time>2024-05-19T07:44:58Z</time>
      </trkpt>
      <trkpt lat="45.74784" lon="3.30467">
        <ele>358.6</ele>
        <time>2024-05-19T07:44:59Z</time>
      </trkpt>
      <trkpt lat="45.74781" lon="3.30462">
        <ele>358.8</ele>
        <time>2024-05-19T07:45:00Z</time>
      </trkpt>
      <trkpt lat="45.74778" lon="3.30457">
        <ele>358.8</ele>
        <time>2024-05-19T07:45:01Z</time>
      </trkpt>
      <trkpt lat="45.74775" lon="3.30452">
        <ele>358.8</ele>
        <time>2024-05-19T07:45:02Z</time>
      </trkpt>
      <trkpt lat="45.74773" lon="3.30448">
        <ele>359</ele>
        <time>2024-05-19T07:45:03Z</time>
      </trkpt>
      <trkpt lat="45.7477" lon="3.30443">
        <ele>359</ele>
        <time>2024-05-19T07:45:04Z</time>
      </trkpt>
      <trkpt lat="45.74767" lon="3.30438">
        <ele>359.2</ele>
        <time>2024-05-19T07:45:05Z</time>
      </trkpt>
      <trkpt lat="45.74764" lon="3.30433">
        <ele>359.4</ele>
        <time>2024-05-19T07:45:06Z</time>
      </trkpt>
      <trkpt lat="45.74762" lon="3.30428">
        <ele>359.4</ele>
        <time>2024-05-19T07:45:07Z</time>
      </trkpt>
      <trkpt lat="45.7476" lon="3.30423">
        <ele>359.6</ele>
        <time>2024-05-19T07:45:08Z</time>
      </trkpt>
      <trkpt lat="45.74757" lon="3.30417">
        <ele>359.6</ele>
        <time>2024-05-19T07:45:09Z</time>
      </trkpt>
      <trkpt lat="45.74755" lon="3.30412">
        <ele>359.8</ele>
        <time>2024-05-19T07:45:10Z</time>
      </trkpt>
      <trkpt lat="45.74753" lon="3.30407">
        <ele>360</ele>
        <time>2024-05-19T07:45:11Z</time>
      </trkpt>
      <trkpt lat="45.7475" lon="3.30403">
        <ele>360</ele>
        <time>2024-05-19T07:45:12Z</time>
      </trkpt>
      <trkpt lat="45.74748" lon="3.30396">
        <ele>360.2</ele>
        <time>2024-05-19T07:45:13Z</time>
      </trkpt>
      <trkpt lat="45.74748" lon="3.3039">
        <ele>360.4</ele>
        <time>2024-05-19T07:45:14Z</time>
      </trkpt>
      <trkpt lat="45.74749" lon="3.30384">
        <ele>360.4</ele>
        <time>2024-05-19T07:45:15Z</time>
      </trkpt>
      <trkpt lat="45.74749" lon="3.30378">
        <ele>360.6</ele>
        <time>2024-05-19T07:45:16Z</time>
      </trkpt>
      <trkpt lat="45.74749" lon="3.30372">
        <ele>360.6</ele>
        <time>2024-05-19T07:45:17Z</time>
      </trkpt>
      <trkpt lat="45.7475" lon="3.30367">
        <ele>360.8</ele>
        <time>2024-05-19T07:45:18Z</time>
      </trkpt>
      <trkpt lat="45.7475" lon="3.30361">
        <ele>361</ele>
        <time>2024-05-19T07:45:19Z</time>
      </trkpt>
      <trkpt lat="45.7475" lon="3.30354">
        <ele>361</ele>
        <time>2024-05-19T07:45:20Z</time>
      </trkpt>
      <trkpt lat="45.74752" lon="3.30349">
        <ele>361.2</ele>
        <time>2024-05-19T07:45:21Z</time>
      </trkpt>
      <trkpt lat="45.74754" lon="3.30344">
        <ele>361.2</ele>
        <time>2024-05-19T07:45:22Z</time>
      </trkpt>
      <trkpt lat="45.74756" lon="3.3034">
        <ele>361.4</ele>
        <time>2024-05-19T07:45:23Z</time>
      </trkpt>
      <trkpt lat="45.74758" lon="3.30335">
        <ele>361.4</ele>
        <time>2024-05-19T07:45:24Z</time>
      </trkpt>
      <trkpt lat="45.74759" lon="3.30331">
        <ele>361.4</ele>
        <time>2024-05-19T07:45:25Z</time>
      </trkpt>
      <trkpt lat="45.74762" lon="3.30327">
        <ele>361.6</ele>
        <time>2024-05-19T07:45:26Z</time>
      </trkpt>
      <trkpt lat="45.74764" lon="3.30323">
        <ele>361.6</ele>
        <time>2024-05-19T07:45:27Z</time>
      </trkpt>
      <trkpt lat="45.74766" lon="3.30318">
        <ele>361.8</ele>
        <time>2024-05-19T07:45:28Z</time>
      </trkpt>
      <trkpt lat="45.74769" lon="3.30314">
        <ele>361.8</ele>
        <time>2024-05-19T07:45:29Z</time>
      </trkpt>
      <trkpt lat="45.74771" lon="3.3031">
        <ele>362</ele>
        <time>2024-05-19T07:45:30Z</time>
      </trkpt>
      <trkpt lat="45.74773" lon="3.30306">
        <ele>362</ele>
        <time>2024-05-19T07:45:31Z</time>
      </trkpt>
      <trkpt lat="45.74775" lon="3.30303">
        <ele>362</ele>
        <time>2024-05-19T07:45:32Z</time>
      </trkpt>
      <trkpt lat="45.74777" lon="3.30299">
        <ele>362.2</ele>
        <time>2024-05-19T07:45:33Z</time>
      </trkpt>
      <trkpt lat="45.74779" lon="3.30295">
        <ele>362.2</ele>
        <time>2024-05-19T07:45:34Z</time>
      </trkpt>
      <trkpt lat="45.74782" lon="3.30291">
        <ele>362.2</ele>
        <time>2024-05-19T07:45:35Z</time>
      </trkpt>
      <trkpt lat="45.74785" lon="3.30287">
        <ele>362.4</ele>
        <time>2024-05-19T07:45:36Z</time>
      </trkpt>
      <trkpt lat="45.74788" lon="3.30284">
        <ele>362.4</ele>
        <time>2024-05-19T07:45:37Z</time>
      </trkpt>
      <trkpt lat="45.74791" lon="3.30281">
        <ele>362.6</ele>
        <time>2024-05-19T07:45:38Z</time>
      </trkpt>
      <trkpt lat="45.74794" lon="3.30277">
        <ele>362.6</ele>
        <time>2024-05-19T07:45:39Z</time>
      </trkpt>
      <trkpt lat="45.74796" lon="3.30274">
        <ele>362.6</ele>
        <time>2024-05-19T07:45:40Z</time>
      </trkpt>
      <trkpt lat="45.74799" lon="3.3027">
        <ele>362.8</ele>
        <time>2024-05-19T07:45:41Z</time>
      </trkpt>
      <trkpt lat="45.74802" lon="3.30267">
        <ele>362.8</ele>
        <time>2024-05-19T07:45:42Z</time>
      </trkpt>
      <trkpt lat="45.74805" lon="3.30264">
        <ele>363</ele>
        <time>2024-05-19T07:45:43Z</time>
      </trkpt>
      <trkpt lat="45.74808" lon="3.3026">
        <ele>363</ele>
        <time>2024-05-19T07:45:44Z</time>
      </trkpt>
      <trkpt lat="45.74811" lon="3.30256">
        <ele>363</ele>
        <time>2024-05-19T07:45:45Z</time>
      </trkpt>
      <trkpt lat="45.74816" lon="3.30255">
        <ele>363.2</ele>
        <time>2024-05-19T07:45:46Z</time>
      </trkpt>
      <trkpt lat="45.7482" lon="3.30254">
        <ele>363.2</ele>
        <time>2024-05-19T07:45:47Z</time>
      </trkpt>
      <trkpt lat="45.74824" lon="3.30253">
        <ele>363.4</ele>
        <time>2024-05-19T07:45:48Z</time>
      </trkpt>
      <trkpt lat="45.74829" lon="3.30252">
        <ele>363.4</ele>
        <time>2024-05-19T07:45:49Z</time>
      </trkpt>
      <trkpt lat="45.74833" lon="3.30251">
        <ele>363.4</ele>
        <time>2024-05-19T07:45:50Z</time>
      </trkpt>
      <trkpt lat="45.74837" lon="3.3025">
        <ele>363.6</ele>
        <time>2024-05-19T07:45:51Z</time>
      </trkpt>
      <trkpt lat="45.74842" lon="3.30249">
        <ele>363.6</ele>
        <time>2024-05-19T07:45:52Z</time>
      </trkpt>
      <trkpt lat="45.74846" lon="3.30246">
        <ele>363.8</ele>
        <time>2024-05-19T07:45:53Z</time>
      </trkpt>
      <trkpt lat="45.74851" lon="3.30244">
        <ele>363.8</ele>
        <time>2024-05-19T07:45:54Z</time>
      </trkpt>
      <trkpt lat="45.74855" lon="3.30241">
        <ele>364</ele>
        <time>2024-05-19T07:45:55Z</time>
      </trkpt>
      <trkpt lat="45.7486" lon="3.30239">
        <ele>364.2</ele>
        <time>2024-05-19T07:45:56Z</time>
      </trkpt>
      <trkpt lat="45.74864" lon="3.30237">
        <ele>364.2</ele>
        <time>2024-05-19T07:45:57Z</time>
      </trkpt>
      <trkpt lat="45.74868" lon="3.30234">
        <ele>364.2</ele>
        <time>2024-05-19T07:45:58Z</time>
      </trkpt>
      <trkpt lat="45.74874" lon="3.30231">
        <ele>364.4</ele>
        <time>2024-05-19T07:45:59Z</time>
      </trkpt>
      <trkpt lat="45.74876" lon="3.30225">
        <ele>364.4</ele>
        <time>2024-05-19T07:46:00Z</time>
      </trkpt>
      <trkpt lat="45.74877" lon="3.30218">
        <ele>364.6</ele>
        <time>2024-05-19T07:46:01Z</time>
      </trkpt>
      <trkpt lat="45.74878" lon="3.30212">
        <ele>364.8</ele>
        <time>2024-05-19T07:46:02Z</time>
      </trkpt>
      <trkpt lat="45.74878" lon="3.30206">
        <ele>364.8</ele>
        <time>2024-05-19T07:46:03Z</time>
      </trkpt>
      <trkpt lat="45.74878" lon="3.302">
        <ele>365</ele>
        <time>2024-05-19T07:46:04Z</time>
      </trkpt>
      <trkpt lat="45.74877" lon="3.30194">
        <ele>365.2</ele>
        <time>2024-05-19T07:46:05Z</time>
      </trkpt>
      <trkpt lat="45.74877" lon="3.30188">
        <ele>365.4</ele>
        <time>2024-05-19T07:46:06Z</time>
      </trkpt>
      <trkpt lat="45.74877" lon="3.30182">
        <ele>365.4</ele>
        <time>2024-05-19T07:46:07Z</time>
      </trkpt>
      <trkpt lat="45.74876" lon="3.30177">
        <ele>365.6</ele>
        <time>2024-05-19T07:46:08Z</time>
      </trkpt>
      <trkpt lat="45.74876" lon="3.30172">
        <ele>365.8</ele>
        <time>2024-05-19T07:46:09Z</time>
      </trkpt>
      <trkpt lat="45.74875" lon="3.30168">
        <ele>366</ele>
        <time>2024-05-19T07:46:10Z</time>
      </trkpt>
      <trkpt lat="45.74874" lon="3.30163">
        <ele>366.2</ele>
        <time>2024-05-19T07:46:11Z</time>
      </trkpt>
      <trkpt lat="45.74874" lon="3.30158">
        <ele>366.4</ele>
        <time>2024-05-19T07:46:12Z</time>
      </trkpt>
      <trkpt lat="45.74873" lon="3.30153">
        <ele>366.6</ele>
        <time>2024-05-19T07:46:13Z</time>
      </trkpt>
      <trkpt lat="45.74873" lon="3.30149">
        <ele>366.6</ele>
        <time>2024-05-19T07:46:14Z</time>
      </trkpt>
      <trkpt lat="45.74872" lon="3.30144">
        <ele>366.8</ele>
        <time>2024-05-19T07:46:15Z</time>
      </trkpt>
      <trkpt lat="45.74872" lon="3.3014">
        <ele>367</ele>
        <time>2024-05-19T07:46:16Z</time>
      </trkpt>
      <trkpt lat="45.74871" lon="3.30135">
        <ele>367.2</ele>
        <time>2024-05-19T07:46:17Z</time>
      </trkpt>
      <trkpt lat="45.74871" lon="3.3013">
        <ele>367.4</ele>
        <time>2024-05-19T07:46:18Z</time>
      </trkpt>
      <trkpt lat="45.74871" lon="3.30123">
        <ele>367.6</ele>
        <time>2024-05-19T07:46:19Z</time>
      </trkpt>
      <trkpt lat="45.74873" lon="3.3012">
        <ele>367.8</ele>
        <time>2024-05-19T07:46:20Z</time>
      </trkpt>
      <trkpt lat="45.74878" lon="3.30118">
        <ele>367.8</ele>
        <time>2024-05-19T07:46:21Z</time>
      </trkpt>
      <trkpt lat="45.74881" lon="3.30118">
        <ele>368</ele>
        <time>2024-05-19T07:46:22Z</time>
      </trkpt>
      <trkpt lat="45.74884" lon="3.30118">
        <ele>368.2</ele>
        <time>2024-05-19T07:46:23Z</time>
      </trkpt>
      <trkpt lat="45.74888" lon="3.30118">
        <ele>368.4</ele>
        <time>2024-05-19T07:46:24Z</time>
      </trkpt>
      <trkpt lat="45.74892" lon="3.30118">
        <ele>368.6</ele>
        <time>2024-05-19T07:46:25Z</time>
      </trkpt>
      <trkpt lat="45.74896" lon="3.30118">
        <ele>368.8</ele>
        <time>2024-05-19T07:46:26Z</time>
      </trkpt>
      <trkpt lat="45.749" lon="3.30118">
        <ele>369</ele>
        <time>2024-05-19T07:46:27Z</time>
      </trkpt>
      <trkpt lat="45.74904" lon="3.30117">
        <ele>369.2</ele>
        <time>2024-05-19T07:46:28Z</time>
      </trkpt>
      <trkpt lat="45.74908" lon="3.30114">
        <ele>369.4</ele>
        <time>2024-05-19T07:46:29Z</time>
      </trkpt>
      <trkpt lat="45.74912" lon="3.30112">
        <ele>369.6</ele>
        <time>2024-05-19T07:46:30Z</time>
      </trkpt>
      <trkpt lat="45.74915" lon="3.30106">
        <ele>369.8</ele>
        <time>2024-05-19T07:46:31Z</time>
      </trkpt>
      <trkpt lat="45.74915" lon="3.30103">
        <ele>370</ele>
        <time>2024-05-19T07:46:32Z</time>
      </trkpt>
      <trkpt lat="45.74913" lon="3.30095">
        <ele>370.2</ele>
        <time>2024-05-19T07:46:33Z</time>
      </trkpt>
      <trkpt lat="45.74911" lon="3.30089">
        <ele>370.2</ele>
        <time>2024-05-19T07:46:34Z</time>
      </trkpt>
      <trkpt lat="45.7491" lon="3.30084">
        <ele>370.4</ele>
        <time>2024-05-19T07:46:35Z</time>
      </trkpt>
      <trkpt lat="45.74909" lon="3.30078">
        <ele>370.6</ele>
        <time>2024-05-19T07:46:36Z</time>
      </trkpt>
      <trkpt lat="45.74907" lon="3.30074">
        <ele>370.8</ele>
        <time>2024-05-19T07:46:37Z</time>
      </trkpt>
      <trkpt lat="45.74906" lon="3.30069">
        <ele>371</ele>
        <time>2024-05-19T07:46:38Z</time>
      </trkpt>
      <trkpt lat="45.74905" lon="3.30064">
        <ele>371.2</ele>
        <time>2024-05-19T07:46:39Z</time>
      </trkpt>
      <trkpt lat="45.74903" lon="3.3006">
        <ele>371.4</ele>
        <time>2024-05-19T07:46:40Z</time>
      </trkpt>
      <trkpt lat="45.74902" lon="3.30055">
        <ele>371.6</ele>
        <time>2024-05-19T07:46:41Z</time>
      </trkpt>
      <trkpt lat="45.74901" lon="3.30051">
        <ele>371.8</ele>
        <time>2024-05-19T07:46:42Z</time>
      </trkpt>
      <trkpt lat="45.74899" lon="3.30046">
        <ele>372.2</ele>
        <time>2024-05-19T07:46:43Z</time>
      </trkpt>
      <trkpt lat="45.74898" lon="3.30042">
        <ele>372.4</ele>
        <time>2024-05-19T07:46:44Z</time>
      </trkpt>
      <trkpt lat="45.74897" lon="3.30038">
        <ele>372.6</ele>
        <time>2024-05-19T07:46:45Z</time>
      </trkpt>
      <trkpt lat="45.74895" lon="3.30034">
        <ele>372.8</ele>
        <time>2024-05-19T07:46:46Z</time>
      </trkpt>
      <trkpt lat="45.74895" lon="3.30029">
        <ele>373</ele>
        <time>2024-05-19T07:46:47Z</time>
      </trkpt>
      <trkpt lat="45.74894" lon="3.30025">
        <ele>373.4</ele>
        <time>2024-05-19T07:46:48Z</time>
      </trkpt>
      <trkpt lat="45.74893" lon="3.30021">
        <ele>373.6</ele>
        <time>2024-05-19T07:46:49Z</time>
      </trkpt>
      <trkpt lat="45.74892" lon="3.30017">
        <ele>373.8</ele>
        <time>2024-05-19T07:46:50Z</time>
      </trkpt>
      <trkpt lat="45.74891" lon="3.30013">
        <ele>374</ele>
        <time>2024-05-19T07:46:51Z</time>
      </trkpt>
      <trkpt lat="45.74891" lon="3.30008">
        <ele>374.2</ele>
        <time>2024-05-19T07:46:52Z</time>
      </trkpt>
      <trkpt lat="45.7489" lon="3.30004">
        <ele>374.4</ele>
        <time>2024-05-19T07:46:53Z</time>
      </trkpt>
      <trkpt lat="45.74889" lon="3.3">
        <ele>374.6</ele>
        <time>2024-05-19T07:46:54Z</time>
      </trkpt>
      <trkpt lat="45.74888" lon="3.29995">
        <ele>374.8</ele>
        <time>2024-05-19T07:46:55Z</time>
      </trkpt>
      <trkpt lat="45.74887" lon="3.29991">
        <ele>375</ele>
        <time>2024-05-19T07:46:56Z</time>
      </trkpt>
      <trkpt lat="45.74887" lon="3.29987">
        <ele>375.4</ele>
        <time>2024-05-19T07:46:57Z</time>
      </trkpt>
      <trkpt lat="45.74886" lon="3.29983">
        <ele>375.6</ele>
        <time>2024-05-19T07:46:58Z</time>
      </trkpt>
      <trkpt lat="45.74885" lon="3.29979">
        <ele>375.8</ele>
        <time>2024-05-19T07:46:59Z</time>
      </trkpt>
      <trkpt lat="45.74884" lon="3.29975">
        <ele>376</ele>
        <time>2024-05-19T07:47:00Z</time>
      </trkpt>
      <trkpt lat="45.74883" lon="3.29971">
        <ele>376.2</ele>
        <time>2024-05-19T07:47:01Z</time>
      </trkpt>
      <trkpt lat="45.74883" lon="3.29967">
        <ele>376.4</ele>
        <time>2024-05-19T07:47:02Z</time>
      </trkpt>
      <trkpt lat="45.74882" lon="3.29963">
        <ele>376.6</ele>
        <time>2024-05-19T07:47:03Z</time>
      </trkpt>
      <trkpt lat="45.74881" lon="3.29958">
        <ele>376.8</ele>
        <time>2024-05-19T07:47:04Z</time>
      </trkpt>
      <trkpt lat="45.7488" lon="3.29954">
        <ele>377</ele>
        <time>2024-05-19T07:47:05Z</time>
      </trkpt>
      <trkpt lat="45.7488" lon="3.2995">
        <ele>377.4</ele>
        <time>2024-05-19T07:47:06Z</time>
      </trkpt>
      <trkpt lat="45.74879" lon="3.29945">
        <ele>377.6</ele>
        <time>2024-05-19T07:47:07Z</time>
      </trkpt>
      <trkpt lat="45.74879" lon="3.29941">
        <ele>377.8</ele>
        <time>2024-05-19T07:47:08Z</time>
      </trkpt>
      <trkpt lat="45.74879" lon="3.29938">
        <ele>378</ele>
        <time>2024-05-19T07:47:09Z</time>
      </trkpt>
      <trkpt lat="45.74879" lon="3.29933">
        <ele>378.4</ele>
        <time>2024-05-19T07:47:10Z</time>
      </trkpt>
      <trkpt lat="45.74879" lon="3.29929">
        <ele>378.6</ele>
        <time>2024-05-19T07:47:11Z</time>
      </trkpt>
      <trkpt lat="45.74879" lon="3.29926">
        <ele>378.8</ele>
        <time>2024-05-19T07:47:12Z</time>
      </trkpt>
      <trkpt lat="45.74879" lon="3.29922">
        <ele>379</ele>
        <time>2024-05-19T07:47:13Z</time>
      </trkpt>
      <trkpt lat="45.74879" lon="3.29919">
        <ele>379.2</ele>
        <time>2024-05-19T07:47:14Z</time>
      </trkpt>
      <trkpt lat="45.74879" lon="3.29915">
        <ele>379.4</ele>
        <time>2024-05-19T07:47:15Z</time>
      </trkpt>
      <trkpt lat="45.74879" lon="3.29911">
        <ele>379.6</ele>
        <time>2024-05-19T07:47:16Z</time>
      </trkpt>
      <trkpt lat="45.74879" lon="3.29908">
        <ele>379.8</ele>
        <time>2024-05-19T07:47:17Z</time>
      </trkpt>
      <trkpt lat="45.7488" lon="3.29905">
        <ele>380</ele>
        <time>2024-05-19T07:47:18Z</time>
      </trkpt>
      <trkpt lat="45.7488" lon="3.29901">
        <ele>380.4</ele>
        <time>2024-05-19T07:47:19Z</time>
      </trkpt>
      <trkpt lat="45.7488" lon="3.29897">
        <ele>380.6</ele>
        <time>2024-05-19T07:47:20Z</time>
      </trkpt>
      <trkpt lat="45.74881" lon="3.29893">
        <ele>380.8</ele>
        <time>2024-05-19T07:47:21Z</time>
      </trkpt>
      <trkpt lat="45.74881" lon="3.29889">
        <ele>381.2</ele>
        <time>2024-05-19T07:47:22Z</time>
      </trkpt>
      <trkpt lat="45.74881" lon="3.29885">
        <ele>381.4</ele>
        <time>2024-05-19T07:47:23Z</time>
      </trkpt>
      <trkpt lat="45.74881" lon="3.29882">
        <ele>381.6</ele>
        <time>2024-05-19T07:47:24Z</time>
      </trkpt>
      <trkpt lat="45.74882" lon="3.29878">
        <ele>381.8</ele>
        <time>2024-05-19T07:47:25Z</time>
      </trkpt>
      <trkpt lat="45.74882" lon="3.29873">
        <ele>382.2</ele>
        <time>2024-05-19T07:47:26Z</time>
      </trkpt>
      <trkpt lat="45.74882" lon="3.29869">
        <ele>382.4</ele>
        <time>2024-05-19T07:47:27Z</time>
      </trkpt>
      <trkpt lat="45.74883" lon="3.29866">
        <ele>382.6</ele>
        <time>2024-05-19T07:47:28Z</time>
      </trkpt>
      <trkpt lat="45.74883" lon="3.29863">
        <ele>383</ele>
        <time>2024-05-19T07:47:29Z</time>
      </trkpt>
      <trkpt lat="45.74883" lon="3.29859">
        <ele>383.2</ele>
        <time>2024-05-19T07:47:30Z</time>
      </trkpt>
      <trkpt lat="45.74883" lon="3.29856">
        <ele>383.4</ele>
        <time>2024-05-19T07:47:31Z</time>
      </trkpt>
      <trkpt lat="45.74884" lon="3.29852">
        <ele>383.6</ele>
        <time>2024-05-19T07:47:32Z</time>
      </trkpt>
      <trkpt lat="45.74884" lon="3.29849">
        <ele>383.8</ele>
        <time>2024-05-19T07:47:33Z</time>
      </trkpt>
      <trkpt lat="45.74884" lon="3.29845">
        <ele>384</ele>
        <time>2024-05-19T07:47:34Z</time>
      </trkpt>
      <trkpt lat="45.74884" lon="3.29842">
        <ele>384.2</ele>
        <time>2024-05-19T07:47:35Z</time>
      </trkpt>
      <trkpt lat="45.74885" lon="3.29838">
        <ele>384.6</ele>
        <time>2024-05-19T07:47:36Z</time>
      </trkpt>
      <trkpt lat="45.74885" lon="3.29835">
        <ele>384.8</ele>
        <time>2024-05-19T07:47:37Z</time>
      </trkpt>
      <trkpt lat="45.74885" lon="3.29831">
        <ele>385</ele>
        <time>2024-05-19T07:47:38Z</time>
      </trkpt>
      <trkpt lat="45.74885" lon="3.29828">
        <ele>385.2</ele>
        <time>2024-05-19T07:47:39Z</time>
      </trkpt>
      <trkpt lat="45.74886" lon="3.29825">
        <ele>385.6</ele>
        <time>2024-05-19T07:47:40Z</time>
      </trkpt>
      <trkpt lat="45.74886" lon="3.29822">
        <ele>385.8</ele>
        <time>2024-05-19T07:47:41Z</time>
      </trkpt>
      <trkpt lat="45.74886" lon="3.29819">
        <ele>386</ele>
        <time>2024-05-19T07:47:42Z</time>
      </trkpt>
      <trkpt lat="45.74886" lon="3.29816">
        <ele>386.2</ele>
        <time>2024-05-19T07:47:43Z</time>
      </trkpt>
      <trkpt lat="45.74886" lon="3.29813">
        <ele>386.6</ele>
        <time>2024-05-19T07:47:44Z</time>
      </trkpt>
      <trkpt lat="45.74887" lon="3.2981">
        <ele>386.8</ele>
        <time>2024-05-19T07:47:45Z</time>
      </trkpt>
      <trkpt lat="45.74887" lon="3.29807">
        <ele>387</ele>
        <time>2024-05-19T07:47:46Z</time>
      </trkpt>
      <trkpt lat="45.74887" lon="3.29804">
        <ele>387.2</ele>
        <time>2024-05-19T07:47:47Z</time>
      </trkpt>
      <trkpt lat="45.74887" lon="3.298">
        <ele>387.4</ele>
        <time>2024-05-19T07:47:48Z</time>
      </trkpt>
      <trkpt lat="45.74888" lon="3.29797">
        <ele>387.8</ele>
        <time>2024-05-19T07:47:49Z</time>
      </trkpt>
      <trkpt lat="45.74888" lon="3.29794">
        <ele>388</ele>
        <time>2024-05-19T07:47:50Z</time>
      </trkpt>
      <trkpt lat="45.74888" lon="3.29791">
        <ele>388.2</ele>
        <time>2024-05-19T07:47:51Z</time>
      </trkpt>
      <trkpt lat="45.74888" lon="3.29788">
        <ele>388.4</ele>
        <time>2024-05-19T07:47:52Z</time>
      </trkpt>
      <trkpt lat="45.74888" lon="3.29785">
        <ele>388.6</ele>
        <time>2024-05-19T07:47:53Z</time>
      </trkpt>
      <trkpt lat="45.74889" lon="3.29782">
        <ele>389</ele>
        <time>2024-05-19T07:47:54Z</time>
      </trkpt>
      <trkpt lat="45.74889" lon="3.29779">
        <ele>389.2</ele>
        <time>2024-05-19T07:47:55Z</time>
      </trkpt>
      <trkpt lat="45.74889" lon="3.29776">
        <ele>389.4</ele>
        <time>2024-05-19T07:47:56Z</time>
      </trkpt>
      <trkpt lat="45.74889" lon="3.29772">
        <ele>389.6</ele>
        <time>2024-05-19T07:47:57Z</time>
      </trkpt>
      <trkpt lat="45.7489" lon="3.29769">
        <ele>389.8</ele>
        <time>2024-05-19T07:47:58Z</time>
      </trkpt>
      <trkpt lat="45.7489" lon="3.29766">
        <ele>390</ele>
        <time>2024-05-19T07:47:59Z</time>
      </trkpt>
      <trkpt lat="45.7489" lon="3.29763">
        <ele>390.4</ele>
        <time>2024-05-19T07:48:00Z</time>
      </trkpt>
      <trkpt lat="45.7489" lon="3.29761">
        <ele>390.6</ele>
        <time>2024-05-19T07:48:01Z</time>
      </trkpt>
      <trkpt lat="45.7489" lon="3.29758">
        <ele>390.8</ele>
        <time>2024-05-19T07:48:02Z</time>
      </trkpt>
      <trkpt lat="45.74891" lon="3.29755">
        <ele>391</ele>
        <time>2024-05-19T07:48:03Z</time>
      </trkpt>
      <trkpt lat="45.74891" lon="3.29752">
        <ele>391.4</ele>
        <time>2024-05-19T07:48:04Z</time>
      </trkpt>
      <trkpt lat="45.74891" lon="3.29749">
        <ele>391.6</ele>
        <time>2024-05-19T07:48:05Z</time>
      </trkpt>
      <trkpt lat="45.74891" lon="3.29746">
        <ele>391.8</ele>
        <time>2024-05-19T07:48:06Z</time>
      </trkpt>
      <trkpt lat="45.74892" lon="3.29743">
        <ele>392.2</ele>
        <time>2024-05-19T07:48:07Z</time>
      </trkpt>
      <trkpt lat="45.74892" lon="3.2974">
        <ele>392.4</ele>
        <time>2024-05-19T07:48:08Z</time>
      </trkpt>
      <trkpt lat="45.74892" lon="3.29737">
        <ele>392.6</ele>
        <time>2024-05-19T07:48:09Z</time>
      </trkpt>
      <trkpt lat="45.74892" lon="3.29734">
        <ele>392.8</ele>
        <time>2024-05-19T07:48:10Z</time>
      </trkpt>
      <trkpt lat="45.74892" lon="3.29731">
        <ele>393</ele>
        <time>2024-05-19T07:48:11Z</time>
      </trkpt>
      <trkpt lat="45.74893" lon="3.29728">
        <ele>393.2</ele>
        <time>2024-05-19T07:48:12Z</time>
      </trkpt>
      <trkpt lat="45.74893" lon="3.29725">
        <ele>393.6</ele>
        <time>2024-05-19T07:48:13Z</time>
      </trkpt>
      <trkpt lat="45.74893" lon="3.29723">
        <ele>393.8</ele>
        <time>2024-05-19T07:48:14Z</time>
      </trkpt>
      <trkpt lat="45.74893" lon="3.2972">
        <ele>394</ele>
        <time>2024-05-19T07:48:15Z</time>
      </trkpt>
      <trkpt lat="45.74893" lon="3.29717">
        <ele>394.4</ele>
        <time>2024-05-19T07:48:16Z</time>
      </trkpt>
      <trkpt lat="45.74894" lon="3.29713">
        <ele>394.6</ele>
        <time>2024-05-19T07:48:17Z</time>
      </trkpt>
      <trkpt lat="45.74894" lon="3.2971">
        <ele>394.8</ele>
        <time>2024-05-19T07:48:18Z</time>
      </trkpt>
      <trkpt lat="45.74894" lon="3.29707">
        <ele>395</ele>
        <time>2024-05-19T07:48:19Z</time>
      </trkpt>
      <trkpt lat="45.74894" lon="3.29704">
        <ele>395.4</ele>
        <time>2024-05-19T07:48:20Z</time>
      </trkpt>
      <trkpt lat="45.74895" lon="3.297">
        <ele>395.6</ele>
        <time>2024-05-19T07:48:21Z</time>
      </trkpt>
      <trkpt lat="45.74895" lon="3.29697">
        <ele>395.8</ele>
        <time>2024-05-19T07:48:22Z</time>
      </trkpt>
      <trkpt lat="45.74895" lon="3.29694">
        <ele>396</ele>
        <time>2024-05-19T07:48:23Z</time>
      </trkpt>
      <trkpt lat="45.74895" lon="3.2969">
        <ele>396.2</ele>
        <time>2024-05-19T07:48:24Z</time>
      </trkpt>
      <trkpt lat="45.74896" lon="3.29687">
        <ele>396.4</ele>
        <time>2024-05-19T07:48:25Z</time>
      </trkpt>
      <trkpt lat="45.74896" lon="3.29683">
        <ele>396.8</ele>
        <time>2024-05-19T07:48:26Z</time>
      </trkpt>
      <trkpt lat="45.74896" lon="3.2968">
        <ele>397</ele>
        <time>2024-05-19T07:48:27Z</time>
      </trkpt>
      <trkpt lat="45.74896" lon="3.29676">
        <ele>397.2</ele>
        <time>2024-05-19T07:48:28Z</time>
      </trkpt>
      <trkpt lat="45.74897" lon="3.29673">
        <ele>397.4</ele>
        <time>2024-05-19T07:48:29Z</time>
      </trkpt>
      <trkpt lat="45.74897" lon="3.2967">
        <ele>397.8</ele>
        <time>2024-05-19T07:48:30Z</time>
      </trkpt>
      <trkpt lat="45.74897" lon="3.29667">
        <ele>398</ele>
        <time>2024-05-19T07:48:31Z</time>
      </trkpt>
      <trkpt lat="45.74897" lon="3.29664">
        <ele>398.2</ele>
        <time>2024-05-19T07:48:32Z</time>
      </trkpt>
      <trkpt lat="45.74898" lon="3.2966">
        <ele>398.4</ele>
        <time>2024-05-19T07:48:33Z</time>
      </trkpt>
      <trkpt lat="45.74898" lon="3.29657">
        <ele>398.8</ele>
        <time>2024-05-19T07:48:34Z</time>
      </trkpt>
      <trkpt lat="45.74898" lon="3.29654">
        <ele>399</ele>
        <time>2024-05-19T07:48:35Z</time>
      </trkpt>
      <trkpt lat="45.74898" lon="3.29651">
        <ele>399.2</ele>
        <time>2024-05-19T07:48:36Z</time>
      </trkpt>
      <trkpt lat="45.74898" lon="3.29647">
        <ele>399.4</ele>
        <time>2024-05-19T07:48:37Z</time>
      </trkpt>
      <trkpt lat="45.74899" lon="3.29644">
        <ele>399.6</ele>
        <time>2024-05-19T07:48:38Z</time>
      </trkpt>
      <trkpt lat="45.74899" lon="3.29641">
        <ele>400</ele>
        <time>2024-05-19T07:48:39Z</time>
      </trkpt>
      <trkpt lat="45.74899" lon="3.29638">
        <ele>400.2</ele>
        <time>2024-05-19T07:48:40Z</time>
      </trkpt>
      <trkpt lat="45.74899" lon="3.29634">
        <ele>400.4</ele>
        <time>2024-05-19T07:48:41Z</time>
      </trkpt>
      <trkpt lat="45.749" lon="3.29631">
        <ele>400.6</ele>
        <time>2024-05-19T07:48:42Z</time>
      </trkpt>
      <trkpt lat="45.749" lon="3.29627">
        <ele>400.8</ele>
        <time>2024-05-19T07:48:43Z</time>
      </trkpt>
      <trkpt lat="45.749" lon="3.29624">
        <ele>401</ele>
        <time>2024-05-19T07:48:44Z</time>
      </trkpt>
      <trkpt lat="45.749" lon="3.2962">
        <ele>401.2</ele>
        <time>2024-05-19T07:48:45Z</time>
      </trkpt>
      <trkpt lat="45.74901" lon="3.29617">
        <ele>401.4</ele>
        <time>2024-05-19T07:48:46Z</time>
      </trkpt>
      <trkpt lat="45.74901" lon="3.29613">
        <ele>401.6</ele>
        <time>2024-05-19T07:48:47Z</time>
      </trkpt>
      <trkpt lat="45.74901" lon="3.2961">
        <ele>401.6</ele>
        <time>2024-05-19T07:48:48Z</time>
      </trkpt>
      <trkpt lat="45.74901" lon="3.29607">
        <ele>401.8</ele>
        <time>2024-05-19T07:48:49Z</time>
      </trkpt>
      <trkpt lat="45.74901" lon="3.29604">
        <ele>402</ele>
        <time>2024-05-19T07:48:50Z</time>
      </trkpt>
      <trkpt lat="45.74902" lon="3.296">
        <ele>402.2</ele>
        <time>2024-05-19T07:48:51Z</time>
      </trkpt>
      <trkpt lat="45.74902" lon="3.29597">
        <ele>402.2</ele>
        <time>2024-05-19T07:48:52Z</time>
      </trkpt>
      <trkpt lat="45.74902" lon="3.29594">
        <ele>402.4</ele>
        <time>2024-05-19T07:48:53Z</time>
      </trkpt>
      <trkpt lat="45.74902" lon="3.2959">
        <ele>402.6</ele>
        <time>2024-05-19T07:48:54Z</time>
      </trkpt>
      <trkpt lat="45.74903" lon="3.29587">
        <ele>403</ele>
        <time>2024-05-19T07:48:55Z</time>
      </trkpt>
      <trkpt lat="45.74903" lon="3.29584">
        <ele>403.2</ele>
        <time>2024-05-19T07:48:56Z</time>
      </trkpt>
      <trkpt lat="45.74903" lon="3.29581">
        <ele>403.4</ele>
        <time>2024-05-19T07:48:57Z</time>
      </trkpt>
      <trkpt lat="45.74903" lon="3.29578">
        <ele>403.6</ele>
        <time>2024-05-19T07:48:58Z</time>
      </trkpt>
      <trkpt lat="45.74903" lon="3.29575">
        <ele>403.8</ele>
        <time>2024-05-19T07:48:59Z</time>
      </trkpt>
      <trkpt lat="45.74904" lon="3.29572">
        <ele>404</ele>
        <time>2024-05-19T07:49:00Z</time>
      </trkpt>
      <trkpt lat="45.74904" lon="3.29569">
        <ele>404.2</ele>
        <time>2024-05-19T07:49:01Z</time>
      </trkpt>
      <trkpt lat="45.74904" lon="3.29566">
        <ele>404.4</ele>
        <time>2024-05-19T07:49:02Z</time>
      </trkpt>
      <trkpt lat="45.74904" lon="3.29563">
        <ele>404.6</ele>
        <time>2024-05-19T07:49:03Z</time>
      </trkpt>
      <trkpt lat="45.74904" lon="3.2956">
        <ele>404.8</ele>
        <time>2024-05-19T07:49:04Z</time>
      </trkpt>
      <trkpt lat="45.74904" lon="3.29557">
        <ele>405</ele>
        <time>2024-05-19T07:49:05Z</time>
      </trkpt>
      <trkpt lat="45.74904" lon="3.29554">
        <ele>405.2</ele>
        <time>2024-05-19T07:49:06Z</time>
      </trkpt>
      <trkpt lat="45.74904" lon="3.29551">
        <ele>405.6</ele>
        <time>2024-05-19T07:49:07Z</time>
      </trkpt>
      <trkpt lat="45.74904" lon="3.29548">
        <ele>405.8</ele>
        <time>2024-05-19T07:49:08Z</time>
      </trkpt>
      <trkpt lat="45.74903" lon="3.29545">
        <ele>406</ele>
        <time>2024-05-19T07:49:09Z</time>
      </trkpt>
      <trkpt lat="45.74903" lon="3.29542">
        <ele>406.2</ele>
        <time>2024-05-19T07:49:10Z</time>
      </trkpt>
      <trkpt lat="45.74903" lon="3.29538">
        <ele>406.4</ele>
        <time>2024-05-19T07:49:11Z</time>
      </trkpt>
      <trkpt lat="45.74903" lon="3.29535">
        <ele>406.6</ele>
        <time>2024-05-19T07:49:12Z</time>
      </trkpt>
      <trkpt lat="45.74903" lon="3.29532">
        <ele>406.8</ele>
        <time>2024-05-19T07:49:13Z</time>
      </trkpt>
      <trkpt lat="45.74902" lon="3.29529">
        <ele>407</ele>
        <time>2024-05-19T07:49:14Z</time>
      </trkpt>
      <trkpt lat="45.74902" lon="3.29526">
        <ele>407.2</ele>
        <time>2024-05-19T07:49:15Z</time>
      </trkpt>
      <trkpt lat="45.74902" lon="3.29523">
        <ele>407.4</ele>
        <time>2024-05-19T07:49:16Z</time>
      </trkpt>
      <trkpt lat="45.74902" lon="3.2952">
        <ele>407.6</ele>
        <time>2024-05-19T07:49:17Z</time>
      </trkpt>
      <trkpt lat="45.74902" lon="3.29517">
        <ele>407.8</ele>
        <time>2024-05-19T07:49:18Z</time>
      </trkpt>
      <trkpt lat="45.74902" lon="3.29514">
        <ele>408</ele>
        <time>2024-05-19T07:49:19Z</time>
      </trkpt>
      <trkpt lat="45.74901" lon="3.29511">
        <ele>408.2</ele>
        <time>2024-05-19T07:49:20Z</time>
      </trkpt>
      <trkpt lat="45.74901" lon="3.29508">
        <ele>408.4</ele>
        <time>2024-05-19T07:49:21Z</time>
      </trkpt>
      <trkpt lat="45.74901" lon="3.29505">
        <ele>408.6</ele>
        <time>2024-05-19T07:49:22Z</time>
      </trkpt>
      <trkpt lat="45.74901" lon="3.29502">
        <ele>408.8</ele>
        <time>2024-05-19T07:49:23Z</time>
      </trkpt>
      <trkpt lat="45.74901" lon="3.29499">
        <ele>409</ele>
        <time>2024-05-19T07:49:24Z</time>
      </trkpt>
      <trkpt lat="45.74901" lon="3.29496">
        <ele>409.2</ele>
        <time>2024-05-19T07:49:25Z</time>
      </trkpt>
      <trkpt lat="45.74901" lon="3.29493">
        <ele>409.2</ele>
        <time>2024-05-19T07:49:26Z</time>
      </trkpt>
      <trkpt lat="45.749" lon="3.29489">
        <ele>409.4</ele>
        <time>2024-05-19T07:49:27Z</time>
      </trkpt>
      <trkpt lat="45.749" lon="3.29486">
        <ele>409.6</ele>
        <time>2024-05-19T07:49:28Z</time>
      </trkpt>
      <trkpt lat="45.749" lon="3.29483">
        <ele>410</ele>
        <time>2024-05-19T07:49:29Z</time>
      </trkpt>
      <trkpt lat="45.749" lon="3.29479">
        <ele>410.2</ele>
        <time>2024-05-19T07:49:30Z</time>
      </trkpt>
      <trkpt lat="45.749" lon="3.29476">
        <ele>410.2</ele>
        <time>2024-05-19T07:49:31Z</time>
      </trkpt>
      <trkpt lat="45.74899" lon="3.29472">
        <ele>410.4</ele>
        <time>2024-05-19T07:49:32Z</time>
      </trkpt>
      <trkpt lat="45.74899" lon="3.29469">
        <ele>410.6</ele>
        <time>2024-05-19T07:49:33Z</time>
      </trkpt>
      <trkpt lat="45.74899" lon="3.29466">
        <ele>410.8</ele>
        <time>2024-05-19T07:49:34Z</time>
      </trkpt>
      <trkpt lat="45.74899" lon="3.29462">
        <ele>411</ele>
        <time>2024-05-19T07:49:35Z</time>
      </trkpt>
      <trkpt lat="45.74899" lon="3.29459">
        <ele>411.2</ele>
        <time>2024-05-19T07:49:36Z</time>
      </trkpt>
      <trkpt lat="45.74899" lon="3.29456">
        <ele>411.4</ele>
        <time>2024-05-19T07:49:37Z</time>
      </trkpt>
      <trkpt lat="45.74898" lon="3.29453">
        <ele>411.6</ele>
        <time>2024-05-19T07:49:38Z</time>
      </trkpt>
      <trkpt lat="45.74898" lon="3.29449">
        <ele>411.8</ele>
        <time>2024-05-19T07:49:39Z</time>
      </trkpt>
      <trkpt lat="45.74898" lon="3.29446">
        <ele>412</ele>
        <time>2024-05-19T07:49:40Z</time>
      </trkpt>
      <trkpt lat="45.74898" lon="3.29443">
        <ele>412.2</ele>
        <time>2024-05-19T07:49:41Z</time>
      </trkpt>
      <trkpt lat="45.74898" lon="3.29439">
        <ele>412.4</ele>
        <time>2024-05-19T07:49:42Z</time>
      </trkpt>
      <trkpt lat="45.74898" lon="3.29436">
        <ele>412.6</ele>
        <time>2024-05-19T07:49:43Z</time>
      </trkpt>
      <trkpt lat="45.74897" lon="3.29432">
        <ele>412.6</ele>
        <time>2024-05-19T07:49:44Z</time>
      </trkpt>
      <trkpt lat="45.74897" lon="3.29429">
        <ele>412.8</ele>
        <time>2024-05-19T07:49:45Z</time>
      </trkpt>
      <trkpt lat="45.74897" lon="3.29425">
        <ele>413</ele>
        <time>2024-05-19T07:49:46Z</time>
      </trkpt>
      <trkpt lat="45.74897" lon="3.29422">
        <ele>413.2</ele>
        <time>2024-05-19T07:49:47Z</time>
      </trkpt>
      <trkpt lat="45.74897" lon="3.29419">
        <ele>413.4</ele>
        <time>2024-05-19T07:49:48Z</time>
      </trkpt>
      <trkpt lat="45.74897" lon="3.29415">
        <ele>413.6</ele>
        <time>2024-05-19T07:49:49Z</time>
      </trkpt>
      <trkpt lat="45.74896" lon="3.29412">
        <ele>413.8</ele>
        <time>2024-05-19T07:49:50Z</time>
      </trkpt>
      <trkpt lat="45.74896" lon="3.29408">
        <ele>414</ele>
        <time>2024-05-19T07:49:51Z</time>
      </trkpt>
      <trkpt lat="45.74896" lon="3.29405">
        <ele>414.2</ele>
        <time>2024-05-19T07:49:52Z</time>
      </trkpt>
      <trkpt lat="45.74896" lon="3.29402">
        <ele>414.4</ele>
        <time>2024-05-19T07:49:53Z</time>
      </trkpt>
      <trkpt lat="45.74896" lon="3.29398">
        <ele>414.6</ele>
        <time>2024-05-19T07:49:54Z</time>
      </trkpt>
      <trkpt lat="45.74896" lon="3.29395">
        <ele>414.8</ele>
        <time>2024-05-19T07:49:55Z</time>
      </trkpt>
      <trkpt lat="45.74895" lon="3.29392">
        <ele>415</ele>
        <time>2024-05-19T07:49:56Z</time>
      </trkpt>
      <trkpt lat="45.74895" lon="3.29388">
        <ele>415.2</ele>
        <time>2024-05-19T07:49:57Z</time>
      </trkpt>
      <trkpt lat="45.74895" lon="3.29385">
        <ele>415.4</ele>
        <time>2024-05-19T07:49:58Z</time>
      </trkpt>
      <trkpt lat="45.74895" lon="3.29381">
        <ele>415.6</ele>
        <time>2024-05-19T07:49:59Z</time>
      </trkpt>
      <trkpt lat="45.74895" lon="3.29377">
        <ele>415.8</ele>
        <time>2024-05-19T07:50:00Z</time>
      </trkpt>
      <trkpt lat="45.74895" lon="3.29374">
        <ele>416</ele>
        <time>2024-05-19T07:50:01Z</time>
      </trkpt>
      <trkpt lat="45.74894" lon="3.2937">
        <ele>416.2</ele>
        <time>2024-05-19T07:50:02Z</time>
      </trkpt>
      <trkpt lat="45.74894" lon="3.29367">
        <ele>416.4</ele>
        <time>2024-05-19T07:50:03Z</time>
      </trkpt>
      <trkpt lat="45.74894" lon="3.29363">
        <ele>416.6</ele>
        <time>2024-05-19T07:50:04Z</time>
      </trkpt>
      <trkpt lat="45.74894" lon="3.2936">
        <ele>416.6</ele>
        <time>2024-05-19T07:50:05Z</time>
      </trkpt>
      <trkpt lat="45.74894" lon="3.29357">
        <ele>416.8</ele>
        <time>2024-05-19T07:50:06Z</time>
      </trkpt>
      <trkpt lat="45.74893" lon="3.29353">
        <ele>417.2</ele>
        <time>2024-05-19T07:50:07Z</time>
      </trkpt>
      <trkpt lat="45.74893" lon="3.29349">
        <ele>417.4</ele>
        <time>2024-05-19T07:50:08Z</time>
      </trkpt>
      <trkpt lat="45.74893" lon="3.29345">
        <ele>417.6</ele>
        <time>2024-05-19T07:50:09Z</time>
      </trkpt>
      <trkpt lat="45.74893" lon="3.29342">
        <ele>417.8</ele>
        <time>2024-05-19T07:50:10Z</time>
      </trkpt>
      <trkpt lat="45.74893" lon="3.29338">
        <ele>418</ele>
        <time>2024-05-19T07:50:11Z</time>
      </trkpt>
      <trkpt lat="45.74893" lon="3.29334">
        <ele>418.2</ele>
        <time>2024-05-19T07:50:12Z</time>
      </trkpt>
      <trkpt lat="45.74892" lon="3.29331">
        <ele>418.4</ele>
        <time>2024-05-19T07:50:13Z</time>
      </trkpt>
      <trkpt lat="45.74892" lon="3.29327">
        <ele>418.6</ele>
        <time>2024-05-19T07:50:14Z</time>
      </trkpt>
      <trkpt lat="45.74892" lon="3.29323">
        <ele>418.6</ele>
        <time>2024-05-19T07:50:15Z</time>
      </trkpt>
      <trkpt lat="45.74892" lon="3.29319">
        <ele>418.8</ele>
        <time>2024-05-19T07:50:16Z</time>
      </trkpt>
      <trkpt lat="45.74892" lon="3.29315">
        <ele>419</ele>
        <time>2024-05-19T07:50:17Z</time>
      </trkpt>
      <trkpt lat="45.74891" lon="3.29311">
        <ele>419.2</ele>
        <time>2024-05-19T07:50:18Z</time>
      </trkpt>
      <trkpt lat="45.74891" lon="3.29307">
        <ele>419.4</ele>
        <time>2024-05-19T07:50:19Z</time>
      </trkpt>
      <trkpt lat="45.7489" lon="3.29303">
        <ele>419.4</ele>
        <time>2024-05-19T07:50:20Z</time>
      </trkpt>
      <trkpt lat="45.7489" lon="3.29299">
        <ele>419.6</ele>
        <time>2024-05-19T07:50:21Z</time>
      </trkpt>
      <trkpt lat="45.74889" lon="3.29296">
        <ele>419.8</ele>
        <time>2024-05-19T07:50:22Z</time>
      </trkpt>
      <trkpt lat="45.74889" lon="3.29292">
        <ele>420</ele>
        <time>2024-05-19T07:50:23Z</time>
      </trkpt>
      <trkpt lat="45.74888" lon="3.29288">
        <ele>420.2</ele>
        <time>2024-05-19T07:50:24Z</time>
      </trkpt>
      <trkpt lat="45.74888" lon="3.29284">
        <ele>420.4</ele>
        <time>2024-05-19T07:50:25Z</time>
      </trkpt>
      <trkpt lat="45.74887" lon="3.2928">
        <ele>420.6</ele>
        <time>2024-05-19T07:50:26Z</time>
      </trkpt>
      <trkpt lat="45.74887" lon="3.29276">
        <ele>420.8</ele>
        <time>2024-05-19T07:50:27Z</time>
      </trkpt>
      <trkpt lat="45.74887" lon="3.29272">
        <ele>421</ele>
        <time>2024-05-19T07:50:28Z</time>
      </trkpt>
      <trkpt lat="45.74886" lon="3.29267">
        <ele>421.2</ele>
        <time>2024-05-19T07:50:29Z</time>
      </trkpt>
      <trkpt lat="45.74886" lon="3.29263">
        <ele>421.4</ele>
        <time>2024-05-19T07:50:30Z</time>
      </trkpt>
      <trkpt lat="45.74885" lon="3.29258">
        <ele>421.6</ele>
        <time>2024-05-19T07:50:31Z</time>
      </trkpt>
      <trkpt lat="45.74884" lon="3.29253">
        <ele>421.8</ele>
        <time>2024-05-19T07:50:32Z</time>
      </trkpt>
      <trkpt lat="45.74884" lon="3.29249">
        <ele>422</ele>
        <time>2024-05-19T07:50:33Z</time>
      </trkpt>
      <trkpt lat="45.74883" lon="3.29244">
        <ele>422.2</ele>
        <time>2024-05-19T07:50:34Z</time>
      </trkpt>
      <trkpt lat="45.74883" lon="3.29239">
        <ele>422.4</ele>
        <time>2024-05-19T07:50:35Z</time>
      </trkpt>
      <trkpt lat="45.74882" lon="3.29234">
        <ele>422.4</ele>
        <time>2024-05-19T07:50:36Z</time>
      </trkpt>
      <trkpt lat="45.74882" lon="3.29229">
        <ele>422.6</ele>
        <time>2024-05-19T07:50:37Z</time>
      </trkpt>
      <trkpt lat="45.74881" lon="3.29224">
        <ele>422.8</ele>
        <time>2024-05-19T07:50:38Z</time>
      </trkpt>
      <trkpt lat="45.7488" lon="3.29219">
        <ele>423</ele>
        <time>2024-05-19T07:50:39Z</time>
      </trkpt>
      <trkpt lat="45.7488" lon="3.29215">
        <ele>423.2</ele>
        <time>2024-05-19T07:50:40Z</time>
      </trkpt>
      <trkpt lat="45.74879" lon="3.2921">
        <ele>423.4</ele>
        <time>2024-05-19T07:50:41Z</time>
      </trkpt>
      <trkpt lat="45.74879" lon="3.29206">
        <ele>423.6</ele>
        <time>2024-05-19T07:50:42Z</time>
      </trkpt>
      <trkpt lat="45.74878" lon="3.29201">
        <ele>423.8</ele>
        <time>2024-05-19T07:50:43Z</time>
      </trkpt>
      <trkpt lat="45.74878" lon="3.29197">
        <ele>424</ele>
        <time>2024-05-19T07:50:44Z</time>
      </trkpt>
      <trkpt lat="45.74877" lon="3.29193">
        <ele>424</ele>
        <time>2024-05-19T07:50:45Z</time>
      </trkpt>
      <trkpt lat="45.74877" lon="3.29188">
        <ele>424.2</ele>
        <time>2024-05-19T07:50:46Z</time>
      </trkpt>
      <trkpt lat="45.74876" lon="3.29184">
        <ele>424.4</ele>
        <time>2024-05-19T07:50:47Z</time>
      </trkpt>
      <trkpt lat="45.74876" lon="3.2918">
        <ele>424.4</ele>
        <time>2024-05-19T07:50:48Z</time>
      </trkpt>
      <trkpt lat="45.74875" lon="3.29175">
        <ele>424.6</ele>
        <time>2024-05-19T07:50:49Z</time>
      </trkpt>
      <trkpt lat="45.74875" lon="3.2917">
        <ele>424.8</ele>
        <time>2024-05-19T07:50:50Z</time>
      </trkpt>
      <trkpt lat="45.74874" lon="3.29165">
        <ele>425</ele>
        <time>2024-05-19T07:50:51Z</time>
      </trkpt>
      <trkpt lat="45.74874" lon="3.29161">
        <ele>425.2</ele>
        <time>2024-05-19T07:50:52Z</time>
      </trkpt>
      <trkpt lat="45.74873" lon="3.29156">
        <ele>425.4</ele>
        <time>2024-05-19T07:50:53Z</time>
      </trkpt>
      <trkpt lat="45.74873" lon="3.29152">
        <ele>425.6</ele>
        <time>2024-05-19T07:50:54Z</time>
      </trkpt>
      <trkpt lat="45.74872" lon="3.29147">
        <ele>425.8</ele>
        <time>2024-05-19T07:50:55Z</time>
      </trkpt>
      <trkpt lat="45.74872" lon="3.29143">
        <ele>425.8</ele>
        <time>2024-05-19T07:50:56Z</time>
      </trkpt>
      <trkpt lat="45.74871" lon="3.29138">
        <ele>426</ele>
        <time>2024-05-19T07:50:57Z</time>
      </trkpt>
      <trkpt lat="45.74871" lon="3.29133">
        <ele>426.2</ele>
        <time>2024-05-19T07:50:58Z</time>
      </trkpt>
      <trkpt lat="45.7487" lon="3.29129">
        <ele>426.4</ele>
        <time>2024-05-19T07:50:59Z</time>
      </trkpt>
      <trkpt lat="45.74869" lon="3.29124">
        <ele>426.6</ele>
        <time>2024-05-19T07:51:00Z</time>
      </trkpt>
      <trkpt lat="45.74869" lon="3.29119">
        <ele>426.8</ele>
        <time>2024-05-19T07:51:01Z</time>
      </trkpt>
      <trkpt lat="45.74868" lon="3.29114">
        <ele>427</ele>
        <time>2024-05-19T07:51:02Z</time>
      </trkpt>
      <trkpt lat="45.74868" lon="3.29109">
        <ele>427.2</ele>
        <time>2024-05-19T07:51:03Z</time>
      </trkpt>
      <trkpt lat="45.74868" lon="3.29104">
        <ele>427.4</ele>
        <time>2024-05-19T07:51:04Z</time>
      </trkpt>
      <trkpt lat="45.74868" lon="3.29099">
        <ele>427.6</ele>
        <time>2024-05-19T07:51:05Z</time>
      </trkpt>
      <trkpt lat="45.74868" lon="3.29094">
        <ele>427.8</ele>
        <time>2024-05-19T07:51:06Z</time>
      </trkpt>
      <trkpt lat="45.74867" lon="3.29089">
        <ele>428</ele>
        <time>2024-05-19T07:51:07Z</time>
      </trkpt>
      <trkpt lat="45.74867" lon="3.29084">
        <ele>428.2</ele>
        <time>2024-05-19T07:51:08Z</time>
      </trkpt>
      <trkpt lat="45.74867" lon="3.2908">
        <ele>428.4</ele>
        <time>2024-05-19T07:51:09Z</time>
      </trkpt>
      <trkpt lat="45.74867" lon="3.29075">
        <ele>428.6</ele>
        <time>2024-05-19T07:51:10Z</time>
      </trkpt>
      <trkpt lat="45.74867" lon="3.2907">
        <ele>428.6</ele>
        <time>2024-05-19T07:51:11Z</time>
      </trkpt>
      <trkpt lat="45.74867" lon="3.29065">
        <ele>428.8</ele>
        <time>2024-05-19T07:51:12Z</time>
      </trkpt>
      <trkpt lat="45.74867" lon="3.29059">
        <ele>429</ele>
        <time>2024-05-19T07:51:13Z</time>
      </trkpt>
      <trkpt lat="45.74867" lon="3.29053">
        <ele>429.2</ele>
        <time>2024-05-19T07:51:14Z</time>
      </trkpt>
      <trkpt lat="45.74866" lon="3.29047">
        <ele>429.4</ele>
        <time>2024-05-19T07:51:15Z</time>
      </trkpt>
      <trkpt lat="45.74866" lon="3.29041">
        <ele>429.4</ele>
        <time>2024-05-19T07:51:16Z</time>
      </trkpt>
      <trkpt lat="45.74866" lon="3.29036">
        <ele>429.6</ele>
        <time>2024-05-19T07:51:17Z</time>
      </trkpt>
      <trkpt lat="45.74866" lon="3.2903">
        <ele>429.8</ele>
        <time>2024-05-19T07:51:18Z</time>
      </trkpt>
      <trkpt lat="45.74866" lon="3.29023">
        <ele>430</ele>
        <time>2024-05-19T07:51:19Z</time>
      </trkpt>
      <trkpt lat="45.74865" lon="3.29018">
        <ele>430</ele>
        <time>2024-05-19T07:51:20Z</time>
      </trkpt>
      <trkpt lat="45.74865" lon="3.29013">
        <ele>430.2</ele>
        <time>2024-05-19T07:51:21Z</time>
      </trkpt>
      <trkpt lat="45.74864" lon="3.29006">
        <ele>430.2</ele>
        <time>2024-05-19T07:51:22Z</time>
      </trkpt>
      <trkpt lat="45.74863" lon="3.29">
        <ele>430.4</ele>
        <time>2024-05-19T07:51:23Z</time>
      </trkpt>
      <trkpt lat="45.74862" lon="3.28993">
        <ele>430.6</ele>
        <time>2024-05-19T07:51:24Z</time>
      </trkpt>
      <trkpt lat="45.74862" lon="3.28986">
        <ele>430.6</ele>
        <time>2024-05-19T07:51:25Z</time>
      </trkpt>
      <trkpt lat="45.74861" lon="3.28979">
        <ele>430.8</ele>
        <time>2024-05-19T07:51:26Z</time>
      </trkpt>
      <trkpt lat="45.7486" lon="3.28971">
        <ele>430.8</ele>
        <time>2024-05-19T07:51:27Z</time>
      </trkpt>
      <trkpt lat="45.74859" lon="3.28964">
        <ele>431</ele>
        <time>2024-05-19T07:51:28Z</time>
      </trkpt>
      <trkpt lat="45.74857" lon="3.28956">
        <ele>431</ele>
        <time>2024-05-19T07:51:29Z</time>
      </trkpt>
      <trkpt lat="45.74856" lon="3.28948">
        <ele>431.2</ele>
        <time>2024-05-19T07:51:30Z</time>
      </trkpt>
      <trkpt lat="45.74854" lon="3.2894">
        <ele>431.2</ele>
        <time>2024-05-19T07:51:31Z</time>
      </trkpt>
      <trkpt lat="45.74853" lon="3.28932">
        <ele>431.2</ele>
        <time>2024-05-19T07:51:32Z</time>
      </trkpt>
      <trkpt lat="45.74851" lon="3.28924">
        <ele>431.4</ele>
        <time>2024-05-19T07:51:33Z</time>
      </trkpt>
      <trkpt lat="45.7485" lon="3.28916">
        <ele>431.4</ele>
        <time>2024-05-19T07:51:34Z</time>
      </trkpt>
      <trkpt lat="45.74848" lon="3.28907">
        <ele>431.4</ele>
        <time>2024-05-19T07:51:35Z</time>
      </trkpt>
      <trkpt lat="45.74846" lon="3.28897">
        <ele>431.6</ele>
        <time>2024-05-19T07:51:36Z</time>
      </trkpt>
      <trkpt lat="45.74845" lon="3.28887">
        <ele>431.6</ele>
        <time>2024-05-19T07:51:37Z</time>
      </trkpt>
      <trkpt lat="45.74843" lon="3.28877">
        <ele>431.6</ele>
        <time>2024-05-19T07:51:38Z</time>
      </trkpt>
      <trkpt lat="45.74841" lon="3.28866">
        <ele>431.6</ele>
        <time>2024-05-19T07:51:39Z</time>
      </trkpt>
      <trkpt lat="45.7484" lon="3.28856">
        <ele>431.6</ele>
        <time>2024-05-19T07:51:40Z</time>
      </trkpt>
      <trkpt lat="45.74839" lon="3.28844">
        <ele>431.4</ele>
        <time>2024-05-19T07:51:41Z</time>
      </trkpt>
      <trkpt lat="45.74838" lon="3.28833">
        <ele>431.4</ele>
        <time>2024-05-19T07:51:42Z</time>
      </trkpt>
      <trkpt lat="45.74839" lon="3.28822">
        <ele>431.4</ele>
        <time>2024-05-19T07:51:43Z</time>
      </trkpt>
      <trkpt lat="45.74841" lon="3.28811">
        <ele>431.4</ele>
        <time>2024-05-19T07:51:44Z</time>
      </trkpt>
      <trkpt lat="45.74843" lon="3.288">
        <ele>431.4</ele>
        <time>2024-05-19T07:51:45Z</time>
      </trkpt>
      <trkpt lat="45.74845" lon="3.28789">
        <ele>431.4</ele>
        <time>2024-05-19T07:51:46Z</time>
      </trkpt>
      <trkpt lat="45.74847" lon="3.28778">
        <ele>431.4</ele>
        <time>2024-05-19T07:51:47Z</time>
      </trkpt>
      <trkpt lat="45.74849" lon="3.28766">
        <ele>431.4</ele>
        <time>2024-05-19T07:51:48Z</time>
      </trkpt>
      <trkpt lat="45.7485" lon="3.28755">
        <ele>431.4</ele>
        <time>2024-05-19T07:51:49Z</time>
      </trkpt>
      <trkpt lat="45.74852" lon="3.28744">
        <ele>431.4</ele>
        <time>2024-05-19T07:51:50Z</time>
      </trkpt>
      <trkpt lat="45.74854" lon="3.28733">
        <ele>431.4</ele>
        <time>2024-05-19T07:51:51Z</time>
      </trkpt>
      <trkpt lat="45.74855" lon="3.28723">
        <ele>431.4</ele>
        <time>2024-05-19T07:51:52Z</time>
      </trkpt>
      <trkpt lat="45.74857" lon="3.28713">
        <ele>432</ele>
        <time>2024-05-19T07:51:53Z</time>
      </trkpt>
      <trkpt lat="45.74859" lon="3.28704">
        <ele>431.8</ele>
        <time>2024-05-19T07:51:54Z</time>
      </trkpt>
      <trkpt lat="45.74861" lon="3.28694">
        <ele>431.6</ele>
        <time>2024-05-19T07:51:55Z</time>
      </trkpt>
      <trkpt lat="45.74862" lon="3.28684">
        <ele>431</ele>
        <time>2024-05-19T07:51:56Z</time>
      </trkpt>
      <trkpt lat="45.74865" lon="3.28675">
        <ele>431</ele>
        <time>2024-05-19T07:51:57Z</time>
      </trkpt>
      <trkpt lat="45.74867" lon="3.28664">
        <ele>431</ele>
        <time>2024-05-19T07:51:58Z</time>
      </trkpt>
      <trkpt lat="45.74869" lon="3.28654">
        <ele>430.8</ele>
        <time>2024-05-19T07:51:59Z</time>
      </trkpt>
      <trkpt lat="45.74871" lon="3.28644">
        <ele>430.8</ele>
        <time>2024-05-19T07:52:00Z</time>
      </trkpt>
      <trkpt lat="45.74874" lon="3.28633">
        <ele>431.2</ele>
        <time>2024-05-19T07:52:01Z</time>
      </trkpt>
      <trkpt lat="45.74876" lon="3.28623">
        <ele>431.2</ele>
        <time>2024-05-19T07:52:02Z</time>
      </trkpt>
      <trkpt lat="45.74878" lon="3.28613">
        <ele>431</ele>
        <time>2024-05-19T07:52:03Z</time>
      </trkpt>
      <trkpt lat="45.74881" lon="3.28602">
        <ele>431</ele>
        <time>2024-05-19T07:52:04Z</time>
      </trkpt>
      <trkpt lat="45.74883" lon="3.28591">
        <ele>431</ele>
        <time>2024-05-19T07:52:05Z</time>
      </trkpt>
      <trkpt lat="45.74885" lon="3.28581">
        <ele>430.8</ele>
        <time>2024-05-19T07:52:06Z</time>
      </trkpt>
      <trkpt lat="45.74888" lon="3.2857">
        <ele>430.8</ele>
        <time>2024-05-19T07:52:07Z</time>
      </trkpt>
      <trkpt lat="45.7489" lon="3.28559">
        <ele>430.6</ele>
        <time>2024-05-19T07:52:08Z</time>
      </trkpt>
      <trkpt lat="45.74892" lon="3.28549">
        <ele>430.6</ele>
        <time>2024-05-19T07:52:09Z</time>
      </trkpt>
      <trkpt lat="45.74895" lon="3.28538">
        <ele>430.6</ele>
        <time>2024-05-19T07:52:10Z</time>
      </trkpt>
      <trkpt lat="45.74897" lon="3.28528">
        <ele>430.6</ele>
        <time>2024-05-19T07:52:11Z</time>
      </trkpt>
      <trkpt lat="45.74899" lon="3.28517">
        <ele>430.6</ele>
        <time>2024-05-19T07:52:12Z</time>
      </trkpt>
      <trkpt lat="45.74902" lon="3.28506">
        <ele>430.4</ele>
        <time>2024-05-19T07:52:13Z</time>
      </trkpt>
      <trkpt lat="45.74904" lon="3.28494">
        <ele>430.4</ele>
        <time>2024-05-19T07:52:14Z</time>
      </trkpt>
      <trkpt lat="45.74907" lon="3.28483">
        <ele>430.2</ele>
        <time>2024-05-19T07:52:15Z</time>
      </trkpt>
      <trkpt lat="45.74909" lon="3.28471">
        <ele>430.2</ele>
        <time>2024-05-19T07:52:16Z</time>
      </trkpt>
      <trkpt lat="45.74912" lon="3.2846">
        <ele>430</ele>
        <time>2024-05-19T07:52:17Z</time>
      </trkpt>
      <trkpt lat="45.74914" lon="3.28447">
        <ele>429.8</ele>
        <time>2024-05-19T07:52:18Z</time>
      </trkpt>
      <trkpt lat="45.74918" lon="3.28435">
        <ele>429.6</ele>
        <time>2024-05-19T07:52:19Z</time>
      </trkpt>
      <trkpt lat="45.74921" lon="3.28423">
        <ele>429.4</ele>
        <time>2024-05-19T07:52:20Z</time>
      </trkpt>
      <trkpt lat="45.74925" lon="3.2841">
        <ele>429.2</ele>
        <time>2024-05-19T07:52:21Z</time>
      </trkpt>
      <trkpt lat="45.74928" lon="3.28397">
        <ele>428.8</ele>
        <time>2024-05-19T07:52:22Z</time>
      </trkpt>
      <trkpt lat="45.74932" lon="3.28384">
        <ele>428.6</ele>
        <time>2024-05-19T07:52:23Z</time>
      </trkpt>
      <trkpt lat="45.74936" lon="3.28371">
        <ele>428.4</ele>
        <time>2024-05-19T07:52:24Z</time>
      </trkpt>
      <trkpt lat="45.74939" lon="3.28357">
        <ele>428</ele>
        <time>2024-05-19T07:52:25Z</time>
      </trkpt>
      <trkpt lat="45.74944" lon="3.28344">
        <ele>427.8</ele>
        <time>2024-05-19T07:52:26Z</time>
      </trkpt>
      <trkpt lat="45.7495" lon="3.28332">
        <ele>427.6</ele>
        <time>2024-05-19T07:52:27Z</time>
      </trkpt>
      <trkpt lat="45.74955" lon="3.2832">
        <ele>427.4</ele>
        <time>2024-05-19T07:52:28Z</time>
      </trkpt>
      <trkpt lat="45.7496" lon="3.28309">
        <ele>427.2</ele>
        <time>2024-05-19T07:52:29Z</time>
      </trkpt>
      <trkpt lat="45.74965" lon="3.28298">
        <ele>426.8</ele>
        <time>2024-05-19T07:52:30Z</time>
      </trkpt>
      <trkpt lat="45.7497" lon="3.28287">
        <ele>426.6</ele>
        <time>2024-05-19T07:52:31Z</time>
      </trkpt>
      <trkpt lat="45.74975" lon="3.28276">
        <ele>426.4</ele>
        <time>2024-05-19T07:52:32Z</time>
      </trkpt>
      <trkpt lat="45.74981" lon="3.28264">
        <ele>426.2</ele>
        <time>2024-05-19T07:52:33Z</time>
      </trkpt>
      <trkpt lat="45.74986" lon="3.28253">
        <ele>426</ele>
        <time>2024-05-19T07:52:34Z</time>
      </trkpt>
      <trkpt lat="45.74991" lon="3.28242">
        <ele>425.8</ele>
        <time>2024-05-19T07:52:35Z</time>
      </trkpt>
      <trkpt lat="45.74997" lon="3.28231">
        <ele>425.6</ele>
        <time>2024-05-19T07:52:36Z</time>
      </trkpt>
      <trkpt lat="45.75005" lon="3.28223">
        <ele>425.2</ele>
        <time>2024-05-19T07:52:37Z</time>
      </trkpt>
      <trkpt lat="45.75012" lon="3.28214">
        <ele>425</ele>
        <time>2024-05-19T07:52:38Z</time>
      </trkpt>
      <trkpt lat="45.75019" lon="3.28206">
        <ele>424.8</ele>
        <time>2024-05-19T07:52:39Z</time>
      </trkpt>
      <trkpt lat="45.75026" lon="3.28199">
        <ele>424.6</ele>
        <time>2024-05-19T07:52:40Z</time>
      </trkpt>
      <trkpt lat="45.75032" lon="3.28192">
        <ele>424.4</ele>
        <time>2024-05-19T07:52:41Z</time>
      </trkpt>
      <trkpt lat="45.75039" lon="3.28185">
        <ele>424.2</ele>
        <time>2024-05-19T07:52:42Z</time>
      </trkpt>
      <trkpt lat="45.75045" lon="3.28179">
        <ele>423.8</ele>
        <time>2024-05-19T07:52:43Z</time>
      </trkpt>
      <trkpt lat="45.7505" lon="3.2817">
        <ele>423.6</ele>
        <time>2024-05-19T07:52:44Z</time>
      </trkpt>
      <trkpt lat="45.75054" lon="3.2816">
        <ele>423.2</ele>
        <time>2024-05-19T07:52:45Z</time>
      </trkpt>
      <trkpt lat="45.75057" lon="3.2815">
        <ele>423</ele>
        <time>2024-05-19T07:52:46Z</time>
      </trkpt>
      <trkpt lat="45.75059" lon="3.2814">
        <ele>422.8</ele>
        <time>2024-05-19T07:52:47Z</time>
      </trkpt>
      <trkpt lat="45.75061" lon="3.28129">
        <ele>422.6</ele>
        <time>2024-05-19T07:52:48Z</time>
      </trkpt>
      <trkpt lat="45.75062" lon="3.28118">
        <ele>422.4</ele>
        <time>2024-05-19T07:52:49Z</time>
      </trkpt>
      <trkpt lat="45.75064" lon="3.28107">
        <ele>422.2</ele>
        <time>2024-05-19T07:52:50Z</time>
      </trkpt>
      <trkpt lat="45.75065" lon="3.28096">
        <ele>422</ele>
        <time>2024-05-19T07:52:51Z</time>
      </trkpt>
      <trkpt lat="45.75067" lon="3.28086">
        <ele>421.8</ele>
        <time>2024-05-19T07:52:52Z</time>
      </trkpt>
      <trkpt lat="45.75068" lon="3.28076">
        <ele>421.6</ele>
        <time>2024-05-19T07:52:53Z</time>
      </trkpt>
      <trkpt lat="45.7507" lon="3.28066">
        <ele>421.2</ele>
        <time>2024-05-19T07:52:54Z</time>
      </trkpt>
      <trkpt lat="45.7507" lon="3.28054">
        <ele>421</ele>
        <time>2024-05-19T07:52:55Z</time>
      </trkpt>
      <trkpt lat="45.75065" lon="3.28049">
        <ele>420.8</ele>
        <time>2024-05-19T07:52:56Z</time>
      </trkpt>
      <trkpt lat="45.75059" lon="3.28044">
        <ele>420.4</ele>
        <time>2024-05-19T07:52:57Z</time>
      </trkpt>
      <trkpt lat="45.75054" lon="3.28039">
        <ele>420</ele>
        <time>2024-05-19T07:52:58Z</time>
      </trkpt>
      <trkpt lat="45.75048" lon="3.28034">
        <ele>419.6</ele>
        <time>2024-05-19T07:52:59Z</time>
      </trkpt>
      <trkpt lat="45.75042" lon="3.28026">
        <ele>419.2</ele>
        <time>2024-05-19T07:53:00Z</time>
      </trkpt>
      <trkpt lat="45.75038" lon="3.28017">
        <ele>418.8</ele>
        <time>2024-05-19T07:53:01Z</time>
      </trkpt>
      <trkpt lat="45.75034" lon="3.28007">
        <ele>418.6</ele>
        <time>2024-05-19T07:53:02Z</time>
      </trkpt>
      <trkpt lat="45.7503" lon="3.27998">
        <ele>418.2</ele>
        <time>2024-05-19T07:53:03Z</time>
      </trkpt>
      <trkpt lat="45.75026" lon="3.27988">
        <ele>417.8</ele>
        <time>2024-05-19T07:53:04Z</time>
      </trkpt>
      <trkpt lat="45.75024" lon="3.27977">
        <ele>417.4</ele>
        <time>2024-05-19T07:53:05Z</time>
      </trkpt>
      <trkpt lat="45.75022" lon="3.27966">
        <ele>417</ele>
        <time>2024-05-19T07:53:06Z</time>
      </trkpt>
      <trkpt lat="45.75019" lon="3.27954">
        <ele>416.8</ele>
        <time>2024-05-19T07:53:07Z</time>
      </trkpt>
      <trkpt lat="45.75018" lon="3.27943">
        <ele>416.4</ele>
        <time>2024-05-19T07:53:08Z</time>
      </trkpt>
      <trkpt lat="45.75018" lon="3.27931">
        <ele>416.2</ele>
        <time>2024-05-19T07:53:09Z</time>
      </trkpt>
      <trkpt lat="45.7502" lon="3.27919">
        <ele>415.8</ele>
        <time>2024-05-19T07:53:10Z</time>
      </trkpt>
      <trkpt lat="45.75022" lon="3.27907">
        <ele>415.4</ele>
        <time>2024-05-19T07:53:11Z</time>
      </trkpt>
      <trkpt lat="45.75024" lon="3.27896">
        <ele>415.2</ele>
        <time>2024-05-19T07:53:12Z</time>
      </trkpt>
      <trkpt lat="45.75027" lon="3.27885">
        <ele>414.8</ele>
        <time>2024-05-19T07:53:13Z</time>
      </trkpt>
      <trkpt lat="45.75032" lon="3.27874">
        <ele>414.6</ele>
        <time>2024-05-19T07:53:14Z</time>
      </trkpt>
      <trkpt lat="45.75036" lon="3.27863">
        <ele>414.2</ele>
        <time>2024-05-19T07:53:15Z</time>
      </trkpt>
      <trkpt lat="45.75041" lon="3.27852">
        <ele>414</ele>
        <time>2024-05-19T07:53:16Z</time>
      </trkpt>
      <trkpt lat="45.75046" lon="3.2784">
        <ele>413.6</ele>
        <time>2024-05-19T07:53:17Z</time>
      </trkpt>
      <trkpt lat="45.7505" lon="3.27829">
        <ele>413.2</ele>
        <time>2024-05-19T07:53:18Z</time>
      </trkpt>
      <trkpt lat="45.75054" lon="3.27819">
        <ele>412.8</ele>
        <time>2024-05-19T07:53:19Z</time>
      </trkpt>
      <trkpt lat="45.75057" lon="3.27811">
        <ele>412.6</ele>
        <time>2024-05-19T07:53:20Z</time>
      </trkpt>
      <trkpt lat="45.75059" lon="3.27805">
        <ele>412.2</ele>
        <time>2024-05-19T07:53:21Z</time>
      </trkpt>
      <trkpt lat="45.75061" lon="3.27801">
        <ele>412</ele>
        <time>2024-05-19T07:53:22Z</time>
      </trkpt>
      <trkpt lat="45.75061" lon="3.278">
        <ele>411.6</ele>
        <time>2024-05-19T07:53:23Z</time>
      </trkpt>
      <trkpt lat="45.75061" lon="3.278">
        <ele>411.4</ele>
        <time>2024-05-19T07:53:24Z</time>
      </trkpt>
      <trkpt lat="45.75054" lon="3.27792">
        <ele>411</ele>
        <time>2024-05-19T07:53:25Z</time>
      </trkpt>
      <trkpt lat="45.75049" lon="3.27791">
        <ele>410.6</ele>
        <time>2024-05-19T07:53:26Z</time>
      </trkpt>
      <trkpt lat="45.75044" lon="3.27788">
        <ele>410.2</ele>
        <time>2024-05-19T07:53:27Z</time>
      </trkpt>
      <trkpt lat="45.75039" lon="3.27785">
        <ele>410</ele>
        <time>2024-05-19T07:53:28Z</time>
      </trkpt>
      <trkpt lat="45.75034" lon="3.27782">
        <ele>409.6</ele>
        <time>2024-05-19T07:53:29Z</time>
      </trkpt>
      <trkpt lat="45.75029" lon="3.27779">
        <ele>409.4</ele>
        <time>2024-05-19T07:53:30Z</time>
      </trkpt>
      <trkpt lat="45.75024" lon="3.27776">
        <ele>409</ele>
        <time>2024-05-19T07:53:31Z</time>
      </trkpt>
      <trkpt lat="45.7502" lon="3.27774">
        <ele>408.8</ele>
        <time>2024-05-19T07:53:32Z</time>
      </trkpt>
      <trkpt lat="45.75013" lon="3.27769">
        <ele>408.6</ele>
        <time>2024-05-19T07:53:33Z</time>
      </trkpt>
      <trkpt lat="45.7501" lon="3.27762">
        <ele>408.2</ele>
        <time>2024-05-19T07:53:34Z</time>
      </trkpt>
      <trkpt lat="45.75007" lon="3.27755">
        <ele>408</ele>
        <time>2024-05-19T07:53:35Z</time>
      </trkpt>
      <trkpt lat="45.75004" lon="3.27747">
        <ele>407.6</ele>
        <time>2024-05-19T07:53:36Z</time>
      </trkpt>
      <trkpt lat="45.75001" lon="3.27739">
        <ele>407.4</ele>
        <time>2024-05-19T07:53:37Z</time>
      </trkpt>
      <trkpt lat="45.74998" lon="3.2773">
        <ele>407.2</ele>
        <time>2024-05-19T07:53:38Z</time>
      </trkpt>
      <trkpt lat="45.74994" lon="3.2772">
        <ele>406.8</ele>
        <time>2024-05-19T07:53:39Z</time>
      </trkpt>
      <trkpt lat="45.74991" lon="3.27711">
        <ele>406.6</ele>
        <time>2024-05-19T07:53:40Z</time>
      </trkpt>
      <trkpt lat="45.74987" lon="3.27701">
        <ele>406.2</ele>
        <time>2024-05-19T07:53:41Z</time>
      </trkpt>
      <trkpt lat="45.74983" lon="3.2769">
        <ele>406</ele>
        <time>2024-05-19T07:53:42Z</time>
      </trkpt>
      <trkpt lat="45.74979" lon="3.27679">
        <ele>405.8</ele>
        <time>2024-05-19T07:53:43Z</time>
      </trkpt>
      <trkpt lat="45.74975" lon="3.27668">
        <ele>405.6</ele>
        <time>2024-05-19T07:53:44Z</time>
      </trkpt>
      <trkpt lat="45.74971" lon="3.27657">
        <ele>405.4</ele>
        <time>2024-05-19T07:53:45Z</time>
      </trkpt>
      <trkpt lat="45.74966" lon="3.27645">
        <ele>405</ele>
        <time>2024-05-19T07:53:46Z</time>
      </trkpt>
      <trkpt lat="45.7496" lon="3.27637">
        <ele>404.8</ele>
        <time>2024-05-19T07:53:47Z</time>
      </trkpt>
      <trkpt lat="45.74954" lon="3.27628">
        <ele>404.6</ele>
        <time>2024-05-19T07:53:48Z</time>
      </trkpt>
      <trkpt lat="45.74948" lon="3.27619">
        <ele>404.4</ele>
        <time>2024-05-19T07:53:49Z</time>
      </trkpt>
      <trkpt lat="45.74942" lon="3.2761">
        <ele>404</ele>
        <time>2024-05-19T07:53:50Z</time>
      </trkpt>
      <trkpt lat="45.74936" lon="3.27602">
        <ele>403.8</ele>
        <time>2024-05-19T07:53:51Z</time>
      </trkpt>
      <trkpt lat="45.74929" lon="3.27596">
        <ele>403.6</ele>
        <time>2024-05-19T07:53:52Z</time>
      </trkpt>
      <trkpt lat="45.74921" lon="3.27589">
        <ele>403.4</ele>
        <time>2024-05-19T07:53:53Z</time>
      </trkpt>
      <trkpt lat="45.74914" lon="3.27582">
        <ele>403.2</ele>
        <time>2024-05-19T07:53:54Z</time>
      </trkpt>
      <trkpt lat="45.74907" lon="3.27576">
        <ele>403</ele>
        <time>2024-05-19T07:53:55Z</time>
      </trkpt>
      <trkpt lat="45.74899" lon="3.27569">
        <ele>402.8</ele>
        <time>2024-05-19T07:53:56Z</time>
      </trkpt>
      <trkpt lat="45.74892" lon="3.27563">
        <ele>402.6</ele>
        <time>2024-05-19T07:53:57Z</time>
      </trkpt>
      <trkpt lat="45.74885" lon="3.27556">
        <ele>402.4</ele>
        <time>2024-05-19T07:53:58Z</time>
      </trkpt>
      <trkpt lat="45.74878" lon="3.27549">
        <ele>402.2</ele>
        <time>2024-05-19T07:53:59Z</time>
      </trkpt>
      <trkpt lat="45.74871" lon="3.27542">
        <ele>402</ele>
        <time>2024-05-19T07:54:00Z</time>
      </trkpt>
      <trkpt lat="45.74864" lon="3.27536">
        <ele>401.8</ele>
        <time>2024-05-19T07:54:01Z</time>
      </trkpt>
      <trkpt lat="45.74857" lon="3.27529">
        <ele>401.6</ele>
        <time>2024-05-19T07:54:02Z</time>
      </trkpt>
      <trkpt lat="45.7485" lon="3.27522">
        <ele>401.4</ele>
        <time>2024-05-19T07:54:03Z</time>
      </trkpt>
      <trkpt lat="45.74842" lon="3.27517">
        <ele>401.4</ele>
        <time>2024-05-19T07:54:04Z</time>
      </trkpt>
      <trkpt lat="45.74835" lon="3.27512">
        <ele>401.2</ele>
        <time>2024-05-19T07:54:05Z</time>
      </trkpt>
      <trkpt lat="45.74828" lon="3.27506">
        <ele>401.2</ele>
        <time>2024-05-19T07:54:06Z</time>
      </trkpt>
      <trkpt lat="45.7482" lon="3.27501">
        <ele>401.2</ele>
        <time>2024-05-19T07:54:07Z</time>
      </trkpt>
      <trkpt lat="45.74813" lon="3.27496">
        <ele>401</ele>
        <time>2024-05-19T07:54:08Z</time>
      </trkpt>
      <trkpt lat="45.74805" lon="3.27492">
        <ele>401</ele>
        <time>2024-05-19T07:54:09Z</time>
      </trkpt>
      <trkpt lat="45.74797" lon="3.27489">
        <ele>400.8</ele>
        <time>2024-05-19T07:54:10Z</time>
      </trkpt>
      <trkpt lat="45.74789" lon="3.27486">
        <ele>400.6</ele>
        <time>2024-05-19T07:54:11Z</time>
      </trkpt>
      <trkpt lat="45.74781" lon="3.27483">
        <ele>400.4</ele>
        <time>2024-05-19T07:54:12Z</time>
      </trkpt>
      <trkpt lat="45.74774" lon="3.2748">
        <ele>400.4</ele>
        <time>2024-05-19T07:54:13Z</time>
      </trkpt>
      <trkpt lat="45.74766" lon="3.27477">
        <ele>400.2</ele>
        <time>2024-05-19T07:54:14Z</time>
      </trkpt>
      <trkpt lat="45.74758" lon="3.27474">
        <ele>400</ele>
        <time>2024-05-19T07:54:15Z</time>
      </trkpt>
      <trkpt lat="45.7475" lon="3.27471">
        <ele>400</ele>
        <time>2024-05-19T07:54:16Z</time>
      </trkpt>
      <trkpt lat="45.74742" lon="3.27469">
        <ele>399.8</ele>
        <time>2024-05-19T07:54:17Z</time>
      </trkpt>
      <trkpt lat="45.74733" lon="3.27466">
        <ele>399.6</ele>
        <time>2024-05-19T07:54:18Z</time>
      </trkpt>
      <trkpt lat="45.74725" lon="3.27464">
        <ele>399.4</ele>
        <time>2024-05-19T07:54:19Z</time>
      </trkpt>
      <trkpt lat="45.74717" lon="3.27462">
        <ele>399.2</ele>
        <time>2024-05-19T07:54:20Z</time>
      </trkpt>
      <trkpt lat="45.74709" lon="3.27461">
        <ele>399.2</ele>
        <time>2024-05-19T07:54:21Z</time>
      </trkpt>
      <trkpt lat="45.74701" lon="3.27459">
        <ele>399</ele>
        <time>2024-05-19T07:54:22Z</time>
      </trkpt>
      <trkpt lat="45.74693" lon="3.27458">
        <ele>398.8</ele>
        <time>2024-05-19T07:54:23Z</time>
      </trkpt>
      <trkpt lat="45.74685" lon="3.27456">
        <ele>398.6</ele>
        <time>2024-05-19T07:54:24Z</time>
      </trkpt>
      <trkpt lat="45.74677" lon="3.27455">
        <ele>398.6</ele>
        <time>2024-05-19T07:54:25Z</time>
      </trkpt>
      <trkpt lat="45.7467" lon="3.27454">
        <ele>398.4</ele>
        <time>2024-05-19T07:54:26Z</time>
      </trkpt>
      <trkpt lat="45.74662" lon="3.27452">
        <ele>398.2</ele>
        <time>2024-05-19T07:54:27Z</time>
      </trkpt>
      <trkpt lat="45.74654" lon="3.27451">
        <ele>398</ele>
        <time>2024-05-19T07:54:28Z</time>
      </trkpt>
      <trkpt lat="45.74646" lon="3.27449">
        <ele>397.8</ele>
        <time>2024-05-19T07:54:29Z</time>
      </trkpt>
      <trkpt lat="45.74638" lon="3.27448">
        <ele>397.6</ele>
        <time>2024-05-19T07:54:30Z</time>
      </trkpt>
      <trkpt lat="45.74629" lon="3.27446">
        <ele>397.4</ele>
        <time>2024-05-19T07:54:31Z</time>
      </trkpt>
      <trkpt lat="45.74621" lon="3.27445">
        <ele>397.4</ele>
        <time>2024-05-19T07:54:32Z</time>
      </trkpt>
      <trkpt lat="45.74612" lon="3.27442">
        <ele>397.2</ele>
        <time>2024-05-19T07:54:33Z</time>
      </trkpt>
      <trkpt lat="45.74604" lon="3.27439">
        <ele>397</ele>
        <time>2024-05-19T07:54:34Z</time>
      </trkpt>
      <trkpt lat="45.74596" lon="3.27435">
        <ele>396.8</ele>
        <time>2024-05-19T07:54:35Z</time>
      </trkpt>
      <trkpt lat="45.74587" lon="3.27432">
        <ele>396.8</ele>
        <time>2024-05-19T07:54:36Z</time>
      </trkpt>
      <trkpt lat="45.74579" lon="3.27428">
        <ele>396.6</ele>
        <time>2024-05-19T07:54:37Z</time>
      </trkpt>
      <trkpt lat="45.74572" lon="3.27422">
        <ele>396.4</ele>
        <time>2024-05-19T07:54:38Z</time>
      </trkpt>
      <trkpt lat="45.74564" lon="3.27416">
        <ele>396.2</ele>
        <time>2024-05-19T07:54:39Z</time>
      </trkpt>
      <trkpt lat="45.74557" lon="3.2741">
        <ele>396.2</ele>
        <time>2024-05-19T07:54:40Z</time>
      </trkpt>
      <trkpt lat="45.74549" lon="3.27403">
        <ele>396</ele>
        <time>2024-05-19T07:54:41Z</time>
      </trkpt>
      <trkpt lat="45.74541" lon="3.27396">
        <ele>395.8</ele>
        <time>2024-05-19T07:54:42Z</time>
      </trkpt>
      <trkpt lat="45.74534" lon="3.27388">
        <ele>395.6</ele>
        <time>2024-05-19T07:54:43Z</time>
      </trkpt>
      <trkpt lat="45.74527" lon="3.27381">
        <ele>395.4</ele>
        <time>2024-05-19T07:54:44Z</time>
      </trkpt>
      <trkpt lat="45.7452" lon="3.27373">
        <ele>395.2</ele>
        <time>2024-05-19T07:54:45Z</time>
      </trkpt>
      <trkpt lat="45.74513" lon="3.27366">
        <ele>395</ele>
        <time>2024-05-19T07:54:46Z</time>
      </trkpt>
      <trkpt lat="45.74506" lon="3.27359">
        <ele>394.8</ele>
        <time>2024-05-19T07:54:47Z</time>
      </trkpt>
      <trkpt lat="45.74499" lon="3.27352">
        <ele>394.6</ele>
        <time>2024-05-19T07:54:48Z</time>
      </trkpt>
      <trkpt lat="45.74492" lon="3.27345">
        <ele>394.6</ele>
        <time>2024-05-19T07:54:49Z</time>
      </trkpt>
      <trkpt lat="45.74484" lon="3.27338">
        <ele>394.4</ele>
        <time>2024-05-19T07:54:50Z</time>
      </trkpt>
      <trkpt lat="45.74477" lon="3.27331">
        <ele>394.2</ele>
        <time>2024-05-19T07:54:51Z</time>
      </trkpt>
      <trkpt lat="45.7447" lon="3.27324">
        <ele>394</ele>
        <time>2024-05-19T07:54:52Z</time>
      </trkpt>
      <trkpt lat="45.74463" lon="3.27317">
        <ele>393.8</ele>
        <time>2024-05-19T07:54:53Z</time>
      </trkpt>
      <trkpt lat="45.74456" lon="3.27311">
        <ele>393.6</ele>
        <time>2024-05-19T07:54:54Z</time>
      </trkpt>
      <trkpt lat="45.74449" lon="3.27304">
        <ele>393.6</ele>
        <time>2024-05-19T07:54:55Z</time>
      </trkpt>
      <trkpt lat="45.74442" lon="3.27297">
        <ele>393.4</ele>
        <time>2024-05-19T07:54:56Z</time>
      </trkpt>
      <trkpt lat="45.74442" lon="3.27297">
        <ele>393.2</ele>
        <time>2024-05-19T07:54:57Z</time>
      </trkpt>
      <trkpt lat="45.74427" lon="3.27282">
        <ele>393.2</ele>
        <time>2024-05-19T07:54:58Z</time>
      </trkpt>
      <trkpt lat="45.7442" lon="3.27275">
        <ele>393</ele>
        <time>2024-05-19T07:54:59Z</time>
      </trkpt>
      <trkpt lat="45.74413" lon="3.27268">
        <ele>392.8</ele>
        <time>2024-05-19T07:55:00Z</time>
      </trkpt>
      <trkpt lat="45.74406" lon="3.27261">
        <ele>392.8</ele>
        <time>2024-05-19T07:55:01Z</time>
      </trkpt>
      <trkpt lat="45.74398" lon="3.27253">
        <ele>392.6</ele>
        <time>2024-05-19T07:55:02Z</time>
      </trkpt>
      <trkpt lat="45.74391" lon="3.27246">
        <ele>392.6</ele>
        <time>2024-05-19T07:55:03Z</time>
      </trkpt>
      <trkpt lat="45.74384" lon="3.27239">
        <ele>392.4</ele>
        <time>2024-05-19T07:55:04Z</time>
      </trkpt>
      <trkpt lat="45.74376" lon="3.27232">
        <ele>392.2</ele>
        <time>2024-05-19T07:55:05Z</time>
      </trkpt>
      <trkpt lat="45.74369" lon="3.27224">
        <ele>392</ele>
        <time>2024-05-19T07:55:06Z</time>
      </trkpt>
      <trkpt lat="45.74362" lon="3.27217">
        <ele>392</ele>
        <time>2024-05-19T07:55:07Z</time>
      </trkpt>
      <trkpt lat="45.74355" lon="3.2721">
        <ele>391.8</ele>
        <time>2024-05-19T07:55:08Z</time>
      </trkpt>
      <trkpt lat="45.74347" lon="3.27202">
        <ele>391.8</ele>
        <time>2024-05-19T07:55:09Z</time>
      </trkpt>
      <trkpt lat="45.7434" lon="3.27195">
        <ele>391.4</ele>
        <time>2024-05-19T07:55:10Z</time>
      </trkpt>
      <trkpt lat="45.74333" lon="3.27188">
        <ele>391.4</ele>
        <time>2024-05-19T07:55:11Z</time>
      </trkpt>
      <trkpt lat="45.74326" lon="3.27181">
        <ele>391.2</ele>
        <time>2024-05-19T07:55:12Z</time>
      </trkpt>
      <trkpt lat="45.74318" lon="3.27174">
        <ele>391</ele>
        <time>2024-05-19T07:55:13Z</time>
      </trkpt>
      <trkpt lat="45.74311" lon="3.27166">
        <ele>390.8</ele>
        <time>2024-05-19T07:55:14Z</time>
      </trkpt>
      <trkpt lat="45.74304" lon="3.27159">
        <ele>390.6</ele>
        <time>2024-05-19T07:55:15Z</time>
      </trkpt>
      <trkpt lat="45.74297" lon="3.27152">
        <ele>390.4</ele>
        <time>2024-05-19T07:55:16Z</time>
      </trkpt>
      <trkpt lat="45.74289" lon="3.27144">
        <ele>390.2</ele>
        <time>2024-05-19T07:55:17Z</time>
      </trkpt>
      <trkpt lat="45.74282" lon="3.27137">
        <ele>390</ele>
        <time>2024-05-19T07:55:18Z</time>
      </trkpt>
      <trkpt lat="45.74274" lon="3.27129">
        <ele>389.8</ele>
        <time>2024-05-19T07:55:19Z</time>
      </trkpt>
      <trkpt lat="45.74267" lon="3.27122">
        <ele>389.6</ele>
        <time>2024-05-19T07:55:20Z</time>
      </trkpt>
      <trkpt lat="45.7426" lon="3.27113">
        <ele>389.4</ele>
        <time>2024-05-19T07:55:21Z</time>
      </trkpt>
      <trkpt lat="45.74253" lon="3.27104">
        <ele>389.4</ele>
        <time>2024-05-19T07:55:22Z</time>
      </trkpt>
      <trkpt lat="45.74246" lon="3.27095">
        <ele>389</ele>
        <time>2024-05-19T07:55:23Z</time>
      </trkpt>
      <trkpt lat="45.7424" lon="3.27086">
        <ele>388.8</ele>
        <time>2024-05-19T07:55:24Z</time>
      </trkpt>
      <trkpt lat="45.74233" lon="3.27077">
        <ele>388.6</ele>
        <time>2024-05-19T07:55:25Z</time>
      </trkpt>
      <trkpt lat="45.74226" lon="3.27068">
        <ele>388.4</ele>
        <time>2024-05-19T07:55:26Z</time>
      </trkpt>
      <trkpt lat="45.7422" lon="3.27058">
        <ele>388.2</ele>
        <time>2024-05-19T07:55:27Z</time>
      </trkpt>
      <trkpt lat="45.74213" lon="3.27049">
        <ele>388</ele>
        <time>2024-05-19T07:55:28Z</time>
      </trkpt>
      <trkpt lat="45.74206" lon="3.27039">
        <ele>388</ele>
        <time>2024-05-19T07:55:29Z</time>
      </trkpt>
      <trkpt lat="45.74199" lon="3.27029">
        <ele>387.8</ele>
        <time>2024-05-19T07:55:30Z</time>
      </trkpt>
      <trkpt lat="45.74192" lon="3.2702">
        <ele>387.6</ele>
        <time>2024-05-19T07:55:31Z</time>
      </trkpt>
      <trkpt lat="45.74185" lon="3.2701">
        <ele>387.4</ele>
        <time>2024-05-19T07:55:32Z</time>
      </trkpt>
      <trkpt lat="45.74178" lon="3.27">
        <ele>387</ele>
        <time>2024-05-19T07:55:33Z</time>
      </trkpt>
      <trkpt lat="45.74171" lon="3.2699">
        <ele>386.8</ele>
        <time>2024-05-19T07:55:34Z</time>
      </trkpt>
      <trkpt lat="45.74164" lon="3.26981">
        <ele>386.6</ele>
        <time>2024-05-19T07:55:35Z</time>
      </trkpt>
      <trkpt lat="45.74156" lon="3.26971">
        <ele>386.4</ele>
        <time>2024-05-19T07:55:36Z</time>
      </trkpt>
      <trkpt lat="45.74148" lon="3.26961">
        <ele>386.2</ele>
        <time>2024-05-19T07:55:37Z</time>
      </trkpt>
      <trkpt lat="45.74141" lon="3.26952">
        <ele>386</ele>
        <time>2024-05-19T07:55:38Z</time>
      </trkpt>
      <trkpt lat="45.74133" lon="3.26942">
        <ele>385.8</ele>
        <time>2024-05-19T07:55:39Z</time>
      </trkpt>
      <trkpt lat="45.74126" lon="3.26932">
        <ele>385.6</ele>
        <time>2024-05-19T07:55:40Z</time>
      </trkpt>
      <trkpt lat="45.74118" lon="3.26923">
        <ele>385.4</ele>
        <time>2024-05-19T07:55:41Z</time>
      </trkpt>
      <trkpt lat="45.74111" lon="3.26913">
        <ele>385.2</ele>
        <time>2024-05-19T07:55:42Z</time>
      </trkpt>
      <trkpt lat="45.74104" lon="3.26903">
        <ele>385</ele>
        <time>2024-05-19T07:55:43Z</time>
      </trkpt>
      <trkpt lat="45.74096" lon="3.26894">
        <ele>384.8</ele>
        <time>2024-05-19T07:55:44Z</time>
      </trkpt>
      <trkpt lat="45.74089" lon="3.26884">
        <ele>384.8</ele>
        <time>2024-05-19T07:55:45Z</time>
      </trkpt>
      <trkpt lat="45.74081" lon="3.26876">
        <ele>384.6</ele>
        <time>2024-05-19T07:55:46Z</time>
      </trkpt>
      <trkpt lat="45.74072" lon="3.26868">
        <ele>384.4</ele>
        <time>2024-05-19T07:55:47Z</time>
      </trkpt>
      <trkpt lat="45.74064" lon="3.2686">
        <ele>384.2</ele>
        <time>2024-05-19T07:55:48Z</time>
      </trkpt>
      <trkpt lat="45.74056" lon="3.26853">
        <ele>384</ele>
        <time>2024-05-19T07:55:49Z</time>
      </trkpt>
      <trkpt lat="45.74048" lon="3.26845">
        <ele>384</ele>
        <time>2024-05-19T07:55:50Z</time>
      </trkpt>
      <trkpt lat="45.74039" lon="3.26839">
        <ele>383.8</ele>
        <time>2024-05-19T07:55:51Z</time>
      </trkpt>
      <trkpt lat="45.7403" lon="3.26833">
        <ele>383.6</ele>
        <time>2024-05-19T07:55:52Z</time>
      </trkpt>
      <trkpt lat="45.74021" lon="3.26828">
        <ele>383.6</ele>
        <time>2024-05-19T07:55:53Z</time>
      </trkpt>
      <trkpt lat="45.74013" lon="3.26822">
        <ele>383.4</ele>
        <time>2024-05-19T07:55:54Z</time>
      </trkpt>
      <trkpt lat="45.74004" lon="3.26817">
        <ele>383.2</ele>
        <time>2024-05-19T07:55:55Z</time>
      </trkpt>
      <trkpt lat="45.73995" lon="3.26812">
        <ele>383</ele>
        <time>2024-05-19T07:55:56Z</time>
      </trkpt>
      <trkpt lat="45.73987" lon="3.26806">
        <ele>383</ele>
        <time>2024-05-19T07:55:57Z</time>
      </trkpt>
      <trkpt lat="45.73978" lon="3.26801">
        <ele>382.8</ele>
        <time>2024-05-19T07:55:58Z</time>
      </trkpt>
      <trkpt lat="45.73969" lon="3.26796">
        <ele>382.6</ele>
        <time>2024-05-19T07:55:59Z</time>
      </trkpt>
      <trkpt lat="45.73961" lon="3.26791">
        <ele>382.4</ele>
        <time>2024-05-19T07:56:00Z</time>
      </trkpt>
      <trkpt lat="45.73952" lon="3.26786">
        <ele>382.4</ele>
        <time>2024-05-19T07:56:01Z</time>
      </trkpt>
      <trkpt lat="45.73944" lon="3.26781">
        <ele>382.2</ele>
        <time>2024-05-19T07:56:02Z</time>
      </trkpt>
      <trkpt lat="45.73935" lon="3.26777">
        <ele>382</ele>
        <time>2024-05-19T07:56:03Z</time>
      </trkpt>
      <trkpt lat="45.73927" lon="3.26773">
        <ele>381.8</ele>
        <time>2024-05-19T07:56:04Z</time>
      </trkpt>
      <trkpt lat="45.73918" lon="3.26769">
        <ele>381.6</ele>
        <time>2024-05-19T07:56:05Z</time>
      </trkpt>
      <trkpt lat="45.7391" lon="3.26765">
        <ele>381.6</ele>
        <time>2024-05-19T07:56:06Z</time>
      </trkpt>
      <trkpt lat="45.73901" lon="3.26761">
        <ele>381.4</ele>
        <time>2024-05-19T07:56:07Z</time>
      </trkpt>
      <trkpt lat="45.73893" lon="3.26759">
        <ele>381.2</ele>
        <time>2024-05-19T07:56:08Z</time>
      </trkpt>
      <trkpt lat="45.73884" lon="3.26758">
        <ele>381.2</ele>
        <time>2024-05-19T07:56:09Z</time>
      </trkpt>
      <trkpt lat="45.73875" lon="3.26758">
        <ele>381</ele>
        <time>2024-05-19T07:56:10Z</time>
      </trkpt>
      <trkpt lat="45.73867" lon="3.26759">
        <ele>381</ele>
        <time>2024-05-19T07:56:11Z</time>
      </trkpt>
      <trkpt lat="45.73858" lon="3.26761">
        <ele>380.8</ele>
        <time>2024-05-19T07:56:12Z</time>
      </trkpt>
      <trkpt lat="45.73849" lon="3.26763">
        <ele>380.6</ele>
        <time>2024-05-19T07:56:13Z</time>
      </trkpt>
      <trkpt lat="45.73842" lon="3.2677">
        <ele>380.6</ele>
        <time>2024-05-19T07:56:14Z</time>
      </trkpt>
      <trkpt lat="45.73834" lon="3.26777">
        <ele>380.4</ele>
        <time>2024-05-19T07:56:15Z</time>
      </trkpt>
      <trkpt lat="45.73827" lon="3.26784">
        <ele>380.4</ele>
        <time>2024-05-19T07:56:16Z</time>
      </trkpt>
      <trkpt lat="45.73819" lon="3.2679">
        <ele>380.2</ele>
        <time>2024-05-19T07:56:17Z</time>
      </trkpt>
      <trkpt lat="45.73812" lon="3.26797">
        <ele>380.2</ele>
        <time>2024-05-19T07:56:18Z</time>
      </trkpt>
      <trkpt lat="45.73804" lon="3.26804">
        <ele>380</ele>
        <time>2024-05-19T07:56:19Z</time>
      </trkpt>
      <trkpt lat="45.73797" lon="3.26811">
        <ele>380</ele>
        <time>2024-05-19T07:56:20Z</time>
      </trkpt>
      <trkpt lat="45.73789" lon="3.26817">
        <ele>379.8</ele>
        <time>2024-05-19T07:56:21Z</time>
      </trkpt>
      <trkpt lat="45.73782" lon="3.26824">
        <ele>379.8</ele>
        <time>2024-05-19T07:56:22Z</time>
      </trkpt>
      <trkpt lat="45.73775" lon="3.26831">
        <ele>379.6</ele>
        <time>2024-05-19T07:56:23Z</time>
      </trkpt>
      <trkpt lat="45.73767" lon="3.26837">
        <ele>379.6</ele>
        <time>2024-05-19T07:56:24Z</time>
      </trkpt>
      <trkpt lat="45.7376" lon="3.26844">
        <ele>379.4</ele>
        <time>2024-05-19T07:56:25Z</time>
      </trkpt>
      <trkpt lat="45.73753" lon="3.26851">
        <ele>379.4</ele>
        <time>2024-05-19T07:56:26Z</time>
      </trkpt>
      <trkpt lat="45.73745" lon="3.26857">
        <ele>379.2</ele>
        <time>2024-05-19T07:56:27Z</time>
      </trkpt>
      <trkpt lat="45.73738" lon="3.26864">
        <ele>379.2</ele>
        <time>2024-05-19T07:56:28Z</time>
      </trkpt>
      <trkpt lat="45.73731" lon="3.26871">
        <ele>379</ele>
        <time>2024-05-19T07:56:29Z</time>
      </trkpt>
      <trkpt lat="45.73723" lon="3.26877">
        <ele>379</ele>
        <time>2024-05-19T07:56:30Z</time>
      </trkpt>
      <trkpt lat="45.73716" lon="3.26884">
        <ele>378.8</ele>
        <time>2024-05-19T07:56:31Z</time>
      </trkpt>
      <trkpt lat="45.73709" lon="3.26891">
        <ele>378.8</ele>
        <time>2024-05-19T07:56:32Z</time>
      </trkpt>
      <trkpt lat="45.73701" lon="3.26897">
        <ele>378.8</ele>
        <time>2024-05-19T07:56:33Z</time>
      </trkpt>
      <trkpt lat="45.73694" lon="3.26904">
        <ele>378.6</ele>
        <time>2024-05-19T07:56:34Z</time>
      </trkpt>
      <trkpt lat="45.73688" lon="3.26912">
        <ele>378.6</ele>
        <time>2024-05-19T07:56:35Z</time>
      </trkpt>
      <trkpt lat="45.73682" lon="3.26921">
        <ele>378.4</ele>
        <time>2024-05-19T07:56:36Z</time>
      </trkpt>
      <trkpt lat="45.73676" lon="3.2693">
        <ele>378.4</ele>
        <time>2024-05-19T07:56:37Z</time>
      </trkpt>
      <trkpt lat="45.73671" lon="3.26939">
        <ele>378.2</ele>
        <time>2024-05-19T07:56:38Z</time>
      </trkpt>
      <trkpt lat="45.73666" lon="3.26949">
        <ele>378.2</ele>
        <time>2024-05-19T07:56:39Z</time>
      </trkpt>
      <trkpt lat="45.73661" lon="3.26959">
        <ele>378.2</ele>
        <time>2024-05-19T07:56:40Z</time>
      </trkpt>
      <trkpt lat="45.73656" lon="3.26968">
        <ele>378</ele>
        <time>2024-05-19T07:56:41Z</time>
      </trkpt>
      <trkpt lat="45.73651" lon="3.26978">
        <ele>378</ele>
        <time>2024-05-19T07:56:42Z</time>
      </trkpt>
      <trkpt lat="45.73646" lon="3.26988">
        <ele>378</ele>
        <time>2024-05-19T07:56:43Z</time>
      </trkpt>
      <trkpt lat="45.73641" lon="3.26998">
        <ele>377.8</ele>
        <time>2024-05-19T07:56:44Z</time>
      </trkpt>
      <trkpt lat="45.73636" lon="3.27008">
        <ele>377.8</ele>
        <time>2024-05-19T07:56:45Z</time>
      </trkpt>
      <trkpt lat="45.73631" lon="3.27017">
        <ele>377.6</ele>
        <time>2024-05-19T07:56:46Z</time>
      </trkpt>
      <trkpt lat="45.73626" lon="3.27027">
        <ele>377.6</ele>
        <time>2024-05-19T07:56:47Z</time>
      </trkpt>
      <trkpt lat="45.73621" lon="3.27037">
        <ele>377.6</ele>
        <time>2024-05-19T07:56:48Z</time>
      </trkpt>
      <trkpt lat="45.73616" lon="3.27047">
        <ele>377.4</ele>
        <time>2024-05-19T07:56:49Z</time>
      </trkpt>
      <trkpt lat="45.73611" lon="3.27057">
        <ele>377.4</ele>
        <time>2024-05-19T07:56:50Z</time>
      </trkpt>
      <trkpt lat="45.73606" lon="3.27067">
        <ele>377.2</ele>
        <time>2024-05-19T07:56:51Z</time>
      </trkpt>
      <trkpt lat="45.73601" lon="3.27077">
        <ele>377.2</ele>
        <time>2024-05-19T07:56:52Z</time>
      </trkpt>
      <trkpt lat="45.73596" lon="3.27087">
        <ele>377.2</ele>
        <time>2024-05-19T07:56:53Z</time>
      </trkpt>
      <trkpt lat="45.73591" lon="3.27097">
        <ele>377.2</ele>
        <time>2024-05-19T07:56:54Z</time>
      </trkpt>
      <trkpt lat="45.73586" lon="3.27106">
        <ele>377</ele>
        <time>2024-05-19T07:56:55Z</time>
      </trkpt>
      <trkpt lat="45.73581" lon="3.27116">
        <ele>377</ele>
        <time>2024-05-19T07:56:56Z</time>
      </trkpt>
      <trkpt lat="45.73576" lon="3.27126">
        <ele>377</ele>
        <time>2024-05-19T07:56:57Z</time>
      </trkpt>
      <trkpt lat="45.73571" lon="3.27136">
        <ele>376.8</ele>
        <time>2024-05-19T07:56:58Z</time>
      </trkpt>
      <trkpt lat="45.73566" lon="3.27145">
        <ele>376.8</ele>
        <time>2024-05-19T07:56:59Z</time>
      </trkpt>
      <trkpt lat="45.73561" lon="3.27155">
        <ele>376.8</ele>
        <time>2024-05-19T07:57:00Z</time>
      </trkpt>
      <trkpt lat="45.73557" lon="3.27164">
        <ele>376.8</ele>
        <time>2024-05-19T07:57:01Z</time>
      </trkpt>
      <trkpt lat="45.73552" lon="3.27173">
        <ele>376.8</ele>
        <time>2024-05-19T07:57:02Z</time>
      </trkpt>
      <trkpt lat="45.73547" lon="3.27182">
        <ele>376.8</ele>
        <time>2024-05-19T07:57:03Z</time>
      </trkpt>
      <trkpt lat="45.73542" lon="3.27189">
        <ele>376.8</ele>
        <time>2024-05-19T07:57:04Z</time>
      </trkpt>
      <trkpt lat="45.73536" lon="3.27197">
        <ele>376.8</ele>
        <time>2024-05-19T07:57:05Z</time>
      </trkpt>
      <trkpt lat="45.73531" lon="3.27204">
        <ele>376.8</ele>
        <time>2024-05-19T07:57:06Z</time>
      </trkpt>
      <trkpt lat="45.73526" lon="3.27211">
        <ele>376.8</ele>
        <time>2024-05-19T07:57:07Z</time>
      </trkpt>
      <trkpt lat="45.7352" lon="3.27219">
        <ele>376.8</ele>
        <time>2024-05-19T07:57:08Z</time>
      </trkpt>
      <trkpt lat="45.73515" lon="3.27226">
        <ele>376.8</ele>
        <time>2024-05-19T07:57:09Z</time>
      </trkpt>
      <trkpt lat="45.7351" lon="3.27234">
        <ele>376.8</ele>
        <time>2024-05-19T07:57:10Z</time>
      </trkpt>
      <trkpt lat="45.73504" lon="3.27241">
        <ele>376.8</ele>
        <time>2024-05-19T07:57:11Z</time>
      </trkpt>
      <trkpt lat="45.73499" lon="3.27249">
        <ele>376.8</ele>
        <time>2024-05-19T07:57:12Z</time>
      </trkpt>
      <trkpt lat="45.73495" lon="3.27258">
        <ele>376.8</ele>
        <time>2024-05-19T07:57:13Z</time>
      </trkpt>
      <trkpt lat="45.7349" lon="3.27266">
        <ele>376.8</ele>
        <time>2024-05-19T07:57:14Z</time>
      </trkpt>
      <trkpt lat="45.73485" lon="3.27274">
        <ele>376.8</ele>
        <time>2024-05-19T07:57:15Z</time>
      </trkpt>
      <trkpt lat="45.7348" lon="3.27283">
        <ele>376.8</ele>
        <time>2024-05-19T07:57:16Z</time>
      </trkpt>
      <trkpt lat="45.73476" lon="3.27291">
        <ele>376.8</ele>
        <time>2024-05-19T07:57:17Z</time>
      </trkpt>
      <trkpt lat="45.73471" lon="3.273">
        <ele>376.8</ele>
        <time>2024-05-19T07:57:18Z</time>
      </trkpt>
      <trkpt lat="45.73466" lon="3.27308">
        <ele>376.4</ele>
        <time>2024-05-19T07:57:19Z</time>
      </trkpt>
      <trkpt lat="45.73463" lon="3.27317">
        <ele>376.6</ele>
        <time>2024-05-19T07:57:20Z</time>
      </trkpt>
      <trkpt lat="45.7346" lon="3.27326">
        <ele>376.8</ele>
        <time>2024-05-19T07:57:21Z</time>
      </trkpt>
      <trkpt lat="45.73457" lon="3.27335">
        <ele>376.8</ele>
        <time>2024-05-19T07:57:22Z</time>
      </trkpt>
      <trkpt lat="45.73454" lon="3.27344">
        <ele>377</ele>
        <time>2024-05-19T07:57:23Z</time>
      </trkpt>
      <trkpt lat="45.73451" lon="3.27353">
        <ele>377</ele>
        <time>2024-05-19T07:57:24Z</time>
      </trkpt>
      <trkpt lat="45.73447" lon="3.27363">
        <ele>377.2</ele>
        <time>2024-05-19T07:57:25Z</time>
      </trkpt>
      <trkpt lat="45.73445" lon="3.27372">
        <ele>377.2</ele>
        <time>2024-05-19T07:57:26Z</time>
      </trkpt>
      <trkpt lat="45.73442" lon="3.27382">
        <ele>377</ele>
        <time>2024-05-19T07:57:27Z</time>
      </trkpt>
      <trkpt lat="45.73439" lon="3.27391">
        <ele>377</ele>
        <time>2024-05-19T07:57:28Z</time>
      </trkpt>
      <trkpt lat="45.73436" lon="3.27401">
        <ele>377</ele>
        <time>2024-05-19T07:57:29Z</time>
      </trkpt>
      <trkpt lat="45.73433" lon="3.2741">
        <ele>377</ele>
        <time>2024-05-19T07:57:30Z</time>
      </trkpt>
      <trkpt lat="45.7343" lon="3.2742">
        <ele>377</ele>
        <time>2024-05-19T07:57:31Z</time>
      </trkpt>
      <trkpt lat="45.73427" lon="3.27429">
        <ele>377</ele>
        <time>2024-05-19T07:57:32Z</time>
      </trkpt>
      <trkpt lat="45.73423" lon="3.27438">
        <ele>377</ele>
        <time>2024-05-19T07:57:33Z</time>
      </trkpt>
      <trkpt lat="45.73419" lon="3.27447">
        <ele>377</ele>
        <time>2024-05-19T07:57:34Z</time>
      </trkpt>
      <trkpt lat="45.73416" lon="3.27455">
        <ele>377</ele>
        <time>2024-05-19T07:57:35Z</time>
      </trkpt>
      <trkpt lat="45.73412" lon="3.27463">
        <ele>377.2</ele>
        <time>2024-05-19T07:57:36Z</time>
      </trkpt>
      <trkpt lat="45.73408" lon="3.27472">
        <ele>377.2</ele>
        <time>2024-05-19T07:57:37Z</time>
      </trkpt>
      <trkpt lat="45.73405" lon="3.27481">
        <ele>377.2</ele>
        <time>2024-05-19T07:57:38Z</time>
      </trkpt>
      <trkpt lat="45.73401" lon="3.27489">
        <ele>377.2</ele>
        <time>2024-05-19T07:57:39Z</time>
      </trkpt>
      <trkpt lat="45.73397" lon="3.27498">
        <ele>377.4</ele>
        <time>2024-05-19T07:57:40Z</time>
      </trkpt>
      <trkpt lat="45.73394" lon="3.27505">
        <ele>377.4</ele>
        <time>2024-05-19T07:57:41Z</time>
      </trkpt>
      <trkpt lat="45.73391" lon="3.27513">
        <ele>377.4</ele>
        <time>2024-05-19T07:57:42Z</time>
      </trkpt>
      <trkpt lat="45.73387" lon="3.27521">
        <ele>377.6</ele>
        <time>2024-05-19T07:57:43Z</time>
      </trkpt>
      <trkpt lat="45.73383" lon="3.2753">
        <ele>377.6</ele>
        <time>2024-05-19T07:57:44Z</time>
      </trkpt>
      <trkpt lat="45.7338" lon="3.27538">
        <ele>377.6</ele>
        <time>2024-05-19T07:57:45Z</time>
      </trkpt>
      <trkpt lat="45.73376" lon="3.27547">
        <ele>377.6</ele>
        <time>2024-05-19T07:57:46Z</time>
      </trkpt>
      <trkpt lat="45.73372" lon="3.27555">
        <ele>377.6</ele>
        <time>2024-05-19T07:57:47Z</time>
      </trkpt>
      <trkpt lat="45.73368" lon="3.27564">
        <ele>377.8</ele>
        <time>2024-05-19T07:57:48Z</time>
      </trkpt>
      <trkpt lat="45.73365" lon="3.27572">
        <ele>377.8</ele>
        <time>2024-05-19T07:57:49Z</time>
      </trkpt>
      <trkpt lat="45.73361" lon="3.2758">
        <ele>377.8</ele>
        <time>2024-05-19T07:57:50Z</time>
      </trkpt>
      <trkpt lat="45.73359" lon="3.27589">
        <ele>378</ele>
        <time>2024-05-19T07:57:51Z</time>
      </trkpt>
      <trkpt lat="45.73356" lon="3.27599">
        <ele>378</ele>
        <time>2024-05-19T07:57:52Z</time>
      </trkpt>
      <trkpt lat="45.73354" lon="3.27608">
        <ele>378</ele>
        <time>2024-05-19T07:57:53Z</time>
      </trkpt>
      <trkpt lat="45.73352" lon="3.27618">
        <ele>378.2</ele>
        <time>2024-05-19T07:57:54Z</time>
      </trkpt>
      <trkpt lat="45.73349" lon="3.27627">
        <ele>378.2</ele>
        <time>2024-05-19T07:57:55Z</time>
      </trkpt>
      <trkpt lat="45.73347" lon="3.27636">
        <ele>378.2</ele>
        <time>2024-05-19T07:57:56Z</time>
      </trkpt>
      <trkpt lat="45.73345" lon="3.27646">
        <ele>378.2</ele>
        <time>2024-05-19T07:57:57Z</time>
      </trkpt>
      <trkpt lat="45.73344" lon="3.27656">
        <ele>378.2</ele>
        <time>2024-05-19T07:57:58Z</time>
      </trkpt>
      <trkpt lat="45.73343" lon="3.27666">
        <ele>378.2</ele>
        <time>2024-05-19T07:57:59Z</time>
      </trkpt>
      <trkpt lat="45.73341" lon="3.27675">
        <ele>378.2</ele>
        <time>2024-05-19T07:58:00Z</time>
      </trkpt>
      <trkpt lat="45.7334" lon="3.27684">
        <ele>378.2</ele>
        <time>2024-05-19T07:58:01Z</time>
      </trkpt>
      <trkpt lat="45.73338" lon="3.27694">
        <ele>378.2</ele>
        <time>2024-05-19T07:58:02Z</time>
      </trkpt>
      <trkpt lat="45.73337" lon="3.27703">
        <ele>378.4</ele>
        <time>2024-05-19T07:58:03Z</time>
      </trkpt>
      <trkpt lat="45.73336" lon="3.27712">
        <ele>378.4</ele>
        <time>2024-05-19T07:58:04Z</time>
      </trkpt>
      <trkpt lat="45.73334" lon="3.27721">
        <ele>378.4</ele>
        <time>2024-05-19T07:58:05Z</time>
      </trkpt>
      <trkpt lat="45.73333" lon="3.27731">
        <ele>378.4</ele>
        <time>2024-05-19T07:58:06Z</time>
      </trkpt>
      <trkpt lat="45.73332" lon="3.2774">
        <ele>378.6</ele>
        <time>2024-05-19T07:58:07Z</time>
      </trkpt>
      <trkpt lat="45.73331" lon="3.27749">
        <ele>378.6</ele>
        <time>2024-05-19T07:58:08Z</time>
      </trkpt>
      <trkpt lat="45.73329" lon="3.27758">
        <ele>378.6</ele>
        <time>2024-05-19T07:58:09Z</time>
      </trkpt>
      <trkpt lat="45.73328" lon="3.27767">
        <ele>378.6</ele>
        <time>2024-05-19T07:58:10Z</time>
      </trkpt>
      <trkpt lat="45.73327" lon="3.27776">
        <ele>378.8</ele>
        <time>2024-05-19T07:58:11Z</time>
      </trkpt>
      <trkpt lat="45.73325" lon="3.27785">
        <ele>378.8</ele>
        <time>2024-05-19T07:58:12Z</time>
      </trkpt>
      <trkpt lat="45.73324" lon="3.27795">
        <ele>379</ele>
        <time>2024-05-19T07:58:13Z</time>
      </trkpt>
      <trkpt lat="45.73323" lon="3.27804">
        <ele>379</ele>
        <time>2024-05-19T07:58:14Z</time>
      </trkpt>
      <trkpt lat="45.73321" lon="3.27813">
        <ele>379</ele>
        <time>2024-05-19T07:58:15Z</time>
      </trkpt>
      <trkpt lat="45.7332" lon="3.27822">
        <ele>379.2</ele>
        <time>2024-05-19T07:58:16Z</time>
      </trkpt>
      <trkpt lat="45.73319" lon="3.2783">
        <ele>379.2</ele>
        <time>2024-05-19T07:58:17Z</time>
      </trkpt>
      <trkpt lat="45.73317" lon="3.27839">
        <ele>379.4</ele>
        <time>2024-05-19T07:58:18Z</time>
      </trkpt>
      <trkpt lat="45.73315" lon="3.27848">
        <ele>379.4</ele>
        <time>2024-05-19T07:58:19Z</time>
      </trkpt>
      <trkpt lat="45.73313" lon="3.27857">
        <ele>379.4</ele>
        <time>2024-05-19T07:58:20Z</time>
      </trkpt>
      <trkpt lat="45.73312" lon="3.27865">
        <ele>379.6</ele>
        <time>2024-05-19T07:58:21Z</time>
      </trkpt>
      <trkpt lat="45.7331" lon="3.27874">
        <ele>379.6</ele>
        <time>2024-05-19T07:58:22Z</time>
      </trkpt>
      <trkpt lat="45.73308" lon="3.27883">
        <ele>379.6</ele>
        <time>2024-05-19T07:58:23Z</time>
      </trkpt>
      <trkpt lat="45.73306" lon="3.27892">
        <ele>379.8</ele>
        <time>2024-05-19T07:58:24Z</time>
      </trkpt>
      <trkpt lat="45.73304" lon="3.27901">
        <ele>379.8</ele>
        <time>2024-05-19T07:58:25Z</time>
      </trkpt>
      <trkpt lat="45.73301" lon="3.27909">
        <ele>379.8</ele>
        <time>2024-05-19T07:58:26Z</time>
      </trkpt>
      <trkpt lat="45.73298" lon="3.27917">
        <ele>380</ele>
        <time>2024-05-19T07:58:27Z</time>
      </trkpt>
      <trkpt lat="45.73295" lon="3.27926">
        <ele>380</ele>
        <time>2024-05-19T07:58:28Z</time>
      </trkpt>
      <trkpt lat="45.73292" lon="3.27934">
        <ele>380.2</ele>
        <time>2024-05-19T07:58:29Z</time>
      </trkpt>
      <trkpt lat="45.73289" lon="3.27943">
        <ele>380.2</ele>
        <time>2024-05-19T07:58:30Z</time>
      </trkpt>
      <trkpt lat="45.73285" lon="3.2795">
        <ele>380.4</ele>
        <time>2024-05-19T07:58:31Z</time>
      </trkpt>
      <trkpt lat="45.73282" lon="3.27958">
        <ele>380.4</ele>
        <time>2024-05-19T07:58:32Z</time>
      </trkpt>
      <trkpt lat="45.73278" lon="3.27966">
        <ele>380.4</ele>
        <time>2024-05-19T07:58:33Z</time>
      </trkpt>
      <trkpt lat="45.73274" lon="3.27975">
        <ele>380.6</ele>
        <time>2024-05-19T07:58:34Z</time>
      </trkpt>
      <trkpt lat="45.73271" lon="3.27982">
        <ele>380.6</ele>
        <time>2024-05-19T07:58:35Z</time>
      </trkpt>
      <trkpt lat="45.73267" lon="3.2799">
        <ele>380.8</ele>
        <time>2024-05-19T07:58:36Z</time>
      </trkpt>
      <trkpt lat="45.73264" lon="3.27998">
        <ele>380.8</ele>
        <time>2024-05-19T07:58:37Z</time>
      </trkpt>
      <trkpt lat="45.73259" lon="3.28005">
        <ele>381</ele>
        <time>2024-05-19T07:58:38Z</time>
      </trkpt>
      <trkpt lat="45.73254" lon="3.28011">
        <ele>381</ele>
        <time>2024-05-19T07:58:39Z</time>
      </trkpt>
      <trkpt lat="45.73249" lon="3.28018">
        <ele>381.2</ele>
        <time>2024-05-19T07:58:40Z</time>
      </trkpt>
      <trkpt lat="45.73245" lon="3.28024">
        <ele>381.2</ele>
        <time>2024-05-19T07:58:41Z</time>
      </trkpt>
      <trkpt lat="45.7324" lon="3.2803">
        <ele>381.2</ele>
        <time>2024-05-19T07:58:42Z</time>
      </trkpt>
      <trkpt lat="45.73235" lon="3.28036">
        <ele>381.4</ele>
        <time>2024-05-19T07:58:43Z</time>
      </trkpt>
      <trkpt lat="45.7323" lon="3.28043">
        <ele>381.4</ele>
        <time>2024-05-19T07:58:44Z</time>
      </trkpt>
      <trkpt lat="45.73225" lon="3.2805">
        <ele>381.4</ele>
        <time>2024-05-19T07:58:45Z</time>
      </trkpt>
      <trkpt lat="45.73219" lon="3.28056">
        <ele>381.6</ele>
        <time>2024-05-19T07:58:46Z</time>
      </trkpt>
      <trkpt lat="45.73213" lon="3.2806">
        <ele>381.6</ele>
        <time>2024-05-19T07:58:47Z</time>
      </trkpt>
      <trkpt lat="45.73207" lon="3.28065">
        <ele>381.6</ele>
        <time>2024-05-19T07:58:48Z</time>
      </trkpt>
      <trkpt lat="45.73201" lon="3.2807">
        <ele>381.8</ele>
        <time>2024-05-19T07:58:49Z</time>
      </trkpt>
      <trkpt lat="45.73195" lon="3.28074">
        <ele>381.8</ele>
        <time>2024-05-19T07:58:50Z</time>
      </trkpt>
      <trkpt lat="45.73189" lon="3.28079">
        <ele>381.8</ele>
        <time>2024-05-19T07:58:51Z</time>
      </trkpt>
      <trkpt lat="45.73183" lon="3.28083">
        <ele>381.8</ele>
        <time>2024-05-19T07:58:52Z</time>
      </trkpt>
      <trkpt lat="45.73176" lon="3.28088">
        <ele>382</ele>
        <time>2024-05-19T07:58:53Z</time>
      </trkpt>
      <trkpt lat="45.73169" lon="3.28088">
        <ele>382</ele>
        <time>2024-05-19T07:58:54Z</time>
      </trkpt>
      <trkpt lat="45.73163" lon="3.28088">
        <ele>382</ele>
        <time>2024-05-19T07:58:55Z</time>
      </trkpt>
      <trkpt lat="45.73156" lon="3.28088">
        <ele>382.2</ele>
        <time>2024-05-19T07:58:56Z</time>
      </trkpt>
      <trkpt lat="45.73149" lon="3.28085">
        <ele>382.2</ele>
        <time>2024-05-19T07:58:57Z</time>
      </trkpt>
      <trkpt lat="45.73142" lon="3.28083">
        <ele>382.4</ele>
        <time>2024-05-19T07:58:58Z</time>
      </trkpt>
      <trkpt lat="45.73136" lon="3.2808">
        <ele>382.4</ele>
        <time>2024-05-19T07:58:59Z</time>
      </trkpt>
      <trkpt lat="45.7313" lon="3.28077">
        <ele>382.6</ele>
        <time>2024-05-19T07:59:00Z</time>
      </trkpt>
      <trkpt lat="45.73123" lon="3.28074">
        <ele>382.6</ele>
        <time>2024-05-19T07:59:01Z</time>
      </trkpt>
      <trkpt lat="45.73117" lon="3.28071">
        <ele>382.8</ele>
        <time>2024-05-19T07:59:02Z</time>
      </trkpt>
      <trkpt lat="45.73111" lon="3.28068">
        <ele>382.8</ele>
        <time>2024-05-19T07:59:03Z</time>
      </trkpt>
      <trkpt lat="45.73105" lon="3.28064">
        <ele>383</ele>
        <time>2024-05-19T07:59:04Z</time>
      </trkpt>
      <trkpt lat="45.73099" lon="3.28061">
        <ele>383</ele>
        <time>2024-05-19T07:59:05Z</time>
      </trkpt>
      <trkpt lat="45.73093" lon="3.28058">
        <ele>383.2</ele>
        <time>2024-05-19T07:59:06Z</time>
      </trkpt>
      <trkpt lat="45.73087" lon="3.28055">
        <ele>383.2</ele>
        <time>2024-05-19T07:59:07Z</time>
      </trkpt>
      <trkpt lat="45.7308" lon="3.28052">
        <ele>383.4</ele>
        <time>2024-05-19T07:59:08Z</time>
      </trkpt>
      <trkpt lat="45.73074" lon="3.28049">
        <ele>383.4</ele>
        <time>2024-05-19T07:59:09Z</time>
      </trkpt>
      <trkpt lat="45.73068" lon="3.28045">
        <ele>383.6</ele>
        <time>2024-05-19T07:59:10Z</time>
      </trkpt>
      <trkpt lat="45.73062" lon="3.28042">
        <ele>383.6</ele>
        <time>2024-05-19T07:59:11Z</time>
      </trkpt>
      <trkpt lat="45.73055" lon="3.28039">
        <ele>383.8</ele>
        <time>2024-05-19T07:59:12Z</time>
      </trkpt>
      <trkpt lat="45.73049" lon="3.28036">
        <ele>383.8</ele>
        <time>2024-05-19T07:59:13Z</time>
      </trkpt>
      <trkpt lat="45.73043" lon="3.28033">
        <ele>384</ele>
        <time>2024-05-19T07:59:14Z</time>
      </trkpt>
      <trkpt lat="45.73036" lon="3.28029">
        <ele>384</ele>
        <time>2024-05-19T07:59:15Z</time>
      </trkpt>
      <trkpt lat="45.7303" lon="3.28026">
        <ele>384.2</ele>
        <time>2024-05-19T07:59:16Z</time>
      </trkpt>
      <trkpt lat="45.73024" lon="3.28023">
        <ele>384.2</ele>
        <time>2024-05-19T07:59:17Z</time>
      </trkpt>
      <trkpt lat="45.73018" lon="3.28019">
        <ele>384.4</ele>
        <time>2024-05-19T07:59:18Z</time>
      </trkpt>
      <trkpt lat="45.73011" lon="3.28016">
        <ele>384.4</ele>
        <time>2024-05-19T07:59:19Z</time>
      </trkpt>
      <trkpt lat="45.73005" lon="3.28012">
        <ele>384.4</ele>
        <time>2024-05-19T07:59:20Z</time>
      </trkpt>
      <trkpt lat="45.72999" lon="3.28008">
        <ele>384.6</ele>
        <time>2024-05-19T07:59:21Z</time>
      </trkpt>
      <trkpt lat="45.72993" lon="3.28004">
        <ele>384.6</ele>
        <time>2024-05-19T07:59:22Z</time>
      </trkpt>
      <trkpt lat="45.72986" lon="3.28">
        <ele>384.8</ele>
        <time>2024-05-19T07:59:23Z</time>
      </trkpt>
      <trkpt lat="45.7298" lon="3.27996">
        <ele>384.8</ele>
        <time>2024-05-19T07:59:24Z</time>
      </trkpt>
      <trkpt lat="45.72974" lon="3.27992">
        <ele>385</ele>
        <time>2024-05-19T07:59:25Z</time>
      </trkpt>
      <trkpt lat="45.72967" lon="3.27987">
        <ele>385</ele>
        <time>2024-05-19T07:59:26Z</time>
      </trkpt>
      <trkpt lat="45.72961" lon="3.27983">
        <ele>385</ele>
        <time>2024-05-19T07:59:27Z</time>
      </trkpt>
      <trkpt lat="45.72954" lon="3.27979">
        <ele>385.2</ele>
        <time>2024-05-19T07:59:28Z</time>
      </trkpt>
      <trkpt lat="45.72948" lon="3.27975">
        <ele>385.2</ele>
        <time>2024-05-19T07:59:29Z</time>
      </trkpt>
      <trkpt lat="45.72942" lon="3.2797">
        <ele>385.2</ele>
        <time>2024-05-19T07:59:30Z</time>
      </trkpt>
      <trkpt lat="45.72935" lon="3.27965">
        <ele>385.4</ele>
        <time>2024-05-19T07:59:31Z</time>
      </trkpt>
      <trkpt lat="45.72929" lon="3.2796">
        <ele>385.4</ele>
        <time>2024-05-19T07:59:32Z</time>
      </trkpt>
      <trkpt lat="45.72922" lon="3.27955">
        <ele>385.4</ele>
        <time>2024-05-19T07:59:33Z</time>
      </trkpt>
      <trkpt lat="45.72916" lon="3.2795">
        <ele>385.6</ele>
        <time>2024-05-19T07:59:34Z</time>
      </trkpt>
      <trkpt lat="45.72909" lon="3.27945">
        <ele>385.6</ele>
        <time>2024-05-19T07:59:35Z</time>
      </trkpt>
      <trkpt lat="45.72903" lon="3.27939">
        <ele>385.6</ele>
        <time>2024-05-19T07:59:36Z</time>
      </trkpt>
      <trkpt lat="45.72896" lon="3.27934">
        <ele>385.8</ele>
        <time>2024-05-19T07:59:37Z</time>
      </trkpt>
      <trkpt lat="45.7289" lon="3.27929">
        <ele>385.8</ele>
        <time>2024-05-19T07:59:38Z</time>
      </trkpt>
      <trkpt lat="45.72883" lon="3.27924">
        <ele>385.8</ele>
        <time>2024-05-19T07:59:39Z</time>
      </trkpt>
      <trkpt lat="45.72876" lon="3.27919">
        <ele>385.8</ele>
        <time>2024-05-19T07:59:40Z</time>
      </trkpt>
      <trkpt lat="45.7287" lon="3.27913">
        <ele>386</ele>
        <time>2024-05-19T07:59:41Z</time>
      </trkpt>
      <trkpt lat="45.72863" lon="3.27908">
        <ele>386</ele>
        <time>2024-05-19T07:59:42Z</time>
      </trkpt>
      <trkpt lat="45.72856" lon="3.27903">
        <ele>386</ele>
        <time>2024-05-19T07:59:43Z</time>
      </trkpt>
      <trkpt lat="45.72849" lon="3.27898">
        <ele>386</ele>
        <time>2024-05-19T07:59:44Z</time>
      </trkpt>
      <trkpt lat="45.72843" lon="3.27892">
        <ele>386</ele>
        <time>2024-05-19T07:59:45Z</time>
      </trkpt>
      <trkpt lat="45.72835" lon="3.2789">
        <ele>386.2</ele>
        <time>2024-05-19T07:59:46Z</time>
      </trkpt>
      <trkpt lat="45.72827" lon="3.2789">
        <ele>386.2</ele>
        <time>2024-05-19T07:59:47Z</time>
      </trkpt>
      <trkpt lat="45.7282" lon="3.2789">
        <ele>386.2</ele>
        <time>2024-05-19T07:59:48Z</time>
      </trkpt>
      <trkpt lat="45.72813" lon="3.2789">
        <ele>386.2</ele>
        <time>2024-05-19T07:59:49Z</time>
      </trkpt>
      <trkpt lat="45.72805" lon="3.2789">
        <ele>386.4</ele>
        <time>2024-05-19T07:59:50Z</time>
      </trkpt>
      <trkpt lat="45.72798" lon="3.2789">
        <ele>386.4</ele>
        <time>2024-05-19T07:59:51Z</time>
      </trkpt>
      <trkpt lat="45.72791" lon="3.2789">
        <ele>386.4</ele>
        <time>2024-05-19T07:59:52Z</time>
      </trkpt>
      <trkpt lat="45.72783" lon="3.2789">
        <ele>386.4</ele>
        <time>2024-05-19T07:59:53Z</time>
      </trkpt>
      <trkpt lat="45.72776" lon="3.2789">
        <ele>386.6</ele>
        <time>2024-05-19T07:59:54Z</time>
      </trkpt>
      <trkpt lat="45.72769" lon="3.27891">
        <ele>386.6</ele>
        <time>2024-05-19T07:59:55Z</time>
      </trkpt>
      <trkpt lat="45.72763" lon="3.27891">
        <ele>386.6</ele>
        <time>2024-05-19T07:59:56Z</time>
      </trkpt>
      <trkpt lat="45.72756" lon="3.27892">
        <ele>386.8</ele>
        <time>2024-05-19T07:59:57Z</time>
      </trkpt>
      <trkpt lat="45.72749" lon="3.27892">
        <ele>386.8</ele>
        <time>2024-05-19T07:59:58Z</time>
      </trkpt>
      <trkpt lat="45.72742" lon="3.27893">
        <ele>386.8</ele>
        <time>2024-05-19T07:59:59Z</time>
      </trkpt>
      <trkpt lat="45.72735" lon="3.27894">
        <ele>386.8</ele>
        <time>2024-05-19T08:00:00Z</time>
      </trkpt>
      <trkpt lat="45.72728" lon="3.27894">
        <ele>387</ele>
        <time>2024-05-19T08:00:01Z</time>
      </trkpt>
      <trkpt lat="45.72721" lon="3.27895">
        <ele>387</ele>
        <time>2024-05-19T08:00:02Z</time>
      </trkpt>
      <trkpt lat="45.72714" lon="3.27895">
        <ele>387</ele>
        <time>2024-05-19T08:00:03Z</time>
      </trkpt>
      <trkpt lat="45.72707" lon="3.27896">
        <ele>387.2</ele>
        <time>2024-05-19T08:00:04Z</time>
      </trkpt>
      <trkpt lat="45.727" lon="3.27897">
        <ele>387.2</ele>
        <time>2024-05-19T08:00:05Z</time>
      </trkpt>
      <trkpt lat="45.72693" lon="3.27897">
        <ele>387.2</ele>
        <time>2024-05-19T08:00:06Z</time>
      </trkpt>
      <trkpt lat="45.72686" lon="3.27898">
        <ele>387.4</ele>
        <time>2024-05-19T08:00:07Z</time>
      </trkpt>
      <trkpt lat="45.72679" lon="3.27898">
        <ele>387.4</ele>
        <time>2024-05-19T08:00:08Z</time>
      </trkpt>
      <trkpt lat="45.72672" lon="3.27899">
        <ele>387.6</ele>
        <time>2024-05-19T08:00:09Z</time>
      </trkpt>
      <trkpt lat="45.72666" lon="3.279">
        <ele>387.6</ele>
        <time>2024-05-19T08:00:10Z</time>
      </trkpt>
      <trkpt lat="45.72659" lon="3.279">
        <ele>387.6</ele>
        <time>2024-05-19T08:00:11Z</time>
      </trkpt>
      <trkpt lat="45.72652" lon="3.27901">
        <ele>387.8</ele>
        <time>2024-05-19T08:00:12Z</time>
      </trkpt>
      <trkpt lat="45.72645" lon="3.27897">
        <ele>387.8</ele>
        <time>2024-05-19T08:00:13Z</time>
      </trkpt>
      <trkpt lat="45.72639" lon="3.27891">
        <ele>387.8</ele>
        <time>2024-05-19T08:00:14Z</time>
      </trkpt>
      <trkpt lat="45.72633" lon="3.27885">
        <ele>387.8</ele>
        <time>2024-05-19T08:00:15Z</time>
      </trkpt>
      <trkpt lat="45.72627" lon="3.27879">
        <ele>387.8</ele>
        <time>2024-05-19T08:00:16Z</time>
      </trkpt>
      <trkpt lat="45.7262" lon="3.27873">
        <ele>387.8</ele>
        <time>2024-05-19T08:00:17Z</time>
      </trkpt>
      <trkpt lat="45.72614" lon="3.27868">
        <ele>387.8</ele>
        <time>2024-05-19T08:00:18Z</time>
      </trkpt>
      <trkpt lat="45.72609" lon="3.27862">
        <ele>387.6</ele>
        <time>2024-05-19T08:00:19Z</time>
      </trkpt>
      <trkpt lat="45.72603" lon="3.27856">
        <ele>387.6</ele>
        <time>2024-05-19T08:00:20Z</time>
      </trkpt>
      <trkpt lat="45.72597" lon="3.27851">
        <ele>387.6</ele>
        <time>2024-05-19T08:00:21Z</time>
      </trkpt>
      <trkpt lat="45.7259" lon="3.27847">
        <ele>387.6</ele>
        <time>2024-05-19T08:00:22Z</time>
      </trkpt>
      <trkpt lat="45.72584" lon="3.27845">
        <ele>387.6</ele>
        <time>2024-05-19T08:00:23Z</time>
      </trkpt>
      <trkpt lat="45.72577" lon="3.27843">
        <ele>387.8</ele>
        <time>2024-05-19T08:00:24Z</time>
      </trkpt>
      <trkpt lat="45.72571" lon="3.27841">
        <ele>387.8</ele>
        <time>2024-05-19T08:00:25Z</time>
      </trkpt>
      <trkpt lat="45.72564" lon="3.27839">
        <ele>387.8</ele>
        <time>2024-05-19T08:00:26Z</time>
      </trkpt>
      <trkpt lat="45.72558" lon="3.27837">
        <ele>388</ele>
        <time>2024-05-19T08:00:27Z</time>
      </trkpt>
      <trkpt lat="45.72552" lon="3.27835">
        <ele>388</ele>
        <time>2024-05-19T08:00:28Z</time>
      </trkpt>
      <trkpt lat="45.72546" lon="3.27833">
        <ele>388</ele>
        <time>2024-05-19T08:00:29Z</time>
      </trkpt>
      <trkpt lat="45.72541" lon="3.27832">
        <ele>388</ele>
        <time>2024-05-19T08:00:30Z</time>
      </trkpt>
      <trkpt lat="45.72535" lon="3.2783">
        <ele>388.2</ele>
        <time>2024-05-19T08:00:31Z</time>
      </trkpt>
      <trkpt lat="45.72529" lon="3.27828">
        <ele>388.2</ele>
        <time>2024-05-19T08:00:32Z</time>
      </trkpt>
      <trkpt lat="45.72523" lon="3.27827">
        <ele>388.4</ele>
        <time>2024-05-19T08:00:33Z</time>
      </trkpt>
      <trkpt lat="45.72517" lon="3.27827">
        <ele>388.4</ele>
        <time>2024-05-19T08:00:34Z</time>
      </trkpt>
      <trkpt lat="45.72511" lon="3.27826">
        <ele>388.4</ele>
        <time>2024-05-19T08:00:35Z</time>
      </trkpt>
      <trkpt lat="45.72506" lon="3.27825">
        <ele>388.6</ele>
        <time>2024-05-19T08:00:36Z</time>
      </trkpt>
      <trkpt lat="45.725" lon="3.27825">
        <ele>388.6</ele>
        <time>2024-05-19T08:00:37Z</time>
      </trkpt>
      <trkpt lat="45.72495" lon="3.27824">
        <ele>388.6</ele>
        <time>2024-05-19T08:00:38Z</time>
      </trkpt>
      <trkpt lat="45.72491" lon="3.27823">
        <ele>388.6</ele>
        <time>2024-05-19T08:00:39Z</time>
      </trkpt>
      <trkpt lat="45.72486" lon="3.27822">
        <ele>388.8</ele>
        <time>2024-05-19T08:00:40Z</time>
      </trkpt>
      <trkpt lat="45.72481" lon="3.27821">
        <ele>388.8</ele>
        <time>2024-05-19T08:00:41Z</time>
      </trkpt>
      <trkpt lat="45.72473" lon="3.27829">
        <ele>388.8</ele>
        <time>2024-05-19T08:00:42Z</time>
      </trkpt>
      <trkpt lat="45.7247" lon="3.27823">
        <ele>388.8</ele>
        <time>2024-05-19T08:00:43Z</time>
      </trkpt>
      <trkpt lat="45.72467" lon="3.27817">
        <ele>388.8</ele>
        <time>2024-05-19T08:00:44Z</time>
      </trkpt>
      <trkpt lat="45.72463" lon="3.27812">
        <ele>389</ele>
        <time>2024-05-19T08:00:45Z</time>
      </trkpt>
      <trkpt lat="45.72458" lon="3.27806">
        <ele>389</ele>
        <time>2024-05-19T08:00:46Z</time>
      </trkpt>
      <trkpt lat="45.72454" lon="3.278">
        <ele>389</ele>
        <time>2024-05-19T08:00:47Z</time>
      </trkpt>
      <trkpt lat="45.72449" lon="3.27793">
        <ele>389</ele>
        <time>2024-05-19T08:00:48Z</time>
      </trkpt>
      <trkpt lat="45.72444" lon="3.27787">
        <ele>389</ele>
        <time>2024-05-19T08:00:49Z</time>
      </trkpt>
      <trkpt lat="45.72439" lon="3.27782">
        <ele>389</ele>
        <time>2024-05-19T08:00:50Z</time>
      </trkpt>
      <trkpt lat="45.72433" lon="3.27777">
        <ele>389</ele>
        <time>2024-05-19T08:00:51Z</time>
      </trkpt>
      <trkpt lat="45.72427" lon="3.27772">
        <ele>389</ele>
        <time>2024-05-19T08:00:52Z</time>
      </trkpt>
      <trkpt lat="45.72421" lon="3.27767">
        <ele>389</ele>
        <time>2024-05-19T08:00:53Z</time>
      </trkpt>
      <trkpt lat="45.72415" lon="3.27762">
        <ele>389</ele>
        <time>2024-05-19T08:00:54Z</time>
      </trkpt>
      <trkpt lat="45.72409" lon="3.27757">
        <ele>389</ele>
        <time>2024-05-19T08:00:55Z</time>
      </trkpt>
      <trkpt lat="45.72403" lon="3.27751">
        <ele>389</ele>
        <time>2024-05-19T08:00:56Z</time>
      </trkpt>
      <trkpt lat="45.72396" lon="3.27746">
        <ele>389</ele>
        <time>2024-05-19T08:00:57Z</time>
      </trkpt>
      <trkpt lat="45.7239" lon="3.27741">
        <ele>389</ele>
        <time>2024-05-19T08:00:58Z</time>
      </trkpt>
      <trkpt lat="45.72384" lon="3.27736">
        <ele>389</ele>
        <time>2024-05-19T08:00:59Z</time>
      </trkpt>
      <trkpt lat="45.72378" lon="3.2773">
        <ele>389</ele>
        <time>2024-05-19T08:01:00Z</time>
      </trkpt>
      <trkpt lat="45.72371" lon="3.27725">
        <ele>389</ele>
        <time>2024-05-19T08:01:01Z</time>
      </trkpt>
      <trkpt lat="45.72365" lon="3.2772">
        <ele>389</ele>
        <time>2024-05-19T08:01:02Z</time>
      </trkpt>
      <trkpt lat="45.72358" lon="3.27714">
        <ele>389</ele>
        <time>2024-05-19T08:01:03Z</time>
      </trkpt>
      <trkpt lat="45.72352" lon="3.27709">
        <ele>389</ele>
        <time>2024-05-19T08:01:04Z</time>
      </trkpt>
      <trkpt lat="45.72345" lon="3.27703">
        <ele>389</ele>
        <time>2024-05-19T08:01:05Z</time>
      </trkpt>
      <trkpt lat="45.72339" lon="3.27697">
        <ele>389</ele>
        <time>2024-05-19T08:01:06Z</time>
      </trkpt>
      <trkpt lat="45.72332" lon="3.27692">
        <ele>389</ele>
        <time>2024-05-19T08:01:07Z</time>
      </trkpt>
      <trkpt lat="45.72325" lon="3.27686">
        <ele>389</ele>
        <time>2024-05-19T08:01:08Z</time>
      </trkpt>
      <trkpt lat="45.72318" lon="3.27681">
        <ele>389</ele>
        <time>2024-05-19T08:01:09Z</time>
      </trkpt>
      <trkpt lat="45.72311" lon="3.27675">
        <ele>388.8</ele>
        <time>2024-05-19T08:01:10Z</time>
      </trkpt>
      <trkpt lat="45.72305" lon="3.27669">
        <ele>388.8</ele>
        <time>2024-05-19T08:01:11Z</time>
      </trkpt>
      <trkpt lat="45.72298" lon="3.27663">
        <ele>388.8</ele>
        <time>2024-05-19T08:01:12Z</time>
      </trkpt>
      <trkpt lat="45.72291" lon="3.27655">
        <ele>388.8</ele>
        <time>2024-05-19T08:01:13Z</time>
      </trkpt>
      <trkpt lat="45.72285" lon="3.27647">
        <ele>388.6</ele>
        <time>2024-05-19T08:01:14Z</time>
      </trkpt>
      <trkpt lat="45.72279" lon="3.27639">
        <ele>388.6</ele>
        <time>2024-05-19T08:01:15Z</time>
      </trkpt>
      <trkpt lat="45.72273" lon="3.27631">
        <ele>388.6</ele>
        <time>2024-05-19T08:01:16Z</time>
      </trkpt>
      <trkpt lat="45.72266" lon="3.27623">
        <ele>388.4</ele>
        <time>2024-05-19T08:01:17Z</time>
      </trkpt>
      <trkpt lat="45.7226" lon="3.27614">
        <ele>388.2</ele>
        <time>2024-05-19T08:01:18Z</time>
      </trkpt>
      <trkpt lat="45.72254" lon="3.27606">
        <ele>388.2</ele>
        <time>2024-05-19T08:01:19Z</time>
      </trkpt>
      <trkpt lat="45.72249" lon="3.27596">
        <ele>388</ele>
        <time>2024-05-19T08:01:20Z</time>
      </trkpt>
      <trkpt lat="45.72243" lon="3.27586">
        <ele>388</ele>
        <time>2024-05-19T08:01:21Z</time>
      </trkpt>
      <trkpt lat="45.72238" lon="3.27576">
        <ele>387.8</ele>
        <time>2024-05-19T08:01:22Z</time>
      </trkpt>
      <trkpt lat="45.72233" lon="3.27567">
        <ele>387.8</ele>
        <time>2024-05-19T08:01:23Z</time>
      </trkpt>
      <trkpt lat="45.72229" lon="3.27556">
        <ele>387.6</ele>
        <time>2024-05-19T08:01:24Z</time>
      </trkpt>
      <trkpt lat="45.72224" lon="3.27546">
        <ele>387.6</ele>
        <time>2024-05-19T08:01:25Z</time>
      </trkpt>
      <trkpt lat="45.7222" lon="3.27535">
        <ele>387.4</ele>
        <time>2024-05-19T08:01:26Z</time>
      </trkpt>
      <trkpt lat="45.72216" lon="3.27525">
        <ele>387.2</ele>
        <time>2024-05-19T08:01:27Z</time>
      </trkpt>
      <trkpt lat="45.72211" lon="3.27514">
        <ele>387.2</ele>
        <time>2024-05-19T08:01:28Z</time>
      </trkpt>
      <trkpt lat="45.72207" lon="3.27503">
        <ele>387.2</ele>
        <time>2024-05-19T08:01:29Z</time>
      </trkpt>
      <trkpt lat="45.72205" lon="3.27491">
        <ele>387</ele>
        <time>2024-05-19T08:01:30Z</time>
      </trkpt>
      <trkpt lat="45.72203" lon="3.27479">
        <ele>386.8</ele>
        <time>2024-05-19T08:01:31Z</time>
      </trkpt>
      <trkpt lat="45.722" lon="3.27467">
        <ele>386.8</ele>
        <time>2024-05-19T08:01:32Z</time>
      </trkpt>
      <trkpt lat="45.72198" lon="3.27455">
        <ele>386.6</ele>
        <time>2024-05-19T08:01:33Z</time>
      </trkpt>
      <trkpt lat="45.72196" lon="3.27443">
        <ele>386.6</ele>
        <time>2024-05-19T08:01:34Z</time>
      </trkpt>
      <trkpt lat="45.72194" lon="3.27431">
        <ele>386.4</ele>
        <time>2024-05-19T08:01:35Z</time>
      </trkpt>
      <trkpt lat="45.72191" lon="3.27418">
        <ele>386.4</ele>
        <time>2024-05-19T08:01:36Z</time>
      </trkpt>
      <trkpt lat="45.7219" lon="3.27406">
        <ele>386.2</ele>
        <time>2024-05-19T08:01:37Z</time>
      </trkpt>
      <trkpt lat="45.72189" lon="3.27393">
        <ele>386</ele>
        <time>2024-05-19T08:01:38Z</time>
      </trkpt>
      <trkpt lat="45.72188" lon="3.2738">
        <ele>385.8</ele>
        <time>2024-05-19T08:01:39Z</time>
      </trkpt>
      <trkpt lat="45.72187" lon="3.27367">
        <ele>385.8</ele>
        <time>2024-05-19T08:01:40Z</time>
      </trkpt>
      <trkpt lat="45.72187" lon="3.27354">
        <ele>385.6</ele>
        <time>2024-05-19T08:01:41Z</time>
      </trkpt>
      <trkpt lat="45.72186" lon="3.27341">
        <ele>385.6</ele>
        <time>2024-05-19T08:01:42Z</time>
      </trkpt>
      <trkpt lat="45.72186" lon="3.27328">
        <ele>385.4</ele>
        <time>2024-05-19T08:01:43Z</time>
      </trkpt>
      <trkpt lat="45.72186" lon="3.27316">
        <ele>385.4</ele>
        <time>2024-05-19T08:01:44Z</time>
      </trkpt>
      <trkpt lat="45.72186" lon="3.27303">
        <ele>385.2</ele>
        <time>2024-05-19T08:01:45Z</time>
      </trkpt>
      <trkpt lat="45.72187" lon="3.27291">
        <ele>385.2</ele>
        <time>2024-05-19T08:01:46Z</time>
      </trkpt>
      <trkpt lat="45.72187" lon="3.27279">
        <ele>385</ele>
        <time>2024-05-19T08:01:47Z</time>
      </trkpt>
      <trkpt lat="45.72187" lon="3.27267">
        <ele>384.8</ele>
        <time>2024-05-19T08:01:48Z</time>
      </trkpt>
      <trkpt lat="45.72187" lon="3.27255">
        <ele>384.8</ele>
        <time>2024-05-19T08:01:49Z</time>
      </trkpt>
      <trkpt lat="45.72188" lon="3.27244">
        <ele>384.8</ele>
        <time>2024-05-19T08:01:50Z</time>
      </trkpt>
      <trkpt lat="45.72188" lon="3.27232">
        <ele>384.8</ele>
        <time>2024-05-19T08:01:51Z</time>
      </trkpt>
      <trkpt lat="45.72188" lon="3.27221">
        <ele>384.6</ele>
        <time>2024-05-19T08:01:52Z</time>
      </trkpt>
      <trkpt lat="45.72188" lon="3.2721">
        <ele>384.6</ele>
        <time>2024-05-19T08:01:53Z</time>
      </trkpt>
      <trkpt lat="45.72188" lon="3.27199">
        <ele>384.6</ele>
        <time>2024-05-19T08:01:54Z</time>
      </trkpt>
      <trkpt lat="45.72189" lon="3.27187">
        <ele>384.4</ele>
        <time>2024-05-19T08:01:55Z</time>
      </trkpt>
      <trkpt lat="45.72189" lon="3.27177">
        <ele>384.4</ele>
        <time>2024-05-19T08:01:56Z</time>
      </trkpt>
      <trkpt lat="45.72189" lon="3.27166">
        <ele>384.4</ele>
        <time>2024-05-19T08:01:57Z</time>
      </trkpt>
      <trkpt lat="45.72189" lon="3.27155">
        <ele>384.4</ele>
        <time>2024-05-19T08:01:58Z</time>
      </trkpt>
      <trkpt lat="45.7219" lon="3.27144">
        <ele>384.4</ele>
        <time>2024-05-19T08:01:59Z</time>
      </trkpt>
      <trkpt lat="45.7219" lon="3.27133">
        <ele>384.2</ele>
        <time>2024-05-19T08:02:00Z</time>
      </trkpt>
      <trkpt lat="45.7219" lon="3.27123">
        <ele>384.2</ele>
        <time>2024-05-19T08:02:01Z</time>
      </trkpt>
      <trkpt lat="45.7219" lon="3.27112">
        <ele>384.2</ele>
        <time>2024-05-19T08:02:02Z</time>
      </trkpt>
      <trkpt lat="45.7219" lon="3.27102">
        <ele>384</ele>
        <time>2024-05-19T08:02:03Z</time>
      </trkpt>
      <trkpt lat="45.72191" lon="3.27092">
        <ele>384</ele>
        <time>2024-05-19T08:02:04Z</time>
      </trkpt>
      <trkpt lat="45.72191" lon="3.27081">
        <ele>384</ele>
        <time>2024-05-19T08:02:05Z</time>
      </trkpt>
      <trkpt lat="45.72191" lon="3.27071">
        <ele>384</ele>
        <time>2024-05-19T08:02:06Z</time>
      </trkpt>
      <trkpt lat="45.72191" lon="3.27061">
        <ele>383.8</ele>
        <time>2024-05-19T08:02:07Z</time>
      </trkpt>
      <trkpt lat="45.72191" lon="3.27051">
        <ele>383.8</ele>
        <time>2024-05-19T08:02:08Z</time>
      </trkpt>
      <trkpt lat="45.72192" lon="3.2704">
        <ele>383.8</ele>
        <time>2024-05-19T08:02:09Z</time>
      </trkpt>
      <trkpt lat="45.72192" lon="3.2703">
        <ele>383.6</ele>
        <time>2024-05-19T08:02:10Z</time>
      </trkpt>
      <trkpt lat="45.72192" lon="3.2702">
        <ele>383.6</ele>
        <time>2024-05-19T08:02:11Z</time>
      </trkpt>
      <trkpt lat="45.72192" lon="3.2701">
        <ele>383.6</ele>
        <time>2024-05-19T08:02:12Z</time>
      </trkpt>
      <trkpt lat="45.72192" lon="3.27">
        <ele>383.6</ele>
        <time>2024-05-19T08:02:13Z</time>
      </trkpt>
      <trkpt lat="45.72193" lon="3.2699">
        <ele>383.6</ele>
        <time>2024-05-19T08:02:14Z</time>
      </trkpt>
      <trkpt lat="45.72193" lon="3.2698">
        <ele>383.6</ele>
        <time>2024-05-19T08:02:15Z</time>
      </trkpt>
      <trkpt lat="45.72193" lon="3.2697">
        <ele>383.6</ele>
        <time>2024-05-19T08:02:16Z</time>
      </trkpt>
      <trkpt lat="45.72193" lon="3.2696">
        <ele>383.6</ele>
        <time>2024-05-19T08:02:17Z</time>
      </trkpt>
      <trkpt lat="45.72193" lon="3.26951">
        <ele>383.4</ele>
        <time>2024-05-19T08:02:18Z</time>
      </trkpt>
      <trkpt lat="45.72194" lon="3.26941">
        <ele>383.4</ele>
        <time>2024-05-19T08:02:19Z</time>
      </trkpt>
      <trkpt lat="45.72194" lon="3.26931">
        <ele>383.4</ele>
        <time>2024-05-19T08:02:20Z</time>
      </trkpt>
      <trkpt lat="45.72194" lon="3.26921">
        <ele>383.4</ele>
        <time>2024-05-19T08:02:21Z</time>
      </trkpt>
      <trkpt lat="45.72194" lon="3.26911">
        <ele>383.4</ele>
        <time>2024-05-19T08:02:22Z</time>
      </trkpt>
      <trkpt lat="45.72194" lon="3.26901">
        <ele>383.4</ele>
        <time>2024-05-19T08:02:23Z</time>
      </trkpt>
      <trkpt lat="45.72194" lon="3.26891">
        <ele>383.4</ele>
        <time>2024-05-19T08:02:24Z</time>
      </trkpt>
      <trkpt lat="45.72195" lon="3.26882">
        <ele>383.2</ele>
        <time>2024-05-19T08:02:25Z</time>
      </trkpt>
      <trkpt lat="45.72195" lon="3.26871">
        <ele>383.2</ele>
        <time>2024-05-19T08:02:26Z</time>
      </trkpt>
      <trkpt lat="45.72195" lon="3.26862">
        <ele>383.2</ele>
        <time>2024-05-19T08:02:27Z</time>
      </trkpt>
      <trkpt lat="45.72195" lon="3.26852">
        <ele>383.2</ele>
        <time>2024-05-19T08:02:28Z</time>
      </trkpt>
      <trkpt lat="45.72195" lon="3.26842">
        <ele>383.2</ele>
        <time>2024-05-19T08:02:29Z</time>
      </trkpt>
      <trkpt lat="45.72196" lon="3.26832">
        <ele>383.2</ele>
        <time>2024-05-19T08:02:30Z</time>
      </trkpt>
      <trkpt lat="45.72196" lon="3.26822">
        <ele>383.2</ele>
        <time>2024-05-19T08:02:31Z</time>
      </trkpt>
      <trkpt lat="45.72196" lon="3.26812">
        <ele>383.2</ele>
        <time>2024-05-19T08:02:32Z</time>
      </trkpt>
      <trkpt lat="45.72196" lon="3.26802">
        <ele>383.2</ele>
        <time>2024-05-19T08:02:33Z</time>
      </trkpt>
      <trkpt lat="45.72196" lon="3.26792">
        <ele>383</ele>
        <time>2024-05-19T08:02:34Z</time>
      </trkpt>
      <trkpt lat="45.72197" lon="3.26782">
        <ele>383</ele>
        <time>2024-05-19T08:02:35Z</time>
      </trkpt>
      <trkpt lat="45.72197" lon="3.26771">
        <ele>383</ele>
        <time>2024-05-19T08:02:36Z</time>
      </trkpt>
      <trkpt lat="45.72197" lon="3.26761">
        <ele>382.8</ele>
        <time>2024-05-19T08:02:37Z</time>
      </trkpt>
      <trkpt lat="45.72197" lon="3.26751">
        <ele>382.8</ele>
        <time>2024-05-19T08:02:38Z</time>
      </trkpt>
      <trkpt lat="45.72197" lon="3.26741">
        <ele>382.8</ele>
        <time>2024-05-19T08:02:39Z</time>
      </trkpt>
      <trkpt lat="45.72198" lon="3.26731">
        <ele>382.6</ele>
        <time>2024-05-19T08:02:40Z</time>
      </trkpt>
      <trkpt lat="45.72198" lon="3.26721">
        <ele>382.6</ele>
        <time>2024-05-19T08:02:41Z</time>
      </trkpt>
      <trkpt lat="45.72198" lon="3.2671">
        <ele>382.6</ele>
        <time>2024-05-19T08:02:42Z</time>
      </trkpt>
      <trkpt lat="45.72198" lon="3.267">
        <ele>382.6</ele>
        <time>2024-05-19T08:02:43Z</time>
      </trkpt>
      <trkpt lat="45.72198" lon="3.26689">
        <ele>382.6</ele>
        <time>2024-05-19T08:02:44Z</time>
      </trkpt>
      <trkpt lat="45.72199" lon="3.26679">
        <ele>382.4</ele>
        <time>2024-05-19T08:02:45Z</time>
      </trkpt>
      <trkpt lat="45.72199" lon="3.26668">
        <ele>382.4</ele>
        <time>2024-05-19T08:02:46Z</time>
      </trkpt>
      <trkpt lat="45.72199" lon="3.26658">
        <ele>382.4</ele>
        <time>2024-05-19T08:02:47Z</time>
      </trkpt>
      <trkpt lat="45.72199" lon="3.26647">
        <ele>382.4</ele>
        <time>2024-05-19T08:02:48Z</time>
      </trkpt>
      <trkpt lat="45.72199" lon="3.26636">
        <ele>382.2</ele>
        <time>2024-05-19T08:02:49Z</time>
      </trkpt>
      <trkpt lat="45.72199" lon="3.26626">
        <ele>382.2</ele>
        <time>2024-05-19T08:02:50Z</time>
      </trkpt>
      <trkpt lat="45.72199" lon="3.26615">
        <ele>382.2</ele>
        <time>2024-05-19T08:02:51Z</time>
      </trkpt>
      <trkpt lat="45.72199" lon="3.26604">
        <ele>382.2</ele>
        <time>2024-05-19T08:02:52Z</time>
      </trkpt>
      <trkpt lat="45.72199" lon="3.26594">
        <ele>382</ele>
        <time>2024-05-19T08:02:53Z</time>
      </trkpt>
      <trkpt lat="45.722" lon="3.26583">
        <ele>382</ele>
        <time>2024-05-19T08:02:54Z</time>
      </trkpt>
      <trkpt lat="45.722" lon="3.26573">
        <ele>382</ele>
        <time>2024-05-19T08:02:55Z</time>
      </trkpt>
      <trkpt lat="45.722" lon="3.26562">
        <ele>382</ele>
        <time>2024-05-19T08:02:56Z</time>
      </trkpt>
      <trkpt lat="45.722" lon="3.26552">
        <ele>381.8</ele>
        <time>2024-05-19T08:02:57Z</time>
      </trkpt>
      <trkpt lat="45.72201" lon="3.26541">
        <ele>381.8</ele>
        <time>2024-05-19T08:02:58Z</time>
      </trkpt>
      <trkpt lat="45.72201" lon="3.26531">
        <ele>381.8</ele>
        <time>2024-05-19T08:02:59Z</time>
      </trkpt>
      <trkpt lat="45.72201" lon="3.26521">
        <ele>381.8</ele>
        <time>2024-05-19T08:03:00Z</time>
      </trkpt>
      <trkpt lat="45.72201" lon="3.2651">
        <ele>381.8</ele>
        <time>2024-05-19T08:03:01Z</time>
      </trkpt>
      <trkpt lat="45.72202" lon="3.26501">
        <ele>381.8</ele>
        <time>2024-05-19T08:03:02Z</time>
      </trkpt>
      <trkpt lat="45.72202" lon="3.26491">
        <ele>381.8</ele>
        <time>2024-05-19T08:03:03Z</time>
      </trkpt>
      <trkpt lat="45.72202" lon="3.26481">
        <ele>381.6</ele>
        <time>2024-05-19T08:03:04Z</time>
      </trkpt>
      <trkpt lat="45.72202" lon="3.26471">
        <ele>381.6</ele>
        <time>2024-05-19T08:03:05Z</time>
      </trkpt>
      <trkpt lat="45.72203" lon="3.26462">
        <ele>381.6</ele>
        <time>2024-05-19T08:03:06Z</time>
      </trkpt>
      <trkpt lat="45.72203" lon="3.26452">
        <ele>381.6</ele>
        <time>2024-05-19T08:03:07Z</time>
      </trkpt>
      <trkpt lat="45.72203" lon="3.26442">
        <ele>381.6</ele>
        <time>2024-05-19T08:03:08Z</time>
      </trkpt>
      <trkpt lat="45.72203" lon="3.26433">
        <ele>381.6</ele>
        <time>2024-05-19T08:03:09Z</time>
      </trkpt>
      <trkpt lat="45.72203" lon="3.26424">
        <ele>381.6</ele>
        <time>2024-05-19T08:03:10Z</time>
      </trkpt>
      <trkpt lat="45.72204" lon="3.26415">
        <ele>381.4</ele>
        <time>2024-05-19T08:03:11Z</time>
      </trkpt>
      <trkpt lat="45.72204" lon="3.26405">
        <ele>381.6</ele>
        <time>2024-05-19T08:03:12Z</time>
      </trkpt>
      <trkpt lat="45.72204" lon="3.26396">
        <ele>381.6</ele>
        <time>2024-05-19T08:03:13Z</time>
      </trkpt>
      <trkpt lat="45.72204" lon="3.26386">
        <ele>381.6</ele>
        <time>2024-05-19T08:03:14Z</time>
      </trkpt>
      <trkpt lat="45.72205" lon="3.26377">
        <ele>381.6</ele>
        <time>2024-05-19T08:03:15Z</time>
      </trkpt>
      <trkpt lat="45.72205" lon="3.26368">
        <ele>381.4</ele>
        <time>2024-05-19T08:03:16Z</time>
      </trkpt>
      <trkpt lat="45.72205" lon="3.26359">
        <ele>381.4</ele>
        <time>2024-05-19T08:03:17Z</time>
      </trkpt>
      <trkpt lat="45.72205" lon="3.2635">
        <ele>381.4</ele>
        <time>2024-05-19T08:03:18Z</time>
      </trkpt>
      <trkpt lat="45.72206" lon="3.26341">
        <ele>381.4</ele>
        <time>2024-05-19T08:03:19Z</time>
      </trkpt>
      <trkpt lat="45.72206" lon="3.26332">
        <ele>381.4</ele>
        <time>2024-05-19T08:03:20Z</time>
      </trkpt>
      <trkpt lat="45.72206" lon="3.26323">
        <ele>381.6</ele>
        <time>2024-05-19T08:03:21Z</time>
      </trkpt>
      <trkpt lat="45.72206" lon="3.26314">
        <ele>381.6</ele>
        <time>2024-05-19T08:03:22Z</time>
      </trkpt>
      <trkpt lat="45.72206" lon="3.26305">
        <ele>381.4</ele>
        <time>2024-05-19T08:03:23Z</time>
      </trkpt>
      <trkpt lat="45.72207" lon="3.26296">
        <ele>381.4</ele>
        <time>2024-05-19T08:03:24Z</time>
      </trkpt>
      <trkpt lat="45.72207" lon="3.26287">
        <ele>381.6</ele>
        <time>2024-05-19T08:03:25Z</time>
      </trkpt>
      <trkpt lat="45.72207" lon="3.26278">
        <ele>381.6</ele>
        <time>2024-05-19T08:03:26Z</time>
      </trkpt>
      <trkpt lat="45.72207" lon="3.2627">
        <ele>381.6</ele>
        <time>2024-05-19T08:03:27Z</time>
      </trkpt>
      <trkpt lat="45.72208" lon="3.26261">
        <ele>381.4</ele>
        <time>2024-05-19T08:03:28Z</time>
      </trkpt>
      <trkpt lat="45.72208" lon="3.26252">
        <ele>381.6</ele>
        <time>2024-05-19T08:03:29Z</time>
      </trkpt>
      <trkpt lat="45.72208" lon="3.26243">
        <ele>381.6</ele>
        <time>2024-05-19T08:03:30Z</time>
      </trkpt>
      <trkpt lat="45.72208" lon="3.26234">
        <ele>381.6</ele>
        <time>2024-05-19T08:03:31Z</time>
      </trkpt>
      <trkpt lat="45.72208" lon="3.26225">
        <ele>381.6</ele>
        <time>2024-05-19T08:03:32Z</time>
      </trkpt>
      <trkpt lat="45.72209" lon="3.26216">
        <ele>381.6</ele>
        <time>2024-05-19T08:03:33Z</time>
      </trkpt>
      <trkpt lat="45.72209" lon="3.26207">
        <ele>381.8</ele>
        <time>2024-05-19T08:03:34Z</time>
      </trkpt>
      <trkpt lat="45.72209" lon="3.26198">
        <ele>381.8</ele>
        <time>2024-05-19T08:03:35Z</time>
      </trkpt>
      <trkpt lat="45.72209" lon="3.26189">
        <ele>381.6</ele>
        <time>2024-05-19T08:03:36Z</time>
      </trkpt>
      <trkpt lat="45.72211" lon="3.2618">
        <ele>381.6</ele>
        <time>2024-05-19T08:03:37Z</time>
      </trkpt>
      <trkpt lat="45.72213" lon="3.26172">
        <ele>381.8</ele>
        <time>2024-05-19T08:03:38Z</time>
      </trkpt>
      <trkpt lat="45.72215" lon="3.26164">
        <ele>381.6</ele>
        <time>2024-05-19T08:03:39Z</time>
      </trkpt>
      <trkpt lat="45.72217" lon="3.26156">
        <ele>381.6</ele>
        <time>2024-05-19T08:03:40Z</time>
      </trkpt>
      <trkpt lat="45.72219" lon="3.26148">
        <ele>381.8</ele>
        <time>2024-05-19T08:03:41Z</time>
      </trkpt>
      <trkpt lat="45.72221" lon="3.2614">
        <ele>381.6</ele>
        <time>2024-05-19T08:03:42Z</time>
      </trkpt>
      <trkpt lat="45.72223" lon="3.26132">
        <ele>381.6</ele>
        <time>2024-05-19T08:03:43Z</time>
      </trkpt>
      <trkpt lat="45.72225" lon="3.26124">
        <ele>381.6</ele>
        <time>2024-05-19T08:03:44Z</time>
      </trkpt>
      <trkpt lat="45.72227" lon="3.26116">
        <ele>381.6</ele>
        <time>2024-05-19T08:03:45Z</time>
      </trkpt>
      <trkpt lat="45.72229" lon="3.26108">
        <ele>381.6</ele>
        <time>2024-05-19T08:03:46Z</time>
      </trkpt>
      <trkpt lat="45.72232" lon="3.261">
        <ele>381.6</ele>
        <time>2024-05-19T08:03:47Z</time>
      </trkpt>
      <trkpt lat="45.72235" lon="3.26093">
        <ele>381.8</ele>
        <time>2024-05-19T08:03:48Z</time>
      </trkpt>
      <trkpt lat="45.72238" lon="3.26086">
        <ele>381.8</ele>
        <time>2024-05-19T08:03:49Z</time>
      </trkpt>
      <trkpt lat="45.72241" lon="3.26078">
        <ele>381.8</ele>
        <time>2024-05-19T08:03:50Z</time>
      </trkpt>
      <trkpt lat="45.72244" lon="3.26071">
        <ele>381.8</ele>
        <time>2024-05-19T08:03:51Z</time>
      </trkpt>
      <trkpt lat="45.72247" lon="3.26064">
        <ele>381.8</ele>
        <time>2024-05-19T08:03:52Z</time>
      </trkpt>
      <trkpt lat="45.7225" lon="3.26056">
        <ele>382</ele>
        <time>2024-05-19T08:03:53Z</time>
      </trkpt>
      <trkpt lat="45.72254" lon="3.2605">
        <ele>382</ele>
        <time>2024-05-19T08:03:54Z</time>
      </trkpt>
      <trkpt lat="45.72259" lon="3.26044">
        <ele>382</ele>
        <time>2024-05-19T08:03:55Z</time>
      </trkpt>
      <trkpt lat="45.72263" lon="3.26038">
        <ele>382</ele>
        <time>2024-05-19T08:03:56Z</time>
      </trkpt>
      <trkpt lat="45.72267" lon="3.26032">
        <ele>382</ele>
        <time>2024-05-19T08:03:57Z</time>
      </trkpt>
      <trkpt lat="45.72271" lon="3.26026">
        <ele>382.2</ele>
        <time>2024-05-19T08:03:58Z</time>
      </trkpt>
      <trkpt lat="45.72275" lon="3.26021">
        <ele>382.2</ele>
        <time>2024-05-19T08:03:59Z</time>
      </trkpt>
      <trkpt lat="45.7228" lon="3.26015">
        <ele>382.4</ele>
        <time>2024-05-19T08:04:00Z</time>
      </trkpt>
      <trkpt lat="45.72284" lon="3.26009">
        <ele>382.4</ele>
        <time>2024-05-19T08:04:01Z</time>
      </trkpt>
      <trkpt lat="45.72288" lon="3.26003">
        <ele>382.4</ele>
        <time>2024-05-19T08:04:02Z</time>
      </trkpt>
      <trkpt lat="45.72292" lon="3.25997">
        <ele>382.6</ele>
        <time>2024-05-19T08:04:03Z</time>
      </trkpt>
      <trkpt lat="45.72296" lon="3.25992">
        <ele>382.6</ele>
        <time>2024-05-19T08:04:04Z</time>
      </trkpt>
      <trkpt lat="45.723" lon="3.25986">
        <ele>382.6</ele>
        <time>2024-05-19T08:04:05Z</time>
      </trkpt>
      <trkpt lat="45.72304" lon="3.2598">
        <ele>382.8</ele>
        <time>2024-05-19T08:04:06Z</time>
      </trkpt>
      <trkpt lat="45.72309" lon="3.25974">
        <ele>382.8</ele>
        <time>2024-05-19T08:04:07Z</time>
      </trkpt>
      <trkpt lat="45.72313" lon="3.25969">
        <ele>382.8</ele>
        <time>2024-05-19T08:04:08Z</time>
      </trkpt>
      <trkpt lat="45.72317" lon="3.25963">
        <ele>382.8</ele>
        <time>2024-05-19T08:04:09Z</time>
      </trkpt>
      <trkpt lat="45.72321" lon="3.25957">
        <ele>383</ele>
        <time>2024-05-19T08:04:10Z</time>
      </trkpt>
      <trkpt lat="45.72325" lon="3.25952">
        <ele>383</ele>
        <time>2024-05-19T08:04:11Z</time>
      </trkpt>
      <trkpt lat="45.72329" lon="3.25946">
        <ele>383</ele>
        <time>2024-05-19T08:04:12Z</time>
      </trkpt>
      <trkpt lat="45.72333" lon="3.2594">
        <ele>383</ele>
        <time>2024-05-19T08:04:13Z</time>
      </trkpt>
      <trkpt lat="45.72338" lon="3.25934">
        <ele>383</ele>
        <time>2024-05-19T08:04:14Z</time>
      </trkpt>
      <trkpt lat="45.72342" lon="3.25928">
        <ele>383</ele>
        <time>2024-05-19T08:04:15Z</time>
      </trkpt>
      <trkpt lat="45.72346" lon="3.25922">
        <ele>383.2</ele>
        <time>2024-05-19T08:04:16Z</time>
      </trkpt>
      <trkpt lat="45.72351" lon="3.25916">
        <ele>383.2</ele>
        <time>2024-05-19T08:04:17Z</time>
      </trkpt>
      <trkpt lat="45.72355" lon="3.2591">
        <ele>383.4</ele>
        <time>2024-05-19T08:04:18Z</time>
      </trkpt>
      <trkpt lat="45.72359" lon="3.25905">
        <ele>383.4</ele>
        <time>2024-05-19T08:04:19Z</time>
      </trkpt>
      <trkpt lat="45.72363" lon="3.25899">
        <ele>383.4</ele>
        <time>2024-05-19T08:04:20Z</time>
      </trkpt>
      <trkpt lat="45.72368" lon="3.25892">
        <ele>383.6</ele>
        <time>2024-05-19T08:04:21Z</time>
      </trkpt>
      <trkpt lat="45.72372" lon="3.25887">
        <ele>383.6</ele>
        <time>2024-05-19T08:04:22Z</time>
      </trkpt>
      <trkpt lat="45.72377" lon="3.2588">
        <ele>383.6</ele>
        <time>2024-05-19T08:04:23Z</time>
      </trkpt>
      <trkpt lat="45.72381" lon="3.25874">
        <ele>383.6</ele>
        <time>2024-05-19T08:04:24Z</time>
      </trkpt>
      <trkpt lat="45.72385" lon="3.25868">
        <ele>383.6</ele>
        <time>2024-05-19T08:04:25Z</time>
      </trkpt>
      <trkpt lat="45.7239" lon="3.25861">
        <ele>383.8</ele>
        <time>2024-05-19T08:04:26Z</time>
      </trkpt>
      <trkpt lat="45.72395" lon="3.25855">
        <ele>383.8</ele>
        <time>2024-05-19T08:04:27Z</time>
      </trkpt>
      <trkpt lat="45.72399" lon="3.25849">
        <ele>383.8</ele>
        <time>2024-05-19T08:04:28Z</time>
      </trkpt>
      <trkpt lat="45.72404" lon="3.25842">
        <ele>383.8</ele>
        <time>2024-05-19T08:04:29Z</time>
      </trkpt>
      <trkpt lat="45.72408" lon="3.25836">
        <ele>384</ele>
        <time>2024-05-19T08:04:30Z</time>
      </trkpt>
      <trkpt lat="45.72413" lon="3.25829">
        <ele>384</ele>
        <time>2024-05-19T08:04:31Z</time>
      </trkpt>
      <trkpt lat="45.72418" lon="3.25822">
        <ele>383.8</ele>
        <time>2024-05-19T08:04:32Z</time>
      </trkpt>
      <trkpt lat="45.72423" lon="3.25816">
        <ele>383.8</ele>
        <time>2024-05-19T08:04:33Z</time>
      </trkpt>
      <trkpt lat="45.72428" lon="3.25809">
        <ele>383.8</ele>
        <time>2024-05-19T08:04:34Z</time>
      </trkpt>
      <trkpt lat="45.72433" lon="3.25802">
        <ele>383.8</ele>
        <time>2024-05-19T08:04:35Z</time>
      </trkpt>
      <trkpt lat="45.72438" lon="3.25795">
        <ele>383.8</ele>
        <time>2024-05-19T08:04:36Z</time>
      </trkpt>
      <trkpt lat="45.72442" lon="3.25789">
        <ele>383.8</ele>
        <time>2024-05-19T08:04:37Z</time>
      </trkpt>
      <trkpt lat="45.72447" lon="3.25782">
        <ele>384</ele>
        <time>2024-05-19T08:04:38Z</time>
      </trkpt>
      <trkpt lat="45.72453" lon="3.25775">
        <ele>384</ele>
        <time>2024-05-19T08:04:39Z</time>
      </trkpt>
      <trkpt lat="45.72458" lon="3.25767">
        <ele>384</ele>
        <time>2024-05-19T08:04:40Z</time>
      </trkpt>
      <trkpt lat="45.72463" lon="3.2576">
        <ele>384</ele>
        <time>2024-05-19T08:04:41Z</time>
      </trkpt>
      <trkpt lat="45.72468" lon="3.25753">
        <ele>384</ele>
        <time>2024-05-19T08:04:42Z</time>
      </trkpt>
      <trkpt lat="45.72473" lon="3.25746">
        <ele>384</ele>
        <time>2024-05-19T08:04:43Z</time>
      </trkpt>
      <trkpt lat="45.72478" lon="3.25739">
        <ele>384</ele>
        <time>2024-05-19T08:04:44Z</time>
      </trkpt>
      <trkpt lat="45.72483" lon="3.25732">
        <ele>383.8</ele>
        <time>2024-05-19T08:04:45Z</time>
      </trkpt>
      <trkpt lat="45.72489" lon="3.25724">
        <ele>384</ele>
        <time>2024-05-19T08:04:46Z</time>
      </trkpt>
      <trkpt lat="45.72494" lon="3.25717">
        <ele>383.8</ele>
        <time>2024-05-19T08:04:47Z</time>
      </trkpt>
      <trkpt lat="45.72499" lon="3.25709">
        <ele>383.8</ele>
        <time>2024-05-19T08:04:48Z</time>
      </trkpt>
      <trkpt lat="45.72505" lon="3.25702">
        <ele>383.8</ele>
        <time>2024-05-19T08:04:49Z</time>
      </trkpt>
      <trkpt lat="45.7251" lon="3.25694">
        <ele>384.2</ele>
        <time>2024-05-19T08:04:50Z</time>
      </trkpt>
      <trkpt lat="45.72515" lon="3.25687">
        <ele>384</ele>
        <time>2024-05-19T08:04:51Z</time>
      </trkpt>
      <trkpt lat="45.72521" lon="3.2568">
        <ele>384</ele>
        <time>2024-05-19T08:04:52Z</time>
      </trkpt>
      <trkpt lat="45.72526" lon="3.25672">
        <ele>383.8</ele>
        <time>2024-05-19T08:04:53Z</time>
      </trkpt>
      <trkpt lat="45.72532" lon="3.25664">
        <ele>383.8</ele>
        <time>2024-05-19T08:04:54Z</time>
      </trkpt>
      <trkpt lat="45.72537" lon="3.25656">
        <ele>383.6</ele>
        <time>2024-05-19T08:04:55Z</time>
      </trkpt>
      <trkpt lat="45.72543" lon="3.25648">
        <ele>383.6</ele>
        <time>2024-05-19T08:04:56Z</time>
      </trkpt>
      <trkpt lat="45.72549" lon="3.2564">
        <ele>383.6</ele>
        <time>2024-05-19T08:04:57Z</time>
      </trkpt>
      <trkpt lat="45.72554" lon="3.25632">
        <ele>383.6</ele>
        <time>2024-05-19T08:04:58Z</time>
      </trkpt>
      <trkpt lat="45.7256" lon="3.25624">
        <ele>383.4</ele>
        <time>2024-05-19T08:04:59Z</time>
      </trkpt>
      <trkpt lat="45.72566" lon="3.25616">
        <ele>383.4</ele>
        <time>2024-05-19T08:05:00Z</time>
      </trkpt>
      <trkpt lat="45.72571" lon="3.25608">
        <ele>383.2</ele>
        <time>2024-05-19T08:05:01Z</time>
      </trkpt>
      <trkpt lat="45.72577" lon="3.256">
        <ele>383.2</ele>
        <time>2024-05-19T08:05:02Z</time>
      </trkpt>
      <trkpt lat="45.72583" lon="3.25591">
        <ele>383.2</ele>
        <time>2024-05-19T08:05:03Z</time>
      </trkpt>
      <trkpt lat="45.72589" lon="3.25583">
        <ele>383</ele>
        <time>2024-05-19T08:05:04Z</time>
      </trkpt>
      <trkpt lat="45.72595" lon="3.25575">
        <ele>383</ele>
        <time>2024-05-19T08:05:05Z</time>
      </trkpt>
      <trkpt lat="45.72601" lon="3.25566">
        <ele>382.8</ele>
        <time>2024-05-19T08:05:06Z</time>
      </trkpt>
      <trkpt lat="45.72607" lon="3.25558">
        <ele>382.8</ele>
        <time>2024-05-19T08:05:07Z</time>
      </trkpt>
      <trkpt lat="45.72613" lon="3.2555">
        <ele>382.6</ele>
        <time>2024-05-19T08:05:08Z</time>
      </trkpt>
      <trkpt lat="45.72619" lon="3.25541">
        <ele>382.6</ele>
        <time>2024-05-19T08:05:09Z</time>
      </trkpt>
      <trkpt lat="45.72625" lon="3.25533">
        <ele>382.4</ele>
        <time>2024-05-19T08:05:10Z</time>
      </trkpt>
      <trkpt lat="45.72631" lon="3.25525">
        <ele>382.4</ele>
        <time>2024-05-19T08:05:11Z</time>
      </trkpt>
      <trkpt lat="45.72636" lon="3.25517">
        <ele>382.4</ele>
        <time>2024-05-19T08:05:12Z</time>
      </trkpt>
      <trkpt lat="45.72642" lon="3.25509">
        <ele>382.2</ele>
        <time>2024-05-19T08:05:13Z</time>
      </trkpt>
      <trkpt lat="45.72648" lon="3.25501">
        <ele>382.2</ele>
        <time>2024-05-19T08:05:14Z</time>
      </trkpt>
      <trkpt lat="45.72654" lon="3.25492">
        <ele>382</ele>
        <time>2024-05-19T08:05:15Z</time>
      </trkpt>
      <trkpt lat="45.7266" lon="3.25484">
        <ele>381.8</ele>
        <time>2024-05-19T08:05:16Z</time>
      </trkpt>
      <trkpt lat="45.72665" lon="3.25476">
        <ele>381.8</ele>
        <time>2024-05-19T08:05:17Z</time>
      </trkpt>
      <trkpt lat="45.72671" lon="3.25468">
        <ele>381.6</ele>
        <time>2024-05-19T08:05:18Z</time>
      </trkpt>
      <trkpt lat="45.72677" lon="3.2546">
        <ele>381.6</ele>
        <time>2024-05-19T08:05:19Z</time>
      </trkpt>
      <trkpt lat="45.72682" lon="3.25452">
        <ele>381.4</ele>
        <time>2024-05-19T08:05:20Z</time>
      </trkpt>
      <trkpt lat="45.72688" lon="3.25444">
        <ele>381.2</ele>
        <time>2024-05-19T08:05:21Z</time>
      </trkpt>
      <trkpt lat="45.72694" lon="3.25436">
        <ele>381</ele>
        <time>2024-05-19T08:05:22Z</time>
      </trkpt>
      <trkpt lat="45.727" lon="3.25428">
        <ele>381</ele>
        <time>2024-05-19T08:05:23Z</time>
      </trkpt>
      <trkpt lat="45.72706" lon="3.2542">
        <ele>381</ele>
        <time>2024-05-19T08:05:24Z</time>
      </trkpt>
      <trkpt lat="45.72712" lon="3.25411">
        <ele>380.8</ele>
        <time>2024-05-19T08:05:25Z</time>
      </trkpt>
      <trkpt lat="45.72718" lon="3.25403">
        <ele>380.8</ele>
        <time>2024-05-19T08:05:26Z</time>
      </trkpt>
      <trkpt lat="45.72724" lon="3.25395">
        <ele>380.6</ele>
        <time>2024-05-19T08:05:27Z</time>
      </trkpt>
      <trkpt lat="45.7273" lon="3.25386">
        <ele>380.4</ele>
        <time>2024-05-19T08:05:28Z</time>
      </trkpt>
      <trkpt lat="45.72736" lon="3.25378">
        <ele>380.2</ele>
        <time>2024-05-19T08:05:29Z</time>
      </trkpt>
      <trkpt lat="45.72742" lon="3.25369">
        <ele>380.2</ele>
        <time>2024-05-19T08:05:30Z</time>
      </trkpt>
      <trkpt lat="45.72748" lon="3.25361">
        <ele>380</ele>
        <time>2024-05-19T08:05:31Z</time>
      </trkpt>
      <trkpt lat="45.72754" lon="3.25352">
        <ele>379.8</ele>
        <time>2024-05-19T08:05:32Z</time>
      </trkpt>
      <trkpt lat="45.72759" lon="3.25344">
        <ele>379.8</ele>
        <time>2024-05-19T08:05:33Z</time>
      </trkpt>
      <trkpt lat="45.72765" lon="3.25335">
        <ele>379.6</ele>
        <time>2024-05-19T08:05:34Z</time>
      </trkpt>
      <trkpt lat="45.72771" lon="3.25327">
        <ele>379.4</ele>
        <time>2024-05-19T08:05:35Z</time>
      </trkpt>
      <trkpt lat="45.72777" lon="3.25318">
        <ele>379.2</ele>
        <time>2024-05-19T08:05:36Z</time>
      </trkpt>
      <trkpt lat="45.72782" lon="3.2531">
        <ele>379.2</ele>
        <time>2024-05-19T08:05:37Z</time>
      </trkpt>
      <trkpt lat="45.72788" lon="3.25302">
        <ele>379</ele>
        <time>2024-05-19T08:05:38Z</time>
      </trkpt>
      <trkpt lat="45.72794" lon="3.25294">
        <ele>378.8</ele>
        <time>2024-05-19T08:05:39Z</time>
      </trkpt>
      <trkpt lat="45.72799" lon="3.25286">
        <ele>378.6</ele>
        <time>2024-05-19T08:05:40Z</time>
      </trkpt>
      <trkpt lat="45.72805" lon="3.25277">
        <ele>378.4</ele>
        <time>2024-05-19T08:05:41Z</time>
      </trkpt>
      <trkpt lat="45.72811" lon="3.25269">
        <ele>378.2</ele>
        <time>2024-05-19T08:05:42Z</time>
      </trkpt>
      <trkpt lat="45.72817" lon="3.2526">
        <ele>378</ele>
        <time>2024-05-19T08:05:43Z</time>
      </trkpt>
      <trkpt lat="45.72822" lon="3.25252">
        <ele>378</ele>
        <time>2024-05-19T08:05:44Z</time>
      </trkpt>
      <trkpt lat="45.72828" lon="3.25243">
        <ele>377.8</ele>
        <time>2024-05-19T08:05:45Z</time>
      </trkpt>
      <trkpt lat="45.72834" lon="3.25234">
        <ele>377.6</ele>
        <time>2024-05-19T08:05:46Z</time>
      </trkpt>
      <trkpt lat="45.7284" lon="3.25226">
        <ele>377.4</ele>
        <time>2024-05-19T08:05:47Z</time>
      </trkpt>
      <trkpt lat="45.72846" lon="3.25217">
        <ele>377.2</ele>
        <time>2024-05-19T08:05:48Z</time>
      </trkpt>
      <trkpt lat="45.72852" lon="3.25208">
        <ele>377</ele>
        <time>2024-05-19T08:05:49Z</time>
      </trkpt>
      <trkpt lat="45.72858" lon="3.25199">
        <ele>377</ele>
        <time>2024-05-19T08:05:50Z</time>
      </trkpt>
      <trkpt lat="45.72863" lon="3.25188">
        <ele>376.8</ele>
        <time>2024-05-19T08:05:51Z</time>
      </trkpt>
      <trkpt lat="45.72868" lon="3.25178">
        <ele>376.6</ele>
        <time>2024-05-19T08:05:52Z</time>
      </trkpt>
      <trkpt lat="45.72872" lon="3.25167">
        <ele>376.4</ele>
        <time>2024-05-19T08:05:53Z</time>
      </trkpt>
      <trkpt lat="45.72876" lon="3.25156">
        <ele>376.2</ele>
        <time>2024-05-19T08:05:54Z</time>
      </trkpt>
      <trkpt lat="45.72881" lon="3.25146">
        <ele>376.2</ele>
        <time>2024-05-19T08:05:55Z</time>
      </trkpt>
      <trkpt lat="45.72885" lon="3.25134">
        <ele>376</ele>
        <time>2024-05-19T08:05:56Z</time>
      </trkpt>
      <trkpt lat="45.72888" lon="3.25123">
        <ele>375.8</ele>
        <time>2024-05-19T08:05:57Z</time>
      </trkpt>
      <trkpt lat="45.72891" lon="3.25112">
        <ele>375.8</ele>
        <time>2024-05-19T08:05:58Z</time>
      </trkpt>
      <trkpt lat="45.72894" lon="3.25101">
        <ele>375.6</ele>
        <time>2024-05-19T08:05:59Z</time>
      </trkpt>
      <trkpt lat="45.72897" lon="3.2509">
        <ele>375.4</ele>
        <time>2024-05-19T08:06:00Z</time>
      </trkpt>
      <trkpt lat="45.729" lon="3.25078">
        <ele>375.4</ele>
        <time>2024-05-19T08:06:01Z</time>
      </trkpt>
      <trkpt lat="45.72902" lon="3.25066">
        <ele>375.2</ele>
        <time>2024-05-19T08:06:02Z</time>
      </trkpt>
      <trkpt lat="45.72903" lon="3.25055">
        <ele>375</ele>
        <time>2024-05-19T08:06:03Z</time>
      </trkpt>
      <trkpt lat="45.72905" lon="3.25043">
        <ele>375</ele>
        <time>2024-05-19T08:06:04Z</time>
      </trkpt>
      <trkpt lat="45.72906" lon="3.25032">
        <ele>374.8</ele>
        <time>2024-05-19T08:06:05Z</time>
      </trkpt>
      <trkpt lat="45.72908" lon="3.2502">
        <ele>374.8</ele>
        <time>2024-05-19T08:06:06Z</time>
      </trkpt>
      <trkpt lat="45.72909" lon="3.25009">
        <ele>374.6</ele>
        <time>2024-05-19T08:06:07Z</time>
      </trkpt>
      <trkpt lat="45.72911" lon="3.24997">
        <ele>374.6</ele>
        <time>2024-05-19T08:06:08Z</time>
      </trkpt>
      <trkpt lat="45.72911" lon="3.24985">
        <ele>374.4</ele>
        <time>2024-05-19T08:06:09Z</time>
      </trkpt>
      <trkpt lat="45.72912" lon="3.24974">
        <ele>374.4</ele>
        <time>2024-05-19T08:06:10Z</time>
      </trkpt>
      <trkpt lat="45.72912" lon="3.24962">
        <ele>374.2</ele>
        <time>2024-05-19T08:06:11Z</time>
      </trkpt>
      <trkpt lat="45.72912" lon="3.2495">
        <ele>374.2</ele>
        <time>2024-05-19T08:06:12Z</time>
      </trkpt>
      <trkpt lat="45.72912" lon="3.24938">
        <ele>374</ele>
        <time>2024-05-19T08:06:13Z</time>
      </trkpt>
      <trkpt lat="45.72913" lon="3.24926">
        <ele>373.8</ele>
        <time>2024-05-19T08:06:14Z</time>
      </trkpt>
      <trkpt lat="45.72913" lon="3.24915">
        <ele>373.8</ele>
        <time>2024-05-19T08:06:15Z</time>
      </trkpt>
      <trkpt lat="45.72913" lon="3.24903">
        <ele>373.6</ele>
        <time>2024-05-19T08:06:16Z</time>
      </trkpt>
      <trkpt lat="45.72914" lon="3.24892">
        <ele>373.4</ele>
        <time>2024-05-19T08:06:17Z</time>
      </trkpt>
      <trkpt lat="45.72914" lon="3.2488">
        <ele>373.4</ele>
        <time>2024-05-19T08:06:18Z</time>
      </trkpt>
      <trkpt lat="45.72914" lon="3.24868">
        <ele>373.2</ele>
        <time>2024-05-19T08:06:19Z</time>
      </trkpt>
      <trkpt lat="45.72914" lon="3.24856">
        <ele>373</ele>
        <time>2024-05-19T08:06:20Z</time>
      </trkpt>
      <trkpt lat="45.72915" lon="3.24845">
        <ele>373</ele>
        <time>2024-05-19T08:06:21Z</time>
      </trkpt>
      <trkpt lat="45.72915" lon="3.24833">
        <ele>372.8</ele>
        <time>2024-05-19T08:06:22Z</time>
      </trkpt>
      <trkpt lat="45.72915" lon="3.24822">
        <ele>372.6</ele>
        <time>2024-05-19T08:06:23Z</time>
      </trkpt>
      <trkpt lat="45.72915" lon="3.2481">
        <ele>372.6</ele>
        <time>2024-05-19T08:06:24Z</time>
      </trkpt>
      <trkpt lat="45.72916" lon="3.24799">
        <ele>372.4</ele>
        <time>2024-05-19T08:06:25Z</time>
      </trkpt>
      <trkpt lat="45.72916" lon="3.24788">
        <ele>372.4</ele>
        <time>2024-05-19T08:06:26Z</time>
      </trkpt>
      <trkpt lat="45.72916" lon="3.24776">
        <ele>372.2</ele>
        <time>2024-05-19T08:06:27Z</time>
      </trkpt>
      <trkpt lat="45.72917" lon="3.24765">
        <ele>372</ele>
        <time>2024-05-19T08:06:28Z</time>
      </trkpt>
      <trkpt lat="45.72917" lon="3.24754">
        <ele>372</ele>
        <time>2024-05-19T08:06:29Z</time>
      </trkpt>
      <trkpt lat="45.72917" lon="3.24742">
        <ele>371.8</ele>
        <time>2024-05-19T08:06:30Z</time>
      </trkpt>
      <trkpt lat="45.72917" lon="3.24731">
        <ele>371.8</ele>
        <time>2024-05-19T08:06:31Z</time>
      </trkpt>
      <trkpt lat="45.72918" lon="3.24719">
        <ele>371.6</ele>
        <time>2024-05-19T08:06:32Z</time>
      </trkpt>
      <trkpt lat="45.72918" lon="3.24708">
        <ele>371.6</ele>
        <time>2024-05-19T08:06:33Z</time>
      </trkpt>
      <trkpt lat="45.72918" lon="3.24697">
        <ele>371.6</ele>
        <time>2024-05-19T08:06:34Z</time>
      </trkpt>
      <trkpt lat="45.72918" lon="3.24685">
        <ele>371.4</ele>
        <time>2024-05-19T08:06:35Z</time>
      </trkpt>
      <trkpt lat="45.72919" lon="3.24674">
        <ele>371.4</ele>
        <time>2024-05-19T08:06:36Z</time>
      </trkpt>
      <trkpt lat="45.72919" lon="3.24663">
        <ele>371.4</ele>
        <time>2024-05-19T08:06:37Z</time>
      </trkpt>
      <trkpt lat="45.72919" lon="3.24652">
        <ele>371.2</ele>
        <time>2024-05-19T08:06:38Z</time>
      </trkpt>
      <trkpt lat="45.72919" lon="3.24641">
        <ele>371.2</ele>
        <time>2024-05-19T08:06:39Z</time>
      </trkpt>
      <trkpt lat="45.72919" lon="3.2463">
        <ele>371</ele>
        <time>2024-05-19T08:06:40Z</time>
      </trkpt>
      <trkpt lat="45.72918" lon="3.24619">
        <ele>371</ele>
        <time>2024-05-19T08:06:41Z</time>
      </trkpt>
      <trkpt lat="45.72917" lon="3.24608">
        <ele>370.8</ele>
        <time>2024-05-19T08:06:42Z</time>
      </trkpt>
      <trkpt lat="45.72917" lon="3.24596">
        <ele>370.8</ele>
        <time>2024-05-19T08:06:43Z</time>
      </trkpt>
      <trkpt lat="45.72916" lon="3.24585">
        <ele>370.6</ele>
        <time>2024-05-19T08:06:44Z</time>
      </trkpt>
      <trkpt lat="45.72914" lon="3.24575">
        <ele>370.6</ele>
        <time>2024-05-19T08:06:45Z</time>
      </trkpt>
      <trkpt lat="45.72912" lon="3.24564">
        <ele>370.4</ele>
        <time>2024-05-19T08:06:46Z</time>
      </trkpt>
      <trkpt lat="45.7291" lon="3.24554">
        <ele>370.4</ele>
        <time>2024-05-19T08:06:47Z</time>
      </trkpt>
      <trkpt lat="45.72907" lon="3.24543">
        <ele>370.4</ele>
        <time>2024-05-19T08:06:48Z</time>
      </trkpt>
      <trkpt lat="45.72905" lon="3.24532">
        <ele>370.2</ele>
        <time>2024-05-19T08:06:49Z</time>
      </trkpt>
      <trkpt lat="45.72903" lon="3.24522">
        <ele>370.2</ele>
        <time>2024-05-19T08:06:50Z</time>
      </trkpt>
      <trkpt lat="45.729" lon="3.24512">
        <ele>370</ele>
        <time>2024-05-19T08:06:51Z</time>
      </trkpt>
      <trkpt lat="45.72896" lon="3.24502">
        <ele>369.8</ele>
        <time>2024-05-19T08:06:52Z</time>
      </trkpt>
      <trkpt lat="45.72892" lon="3.24492">
        <ele>369.8</ele>
        <time>2024-05-19T08:06:53Z</time>
      </trkpt>
      <trkpt lat="45.72889" lon="3.24482">
        <ele>369.8</ele>
        <time>2024-05-19T08:06:54Z</time>
      </trkpt>
      <trkpt lat="45.72885" lon="3.24473">
        <ele>369.6</ele>
        <time>2024-05-19T08:06:55Z</time>
      </trkpt>
      <trkpt lat="45.7288" lon="3.24464">
        <ele>369.6</ele>
        <time>2024-05-19T08:06:56Z</time>
      </trkpt>
      <trkpt lat="45.72875" lon="3.24456">
        <ele>369.4</ele>
        <time>2024-05-19T08:06:57Z</time>
      </trkpt>
      <trkpt lat="45.72871" lon="3.24447">
        <ele>369.4</ele>
        <time>2024-05-19T08:06:58Z</time>
      </trkpt>
      <trkpt lat="45.72866" lon="3.24438">
        <ele>369.4</ele>
        <time>2024-05-19T08:06:59Z</time>
      </trkpt>
      <trkpt lat="45.72861" lon="3.24429">
        <ele>369.2</ele>
        <time>2024-05-19T08:07:00Z</time>
      </trkpt>
      <trkpt lat="45.72857" lon="3.2442">
        <ele>369.2</ele>
        <time>2024-05-19T08:07:01Z</time>
      </trkpt>
      <trkpt lat="45.72852" lon="3.24411">
        <ele>369.2</ele>
        <time>2024-05-19T08:07:02Z</time>
      </trkpt>
      <trkpt lat="45.72847" lon="3.24402">
        <ele>369</ele>
        <time>2024-05-19T08:07:03Z</time>
      </trkpt>
      <trkpt lat="45.72842" lon="3.24393">
        <ele>369</ele>
        <time>2024-05-19T08:07:04Z</time>
      </trkpt>
      <trkpt lat="45.72836" lon="3.24385">
        <ele>368.8</ele>
        <time>2024-05-19T08:07:05Z</time>
      </trkpt>
      <trkpt lat="45.72831" lon="3.24376">
        <ele>368.8</ele>
        <time>2024-05-19T08:07:06Z</time>
      </trkpt>
      <trkpt lat="45.72826" lon="3.24367">
        <ele>368.6</ele>
        <time>2024-05-19T08:07:07Z</time>
      </trkpt>
      <trkpt lat="45.72821" lon="3.24358">
        <ele>368.6</ele>
        <time>2024-05-19T08:07:08Z</time>
      </trkpt>
      <trkpt lat="45.72816" lon="3.24349">
        <ele>368.4</ele>
        <time>2024-05-19T08:07:09Z</time>
      </trkpt>
      <trkpt lat="45.72811" lon="3.2434">
        <ele>368.4</ele>
        <time>2024-05-19T08:07:10Z</time>
      </trkpt>
      <trkpt lat="45.72806" lon="3.24331">
        <ele>368.2</ele>
        <time>2024-05-19T08:07:11Z</time>
      </trkpt>
      <trkpt lat="45.72801" lon="3.24322">
        <ele>368.2</ele>
        <time>2024-05-19T08:07:12Z</time>
      </trkpt>
      <trkpt lat="45.72796" lon="3.24313">
        <ele>368</ele>
        <time>2024-05-19T08:07:13Z</time>
      </trkpt>
      <trkpt lat="45.72791" lon="3.24305">
        <ele>368</ele>
        <time>2024-05-19T08:07:14Z</time>
      </trkpt>
      <trkpt lat="45.72786" lon="3.24296">
        <ele>367.8</ele>
        <time>2024-05-19T08:07:15Z</time>
      </trkpt>
      <trkpt lat="45.72781" lon="3.24287">
        <ele>367.8</ele>
        <time>2024-05-19T08:07:16Z</time>
      </trkpt>
      <trkpt lat="45.72776" lon="3.24278">
        <ele>367.6</ele>
        <time>2024-05-19T08:07:17Z</time>
      </trkpt>
      <trkpt lat="45.72772" lon="3.24269">
        <ele>367.6</ele>
        <time>2024-05-19T08:07:18Z</time>
      </trkpt>
      <trkpt lat="45.72767" lon="3.24261">
        <ele>367.6</ele>
        <time>2024-05-19T08:07:19Z</time>
      </trkpt>
      <trkpt lat="45.72762" lon="3.24252">
        <ele>367.4</ele>
        <time>2024-05-19T08:07:20Z</time>
      </trkpt>
      <trkpt lat="45.72757" lon="3.24243">
        <ele>367.4</ele>
        <time>2024-05-19T08:07:21Z</time>
      </trkpt>
      <trkpt lat="45.72752" lon="3.24234">
        <ele>367.4</ele>
        <time>2024-05-19T08:07:22Z</time>
      </trkpt>
      <trkpt lat="45.72747" lon="3.24225">
        <ele>367.2</ele>
        <time>2024-05-19T08:07:23Z</time>
      </trkpt>
      <trkpt lat="45.72742" lon="3.24217">
        <ele>367.2</ele>
        <time>2024-05-19T08:07:24Z</time>
      </trkpt>
      <trkpt lat="45.72737" lon="3.24208">
        <ele>367</ele>
        <time>2024-05-19T08:07:25Z</time>
      </trkpt>
      <trkpt lat="45.72732" lon="3.24199">
        <ele>367</ele>
        <time>2024-05-19T08:07:26Z</time>
      </trkpt>
      <trkpt lat="45.72727" lon="3.2419">
        <ele>366.8</ele>
        <time>2024-05-19T08:07:27Z</time>
      </trkpt>
      <trkpt lat="45.72722" lon="3.24182">
        <ele>366.8</ele>
        <time>2024-05-19T08:07:28Z</time>
      </trkpt>
      <trkpt lat="45.72717" lon="3.24173">
        <ele>366.6</ele>
        <time>2024-05-19T08:07:29Z</time>
      </trkpt>
      <trkpt lat="45.72713" lon="3.24164">
        <ele>366.6</ele>
        <time>2024-05-19T08:07:30Z</time>
      </trkpt>
      <trkpt lat="45.72708" lon="3.24155">
        <ele>366.4</ele>
        <time>2024-05-19T08:07:31Z</time>
      </trkpt>
      <trkpt lat="45.72703" lon="3.24146">
        <ele>366.4</ele>
        <time>2024-05-19T08:07:32Z</time>
      </trkpt>
      <trkpt lat="45.72698" lon="3.24137">
        <ele>366.2</ele>
        <time>2024-05-19T08:07:33Z</time>
      </trkpt>
      <trkpt lat="45.72692" lon="3.24127">
        <ele>366.2</ele>
        <time>2024-05-19T08:07:34Z</time>
      </trkpt>
      <trkpt lat="45.72687" lon="3.24118">
        <ele>366</ele>
        <time>2024-05-19T08:07:35Z</time>
      </trkpt>
      <trkpt lat="45.72682" lon="3.24108">
        <ele>365.8</ele>
        <time>2024-05-19T08:07:36Z</time>
      </trkpt>
      <trkpt lat="45.72679" lon="3.24097">
        <ele>365.6</ele>
        <time>2024-05-19T08:07:37Z</time>
      </trkpt>
      <trkpt lat="45.72675" lon="3.24086">
        <ele>365.6</ele>
        <time>2024-05-19T08:07:38Z</time>
      </trkpt>
      <trkpt lat="45.72672" lon="3.24074">
        <ele>365.4</ele>
        <time>2024-05-19T08:07:39Z</time>
      </trkpt>
      <trkpt lat="45.72668" lon="3.24063">
        <ele>365.4</ele>
        <time>2024-05-19T08:07:40Z</time>
      </trkpt>
      <trkpt lat="45.72665" lon="3.24051">
        <ele>365.2</ele>
        <time>2024-05-19T08:07:41Z</time>
      </trkpt>
      <trkpt lat="45.72662" lon="3.2404">
        <ele>365</ele>
        <time>2024-05-19T08:07:42Z</time>
      </trkpt>
      <trkpt lat="45.72658" lon="3.24028">
        <ele>365</ele>
        <time>2024-05-19T08:07:43Z</time>
      </trkpt>
      <trkpt lat="45.72656" lon="3.24016">
        <ele>364.8</ele>
        <time>2024-05-19T08:07:44Z</time>
      </trkpt>
      <trkpt lat="45.72654" lon="3.24004">
        <ele>364.8</ele>
        <time>2024-05-19T08:07:45Z</time>
      </trkpt>
      <trkpt lat="45.72653" lon="3.23992">
        <ele>364.6</ele>
        <time>2024-05-19T08:07:46Z</time>
      </trkpt>
      <trkpt lat="45.72653" lon="3.2398">
        <ele>364.6</ele>
        <time>2024-05-19T08:07:47Z</time>
      </trkpt>
      <trkpt lat="45.72652" lon="3.23967">
        <ele>364.4</ele>
        <time>2024-05-19T08:07:48Z</time>
      </trkpt>
      <trkpt lat="45.72652" lon="3.23954">
        <ele>364.4</ele>
        <time>2024-05-19T08:07:49Z</time>
      </trkpt>
      <trkpt lat="45.72652" lon="3.23942">
        <ele>364.2</ele>
        <time>2024-05-19T08:07:50Z</time>
      </trkpt>
      <trkpt lat="45.72652" lon="3.23929">
        <ele>364.2</ele>
        <time>2024-05-19T08:07:51Z</time>
      </trkpt>
      <trkpt lat="45.72653" lon="3.23916">
        <ele>364</ele>
        <time>2024-05-19T08:07:52Z</time>
      </trkpt>
      <trkpt lat="45.72655" lon="3.23903">
        <ele>364</ele>
        <time>2024-05-19T08:07:53Z</time>
      </trkpt>
      <trkpt lat="45.72656" lon="3.2389">
        <ele>363.8</ele>
        <time>2024-05-19T08:07:54Z</time>
      </trkpt>
      <trkpt lat="45.72658" lon="3.23877">
        <ele>363.8</ele>
        <time>2024-05-19T08:07:55Z</time>
      </trkpt>
      <trkpt lat="45.72661" lon="3.23865">
        <ele>363.6</ele>
        <time>2024-05-19T08:07:56Z</time>
      </trkpt>
      <trkpt lat="45.72665" lon="3.23853">
        <ele>363.4</ele>
        <time>2024-05-19T08:07:57Z</time>
      </trkpt>
      <trkpt lat="45.72668" lon="3.23841">
        <ele>363.2</ele>
        <time>2024-05-19T08:07:58Z</time>
      </trkpt>
      <trkpt lat="45.72671" lon="3.23829">
        <ele>363</ele>
        <time>2024-05-19T08:07:59Z</time>
      </trkpt>
      <trkpt lat="45.72676" lon="3.23818">
        <ele>362.8</ele>
        <time>2024-05-19T08:08:00Z</time>
      </trkpt>
      <trkpt lat="45.72681" lon="3.23806">
        <ele>362.8</ele>
        <time>2024-05-19T08:08:01Z</time>
      </trkpt>
      <trkpt lat="45.72685" lon="3.23795">
        <ele>362.6</ele>
        <time>2024-05-19T08:08:02Z</time>
      </trkpt>
      <trkpt lat="45.7269" lon="3.23784">
        <ele>362.4</ele>
        <time>2024-05-19T08:08:03Z</time>
      </trkpt>
      <trkpt lat="45.72696" lon="3.23775">
        <ele>362.2</ele>
        <time>2024-05-19T08:08:04Z</time>
      </trkpt>
      <trkpt lat="45.72702" lon="3.23765">
        <ele>362</ele>
        <time>2024-05-19T08:08:05Z</time>
      </trkpt>
      <trkpt lat="45.72708" lon="3.23756">
        <ele>361.8</ele>
        <time>2024-05-19T08:08:06Z</time>
      </trkpt>
      <trkpt lat="45.72714" lon="3.23747">
        <ele>361.6</ele>
        <time>2024-05-19T08:08:07Z</time>
      </trkpt>
      <trkpt lat="45.7272" lon="3.23737">
        <ele>361.6</ele>
        <time>2024-05-19T08:08:08Z</time>
      </trkpt>
      <trkpt lat="45.72726" lon="3.23728">
        <ele>361.2</ele>
        <time>2024-05-19T08:08:09Z</time>
      </trkpt>
      <trkpt lat="45.72732" lon="3.23719">
        <ele>361.2</ele>
        <time>2024-05-19T08:08:10Z</time>
      </trkpt>
      <trkpt lat="45.72738" lon="3.2371">
        <ele>361</ele>
        <time>2024-05-19T08:08:11Z</time>
      </trkpt>
      <trkpt lat="45.72744" lon="3.23701">
        <ele>360.8</ele>
        <time>2024-05-19T08:08:12Z</time>
      </trkpt>
      <trkpt lat="45.7275" lon="3.23692">
        <ele>360.6</ele>
        <time>2024-05-19T08:08:13Z</time>
      </trkpt>
      <trkpt lat="45.72755" lon="3.23684">
        <ele>360.4</ele>
        <time>2024-05-19T08:08:14Z</time>
      </trkpt>
      <trkpt lat="45.72761" lon="3.23675">
        <ele>360.4</ele>
        <time>2024-05-19T08:08:15Z</time>
      </trkpt>
      <trkpt lat="45.72767" lon="3.23667">
        <ele>360.2</ele>
        <time>2024-05-19T08:08:16Z</time>
      </trkpt>
      <trkpt lat="45.72773" lon="3.23658">
        <ele>360</ele>
        <time>2024-05-19T08:08:17Z</time>
      </trkpt>
      <trkpt lat="45.72779" lon="3.23649">
        <ele>359.8</ele>
        <time>2024-05-19T08:08:18Z</time>
      </trkpt>
      <trkpt lat="45.72785" lon="3.23641">
        <ele>359.6</ele>
        <time>2024-05-19T08:08:19Z</time>
      </trkpt>
      <trkpt lat="45.72791" lon="3.23632">
        <ele>359.4</ele>
        <time>2024-05-19T08:08:21Z</time>
      </trkpt>
      <trkpt lat="45.72796" lon="3.23624">
        <ele>359.2</ele>
        <time>2024-05-19T08:08:22Z</time>
      </trkpt>
      <trkpt lat="45.72802" lon="3.23615">
        <ele>359.2</ele>
        <time>2024-05-19T08:08:23Z</time>
      </trkpt>
      <trkpt lat="45.72807" lon="3.23607">
        <ele>359</ele>
        <time>2024-05-19T08:08:24Z</time>
      </trkpt>
      <trkpt lat="45.7281" lon="3.23603">
        <ele>359</ele>
        <time>2024-05-19T08:08:25Z</time>
      </trkpt>
      <trkpt lat="45.72824" lon="3.23598">
        <ele>358.8</ele>
        <time>2024-05-19T08:08:26Z</time>
      </trkpt>
      <trkpt lat="45.72825" lon="3.2359">
        <ele>358.6</ele>
        <time>2024-05-19T08:08:27Z</time>
      </trkpt>
      <trkpt lat="45.72821" lon="3.23575">
        <ele>358.6</ele>
        <time>2024-05-19T08:08:28Z</time>
      </trkpt>
      <trkpt lat="45.72824" lon="3.23565">
        <ele>358.4</ele>
        <time>2024-05-19T08:08:29Z</time>
      </trkpt>
      <trkpt lat="45.72828" lon="3.23556">
        <ele>358.4</ele>
        <time>2024-05-19T08:08:30Z</time>
      </trkpt>
      <trkpt lat="45.72832" lon="3.23546">
        <ele>358.2</ele>
        <time>2024-05-19T08:08:31Z</time>
      </trkpt>
      <trkpt lat="45.72835" lon="3.23535">
        <ele>358.2</ele>
        <time>2024-05-19T08:08:32Z</time>
      </trkpt>
      <trkpt lat="45.72838" lon="3.23524">
        <ele>358</ele>
        <time>2024-05-19T08:08:33Z</time>
      </trkpt>
      <trkpt lat="45.72841" lon="3.23513">
        <ele>357.8</ele>
        <time>2024-05-19T08:08:34Z</time>
      </trkpt>
      <trkpt lat="45.72844" lon="3.23502">
        <ele>357.6</ele>
        <time>2024-05-19T08:08:35Z</time>
      </trkpt>
      <trkpt lat="45.72846" lon="3.23492">
        <ele>357.4</ele>
        <time>2024-05-19T08:08:36Z</time>
      </trkpt>
      <trkpt lat="45.72849" lon="3.23481">
        <ele>357.2</ele>
        <time>2024-05-19T08:08:37Z</time>
      </trkpt>
      <trkpt lat="45.72852" lon="3.2347">
        <ele>357</ele>
        <time>2024-05-19T08:08:38Z</time>
      </trkpt>
      <trkpt lat="45.72855" lon="3.23459">
        <ele>356.8</ele>
        <time>2024-05-19T08:08:39Z</time>
      </trkpt>
      <trkpt lat="45.72857" lon="3.23447">
        <ele>356.6</ele>
        <time>2024-05-19T08:08:40Z</time>
      </trkpt>
      <trkpt lat="45.72859" lon="3.23435">
        <ele>356.4</ele>
        <time>2024-05-19T08:08:41Z</time>
      </trkpt>
      <trkpt lat="45.72862" lon="3.23423">
        <ele>356.2</ele>
        <time>2024-05-19T08:08:42Z</time>
      </trkpt>
      <trkpt lat="45.72864" lon="3.23411">
        <ele>356</ele>
        <time>2024-05-19T08:08:43Z</time>
      </trkpt>
      <trkpt lat="45.72864" lon="3.23411">
        <ele>355.8</ele>
        <time>2024-05-19T08:08:44Z</time>
      </trkpt>
      <trkpt lat="45.72869" lon="3.23387">
        <ele>355.6</ele>
        <time>2024-05-19T08:08:45Z</time>
      </trkpt>
      <trkpt lat="45.72874" lon="3.23362">
        <ele>355.4</ele>
        <time>2024-05-19T08:08:46Z</time>
      </trkpt>
      <trkpt lat="45.72874" lon="3.23362">
        <ele>355.2</ele>
        <time>2024-05-19T08:08:47Z</time>
      </trkpt>
      <trkpt lat="45.72877" lon="3.23348">
        <ele>355</ele>
        <time>2024-05-19T08:08:48Z</time>
      </trkpt>
      <trkpt lat="45.72893" lon="3.23335">
        <ele>355</ele>
        <time>2024-05-19T08:08:49Z</time>
      </trkpt>
      <trkpt lat="45.72893" lon="3.23335">
        <ele>354.8</ele>
        <time>2024-05-19T08:08:50Z</time>
      </trkpt>
      <trkpt lat="45.72902" lon="3.23329">
        <ele>354.6</ele>
        <time>2024-05-19T08:08:51Z</time>
      </trkpt>
      <trkpt lat="45.72918" lon="3.23317">
        <ele>354.2</ele>
        <time>2024-05-19T08:08:52Z</time>
      </trkpt>
      <trkpt lat="45.72918" lon="3.23317">
        <ele>354</ele>
        <time>2024-05-19T08:08:53Z</time>
      </trkpt>
      <trkpt lat="45.72926" lon="3.23311">
        <ele>353.8</ele>
        <time>2024-05-19T08:08:54Z</time>
      </trkpt>
      <trkpt lat="45.72937" lon="3.23288">
        <ele>353.4</ele>
        <time>2024-05-19T08:08:55Z</time>
      </trkpt>
      <trkpt lat="45.72937" lon="3.23288">
        <ele>353.2</ele>
        <time>2024-05-19T08:08:56Z</time>
      </trkpt>
      <trkpt lat="45.72941" lon="3.23276">
        <ele>353</ele>
        <time>2024-05-19T08:08:57Z</time>
      </trkpt>
      <trkpt lat="45.72943" lon="3.23248">
        <ele>352.8</ele>
        <time>2024-05-19T08:08:58Z</time>
      </trkpt>
      <trkpt lat="45.72943" lon="3.23248">
        <ele>352.4</ele>
        <time>2024-05-19T08:08:59Z</time>
      </trkpt>
      <trkpt lat="45.72943" lon="3.23233">
        <ele>352.2</ele>
        <time>2024-05-19T08:09:00Z</time>
      </trkpt>
      <trkpt lat="45.72941" lon="3.23218">
        <ele>352</ele>
        <time>2024-05-19T08:09:01Z</time>
      </trkpt>
      <trkpt lat="45.72939" lon="3.23202">
        <ele>351.6</ele>
        <time>2024-05-19T08:09:02Z</time>
      </trkpt>
      <trkpt lat="45.72939" lon="3.23186">
        <ele>351.4</ele>
        <time>2024-05-19T08:09:03Z</time>
      </trkpt>
      <trkpt lat="45.72939" lon="3.2317">
        <ele>351.2</ele>
        <time>2024-05-19T08:09:04Z</time>
      </trkpt>
      <trkpt lat="45.7294" lon="3.23153">
        <ele>351</ele>
        <time>2024-05-19T08:09:05Z</time>
      </trkpt>
      <trkpt lat="45.72942" lon="3.23137">
        <ele>350.6</ele>
        <time>2024-05-19T08:09:06Z</time>
      </trkpt>
      <trkpt lat="45.72944" lon="3.2312">
        <ele>350.2</ele>
        <time>2024-05-19T08:09:07Z</time>
      </trkpt>
      <trkpt lat="45.72946" lon="3.23103">
        <ele>349.8</ele>
        <time>2024-05-19T08:09:08Z</time>
      </trkpt>
      <trkpt lat="45.72948" lon="3.23086">
        <ele>349.4</ele>
        <time>2024-05-19T08:09:09Z</time>
      </trkpt>
      <trkpt lat="45.7295" lon="3.23069">
        <ele>349</ele>
        <time>2024-05-19T08:09:10Z</time>
      </trkpt>
      <trkpt lat="45.72953" lon="3.23052">
        <ele>348.8</ele>
        <time>2024-05-19T08:09:11Z</time>
      </trkpt>
      <trkpt lat="45.72955" lon="3.23036">
        <ele>348.4</ele>
        <time>2024-05-19T08:09:12Z</time>
      </trkpt>
      <trkpt lat="45.72958" lon="3.23019">
        <ele>348</ele>
        <time>2024-05-19T08:09:13Z</time>
      </trkpt>
      <trkpt lat="45.72961" lon="3.23003">
        <ele>347.8</ele>
        <time>2024-05-19T08:09:14Z</time>
      </trkpt>
      <trkpt lat="45.72964" lon="3.22987">
        <ele>347.4</ele>
        <time>2024-05-19T08:09:15Z</time>
      </trkpt>
      <trkpt lat="45.72967" lon="3.22971">
        <ele>347.2</ele>
        <time>2024-05-19T08:09:16Z</time>
      </trkpt>
      <trkpt lat="45.72969" lon="3.22955">
        <ele>346.8</ele>
        <time>2024-05-19T08:09:17Z</time>
      </trkpt>
      <trkpt lat="45.72972" lon="3.2294">
        <ele>346.6</ele>
        <time>2024-05-19T08:09:18Z</time>
      </trkpt>
      <trkpt lat="45.72975" lon="3.22926">
        <ele>346.4</ele>
        <time>2024-05-19T08:09:19Z</time>
      </trkpt>
      <trkpt lat="45.72977" lon="3.22911">
        <ele>346</ele>
        <time>2024-05-19T08:09:20Z</time>
      </trkpt>
      <trkpt lat="45.7298" lon="3.22897">
        <ele>345.8</ele>
        <time>2024-05-19T08:09:21Z</time>
      </trkpt>
      <trkpt lat="45.72984" lon="3.22883">
        <ele>345.6</ele>
        <time>2024-05-19T08:09:22Z</time>
      </trkpt>
      <trkpt lat="45.72987" lon="3.2287">
        <ele>345.4</ele>
        <time>2024-05-19T08:09:23Z</time>
      </trkpt>
      <trkpt lat="45.72991" lon="3.22858">
        <ele>345</ele>
        <time>2024-05-19T08:09:24Z</time>
      </trkpt>
      <trkpt lat="45.72994" lon="3.22846">
        <ele>344.8</ele>
        <time>2024-05-19T08:09:25Z</time>
      </trkpt>
      <trkpt lat="45.72998" lon="3.22834">
        <ele>344.6</ele>
        <time>2024-05-19T08:09:26Z</time>
      </trkpt>
      <trkpt lat="45.73001" lon="3.22823">
        <ele>344.4</ele>
        <time>2024-05-19T08:09:27Z</time>
      </trkpt>
      <trkpt lat="45.73007" lon="3.22819">
        <ele>344.2</ele>
        <time>2024-05-19T08:09:28Z</time>
      </trkpt>
      <trkpt lat="45.73015" lon="3.22808">
        <ele>343.8</ele>
        <time>2024-05-19T08:09:29Z</time>
      </trkpt>
      <trkpt lat="45.73018" lon="3.22799">
        <ele>343.6</ele>
        <time>2024-05-19T08:09:30Z</time>
      </trkpt>
      <trkpt lat="45.73019" lon="3.22784">
        <ele>343.2</ele>
        <time>2024-05-19T08:09:31Z</time>
      </trkpt>
      <trkpt lat="45.73016" lon="3.22773">
        <ele>343</ele>
        <time>2024-05-19T08:09:32Z</time>
      </trkpt>
      <trkpt lat="45.73008" lon="3.22766">
        <ele>342.8</ele>
        <time>2024-05-19T08:09:33Z</time>
      </trkpt>
      <trkpt lat="45.73001" lon="3.22761">
        <ele>342.6</ele>
        <time>2024-05-19T08:09:34Z</time>
      </trkpt>
      <trkpt lat="45.72993" lon="3.2276">
        <ele>342.4</ele>
        <time>2024-05-19T08:09:35Z</time>
      </trkpt>
      <trkpt lat="45.72988" lon="3.22764">
        <ele>342.2</ele>
        <time>2024-05-19T08:09:36Z</time>
      </trkpt>
      <trkpt lat="45.72982" lon="3.22769">
        <ele>342</ele>
        <time>2024-05-19T08:09:37Z</time>
      </trkpt>
      <trkpt lat="45.72977" lon="3.22775">
        <ele>341.8</ele>
        <time>2024-05-19T08:09:38Z</time>
      </trkpt>
      <trkpt lat="45.72973" lon="3.22782">
        <ele>341.8</ele>
        <time>2024-05-19T08:09:39Z</time>
      </trkpt>
      <trkpt lat="45.72967" lon="3.22787">
        <ele>341.6</ele>
        <time>2024-05-19T08:09:40Z</time>
      </trkpt>
      <trkpt lat="45.72959" lon="3.22786">
        <ele>341.4</ele>
        <time>2024-05-19T08:09:41Z</time>
      </trkpt>
      <trkpt lat="45.72953" lon="3.22785">
        <ele>341.4</ele>
        <time>2024-05-19T08:09:42Z</time>
      </trkpt>
      <trkpt lat="45.72946" lon="3.22784">
        <ele>341.2</ele>
        <time>2024-05-19T08:09:43Z</time>
      </trkpt>
      <trkpt lat="45.72939" lon="3.22782">
        <ele>341</ele>
        <time>2024-05-19T08:09:44Z</time>
      </trkpt>
      <trkpt lat="45.72931" lon="3.22779">
        <ele>341</ele>
        <time>2024-05-19T08:09:45Z</time>
      </trkpt>
      <trkpt lat="45.72925" lon="3.22775">
        <ele>340.8</ele>
        <time>2024-05-19T08:09:46Z</time>
      </trkpt>
      <trkpt lat="45.72918" lon="3.22771">
        <ele>340.8</ele>
        <time>2024-05-19T08:09:47Z</time>
      </trkpt>
      <trkpt lat="45.72912" lon="3.22767">
        <ele>340.6</ele>
        <time>2024-05-19T08:09:48Z</time>
      </trkpt>
      <trkpt lat="45.72906" lon="3.22764">
        <ele>340.4</ele>
        <time>2024-05-19T08:09:49Z</time>
      </trkpt>
      <trkpt lat="45.729" lon="3.2276">
        <ele>340.2</ele>
        <time>2024-05-19T08:09:50Z</time>
      </trkpt>
      <trkpt lat="45.72894" lon="3.22756">
        <ele>340.2</ele>
        <time>2024-05-19T08:09:51Z</time>
      </trkpt>
      <trkpt lat="45.72888" lon="3.22753">
        <ele>340</ele>
        <time>2024-05-19T08:09:52Z</time>
      </trkpt>
      <trkpt lat="45.72882" lon="3.22749">
        <ele>339.8</ele>
        <time>2024-05-19T08:09:53Z</time>
      </trkpt>
      <trkpt lat="45.72876" lon="3.22745">
        <ele>339.6</ele>
        <time>2024-05-19T08:09:54Z</time>
      </trkpt>
      <trkpt lat="45.7287" lon="3.22742">
        <ele>339.6</ele>
        <time>2024-05-19T08:09:55Z</time>
      </trkpt>
      <trkpt lat="45.72864" lon="3.22738">
        <ele>339.4</ele>
        <time>2024-05-19T08:09:56Z</time>
      </trkpt>
      <trkpt lat="45.72858" lon="3.22734">
        <ele>339.2</ele>
        <time>2024-05-19T08:09:57Z</time>
      </trkpt>
      <trkpt lat="45.72852" lon="3.22731">
        <ele>339</ele>
        <time>2024-05-19T08:09:58Z</time>
      </trkpt>
      <trkpt lat="45.72846" lon="3.22727">
        <ele>338.8</ele>
        <time>2024-05-19T08:09:59Z</time>
      </trkpt>
      <trkpt lat="45.7284" lon="3.22723">
        <ele>338.6</ele>
        <time>2024-05-19T08:10:00Z</time>
      </trkpt>
      <trkpt lat="45.72833" lon="3.22719">
        <ele>338.4</ele>
        <time>2024-05-19T08:10:01Z</time>
      </trkpt>
      <trkpt lat="45.72827" lon="3.22715">
        <ele>338.2</ele>
        <time>2024-05-19T08:10:02Z</time>
      </trkpt>
      <trkpt lat="45.72822" lon="3.2271">
        <ele>338</ele>
        <time>2024-05-19T08:10:03Z</time>
      </trkpt>
      <trkpt lat="45.72816" lon="3.22706">
        <ele>337.8</ele>
        <time>2024-05-19T08:10:04Z</time>
      </trkpt>
      <trkpt lat="45.7281" lon="3.22701">
        <ele>337.6</ele>
        <time>2024-05-19T08:10:05Z</time>
      </trkpt>
      <trkpt lat="45.72805" lon="3.22697">
        <ele>337.4</ele>
        <time>2024-05-19T08:10:06Z</time>
      </trkpt>
      <trkpt lat="45.72799" lon="3.22692">
        <ele>337.2</ele>
        <time>2024-05-19T08:10:07Z</time>
      </trkpt>
      <trkpt lat="45.72794" lon="3.22687">
        <ele>337</ele>
        <time>2024-05-19T08:10:08Z</time>
      </trkpt>
      <trkpt lat="45.72788" lon="3.22683">
        <ele>337</ele>
        <time>2024-05-19T08:10:09Z</time>
      </trkpt>
      <trkpt lat="45.72782" lon="3.22678">
        <ele>336.8</ele>
        <time>2024-05-19T08:10:10Z</time>
      </trkpt>
      <trkpt lat="45.72777" lon="3.22673">
        <ele>336.6</ele>
        <time>2024-05-19T08:10:11Z</time>
      </trkpt>
      <trkpt lat="45.72771" lon="3.22669">
        <ele>336.6</ele>
        <time>2024-05-19T08:10:12Z</time>
      </trkpt>
      <trkpt lat="45.72766" lon="3.22664">
        <ele>336.4</ele>
        <time>2024-05-19T08:10:13Z</time>
      </trkpt>
      <trkpt lat="45.7276" lon="3.22659">
        <ele>336.2</ele>
        <time>2024-05-19T08:10:14Z</time>
      </trkpt>
      <trkpt lat="45.72755" lon="3.22655">
        <ele>336.2</ele>
        <time>2024-05-19T08:10:15Z</time>
      </trkpt>
      <trkpt lat="45.72749" lon="3.2265">
        <ele>336</ele>
        <time>2024-05-19T08:10:16Z</time>
      </trkpt>
      <trkpt lat="45.72743" lon="3.22646">
        <ele>335.8</ele>
        <time>2024-05-19T08:10:17Z</time>
      </trkpt>
      <trkpt lat="45.72738" lon="3.22641">
        <ele>335.8</ele>
        <time>2024-05-19T08:10:18Z</time>
      </trkpt>
      <trkpt lat="45.72732" lon="3.22636">
        <ele>335.6</ele>
        <time>2024-05-19T08:10:19Z</time>
      </trkpt>
      <trkpt lat="45.72727" lon="3.22632">
        <ele>335.6</ele>
        <time>2024-05-19T08:10:20Z</time>
      </trkpt>
      <trkpt lat="45.72722" lon="3.22628">
        <ele>335.4</ele>
        <time>2024-05-19T08:10:21Z</time>
      </trkpt>
      <trkpt lat="45.72716" lon="3.22623">
        <ele>335.2</ele>
        <time>2024-05-19T08:10:22Z</time>
      </trkpt>
      <trkpt lat="45.72711" lon="3.22619">
        <ele>335.2</ele>
        <time>2024-05-19T08:10:23Z</time>
      </trkpt>
      <trkpt lat="45.72705" lon="3.22614">
        <ele>335</ele>
        <time>2024-05-19T08:10:24Z</time>
      </trkpt>
      <trkpt lat="45.727" lon="3.2261">
        <ele>335</ele>
        <time>2024-05-19T08:10:25Z</time>
      </trkpt>
      <trkpt lat="45.72695" lon="3.22606">
        <ele>334.8</ele>
        <time>2024-05-19T08:10:26Z</time>
      </trkpt>
      <trkpt lat="45.7269" lon="3.22601">
        <ele>334.8</ele>
        <time>2024-05-19T08:10:27Z</time>
      </trkpt>
      <trkpt lat="45.72684" lon="3.22597">
        <ele>334.8</ele>
        <time>2024-05-19T08:10:28Z</time>
      </trkpt>
      <trkpt lat="45.72679" lon="3.22593">
        <ele>334.8</ele>
        <time>2024-05-19T08:10:29Z</time>
      </trkpt>
      <trkpt lat="45.72674" lon="3.22588">
        <ele>334.6</ele>
        <time>2024-05-19T08:10:30Z</time>
      </trkpt>
      <trkpt lat="45.72669" lon="3.22584">
        <ele>334.6</ele>
        <time>2024-05-19T08:10:31Z</time>
      </trkpt>
      <trkpt lat="45.72664" lon="3.2258">
        <ele>334.6</ele>
        <time>2024-05-19T08:10:32Z</time>
      </trkpt>
      <trkpt lat="45.7266" lon="3.22576">
        <ele>334.6</ele>
        <time>2024-05-19T08:10:33Z</time>
      </trkpt>
      <trkpt lat="45.72655" lon="3.22572">
        <ele>334.6</ele>
        <time>2024-05-19T08:10:34Z</time>
      </trkpt>
      <trkpt lat="45.7265" lon="3.22569">
        <ele>334.6</ele>
        <time>2024-05-19T08:10:35Z</time>
      </trkpt>
      <trkpt lat="45.72646" lon="3.22565">
        <ele>334.4</ele>
        <time>2024-05-19T08:10:36Z</time>
      </trkpt>
      <trkpt lat="45.72641" lon="3.22561">
        <ele>334.4</ele>
        <time>2024-05-19T08:10:37Z</time>
      </trkpt>
      <trkpt lat="45.72637" lon="3.22557">
        <ele>334.4</ele>
        <time>2024-05-19T08:10:38Z</time>
      </trkpt>
      <trkpt lat="45.72632" lon="3.22554">
        <ele>334.4</ele>
        <time>2024-05-19T08:10:39Z</time>
      </trkpt>
      <trkpt lat="45.72628" lon="3.22551">
        <ele>334.4</ele>
        <time>2024-05-19T08:10:40Z</time>
      </trkpt>
      <trkpt lat="45.72623" lon="3.22548">
        <ele>334.4</ele>
        <time>2024-05-19T08:10:41Z</time>
      </trkpt>
      <trkpt lat="45.72619" lon="3.22546">
        <ele>334.4</ele>
        <time>2024-05-19T08:10:42Z</time>
      </trkpt>
      <trkpt lat="45.72614" lon="3.22543">
        <ele>334.4</ele>
        <time>2024-05-19T08:10:43Z</time>
      </trkpt>
      <trkpt lat="45.7261" lon="3.22541">
        <ele>334.4</ele>
        <time>2024-05-19T08:10:44Z</time>
      </trkpt>
      <trkpt lat="45.72605" lon="3.22538">
        <ele>334.2</ele>
        <time>2024-05-19T08:10:45Z</time>
      </trkpt>
      <trkpt lat="45.72601" lon="3.22535">
        <ele>334.2</ele>
        <time>2024-05-19T08:10:46Z</time>
      </trkpt>
      <trkpt lat="45.72597" lon="3.22533">
        <ele>334.2</ele>
        <time>2024-05-19T08:10:47Z</time>
      </trkpt>
      <trkpt lat="45.72592" lon="3.2253">
        <ele>334.2</ele>
        <time>2024-05-19T08:10:48Z</time>
      </trkpt>
      <trkpt lat="45.72588" lon="3.22528">
        <ele>334</ele>
        <time>2024-05-19T08:10:49Z</time>
      </trkpt>
      <trkpt lat="45.72584" lon="3.22525">
        <ele>334</ele>
        <time>2024-05-19T08:10:50Z</time>
      </trkpt>
      <trkpt lat="45.7258" lon="3.22523">
        <ele>334</ele>
        <time>2024-05-19T08:10:51Z</time>
      </trkpt>
      <trkpt lat="45.72575" lon="3.2252">
        <ele>333.8</ele>
        <time>2024-05-19T08:10:52Z</time>
      </trkpt>
      <trkpt lat="45.72571" lon="3.22519">
        <ele>333.8</ele>
        <time>2024-05-19T08:10:53Z</time>
      </trkpt>
      <trkpt lat="45.72566" lon="3.22518">
        <ele>333.8</ele>
        <time>2024-05-19T08:10:54Z</time>
      </trkpt>
      <trkpt lat="45.72561" lon="3.22517">
        <ele>333.8</ele>
        <time>2024-05-19T08:10:55Z</time>
      </trkpt>
      <trkpt lat="45.72557" lon="3.22516">
        <ele>333.8</ele>
        <time>2024-05-19T08:10:56Z</time>
      </trkpt>
      <trkpt lat="45.72552" lon="3.22515">
        <ele>333.8</ele>
        <time>2024-05-19T08:10:57Z</time>
      </trkpt>
      <trkpt lat="45.72547" lon="3.22514">
        <ele>333.8</ele>
        <time>2024-05-19T08:10:58Z</time>
      </trkpt>
      <trkpt lat="45.72542" lon="3.22513">
        <ele>334</ele>
        <time>2024-05-19T08:10:59Z</time>
      </trkpt>
      <trkpt lat="45.72538" lon="3.22512">
        <ele>334</ele>
        <time>2024-05-19T08:11:00Z</time>
      </trkpt>
      <trkpt lat="45.72533" lon="3.22511">
        <ele>334</ele>
        <time>2024-05-19T08:11:01Z</time>
      </trkpt>
      <trkpt lat="45.72529" lon="3.2251">
        <ele>333.6</ele>
        <time>2024-05-19T08:11:02Z</time>
      </trkpt>
      <trkpt lat="45.72524" lon="3.22509">
        <ele>333.8</ele>
        <time>2024-05-19T08:11:03Z</time>
      </trkpt>
      <trkpt lat="45.7252" lon="3.22508">
        <ele>334.2</ele>
        <time>2024-05-19T08:11:04Z</time>
      </trkpt>
      <trkpt lat="45.72515" lon="3.22507">
        <ele>334.4</ele>
        <time>2024-05-19T08:11:05Z</time>
      </trkpt>
      <trkpt lat="45.72511" lon="3.22507">
        <ele>334.2</ele>
        <time>2024-05-19T08:11:06Z</time>
      </trkpt>
      <trkpt lat="45.72506" lon="3.22506">
        <ele>334.4</ele>
        <time>2024-05-19T08:11:07Z</time>
      </trkpt>
      <trkpt lat="45.72502" lon="3.22505">
        <ele>334.4</ele>
        <time>2024-05-19T08:11:08Z</time>
      </trkpt>
      <trkpt lat="45.72498" lon="3.22504">
        <ele>334.4</ele>
        <time>2024-05-19T08:11:09Z</time>
      </trkpt>
      <trkpt lat="45.72493" lon="3.22503">
        <ele>334.6</ele>
        <time>2024-05-19T08:11:10Z</time>
      </trkpt>
      <trkpt lat="45.72489" lon="3.22502">
        <ele>334.6</ele>
        <time>2024-05-19T08:11:11Z</time>
      </trkpt>
      <trkpt lat="45.72484" lon="3.22501">
        <ele>334.6</ele>
        <time>2024-05-19T08:11:12Z</time>
      </trkpt>
      <trkpt lat="45.7248" lon="3.22501">
        <ele>334.6</ele>
        <time>2024-05-19T08:11:13Z</time>
      </trkpt>
      <trkpt lat="45.72475" lon="3.225">
        <ele>334.6</ele>
        <time>2024-05-19T08:11:14Z</time>
      </trkpt>
      <trkpt lat="45.72471" lon="3.22499">
        <ele>334.8</ele>
        <time>2024-05-19T08:11:15Z</time>
      </trkpt>
      <trkpt lat="45.72466" lon="3.22498">
        <ele>334.8</ele>
        <time>2024-05-19T08:11:16Z</time>
      </trkpt>
      <trkpt lat="45.72461" lon="3.22497">
        <ele>334.8</ele>
        <time>2024-05-19T08:11:17Z</time>
      </trkpt>
      <trkpt lat="45.72457" lon="3.22496">
        <ele>335</ele>
        <time>2024-05-19T08:11:18Z</time>
      </trkpt>
      <trkpt lat="45.72452" lon="3.22496">
        <ele>335</ele>
        <time>2024-05-19T08:11:19Z</time>
      </trkpt>
      <trkpt lat="45.72447" lon="3.22495">
        <ele>335</ele>
        <time>2024-05-19T08:11:20Z</time>
      </trkpt>
      <trkpt lat="45.72442" lon="3.22494">
        <ele>335</ele>
        <time>2024-05-19T08:11:21Z</time>
      </trkpt>
      <trkpt lat="45.72437" lon="3.22493">
        <ele>335</ele>
        <time>2024-05-19T08:11:22Z</time>
      </trkpt>
      <trkpt lat="45.72432" lon="3.22492">
        <ele>335.2</ele>
        <time>2024-05-19T08:11:23Z</time>
      </trkpt>
      <trkpt lat="45.72427" lon="3.22491">
        <ele>335.2</ele>
        <time>2024-05-19T08:11:24Z</time>
      </trkpt>
      <trkpt lat="45.72422" lon="3.2249">
        <ele>335.2</ele>
        <time>2024-05-19T08:11:25Z</time>
      </trkpt>
      <trkpt lat="45.72417" lon="3.22489">
        <ele>335.2</ele>
        <time>2024-05-19T08:11:26Z</time>
      </trkpt>
      <trkpt lat="45.72412" lon="3.22488">
        <ele>335.4</ele>
        <time>2024-05-19T08:11:27Z</time>
      </trkpt>
      <trkpt lat="45.72407" lon="3.22487">
        <ele>335.4</ele>
        <time>2024-05-19T08:11:28Z</time>
      </trkpt>
      <trkpt lat="45.72402" lon="3.22486">
        <ele>335.4</ele>
        <time>2024-05-19T08:11:29Z</time>
      </trkpt>
      <trkpt lat="45.72396" lon="3.22485">
        <ele>335.6</ele>
        <time>2024-05-19T08:11:30Z</time>
      </trkpt>
      <trkpt lat="45.72391" lon="3.22484">
        <ele>335.6</ele>
        <time>2024-05-19T08:11:31Z</time>
      </trkpt>
      <trkpt lat="45.72386" lon="3.22483">
        <ele>335.6</ele>
        <time>2024-05-19T08:11:32Z</time>
      </trkpt>
      <trkpt lat="45.7238" lon="3.22483">
        <ele>335.6</ele>
        <time>2024-05-19T08:11:33Z</time>
      </trkpt>
      <trkpt lat="45.72375" lon="3.22482">
        <ele>335.6</ele>
        <time>2024-05-19T08:11:34Z</time>
      </trkpt>
      <trkpt lat="45.72369" lon="3.22481">
        <ele>335.8</ele>
        <time>2024-05-19T08:11:35Z</time>
      </trkpt>
      <trkpt lat="45.72364" lon="3.2248">
        <ele>335.8</ele>
        <time>2024-05-19T08:11:36Z</time>
      </trkpt>
      <trkpt lat="45.72358" lon="3.22478">
        <ele>335.8</ele>
        <time>2024-05-19T08:11:37Z</time>
      </trkpt>
      <trkpt lat="45.72352" lon="3.22477">
        <ele>336</ele>
        <time>2024-05-19T08:11:38Z</time>
      </trkpt>
      <trkpt lat="45.72347" lon="3.22476">
        <ele>336</ele>
        <time>2024-05-19T08:11:39Z</time>
      </trkpt>
      <trkpt lat="45.72341" lon="3.22475">
        <ele>336</ele>
        <time>2024-05-19T08:11:40Z</time>
      </trkpt>
      <trkpt lat="45.72335" lon="3.22473">
        <ele>336</ele>
        <time>2024-05-19T08:11:41Z</time>
      </trkpt>
      <trkpt lat="45.72329" lon="3.22472">
        <ele>336.2</ele>
        <time>2024-05-19T08:11:42Z</time>
      </trkpt>
      <trkpt lat="45.72322" lon="3.2247">
        <ele>336.2</ele>
        <time>2024-05-19T08:11:43Z</time>
      </trkpt>
      <trkpt lat="45.72316" lon="3.22469">
        <ele>336.2</ele>
        <time>2024-05-19T08:11:44Z</time>
      </trkpt>
      <trkpt lat="45.7231" lon="3.22468">
        <ele>336.2</ele>
        <time>2024-05-19T08:11:45Z</time>
      </trkpt>
      <trkpt lat="45.72304" lon="3.22466">
        <ele>336.2</ele>
        <time>2024-05-19T08:11:46Z</time>
      </trkpt>
      <trkpt lat="45.72297" lon="3.22465">
        <ele>336.4</ele>
        <time>2024-05-19T08:11:47Z</time>
      </trkpt>
      <trkpt lat="45.72291" lon="3.22463">
        <ele>336.4</ele>
        <time>2024-05-19T08:11:48Z</time>
      </trkpt>
      <trkpt lat="45.72284" lon="3.22462">
        <ele>336.4</ele>
        <time>2024-05-19T08:11:49Z</time>
      </trkpt>
      <trkpt lat="45.72278" lon="3.2246">
        <ele>336.4</ele>
        <time>2024-05-19T08:11:50Z</time>
      </trkpt>
      <trkpt lat="45.72271" lon="3.22459">
        <ele>336.4</ele>
        <time>2024-05-19T08:11:51Z</time>
      </trkpt>
      <trkpt lat="45.72265" lon="3.22457">
        <ele>336.4</ele>
        <time>2024-05-19T08:11:52Z</time>
      </trkpt>
      <trkpt lat="45.72259" lon="3.22456">
        <ele>336.4</ele>
        <time>2024-05-19T08:11:53Z</time>
      </trkpt>
      <trkpt lat="45.72253" lon="3.22455">
        <ele>336.4</ele>
        <time>2024-05-19T08:11:54Z</time>
      </trkpt>
      <trkpt lat="45.72246" lon="3.22453">
        <ele>336.4</ele>
        <time>2024-05-19T08:11:55Z</time>
      </trkpt>
      <trkpt lat="45.7224" lon="3.22451">
        <ele>336.4</ele>
        <time>2024-05-19T08:11:56Z</time>
      </trkpt>
      <trkpt lat="45.72234" lon="3.22448">
        <ele>336.6</ele>
        <time>2024-05-19T08:11:57Z</time>
      </trkpt>
      <trkpt lat="45.72228" lon="3.22446">
        <ele>336.6</ele>
        <time>2024-05-19T08:11:58Z</time>
      </trkpt>
      <trkpt lat="45.72222" lon="3.22443">
        <ele>336.6</ele>
        <time>2024-05-19T08:11:59Z</time>
      </trkpt>
      <trkpt lat="45.72216" lon="3.22441">
        <ele>336.6</ele>
        <time>2024-05-19T08:12:00Z</time>
      </trkpt>
      <trkpt lat="45.7221" lon="3.22438">
        <ele>336.6</ele>
        <time>2024-05-19T08:12:01Z</time>
      </trkpt>
      <trkpt lat="45.72204" lon="3.22436">
        <ele>336.8</ele>
        <time>2024-05-19T08:12:02Z</time>
      </trkpt>
      <trkpt lat="45.72197" lon="3.22433">
        <ele>336.8</ele>
        <time>2024-05-19T08:12:03Z</time>
      </trkpt>
      <trkpt lat="45.72191" lon="3.22431">
        <ele>336.8</ele>
        <time>2024-05-19T08:12:04Z</time>
      </trkpt>
      <trkpt lat="45.72185" lon="3.22428">
        <ele>336.8</ele>
        <time>2024-05-19T08:12:05Z</time>
      </trkpt>
      <trkpt lat="45.72179" lon="3.22426">
        <ele>337</ele>
        <time>2024-05-19T08:12:06Z</time>
      </trkpt>
      <trkpt lat="45.72172" lon="3.22423">
        <ele>337</ele>
        <time>2024-05-19T08:12:07Z</time>
      </trkpt>
      <trkpt lat="45.72166" lon="3.22421">
        <ele>337</ele>
        <time>2024-05-19T08:12:08Z</time>
      </trkpt>
      <trkpt lat="45.7216" lon="3.22418">
        <ele>337</ele>
        <time>2024-05-19T08:12:09Z</time>
      </trkpt>
      <trkpt lat="45.72153" lon="3.22415">
        <ele>337</ele>
        <time>2024-05-19T08:12:10Z</time>
      </trkpt>
      <trkpt lat="45.72147" lon="3.22413">
        <ele>337</ele>
        <time>2024-05-19T08:12:11Z</time>
      </trkpt>
      <trkpt lat="45.72141" lon="3.2241">
        <ele>337</ele>
        <time>2024-05-19T08:12:12Z</time>
      </trkpt>
      <trkpt lat="45.72134" lon="3.22408">
        <ele>337</ele>
        <time>2024-05-19T08:12:13Z</time>
      </trkpt>
      <trkpt lat="45.72128" lon="3.22405">
        <ele>337.2</ele>
        <time>2024-05-19T08:12:14Z</time>
      </trkpt>
      <trkpt lat="45.72122" lon="3.22403">
        <ele>337.2</ele>
        <time>2024-05-19T08:12:15Z</time>
      </trkpt>
      <trkpt lat="45.72116" lon="3.224">
        <ele>337.2</ele>
        <time>2024-05-19T08:12:16Z</time>
      </trkpt>
      <trkpt lat="45.72109" lon="3.22398">
        <ele>337.2</ele>
        <time>2024-05-19T08:12:17Z</time>
      </trkpt>
      <trkpt lat="45.72103" lon="3.22395">
        <ele>337.2</ele>
        <time>2024-05-19T08:12:18Z</time>
      </trkpt>
      <trkpt lat="45.72097" lon="3.22392">
        <ele>337.2</ele>
        <time>2024-05-19T08:12:19Z</time>
      </trkpt>
      <trkpt lat="45.7209" lon="3.22389">
        <ele>337.2</ele>
        <time>2024-05-19T08:12:20Z</time>
      </trkpt>
      <trkpt lat="45.72084" lon="3.22387">
        <ele>337.2</ele>
        <time>2024-05-19T08:12:21Z</time>
      </trkpt>
      <trkpt lat="45.72078" lon="3.22384">
        <ele>337.2</ele>
        <time>2024-05-19T08:12:22Z</time>
      </trkpt>
      <trkpt lat="45.72072" lon="3.22381">
        <ele>337</ele>
        <time>2024-05-19T08:12:23Z</time>
      </trkpt>
      <trkpt lat="45.72065" lon="3.22379">
        <ele>337.2</ele>
        <time>2024-05-19T08:12:24Z</time>
      </trkpt>
      <trkpt lat="45.72059" lon="3.22376">
        <ele>337.2</ele>
        <time>2024-05-19T08:12:25Z</time>
      </trkpt>
      <trkpt lat="45.72053" lon="3.22373">
        <ele>337</ele>
        <time>2024-05-19T08:12:26Z</time>
      </trkpt>
      <trkpt lat="45.72047" lon="3.22371">
        <ele>337.2</ele>
        <time>2024-05-19T08:12:27Z</time>
      </trkpt>
      <trkpt lat="45.7204" lon="3.22368">
        <ele>337.2</ele>
        <time>2024-05-19T08:12:28Z</time>
      </trkpt>
      <trkpt lat="45.72034" lon="3.22365">
        <ele>337</ele>
        <time>2024-05-19T08:12:29Z</time>
      </trkpt>
      <trkpt lat="45.72028" lon="3.22362">
        <ele>337</ele>
        <time>2024-05-19T08:12:30Z</time>
      </trkpt>
      <trkpt lat="45.72021" lon="3.2236">
        <ele>337</ele>
        <time>2024-05-19T08:12:31Z</time>
      </trkpt>
      <trkpt lat="45.72015" lon="3.22357">
        <ele>337.2</ele>
        <time>2024-05-19T08:12:32Z</time>
      </trkpt>
      <trkpt lat="45.72008" lon="3.22354">
        <ele>337.4</ele>
        <time>2024-05-19T08:12:33Z</time>
      </trkpt>
      <trkpt lat="45.72002" lon="3.22351">
        <ele>337.2</ele>
        <time>2024-05-19T08:12:34Z</time>
      </trkpt>
      <trkpt lat="45.71995" lon="3.22348">
        <ele>337.4</ele>
        <time>2024-05-19T08:12:35Z</time>
      </trkpt>
      <trkpt lat="45.71989" lon="3.22346">
        <ele>337.2</ele>
        <time>2024-05-19T08:12:36Z</time>
      </trkpt>
      <trkpt lat="45.71983" lon="3.22343">
        <ele>337.2</ele>
        <time>2024-05-19T08:12:37Z</time>
      </trkpt>
      <trkpt lat="45.71976" lon="3.2234">
        <ele>337.2</ele>
        <time>2024-05-19T08:12:38Z</time>
      </trkpt>
      <trkpt lat="45.7197" lon="3.22338">
        <ele>337.4</ele>
        <time>2024-05-19T08:12:39Z</time>
      </trkpt>
      <trkpt lat="45.71964" lon="3.22335">
        <ele>337.4</ele>
        <time>2024-05-19T08:12:40Z</time>
      </trkpt>
      <trkpt lat="45.71957" lon="3.22332">
        <ele>337.4</ele>
        <time>2024-05-19T08:12:41Z</time>
      </trkpt>
      <trkpt lat="45.71951" lon="3.22329">
        <ele>337.4</ele>
        <time>2024-05-19T08:12:42Z</time>
      </trkpt>
      <trkpt lat="45.71944" lon="3.22327">
        <ele>337.4</ele>
        <time>2024-05-19T08:12:43Z</time>
      </trkpt>
      <trkpt lat="45.71938" lon="3.22324">
        <ele>337.4</ele>
        <time>2024-05-19T08:12:44Z</time>
      </trkpt>
      <trkpt lat="45.71932" lon="3.22321">
        <ele>337.4</ele>
        <time>2024-05-19T08:12:45Z</time>
      </trkpt>
      <trkpt lat="45.71925" lon="3.22318">
        <ele>337.4</ele>
        <time>2024-05-19T08:12:46Z</time>
      </trkpt>
      <trkpt lat="45.71919" lon="3.22316">
        <ele>337.4</ele>
        <time>2024-05-19T08:12:47Z</time>
      </trkpt>
      <trkpt lat="45.71913" lon="3.22313">
        <ele>337.4</ele>
        <time>2024-05-19T08:12:48Z</time>
      </trkpt>
      <trkpt lat="45.71907" lon="3.2231">
        <ele>337.4</ele>
        <time>2024-05-19T08:12:49Z</time>
      </trkpt>
      <trkpt lat="45.71901" lon="3.22308">
        <ele>337.4</ele>
        <time>2024-05-19T08:12:50Z</time>
      </trkpt>
      <trkpt lat="45.71895" lon="3.22305">
        <ele>337.4</ele>
        <time>2024-05-19T08:12:51Z</time>
      </trkpt>
      <trkpt lat="45.71889" lon="3.22303">
        <ele>337.6</ele>
        <time>2024-05-19T08:12:52Z</time>
      </trkpt>
      <trkpt lat="45.71882" lon="3.223">
        <ele>337.6</ele>
        <time>2024-05-19T08:12:53Z</time>
      </trkpt>
      <trkpt lat="45.71876" lon="3.22297">
        <ele>337.6</ele>
        <time>2024-05-19T08:12:54Z</time>
      </trkpt>
      <trkpt lat="45.7187" lon="3.22295">
        <ele>337.6</ele>
        <time>2024-05-19T08:12:55Z</time>
      </trkpt>
      <trkpt lat="45.71864" lon="3.22292">
        <ele>337.6</ele>
        <time>2024-05-19T08:12:56Z</time>
      </trkpt>
      <trkpt lat="45.71858" lon="3.22289">
        <ele>337.6</ele>
        <time>2024-05-19T08:12:57Z</time>
      </trkpt>
      <trkpt lat="45.71851" lon="3.22287">
        <ele>337.6</ele>
        <time>2024-05-19T08:12:58Z</time>
      </trkpt>
      <trkpt lat="45.71845" lon="3.22284">
        <ele>337.6</ele>
        <time>2024-05-19T08:12:59Z</time>
      </trkpt>
      <trkpt lat="45.71839" lon="3.22281">
        <ele>337.6</ele>
        <time>2024-05-19T08:13:00Z</time>
      </trkpt>
      <trkpt lat="45.71833" lon="3.22278">
        <ele>337.6</ele>
        <time>2024-05-19T08:13:01Z</time>
      </trkpt>
      <trkpt lat="45.71826" lon="3.22276">
        <ele>337.6</ele>
        <time>2024-05-19T08:13:02Z</time>
      </trkpt>
      <trkpt lat="45.7182" lon="3.22273">
        <ele>337.8</ele>
        <time>2024-05-19T08:13:03Z</time>
      </trkpt>
      <trkpt lat="45.71814" lon="3.2227">
        <ele>337.6</ele>
        <time>2024-05-19T08:13:04Z</time>
      </trkpt>
      <trkpt lat="45.71807" lon="3.22268">
        <ele>337.8</ele>
        <time>2024-05-19T08:13:05Z</time>
      </trkpt>
      <trkpt lat="45.71801" lon="3.22265">
        <ele>337.8</ele>
        <time>2024-05-19T08:13:06Z</time>
      </trkpt>
      <trkpt lat="45.71794" lon="3.22262">
        <ele>337.8</ele>
        <time>2024-05-19T08:13:07Z</time>
      </trkpt>
      <trkpt lat="45.71788" lon="3.2226">
        <ele>337.8</ele>
        <time>2024-05-19T08:13:08Z</time>
      </trkpt>
      <trkpt lat="45.71781" lon="3.22257">
        <ele>338</ele>
        <time>2024-05-19T08:13:09Z</time>
      </trkpt>
      <trkpt lat="45.71775" lon="3.22254">
        <ele>338</ele>
        <time>2024-05-19T08:13:10Z</time>
      </trkpt>
      <trkpt lat="45.71768" lon="3.22252">
        <ele>337.8</ele>
        <time>2024-05-19T08:13:11Z</time>
      </trkpt>
      <trkpt lat="45.71762" lon="3.22249">
        <ele>337.8</ele>
        <time>2024-05-19T08:13:12Z</time>
      </trkpt>
      <trkpt lat="45.71755" lon="3.22246">
        <ele>338</ele>
        <time>2024-05-19T08:13:13Z</time>
      </trkpt>
      <trkpt lat="45.71748" lon="3.22243">
        <ele>338</ele>
        <time>2024-05-19T08:13:14Z</time>
      </trkpt>
      <trkpt lat="45.71741" lon="3.22241">
        <ele>338</ele>
        <time>2024-05-19T08:13:15Z</time>
      </trkpt>
      <trkpt lat="45.71735" lon="3.22238">
        <ele>337.8</ele>
        <time>2024-05-19T08:13:16Z</time>
      </trkpt>
      <trkpt lat="45.71728" lon="3.22235">
        <ele>338</ele>
        <time>2024-05-19T08:13:17Z</time>
      </trkpt>
      <trkpt lat="45.71721" lon="3.22232">
        <ele>338</ele>
        <time>2024-05-19T08:13:18Z</time>
      </trkpt>
      <trkpt lat="45.71714" lon="3.2223">
        <ele>338</ele>
        <time>2024-05-19T08:13:19Z</time>
      </trkpt>
      <trkpt lat="45.71707" lon="3.22227">
        <ele>338</ele>
        <time>2024-05-19T08:13:20Z</time>
      </trkpt>
      <trkpt lat="45.717" lon="3.22224">
        <ele>338</ele>
        <time>2024-05-19T08:13:21Z</time>
      </trkpt>
      <trkpt lat="45.71693" lon="3.22221">
        <ele>338</ele>
        <time>2024-05-19T08:13:22Z</time>
      </trkpt>
      <trkpt lat="45.71685" lon="3.22218">
        <ele>338</ele>
        <time>2024-05-19T08:13:23Z</time>
      </trkpt>
      <trkpt lat="45.71678" lon="3.22215">
        <ele>338.2</ele>
        <time>2024-05-19T08:13:24Z</time>
      </trkpt>
      <trkpt lat="45.71671" lon="3.22212">
        <ele>338.2</ele>
        <time>2024-05-19T08:13:25Z</time>
      </trkpt>
      <trkpt lat="45.71664" lon="3.22209">
        <ele>338.2</ele>
        <time>2024-05-19T08:13:26Z</time>
      </trkpt>
      <trkpt lat="45.71657" lon="3.22206">
        <ele>338.2</ele>
        <time>2024-05-19T08:13:27Z</time>
      </trkpt>
      <trkpt lat="45.7165" lon="3.22203">
        <ele>338.2</ele>
        <time>2024-05-19T08:13:28Z</time>
      </trkpt>
      <trkpt lat="45.71643" lon="3.22201">
        <ele>338</ele>
        <time>2024-05-19T08:13:29Z</time>
      </trkpt>
      <trkpt lat="45.71636" lon="3.22198">
        <ele>338</ele>
        <time>2024-05-19T08:13:30Z</time>
      </trkpt>
      <trkpt lat="45.71629" lon="3.22195">
        <ele>338.2</ele>
        <time>2024-05-19T08:13:31Z</time>
      </trkpt>
      <trkpt lat="45.71622" lon="3.22192">
        <ele>338.2</ele>
        <time>2024-05-19T08:13:32Z</time>
      </trkpt>
      <trkpt lat="45.71616" lon="3.2219">
        <ele>338.2</ele>
        <time>2024-05-19T08:13:33Z</time>
      </trkpt>
      <trkpt lat="45.71609" lon="3.22187">
        <ele>338.2</ele>
        <time>2024-05-19T08:13:34Z</time>
      </trkpt>
      <trkpt lat="45.71603" lon="3.22184">
        <ele>338.2</ele>
        <time>2024-05-19T08:13:35Z</time>
      </trkpt>
      <trkpt lat="45.71596" lon="3.22182">
        <ele>338.2</ele>
        <time>2024-05-19T08:13:36Z</time>
      </trkpt>
      <trkpt lat="45.7159" lon="3.22179">
        <ele>338.4</ele>
        <time>2024-05-19T08:13:37Z</time>
      </trkpt>
      <trkpt lat="45.71583" lon="3.22177">
        <ele>338.4</ele>
        <time>2024-05-19T08:13:38Z</time>
      </trkpt>
      <trkpt lat="45.71577" lon="3.22175">
        <ele>338.4</ele>
        <time>2024-05-19T08:13:39Z</time>
      </trkpt>
      <trkpt lat="45.7157" lon="3.22172">
        <ele>338.4</ele>
        <time>2024-05-19T08:13:40Z</time>
      </trkpt>
      <trkpt lat="45.71563" lon="3.2217">
        <ele>338.4</ele>
        <time>2024-05-19T08:13:41Z</time>
      </trkpt>
      <trkpt lat="45.71557" lon="3.22167">
        <ele>338.4</ele>
        <time>2024-05-19T08:13:42Z</time>
      </trkpt>
      <trkpt lat="45.7155" lon="3.22165">
        <ele>338.4</ele>
        <time>2024-05-19T08:13:43Z</time>
      </trkpt>
      <trkpt lat="45.71544" lon="3.22162">
        <ele>338.4</ele>
        <time>2024-05-19T08:13:44Z</time>
      </trkpt>
      <trkpt lat="45.71538" lon="3.2216">
        <ele>338.4</ele>
        <time>2024-05-19T08:13:45Z</time>
      </trkpt>
      <trkpt lat="45.71531" lon="3.22158">
        <ele>338.4</ele>
        <time>2024-05-19T08:13:46Z</time>
      </trkpt>
      <trkpt lat="45.71525" lon="3.22155">
        <ele>338.6</ele>
        <time>2024-05-19T08:13:47Z</time>
      </trkpt>
      <trkpt lat="45.71519" lon="3.22152">
        <ele>338.6</ele>
        <time>2024-05-19T08:13:48Z</time>
      </trkpt>
      <trkpt lat="45.71513" lon="3.2215">
        <ele>338.6</ele>
        <time>2024-05-19T08:13:49Z</time>
      </trkpt>
      <trkpt lat="45.71507" lon="3.22147">
        <ele>338.6</ele>
        <time>2024-05-19T08:13:50Z</time>
      </trkpt>
      <trkpt lat="45.71501" lon="3.22144">
        <ele>338.6</ele>
        <time>2024-05-19T08:13:51Z</time>
      </trkpt>
      <trkpt lat="45.71495" lon="3.22141">
        <ele>338.6</ele>
        <time>2024-05-19T08:13:52Z</time>
      </trkpt>
      <trkpt lat="45.71489" lon="3.22139">
        <ele>338.6</ele>
        <time>2024-05-19T08:13:53Z</time>
      </trkpt>
      <trkpt lat="45.71483" lon="3.22136">
        <ele>338.8</ele>
        <time>2024-05-19T08:13:54Z</time>
      </trkpt>
      <trkpt lat="45.71477" lon="3.22133">
        <ele>338.8</ele>
        <time>2024-05-19T08:13:55Z</time>
      </trkpt>
      <trkpt lat="45.71471" lon="3.22131">
        <ele>338.8</ele>
        <time>2024-05-19T08:13:56Z</time>
      </trkpt>
      <trkpt lat="45.71465" lon="3.22128">
        <ele>338.8</ele>
        <time>2024-05-19T08:13:57Z</time>
      </trkpt>
      <trkpt lat="45.71459" lon="3.22125">
        <ele>338.8</ele>
        <time>2024-05-19T08:13:58Z</time>
      </trkpt>
      <trkpt lat="45.71453" lon="3.22122">
        <ele>338.8</ele>
        <time>2024-05-19T08:13:59Z</time>
      </trkpt>
      <trkpt lat="45.71447" lon="3.2212">
        <ele>338.8</ele>
        <time>2024-05-19T08:14:00Z</time>
      </trkpt>
      <trkpt lat="45.71441" lon="3.22117">
        <ele>339</ele>
        <time>2024-05-19T08:14:01Z</time>
      </trkpt>
      <trkpt lat="45.71435" lon="3.22114">
        <ele>339</ele>
        <time>2024-05-19T08:14:02Z</time>
      </trkpt>
      <trkpt lat="45.71429" lon="3.22112">
        <ele>339</ele>
        <time>2024-05-19T08:14:03Z</time>
      </trkpt>
      <trkpt lat="45.71424" lon="3.2211">
        <ele>339</ele>
        <time>2024-05-19T08:14:04Z</time>
      </trkpt>
      <trkpt lat="45.71418" lon="3.22108">
        <ele>339</ele>
        <time>2024-05-19T08:14:05Z</time>
      </trkpt>
      <trkpt lat="45.71412" lon="3.22106">
        <ele>339.2</ele>
        <time>2024-05-19T08:14:06Z</time>
      </trkpt>
      <trkpt lat="45.71406" lon="3.22104">
        <ele>339.2</ele>
        <time>2024-05-19T08:14:07Z</time>
      </trkpt>
      <trkpt lat="45.714" lon="3.22102">
        <ele>339.2</ele>
        <time>2024-05-19T08:14:08Z</time>
      </trkpt>
      <trkpt lat="45.71394" lon="3.221">
        <ele>339.2</ele>
        <time>2024-05-19T08:14:09Z</time>
      </trkpt>
      <trkpt lat="45.71387" lon="3.22097">
        <ele>339.2</ele>
        <time>2024-05-19T08:14:10Z</time>
      </trkpt>
      <trkpt lat="45.71381" lon="3.22095">
        <ele>339.2</ele>
        <time>2024-05-19T08:14:11Z</time>
      </trkpt>
      <trkpt lat="45.71374" lon="3.22093">
        <ele>339.2</ele>
        <time>2024-05-19T08:14:12Z</time>
      </trkpt>
      <trkpt lat="45.71367" lon="3.22091">
        <ele>339.2</ele>
        <time>2024-05-19T08:14:13Z</time>
      </trkpt>
      <trkpt lat="45.7136" lon="3.22089">
        <ele>339.2</ele>
        <time>2024-05-19T08:14:14Z</time>
      </trkpt>
      <trkpt lat="45.71353" lon="3.22087">
        <ele>339.2</ele>
        <time>2024-05-19T08:14:15Z</time>
      </trkpt>
      <trkpt lat="45.71346" lon="3.22084">
        <ele>339.2</ele>
        <time>2024-05-19T08:14:16Z</time>
      </trkpt>
      <trkpt lat="45.71339" lon="3.22082">
        <ele>339.2</ele>
        <time>2024-05-19T08:14:17Z</time>
      </trkpt>
      <trkpt lat="45.71332" lon="3.2208">
        <ele>339.2</ele>
        <time>2024-05-19T08:14:18Z</time>
      </trkpt>
      <trkpt lat="45.71324" lon="3.22078">
        <ele>339.2</ele>
        <time>2024-05-19T08:14:19Z</time>
      </trkpt>
      <trkpt lat="45.71317" lon="3.22077">
        <ele>339.2</ele>
        <time>2024-05-19T08:14:20Z</time>
      </trkpt>
      <trkpt lat="45.71309" lon="3.22075">
        <ele>339</ele>
        <time>2024-05-19T08:14:21Z</time>
      </trkpt>
      <trkpt lat="45.71301" lon="3.22073">
        <ele>339</ele>
        <time>2024-05-19T08:14:22Z</time>
      </trkpt>
      <trkpt lat="45.71293" lon="3.22072">
        <ele>338.6</ele>
        <time>2024-05-19T08:14:23Z</time>
      </trkpt>
      <trkpt lat="45.71284" lon="3.2207">
        <ele>338.8</ele>
        <time>2024-05-19T08:14:24Z</time>
      </trkpt>
      <trkpt lat="45.71276" lon="3.22068">
        <ele>338.8</ele>
        <time>2024-05-19T08:14:25Z</time>
      </trkpt>
      <trkpt lat="45.71267" lon="3.22067">
        <ele>338.6</ele>
        <time>2024-05-19T08:14:26Z</time>
      </trkpt>
      <trkpt lat="45.71259" lon="3.22065">
        <ele>338.6</ele>
        <time>2024-05-19T08:14:27Z</time>
      </trkpt>
      <trkpt lat="45.7125" lon="3.22063">
        <ele>338.6</ele>
        <time>2024-05-19T08:14:28Z</time>
      </trkpt>
      <trkpt lat="45.71242" lon="3.22062">
        <ele>338.6</ele>
        <time>2024-05-19T08:14:29Z</time>
      </trkpt>
      <trkpt lat="45.71234" lon="3.2206">
        <ele>338.4</ele>
        <time>2024-05-19T08:14:30Z</time>
      </trkpt>
      <trkpt lat="45.71225" lon="3.22058">
        <ele>338.4</ele>
        <time>2024-05-19T08:14:31Z</time>
      </trkpt>
      <trkpt lat="45.71217" lon="3.22056">
        <ele>338.4</ele>
        <time>2024-05-19T08:14:32Z</time>
      </trkpt>
      <trkpt lat="45.71209" lon="3.22054">
        <ele>338.2</ele>
        <time>2024-05-19T08:14:33Z</time>
      </trkpt>
      <trkpt lat="45.71202" lon="3.22052">
        <ele>338.2</ele>
        <time>2024-05-19T08:14:34Z</time>
      </trkpt>
      <trkpt lat="45.71194" lon="3.2205">
        <ele>338.2</ele>
        <time>2024-05-19T08:14:35Z</time>
      </trkpt>
      <trkpt lat="45.71187" lon="3.22048">
        <ele>338.2</ele>
        <time>2024-05-19T08:14:36Z</time>
      </trkpt>
      <trkpt lat="45.7118" lon="3.22046">
        <ele>338.2</ele>
        <time>2024-05-19T08:14:37Z</time>
      </trkpt>
      <trkpt lat="45.71173" lon="3.22044">
        <ele>338.2</ele>
        <time>2024-05-19T08:14:38Z</time>
      </trkpt>
      <trkpt lat="45.71166" lon="3.22042">
        <ele>338.2</ele>
        <time>2024-05-19T08:14:39Z</time>
      </trkpt>
      <trkpt lat="45.7116" lon="3.22041">
        <ele>338.4</ele>
        <time>2024-05-19T08:14:40Z</time>
      </trkpt>
      <trkpt lat="45.71154" lon="3.22039">
        <ele>338.4</ele>
        <time>2024-05-19T08:14:41Z</time>
      </trkpt>
      <trkpt lat="45.71147" lon="3.22037">
        <ele>338.4</ele>
        <time>2024-05-19T08:14:42Z</time>
      </trkpt>
      <trkpt lat="45.71141" lon="3.22035">
        <ele>338.4</ele>
        <time>2024-05-19T08:14:43Z</time>
      </trkpt>
      <trkpt lat="45.71135" lon="3.22034">
        <ele>338.4</ele>
        <time>2024-05-19T08:14:44Z</time>
      </trkpt>
      <trkpt lat="45.71129" lon="3.22032">
        <ele>338.4</ele>
        <time>2024-05-19T08:14:45Z</time>
      </trkpt>
      <trkpt lat="45.71123" lon="3.2203">
        <ele>338.4</ele>
        <time>2024-05-19T08:14:46Z</time>
      </trkpt>
      <trkpt lat="45.71117" lon="3.22029">
        <ele>338.4</ele>
        <time>2024-05-19T08:14:47Z</time>
      </trkpt>
      <trkpt lat="45.71111" lon="3.22027">
        <ele>338</ele>
        <time>2024-05-19T08:14:48Z</time>
      </trkpt>
      <trkpt lat="45.71105" lon="3.22026">
        <ele>338</ele>
        <time>2024-05-19T08:14:49Z</time>
      </trkpt>
      <trkpt lat="45.71099" lon="3.22024">
        <ele>338</ele>
        <time>2024-05-19T08:14:50Z</time>
      </trkpt>
      <trkpt lat="45.71093" lon="3.22022">
        <ele>338</ele>
        <time>2024-05-19T08:14:51Z</time>
      </trkpt>
      <trkpt lat="45.71088" lon="3.22021">
        <ele>338</ele>
        <time>2024-05-19T08:14:52Z</time>
      </trkpt>
      <trkpt lat="45.71082" lon="3.22019">
        <ele>338.4</ele>
        <time>2024-05-19T08:14:53Z</time>
      </trkpt>
      <trkpt lat="45.71076" lon="3.22018">
        <ele>338.6</ele>
        <time>2024-05-19T08:14:54Z</time>
      </trkpt>
      <trkpt lat="45.7107" lon="3.22016">
        <ele>338.6</ele>
        <time>2024-05-19T08:14:55Z</time>
      </trkpt>
      <trkpt lat="45.71065" lon="3.22014">
        <ele>338.8</ele>
        <time>2024-05-19T08:14:56Z</time>
      </trkpt>
      <trkpt lat="45.71059" lon="3.22013">
        <ele>338.6</ele>
        <time>2024-05-19T08:14:57Z</time>
      </trkpt>
      <trkpt lat="45.71053" lon="3.22011">
        <ele>338.6</ele>
        <time>2024-05-19T08:14:58Z</time>
      </trkpt>
      <trkpt lat="45.71047" lon="3.2201">
        <ele>338.6</ele>
        <time>2024-05-19T08:14:59Z</time>
      </trkpt>
      <trkpt lat="45.71042" lon="3.22008">
        <ele>338.6</ele>
        <time>2024-05-19T08:15:00Z</time>
      </trkpt>
      <trkpt lat="45.71037" lon="3.22007">
        <ele>338.6</ele>
        <time>2024-05-19T08:15:01Z</time>
      </trkpt>
      <trkpt lat="45.71031" lon="3.22005">
        <ele>338.6</ele>
        <time>2024-05-19T08:15:02Z</time>
      </trkpt>
      <trkpt lat="45.71026" lon="3.22004">
        <ele>338.8</ele>
        <time>2024-05-19T08:15:03Z</time>
      </trkpt>
      <trkpt lat="45.7102" lon="3.22002">
        <ele>338.8</ele>
        <time>2024-05-19T08:15:04Z</time>
      </trkpt>
      <trkpt lat="45.71015" lon="3.22001">
        <ele>338.8</ele>
        <time>2024-05-19T08:15:05Z</time>
      </trkpt>
      <trkpt lat="45.71009" lon="3.21999">
        <ele>339</ele>
        <time>2024-05-19T08:15:06Z</time>
      </trkpt>
      <trkpt lat="45.71004" lon="3.21998">
        <ele>339</ele>
        <time>2024-05-19T08:15:07Z</time>
      </trkpt>
      <trkpt lat="45.70998" lon="3.21996">
        <ele>339</ele>
        <time>2024-05-19T08:15:08Z</time>
      </trkpt>
      <trkpt lat="45.70993" lon="3.21995">
        <ele>339.2</ele>
        <time>2024-05-19T08:15:09Z</time>
      </trkpt>
      <trkpt lat="45.70987" lon="3.21993">
        <ele>339.2</ele>
        <time>2024-05-19T08:15:10Z</time>
      </trkpt>
      <trkpt lat="45.70982" lon="3.21992">
        <ele>339.2</ele>
        <time>2024-05-19T08:15:11Z</time>
      </trkpt>
      <trkpt lat="45.70977" lon="3.2199">
        <ele>339.4</ele>
        <time>2024-05-19T08:15:12Z</time>
      </trkpt>
      <trkpt lat="45.70971" lon="3.21989">
        <ele>339.4</ele>
        <time>2024-05-19T08:15:13Z</time>
      </trkpt>
      <trkpt lat="45.70966" lon="3.21987">
        <ele>339.6</ele>
        <time>2024-05-19T08:15:14Z</time>
      </trkpt>
      <trkpt lat="45.7096" lon="3.21986">
        <ele>339.6</ele>
        <time>2024-05-19T08:15:15Z</time>
      </trkpt>
      <trkpt lat="45.70955" lon="3.21984">
        <ele>339.8</ele>
        <time>2024-05-19T08:15:16Z</time>
      </trkpt>
      <trkpt lat="45.7095" lon="3.21983">
        <ele>339.8</ele>
        <time>2024-05-19T08:15:17Z</time>
      </trkpt>
      <trkpt lat="45.70944" lon="3.21981">
        <ele>340</ele>
        <time>2024-05-19T08:15:18Z</time>
      </trkpt>
      <trkpt lat="45.70939" lon="3.2198">
        <ele>340</ele>
        <time>2024-05-19T08:15:19Z</time>
      </trkpt>
      <trkpt lat="45.70934" lon="3.21978">
        <ele>340</ele>
        <time>2024-05-19T08:15:20Z</time>
      </trkpt>
      <trkpt lat="45.70928" lon="3.21976">
        <ele>340.2</ele>
        <time>2024-05-19T08:15:21Z</time>
      </trkpt>
      <trkpt lat="45.70923" lon="3.21974">
        <ele>340.2</ele>
        <time>2024-05-19T08:15:22Z</time>
      </trkpt>
      <trkpt lat="45.70918" lon="3.21972">
        <ele>340.4</ele>
        <time>2024-05-19T08:15:23Z</time>
      </trkpt>
      <trkpt lat="45.70912" lon="3.2197">
        <ele>340.6</ele>
        <time>2024-05-19T08:15:24Z</time>
      </trkpt>
      <trkpt lat="45.70907" lon="3.21967">
        <ele>340.6</ele>
        <time>2024-05-19T08:15:25Z</time>
      </trkpt>
      <trkpt lat="45.70902" lon="3.21965">
        <ele>340.8</ele>
        <time>2024-05-19T08:15:26Z</time>
      </trkpt>
      <trkpt lat="45.70897" lon="3.21963">
        <ele>340.8</ele>
        <time>2024-05-19T08:15:27Z</time>
      </trkpt>
      <trkpt lat="45.70892" lon="3.21961">
        <ele>341</ele>
        <time>2024-05-19T08:15:28Z</time>
      </trkpt>
      <trkpt lat="45.70887" lon="3.21959">
        <ele>341</ele>
        <time>2024-05-19T08:15:29Z</time>
      </trkpt>
      <trkpt lat="45.70881" lon="3.21956">
        <ele>341.2</ele>
        <time>2024-05-19T08:15:30Z</time>
      </trkpt>
      <trkpt lat="45.70877" lon="3.21951">
        <ele>341.2</ele>
        <time>2024-05-19T08:15:31Z</time>
      </trkpt>
      <trkpt lat="45.70872" lon="3.21947">
        <ele>341.4</ele>
        <time>2024-05-19T08:15:32Z</time>
      </trkpt>
      <trkpt lat="45.70867" lon="3.21942">
        <ele>341.4</ele>
        <time>2024-05-19T08:15:33Z</time>
      </trkpt>
      <trkpt lat="45.70862" lon="3.21938">
        <ele>341.6</ele>
        <time>2024-05-19T08:15:34Z</time>
      </trkpt>
      <trkpt lat="45.70858" lon="3.21934">
        <ele>341.6</ele>
        <time>2024-05-19T08:15:35Z</time>
      </trkpt>
      <trkpt lat="45.70854" lon="3.21929">
        <ele>341.6</ele>
        <time>2024-05-19T08:15:36Z</time>
      </trkpt>
      <trkpt lat="45.70849" lon="3.21924">
        <ele>341.8</ele>
        <time>2024-05-19T08:15:37Z</time>
      </trkpt>
      <trkpt lat="45.70845" lon="3.2192">
        <ele>341.8</ele>
        <time>2024-05-19T08:15:38Z</time>
      </trkpt>
      <trkpt lat="45.70841" lon="3.21915">
        <ele>342</ele>
        <time>2024-05-19T08:15:39Z</time>
      </trkpt>
      <trkpt lat="45.70838" lon="3.2191">
        <ele>342</ele>
        <time>2024-05-19T08:15:40Z</time>
      </trkpt>
      <trkpt lat="45.70833" lon="3.21905">
        <ele>342.2</ele>
        <time>2024-05-19T08:15:41Z</time>
      </trkpt>
      <trkpt lat="45.7083" lon="3.21901">
        <ele>342.2</ele>
        <time>2024-05-19T08:15:42Z</time>
      </trkpt>
      <trkpt lat="45.70825" lon="3.21896">
        <ele>342.4</ele>
        <time>2024-05-19T08:15:43Z</time>
      </trkpt>
      <trkpt lat="45.70821" lon="3.21891">
        <ele>342.4</ele>
        <time>2024-05-19T08:15:44Z</time>
      </trkpt>
      <trkpt lat="45.70817" lon="3.21887">
        <ele>342.6</ele>
        <time>2024-05-19T08:15:45Z</time>
      </trkpt>
      <trkpt lat="45.70814" lon="3.21882">
        <ele>342.6</ele>
        <time>2024-05-19T08:15:46Z</time>
      </trkpt>
      <trkpt lat="45.7081" lon="3.21878">
        <ele>342.8</ele>
        <time>2024-05-19T08:15:47Z</time>
      </trkpt>
      <trkpt lat="45.70805" lon="3.21874">
        <ele>342.8</ele>
        <time>2024-05-19T08:15:48Z</time>
      </trkpt>
      <trkpt lat="45.70801" lon="3.21871">
        <ele>342.8</ele>
        <time>2024-05-19T08:15:49Z</time>
      </trkpt>
      <trkpt lat="45.70796" lon="3.21867">
        <ele>343</ele>
        <time>2024-05-19T08:15:50Z</time>
      </trkpt>
      <trkpt lat="45.70791" lon="3.21864">
        <ele>343</ele>
        <time>2024-05-19T08:15:51Z</time>
      </trkpt>
      <trkpt lat="45.70787" lon="3.21861">
        <ele>343</ele>
        <time>2024-05-19T08:15:52Z</time>
      </trkpt>
      <trkpt lat="45.70782" lon="3.21858">
        <ele>343.2</ele>
        <time>2024-05-19T08:15:53Z</time>
      </trkpt>
      <trkpt lat="45.70778" lon="3.21854">
        <ele>343.2</ele>
        <time>2024-05-19T08:15:54Z</time>
      </trkpt>
      <trkpt lat="45.70773" lon="3.21851">
        <ele>343.4</ele>
        <time>2024-05-19T08:15:55Z</time>
      </trkpt>
      <trkpt lat="45.70768" lon="3.21849">
        <ele>343.4</ele>
        <time>2024-05-19T08:15:56Z</time>
      </trkpt>
      <trkpt lat="45.70763" lon="3.21848">
        <ele>343.6</ele>
        <time>2024-05-19T08:15:57Z</time>
      </trkpt>
      <trkpt lat="45.70758" lon="3.21846">
        <ele>343.6</ele>
        <time>2024-05-19T08:15:58Z</time>
      </trkpt>
      <trkpt lat="45.70753" lon="3.21845">
        <ele>343.8</ele>
        <time>2024-05-19T08:15:59Z</time>
      </trkpt>
      <trkpt lat="45.70748" lon="3.21844">
        <ele>343.8</ele>
        <time>2024-05-19T08:16:00Z</time>
      </trkpt>
      <trkpt lat="45.70743" lon="3.21844">
        <ele>344</ele>
        <time>2024-05-19T08:16:01Z</time>
      </trkpt>
      <trkpt lat="45.70738" lon="3.21844">
        <ele>344</ele>
        <time>2024-05-19T08:16:02Z</time>
      </trkpt>
      <trkpt lat="45.70733" lon="3.21844">
        <ele>344</ele>
        <time>2024-05-19T08:16:03Z</time>
      </trkpt>
      <trkpt lat="45.70728" lon="3.21845">
        <ele>344.2</ele>
        <time>2024-05-19T08:16:04Z</time>
      </trkpt>
      <trkpt lat="45.70723" lon="3.21845">
        <ele>344.4</ele>
        <time>2024-05-19T08:16:05Z</time>
      </trkpt>
      <trkpt lat="45.70718" lon="3.21845">
        <ele>344.4</ele>
        <time>2024-05-19T08:16:06Z</time>
      </trkpt>
      <trkpt lat="45.70713" lon="3.21846">
        <ele>344.6</ele>
        <time>2024-05-19T08:16:07Z</time>
      </trkpt>
      <trkpt lat="45.70707" lon="3.21846">
        <ele>344.6</ele>
        <time>2024-05-19T08:16:08Z</time>
      </trkpt>
      <trkpt lat="45.70702" lon="3.21846">
        <ele>344.8</ele>
        <time>2024-05-19T08:16:09Z</time>
      </trkpt>
      <trkpt lat="45.70697" lon="3.21847">
        <ele>344.8</ele>
        <time>2024-05-19T08:16:10Z</time>
      </trkpt>
      <trkpt lat="45.70692" lon="3.21847">
        <ele>344.8</ele>
        <time>2024-05-19T08:16:11Z</time>
      </trkpt>
      <trkpt lat="45.70687" lon="3.21847">
        <ele>345</ele>
        <time>2024-05-19T08:16:12Z</time>
      </trkpt>
      <trkpt lat="45.70682" lon="3.21847">
        <ele>345.2</ele>
        <time>2024-05-19T08:16:13Z</time>
      </trkpt>
      <trkpt lat="45.70676" lon="3.21848">
        <ele>345.2</ele>
        <time>2024-05-19T08:16:14Z</time>
      </trkpt>
      <trkpt lat="45.70671" lon="3.21848">
        <ele>345.4</ele>
        <time>2024-05-19T08:16:15Z</time>
      </trkpt>
      <trkpt lat="45.70666" lon="3.21848">
        <ele>345.4</ele>
        <time>2024-05-19T08:16:16Z</time>
      </trkpt>
      <trkpt lat="45.70661" lon="3.21849">
        <ele>345.6</ele>
        <time>2024-05-19T08:16:17Z</time>
      </trkpt>
      <trkpt lat="45.70656" lon="3.21849">
        <ele>345.6</ele>
        <time>2024-05-19T08:16:18Z</time>
      </trkpt>
      <trkpt lat="45.70651" lon="3.21849">
        <ele>345.8</ele>
        <time>2024-05-19T08:16:19Z</time>
      </trkpt>
      <trkpt lat="45.70646" lon="3.21849">
        <ele>346</ele>
        <time>2024-05-19T08:16:20Z</time>
      </trkpt>
      <trkpt lat="45.70641" lon="3.2185">
        <ele>346</ele>
        <time>2024-05-19T08:16:21Z</time>
      </trkpt>
      <trkpt lat="45.70636" lon="3.2185">
        <ele>346</ele>
        <time>2024-05-19T08:16:22Z</time>
      </trkpt>
      <trkpt lat="45.70631" lon="3.2185">
        <ele>346.2</ele>
        <time>2024-05-19T08:16:23Z</time>
      </trkpt>
      <trkpt lat="45.70625" lon="3.21849">
        <ele>346.4</ele>
        <time>2024-05-19T08:16:24Z</time>
      </trkpt>
      <trkpt lat="45.7062" lon="3.21849">
        <ele>346.4</ele>
        <time>2024-05-19T08:16:25Z</time>
      </trkpt>
      <trkpt lat="45.70615" lon="3.21848">
        <ele>346.6</ele>
        <time>2024-05-19T08:16:26Z</time>
      </trkpt>
      <trkpt lat="45.70609" lon="3.21848">
        <ele>346.6</ele>
        <time>2024-05-19T08:16:27Z</time>
      </trkpt>
      <trkpt lat="45.70604" lon="3.21847">
        <ele>346.8</ele>
        <time>2024-05-19T08:16:28Z</time>
      </trkpt>
      <trkpt lat="45.70599" lon="3.21847">
        <ele>346.8</ele>
        <time>2024-05-19T08:16:29Z</time>
      </trkpt>
      <trkpt lat="45.70593" lon="3.21846">
        <ele>347</ele>
        <time>2024-05-19T08:16:30Z</time>
      </trkpt>
      <trkpt lat="45.70588" lon="3.21846">
        <ele>347.2</ele>
        <time>2024-05-19T08:16:31Z</time>
      </trkpt>
      <trkpt lat="45.70582" lon="3.21844">
        <ele>347.2</ele>
        <time>2024-05-19T08:16:32Z</time>
      </trkpt>
      <trkpt lat="45.70576" lon="3.21843">
        <ele>347.4</ele>
        <time>2024-05-19T08:16:33Z</time>
      </trkpt>
      <trkpt lat="45.70571" lon="3.21841">
        <ele>347.4</ele>
        <time>2024-05-19T08:16:34Z</time>
      </trkpt>
      <trkpt lat="45.70565" lon="3.21839">
        <ele>347.6</ele>
        <time>2024-05-19T08:16:35Z</time>
      </trkpt>
      <trkpt lat="45.70559" lon="3.21837">
        <ele>347.6</ele>
        <time>2024-05-19T08:16:36Z</time>
      </trkpt>
      <trkpt lat="45.70553" lon="3.21835">
        <ele>347.8</ele>
        <time>2024-05-19T08:16:37Z</time>
      </trkpt>
      <trkpt lat="45.70547" lon="3.21834">
        <ele>347.8</ele>
        <time>2024-05-19T08:16:38Z</time>
      </trkpt>
      <trkpt lat="45.70541" lon="3.21832">
        <ele>348</ele>
        <time>2024-05-19T08:16:39Z</time>
      </trkpt>
      <trkpt lat="45.70534" lon="3.2183">
        <ele>348</ele>
        <time>2024-05-19T08:16:40Z</time>
      </trkpt>
      <trkpt lat="45.70528" lon="3.21828">
        <ele>348.2</ele>
        <time>2024-05-19T08:16:41Z</time>
      </trkpt>
      <trkpt lat="45.70522" lon="3.21826">
        <ele>348.2</ele>
        <time>2024-05-19T08:16:42Z</time>
      </trkpt>
      <trkpt lat="45.70515" lon="3.21824">
        <ele>348.2</ele>
        <time>2024-05-19T08:16:43Z</time>
      </trkpt>
      <trkpt lat="45.70509" lon="3.21822">
        <ele>348.2</ele>
        <time>2024-05-19T08:16:44Z</time>
      </trkpt>
      <trkpt lat="45.70502" lon="3.2182">
        <ele>348.4</ele>
        <time>2024-05-19T08:16:45Z</time>
      </trkpt>
      <trkpt lat="45.70496" lon="3.21818">
        <ele>348.4</ele>
        <time>2024-05-19T08:16:46Z</time>
      </trkpt>
      <trkpt lat="45.70489" lon="3.21816">
        <ele>348.4</ele>
        <time>2024-05-19T08:16:47Z</time>
      </trkpt>
      <trkpt lat="45.70483" lon="3.21814">
        <ele>348.4</ele>
        <time>2024-05-19T08:16:48Z</time>
      </trkpt>
      <trkpt lat="45.70476" lon="3.21812">
        <ele>348.6</ele>
        <time>2024-05-19T08:16:49Z</time>
      </trkpt>
      <trkpt lat="45.7047" lon="3.2181">
        <ele>348.6</ele>
        <time>2024-05-19T08:16:50Z</time>
      </trkpt>
      <trkpt lat="45.70463" lon="3.21808">
        <ele>348.6</ele>
        <time>2024-05-19T08:16:51Z</time>
      </trkpt>
      <trkpt lat="45.70457" lon="3.21806">
        <ele>348.6</ele>
        <time>2024-05-19T08:16:52Z</time>
      </trkpt>
      <trkpt lat="45.7045" lon="3.21803">
        <ele>348.6</ele>
        <time>2024-05-19T08:16:53Z</time>
      </trkpt>
      <trkpt lat="45.70444" lon="3.21801">
        <ele>348.4</ele>
        <time>2024-05-19T08:16:54Z</time>
      </trkpt>
      <trkpt lat="45.70437" lon="3.21799">
        <ele>348.4</ele>
        <time>2024-05-19T08:16:55Z</time>
      </trkpt>
      <trkpt lat="45.7043" lon="3.21797">
        <ele>348.4</ele>
        <time>2024-05-19T08:16:56Z</time>
      </trkpt>
      <trkpt lat="45.70424" lon="3.21794">
        <ele>348.4</ele>
        <time>2024-05-19T08:16:57Z</time>
      </trkpt>
      <trkpt lat="45.70417" lon="3.21792">
        <ele>348.4</ele>
        <time>2024-05-19T08:16:58Z</time>
      </trkpt>
      <trkpt lat="45.7041" lon="3.2179">
        <ele>348.4</ele>
        <time>2024-05-19T08:16:59Z</time>
      </trkpt>
      <trkpt lat="45.70402" lon="3.21787">
        <ele>348.2</ele>
        <time>2024-05-19T08:17:00Z</time>
      </trkpt>
      <trkpt lat="45.70395" lon="3.21785">
        <ele>349</ele>
        <time>2024-05-19T08:17:01Z</time>
      </trkpt>
      <trkpt lat="45.70388" lon="3.21782">
        <ele>348.2</ele>
        <time>2024-05-19T08:17:02Z</time>
      </trkpt>
      <trkpt lat="45.7038" lon="3.2178">
        <ele>347.8</ele>
        <time>2024-05-19T08:17:03Z</time>
      </trkpt>
      <trkpt lat="45.70373" lon="3.21777">
        <ele>347</ele>
        <time>2024-05-19T08:17:04Z</time>
      </trkpt>
      <trkpt lat="45.70365" lon="3.21774">
        <ele>347.6</ele>
        <time>2024-05-19T08:17:05Z</time>
      </trkpt>
      <trkpt lat="45.70358" lon="3.21772">
        <ele>347.6</ele>
        <time>2024-05-19T08:17:06Z</time>
      </trkpt>
      <trkpt lat="45.70351" lon="3.21769">
        <ele>347.4</ele>
        <time>2024-05-19T08:17:07Z</time>
      </trkpt>
      <trkpt lat="45.70344" lon="3.21767">
        <ele>347.4</ele>
        <time>2024-05-19T08:17:08Z</time>
      </trkpt>
      <trkpt lat="45.70336" lon="3.21764">
        <ele>347.2</ele>
        <time>2024-05-19T08:17:09Z</time>
      </trkpt>
      <trkpt lat="45.70329" lon="3.21762">
        <ele>347</ele>
        <time>2024-05-19T08:17:10Z</time>
      </trkpt>
      <trkpt lat="45.70321" lon="3.21759">
        <ele>347</ele>
        <time>2024-05-19T08:17:11Z</time>
      </trkpt>
      <trkpt lat="45.70314" lon="3.21757">
        <ele>346.8</ele>
        <time>2024-05-19T08:17:12Z</time>
      </trkpt>
      <trkpt lat="45.70307" lon="3.21754">
        <ele>346.8</ele>
        <time>2024-05-19T08:17:13Z</time>
      </trkpt>
      <trkpt lat="45.70299" lon="3.21752">
        <ele>346.8</ele>
        <time>2024-05-19T08:17:14Z</time>
      </trkpt>
      <trkpt lat="45.70292" lon="3.21749">
        <ele>346.6</ele>
        <time>2024-05-19T08:17:15Z</time>
      </trkpt>
      <trkpt lat="45.70285" lon="3.21747">
        <ele>346.6</ele>
        <time>2024-05-19T08:17:16Z</time>
      </trkpt>
      <trkpt lat="45.70278" lon="3.21744">
        <ele>346.4</ele>
        <time>2024-05-19T08:17:17Z</time>
      </trkpt>
      <trkpt lat="45.7027" lon="3.21742">
        <ele>346.4</ele>
        <time>2024-05-19T08:17:18Z</time>
      </trkpt>
      <trkpt lat="45.70263" lon="3.2174">
        <ele>346.4</ele>
        <time>2024-05-19T08:17:19Z</time>
      </trkpt>
      <trkpt lat="45.70256" lon="3.21737">
        <ele>346.2</ele>
        <time>2024-05-19T08:17:20Z</time>
      </trkpt>
      <trkpt lat="45.70249" lon="3.21735">
        <ele>346.2</ele>
        <time>2024-05-19T08:17:21Z</time>
      </trkpt>
      <trkpt lat="45.70242" lon="3.21732">
        <ele>346.2</ele>
        <time>2024-05-19T08:17:22Z</time>
      </trkpt>
      <trkpt lat="45.70236" lon="3.2173">
        <ele>346</ele>
        <time>2024-05-19T08:17:23Z</time>
      </trkpt>
      <trkpt lat="45.70229" lon="3.21728">
        <ele>346</ele>
        <time>2024-05-19T08:17:24Z</time>
      </trkpt>
      <trkpt lat="45.70222" lon="3.21727">
        <ele>346</ele>
        <time>2024-05-19T08:17:25Z</time>
      </trkpt>
      <trkpt lat="45.70214" lon="3.21726">
        <ele>346</ele>
        <time>2024-05-19T08:17:26Z</time>
      </trkpt>
      <trkpt lat="45.70208" lon="3.21725">
        <ele>345.8</ele>
        <time>2024-05-19T08:17:27Z</time>
      </trkpt>
      <trkpt lat="45.70201" lon="3.21724">
        <ele>345.8</ele>
        <time>2024-05-19T08:17:28Z</time>
      </trkpt>
      <trkpt lat="45.70194" lon="3.21723">
        <ele>345.8</ele>
        <time>2024-05-19T08:17:29Z</time>
      </trkpt>
      <trkpt lat="45.70187" lon="3.21722">
        <ele>345.8</ele>
        <time>2024-05-19T08:17:30Z</time>
      </trkpt>
      <trkpt lat="45.7018" lon="3.21721">
        <ele>345.6</ele>
        <time>2024-05-19T08:17:31Z</time>
      </trkpt>
      <trkpt lat="45.70172" lon="3.2172">
        <ele>345.6</ele>
        <time>2024-05-19T08:17:32Z</time>
      </trkpt>
      <trkpt lat="45.70165" lon="3.21719">
        <ele>345.6</ele>
        <time>2024-05-19T08:17:33Z</time>
      </trkpt>
      <trkpt lat="45.70158" lon="3.21718">
        <ele>345.6</ele>
        <time>2024-05-19T08:17:34Z</time>
      </trkpt>
      <trkpt lat="45.70152" lon="3.21717">
        <ele>345.6</ele>
        <time>2024-05-19T08:17:35Z</time>
      </trkpt>
      <trkpt lat="45.70144" lon="3.21716">
        <ele>345.6</ele>
        <time>2024-05-19T08:17:36Z</time>
      </trkpt>
      <trkpt lat="45.70138" lon="3.21715">
        <ele>345.4</ele>
        <time>2024-05-19T08:17:37Z</time>
      </trkpt>
      <trkpt lat="45.70131" lon="3.21714">
        <ele>345.6</ele>
        <time>2024-05-19T08:17:38Z</time>
      </trkpt>
      <trkpt lat="45.70124" lon="3.21713">
        <ele>345.6</ele>
        <time>2024-05-19T08:17:39Z</time>
      </trkpt>
      <trkpt lat="45.70118" lon="3.21712">
        <ele>345.6</ele>
        <time>2024-05-19T08:17:40Z</time>
      </trkpt>
      <trkpt lat="45.70111" lon="3.21712">
        <ele>345.6</ele>
        <time>2024-05-19T08:17:41Z</time>
      </trkpt>
      <trkpt lat="45.70104" lon="3.21711">
        <ele>345.4</ele>
        <time>2024-05-19T08:17:42Z</time>
      </trkpt>
      <trkpt lat="45.70098" lon="3.2171">
        <ele>345.4</ele>
        <time>2024-05-19T08:17:43Z</time>
      </trkpt>
      <trkpt lat="45.70091" lon="3.21709">
        <ele>345.4</ele>
        <time>2024-05-19T08:17:44Z</time>
      </trkpt>
      <trkpt lat="45.70085" lon="3.21709">
        <ele>345.4</ele>
        <time>2024-05-19T08:17:45Z</time>
      </trkpt>
      <trkpt lat="45.70078" lon="3.21708">
        <ele>345.4</ele>
        <time>2024-05-19T08:17:46Z</time>
      </trkpt>
      <trkpt lat="45.70072" lon="3.21707">
        <ele>345.4</ele>
        <time>2024-05-19T08:17:47Z</time>
      </trkpt>
      <trkpt lat="45.70065" lon="3.21706">
        <ele>345.4</ele>
        <time>2024-05-19T08:17:48Z</time>
      </trkpt>
      <trkpt lat="45.70059" lon="3.21706">
        <ele>345.4</ele>
        <time>2024-05-19T08:17:49Z</time>
      </trkpt>
      <trkpt lat="45.70052" lon="3.21705">
        <ele>345.4</ele>
        <time>2024-05-19T08:17:50Z</time>
      </trkpt>
      <trkpt lat="45.70045" lon="3.21704">
        <ele>345.2</ele>
        <time>2024-05-19T08:17:51Z</time>
      </trkpt>
      <trkpt lat="45.70039" lon="3.21703">
        <ele>345.2</ele>
        <time>2024-05-19T08:17:52Z</time>
      </trkpt>
      <trkpt lat="45.70032" lon="3.21703">
        <ele>345.2</ele>
        <time>2024-05-19T08:17:53Z</time>
      </trkpt>
      <trkpt lat="45.70026" lon="3.21702">
        <ele>345</ele>
        <time>2024-05-19T08:17:54Z</time>
      </trkpt>
      <trkpt lat="45.70019" lon="3.21701">
        <ele>345</ele>
        <time>2024-05-19T08:17:55Z</time>
      </trkpt>
      <trkpt lat="45.70013" lon="3.217">
        <ele>345</ele>
        <time>2024-05-19T08:17:56Z</time>
      </trkpt>
      <trkpt lat="45.70006" lon="3.217">
        <ele>345</ele>
        <time>2024-05-19T08:17:57Z</time>
      </trkpt>
      <trkpt lat="45.7" lon="3.21699">
        <ele>345</ele>
        <time>2024-05-19T08:17:58Z</time>
      </trkpt>
      <trkpt lat="45.69994" lon="3.21698">
        <ele>345</ele>
        <time>2024-05-19T08:17:59Z</time>
      </trkpt>
      <trkpt lat="45.69987" lon="3.21697">
        <ele>345</ele>
        <time>2024-05-19T08:18:00Z</time>
      </trkpt>
      <trkpt lat="45.69981" lon="3.21696">
        <ele>345</ele>
        <time>2024-05-19T08:18:01Z</time>
      </trkpt>
      <trkpt lat="45.69975" lon="3.21695">
        <ele>345</ele>
        <time>2024-05-19T08:18:02Z</time>
      </trkpt>
      <trkpt lat="45.69969" lon="3.21694">
        <ele>345</ele>
        <time>2024-05-19T08:18:03Z</time>
      </trkpt>
      <trkpt lat="45.69963" lon="3.21693">
        <ele>345</ele>
        <time>2024-05-19T08:18:04Z</time>
      </trkpt>
      <trkpt lat="45.69957" lon="3.21692">
        <ele>345</ele>
        <time>2024-05-19T08:18:05Z</time>
      </trkpt>
      <trkpt lat="45.69951" lon="3.21691">
        <ele>345</ele>
        <time>2024-05-19T08:18:06Z</time>
      </trkpt>
      <trkpt lat="45.69945" lon="3.21691">
        <ele>345</ele>
        <time>2024-05-19T08:18:07Z</time>
      </trkpt>
      <trkpt lat="45.69939" lon="3.2169">
        <ele>345</ele>
        <time>2024-05-19T08:18:08Z</time>
      </trkpt>
      <trkpt lat="45.69933" lon="3.21689">
        <ele>345</ele>
        <time>2024-05-19T08:18:09Z</time>
      </trkpt>
      <trkpt lat="45.69927" lon="3.21689">
        <ele>345</ele>
        <time>2024-05-19T08:18:10Z</time>
      </trkpt>
      <trkpt lat="45.69921" lon="3.21688">
        <ele>345</ele>
        <time>2024-05-19T08:18:11Z</time>
      </trkpt>
      <trkpt lat="45.69916" lon="3.21688">
        <ele>345</ele>
        <time>2024-05-19T08:18:12Z</time>
      </trkpt>
      <trkpt lat="45.6991" lon="3.21687">
        <ele>345.4</ele>
        <time>2024-05-19T08:18:13Z</time>
      </trkpt>
      <trkpt lat="45.69905" lon="3.21686">
        <ele>345.2</ele>
        <time>2024-05-19T08:18:14Z</time>
      </trkpt>
      <trkpt lat="45.699" lon="3.21686">
        <ele>345.2</ele>
        <time>2024-05-19T08:18:15Z</time>
      </trkpt>
      <trkpt lat="45.69894" lon="3.21685">
        <ele>345.2</ele>
        <time>2024-05-19T08:18:16Z</time>
      </trkpt>
      <trkpt lat="45.6989" lon="3.21685">
        <ele>345.4</ele>
        <time>2024-05-19T08:18:17Z</time>
      </trkpt>
      <trkpt lat="45.69885" lon="3.21684">
        <ele>345.4</ele>
        <time>2024-05-19T08:18:18Z</time>
      </trkpt>
      <trkpt lat="45.6988" lon="3.21684">
        <ele>345.4</ele>
        <time>2024-05-19T08:18:19Z</time>
      </trkpt>
      <trkpt lat="45.69875" lon="3.21683">
        <ele>345.4</ele>
        <time>2024-05-19T08:18:20Z</time>
      </trkpt>
      <trkpt lat="45.69871" lon="3.21683">
        <ele>345.4</ele>
        <time>2024-05-19T08:18:21Z</time>
      </trkpt>
      <trkpt lat="45.69866" lon="3.21682">
        <ele>345.6</ele>
        <time>2024-05-19T08:18:22Z</time>
      </trkpt>
      <trkpt lat="45.69861" lon="3.21682">
        <ele>345.6</ele>
        <time>2024-05-19T08:18:23Z</time>
      </trkpt>
      <trkpt lat="45.69856" lon="3.21681">
        <ele>345.6</ele>
        <time>2024-05-19T08:18:24Z</time>
      </trkpt>
      <trkpt lat="45.69852" lon="3.21681">
        <ele>345.6</ele>
        <time>2024-05-19T08:18:25Z</time>
      </trkpt>
      <trkpt lat="45.69847" lon="3.2168">
        <ele>345.6</ele>
        <time>2024-05-19T08:18:26Z</time>
      </trkpt>
      <trkpt lat="45.69842" lon="3.2168">
        <ele>345.8</ele>
        <time>2024-05-19T08:18:27Z</time>
      </trkpt>
      <trkpt lat="45.69837" lon="3.21679">
        <ele>345.8</ele>
        <time>2024-05-19T08:18:28Z</time>
      </trkpt>
      <trkpt lat="45.69833" lon="3.21679">
        <ele>345.8</ele>
        <time>2024-05-19T08:18:29Z</time>
      </trkpt>
      <trkpt lat="45.69828" lon="3.21678">
        <ele>346</ele>
        <time>2024-05-19T08:18:30Z</time>
      </trkpt>
      <trkpt lat="45.69824" lon="3.21678">
        <ele>346</ele>
        <time>2024-05-19T08:18:31Z</time>
      </trkpt>
      <trkpt lat="45.69819" lon="3.21677">
        <ele>346</ele>
        <time>2024-05-19T08:18:32Z</time>
      </trkpt>
      <trkpt lat="45.69814" lon="3.21676">
        <ele>346.2</ele>
        <time>2024-05-19T08:18:33Z</time>
      </trkpt>
      <trkpt lat="45.6981" lon="3.21676">
        <ele>346.2</ele>
        <time>2024-05-19T08:18:34Z</time>
      </trkpt>
      <trkpt lat="45.69805" lon="3.21676">
        <ele>346.4</ele>
        <time>2024-05-19T08:18:35Z</time>
      </trkpt>
      <trkpt lat="45.69801" lon="3.21675">
        <ele>346.4</ele>
        <time>2024-05-19T08:18:36Z</time>
      </trkpt>
      <trkpt lat="45.69796" lon="3.21675">
        <ele>346.4</ele>
        <time>2024-05-19T08:18:37Z</time>
      </trkpt>
      <trkpt lat="45.69792" lon="3.21674">
        <ele>346.4</ele>
        <time>2024-05-19T08:18:38Z</time>
      </trkpt>
      <trkpt lat="45.69787" lon="3.21674">
        <ele>346.6</ele>
        <time>2024-05-19T08:18:39Z</time>
      </trkpt>
      <trkpt lat="45.69782" lon="3.21673">
        <ele>346.6</ele>
        <time>2024-05-19T08:18:40Z</time>
      </trkpt>
      <trkpt lat="45.69778" lon="3.21673">
        <ele>346.8</ele>
        <time>2024-05-19T08:18:41Z</time>
      </trkpt>
      <trkpt lat="45.69774" lon="3.21672">
        <ele>346.8</ele>
        <time>2024-05-19T08:18:42Z</time>
      </trkpt>
      <trkpt lat="45.69769" lon="3.21672">
        <ele>347</ele>
        <time>2024-05-19T08:18:43Z</time>
      </trkpt>
      <trkpt lat="45.69765" lon="3.21671">
        <ele>347</ele>
        <time>2024-05-19T08:18:44Z</time>
      </trkpt>
      <trkpt lat="45.6976" lon="3.21671">
        <ele>347.2</ele>
        <time>2024-05-19T08:18:45Z</time>
      </trkpt>
      <trkpt lat="45.69756" lon="3.2167">
        <ele>347.2</ele>
        <time>2024-05-19T08:18:46Z</time>
      </trkpt>
      <trkpt lat="45.69752" lon="3.2167">
        <ele>347.4</ele>
        <time>2024-05-19T08:18:47Z</time>
      </trkpt>
      <trkpt lat="45.69747" lon="3.21669">
        <ele>347.4</ele>
        <time>2024-05-19T08:18:48Z</time>
      </trkpt>
      <trkpt lat="45.69743" lon="3.21669">
        <ele>347.6</ele>
        <time>2024-05-19T08:18:49Z</time>
      </trkpt>
      <trkpt lat="45.69738" lon="3.21668">
        <ele>347.8</ele>
        <time>2024-05-19T08:18:50Z</time>
      </trkpt>
      <trkpt lat="45.69733" lon="3.21668">
        <ele>348</ele>
        <time>2024-05-19T08:18:51Z</time>
      </trkpt>
      <trkpt lat="45.69729" lon="3.21667">
        <ele>348</ele>
        <time>2024-05-19T08:18:52Z</time>
      </trkpt>
      <trkpt lat="45.69724" lon="3.21667">
        <ele>348.2</ele>
        <time>2024-05-19T08:18:53Z</time>
      </trkpt>
      <trkpt lat="45.69719" lon="3.21666">
        <ele>348.2</ele>
        <time>2024-05-19T08:18:54Z</time>
      </trkpt>
      <trkpt lat="45.69715" lon="3.21666">
        <ele>348.4</ele>
        <time>2024-05-19T08:18:55Z</time>
      </trkpt>
      <trkpt lat="45.6971" lon="3.21665">
        <ele>348.4</ele>
        <time>2024-05-19T08:18:56Z</time>
      </trkpt>
      <trkpt lat="45.69706" lon="3.21665">
        <ele>348.6</ele>
        <time>2024-05-19T08:18:57Z</time>
      </trkpt>
      <trkpt lat="45.69701" lon="3.21664">
        <ele>348.6</ele>
        <time>2024-05-19T08:18:58Z</time>
      </trkpt>
      <trkpt lat="45.69696" lon="3.21664">
        <ele>348.8</ele>
        <time>2024-05-19T08:18:59Z</time>
      </trkpt>
      <trkpt lat="45.69691" lon="3.21663">
        <ele>348.8</ele>
        <time>2024-05-19T08:19:00Z</time>
      </trkpt>
      <trkpt lat="45.69687" lon="3.21663">
        <ele>348.8</ele>
        <time>2024-05-19T08:19:01Z</time>
      </trkpt>
      <trkpt lat="45.69681" lon="3.21662">
        <ele>349</ele>
        <time>2024-05-19T08:19:02Z</time>
      </trkpt>
      <trkpt lat="45.69676" lon="3.21661">
        <ele>349</ele>
        <time>2024-05-19T08:19:03Z</time>
      </trkpt>
      <trkpt lat="45.69671" lon="3.21661">
        <ele>349.2</ele>
        <time>2024-05-19T08:19:04Z</time>
      </trkpt>
      <trkpt lat="45.69671" lon="3.21661">
        <ele>349.2</ele>
        <time>2024-05-19T08:19:05Z</time>
      </trkpt>
      <trkpt lat="45.69654" lon="3.21659">
        <ele>349.4</ele>
        <time>2024-05-19T08:19:06Z</time>
      </trkpt>
      <trkpt lat="45.69654" lon="3.21659">
        <ele>349.4</ele>
        <time>2024-05-19T08:19:07Z</time>
      </trkpt>
      <trkpt lat="45.69649" lon="3.21659">
        <ele>349.4</ele>
        <time>2024-05-19T08:19:08Z</time>
      </trkpt>
      <trkpt lat="45.69644" lon="3.21658">
        <ele>349.6</ele>
        <time>2024-05-19T08:19:09Z</time>
      </trkpt>
      <trkpt lat="45.69639" lon="3.21657">
        <ele>349.6</ele>
        <time>2024-05-19T08:19:10Z</time>
      </trkpt>
      <trkpt lat="45.69634" lon="3.21657">
        <ele>349.8</ele>
        <time>2024-05-19T08:19:11Z</time>
      </trkpt>
      <trkpt lat="45.69629" lon="3.21656">
        <ele>349.8</ele>
        <time>2024-05-19T08:19:12Z</time>
      </trkpt>
      <trkpt lat="45.69624" lon="3.21656">
        <ele>349.8</ele>
        <time>2024-05-19T08:19:13Z</time>
      </trkpt>
      <trkpt lat="45.69619" lon="3.21655">
        <ele>350</ele>
        <time>2024-05-19T08:19:14Z</time>
      </trkpt>
      <trkpt lat="45.69613" lon="3.21655">
        <ele>350</ele>
        <time>2024-05-19T08:19:15Z</time>
      </trkpt>
      <trkpt lat="45.69608" lon="3.21655">
        <ele>350.2</ele>
        <time>2024-05-19T08:19:16Z</time>
      </trkpt>
      <trkpt lat="45.69603" lon="3.21655">
        <ele>350.2</ele>
        <time>2024-05-19T08:19:17Z</time>
      </trkpt>
      <trkpt lat="45.69598" lon="3.21655">
        <ele>350.4</ele>
        <time>2024-05-19T08:19:18Z</time>
      </trkpt>
      <trkpt lat="45.69593" lon="3.21656">
        <ele>350.4</ele>
        <time>2024-05-19T08:19:19Z</time>
      </trkpt>
      <trkpt lat="45.69588" lon="3.21656">
        <ele>350.4</ele>
        <time>2024-05-19T08:19:20Z</time>
      </trkpt>
      <trkpt lat="45.69583" lon="3.21656">
        <ele>350.6</ele>
        <time>2024-05-19T08:19:21Z</time>
      </trkpt>
      <trkpt lat="45.69578" lon="3.21656">
        <ele>350.6</ele>
        <time>2024-05-19T08:19:22Z</time>
      </trkpt>
      <trkpt lat="45.69573" lon="3.21656">
        <ele>350.8</ele>
        <time>2024-05-19T08:19:23Z</time>
      </trkpt>
      <trkpt lat="45.69568" lon="3.21657">
        <ele>350.8</ele>
        <time>2024-05-19T08:19:24Z</time>
      </trkpt>
      <trkpt lat="45.69563" lon="3.21657">
        <ele>350.8</ele>
        <time>2024-05-19T08:19:25Z</time>
      </trkpt>
      <trkpt lat="45.69558" lon="3.21657">
        <ele>351</ele>
        <time>2024-05-19T08:19:26Z</time>
      </trkpt>
      <trkpt lat="45.69553" lon="3.21659">
        <ele>351</ele>
        <time>2024-05-19T08:19:27Z</time>
      </trkpt>
      <trkpt lat="45.69548" lon="3.2166">
        <ele>351</ele>
        <time>2024-05-19T08:19:28Z</time>
      </trkpt>
      <trkpt lat="45.69544" lon="3.21662">
        <ele>351.2</ele>
        <time>2024-05-19T08:19:29Z</time>
      </trkpt>
      <trkpt lat="45.6954" lon="3.21663">
        <ele>351.2</ele>
        <time>2024-05-19T08:19:30Z</time>
      </trkpt>
      <trkpt lat="45.69536" lon="3.21664">
        <ele>351.4</ele>
        <time>2024-05-19T08:19:31Z</time>
      </trkpt>
      <trkpt lat="45.69532" lon="3.21665">
        <ele>351.4</ele>
        <time>2024-05-19T08:19:32Z</time>
      </trkpt>
      <trkpt lat="45.69528" lon="3.21666">
        <ele>351.4</ele>
        <time>2024-05-19T08:19:33Z</time>
      </trkpt>
      <trkpt lat="45.69525" lon="3.21667">
        <ele>351.4</ele>
        <time>2024-05-19T08:19:34Z</time>
      </trkpt>
      <trkpt lat="45.69523" lon="3.21668">
        <ele>351.6</ele>
        <time>2024-05-19T08:19:35Z</time>
      </trkpt>
      <trkpt lat="45.69521" lon="3.21668">
        <ele>351.6</ele>
        <time>2024-05-19T08:19:36Z</time>
      </trkpt>
      <trkpt lat="45.6952" lon="3.21668">
        <ele>351.8</ele>
        <time>2024-05-19T08:19:37Z</time>
      </trkpt>
      <trkpt lat="45.6952" lon="3.21668">
        <ele>351.8</ele>
        <time>2024-05-19T08:19:38Z</time>
      </trkpt>
      <trkpt lat="45.69519" lon="3.21669">
        <ele>352.2</ele>
        <time>2024-05-19T08:19:43Z</time>
      </trkpt>
      <trkpt lat="45.69517" lon="3.21669">
        <ele>352.2</ele>
        <time>2024-05-19T08:19:44Z</time>
      </trkpt>
      <trkpt lat="45.69515" lon="3.2167">
        <ele>352.2</ele>
        <time>2024-05-19T08:19:45Z</time>
      </trkpt>
      <trkpt lat="45.69512" lon="3.21671">
        <ele>352.4</ele>
        <time>2024-05-19T08:19:46Z</time>
      </trkpt>
      <trkpt lat="45.69508" lon="3.21672">
        <ele>352.4</ele>
        <time>2024-05-19T08:19:47Z</time>
      </trkpt>
      <trkpt lat="45.69504" lon="3.21673">
        <ele>352.4</ele>
        <time>2024-05-19T08:19:48Z</time>
      </trkpt>
      <trkpt lat="45.695" lon="3.21675">
        <ele>352.4</ele>
        <time>2024-05-19T08:19:49Z</time>
      </trkpt>
      <trkpt lat="45.69495" lon="3.21677">
        <ele>352.6</ele>
        <time>2024-05-19T08:19:50Z</time>
      </trkpt>
      <trkpt lat="45.69489" lon="3.21679">
        <ele>352.6</ele>
        <time>2024-05-19T08:19:51Z</time>
      </trkpt>
      <trkpt lat="45.69483" lon="3.21681">
        <ele>352.6</ele>
        <time>2024-05-19T08:19:52Z</time>
      </trkpt>
      <trkpt lat="45.69478" lon="3.21684">
        <ele>352.8</ele>
        <time>2024-05-19T08:19:53Z</time>
      </trkpt>
      <trkpt lat="45.69472" lon="3.21686">
        <ele>352.8</ele>
        <time>2024-05-19T08:19:54Z</time>
      </trkpt>
      <trkpt lat="45.69466" lon="3.21688">
        <ele>352.8</ele>
        <time>2024-05-19T08:19:55Z</time>
      </trkpt>
      <trkpt lat="45.69461" lon="3.2169">
        <ele>352.8</ele>
        <time>2024-05-19T08:19:56Z</time>
      </trkpt>
      <trkpt lat="45.69456" lon="3.21693">
        <ele>353</ele>
        <time>2024-05-19T08:19:57Z</time>
      </trkpt>
      <trkpt lat="45.69451" lon="3.21695">
        <ele>353</ele>
        <time>2024-05-19T08:19:58Z</time>
      </trkpt>
      <trkpt lat="45.69445" lon="3.21697">
        <ele>353</ele>
        <time>2024-05-19T08:19:59Z</time>
      </trkpt>
      <trkpt lat="45.6944" lon="3.21699">
        <ele>353</ele>
        <time>2024-05-19T08:20:00Z</time>
      </trkpt>
      <trkpt lat="45.69435" lon="3.21701">
        <ele>353.2</ele>
        <time>2024-05-19T08:20:01Z</time>
      </trkpt>
      <trkpt lat="45.6943" lon="3.21703">
        <ele>353.2</ele>
        <time>2024-05-19T08:20:02Z</time>
      </trkpt>
      <trkpt lat="45.69425" lon="3.21705">
        <ele>353.2</ele>
        <time>2024-05-19T08:20:03Z</time>
      </trkpt>
      <trkpt lat="45.6942" lon="3.21707">
        <ele>353.4</ele>
        <time>2024-05-19T08:20:04Z</time>
      </trkpt>
      <trkpt lat="45.69415" lon="3.21709">
        <ele>353.4</ele>
        <time>2024-05-19T08:20:05Z</time>
      </trkpt>
      <trkpt lat="45.69411" lon="3.21711">
        <ele>353.6</ele>
        <time>2024-05-19T08:20:06Z</time>
      </trkpt>
      <trkpt lat="45.69406" lon="3.21712">
        <ele>353.6</ele>
        <time>2024-05-19T08:20:07Z</time>
      </trkpt>
      <trkpt lat="45.69401" lon="3.21714">
        <ele>353.8</ele>
        <time>2024-05-19T08:20:08Z</time>
      </trkpt>
      <trkpt lat="45.69396" lon="3.21716">
        <ele>353.8</ele>
        <time>2024-05-19T08:20:09Z</time>
      </trkpt>
      <trkpt lat="45.69391" lon="3.21718">
        <ele>353.8</ele>
        <time>2024-05-19T08:20:10Z</time>
      </trkpt>
      <trkpt lat="45.69386" lon="3.2172">
        <ele>354</ele>
        <time>2024-05-19T08:20:11Z</time>
      </trkpt>
      <trkpt lat="45.69381" lon="3.21721">
        <ele>354</ele>
        <time>2024-05-19T08:20:12Z</time>
      </trkpt>
      <trkpt lat="45.69377" lon="3.21723">
        <ele>354.2</ele>
        <time>2024-05-19T08:20:13Z</time>
      </trkpt>
      <trkpt lat="45.69372" lon="3.21725">
        <ele>354.2</ele>
        <time>2024-05-19T08:20:14Z</time>
      </trkpt>
      <trkpt lat="45.69367" lon="3.21727">
        <ele>354.4</ele>
        <time>2024-05-19T08:20:15Z</time>
      </trkpt>
      <trkpt lat="45.69363" lon="3.21728">
        <ele>354.4</ele>
        <time>2024-05-19T08:20:16Z</time>
      </trkpt>
      <trkpt lat="45.69358" lon="3.2173">
        <ele>354.6</ele>
        <time>2024-05-19T08:20:17Z</time>
      </trkpt>
      <trkpt lat="45.69354" lon="3.21732">
        <ele>354.6</ele>
        <time>2024-05-19T08:20:18Z</time>
      </trkpt>
      <trkpt lat="45.69349" lon="3.21733">
        <ele>354.8</ele>
        <time>2024-05-19T08:20:19Z</time>
      </trkpt>
      <trkpt lat="45.69345" lon="3.21735">
        <ele>354.8</ele>
        <time>2024-05-19T08:20:20Z</time>
      </trkpt>
      <trkpt lat="45.6934" lon="3.21737">
        <ele>355</ele>
        <time>2024-05-19T08:20:21Z</time>
      </trkpt>
      <trkpt lat="45.69336" lon="3.21738">
        <ele>355</ele>
        <time>2024-05-19T08:20:22Z</time>
      </trkpt>
      <trkpt lat="45.69331" lon="3.2174">
        <ele>355.2</ele>
        <time>2024-05-19T08:20:23Z</time>
      </trkpt>
      <trkpt lat="45.69327" lon="3.21742">
        <ele>355.2</ele>
        <time>2024-05-19T08:20:24Z</time>
      </trkpt>
      <trkpt lat="45.69322" lon="3.21743">
        <ele>355.4</ele>
        <time>2024-05-19T08:20:25Z</time>
      </trkpt>
      <trkpt lat="45.69318" lon="3.21745">
        <ele>355.4</ele>
        <time>2024-05-19T08:20:26Z</time>
      </trkpt>
      <trkpt lat="45.69314" lon="3.21746">
        <ele>355.6</ele>
        <time>2024-05-19T08:20:27Z</time>
      </trkpt>
      <trkpt lat="45.69309" lon="3.21748">
        <ele>355.8</ele>
        <time>2024-05-19T08:20:28Z</time>
      </trkpt>
      <trkpt lat="45.69305" lon="3.2175">
        <ele>355.8</ele>
        <time>2024-05-19T08:20:29Z</time>
      </trkpt>
      <trkpt lat="45.693" lon="3.21751">
        <ele>356</ele>
        <time>2024-05-19T08:20:30Z</time>
      </trkpt>
      <trkpt lat="45.69296" lon="3.21753">
        <ele>356</ele>
        <time>2024-05-19T08:20:31Z</time>
      </trkpt>
      <trkpt lat="45.69292" lon="3.21755">
        <ele>356</ele>
        <time>2024-05-19T08:20:32Z</time>
      </trkpt>
      <trkpt lat="45.69287" lon="3.21756">
        <ele>356.2</ele>
        <time>2024-05-19T08:20:33Z</time>
      </trkpt>
      <trkpt lat="45.69282" lon="3.21757">
        <ele>356.4</ele>
        <time>2024-05-19T08:20:34Z</time>
      </trkpt>
      <trkpt lat="45.69278" lon="3.21758">
        <ele>356.4</ele>
        <time>2024-05-19T08:20:35Z</time>
      </trkpt>
      <trkpt lat="45.69274" lon="3.21759">
        <ele>356.6</ele>
        <time>2024-05-19T08:20:36Z</time>
      </trkpt>
      <trkpt lat="45.69269" lon="3.2176">
        <ele>356.6</ele>
        <time>2024-05-19T08:20:37Z</time>
      </trkpt>
      <trkpt lat="45.69265" lon="3.21761">
        <ele>356.8</ele>
        <time>2024-05-19T08:20:38Z</time>
      </trkpt>
      <trkpt lat="45.6926" lon="3.21763">
        <ele>356.8</ele>
        <time>2024-05-19T08:20:39Z</time>
      </trkpt>
      <trkpt lat="45.69256" lon="3.21764">
        <ele>357</ele>
        <time>2024-05-19T08:20:40Z</time>
      </trkpt>
      <trkpt lat="45.69252" lon="3.21765">
        <ele>357.2</ele>
        <time>2024-05-19T08:20:41Z</time>
      </trkpt>
      <trkpt lat="45.69247" lon="3.21766">
        <ele>357.2</ele>
        <time>2024-05-19T08:20:42Z</time>
      </trkpt>
      <trkpt lat="45.69243" lon="3.21767">
        <ele>357.4</ele>
        <time>2024-05-19T08:20:43Z</time>
      </trkpt>
      <trkpt lat="45.69239" lon="3.21768">
        <ele>357.6</ele>
        <time>2024-05-19T08:20:44Z</time>
      </trkpt>
      <trkpt lat="45.69234" lon="3.21769">
        <ele>357.6</ele>
        <time>2024-05-19T08:20:45Z</time>
      </trkpt>
      <trkpt lat="45.6923" lon="3.21769">
        <ele>357.8</ele>
        <time>2024-05-19T08:20:46Z</time>
      </trkpt>
      <trkpt lat="45.69225" lon="3.21769">
        <ele>357.8</ele>
        <time>2024-05-19T08:20:47Z</time>
      </trkpt>
      <trkpt lat="45.69221" lon="3.21769">
        <ele>358</ele>
        <time>2024-05-19T08:20:48Z</time>
      </trkpt>
      <trkpt lat="45.69216" lon="3.21769">
        <ele>358.2</ele>
        <time>2024-05-19T08:20:49Z</time>
      </trkpt>
      <trkpt lat="45.69212" lon="3.21769">
        <ele>358.2</ele>
        <time>2024-05-19T08:20:50Z</time>
      </trkpt>
      <trkpt lat="45.69207" lon="3.21769">
        <ele>358.4</ele>
        <time>2024-05-19T08:20:51Z</time>
      </trkpt>
      <trkpt lat="45.69203" lon="3.21769">
        <ele>358.4</ele>
        <time>2024-05-19T08:20:52Z</time>
      </trkpt>
      <trkpt lat="45.69198" lon="3.21769">
        <ele>358.6</ele>
        <time>2024-05-19T08:20:53Z</time>
      </trkpt>
      <trkpt lat="45.69194" lon="3.21769">
        <ele>358.8</ele>
        <time>2024-05-19T08:20:54Z</time>
      </trkpt>
      <trkpt lat="45.69189" lon="3.21769">
        <ele>358.8</ele>
        <time>2024-05-19T08:20:55Z</time>
      </trkpt>
      <trkpt lat="45.69184" lon="3.21768">
        <ele>359</ele>
        <time>2024-05-19T08:20:56Z</time>
      </trkpt>
      <trkpt lat="45.6918" lon="3.21768">
        <ele>359</ele>
        <time>2024-05-19T08:20:57Z</time>
      </trkpt>
      <trkpt lat="45.69175" lon="3.21767">
        <ele>359.2</ele>
        <time>2024-05-19T08:20:58Z</time>
      </trkpt>
      <trkpt lat="45.69171" lon="3.21766">
        <ele>359.2</ele>
        <time>2024-05-19T08:20:59Z</time>
      </trkpt>
      <trkpt lat="45.69166" lon="3.21765">
        <ele>359.4</ele>
        <time>2024-05-19T08:21:00Z</time>
      </trkpt>
      <trkpt lat="45.69162" lon="3.21765">
        <ele>359.6</ele>
        <time>2024-05-19T08:21:01Z</time>
      </trkpt>
      <trkpt lat="45.69157" lon="3.21762">
        <ele>359.6</ele>
        <time>2024-05-19T08:21:02Z</time>
      </trkpt>
      <trkpt lat="45.69152" lon="3.21758">
        <ele>359.8</ele>
        <time>2024-05-19T08:21:03Z</time>
      </trkpt>
      <trkpt lat="45.69147" lon="3.21758">
        <ele>359.8</ele>
        <time>2024-05-19T08:21:04Z</time>
      </trkpt>
      <trkpt lat="45.69143" lon="3.21758">
        <ele>360</ele>
        <time>2024-05-19T08:21:05Z</time>
      </trkpt>
      <trkpt lat="45.69138" lon="3.21762">
        <ele>360</ele>
        <time>2024-05-19T08:21:06Z</time>
      </trkpt>
      <trkpt lat="45.69133" lon="3.21764">
        <ele>360.2</ele>
        <time>2024-05-19T08:21:07Z</time>
      </trkpt>
      <trkpt lat="45.69128" lon="3.21765">
        <ele>360.2</ele>
        <time>2024-05-19T08:21:08Z</time>
      </trkpt>
      <trkpt lat="45.69123" lon="3.21767">
        <ele>360.2</ele>
        <time>2024-05-19T08:21:09Z</time>
      </trkpt>
      <trkpt lat="45.69117" lon="3.21769">
        <ele>360.2</ele>
        <time>2024-05-19T08:21:10Z</time>
      </trkpt>
      <trkpt lat="45.69112" lon="3.2177">
        <ele>360.4</ele>
        <time>2024-05-19T08:21:11Z</time>
      </trkpt>
      <trkpt lat="45.69106" lon="3.2177">
        <ele>360.4</ele>
        <time>2024-05-19T08:21:12Z</time>
      </trkpt>
      <trkpt lat="45.691" lon="3.2177">
        <ele>360.4</ele>
        <time>2024-05-19T08:21:13Z</time>
      </trkpt>
      <trkpt lat="45.69095" lon="3.21769">
        <ele>360.4</ele>
        <time>2024-05-19T08:21:14Z</time>
      </trkpt>
      <trkpt lat="45.69089" lon="3.21769">
        <ele>360.4</ele>
        <time>2024-05-19T08:21:15Z</time>
      </trkpt>
      <trkpt lat="45.69083" lon="3.21768">
        <ele>360.4</ele>
        <time>2024-05-19T08:21:16Z</time>
      </trkpt>
      <trkpt lat="45.69077" lon="3.21768">
        <ele>360.4</ele>
        <time>2024-05-19T08:21:17Z</time>
      </trkpt>
      <trkpt lat="45.69071" lon="3.21767">
        <ele>360.4</ele>
        <time>2024-05-19T08:21:18Z</time>
      </trkpt>
      <trkpt lat="45.69065" lon="3.21766">
        <ele>360.4</ele>
        <time>2024-05-19T08:21:19Z</time>
      </trkpt>
      <trkpt lat="45.69059" lon="3.21766">
        <ele>360.4</ele>
        <time>2024-05-19T08:21:20Z</time>
      </trkpt>
      <trkpt lat="45.69052" lon="3.21765">
        <ele>360.4</ele>
        <time>2024-05-19T08:21:21Z</time>
      </trkpt>
      <trkpt lat="45.69046" lon="3.21765">
        <ele>360.4</ele>
        <time>2024-05-19T08:21:22Z</time>
      </trkpt>
      <trkpt lat="45.6904" lon="3.21764">
        <ele>360.4</ele>
        <time>2024-05-19T08:21:23Z</time>
      </trkpt>
      <trkpt lat="45.69034" lon="3.21764">
        <ele>360.6</ele>
        <time>2024-05-19T08:21:24Z</time>
      </trkpt>
      <trkpt lat="45.69028" lon="3.21763">
        <ele>360.6</ele>
        <time>2024-05-19T08:21:25Z</time>
      </trkpt>
      <trkpt lat="45.69022" lon="3.21763">
        <ele>360.6</ele>
        <time>2024-05-19T08:21:26Z</time>
      </trkpt>
      <trkpt lat="45.69016" lon="3.21762">
        <ele>360.6</ele>
        <time>2024-05-19T08:21:27Z</time>
      </trkpt>
      <trkpt lat="45.6901" lon="3.21762">
        <ele>360.6</ele>
        <time>2024-05-19T08:21:28Z</time>
      </trkpt>
      <trkpt lat="45.69004" lon="3.21761">
        <ele>360.8</ele>
        <time>2024-05-19T08:21:29Z</time>
      </trkpt>
      <trkpt lat="45.68998" lon="3.21761">
        <ele>360.8</ele>
        <time>2024-05-19T08:21:30Z</time>
      </trkpt>
      <trkpt lat="45.68992" lon="3.2176">
        <ele>360.8</ele>
        <time>2024-05-19T08:21:31Z</time>
      </trkpt>
      <trkpt lat="45.68985" lon="3.2176">
        <ele>361</ele>
        <time>2024-05-19T08:21:32Z</time>
      </trkpt>
      <trkpt lat="45.68979" lon="3.2176">
        <ele>361</ele>
        <time>2024-05-19T08:21:33Z</time>
      </trkpt>
      <trkpt lat="45.68972" lon="3.21759">
        <ele>361</ele>
        <time>2024-05-19T08:21:34Z</time>
      </trkpt>
      <trkpt lat="45.68966" lon="3.21759">
        <ele>361</ele>
        <time>2024-05-19T08:21:35Z</time>
      </trkpt>
      <trkpt lat="45.68959" lon="3.21758">
        <ele>361</ele>
        <time>2024-05-19T08:21:36Z</time>
      </trkpt>
      <trkpt lat="45.68953" lon="3.21758">
        <ele>361</ele>
        <time>2024-05-19T08:21:37Z</time>
      </trkpt>
      <trkpt lat="45.68946" lon="3.21757">
        <ele>361.2</ele>
        <time>2024-05-19T08:21:38Z</time>
      </trkpt>
      <trkpt lat="45.6894" lon="3.21757">
        <ele>361.2</ele>
        <time>2024-05-19T08:21:39Z</time>
      </trkpt>
      <trkpt lat="45.68933" lon="3.21757">
        <ele>361.2</ele>
        <time>2024-05-19T08:21:40Z</time>
      </trkpt>
      <trkpt lat="45.68927" lon="3.21756">
        <ele>361.2</ele>
        <time>2024-05-19T08:21:41Z</time>
      </trkpt>
      <trkpt lat="45.6892" lon="3.21756">
        <ele>361.2</ele>
        <time>2024-05-19T08:21:42Z</time>
      </trkpt>
      <trkpt lat="45.68914" lon="3.21755">
        <ele>361.2</ele>
        <time>2024-05-19T08:21:43Z</time>
      </trkpt>
      <trkpt lat="45.68907" lon="3.21755">
        <ele>361.2</ele>
        <time>2024-05-19T08:21:44Z</time>
      </trkpt>
      <trkpt lat="45.68901" lon="3.21755">
        <ele>361.2</ele>
        <time>2024-05-19T08:21:45Z</time>
      </trkpt>
      <trkpt lat="45.68895" lon="3.21754">
        <ele>361.2</ele>
        <time>2024-05-19T08:21:46Z</time>
      </trkpt>
      <trkpt lat="45.68888" lon="3.21754">
        <ele>361.2</ele>
        <time>2024-05-19T08:21:47Z</time>
      </trkpt>
      <trkpt lat="45.68882" lon="3.21753">
        <ele>361.2</ele>
        <time>2024-05-19T08:21:48Z</time>
      </trkpt>
      <trkpt lat="45.68875" lon="3.21753">
        <ele>361.2</ele>
        <time>2024-05-19T08:21:49Z</time>
      </trkpt>
      <trkpt lat="45.68869" lon="3.21752">
        <ele>361.2</ele>
        <time>2024-05-19T08:21:50Z</time>
      </trkpt>
      <trkpt lat="45.68862" lon="3.21752">
        <ele>361.2</ele>
        <time>2024-05-19T08:21:51Z</time>
      </trkpt>
      <trkpt lat="45.68856" lon="3.21751">
        <ele>361.4</ele>
        <time>2024-05-19T08:21:52Z</time>
      </trkpt>
      <trkpt lat="45.68849" lon="3.21751">
        <ele>361.2</ele>
        <time>2024-05-19T08:21:53Z</time>
      </trkpt>
      <trkpt lat="45.68842" lon="3.2175">
        <ele>361.2</ele>
        <time>2024-05-19T08:21:54Z</time>
      </trkpt>
      <trkpt lat="45.68836" lon="3.2175">
        <ele>361.4</ele>
        <time>2024-05-19T08:21:55Z</time>
      </trkpt>
      <trkpt lat="45.68829" lon="3.21749">
        <ele>361.4</ele>
        <time>2024-05-19T08:21:56Z</time>
      </trkpt>
      <trkpt lat="45.68822" lon="3.21749">
        <ele>361.4</ele>
        <time>2024-05-19T08:21:57Z</time>
      </trkpt>
      <trkpt lat="45.68815" lon="3.21748">
        <ele>361.4</ele>
        <time>2024-05-19T08:21:58Z</time>
      </trkpt>
      <trkpt lat="45.68808" lon="3.21747">
        <ele>361.4</ele>
        <time>2024-05-19T08:21:59Z</time>
      </trkpt>
      <trkpt lat="45.68802" lon="3.21746">
        <ele>361.4</ele>
        <time>2024-05-19T08:22:00Z</time>
      </trkpt>
      <trkpt lat="45.68795" lon="3.21745">
        <ele>361.4</ele>
        <time>2024-05-19T08:22:01Z</time>
      </trkpt>
      <trkpt lat="45.68788" lon="3.21743">
        <ele>361.6</ele>
        <time>2024-05-19T08:22:02Z</time>
      </trkpt>
      <trkpt lat="45.68781" lon="3.21741">
        <ele>361.6</ele>
        <time>2024-05-19T08:22:03Z</time>
      </trkpt>
      <trkpt lat="45.68774" lon="3.21739">
        <ele>361.4</ele>
        <time>2024-05-19T08:22:04Z</time>
      </trkpt>
      <trkpt lat="45.68767" lon="3.21737">
        <ele>361.4</ele>
        <time>2024-05-19T08:22:05Z</time>
      </trkpt>
      <trkpt lat="45.6876" lon="3.21735">
        <ele>361.4</ele>
        <time>2024-05-19T08:22:06Z</time>
      </trkpt>
      <trkpt lat="45.68753" lon="3.21733">
        <ele>361.6</ele>
        <time>2024-05-19T08:22:07Z</time>
      </trkpt>
      <trkpt lat="45.68746" lon="3.2173">
        <ele>361.2</ele>
        <time>2024-05-19T08:22:08Z</time>
      </trkpt>
      <trkpt lat="45.68738" lon="3.21728">
        <ele>361</ele>
        <time>2024-05-19T08:22:09Z</time>
      </trkpt>
      <trkpt lat="45.68731" lon="3.21726">
        <ele>361.2</ele>
        <time>2024-05-19T08:22:10Z</time>
      </trkpt>
      <trkpt lat="45.68724" lon="3.21724">
        <ele>361.2</ele>
        <time>2024-05-19T08:22:11Z</time>
      </trkpt>
      <trkpt lat="45.68716" lon="3.21722">
        <ele>361.2</ele>
        <time>2024-05-19T08:22:12Z</time>
      </trkpt>
      <trkpt lat="45.68716" lon="3.21722">
        <ele>361</ele>
        <time>2024-05-19T08:22:13Z</time>
      </trkpt>
      <trkpt lat="45.68694" lon="3.21715">
        <ele>361</ele>
        <time>2024-05-19T08:22:14Z</time>
      </trkpt>
      <trkpt lat="45.68694" lon="3.21715">
        <ele>360.8</ele>
        <time>2024-05-19T08:22:15Z</time>
      </trkpt>
      <trkpt lat="45.68686" lon="3.21712">
        <ele>360.8</ele>
        <time>2024-05-19T08:22:16Z</time>
      </trkpt>
      <trkpt lat="45.68679" lon="3.2171">
        <ele>360.8</ele>
        <time>2024-05-19T08:22:17Z</time>
      </trkpt>
      <trkpt lat="45.68671" lon="3.21708">
        <ele>360.8</ele>
        <time>2024-05-19T08:22:18Z</time>
      </trkpt>
      <trkpt lat="45.68663" lon="3.21705">
        <ele>360.6</ele>
        <time>2024-05-19T08:22:19Z</time>
      </trkpt>
      <trkpt lat="45.68655" lon="3.21703">
        <ele>360.6</ele>
        <time>2024-05-19T08:22:20Z</time>
      </trkpt>
      <trkpt lat="45.68648" lon="3.21699">
        <ele>360.4</ele>
        <time>2024-05-19T08:22:21Z</time>
      </trkpt>
      <trkpt lat="45.68641" lon="3.21695">
        <ele>360.2</ele>
        <time>2024-05-19T08:22:22Z</time>
      </trkpt>
      <trkpt lat="45.68633" lon="3.2169">
        <ele>360.2</ele>
        <time>2024-05-19T08:22:23Z</time>
      </trkpt>
      <trkpt lat="45.68626" lon="3.21685">
        <ele>360</ele>
        <time>2024-05-19T08:22:24Z</time>
      </trkpt>
      <trkpt lat="45.68618" lon="3.2168">
        <ele>360</ele>
        <time>2024-05-19T08:22:25Z</time>
      </trkpt>
      <trkpt lat="45.6861" lon="3.21675">
        <ele>360</ele>
        <time>2024-05-19T08:22:26Z</time>
      </trkpt>
      <trkpt lat="45.68603" lon="3.2167">
        <ele>359.8</ele>
        <time>2024-05-19T08:22:27Z</time>
      </trkpt>
      <trkpt lat="45.68595" lon="3.21665">
        <ele>359.8</ele>
        <time>2024-05-19T08:22:28Z</time>
      </trkpt>
      <trkpt lat="45.68587" lon="3.2166">
        <ele>359.6</ele>
        <time>2024-05-19T08:22:29Z</time>
      </trkpt>
      <trkpt lat="45.68579" lon="3.21655">
        <ele>359.6</ele>
        <time>2024-05-19T08:22:30Z</time>
      </trkpt>
      <trkpt lat="45.68571" lon="3.2165">
        <ele>359.4</ele>
        <time>2024-05-19T08:22:31Z</time>
      </trkpt>
      <trkpt lat="45.68563" lon="3.21644">
        <ele>359.2</ele>
        <time>2024-05-19T08:22:32Z</time>
      </trkpt>
      <trkpt lat="45.68555" lon="3.21639">
        <ele>359.2</ele>
        <time>2024-05-19T08:22:33Z</time>
      </trkpt>
      <trkpt lat="45.68547" lon="3.21633">
        <ele>359</ele>
        <time>2024-05-19T08:22:34Z</time>
      </trkpt>
      <trkpt lat="45.68538" lon="3.21628">
        <ele>358.8</ele>
        <time>2024-05-19T08:22:35Z</time>
      </trkpt>
      <trkpt lat="45.6853" lon="3.21622">
        <ele>358.6</ele>
        <time>2024-05-19T08:22:36Z</time>
      </trkpt>
      <trkpt lat="45.68521" lon="3.21616">
        <ele>358.4</ele>
        <time>2024-05-19T08:22:37Z</time>
      </trkpt>
      <trkpt lat="45.68513" lon="3.2161">
        <ele>358.2</ele>
        <time>2024-05-19T08:22:38Z</time>
      </trkpt>
      <trkpt lat="45.68504" lon="3.21604">
        <ele>358</ele>
        <time>2024-05-19T08:22:39Z</time>
      </trkpt>
      <trkpt lat="45.68496" lon="3.21598">
        <ele>357.8</ele>
        <time>2024-05-19T08:22:40Z</time>
      </trkpt>
      <trkpt lat="45.68487" lon="3.21592">
        <ele>357.6</ele>
        <time>2024-05-19T08:22:41Z</time>
      </trkpt>
      <trkpt lat="45.68478" lon="3.21586">
        <ele>357.2</ele>
        <time>2024-05-19T08:22:42Z</time>
      </trkpt>
      <trkpt lat="45.6847" lon="3.2158">
        <ele>357</ele>
        <time>2024-05-19T08:22:43Z</time>
      </trkpt>
      <trkpt lat="45.68461" lon="3.21574">
        <ele>356.8</ele>
        <time>2024-05-19T08:22:44Z</time>
      </trkpt>
      <trkpt lat="45.68452" lon="3.21568">
        <ele>356.6</ele>
        <time>2024-05-19T08:22:45Z</time>
      </trkpt>
      <trkpt lat="45.68443" lon="3.21561">
        <ele>356.4</ele>
        <time>2024-05-19T08:22:46Z</time>
      </trkpt>
      <trkpt lat="45.68435" lon="3.21555">
        <ele>356.2</ele>
        <time>2024-05-19T08:22:47Z</time>
      </trkpt>
      <trkpt lat="45.68425" lon="3.21551">
        <ele>356</ele>
        <time>2024-05-19T08:22:48Z</time>
      </trkpt>
      <trkpt lat="45.68416" lon="3.21547">
        <ele>355.8</ele>
        <time>2024-05-19T08:22:49Z</time>
      </trkpt>
      <trkpt lat="45.68407" lon="3.21543">
        <ele>355.6</ele>
        <time>2024-05-19T08:22:50Z</time>
      </trkpt>
      <trkpt lat="45.68398" lon="3.21539">
        <ele>355.4</ele>
        <time>2024-05-19T08:22:51Z</time>
      </trkpt>
      <trkpt lat="45.68389" lon="3.21536">
        <ele>355.2</ele>
        <time>2024-05-19T08:22:52Z</time>
      </trkpt>
      <trkpt lat="45.6838" lon="3.21533">
        <ele>354.8</ele>
        <time>2024-05-19T08:22:53Z</time>
      </trkpt>
      <trkpt lat="45.68371" lon="3.2153">
        <ele>354.6</ele>
        <time>2024-05-19T08:22:54Z</time>
      </trkpt>
      <trkpt lat="45.68362" lon="3.21527">
        <ele>354.6</ele>
        <time>2024-05-19T08:22:55Z</time>
      </trkpt>
      <trkpt lat="45.68353" lon="3.21524">
        <ele>354.4</ele>
        <time>2024-05-19T08:22:56Z</time>
      </trkpt>
      <trkpt lat="45.68345" lon="3.2152">
        <ele>354.2</ele>
        <time>2024-05-19T08:22:57Z</time>
      </trkpt>
      <trkpt lat="45.68336" lon="3.21517">
        <ele>354</ele>
        <time>2024-05-19T08:22:58Z</time>
      </trkpt>
      <trkpt lat="45.68327" lon="3.21514">
        <ele>353.8</ele>
        <time>2024-05-19T08:22:59Z</time>
      </trkpt>
      <trkpt lat="45.68319" lon="3.21511">
        <ele>353.6</ele>
        <time>2024-05-19T08:23:00Z</time>
      </trkpt>
      <trkpt lat="45.6831" lon="3.21508">
        <ele>353.4</ele>
        <time>2024-05-19T08:23:01Z</time>
      </trkpt>
      <trkpt lat="45.68302" lon="3.21505">
        <ele>353.4</ele>
        <time>2024-05-19T08:23:02Z</time>
      </trkpt>
      <trkpt lat="45.68294" lon="3.21502">
        <ele>353.2</ele>
        <time>2024-05-19T08:23:03Z</time>
      </trkpt>
      <trkpt lat="45.68286" lon="3.21499">
        <ele>353</ele>
        <time>2024-05-19T08:23:04Z</time>
      </trkpt>
      <trkpt lat="45.68278" lon="3.21497">
        <ele>352.8</ele>
        <time>2024-05-19T08:23:05Z</time>
      </trkpt>
      <trkpt lat="45.6827" lon="3.21494">
        <ele>352.6</ele>
        <time>2024-05-19T08:23:06Z</time>
      </trkpt>
      <trkpt lat="45.68262" lon="3.21491">
        <ele>352.4</ele>
        <time>2024-05-19T08:23:07Z</time>
      </trkpt>
      <trkpt lat="45.68254" lon="3.21488">
        <ele>352.2</ele>
        <time>2024-05-19T08:23:08Z</time>
      </trkpt>
      <trkpt lat="45.68247" lon="3.21486">
        <ele>352.2</ele>
        <time>2024-05-19T08:23:09Z</time>
      </trkpt>
      <trkpt lat="45.68239" lon="3.21483">
        <ele>352</ele>
        <time>2024-05-19T08:23:10Z</time>
      </trkpt>
      <trkpt lat="45.68232" lon="3.21482">
        <ele>351.8</ele>
        <time>2024-05-19T08:23:11Z</time>
      </trkpt>
      <trkpt lat="45.68224" lon="3.21482">
        <ele>351.8</ele>
        <time>2024-05-19T08:23:12Z</time>
      </trkpt>
      <trkpt lat="45.68216" lon="3.21481">
        <ele>351.6</ele>
        <time>2024-05-19T08:23:13Z</time>
      </trkpt>
      <trkpt lat="45.68209" lon="3.21482">
        <ele>351.6</ele>
        <time>2024-05-19T08:23:14Z</time>
      </trkpt>
      <trkpt lat="45.68203" lon="3.21484">
        <ele>351.4</ele>
        <time>2024-05-19T08:23:15Z</time>
      </trkpt>
      <trkpt lat="45.68196" lon="3.21487">
        <ele>351.4</ele>
        <time>2024-05-19T08:23:16Z</time>
      </trkpt>
      <trkpt lat="45.6819" lon="3.21491">
        <ele>351.4</ele>
        <time>2024-05-19T08:23:17Z</time>
      </trkpt>
      <trkpt lat="45.68184" lon="3.21496">
        <ele>351.2</ele>
        <time>2024-05-19T08:23:18Z</time>
      </trkpt>
      <trkpt lat="45.68178" lon="3.215">
        <ele>351.2</ele>
        <time>2024-05-19T08:23:19Z</time>
      </trkpt>
      <trkpt lat="45.68172" lon="3.21504">
        <ele>351.2</ele>
        <time>2024-05-19T08:23:20Z</time>
      </trkpt>
      <trkpt lat="45.68167" lon="3.21509">
        <ele>351</ele>
        <time>2024-05-19T08:23:21Z</time>
      </trkpt>
      <trkpt lat="45.68162" lon="3.21515">
        <ele>350.8</ele>
        <time>2024-05-19T08:23:22Z</time>
      </trkpt>
      <trkpt lat="45.68157" lon="3.21521">
        <ele>350.8</ele>
        <time>2024-05-19T08:23:23Z</time>
      </trkpt>
      <trkpt lat="45.68153" lon="3.21527">
        <ele>350.8</ele>
        <time>2024-05-19T08:23:24Z</time>
      </trkpt>
      <trkpt lat="45.68149" lon="3.21534">
        <ele>350.8</ele>
        <time>2024-05-19T08:23:25Z</time>
      </trkpt>
      <trkpt lat="45.68146" lon="3.21541">
        <ele>350.8</ele>
        <time>2024-05-19T08:23:26Z</time>
      </trkpt>
      <trkpt lat="45.68143" lon="3.21549">
        <ele>350.8</ele>
        <time>2024-05-19T08:23:27Z</time>
      </trkpt>
      <trkpt lat="45.6814" lon="3.21557">
        <ele>350.6</ele>
        <time>2024-05-19T08:23:28Z</time>
      </trkpt>
      <trkpt lat="45.68136" lon="3.21564">
        <ele>350.6</ele>
        <time>2024-05-19T08:23:29Z</time>
      </trkpt>
      <trkpt lat="45.68133" lon="3.21571">
        <ele>350.6</ele>
        <time>2024-05-19T08:23:30Z</time>
      </trkpt>
      <trkpt lat="45.6813" lon="3.21578">
        <ele>350.6</ele>
        <time>2024-05-19T08:23:31Z</time>
      </trkpt>
      <trkpt lat="45.68127" lon="3.21585">
        <ele>350.4</ele>
        <time>2024-05-19T08:23:32Z</time>
      </trkpt>
      <trkpt lat="45.68124" lon="3.21592">
        <ele>350.4</ele>
        <time>2024-05-19T08:23:33Z</time>
      </trkpt>
      <trkpt lat="45.68122" lon="3.21598">
        <ele>350.4</ele>
        <time>2024-05-19T08:23:34Z</time>
      </trkpt>
      <trkpt lat="45.68119" lon="3.21605">
        <ele>350.4</ele>
        <time>2024-05-19T08:23:35Z</time>
      </trkpt>
      <trkpt lat="45.68116" lon="3.21612">
        <ele>350.2</ele>
        <time>2024-05-19T08:23:36Z</time>
      </trkpt>
      <trkpt lat="45.68113" lon="3.21619">
        <ele>350.2</ele>
        <time>2024-05-19T08:23:37Z</time>
      </trkpt>
      <trkpt lat="45.6811" lon="3.21625">
        <ele>350.2</ele>
        <time>2024-05-19T08:23:38Z</time>
      </trkpt>
      <trkpt lat="45.68107" lon="3.21632">
        <ele>350.2</ele>
        <time>2024-05-19T08:23:39Z</time>
      </trkpt>
      <trkpt lat="45.68104" lon="3.21638">
        <ele>350.2</ele>
        <time>2024-05-19T08:23:40Z</time>
      </trkpt>
      <trkpt lat="45.68102" lon="3.21645">
        <ele>350.2</ele>
        <time>2024-05-19T08:23:41Z</time>
      </trkpt>
      <trkpt lat="45.68099" lon="3.21651">
        <ele>350</ele>
        <time>2024-05-19T08:23:42Z</time>
      </trkpt>
      <trkpt lat="45.68096" lon="3.21657">
        <ele>350.2</ele>
        <time>2024-05-19T08:23:43Z</time>
      </trkpt>
      <trkpt lat="45.68094" lon="3.21663">
        <ele>350.2</ele>
        <time>2024-05-19T08:23:44Z</time>
      </trkpt>
      <trkpt lat="45.68091" lon="3.21668">
        <ele>350.2</ele>
        <time>2024-05-19T08:23:45Z</time>
      </trkpt>
      <trkpt lat="45.68089" lon="3.21674">
        <ele>350.2</ele>
        <time>2024-05-19T08:23:46Z</time>
      </trkpt>
      <trkpt lat="45.68087" lon="3.21679">
        <ele>350.2</ele>
        <time>2024-05-19T08:23:47Z</time>
      </trkpt>
      <trkpt lat="45.68084" lon="3.21685">
        <ele>350.2</ele>
        <time>2024-05-19T08:23:48Z</time>
      </trkpt>
      <trkpt lat="45.68081" lon="3.2169">
        <ele>350.2</ele>
        <time>2024-05-19T08:23:49Z</time>
      </trkpt>
      <trkpt lat="45.68078" lon="3.21695">
        <ele>350.2</ele>
        <time>2024-05-19T08:23:50Z</time>
      </trkpt>
      <trkpt lat="45.68076" lon="3.217">
        <ele>350.4</ele>
        <time>2024-05-19T08:23:51Z</time>
      </trkpt>
      <trkpt lat="45.68073" lon="3.21705">
        <ele>350.2</ele>
        <time>2024-05-19T08:23:52Z</time>
      </trkpt>
      <trkpt lat="45.68071" lon="3.2171">
        <ele>350.8</ele>
        <time>2024-05-19T08:23:53Z</time>
      </trkpt>
      <trkpt lat="45.68068" lon="3.21715">
        <ele>350.8</ele>
        <time>2024-05-19T08:23:54Z</time>
      </trkpt>
      <trkpt lat="45.68064" lon="3.21719">
        <ele>350.6</ele>
        <time>2024-05-19T08:23:55Z</time>
      </trkpt>
      <trkpt lat="45.68061" lon="3.21722">
        <ele>350.6</ele>
        <time>2024-05-19T08:23:56Z</time>
      </trkpt>
      <trkpt lat="45.68057" lon="3.21725">
        <ele>350.8</ele>
        <time>2024-05-19T08:23:57Z</time>
      </trkpt>
      <trkpt lat="45.68054" lon="3.21729">
        <ele>350.8</ele>
        <time>2024-05-19T08:23:58Z</time>
      </trkpt>
      <trkpt lat="45.6805" lon="3.21732">
        <ele>350.8</ele>
        <time>2024-05-19T08:23:59Z</time>
      </trkpt>
      <trkpt lat="45.68047" lon="3.21735">
        <ele>351</ele>
        <time>2024-05-19T08:24:00Z</time>
      </trkpt>
      <trkpt lat="45.68044" lon="3.21738">
        <ele>351</ele>
        <time>2024-05-19T08:24:01Z</time>
      </trkpt>
      <trkpt lat="45.68041" lon="3.21742">
        <ele>351.2</ele>
        <time>2024-05-19T08:24:02Z</time>
      </trkpt>
      <trkpt lat="45.68037" lon="3.21745">
        <ele>351.2</ele>
        <time>2024-05-19T08:24:03Z</time>
      </trkpt>
      <trkpt lat="45.68034" lon="3.21748">
        <ele>351.2</ele>
        <time>2024-05-19T08:24:04Z</time>
      </trkpt>
      <trkpt lat="45.6803" lon="3.21751">
        <ele>351.2</ele>
        <time>2024-05-19T08:24:05Z</time>
      </trkpt>
      <trkpt lat="45.68027" lon="3.21754">
        <ele>351.4</ele>
        <time>2024-05-19T08:24:06Z</time>
      </trkpt>
      <trkpt lat="45.68024" lon="3.21757">
        <ele>351.4</ele>
        <time>2024-05-19T08:24:07Z</time>
      </trkpt>
      <trkpt lat="45.68021" lon="3.2176">
        <ele>351.4</ele>
        <time>2024-05-19T08:24:08Z</time>
      </trkpt>
      <trkpt lat="45.68018" lon="3.21763">
        <ele>351.6</ele>
        <time>2024-05-19T08:24:09Z</time>
      </trkpt>
      <trkpt lat="45.68016" lon="3.21766">
        <ele>351.6</ele>
        <time>2024-05-19T08:24:10Z</time>
      </trkpt>
      <trkpt lat="45.68013" lon="3.21768">
        <ele>351.6</ele>
        <time>2024-05-19T08:24:11Z</time>
      </trkpt>
      <trkpt lat="45.6801" lon="3.21771">
        <ele>351.8</ele>
        <time>2024-05-19T08:24:12Z</time>
      </trkpt>
      <trkpt lat="45.68008" lon="3.21774">
        <ele>351.8</ele>
        <time>2024-05-19T08:24:13Z</time>
      </trkpt>
      <trkpt lat="45.68005" lon="3.21776">
        <ele>352</ele>
        <time>2024-05-19T08:24:14Z</time>
      </trkpt>
      <trkpt lat="45.68002" lon="3.21779">
        <ele>352</ele>
        <time>2024-05-19T08:24:15Z</time>
      </trkpt>
      <trkpt lat="45.68" lon="3.21781">
        <ele>352.2</ele>
        <time>2024-05-19T08:24:16Z</time>
      </trkpt>
      <trkpt lat="45.67997" lon="3.21784">
        <ele>352.2</ele>
        <time>2024-05-19T08:24:17Z</time>
      </trkpt>
      <trkpt lat="45.67994" lon="3.21786">
        <ele>352.2</ele>
        <time>2024-05-19T08:24:18Z</time>
      </trkpt>
      <trkpt lat="45.67992" lon="3.2179">
        <ele>352.4</ele>
        <time>2024-05-19T08:24:19Z</time>
      </trkpt>
      <trkpt lat="45.6799" lon="3.21794">
        <ele>352.4</ele>
        <time>2024-05-19T08:24:20Z</time>
      </trkpt>
      <trkpt lat="45.67989" lon="3.21799">
        <ele>352.4</ele>
        <time>2024-05-19T08:24:21Z</time>
      </trkpt>
      <trkpt lat="45.67987" lon="3.21802">
        <ele>352.6</ele>
        <time>2024-05-19T08:24:22Z</time>
      </trkpt>
      <trkpt lat="45.67986" lon="3.21806">
        <ele>352.6</ele>
        <time>2024-05-19T08:24:23Z</time>
      </trkpt>
      <trkpt lat="45.67984" lon="3.2181">
        <ele>352.6</ele>
        <time>2024-05-19T08:24:24Z</time>
      </trkpt>
      <trkpt lat="45.67983" lon="3.21814">
        <ele>352.8</ele>
        <time>2024-05-19T08:24:25Z</time>
      </trkpt>
      <trkpt lat="45.67981" lon="3.21818">
        <ele>352.8</ele>
        <time>2024-05-19T08:24:26Z</time>
      </trkpt>
      <trkpt lat="45.6798" lon="3.21822">
        <ele>352.8</ele>
        <time>2024-05-19T08:24:27Z</time>
      </trkpt>
      <trkpt lat="45.67978" lon="3.21826">
        <ele>352.8</ele>
        <time>2024-05-19T08:24:28Z</time>
      </trkpt>
      <trkpt lat="45.67977" lon="3.2183">
        <ele>353</ele>
        <time>2024-05-19T08:24:29Z</time>
      </trkpt>
      <trkpt lat="45.67975" lon="3.21834">
        <ele>353</ele>
        <time>2024-05-19T08:24:30Z</time>
      </trkpt>
      <trkpt lat="45.67975" lon="3.21839">
        <ele>353</ele>
        <time>2024-05-19T08:24:31Z</time>
      </trkpt>
      <trkpt lat="45.67974" lon="3.21843">
        <ele>353</ele>
        <time>2024-05-19T08:24:32Z</time>
      </trkpt>
      <trkpt lat="45.67973" lon="3.21847">
        <ele>353.2</ele>
        <time>2024-05-19T08:24:33Z</time>
      </trkpt>
      <trkpt lat="45.67972" lon="3.21851">
        <ele>353.2</ele>
        <time>2024-05-19T08:24:34Z</time>
      </trkpt>
      <trkpt lat="45.67971" lon="3.21855">
        <ele>353.2</ele>
        <time>2024-05-19T08:24:35Z</time>
      </trkpt>
      <trkpt lat="45.6797" lon="3.2186">
        <ele>353.2</ele>
        <time>2024-05-19T08:24:36Z</time>
      </trkpt>
      <trkpt lat="45.6797" lon="3.21864">
        <ele>353.4</ele>
        <time>2024-05-19T08:24:37Z</time>
      </trkpt>
      <trkpt lat="45.67969" lon="3.21868">
        <ele>353.4</ele>
        <time>2024-05-19T08:24:38Z</time>
      </trkpt>
      <trkpt lat="45.67968" lon="3.21872">
        <ele>353.6</ele>
        <time>2024-05-19T08:24:39Z</time>
      </trkpt>
      <trkpt lat="45.67967" lon="3.21876">
        <ele>353.6</ele>
        <time>2024-05-19T08:24:40Z</time>
      </trkpt>
      <trkpt lat="45.67966" lon="3.2188">
        <ele>353.8</ele>
        <time>2024-05-19T08:24:41Z</time>
      </trkpt>
      <trkpt lat="45.67965" lon="3.21884">
        <ele>353.8</ele>
        <time>2024-05-19T08:24:42Z</time>
      </trkpt>
      <trkpt lat="45.67965" lon="3.21888">
        <ele>354</ele>
        <time>2024-05-19T08:24:43Z</time>
      </trkpt>
      <trkpt lat="45.67964" lon="3.21892">
        <ele>354</ele>
        <time>2024-05-19T08:24:44Z</time>
      </trkpt>
      <trkpt lat="45.67963" lon="3.21896">
        <ele>354.2</ele>
        <time>2024-05-19T08:24:45Z</time>
      </trkpt>
      <trkpt lat="45.67962" lon="3.219">
        <ele>354.2</ele>
        <time>2024-05-19T08:24:46Z</time>
      </trkpt>
      <trkpt lat="45.67962" lon="3.21904">
        <ele>354.2</ele>
        <time>2024-05-19T08:24:47Z</time>
      </trkpt>
      <trkpt lat="45.67961" lon="3.21908">
        <ele>354.4</ele>
        <time>2024-05-19T08:24:48Z</time>
      </trkpt>
      <trkpt lat="45.67959" lon="3.21911">
        <ele>354.4</ele>
        <time>2024-05-19T08:24:49Z</time>
      </trkpt>
      <trkpt lat="45.67957" lon="3.21914">
        <ele>354.6</ele>
        <time>2024-05-19T08:24:50Z</time>
      </trkpt>
      <trkpt lat="45.67955" lon="3.21918">
        <ele>354.6</ele>
        <time>2024-05-19T08:24:51Z</time>
      </trkpt>
      <trkpt lat="45.67954" lon="3.21921">
        <ele>354.8</ele>
        <time>2024-05-19T08:24:52Z</time>
      </trkpt>
      <trkpt lat="45.67952" lon="3.21924">
        <ele>354.8</ele>
        <time>2024-05-19T08:24:53Z</time>
      </trkpt>
      <trkpt lat="45.6795" lon="3.21927">
        <ele>354.8</ele>
        <time>2024-05-19T08:24:54Z</time>
      </trkpt>
      <trkpt lat="45.67949" lon="3.2193">
        <ele>355</ele>
        <time>2024-05-19T08:24:55Z</time>
      </trkpt>
      <trkpt lat="45.67947" lon="3.21933">
        <ele>355</ele>
        <time>2024-05-19T08:24:56Z</time>
      </trkpt>
      <trkpt lat="45.67945" lon="3.21936">
        <ele>355.2</ele>
        <time>2024-05-19T08:24:57Z</time>
      </trkpt>
      <trkpt lat="45.67943" lon="3.21939">
        <ele>355.2</ele>
        <time>2024-05-19T08:24:58Z</time>
      </trkpt>
      <trkpt lat="45.67942" lon="3.21942">
        <ele>355.2</ele>
        <time>2024-05-19T08:24:59Z</time>
      </trkpt>
      <trkpt lat="45.6794" lon="3.21945">
        <ele>355.4</ele>
        <time>2024-05-19T08:25:00Z</time>
      </trkpt>
      <trkpt lat="45.67938" lon="3.21948">
        <ele>355.4</ele>
        <time>2024-05-19T08:25:01Z</time>
      </trkpt>
      <trkpt lat="45.67937" lon="3.21951">
        <ele>355.6</ele>
        <time>2024-05-19T08:25:02Z</time>
      </trkpt>
      <trkpt lat="45.67935" lon="3.21955">
        <ele>355.6</ele>
        <time>2024-05-19T08:25:03Z</time>
      </trkpt>
      <trkpt lat="45.67933" lon="3.21958">
        <ele>355.8</ele>
        <time>2024-05-19T08:25:04Z</time>
      </trkpt>
      <trkpt lat="45.67931" lon="3.21961">
        <ele>356</ele>
        <time>2024-05-19T08:25:05Z</time>
      </trkpt>
      <trkpt lat="45.67929" lon="3.21965">
        <ele>356</ele>
        <time>2024-05-19T08:25:06Z</time>
      </trkpt>
      <trkpt lat="45.67928" lon="3.21968">
        <ele>356</ele>
        <time>2024-05-19T08:25:07Z</time>
      </trkpt>
      <trkpt lat="45.67926" lon="3.21972">
        <ele>356.2</ele>
        <time>2024-05-19T08:25:08Z</time>
      </trkpt>
      <trkpt lat="45.67925" lon="3.21975">
        <ele>356.2</ele>
        <time>2024-05-19T08:25:09Z</time>
      </trkpt>
      <trkpt lat="45.67923" lon="3.21979">
        <ele>356.4</ele>
        <time>2024-05-19T08:25:10Z</time>
      </trkpt>
      <trkpt lat="45.67922" lon="3.21983">
        <ele>356.4</ele>
        <time>2024-05-19T08:25:11Z</time>
      </trkpt>
      <trkpt lat="45.6792" lon="3.21986">
        <ele>356.4</ele>
        <time>2024-05-19T08:25:12Z</time>
      </trkpt>
      <trkpt lat="45.67919" lon="3.2199">
        <ele>356.4</ele>
        <time>2024-05-19T08:25:13Z</time>
      </trkpt>
      <trkpt lat="45.67917" lon="3.21993">
        <ele>356.6</ele>
        <time>2024-05-19T08:25:14Z</time>
      </trkpt>
      <trkpt lat="45.67916" lon="3.21997">
        <ele>356.6</ele>
        <time>2024-05-19T08:25:15Z</time>
      </trkpt>
      <trkpt lat="45.67914" lon="3.22001">
        <ele>356.8</ele>
        <time>2024-05-19T08:25:16Z</time>
      </trkpt>
      <trkpt lat="45.67913" lon="3.22004">
        <ele>357</ele>
        <time>2024-05-19T08:25:17Z</time>
      </trkpt>
      <trkpt lat="45.67911" lon="3.22008">
        <ele>357</ele>
        <time>2024-05-19T08:25:18Z</time>
      </trkpt>
      <trkpt lat="45.6791" lon="3.22011">
        <ele>357</ele>
        <time>2024-05-19T08:25:19Z</time>
      </trkpt>
      <trkpt lat="45.67908" lon="3.22015">
        <ele>357.2</ele>
        <time>2024-05-19T08:25:20Z</time>
      </trkpt>
      <trkpt lat="45.67907" lon="3.22019">
        <ele>357.2</ele>
        <time>2024-05-19T08:25:21Z</time>
      </trkpt>
      <trkpt lat="45.67905" lon="3.22022">
        <ele>357.4</ele>
        <time>2024-05-19T08:25:22Z</time>
      </trkpt>
      <trkpt lat="45.67904" lon="3.22026">
        <ele>357.4</ele>
        <time>2024-05-19T08:25:23Z</time>
      </trkpt>
      <trkpt lat="45.67902" lon="3.22029">
        <ele>357.6</ele>
        <time>2024-05-19T08:25:24Z</time>
      </trkpt>
      <trkpt lat="45.67899" lon="3.22032">
        <ele>357.8</ele>
        <time>2024-05-19T08:25:25Z</time>
      </trkpt>
      <trkpt lat="45.67897" lon="3.22035">
        <ele>357.8</ele>
        <time>2024-05-19T08:25:26Z</time>
      </trkpt>
      <trkpt lat="45.67895" lon="3.22038">
        <ele>358</ele>
        <time>2024-05-19T08:25:27Z</time>
      </trkpt>
      <trkpt lat="45.67892" lon="3.2204">
        <ele>358.2</ele>
        <time>2024-05-19T08:25:28Z</time>
      </trkpt>
      <trkpt lat="45.6789" lon="3.22043">
        <ele>358.4</ele>
        <time>2024-05-19T08:25:29Z</time>
      </trkpt>
      <trkpt lat="45.67887" lon="3.22046">
        <ele>358.6</ele>
        <time>2024-05-19T08:25:30Z</time>
      </trkpt>
      <trkpt lat="45.67885" lon="3.22048">
        <ele>358.8</ele>
        <time>2024-05-19T08:25:31Z</time>
      </trkpt>
      <trkpt lat="45.67883" lon="3.22051">
        <ele>358.8</ele>
        <time>2024-05-19T08:25:32Z</time>
      </trkpt>
      <trkpt lat="45.6788" lon="3.22054">
        <ele>359</ele>
        <time>2024-05-19T08:25:33Z</time>
      </trkpt>
      <trkpt lat="45.67878" lon="3.22056">
        <ele>359.2</ele>
        <time>2024-05-19T08:25:34Z</time>
      </trkpt>
      <trkpt lat="45.67876" lon="3.22059">
        <ele>359.4</ele>
        <time>2024-05-19T08:25:35Z</time>
      </trkpt>
      <trkpt lat="45.67874" lon="3.22061">
        <ele>359.4</ele>
        <time>2024-05-19T08:25:36Z</time>
      </trkpt>
      <trkpt lat="45.67871" lon="3.22064">
        <ele>359.6</ele>
        <time>2024-05-19T08:25:37Z</time>
      </trkpt>
      <trkpt lat="45.67869" lon="3.22067">
        <ele>359.8</ele>
        <time>2024-05-19T08:25:38Z</time>
      </trkpt>
      <trkpt lat="45.67866" lon="3.2207">
        <ele>360</ele>
        <time>2024-05-19T08:25:39Z</time>
      </trkpt>
      <trkpt lat="45.67864" lon="3.22073">
        <ele>360</ele>
        <time>2024-05-19T08:25:40Z</time>
      </trkpt>
      <trkpt lat="45.67861" lon="3.22076">
        <ele>360.4</ele>
        <time>2024-05-19T08:25:41Z</time>
      </trkpt>
      <trkpt lat="45.67859" lon="3.22079">
        <ele>360.4</ele>
        <time>2024-05-19T08:25:42Z</time>
      </trkpt>
      <trkpt lat="45.67856" lon="3.22081">
        <ele>360.6</ele>
        <time>2024-05-19T08:25:43Z</time>
      </trkpt>
      <trkpt lat="45.67854" lon="3.22084">
        <ele>360.8</ele>
        <time>2024-05-19T08:25:44Z</time>
      </trkpt>
      <trkpt lat="45.67851" lon="3.22087">
        <ele>361</ele>
        <time>2024-05-19T08:25:45Z</time>
      </trkpt>
      <trkpt lat="45.67849" lon="3.2209">
        <ele>361.2</ele>
        <time>2024-05-19T08:25:46Z</time>
      </trkpt>
      <trkpt lat="45.67846" lon="3.22093">
        <ele>361.4</ele>
        <time>2024-05-19T08:25:47Z</time>
      </trkpt>
      <trkpt lat="45.67844" lon="3.22096">
        <ele>361.6</ele>
        <time>2024-05-19T08:25:48Z</time>
      </trkpt>
      <trkpt lat="45.67842" lon="3.221">
        <ele>361.8</ele>
        <time>2024-05-19T08:25:49Z</time>
      </trkpt>
      <trkpt lat="45.6784" lon="3.22103">
        <ele>361.8</ele>
        <time>2024-05-19T08:25:50Z</time>
      </trkpt>
      <trkpt lat="45.67838" lon="3.22107">
        <ele>362</ele>
        <time>2024-05-19T08:25:51Z</time>
      </trkpt>
      <trkpt lat="45.67837" lon="3.22111">
        <ele>362.2</ele>
        <time>2024-05-19T08:25:52Z</time>
      </trkpt>
      <trkpt lat="45.67835" lon="3.22115">
        <ele>362.2</ele>
        <time>2024-05-19T08:25:53Z</time>
      </trkpt>
      <trkpt lat="45.67834" lon="3.22118">
        <ele>362.4</ele>
        <time>2024-05-19T08:25:54Z</time>
      </trkpt>
      <trkpt lat="45.67833" lon="3.22122">
        <ele>362.6</ele>
        <time>2024-05-19T08:25:55Z</time>
      </trkpt>
      <trkpt lat="45.67831" lon="3.22126">
        <ele>362.6</ele>
        <time>2024-05-19T08:25:56Z</time>
      </trkpt>
      <trkpt lat="45.67829" lon="3.22129">
        <ele>362.8</ele>
        <time>2024-05-19T08:25:57Z</time>
      </trkpt>
      <trkpt lat="45.67828" lon="3.22134">
        <ele>363</ele>
        <time>2024-05-19T08:25:58Z</time>
      </trkpt>
      <trkpt lat="45.67826" lon="3.22137">
        <ele>363</ele>
        <time>2024-05-19T08:25:59Z</time>
      </trkpt>
      <trkpt lat="45.67825" lon="3.22141">
        <ele>363.2</ele>
        <time>2024-05-19T08:26:00Z</time>
      </trkpt>
      <trkpt lat="45.67822" lon="3.22146">
        <ele>363.2</ele>
        <time>2024-05-19T08:26:01Z</time>
      </trkpt>
      <trkpt lat="45.6782" lon="3.22149">
        <ele>363.4</ele>
        <time>2024-05-19T08:26:02Z</time>
      </trkpt>
      <trkpt lat="45.67818" lon="3.22152">
        <ele>363.6</ele>
        <time>2024-05-19T08:26:03Z</time>
      </trkpt>
      <trkpt lat="45.67816" lon="3.22155">
        <ele>363.6</ele>
        <time>2024-05-19T08:26:04Z</time>
      </trkpt>
      <trkpt lat="45.67813" lon="3.22157">
        <ele>364</ele>
        <time>2024-05-19T08:26:05Z</time>
      </trkpt>
      <trkpt lat="45.67811" lon="3.2216">
        <ele>364</ele>
        <time>2024-05-19T08:26:06Z</time>
      </trkpt>
      <trkpt lat="45.67808" lon="3.22163">
        <ele>364.2</ele>
        <time>2024-05-19T08:26:07Z</time>
      </trkpt>
      <trkpt lat="45.67806" lon="3.22165">
        <ele>364.4</ele>
        <time>2024-05-19T08:26:08Z</time>
      </trkpt>
      <trkpt lat="45.67803" lon="3.22167">
        <ele>364.6</ele>
        <time>2024-05-19T08:26:09Z</time>
      </trkpt>
      <trkpt lat="45.67799" lon="3.22169">
        <ele>364.8</ele>
        <time>2024-05-19T08:26:10Z</time>
      </trkpt>
      <trkpt lat="45.67796" lon="3.22172">
        <ele>365</ele>
        <time>2024-05-19T08:26:11Z</time>
      </trkpt>
      <trkpt lat="45.67794" lon="3.22174">
        <ele>365.2</ele>
        <time>2024-05-19T08:26:12Z</time>
      </trkpt>
      <trkpt lat="45.67791" lon="3.22176">
        <ele>365.4</ele>
        <time>2024-05-19T08:26:13Z</time>
      </trkpt>
      <trkpt lat="45.67788" lon="3.22178">
        <ele>365.6</ele>
        <time>2024-05-19T08:26:14Z</time>
      </trkpt>
      <trkpt lat="45.67785" lon="3.2218">
        <ele>365.8</ele>
        <time>2024-05-19T08:26:15Z</time>
      </trkpt>
      <trkpt lat="45.67782" lon="3.22182">
        <ele>366</ele>
        <time>2024-05-19T08:26:16Z</time>
      </trkpt>
      <trkpt lat="45.67779" lon="3.22184">
        <ele>366.4</ele>
        <time>2024-05-19T08:26:17Z</time>
      </trkpt>
      <trkpt lat="45.67776" lon="3.22186">
        <ele>366.6</ele>
        <time>2024-05-19T08:26:18Z</time>
      </trkpt>
      <trkpt lat="45.67773" lon="3.22189">
        <ele>366.8</ele>
        <time>2024-05-19T08:26:19Z</time>
      </trkpt>
      <trkpt lat="45.6777" lon="3.22191">
        <ele>367</ele>
        <time>2024-05-19T08:26:20Z</time>
      </trkpt>
      <trkpt lat="45.67768" lon="3.22194">
        <ele>367.2</ele>
        <time>2024-05-19T08:26:21Z</time>
      </trkpt>
      <trkpt lat="45.67765" lon="3.22196">
        <ele>367.4</ele>
        <time>2024-05-19T08:26:22Z</time>
      </trkpt>
      <trkpt lat="45.67763" lon="3.222">
        <ele>367.6</ele>
        <time>2024-05-19T08:26:23Z</time>
      </trkpt>
      <trkpt lat="45.6776" lon="3.22203">
        <ele>367.8</ele>
        <time>2024-05-19T08:26:24Z</time>
      </trkpt>
      <trkpt lat="45.67757" lon="3.22206">
        <ele>368</ele>
        <time>2024-05-19T08:26:25Z</time>
      </trkpt>
      <trkpt lat="45.67754" lon="3.2221">
        <ele>368.2</ele>
        <time>2024-05-19T08:26:26Z</time>
      </trkpt>
      <trkpt lat="45.67752" lon="3.22213">
        <ele>368.2</ele>
        <time>2024-05-19T08:26:27Z</time>
      </trkpt>
      <trkpt lat="45.67749" lon="3.22216">
        <ele>368.6</ele>
        <time>2024-05-19T08:26:28Z</time>
      </trkpt>
      <trkpt lat="45.67746" lon="3.22219">
        <ele>368.6</ele>
        <time>2024-05-19T08:26:29Z</time>
      </trkpt>
      <trkpt lat="45.67744" lon="3.22223">
        <ele>368.8</ele>
        <time>2024-05-19T08:26:30Z</time>
      </trkpt>
      <trkpt lat="45.67743" lon="3.22228">
        <ele>369</ele>
        <time>2024-05-19T08:26:31Z</time>
      </trkpt>
      <trkpt lat="45.67741" lon="3.22232">
        <ele>369</ele>
        <time>2024-05-19T08:26:32Z</time>
      </trkpt>
      <trkpt lat="45.67739" lon="3.22236">
        <ele>369.2</ele>
        <time>2024-05-19T08:26:33Z</time>
      </trkpt>
      <trkpt lat="45.67737" lon="3.22241">
        <ele>369.4</ele>
        <time>2024-05-19T08:26:34Z</time>
      </trkpt>
      <trkpt lat="45.67735" lon="3.22245">
        <ele>369.6</ele>
        <time>2024-05-19T08:26:35Z</time>
      </trkpt>
      <trkpt lat="45.67733" lon="3.2225">
        <ele>369.8</ele>
        <time>2024-05-19T08:26:36Z</time>
      </trkpt>
      <trkpt lat="45.67732" lon="3.22254">
        <ele>369.8</ele>
        <time>2024-05-19T08:26:37Z</time>
      </trkpt>
      <trkpt lat="45.6773" lon="3.22259">
        <ele>370</ele>
        <time>2024-05-19T08:26:38Z</time>
      </trkpt>
      <trkpt lat="45.67728" lon="3.22263">
        <ele>370.2</ele>
        <time>2024-05-19T08:26:39Z</time>
      </trkpt>
      <trkpt lat="45.67726" lon="3.22268">
        <ele>370.2</ele>
        <time>2024-05-19T08:26:40Z</time>
      </trkpt>
      <trkpt lat="45.67724" lon="3.22272">
        <ele>370.4</ele>
        <time>2024-05-19T08:26:41Z</time>
      </trkpt>
      <trkpt lat="45.67721" lon="3.22275">
        <ele>370.6</ele>
        <time>2024-05-19T08:26:42Z</time>
      </trkpt>
      <trkpt lat="45.67719" lon="3.22278">
        <ele>370.6</ele>
        <time>2024-05-19T08:26:43Z</time>
      </trkpt>
      <trkpt lat="45.67716" lon="3.22281">
        <ele>370.8</ele>
        <time>2024-05-19T08:26:44Z</time>
      </trkpt>
      <trkpt lat="45.67713" lon="3.22284">
        <ele>371</ele>
        <time>2024-05-19T08:26:45Z</time>
      </trkpt>
      <trkpt lat="45.6771" lon="3.22286">
        <ele>371.2</ele>
        <time>2024-05-19T08:26:46Z</time>
      </trkpt>
      <trkpt lat="45.67706" lon="3.22287">
        <ele>371.4</ele>
        <time>2024-05-19T08:26:47Z</time>
      </trkpt>
      <trkpt lat="45.67703" lon="3.22288">
        <ele>371.6</ele>
        <time>2024-05-19T08:26:48Z</time>
      </trkpt>
      <trkpt lat="45.67699" lon="3.22289">
        <ele>371.8</ele>
        <time>2024-05-19T08:26:49Z</time>
      </trkpt>
      <trkpt lat="45.67695" lon="3.22289">
        <ele>372</ele>
        <time>2024-05-19T08:26:50Z</time>
      </trkpt>
      <trkpt lat="45.67692" lon="3.2229">
        <ele>372.2</ele>
        <time>2024-05-19T08:26:51Z</time>
      </trkpt>
      <trkpt lat="45.67688" lon="3.22291">
        <ele>372.4</ele>
        <time>2024-05-19T08:26:52Z</time>
      </trkpt>
      <trkpt lat="45.67685" lon="3.22292">
        <ele>372.4</ele>
        <time>2024-05-19T08:26:53Z</time>
      </trkpt>
      <trkpt lat="45.67681" lon="3.22293">
        <ele>372.6</ele>
        <time>2024-05-19T08:26:54Z</time>
      </trkpt>
      <trkpt lat="45.67677" lon="3.22294">
        <ele>372.8</ele>
        <time>2024-05-19T08:26:55Z</time>
      </trkpt>
      <trkpt lat="45.67673" lon="3.22295">
        <ele>373</ele>
        <time>2024-05-19T08:26:56Z</time>
      </trkpt>
      <trkpt lat="45.67669" lon="3.22295">
        <ele>373</ele>
        <time>2024-05-19T08:26:57Z</time>
      </trkpt>
      <trkpt lat="45.67665" lon="3.22296">
        <ele>373.2</ele>
        <time>2024-05-19T08:26:58Z</time>
      </trkpt>
      <trkpt lat="45.67661" lon="3.22297">
        <ele>373.4</ele>
        <time>2024-05-19T08:26:59Z</time>
      </trkpt>
      <trkpt lat="45.67656" lon="3.22298">
        <ele>373.6</ele>
        <time>2024-05-19T08:27:00Z</time>
      </trkpt>
      <trkpt lat="45.67652" lon="3.22299">
        <ele>373.6</ele>
        <time>2024-05-19T08:27:01Z</time>
      </trkpt>
      <trkpt lat="45.67648" lon="3.223">
        <ele>373.8</ele>
        <time>2024-05-19T08:27:02Z</time>
      </trkpt>
      <trkpt lat="45.67643" lon="3.22302">
        <ele>374</ele>
        <time>2024-05-19T08:27:03Z</time>
      </trkpt>
      <trkpt lat="45.67638" lon="3.22303">
        <ele>374.2</ele>
        <time>2024-05-19T08:27:04Z</time>
      </trkpt>
      <trkpt lat="45.67633" lon="3.22304">
        <ele>374.2</ele>
        <time>2024-05-19T08:27:05Z</time>
      </trkpt>
      <trkpt lat="45.67628" lon="3.22305">
        <ele>374.4</ele>
        <time>2024-05-19T08:27:06Z</time>
      </trkpt>
      <trkpt lat="45.67622" lon="3.22306">
        <ele>374.4</ele>
        <time>2024-05-19T08:27:07Z</time>
      </trkpt>
      <trkpt lat="45.67616" lon="3.22308">
        <ele>374.6</ele>
        <time>2024-05-19T08:27:08Z</time>
      </trkpt>
      <trkpt lat="45.67611" lon="3.22309">
        <ele>374.6</ele>
        <time>2024-05-19T08:27:09Z</time>
      </trkpt>
      <trkpt lat="45.67606" lon="3.2231">
        <ele>374.8</ele>
        <time>2024-05-19T08:27:10Z</time>
      </trkpt>
      <trkpt lat="45.676" lon="3.22311">
        <ele>374.8</ele>
        <time>2024-05-19T08:27:11Z</time>
      </trkpt>
      <trkpt lat="45.67594" lon="3.22313">
        <ele>375</ele>
        <time>2024-05-19T08:27:12Z</time>
      </trkpt>
      <trkpt lat="45.67588" lon="3.22314">
        <ele>375</ele>
        <time>2024-05-19T08:27:13Z</time>
      </trkpt>
      <trkpt lat="45.67583" lon="3.22315">
        <ele>375.2</ele>
        <time>2024-05-19T08:27:14Z</time>
      </trkpt>
      <trkpt lat="45.67577" lon="3.22317">
        <ele>375.2</ele>
        <time>2024-05-19T08:27:15Z</time>
      </trkpt>
      <trkpt lat="45.67571" lon="3.22318">
        <ele>375.4</ele>
        <time>2024-05-19T08:27:16Z</time>
      </trkpt>
      <trkpt lat="45.67565" lon="3.22319">
        <ele>375.4</ele>
        <time>2024-05-19T08:27:17Z</time>
      </trkpt>
      <trkpt lat="45.67559" lon="3.22321">
        <ele>375.6</ele>
        <time>2024-05-19T08:27:18Z</time>
      </trkpt>
      <trkpt lat="45.67554" lon="3.22322">
        <ele>375.6</ele>
        <time>2024-05-19T08:27:19Z</time>
      </trkpt>
      <trkpt lat="45.67548" lon="3.22323">
        <ele>375.8</ele>
        <time>2024-05-19T08:27:20Z</time>
      </trkpt>
      <trkpt lat="45.67542" lon="3.22326">
        <ele>375.8</ele>
        <time>2024-05-19T08:27:21Z</time>
      </trkpt>
      <trkpt lat="45.67537" lon="3.22329">
        <ele>375.8</ele>
        <time>2024-05-19T08:27:22Z</time>
      </trkpt>
      <trkpt lat="45.67531" lon="3.22332">
        <ele>376</ele>
        <time>2024-05-19T08:27:23Z</time>
      </trkpt>
      <trkpt lat="45.67526" lon="3.22335">
        <ele>376</ele>
        <time>2024-05-19T08:27:24Z</time>
      </trkpt>
      <trkpt lat="45.6752" lon="3.22339">
        <ele>376.2</ele>
        <time>2024-05-19T08:27:25Z</time>
      </trkpt>
      <trkpt lat="45.67515" lon="3.22342">
        <ele>376.2</ele>
        <time>2024-05-19T08:27:26Z</time>
      </trkpt>
      <trkpt lat="45.6751" lon="3.22345">
        <ele>376.4</ele>
        <time>2024-05-19T08:27:27Z</time>
      </trkpt>
      <trkpt lat="45.67505" lon="3.22349">
        <ele>376.4</ele>
        <time>2024-05-19T08:27:28Z</time>
      </trkpt>
      <trkpt lat="45.675" lon="3.22353">
        <ele>376.4</ele>
        <time>2024-05-19T08:27:29Z</time>
      </trkpt>
      <trkpt lat="45.67495" lon="3.22357">
        <ele>376.6</ele>
        <time>2024-05-19T08:27:30Z</time>
      </trkpt>
      <trkpt lat="45.6749" lon="3.2236">
        <ele>376.6</ele>
        <time>2024-05-19T08:27:31Z</time>
      </trkpt>
      <trkpt lat="45.67485" lon="3.22363">
        <ele>376.8</ele>
        <time>2024-05-19T08:27:32Z</time>
      </trkpt>
      <trkpt lat="45.6748" lon="3.22363">
        <ele>376.8</ele>
        <time>2024-05-19T08:27:33Z</time>
      </trkpt>
      <trkpt lat="45.67475" lon="3.22363">
        <ele>377</ele>
        <time>2024-05-19T08:27:34Z</time>
      </trkpt>
      <trkpt lat="45.6747" lon="3.22363">
        <ele>377</ele>
        <time>2024-05-19T08:27:35Z</time>
      </trkpt>
      <trkpt lat="45.67465" lon="3.22363">
        <ele>377.2</ele>
        <time>2024-05-19T08:27:36Z</time>
      </trkpt>
      <trkpt lat="45.67459" lon="3.22363">
        <ele>377.4</ele>
        <time>2024-05-19T08:27:37Z</time>
      </trkpt>
      <trkpt lat="45.67454" lon="3.22363">
        <ele>377.4</ele>
        <time>2024-05-19T08:27:38Z</time>
      </trkpt>
      <trkpt lat="45.67449" lon="3.22363">
        <ele>377.6</ele>
        <time>2024-05-19T08:27:39Z</time>
      </trkpt>
      <trkpt lat="45.67444" lon="3.22363">
        <ele>377.6</ele>
        <time>2024-05-19T08:27:40Z</time>
      </trkpt>
      <trkpt lat="45.67439" lon="3.22363">
        <ele>377.8</ele>
        <time>2024-05-19T08:27:41Z</time>
      </trkpt>
      <trkpt lat="45.67434" lon="3.22363">
        <ele>378</ele>
        <time>2024-05-19T08:27:42Z</time>
      </trkpt>
      <trkpt lat="45.67429" lon="3.22363">
        <ele>378</ele>
        <time>2024-05-19T08:27:43Z</time>
      </trkpt>
      <trkpt lat="45.67423" lon="3.22363">
        <ele>378.2</ele>
        <time>2024-05-19T08:27:44Z</time>
      </trkpt>
      <trkpt lat="45.67418" lon="3.22363">
        <ele>378.2</ele>
        <time>2024-05-19T08:27:45Z</time>
      </trkpt>
      <trkpt lat="45.67413" lon="3.22363">
        <ele>378.4</ele>
        <time>2024-05-19T08:27:46Z</time>
      </trkpt>
      <trkpt lat="45.67408" lon="3.22363">
        <ele>378.6</ele>
        <time>2024-05-19T08:27:47Z</time>
      </trkpt>
      <trkpt lat="45.67402" lon="3.22363">
        <ele>378.6</ele>
        <time>2024-05-19T08:27:48Z</time>
      </trkpt>
      <trkpt lat="45.67397" lon="3.22363">
        <ele>378.8</ele>
        <time>2024-05-19T08:27:49Z</time>
      </trkpt>
      <trkpt lat="45.67391" lon="3.22363">
        <ele>378.8</ele>
        <time>2024-05-19T08:27:50Z</time>
      </trkpt>
      <trkpt lat="45.67386" lon="3.22365">
        <ele>379</ele>
        <time>2024-05-19T08:27:51Z</time>
      </trkpt>
      <trkpt lat="45.6738" lon="3.22368">
        <ele>379.2</ele>
        <time>2024-05-19T08:27:52Z</time>
      </trkpt>
      <trkpt lat="45.67375" lon="3.22371">
        <ele>379.2</ele>
        <time>2024-05-19T08:27:53Z</time>
      </trkpt>
      <trkpt lat="45.6737" lon="3.22374">
        <ele>379.4</ele>
        <time>2024-05-19T08:27:54Z</time>
      </trkpt>
      <trkpt lat="45.67364" lon="3.22377">
        <ele>379.4</ele>
        <time>2024-05-19T08:27:55Z</time>
      </trkpt>
      <trkpt lat="45.67358" lon="3.2238">
        <ele>379.4</ele>
        <time>2024-05-19T08:27:56Z</time>
      </trkpt>
      <trkpt lat="45.67352" lon="3.22383">
        <ele>379.6</ele>
        <time>2024-05-19T08:27:57Z</time>
      </trkpt>
      <trkpt lat="45.67345" lon="3.22387">
        <ele>379.4</ele>
        <time>2024-05-19T08:27:58Z</time>
      </trkpt>
      <trkpt lat="45.67339" lon="3.22391">
        <ele>379.4</ele>
        <time>2024-05-19T08:27:59Z</time>
      </trkpt>
      <trkpt lat="45.67331" lon="3.22393">
        <ele>379.6</ele>
        <time>2024-05-19T08:28:00Z</time>
      </trkpt>
      <trkpt lat="45.67324" lon="3.22394">
        <ele>379.6</ele>
        <time>2024-05-19T08:28:01Z</time>
      </trkpt>
      <trkpt lat="45.67316" lon="3.22395">
        <ele>379.6</ele>
        <time>2024-05-19T08:28:02Z</time>
      </trkpt>
      <trkpt lat="45.67308" lon="3.22395">
        <ele>379.4</ele>
        <time>2024-05-19T08:28:03Z</time>
      </trkpt>
      <trkpt lat="45.673" lon="3.22396">
        <ele>379.4</ele>
        <time>2024-05-19T08:28:04Z</time>
      </trkpt>
      <trkpt lat="45.67291" lon="3.22397">
        <ele>379.4</ele>
        <time>2024-05-19T08:28:05Z</time>
      </trkpt>
      <trkpt lat="45.67283" lon="3.22398">
        <ele>379.4</ele>
        <time>2024-05-19T08:28:06Z</time>
      </trkpt>
      <trkpt lat="45.67274" lon="3.22399">
        <ele>379.4</ele>
        <time>2024-05-19T08:28:07Z</time>
      </trkpt>
      <trkpt lat="45.67266" lon="3.22399">
        <ele>379.4</ele>
        <time>2024-05-19T08:28:08Z</time>
      </trkpt>
      <trkpt lat="45.67257" lon="3.224">
        <ele>379.2</ele>
        <time>2024-05-19T08:28:09Z</time>
      </trkpt>
      <trkpt lat="45.67248" lon="3.22401">
        <ele>379.2</ele>
        <time>2024-05-19T08:28:10Z</time>
      </trkpt>
      <trkpt lat="45.67239" lon="3.22401">
        <ele>379.2</ele>
        <time>2024-05-19T08:28:11Z</time>
      </trkpt>
      <trkpt lat="45.67229" lon="3.22401">
        <ele>379.8</ele>
        <time>2024-05-19T08:28:12Z</time>
      </trkpt>
      <trkpt lat="45.6722" lon="3.224">
        <ele>379.2</ele>
        <time>2024-05-19T08:28:13Z</time>
      </trkpt>
      <trkpt lat="45.6721" lon="3.224">
        <ele>378.4</ele>
        <time>2024-05-19T08:28:14Z</time>
      </trkpt>
      <trkpt lat="45.672" lon="3.224">
        <ele>378.6</ele>
        <time>2024-05-19T08:28:15Z</time>
      </trkpt>
      <trkpt lat="45.6719" lon="3.22398">
        <ele>378.6</ele>
        <time>2024-05-19T08:28:16Z</time>
      </trkpt>
      <trkpt lat="45.6718" lon="3.22396">
        <ele>378.4</ele>
        <time>2024-05-19T08:28:17Z</time>
      </trkpt>
      <trkpt lat="45.6717" lon="3.22394">
        <ele>378.2</ele>
        <time>2024-05-19T08:28:18Z</time>
      </trkpt>
      <trkpt lat="45.6716" lon="3.22392">
        <ele>378.2</ele>
        <time>2024-05-19T08:28:19Z</time>
      </trkpt>
      <trkpt lat="45.67149" lon="3.2239">
        <ele>378</ele>
        <time>2024-05-19T08:28:20Z</time>
      </trkpt>
      <trkpt lat="45.67139" lon="3.22388">
        <ele>377.8</ele>
        <time>2024-05-19T08:28:21Z</time>
      </trkpt>
      <trkpt lat="45.67128" lon="3.22385">
        <ele>377.6</ele>
        <time>2024-05-19T08:28:22Z</time>
      </trkpt>
      <trkpt lat="45.67117" lon="3.22383">
        <ele>377.4</ele>
        <time>2024-05-19T08:28:23Z</time>
      </trkpt>
      <trkpt lat="45.67106" lon="3.22381">
        <ele>377.2</ele>
        <time>2024-05-19T08:28:24Z</time>
      </trkpt>
      <trkpt lat="45.67096" lon="3.22379">
        <ele>377</ele>
        <time>2024-05-19T08:28:25Z</time>
      </trkpt>
      <trkpt lat="45.67084" lon="3.22376">
        <ele>376.8</ele>
        <time>2024-05-19T08:28:26Z</time>
      </trkpt>
      <trkpt lat="45.67073" lon="3.22374">
        <ele>376.6</ele>
        <time>2024-05-19T08:28:27Z</time>
      </trkpt>
      <trkpt lat="45.67062" lon="3.22372">
        <ele>376.4</ele>
        <time>2024-05-19T08:28:28Z</time>
      </trkpt>
      <trkpt lat="45.67052" lon="3.22379">
        <ele>376.2</ele>
        <time>2024-05-19T08:28:29Z</time>
      </trkpt>
      <trkpt lat="45.67041" lon="3.22387">
        <ele>375.8</ele>
        <time>2024-05-19T08:28:30Z</time>
      </trkpt>
      <trkpt lat="45.67031" lon="3.22395">
        <ele>375.6</ele>
        <time>2024-05-19T08:28:31Z</time>
      </trkpt>
      <trkpt lat="45.67021" lon="3.22405">
        <ele>375.2</ele>
        <time>2024-05-19T08:28:32Z</time>
      </trkpt>
      <trkpt lat="45.67011" lon="3.22415">
        <ele>375</ele>
        <time>2024-05-19T08:28:33Z</time>
      </trkpt>
      <trkpt lat="45.67001" lon="3.22426">
        <ele>374.6</ele>
        <time>2024-05-19T08:28:34Z</time>
      </trkpt>
      <trkpt lat="45.6699" lon="3.22432">
        <ele>374.4</ele>
        <time>2024-05-19T08:28:35Z</time>
      </trkpt>
      <trkpt lat="45.66978" lon="3.22435">
        <ele>374</ele>
        <time>2024-05-19T08:28:36Z</time>
      </trkpt>
      <trkpt lat="45.66966" lon="3.22432">
        <ele>373.6</ele>
        <time>2024-05-19T08:28:37Z</time>
      </trkpt>
      <trkpt lat="45.66954" lon="3.22429">
        <ele>373.4</ele>
        <time>2024-05-19T08:28:38Z</time>
      </trkpt>
      <trkpt lat="45.66941" lon="3.22425">
        <ele>373</ele>
        <time>2024-05-19T08:28:39Z</time>
      </trkpt>
      <trkpt lat="45.66929" lon="3.22418">
        <ele>372.6</ele>
        <time>2024-05-19T08:28:40Z</time>
      </trkpt>
      <trkpt lat="45.66917" lon="3.22412">
        <ele>372.4</ele>
        <time>2024-05-19T08:28:41Z</time>
      </trkpt>
      <trkpt lat="45.66905" lon="3.22406">
        <ele>372</ele>
        <time>2024-05-19T08:28:42Z</time>
      </trkpt>
      <trkpt lat="45.66893" lon="3.22399">
        <ele>371.6</ele>
        <time>2024-05-19T08:28:43Z</time>
      </trkpt>
      <trkpt lat="45.66881" lon="3.22393">
        <ele>371.2</ele>
        <time>2024-05-19T08:28:44Z</time>
      </trkpt>
      <trkpt lat="45.66869" lon="3.22387">
        <ele>371</ele>
        <time>2024-05-19T08:28:45Z</time>
      </trkpt>
      <trkpt lat="45.66856" lon="3.22382">
        <ele>370.6</ele>
        <time>2024-05-19T08:28:46Z</time>
      </trkpt>
      <trkpt lat="45.66843" lon="3.22381">
        <ele>370.2</ele>
        <time>2024-05-19T08:28:47Z</time>
      </trkpt>
      <trkpt lat="45.66831" lon="3.22379">
        <ele>369.8</ele>
        <time>2024-05-19T08:28:48Z</time>
      </trkpt>
      <trkpt lat="45.66819" lon="3.22378">
        <ele>369.4</ele>
        <time>2024-05-19T08:28:49Z</time>
      </trkpt>
      <trkpt lat="45.66807" lon="3.22376">
        <ele>369.2</ele>
        <time>2024-05-19T08:28:50Z</time>
      </trkpt>
      <trkpt lat="45.66795" lon="3.22375">
        <ele>368.8</ele>
        <time>2024-05-19T08:28:51Z</time>
      </trkpt>
      <trkpt lat="45.66783" lon="3.22373">
        <ele>368.4</ele>
        <time>2024-05-19T08:28:52Z</time>
      </trkpt>
      <trkpt lat="45.66772" lon="3.22372">
        <ele>368</ele>
        <time>2024-05-19T08:28:53Z</time>
      </trkpt>
      <trkpt lat="45.66761" lon="3.22371">
        <ele>367.8</ele>
        <time>2024-05-19T08:28:54Z</time>
      </trkpt>
      <trkpt lat="45.6675" lon="3.22369">
        <ele>367.4</ele>
        <time>2024-05-19T08:28:55Z</time>
      </trkpt>
      <trkpt lat="45.66739" lon="3.22368">
        <ele>367</ele>
        <time>2024-05-19T08:28:56Z</time>
      </trkpt>
      <trkpt lat="45.66728" lon="3.22368">
        <ele>366.6</ele>
        <time>2024-05-19T08:28:57Z</time>
      </trkpt>
      <trkpt lat="45.66718" lon="3.22367">
        <ele>366.2</ele>
        <time>2024-05-19T08:28:58Z</time>
      </trkpt>
      <trkpt lat="45.66707" lon="3.22366">
        <ele>365.8</ele>
        <time>2024-05-19T08:28:59Z</time>
      </trkpt>
      <trkpt lat="45.66697" lon="3.22365">
        <ele>365.4</ele>
        <time>2024-05-19T08:29:00Z</time>
      </trkpt>
      <trkpt lat="45.66687" lon="3.22364">
        <ele>365.2</ele>
        <time>2024-05-19T08:29:01Z</time>
      </trkpt>
      <trkpt lat="45.66677" lon="3.22363">
        <ele>364.8</ele>
        <time>2024-05-19T08:29:02Z</time>
      </trkpt>
      <trkpt lat="45.66667" lon="3.22363">
        <ele>364.4</ele>
        <time>2024-05-19T08:29:03Z</time>
      </trkpt>
      <trkpt lat="45.66657" lon="3.22361">
        <ele>364.2</ele>
        <time>2024-05-19T08:29:04Z</time>
      </trkpt>
      <trkpt lat="45.66647" lon="3.2236">
        <ele>363.8</ele>
        <time>2024-05-19T08:29:05Z</time>
      </trkpt>
      <trkpt lat="45.66637" lon="3.22358">
        <ele>363.6</ele>
        <time>2024-05-19T08:29:06Z</time>
      </trkpt>
      <trkpt lat="45.66628" lon="3.22357">
        <ele>363.2</ele>
        <time>2024-05-19T08:29:07Z</time>
      </trkpt>
      <trkpt lat="45.66618" lon="3.22356">
        <ele>362.8</ele>
        <time>2024-05-19T08:29:08Z</time>
      </trkpt>
      <trkpt lat="45.66609" lon="3.22358">
        <ele>362.6</ele>
        <time>2024-05-19T08:29:09Z</time>
      </trkpt>
      <trkpt lat="45.66599" lon="3.2236">
        <ele>362.2</ele>
        <time>2024-05-19T08:29:10Z</time>
      </trkpt>
      <trkpt lat="45.6659" lon="3.22362">
        <ele>362</ele>
        <time>2024-05-19T08:29:11Z</time>
      </trkpt>
      <trkpt lat="45.6658" lon="3.22364">
        <ele>361.8</ele>
        <time>2024-05-19T08:29:12Z</time>
      </trkpt>
      <trkpt lat="45.66571" lon="3.22366">
        <ele>361.4</ele>
        <time>2024-05-19T08:29:13Z</time>
      </trkpt>
      <trkpt lat="45.66562" lon="3.2237">
        <ele>361.2</ele>
        <time>2024-05-19T08:29:14Z</time>
      </trkpt>
      <trkpt lat="45.66553" lon="3.22373">
        <ele>360.8</ele>
        <time>2024-05-19T08:29:15Z</time>
      </trkpt>
      <trkpt lat="45.66544" lon="3.22377">
        <ele>360.6</ele>
        <time>2024-05-19T08:29:16Z</time>
      </trkpt>
      <trkpt lat="45.66535" lon="3.22383">
        <ele>360.2</ele>
        <time>2024-05-19T08:29:17Z</time>
      </trkpt>
      <trkpt lat="45.66527" lon="3.22389">
        <ele>360</ele>
        <time>2024-05-19T08:29:18Z</time>
      </trkpt>
      <trkpt lat="45.66519" lon="3.22394">
        <ele>359.8</ele>
        <time>2024-05-19T08:29:19Z</time>
      </trkpt>
      <trkpt lat="45.66511" lon="3.224">
        <ele>359.6</ele>
        <time>2024-05-19T08:29:20Z</time>
      </trkpt>
      <trkpt lat="45.66503" lon="3.22406">
        <ele>359.4</ele>
        <time>2024-05-19T08:29:21Z</time>
      </trkpt>
      <trkpt lat="45.66495" lon="3.22411">
        <ele>359.2</ele>
        <time>2024-05-19T08:29:22Z</time>
      </trkpt>
      <trkpt lat="45.66488" lon="3.22416">
        <ele>359</ele>
        <time>2024-05-19T08:29:23Z</time>
      </trkpt>
      <trkpt lat="45.66481" lon="3.22421">
        <ele>358.8</ele>
        <time>2024-05-19T08:29:24Z</time>
      </trkpt>
      <trkpt lat="45.66474" lon="3.22426">
        <ele>358.4</ele>
        <time>2024-05-19T08:29:25Z</time>
      </trkpt>
      <trkpt lat="45.66468" lon="3.22431">
        <ele>358.2</ele>
        <time>2024-05-19T08:29:26Z</time>
      </trkpt>
      <trkpt lat="45.66461" lon="3.22435">
        <ele>358</ele>
        <time>2024-05-19T08:29:27Z</time>
      </trkpt>
      <trkpt lat="45.66455" lon="3.2244">
        <ele>357.8</ele>
        <time>2024-05-19T08:29:28Z</time>
      </trkpt>
      <trkpt lat="45.6645" lon="3.22444">
        <ele>357.8</ele>
        <time>2024-05-19T08:29:29Z</time>
      </trkpt>
      <trkpt lat="45.66444" lon="3.22448">
        <ele>357.6</ele>
        <time>2024-05-19T08:29:30Z</time>
      </trkpt>
      <trkpt lat="45.66439" lon="3.22451">
        <ele>357.4</ele>
        <time>2024-05-19T08:29:31Z</time>
      </trkpt>
      <trkpt lat="45.66433" lon="3.22453">
        <ele>357.4</ele>
        <time>2024-05-19T08:29:32Z</time>
      </trkpt>
      <trkpt lat="45.66427" lon="3.22455">
        <ele>357.2</ele>
        <time>2024-05-19T08:29:33Z</time>
      </trkpt>
      <trkpt lat="45.66421" lon="3.22456">
        <ele>357.2</ele>
        <time>2024-05-19T08:29:34Z</time>
      </trkpt>
      <trkpt lat="45.66416" lon="3.22458">
        <ele>357</ele>
        <time>2024-05-19T08:29:35Z</time>
      </trkpt>
      <trkpt lat="45.6641" lon="3.2246">
        <ele>357</ele>
        <time>2024-05-19T08:29:36Z</time>
      </trkpt>
      <trkpt lat="45.66404" lon="3.22461">
        <ele>356.8</ele>
        <time>2024-05-19T08:29:37Z</time>
      </trkpt>
      <trkpt lat="45.66399" lon="3.22461">
        <ele>356.8</ele>
        <time>2024-05-19T08:29:38Z</time>
      </trkpt>
      <trkpt lat="45.66393" lon="3.2246">
        <ele>356.6</ele>
        <time>2024-05-19T08:29:39Z</time>
      </trkpt>
      <trkpt lat="45.66388" lon="3.2246">
        <ele>356.6</ele>
        <time>2024-05-19T08:29:40Z</time>
      </trkpt>
      <trkpt lat="45.66382" lon="3.22459">
        <ele>356.6</ele>
        <time>2024-05-19T08:29:41Z</time>
      </trkpt>
      <trkpt lat="45.66377" lon="3.22458">
        <ele>356.4</ele>
        <time>2024-05-19T08:29:42Z</time>
      </trkpt>
      <trkpt lat="45.66371" lon="3.22456">
        <ele>356.4</ele>
        <time>2024-05-19T08:29:43Z</time>
      </trkpt>
      <trkpt lat="45.66365" lon="3.22455">
        <ele>356.2</ele>
        <time>2024-05-19T08:29:44Z</time>
      </trkpt>
      <trkpt lat="45.66358" lon="3.22454">
        <ele>356</ele>
        <time>2024-05-19T08:29:45Z</time>
      </trkpt>
      <trkpt lat="45.66352" lon="3.22452">
        <ele>355.8</ele>
        <time>2024-05-19T08:29:46Z</time>
      </trkpt>
      <trkpt lat="45.66345" lon="3.22451">
        <ele>355.6</ele>
        <time>2024-05-19T08:29:47Z</time>
      </trkpt>
      <trkpt lat="45.66339" lon="3.2245">
        <ele>355.6</ele>
        <time>2024-05-19T08:29:48Z</time>
      </trkpt>
      <trkpt lat="45.66333" lon="3.22448">
        <ele>355.4</ele>
        <time>2024-05-19T08:29:49Z</time>
      </trkpt>
      <trkpt lat="45.66326" lon="3.22447">
        <ele>355.4</ele>
        <time>2024-05-19T08:29:50Z</time>
      </trkpt>
      <trkpt lat="45.66319" lon="3.22445">
        <ele>355.2</ele>
        <time>2024-05-19T08:29:51Z</time>
      </trkpt>
      <trkpt lat="45.66313" lon="3.22444">
        <ele>355.2</ele>
        <time>2024-05-19T08:29:52Z</time>
      </trkpt>
      <trkpt lat="45.66307" lon="3.22442">
        <ele>355</ele>
        <time>2024-05-19T08:29:53Z</time>
      </trkpt>
      <trkpt lat="45.663" lon="3.22441">
        <ele>355</ele>
        <time>2024-05-19T08:29:54Z</time>
      </trkpt>
      <trkpt lat="45.66294" lon="3.22439">
        <ele>354.8</ele>
        <time>2024-05-19T08:29:55Z</time>
      </trkpt>
      <trkpt lat="45.66287" lon="3.22438">
        <ele>354.8</ele>
        <time>2024-05-19T08:29:56Z</time>
      </trkpt>
      <trkpt lat="45.66281" lon="3.22436">
        <ele>354.6</ele>
        <time>2024-05-19T08:29:57Z</time>
      </trkpt>
      <trkpt lat="45.66274" lon="3.22435">
        <ele>354.4</ele>
        <time>2024-05-19T08:29:58Z</time>
      </trkpt>
      <trkpt lat="45.66268" lon="3.22433">
        <ele>354.4</ele>
        <time>2024-05-19T08:29:59Z</time>
      </trkpt>
      <trkpt lat="45.66261" lon="3.22432">
        <ele>354.2</ele>
        <time>2024-05-19T08:30:00Z</time>
      </trkpt>
      <trkpt lat="45.66255" lon="3.2243">
        <ele>354.2</ele>
        <time>2024-05-19T08:30:01Z</time>
      </trkpt>
      <trkpt lat="45.66249" lon="3.22429">
        <ele>354.2</ele>
        <time>2024-05-19T08:30:02Z</time>
      </trkpt>
      <trkpt lat="45.66243" lon="3.22428">
        <ele>354</ele>
        <time>2024-05-19T08:30:03Z</time>
      </trkpt>
      <trkpt lat="45.66236" lon="3.22426">
        <ele>354</ele>
        <time>2024-05-19T08:30:04Z</time>
      </trkpt>
      <trkpt lat="45.66229" lon="3.22425">
        <ele>353.8</ele>
        <time>2024-05-19T08:30:05Z</time>
      </trkpt>
      <trkpt lat="45.66222" lon="3.22423">
        <ele>353.8</ele>
        <time>2024-05-19T08:30:06Z</time>
      </trkpt>
      <trkpt lat="45.66217" lon="3.22419">
        <ele>353.6</ele>
        <time>2024-05-19T08:30:07Z</time>
      </trkpt>
      <trkpt lat="45.66211" lon="3.22415">
        <ele>353.6</ele>
        <time>2024-05-19T08:30:08Z</time>
      </trkpt>
      <trkpt lat="45.66205" lon="3.22411">
        <ele>353.4</ele>
        <time>2024-05-19T08:30:09Z</time>
      </trkpt>
      <trkpt lat="45.66199" lon="3.22406">
        <ele>353.4</ele>
        <time>2024-05-19T08:30:10Z</time>
      </trkpt>
      <trkpt lat="45.66194" lon="3.22402">
        <ele>353.4</ele>
        <time>2024-05-19T08:30:11Z</time>
      </trkpt>
      <trkpt lat="45.66188" lon="3.22399">
        <ele>353.2</ele>
        <time>2024-05-19T08:30:12Z</time>
      </trkpt>
      <trkpt lat="45.66183" lon="3.22393">
        <ele>353.2</ele>
        <time>2024-05-19T08:30:13Z</time>
      </trkpt>
      <trkpt lat="45.66178" lon="3.22387">
        <ele>353</ele>
        <time>2024-05-19T08:30:14Z</time>
      </trkpt>
      <trkpt lat="45.66174" lon="3.22381">
        <ele>353</ele>
        <time>2024-05-19T08:30:15Z</time>
      </trkpt>
      <trkpt lat="45.6617" lon="3.22375">
        <ele>353</ele>
        <time>2024-05-19T08:30:16Z</time>
      </trkpt>
      <trkpt lat="45.66165" lon="3.2237">
        <ele>352.8</ele>
        <time>2024-05-19T08:30:17Z</time>
      </trkpt>
      <trkpt lat="45.66161" lon="3.22364">
        <ele>352.8</ele>
        <time>2024-05-19T08:30:18Z</time>
      </trkpt>
      <trkpt lat="45.66157" lon="3.22357">
        <ele>352.8</ele>
        <time>2024-05-19T08:30:19Z</time>
      </trkpt>
      <trkpt lat="45.66154" lon="3.2235">
        <ele>352.8</ele>
        <time>2024-05-19T08:30:20Z</time>
      </trkpt>
      <trkpt lat="45.6615" lon="3.22342">
        <ele>352.6</ele>
        <time>2024-05-19T08:30:21Z</time>
      </trkpt>
      <trkpt lat="45.66147" lon="3.22336">
        <ele>352.6</ele>
        <time>2024-05-19T08:30:22Z</time>
      </trkpt>
      <trkpt lat="45.66145" lon="3.22328">
        <ele>352.6</ele>
        <time>2024-05-19T08:30:23Z</time>
      </trkpt>
      <trkpt lat="45.66143" lon="3.2232">
        <ele>352.6</ele>
        <time>2024-05-19T08:30:24Z</time>
      </trkpt>
      <trkpt lat="45.66141" lon="3.22311">
        <ele>352.4</ele>
        <time>2024-05-19T08:30:25Z</time>
      </trkpt>
      <trkpt lat="45.66139" lon="3.22303">
        <ele>352.4</ele>
        <time>2024-05-19T08:30:26Z</time>
      </trkpt>
      <trkpt lat="45.66137" lon="3.22295">
        <ele>352.4</ele>
        <time>2024-05-19T08:30:27Z</time>
      </trkpt>
      <trkpt lat="45.66135" lon="3.22287">
        <ele>352.2</ele>
        <time>2024-05-19T08:30:28Z</time>
      </trkpt>
      <trkpt lat="45.66133" lon="3.22278">
        <ele>352.2</ele>
        <time>2024-05-19T08:30:29Z</time>
      </trkpt>
      <trkpt lat="45.66131" lon="3.22269">
        <ele>352.2</ele>
        <time>2024-05-19T08:30:30Z</time>
      </trkpt>
      <trkpt lat="45.6613" lon="3.2226">
        <ele>352.2</ele>
        <time>2024-05-19T08:30:31Z</time>
      </trkpt>
      <trkpt lat="45.66129" lon="3.22252">
        <ele>352.2</ele>
        <time>2024-05-19T08:30:32Z</time>
      </trkpt>
      <trkpt lat="45.66128" lon="3.22243">
        <ele>352.2</ele>
        <time>2024-05-19T08:30:33Z</time>
      </trkpt>
      <trkpt lat="45.66127" lon="3.22234">
        <ele>352</ele>
        <time>2024-05-19T08:30:34Z</time>
      </trkpt>
      <trkpt lat="45.66126" lon="3.22226">
        <ele>352</ele>
        <time>2024-05-19T08:30:35Z</time>
      </trkpt>
      <trkpt lat="45.66124" lon="3.22217">
        <ele>352</ele>
        <time>2024-05-19T08:30:36Z</time>
      </trkpt>
      <trkpt lat="45.66123" lon="3.22208">
        <ele>352</ele>
        <time>2024-05-19T08:30:37Z</time>
      </trkpt>
      <trkpt lat="45.66122" lon="3.222">
        <ele>352</ele>
        <time>2024-05-19T08:30:38Z</time>
      </trkpt>
      <trkpt lat="45.66121" lon="3.22192">
        <ele>352</ele>
        <time>2024-05-19T08:30:39Z</time>
      </trkpt>
      <trkpt lat="45.6612" lon="3.22184">
        <ele>351.8</ele>
        <time>2024-05-19T08:30:40Z</time>
      </trkpt>
      <trkpt lat="45.66119" lon="3.22175">
        <ele>351.8</ele>
        <time>2024-05-19T08:30:41Z</time>
      </trkpt>
      <trkpt lat="45.66117" lon="3.22166">
        <ele>351.6</ele>
        <time>2024-05-19T08:30:42Z</time>
      </trkpt>
      <trkpt lat="45.66115" lon="3.22158">
        <ele>351.6</ele>
        <time>2024-05-19T08:30:43Z</time>
      </trkpt>
      <trkpt lat="45.66113" lon="3.22149">
        <ele>351.6</ele>
        <time>2024-05-19T08:30:44Z</time>
      </trkpt>
      <trkpt lat="45.66112" lon="3.2214">
        <ele>351.6</ele>
        <time>2024-05-19T08:30:45Z</time>
      </trkpt>
      <trkpt lat="45.6611" lon="3.22131">
        <ele>351.6</ele>
        <time>2024-05-19T08:30:46Z</time>
      </trkpt>
      <trkpt lat="45.66108" lon="3.22122">
        <ele>351.4</ele>
        <time>2024-05-19T08:30:47Z</time>
      </trkpt>
      <trkpt lat="45.66107" lon="3.22113">
        <ele>351.4</ele>
        <time>2024-05-19T08:30:48Z</time>
      </trkpt>
      <trkpt lat="45.66105" lon="3.22104">
        <ele>351.4</ele>
        <time>2024-05-19T08:30:49Z</time>
      </trkpt>
      <trkpt lat="45.66103" lon="3.22094">
        <ele>351.4</ele>
        <time>2024-05-19T08:30:50Z</time>
      </trkpt>
      <trkpt lat="45.66101" lon="3.22085">
        <ele>351.2</ele>
        <time>2024-05-19T08:30:51Z</time>
      </trkpt>
      <trkpt lat="45.66099" lon="3.22076">
        <ele>351.2</ele>
        <time>2024-05-19T08:30:52Z</time>
      </trkpt>
      <trkpt lat="45.66096" lon="3.22067">
        <ele>351.2</ele>
        <time>2024-05-19T08:30:53Z</time>
      </trkpt>
      <trkpt lat="45.66092" lon="3.22049">
        <ele>351</ele>
        <time>2024-05-19T08:30:54Z</time>
      </trkpt>
      <trkpt lat="45.66092" lon="3.22049">
        <ele>351</ele>
        <time>2024-05-19T08:30:55Z</time>
      </trkpt>
      <trkpt lat="45.6609" lon="3.2204">
        <ele>351</ele>
        <time>2024-05-19T08:30:56Z</time>
      </trkpt>
      <trkpt lat="45.66087" lon="3.22031">
        <ele>351</ele>
        <time>2024-05-19T08:30:57Z</time>
      </trkpt>
      <trkpt lat="45.66085" lon="3.22022">
        <ele>350.8</ele>
        <time>2024-05-19T08:30:58Z</time>
      </trkpt>
      <trkpt lat="45.66081" lon="3.22003">
        <ele>350.8</ele>
        <time>2024-05-19T08:30:59Z</time>
      </trkpt>
      <trkpt lat="45.66081" lon="3.22003">
        <ele>350.8</ele>
        <time>2024-05-19T08:31:00Z</time>
      </trkpt>
      <trkpt lat="45.66079" lon="3.21993">
        <ele>350.6</ele>
        <time>2024-05-19T08:31:01Z</time>
      </trkpt>
      <trkpt lat="45.66078" lon="3.21984">
        <ele>350.6</ele>
        <time>2024-05-19T08:31:02Z</time>
      </trkpt>
      <trkpt lat="45.66078" lon="3.21974">
        <ele>350.6</ele>
        <time>2024-05-19T08:31:03Z</time>
      </trkpt>
      <trkpt lat="45.66077" lon="3.21965">
        <ele>350.6</ele>
        <time>2024-05-19T08:31:04Z</time>
      </trkpt>
      <trkpt lat="45.66077" lon="3.21956">
        <ele>350.6</ele>
        <time>2024-05-19T08:31:05Z</time>
      </trkpt>
      <trkpt lat="45.66077" lon="3.21947">
        <ele>350.6</ele>
        <time>2024-05-19T08:31:06Z</time>
      </trkpt>
      <trkpt lat="45.66076" lon="3.21937">
        <ele>350.6</ele>
        <time>2024-05-19T08:31:07Z</time>
      </trkpt>
      <trkpt lat="45.66076" lon="3.21929">
        <ele>350.4</ele>
        <time>2024-05-19T08:31:08Z</time>
      </trkpt>
      <trkpt lat="45.66075" lon="3.2192">
        <ele>350.4</ele>
        <time>2024-05-19T08:31:09Z</time>
      </trkpt>
      <trkpt lat="45.66075" lon="3.21911">
        <ele>350.4</ele>
        <time>2024-05-19T08:31:10Z</time>
      </trkpt>
      <trkpt lat="45.66075" lon="3.21903">
        <ele>350.4</ele>
        <time>2024-05-19T08:31:11Z</time>
      </trkpt>
      <trkpt lat="45.66076" lon="3.21896">
        <ele>350.4</ele>
        <time>2024-05-19T08:31:12Z</time>
      </trkpt>
      <trkpt lat="45.66078" lon="3.21888">
        <ele>350.4</ele>
        <time>2024-05-19T08:31:13Z</time>
      </trkpt>
      <trkpt lat="45.66079" lon="3.21881">
        <ele>350.4</ele>
        <time>2024-05-19T08:31:14Z</time>
      </trkpt>
      <trkpt lat="45.6608" lon="3.21873">
        <ele>350.4</ele>
        <time>2024-05-19T08:31:15Z</time>
      </trkpt>
      <trkpt lat="45.66082" lon="3.21866">
        <ele>350.4</ele>
        <time>2024-05-19T08:31:16Z</time>
      </trkpt>
      <trkpt lat="45.66083" lon="3.21859">
        <ele>350.4</ele>
        <time>2024-05-19T08:31:17Z</time>
      </trkpt>
      <trkpt lat="45.66084" lon="3.21852">
        <ele>350.4</ele>
        <time>2024-05-19T08:31:18Z</time>
      </trkpt>
      <trkpt lat="45.66085" lon="3.21845">
        <ele>350.4</ele>
        <time>2024-05-19T08:31:19Z</time>
      </trkpt>
      <trkpt lat="45.66087" lon="3.21838">
        <ele>350.4</ele>
        <time>2024-05-19T08:31:20Z</time>
      </trkpt>
      <trkpt lat="45.66088" lon="3.21832">
        <ele>350.4</ele>
        <time>2024-05-19T08:31:21Z</time>
      </trkpt>
      <trkpt lat="45.66089" lon="3.21825">
        <ele>350.4</ele>
        <time>2024-05-19T08:31:22Z</time>
      </trkpt>
      <trkpt lat="45.6609" lon="3.21819">
        <ele>350.4</ele>
        <time>2024-05-19T08:31:23Z</time>
      </trkpt>
      <trkpt lat="45.66091" lon="3.21812">
        <ele>350.4</ele>
        <time>2024-05-19T08:31:24Z</time>
      </trkpt>
      <trkpt lat="45.66093" lon="3.21806">
        <ele>350.2</ele>
        <time>2024-05-19T08:31:25Z</time>
      </trkpt>
      <trkpt lat="45.66094" lon="3.21799">
        <ele>350.4</ele>
        <time>2024-05-19T08:31:26Z</time>
      </trkpt>
      <trkpt lat="45.66095" lon="3.21792">
        <ele>350.4</ele>
        <time>2024-05-19T08:31:27Z</time>
      </trkpt>
      <trkpt lat="45.66096" lon="3.21786">
        <ele>350.6</ele>
        <time>2024-05-19T08:31:28Z</time>
      </trkpt>
      <trkpt lat="45.66098" lon="3.21779">
        <ele>351</ele>
        <time>2024-05-19T08:31:29Z</time>
      </trkpt>
      <trkpt lat="45.66099" lon="3.21773">
        <ele>350.6</ele>
        <time>2024-05-19T08:31:30Z</time>
      </trkpt>
      <trkpt lat="45.661" lon="3.21766">
        <ele>350.8</ele>
        <time>2024-05-19T08:31:31Z</time>
      </trkpt>
      <trkpt lat="45.66101" lon="3.21759">
        <ele>350.8</ele>
        <time>2024-05-19T08:31:32Z</time>
      </trkpt>
      <trkpt lat="45.66102" lon="3.21753">
        <ele>350.8</ele>
        <time>2024-05-19T08:31:33Z</time>
      </trkpt>
      <trkpt lat="45.66104" lon="3.21746">
        <ele>350.8</ele>
        <time>2024-05-19T08:31:34Z</time>
      </trkpt>
      <trkpt lat="45.66106" lon="3.21739">
        <ele>350.8</ele>
        <time>2024-05-19T08:31:35Z</time>
      </trkpt>
      <trkpt lat="45.66107" lon="3.21732">
        <ele>350.8</ele>
        <time>2024-05-19T08:31:36Z</time>
      </trkpt>
      <trkpt lat="45.66109" lon="3.21726">
        <ele>351</ele>
        <time>2024-05-19T08:31:37Z</time>
      </trkpt>
      <trkpt lat="45.66111" lon="3.21719">
        <ele>351</ele>
        <time>2024-05-19T08:31:38Z</time>
      </trkpt>
      <trkpt lat="45.66112" lon="3.21712">
        <ele>351.2</ele>
        <time>2024-05-19T08:31:39Z</time>
      </trkpt>
      <trkpt lat="45.66114" lon="3.21705">
        <ele>351.2</ele>
        <time>2024-05-19T08:31:40Z</time>
      </trkpt>
      <trkpt lat="45.66116" lon="3.21698">
        <ele>351.2</ele>
        <time>2024-05-19T08:31:41Z</time>
      </trkpt>
      <trkpt lat="45.66118" lon="3.2169">
        <ele>351.2</ele>
        <time>2024-05-19T08:31:42Z</time>
      </trkpt>
      <trkpt lat="45.66119" lon="3.21683">
        <ele>351.4</ele>
        <time>2024-05-19T08:31:43Z</time>
      </trkpt>
      <trkpt lat="45.66121" lon="3.21675">
        <ele>351.4</ele>
        <time>2024-05-19T08:31:44Z</time>
      </trkpt>
      <trkpt lat="45.66123" lon="3.21667">
        <ele>351.4</ele>
        <time>2024-05-19T08:31:45Z</time>
      </trkpt>
      <trkpt lat="45.66125" lon="3.21659">
        <ele>351.4</ele>
        <time>2024-05-19T08:31:46Z</time>
      </trkpt>
      <trkpt lat="45.66127" lon="3.21651">
        <ele>351.4</ele>
        <time>2024-05-19T08:31:47Z</time>
      </trkpt>
      <trkpt lat="45.66129" lon="3.21644">
        <ele>351.6</ele>
        <time>2024-05-19T08:31:48Z</time>
      </trkpt>
      <trkpt lat="45.66131" lon="3.21636">
        <ele>351.6</ele>
        <time>2024-05-19T08:31:49Z</time>
      </trkpt>
      <trkpt lat="45.66133" lon="3.21628">
        <ele>351.6</ele>
        <time>2024-05-19T08:31:50Z</time>
      </trkpt>
      <trkpt lat="45.66136" lon="3.21621">
        <ele>351.6</ele>
        <time>2024-05-19T08:31:51Z</time>
      </trkpt>
      <trkpt lat="45.66138" lon="3.21613">
        <ele>351.6</ele>
        <time>2024-05-19T08:31:52Z</time>
      </trkpt>
      <trkpt lat="45.66141" lon="3.21605">
        <ele>351.6</ele>
        <time>2024-05-19T08:31:53Z</time>
      </trkpt>
      <trkpt lat="45.66143" lon="3.21598">
        <ele>351.6</ele>
        <time>2024-05-19T08:31:54Z</time>
      </trkpt>
      <trkpt lat="45.66146" lon="3.2159">
        <ele>351.6</ele>
        <time>2024-05-19T08:31:55Z</time>
      </trkpt>
      <trkpt lat="45.66148" lon="3.21583">
        <ele>351.6</ele>
        <time>2024-05-19T08:31:56Z</time>
      </trkpt>
      <trkpt lat="45.66151" lon="3.21575">
        <ele>351.6</ele>
        <time>2024-05-19T08:31:57Z</time>
      </trkpt>
      <trkpt lat="45.66153" lon="3.21568">
        <ele>351.6</ele>
        <time>2024-05-19T08:31:58Z</time>
      </trkpt>
      <trkpt lat="45.66156" lon="3.2156">
        <ele>351.6</ele>
        <time>2024-05-19T08:31:59Z</time>
      </trkpt>
      <trkpt lat="45.66158" lon="3.21552">
        <ele>351.8</ele>
        <time>2024-05-19T08:32:00Z</time>
      </trkpt>
      <trkpt lat="45.66161" lon="3.21544">
        <ele>351.8</ele>
        <time>2024-05-19T08:32:01Z</time>
      </trkpt>
      <trkpt lat="45.66163" lon="3.21536">
        <ele>351.8</ele>
        <time>2024-05-19T08:32:02Z</time>
      </trkpt>
      <trkpt lat="45.66166" lon="3.21529">
        <ele>351.8</ele>
        <time>2024-05-19T08:32:03Z</time>
      </trkpt>
      <trkpt lat="45.66168" lon="3.21521">
        <ele>351.8</ele>
        <time>2024-05-19T08:32:04Z</time>
      </trkpt>
      <trkpt lat="45.66171" lon="3.21513">
        <ele>351.8</ele>
        <time>2024-05-19T08:32:05Z</time>
      </trkpt>
      <trkpt lat="45.66173" lon="3.21505">
        <ele>351.8</ele>
        <time>2024-05-19T08:32:06Z</time>
      </trkpt>
      <trkpt lat="45.66176" lon="3.21498">
        <ele>351.8</ele>
        <time>2024-05-19T08:32:07Z</time>
      </trkpt>
      <trkpt lat="45.66178" lon="3.2149">
        <ele>351.8</ele>
        <time>2024-05-19T08:32:08Z</time>
      </trkpt>
      <trkpt lat="45.66181" lon="3.21482">
        <ele>352</ele>
        <time>2024-05-19T08:32:09Z</time>
      </trkpt>
      <trkpt lat="45.66183" lon="3.21475">
        <ele>352</ele>
        <time>2024-05-19T08:32:10Z</time>
      </trkpt>
      <trkpt lat="45.66186" lon="3.21467">
        <ele>352</ele>
        <time>2024-05-19T08:32:11Z</time>
      </trkpt>
      <trkpt lat="45.66188" lon="3.2146">
        <ele>352.2</ele>
        <time>2024-05-19T08:32:12Z</time>
      </trkpt>
      <trkpt lat="45.66191" lon="3.21452">
        <ele>352.2</ele>
        <time>2024-05-19T08:32:13Z</time>
      </trkpt>
      <trkpt lat="45.66193" lon="3.21444">
        <ele>352.2</ele>
        <time>2024-05-19T08:32:14Z</time>
      </trkpt>
      <trkpt lat="45.66196" lon="3.21437">
        <ele>352.2</ele>
        <time>2024-05-19T08:32:15Z</time>
      </trkpt>
      <trkpt lat="45.66198" lon="3.21429">
        <ele>352.2</ele>
        <time>2024-05-19T08:32:16Z</time>
      </trkpt>
      <trkpt lat="45.66201" lon="3.21421">
        <ele>352.2</ele>
        <time>2024-05-19T08:32:17Z</time>
      </trkpt>
      <trkpt lat="45.66203" lon="3.21414">
        <ele>352.2</ele>
        <time>2024-05-19T08:32:18Z</time>
      </trkpt>
      <trkpt lat="45.66206" lon="3.21406">
        <ele>352.2</ele>
        <time>2024-05-19T08:32:19Z</time>
      </trkpt>
      <trkpt lat="45.66208" lon="3.21398">
        <ele>352.2</ele>
        <time>2024-05-19T08:32:20Z</time>
      </trkpt>
      <trkpt lat="45.66211" lon="3.21391">
        <ele>352.2</ele>
        <time>2024-05-19T08:32:21Z</time>
      </trkpt>
      <trkpt lat="45.66213" lon="3.21383">
        <ele>352.4</ele>
        <time>2024-05-19T08:32:22Z</time>
      </trkpt>
      <trkpt lat="45.66216" lon="3.21376">
        <ele>352.2</ele>
        <time>2024-05-19T08:32:23Z</time>
      </trkpt>
      <trkpt lat="45.66218" lon="3.21368">
        <ele>352.4</ele>
        <time>2024-05-19T08:32:24Z</time>
      </trkpt>
      <trkpt lat="45.66221" lon="3.21361">
        <ele>352.4</ele>
        <time>2024-05-19T08:32:25Z</time>
      </trkpt>
      <trkpt lat="45.66222" lon="3.21353">
        <ele>352.4</ele>
        <time>2024-05-19T08:32:26Z</time>
      </trkpt>
      <trkpt lat="45.66224" lon="3.21344">
        <ele>352.4</ele>
        <time>2024-05-19T08:32:27Z</time>
      </trkpt>
      <trkpt lat="45.66225" lon="3.21336">
        <ele>352.4</ele>
        <time>2024-05-19T08:32:28Z</time>
      </trkpt>
      <trkpt lat="45.66227" lon="3.21328">
        <ele>352.4</ele>
        <time>2024-05-19T08:32:29Z</time>
      </trkpt>
      <trkpt lat="45.66228" lon="3.2132">
        <ele>352.4</ele>
        <time>2024-05-19T08:32:30Z</time>
      </trkpt>
      <trkpt lat="45.6623" lon="3.21311">
        <ele>352.4</ele>
        <time>2024-05-19T08:32:31Z</time>
      </trkpt>
      <trkpt lat="45.66231" lon="3.21303">
        <ele>352.4</ele>
        <time>2024-05-19T08:32:32Z</time>
      </trkpt>
      <trkpt lat="45.66232" lon="3.21296">
        <ele>352.4</ele>
        <time>2024-05-19T08:32:33Z</time>
      </trkpt>
      <trkpt lat="45.66233" lon="3.21287">
        <ele>352.4</ele>
        <time>2024-05-19T08:32:34Z</time>
      </trkpt>
      <trkpt lat="45.66234" lon="3.21279">
        <ele>352.4</ele>
        <time>2024-05-19T08:32:35Z</time>
      </trkpt>
      <trkpt lat="45.66235" lon="3.21271">
        <ele>352.4</ele>
        <time>2024-05-19T08:32:36Z</time>
      </trkpt>
      <trkpt lat="45.66236" lon="3.21263">
        <ele>352.4</ele>
        <time>2024-05-19T08:32:37Z</time>
      </trkpt>
      <trkpt lat="45.66237" lon="3.21255">
        <ele>352.4</ele>
        <time>2024-05-19T08:32:38Z</time>
      </trkpt>
      <trkpt lat="45.66237" lon="3.21247">
        <ele>352.4</ele>
        <time>2024-05-19T08:32:39Z</time>
      </trkpt>
      <trkpt lat="45.66238" lon="3.21238">
        <ele>352.6</ele>
        <time>2024-05-19T08:32:40Z</time>
      </trkpt>
      <trkpt lat="45.66239" lon="3.2123">
        <ele>352.6</ele>
        <time>2024-05-19T08:32:41Z</time>
      </trkpt>
      <trkpt lat="45.6624" lon="3.21222">
        <ele>352.6</ele>
        <time>2024-05-19T08:32:42Z</time>
      </trkpt>
      <trkpt lat="45.66241" lon="3.21214">
        <ele>352.6</ele>
        <time>2024-05-19T08:32:43Z</time>
      </trkpt>
      <trkpt lat="45.66242" lon="3.21206">
        <ele>352.6</ele>
        <time>2024-05-19T08:32:44Z</time>
      </trkpt>
      <trkpt lat="45.66243" lon="3.21198">
        <ele>352.6</ele>
        <time>2024-05-19T08:32:45Z</time>
      </trkpt>
      <trkpt lat="45.66244" lon="3.2119">
        <ele>352.6</ele>
        <time>2024-05-19T08:32:46Z</time>
      </trkpt>
      <trkpt lat="45.66244" lon="3.21182">
        <ele>352.6</ele>
        <time>2024-05-19T08:32:47Z</time>
      </trkpt>
      <trkpt lat="45.66245" lon="3.21174">
        <ele>352.8</ele>
        <time>2024-05-19T08:32:48Z</time>
      </trkpt>
      <trkpt lat="45.66246" lon="3.21166">
        <ele>352.8</ele>
        <time>2024-05-19T08:32:49Z</time>
      </trkpt>
      <trkpt lat="45.66247" lon="3.21159">
        <ele>352.8</ele>
        <time>2024-05-19T08:32:50Z</time>
      </trkpt>
      <trkpt lat="45.66248" lon="3.21151">
        <ele>352.8</ele>
        <time>2024-05-19T08:32:51Z</time>
      </trkpt>
      <trkpt lat="45.66249" lon="3.21143">
        <ele>352.8</ele>
        <time>2024-05-19T08:32:52Z</time>
      </trkpt>
      <trkpt lat="45.6625" lon="3.21136">
        <ele>352.8</ele>
        <time>2024-05-19T08:32:53Z</time>
      </trkpt>
      <trkpt lat="45.66251" lon="3.21128">
        <ele>352.8</ele>
        <time>2024-05-19T08:32:54Z</time>
      </trkpt>
      <trkpt lat="45.66252" lon="3.2112">
        <ele>353</ele>
        <time>2024-05-19T08:32:55Z</time>
      </trkpt>
      <trkpt lat="45.66254" lon="3.21112">
        <ele>353</ele>
        <time>2024-05-19T08:32:56Z</time>
      </trkpt>
      <trkpt lat="45.66255" lon="3.21104">
        <ele>353</ele>
        <time>2024-05-19T08:32:57Z</time>
      </trkpt>
      <trkpt lat="45.66256" lon="3.21096">
        <ele>353</ele>
        <time>2024-05-19T08:32:58Z</time>
      </trkpt>
      <trkpt lat="45.66257" lon="3.21089">
        <ele>353</ele>
        <time>2024-05-19T08:32:59Z</time>
      </trkpt>
      <trkpt lat="45.66258" lon="3.21081">
        <ele>353.2</ele>
        <time>2024-05-19T08:33:00Z</time>
      </trkpt>
      <trkpt lat="45.6626" lon="3.21074">
        <ele>353.2</ele>
        <time>2024-05-19T08:33:01Z</time>
      </trkpt>
      <trkpt lat="45.66261" lon="3.21066">
        <ele>353.2</ele>
        <time>2024-05-19T08:33:02Z</time>
      </trkpt>
      <trkpt lat="45.66262" lon="3.21058">
        <ele>353.2</ele>
        <time>2024-05-19T08:33:03Z</time>
      </trkpt>
      <trkpt lat="45.66263" lon="3.2105">
        <ele>353.2</ele>
        <time>2024-05-19T08:33:04Z</time>
      </trkpt>
      <trkpt lat="45.66264" lon="3.21043">
        <ele>353.2</ele>
        <time>2024-05-19T08:33:05Z</time>
      </trkpt>
      <trkpt lat="45.66265" lon="3.21036">
        <ele>353.2</ele>
        <time>2024-05-19T08:33:06Z</time>
      </trkpt>
      <trkpt lat="45.66267" lon="3.21029">
        <ele>353.2</ele>
        <time>2024-05-19T08:33:07Z</time>
      </trkpt>
      <trkpt lat="45.66268" lon="3.21023">
        <ele>353.2</ele>
        <time>2024-05-19T08:33:08Z</time>
      </trkpt>
      <trkpt lat="45.66268" lon="3.21017">
        <ele>353.2</ele>
        <time>2024-05-19T08:33:09Z</time>
      </trkpt>
      <trkpt lat="45.66269" lon="3.21012">
        <ele>353.4</ele>
        <time>2024-05-19T08:33:10Z</time>
      </trkpt>
      <trkpt lat="45.6627" lon="3.21006">
        <ele>353.4</ele>
        <time>2024-05-19T08:33:11Z</time>
      </trkpt>
      <trkpt lat="45.66271" lon="3.20999">
        <ele>353.4</ele>
        <time>2024-05-19T08:33:12Z</time>
      </trkpt>
      <trkpt lat="45.66272" lon="3.20992">
        <ele>353.4</ele>
        <time>2024-05-19T08:33:13Z</time>
      </trkpt>
      <trkpt lat="45.66273" lon="3.20984">
        <ele>353.4</ele>
        <time>2024-05-19T08:33:14Z</time>
      </trkpt>
      <trkpt lat="45.66275" lon="3.20975">
        <ele>353.4</ele>
        <time>2024-05-19T08:33:15Z</time>
      </trkpt>
      <trkpt lat="45.66276" lon="3.20967">
        <ele>353.4</ele>
        <time>2024-05-19T08:33:16Z</time>
      </trkpt>
      <trkpt lat="45.66277" lon="3.20959">
        <ele>353.4</ele>
        <time>2024-05-19T08:33:17Z</time>
      </trkpt>
      <trkpt lat="45.66278" lon="3.2095">
        <ele>353.4</ele>
        <time>2024-05-19T08:33:18Z</time>
      </trkpt>
      <trkpt lat="45.6628" lon="3.20942">
        <ele>353.4</ele>
        <time>2024-05-19T08:33:19Z</time>
      </trkpt>
      <trkpt lat="45.66281" lon="3.20933">
        <ele>353.4</ele>
        <time>2024-05-19T08:33:20Z</time>
      </trkpt>
      <trkpt lat="45.66282" lon="3.20925">
        <ele>353.4</ele>
        <time>2024-05-19T08:33:21Z</time>
      </trkpt>
      <trkpt lat="45.66283" lon="3.20917">
        <ele>353.4</ele>
        <time>2024-05-19T08:33:22Z</time>
      </trkpt>
      <trkpt lat="45.66285" lon="3.20909">
        <ele>353.4</ele>
        <time>2024-05-19T08:33:23Z</time>
      </trkpt>
      <trkpt lat="45.66286" lon="3.20901">
        <ele>353.4</ele>
        <time>2024-05-19T08:33:24Z</time>
      </trkpt>
      <trkpt lat="45.66287" lon="3.20893">
        <ele>353.4</ele>
        <time>2024-05-19T08:33:25Z</time>
      </trkpt>
      <trkpt lat="45.66288" lon="3.20885">
        <ele>353.4</ele>
        <time>2024-05-19T08:33:26Z</time>
      </trkpt>
      <trkpt lat="45.66289" lon="3.20876">
        <ele>353.4</ele>
        <time>2024-05-19T08:33:27Z</time>
      </trkpt>
      <trkpt lat="45.66291" lon="3.20869">
        <ele>353.4</ele>
        <time>2024-05-19T08:33:28Z</time>
      </trkpt>
      <trkpt lat="45.66292" lon="3.20861">
        <ele>353.4</ele>
        <time>2024-05-19T08:33:29Z</time>
      </trkpt>
      <trkpt lat="45.66293" lon="3.20854">
        <ele>353.4</ele>
        <time>2024-05-19T08:33:30Z</time>
      </trkpt>
      <trkpt lat="45.66294" lon="3.20846">
        <ele>353.4</ele>
        <time>2024-05-19T08:33:31Z</time>
      </trkpt>
      <trkpt lat="45.66295" lon="3.20839">
        <ele>353.2</ele>
        <time>2024-05-19T08:33:32Z</time>
      </trkpt>
      <trkpt lat="45.66296" lon="3.20832">
        <ele>353.2</ele>
        <time>2024-05-19T08:33:33Z</time>
      </trkpt>
      <trkpt lat="45.66297" lon="3.20825">
        <ele>353.2</ele>
        <time>2024-05-19T08:33:34Z</time>
      </trkpt>
      <trkpt lat="45.66298" lon="3.20818">
        <ele>353.2</ele>
        <time>2024-05-19T08:33:35Z</time>
      </trkpt>
      <trkpt lat="45.66299" lon="3.20813">
        <ele>353.2</ele>
        <time>2024-05-19T08:33:36Z</time>
      </trkpt>
      <trkpt lat="45.66302" lon="3.20804">
        <ele>353.2</ele>
        <time>2024-05-19T08:33:37Z</time>
      </trkpt>
      <trkpt lat="45.66305" lon="3.20803">
        <ele>353.2</ele>
        <time>2024-05-19T08:33:38Z</time>
      </trkpt>
      <trkpt lat="45.66306" lon="3.20803">
        <ele>353.4</ele>
        <time>2024-05-19T08:33:39Z</time>
      </trkpt>
      <trkpt lat="45.66316" lon="3.20799">
        <ele>353.4</ele>
        <time>2024-05-19T08:33:40Z</time>
      </trkpt>
      <trkpt lat="45.66321" lon="3.20799">
        <ele>353.4</ele>
        <time>2024-05-19T08:33:41Z</time>
      </trkpt>
      <trkpt lat="45.66327" lon="3.20799">
        <ele>353.4</ele>
        <time>2024-05-19T08:33:42Z</time>
      </trkpt>
      <trkpt lat="45.66332" lon="3.20799">
        <ele>353.6</ele>
        <time>2024-05-19T08:33:43Z</time>
      </trkpt>
      <trkpt lat="45.66338" lon="3.20799">
        <ele>353.6</ele>
        <time>2024-05-19T08:33:44Z</time>
      </trkpt>
      <trkpt lat="45.66344" lon="3.20799">
        <ele>353.6</ele>
        <time>2024-05-19T08:33:45Z</time>
      </trkpt>
      <trkpt lat="45.6635" lon="3.20799">
        <ele>353.6</ele>
        <time>2024-05-19T08:33:46Z</time>
      </trkpt>
      <trkpt lat="45.66355" lon="3.20799">
        <ele>353.6</ele>
        <time>2024-05-19T08:33:47Z</time>
      </trkpt>
      <trkpt lat="45.66361" lon="3.20799">
        <ele>353.8</ele>
        <time>2024-05-19T08:33:48Z</time>
      </trkpt>
      <trkpt lat="45.66367" lon="3.20799">
        <ele>353.8</ele>
        <time>2024-05-19T08:33:49Z</time>
      </trkpt>
      <trkpt lat="45.66373" lon="3.20799">
        <ele>353.8</ele>
        <time>2024-05-19T08:33:50Z</time>
      </trkpt>
      <trkpt lat="45.66379" lon="3.20799">
        <ele>354</ele>
        <time>2024-05-19T08:33:51Z</time>
      </trkpt>
      <trkpt lat="45.66385" lon="3.20799">
        <ele>354</ele>
        <time>2024-05-19T08:33:52Z</time>
      </trkpt>
      <trkpt lat="45.66391" lon="3.20799">
        <ele>354</ele>
        <time>2024-05-19T08:33:53Z</time>
      </trkpt>
      <trkpt lat="45.66397" lon="3.20799">
        <ele>354.2</ele>
        <time>2024-05-19T08:33:54Z</time>
      </trkpt>
      <trkpt lat="45.66403" lon="3.208">
        <ele>354.2</ele>
        <time>2024-05-19T08:33:55Z</time>
      </trkpt>
      <trkpt lat="45.66409" lon="3.208">
        <ele>354.2</ele>
        <time>2024-05-19T08:33:56Z</time>
      </trkpt>
      <trkpt lat="45.66416" lon="3.20801">
        <ele>354.2</ele>
        <time>2024-05-19T08:33:57Z</time>
      </trkpt>
      <trkpt lat="45.66423" lon="3.20803">
        <ele>354.2</ele>
        <time>2024-05-19T08:33:58Z</time>
      </trkpt>
      <trkpt lat="45.66429" lon="3.20804">
        <ele>354.2</ele>
        <time>2024-05-19T08:33:59Z</time>
      </trkpt>
      <trkpt lat="45.66436" lon="3.20806">
        <ele>354.2</ele>
        <time>2024-05-19T08:34:00Z</time>
      </trkpt>
      <trkpt lat="45.66443" lon="3.20808">
        <ele>354.4</ele>
        <time>2024-05-19T08:34:01Z</time>
      </trkpt>
      <trkpt lat="45.6645" lon="3.20809">
        <ele>354.4</ele>
        <time>2024-05-19T08:34:02Z</time>
      </trkpt>
      <trkpt lat="45.66457" lon="3.20811">
        <ele>354.4</ele>
        <time>2024-05-19T08:34:03Z</time>
      </trkpt>
      <trkpt lat="45.66464" lon="3.20813">
        <ele>354.4</ele>
        <time>2024-05-19T08:34:04Z</time>
      </trkpt>
      <trkpt lat="45.66471" lon="3.20814">
        <ele>354.2</ele>
        <time>2024-05-19T08:34:05Z</time>
      </trkpt>
      <trkpt lat="45.66478" lon="3.20816">
        <ele>354.2</ele>
        <time>2024-05-19T08:34:06Z</time>
      </trkpt>
      <trkpt lat="45.66485" lon="3.20817">
        <ele>354.4</ele>
        <time>2024-05-19T08:34:07Z</time>
      </trkpt>
      <trkpt lat="45.66492" lon="3.2082">
        <ele>354.4</ele>
        <time>2024-05-19T08:34:08Z</time>
      </trkpt>
      <trkpt lat="45.66499" lon="3.20822">
        <ele>354.4</ele>
        <time>2024-05-19T08:34:09Z</time>
      </trkpt>
      <trkpt lat="45.66506" lon="3.20824">
        <ele>354.4</ele>
        <time>2024-05-19T08:34:10Z</time>
      </trkpt>
      <trkpt lat="45.66513" lon="3.20827">
        <ele>354.4</ele>
        <time>2024-05-19T08:34:11Z</time>
      </trkpt>
      <trkpt lat="45.6652" lon="3.20829">
        <ele>354.4</ele>
        <time>2024-05-19T08:34:12Z</time>
      </trkpt>
      <trkpt lat="45.66526" lon="3.20831">
        <ele>354.4</ele>
        <time>2024-05-19T08:34:13Z</time>
      </trkpt>
      <trkpt lat="45.66533" lon="3.20834">
        <ele>354.4</ele>
        <time>2024-05-19T08:34:14Z</time>
      </trkpt>
      <trkpt lat="45.6654" lon="3.20837">
        <ele>354.4</ele>
        <time>2024-05-19T08:34:15Z</time>
      </trkpt>
      <trkpt lat="45.66547" lon="3.20841">
        <ele>354.4</ele>
        <time>2024-05-19T08:34:16Z</time>
      </trkpt>
      <trkpt lat="45.66554" lon="3.20845">
        <ele>354.4</ele>
        <time>2024-05-19T08:34:17Z</time>
      </trkpt>
      <trkpt lat="45.66561" lon="3.20848">
        <ele>354.4</ele>
        <time>2024-05-19T08:34:18Z</time>
      </trkpt>
      <trkpt lat="45.66568" lon="3.20852">
        <ele>354.4</ele>
        <time>2024-05-19T08:34:19Z</time>
      </trkpt>
      <trkpt lat="45.66575" lon="3.20857">
        <ele>354.4</ele>
        <time>2024-05-19T08:34:20Z</time>
      </trkpt>
      <trkpt lat="45.66582" lon="3.20861">
        <ele>354.6</ele>
        <time>2024-05-19T08:34:21Z</time>
      </trkpt>
      <trkpt lat="45.66589" lon="3.20865">
        <ele>354.6</ele>
        <time>2024-05-19T08:34:22Z</time>
      </trkpt>
      <trkpt lat="45.66597" lon="3.20869">
        <ele>354.6</ele>
        <time>2024-05-19T08:34:23Z</time>
      </trkpt>
      <trkpt lat="45.66604" lon="3.20874">
        <ele>354.6</ele>
        <time>2024-05-19T08:34:24Z</time>
      </trkpt>
      <trkpt lat="45.66612" lon="3.20878">
        <ele>354.6</ele>
        <time>2024-05-19T08:34:25Z</time>
      </trkpt>
      <trkpt lat="45.66619" lon="3.20882">
        <ele>354.6</ele>
        <time>2024-05-19T08:34:26Z</time>
      </trkpt>
      <trkpt lat="45.66627" lon="3.20887">
        <ele>354.6</ele>
        <time>2024-05-19T08:34:27Z</time>
      </trkpt>
      <trkpt lat="45.66635" lon="3.20892">
        <ele>354.6</ele>
        <time>2024-05-19T08:34:28Z</time>
      </trkpt>
      <trkpt lat="45.66643" lon="3.20896">
        <ele>354.6</ele>
        <time>2024-05-19T08:34:29Z</time>
      </trkpt>
      <trkpt lat="45.66651" lon="3.20901">
        <ele>354.6</ele>
        <time>2024-05-19T08:34:30Z</time>
      </trkpt>
      <trkpt lat="45.66658" lon="3.20905">
        <ele>354.6</ele>
        <time>2024-05-19T08:34:31Z</time>
      </trkpt>
      <trkpt lat="45.66666" lon="3.20909">
        <ele>354.6</ele>
        <time>2024-05-19T08:34:32Z</time>
      </trkpt>
      <trkpt lat="45.66673" lon="3.20914">
        <ele>354.6</ele>
        <time>2024-05-19T08:34:33Z</time>
      </trkpt>
      <trkpt lat="45.6668" lon="3.20918">
        <ele>354.6</ele>
        <time>2024-05-19T08:34:34Z</time>
      </trkpt>
      <trkpt lat="45.66687" lon="3.20922">
        <ele>354.6</ele>
        <time>2024-05-19T08:34:35Z</time>
      </trkpt>
      <trkpt lat="45.66694" lon="3.20926">
        <ele>354.6</ele>
        <time>2024-05-19T08:34:36Z</time>
      </trkpt>
      <trkpt lat="45.66701" lon="3.20929">
        <ele>354.6</ele>
        <time>2024-05-19T08:34:37Z</time>
      </trkpt>
      <trkpt lat="45.66708" lon="3.20933">
        <ele>354.8</ele>
        <time>2024-05-19T08:34:38Z</time>
      </trkpt>
      <trkpt lat="45.66714" lon="3.20936">
        <ele>354.8</ele>
        <time>2024-05-19T08:34:39Z</time>
      </trkpt>
      <trkpt lat="45.66721" lon="3.2094">
        <ele>354.8</ele>
        <time>2024-05-19T08:34:40Z</time>
      </trkpt>
      <trkpt lat="45.66727" lon="3.20943">
        <ele>354.8</ele>
        <time>2024-05-19T08:34:41Z</time>
      </trkpt>
      <trkpt lat="45.66734" lon="3.20946">
        <ele>354.8</ele>
        <time>2024-05-19T08:34:42Z</time>
      </trkpt>
      <trkpt lat="45.6674" lon="3.2095">
        <ele>354.8</ele>
        <time>2024-05-19T08:34:43Z</time>
      </trkpt>
      <trkpt lat="45.66746" lon="3.20953">
        <ele>354.8</ele>
        <time>2024-05-19T08:34:44Z</time>
      </trkpt>
      <trkpt lat="45.66753" lon="3.20956">
        <ele>354.8</ele>
        <time>2024-05-19T08:34:45Z</time>
      </trkpt>
      <trkpt lat="45.66759" lon="3.2096">
        <ele>354.8</ele>
        <time>2024-05-19T08:34:46Z</time>
      </trkpt>
      <trkpt lat="45.66765" lon="3.20964">
        <ele>355</ele>
        <time>2024-05-19T08:34:47Z</time>
      </trkpt>
      <trkpt lat="45.66771" lon="3.20967">
        <ele>355</ele>
        <time>2024-05-19T08:34:48Z</time>
      </trkpt>
      <trkpt lat="45.66776" lon="3.20971">
        <ele>355</ele>
        <time>2024-05-19T08:34:49Z</time>
      </trkpt>
      <trkpt lat="45.66782" lon="3.20974">
        <ele>355</ele>
        <time>2024-05-19T08:34:50Z</time>
      </trkpt>
      <trkpt lat="45.66788" lon="3.20978">
        <ele>355</ele>
        <time>2024-05-19T08:34:51Z</time>
      </trkpt>
      <trkpt lat="45.66793" lon="3.20982">
        <ele>355</ele>
        <time>2024-05-19T08:34:52Z</time>
      </trkpt>
      <trkpt lat="45.66799" lon="3.20985">
        <ele>355.2</ele>
        <time>2024-05-19T08:34:53Z</time>
      </trkpt>
      <trkpt lat="45.66805" lon="3.20989">
        <ele>355.2</ele>
        <time>2024-05-19T08:34:54Z</time>
      </trkpt>
      <trkpt lat="45.66811" lon="3.20992">
        <ele>355.2</ele>
        <time>2024-05-19T08:34:55Z</time>
      </trkpt>
      <trkpt lat="45.66816" lon="3.20996">
        <ele>355.2</ele>
        <time>2024-05-19T08:34:56Z</time>
      </trkpt>
      <trkpt lat="45.66822" lon="3.20999">
        <ele>355.4</ele>
        <time>2024-05-19T08:34:57Z</time>
      </trkpt>
      <trkpt lat="45.66828" lon="3.21003">
        <ele>355.4</ele>
        <time>2024-05-19T08:34:58Z</time>
      </trkpt>
      <trkpt lat="45.66833" lon="3.21006">
        <ele>355.4</ele>
        <time>2024-05-19T08:34:59Z</time>
      </trkpt>
      <trkpt lat="45.66839" lon="3.2101">
        <ele>355.4</ele>
        <time>2024-05-19T08:35:00Z</time>
      </trkpt>
      <trkpt lat="45.66845" lon="3.21014">
        <ele>355.4</ele>
        <time>2024-05-19T08:35:01Z</time>
      </trkpt>
      <trkpt lat="45.66851" lon="3.21017">
        <ele>355.6</ele>
        <time>2024-05-19T08:35:02Z</time>
      </trkpt>
      <trkpt lat="45.66856" lon="3.21021">
        <ele>355.6</ele>
        <time>2024-05-19T08:35:03Z</time>
      </trkpt>
      <trkpt lat="45.66862" lon="3.21024">
        <ele>355.6</ele>
        <time>2024-05-19T08:35:04Z</time>
      </trkpt>
      <trkpt lat="45.66867" lon="3.21028">
        <ele>355.6</ele>
        <time>2024-05-19T08:35:05Z</time>
      </trkpt>
      <trkpt lat="45.66873" lon="3.21031">
        <ele>355.8</ele>
        <time>2024-05-19T08:35:06Z</time>
      </trkpt>
      <trkpt lat="45.66879" lon="3.21035">
        <ele>355.8</ele>
        <time>2024-05-19T08:35:07Z</time>
      </trkpt>
      <trkpt lat="45.66884" lon="3.21038">
        <ele>355.8</ele>
        <time>2024-05-19T08:35:08Z</time>
      </trkpt>
      <trkpt lat="45.6689" lon="3.21042">
        <ele>355.8</ele>
        <time>2024-05-19T08:35:09Z</time>
      </trkpt>
      <trkpt lat="45.66896" lon="3.21045">
        <ele>355.8</ele>
        <time>2024-05-19T08:35:10Z</time>
      </trkpt>
      <trkpt lat="45.66901" lon="3.21049">
        <ele>356</ele>
        <time>2024-05-19T08:35:11Z</time>
      </trkpt>
      <trkpt lat="45.66907" lon="3.21052">
        <ele>356</ele>
        <time>2024-05-19T08:35:12Z</time>
      </trkpt>
      <trkpt lat="45.66912" lon="3.21056">
        <ele>356</ele>
        <time>2024-05-19T08:35:13Z</time>
      </trkpt>
      <trkpt lat="45.66918" lon="3.21059">
        <ele>356.2</ele>
        <time>2024-05-19T08:35:14Z</time>
      </trkpt>
      <trkpt lat="45.66923" lon="3.21062">
        <ele>356.2</ele>
        <time>2024-05-19T08:35:15Z</time>
      </trkpt>
      <trkpt lat="45.66929" lon="3.21065">
        <ele>356.4</ele>
        <time>2024-05-19T08:35:16Z</time>
      </trkpt>
      <trkpt lat="45.66934" lon="3.21067">
        <ele>356.4</ele>
        <time>2024-05-19T08:35:17Z</time>
      </trkpt>
      <trkpt lat="45.6694" lon="3.2107">
        <ele>356.4</ele>
        <time>2024-05-19T08:35:18Z</time>
      </trkpt>
      <trkpt lat="45.66945" lon="3.21072">
        <ele>356.6</ele>
        <time>2024-05-19T08:35:19Z</time>
      </trkpt>
      <trkpt lat="45.66951" lon="3.21075">
        <ele>356.6</ele>
        <time>2024-05-19T08:35:20Z</time>
      </trkpt>
      <trkpt lat="45.66957" lon="3.21078">
        <ele>356.8</ele>
        <time>2024-05-19T08:35:21Z</time>
      </trkpt>
      <trkpt lat="45.66962" lon="3.21081">
        <ele>356.8</ele>
        <time>2024-05-19T08:35:22Z</time>
      </trkpt>
      <trkpt lat="45.66968" lon="3.21082">
        <ele>357</ele>
        <time>2024-05-19T08:35:23Z</time>
      </trkpt>
      <trkpt lat="45.66974" lon="3.21081">
        <ele>357</ele>
        <time>2024-05-19T08:35:24Z</time>
      </trkpt>
      <trkpt lat="45.6698" lon="3.21081">
        <ele>357.2</ele>
        <time>2024-05-19T08:35:25Z</time>
      </trkpt>
      <trkpt lat="45.66986" lon="3.2108">
        <ele>357.2</ele>
        <time>2024-05-19T08:35:26Z</time>
      </trkpt>
      <trkpt lat="45.66992" lon="3.2108">
        <ele>357.2</ele>
        <time>2024-05-19T08:35:27Z</time>
      </trkpt>
      <trkpt lat="45.66998" lon="3.2108">
        <ele>357.4</ele>
        <time>2024-05-19T08:35:28Z</time>
      </trkpt>
      <trkpt lat="45.67003" lon="3.21079">
        <ele>357.4</ele>
        <time>2024-05-19T08:35:29Z</time>
      </trkpt>
      <trkpt lat="45.67009" lon="3.21079">
        <ele>357.6</ele>
        <time>2024-05-19T08:35:30Z</time>
      </trkpt>
      <trkpt lat="45.67015" lon="3.21078">
        <ele>357.6</ele>
        <time>2024-05-19T08:35:31Z</time>
      </trkpt>
      <trkpt lat="45.6702" lon="3.21078">
        <ele>357.6</ele>
        <time>2024-05-19T08:35:32Z</time>
      </trkpt>
      <trkpt lat="45.67026" lon="3.21077">
        <ele>357.8</ele>
        <time>2024-05-19T08:35:33Z</time>
      </trkpt>
      <trkpt lat="45.67031" lon="3.21075">
        <ele>357.8</ele>
        <time>2024-05-19T08:35:34Z</time>
      </trkpt>
      <trkpt lat="45.67037" lon="3.21072">
        <ele>358</ele>
        <time>2024-05-19T08:35:35Z</time>
      </trkpt>
      <trkpt lat="45.67042" lon="3.21069">
        <ele>358</ele>
        <time>2024-05-19T08:35:36Z</time>
      </trkpt>
      <trkpt lat="45.67048" lon="3.21066">
        <ele>358</ele>
        <time>2024-05-19T08:35:37Z</time>
      </trkpt>
      <trkpt lat="45.67054" lon="3.21063">
        <ele>358.2</ele>
        <time>2024-05-19T08:35:38Z</time>
      </trkpt>
      <trkpt lat="45.67059" lon="3.21061">
        <ele>358.2</ele>
        <time>2024-05-19T08:35:39Z</time>
      </trkpt>
      <trkpt lat="45.67065" lon="3.21058">
        <ele>358.2</ele>
        <time>2024-05-19T08:35:40Z</time>
      </trkpt>
      <trkpt lat="45.67071" lon="3.21055">
        <ele>358.4</ele>
        <time>2024-05-19T08:35:41Z</time>
      </trkpt>
      <trkpt lat="45.67076" lon="3.21052">
        <ele>358.4</ele>
        <time>2024-05-19T08:35:42Z</time>
      </trkpt>
      <trkpt lat="45.67081" lon="3.21047">
        <ele>358.6</ele>
        <time>2024-05-19T08:35:43Z</time>
      </trkpt>
      <trkpt lat="45.67086" lon="3.21042">
        <ele>358.6</ele>
        <time>2024-05-19T08:35:44Z</time>
      </trkpt>
      <trkpt lat="45.67091" lon="3.21037">
        <ele>358.6</ele>
        <time>2024-05-19T08:35:45Z</time>
      </trkpt>
      <trkpt lat="45.67096" lon="3.21033">
        <ele>358.8</ele>
        <time>2024-05-19T08:35:46Z</time>
      </trkpt>
      <trkpt lat="45.67101" lon="3.21028">
        <ele>358.8</ele>
        <time>2024-05-19T08:35:47Z</time>
      </trkpt>
      <trkpt lat="45.67106" lon="3.21023">
        <ele>358.8</ele>
        <time>2024-05-19T08:35:48Z</time>
      </trkpt>
      <trkpt lat="45.67111" lon="3.21018">
        <ele>358.8</ele>
        <time>2024-05-19T08:35:49Z</time>
      </trkpt>
      <trkpt lat="45.67116" lon="3.21011">
        <ele>359</ele>
        <time>2024-05-19T08:35:50Z</time>
      </trkpt>
      <trkpt lat="45.6712" lon="3.21005">
        <ele>359</ele>
        <time>2024-05-19T08:35:51Z</time>
      </trkpt>
      <trkpt lat="45.67125" lon="3.20998">
        <ele>359</ele>
        <time>2024-05-19T08:35:52Z</time>
      </trkpt>
      <trkpt lat="45.67129" lon="3.20991">
        <ele>359.2</ele>
        <time>2024-05-19T08:35:53Z</time>
      </trkpt>
      <trkpt lat="45.67134" lon="3.20984">
        <ele>359</ele>
        <time>2024-05-19T08:35:54Z</time>
      </trkpt>
      <trkpt lat="45.67138" lon="3.20977">
        <ele>359.2</ele>
        <time>2024-05-19T08:35:55Z</time>
      </trkpt>
      <trkpt lat="45.67143" lon="3.2097">
        <ele>359.2</ele>
        <time>2024-05-19T08:35:56Z</time>
      </trkpt>
      <trkpt lat="45.67148" lon="3.20963">
        <ele>359.2</ele>
        <time>2024-05-19T08:35:57Z</time>
      </trkpt>
      <trkpt lat="45.67152" lon="3.20957">
        <ele>359.2</ele>
        <time>2024-05-19T08:35:58Z</time>
      </trkpt>
      <trkpt lat="45.67157" lon="3.2095">
        <ele>359.4</ele>
        <time>2024-05-19T08:35:59Z</time>
      </trkpt>
      <trkpt lat="45.67162" lon="3.20943">
        <ele>359.4</ele>
        <time>2024-05-19T08:36:00Z</time>
      </trkpt>
      <trkpt lat="45.67166" lon="3.20936">
        <ele>359.4</ele>
        <time>2024-05-19T08:36:01Z</time>
      </trkpt>
      <trkpt lat="45.67171" lon="3.20929">
        <ele>359.6</ele>
        <time>2024-05-19T08:36:02Z</time>
      </trkpt>
      <trkpt lat="45.67176" lon="3.20922">
        <ele>359.6</ele>
        <time>2024-05-19T08:36:03Z</time>
      </trkpt>
      <trkpt lat="45.6718" lon="3.20915">
        <ele>359.6</ele>
        <time>2024-05-19T08:36:04Z</time>
      </trkpt>
      <trkpt lat="45.67185" lon="3.20908">
        <ele>359.8</ele>
        <time>2024-05-19T08:36:05Z</time>
      </trkpt>
      <trkpt lat="45.6719" lon="3.20902">
        <ele>359.8</ele>
        <time>2024-05-19T08:36:06Z</time>
      </trkpt>
      <trkpt lat="45.67195" lon="3.20895">
        <ele>359.8</ele>
        <time>2024-05-19T08:36:07Z</time>
      </trkpt>
      <trkpt lat="45.67199" lon="3.20888">
        <ele>359.8</ele>
        <time>2024-05-19T08:36:08Z</time>
      </trkpt>
      <trkpt lat="45.67204" lon="3.20881">
        <ele>360</ele>
        <time>2024-05-19T08:36:09Z</time>
      </trkpt>
      <trkpt lat="45.67209" lon="3.20873">
        <ele>360</ele>
        <time>2024-05-19T08:36:10Z</time>
      </trkpt>
      <trkpt lat="45.67214" lon="3.20866">
        <ele>360</ele>
        <time>2024-05-19T08:36:11Z</time>
      </trkpt>
      <trkpt lat="45.67219" lon="3.20859">
        <ele>360</ele>
        <time>2024-05-19T08:36:12Z</time>
      </trkpt>
      <trkpt lat="45.67223" lon="3.20852">
        <ele>360</ele>
        <time>2024-05-19T08:36:13Z</time>
      </trkpt>
      <trkpt lat="45.67228" lon="3.20845">
        <ele>360.2</ele>
        <time>2024-05-19T08:36:14Z</time>
      </trkpt>
      <trkpt lat="45.67233" lon="3.20838">
        <ele>360.2</ele>
        <time>2024-05-19T08:36:15Z</time>
      </trkpt>
      <trkpt lat="45.67238" lon="3.20831">
        <ele>360.2</ele>
        <time>2024-05-19T08:36:16Z</time>
      </trkpt>
      <trkpt lat="45.67243" lon="3.20823">
        <ele>360.2</ele>
        <time>2024-05-19T08:36:17Z</time>
      </trkpt>
      <trkpt lat="45.67248" lon="3.20816">
        <ele>360.4</ele>
        <time>2024-05-19T08:36:18Z</time>
      </trkpt>
      <trkpt lat="45.67252" lon="3.20809">
        <ele>360.4</ele>
        <time>2024-05-19T08:36:19Z</time>
      </trkpt>
      <trkpt lat="45.67257" lon="3.20802">
        <ele>360.4</ele>
        <time>2024-05-19T08:36:20Z</time>
      </trkpt>
      <trkpt lat="45.67262" lon="3.20795">
        <ele>360.6</ele>
        <time>2024-05-19T08:36:21Z</time>
      </trkpt>
      <trkpt lat="45.67267" lon="3.20788">
        <ele>360.6</ele>
        <time>2024-05-19T08:36:22Z</time>
      </trkpt>
      <trkpt lat="45.67271" lon="3.20781">
        <ele>360.6</ele>
        <time>2024-05-19T08:36:23Z</time>
      </trkpt>
      <trkpt lat="45.67276" lon="3.20774">
        <ele>360.6</ele>
        <time>2024-05-19T08:36:24Z</time>
      </trkpt>
      <trkpt lat="45.67281" lon="3.20767">
        <ele>360.6</ele>
        <time>2024-05-19T08:36:25Z</time>
      </trkpt>
      <trkpt lat="45.67286" lon="3.2076">
        <ele>360.8</ele>
        <time>2024-05-19T08:36:26Z</time>
      </trkpt>
      <trkpt lat="45.67291" lon="3.20753">
        <ele>360.8</ele>
        <time>2024-05-19T08:36:27Z</time>
      </trkpt>
      <trkpt lat="45.67296" lon="3.20747">
        <ele>360.8</ele>
        <time>2024-05-19T08:36:28Z</time>
      </trkpt>
      <trkpt lat="45.673" lon="3.2074">
        <ele>360.8</ele>
        <time>2024-05-19T08:36:29Z</time>
      </trkpt>
      <trkpt lat="45.67305" lon="3.20733">
        <ele>360.8</ele>
        <time>2024-05-19T08:36:30Z</time>
      </trkpt>
      <trkpt lat="45.6731" lon="3.20726">
        <ele>361</ele>
        <time>2024-05-19T08:36:31Z</time>
      </trkpt>
      <trkpt lat="45.67315" lon="3.20718">
        <ele>361</ele>
        <time>2024-05-19T08:36:32Z</time>
      </trkpt>
      <trkpt lat="45.6732" lon="3.20712">
        <ele>361</ele>
        <time>2024-05-19T08:36:33Z</time>
      </trkpt>
      <trkpt lat="45.67324" lon="3.20705">
        <ele>361</ele>
        <time>2024-05-19T08:36:34Z</time>
      </trkpt>
      <trkpt lat="45.67329" lon="3.20698">
        <ele>361.2</ele>
        <time>2024-05-19T08:36:35Z</time>
      </trkpt>
      <trkpt lat="45.67334" lon="3.20691">
        <ele>361.2</ele>
        <time>2024-05-19T08:36:36Z</time>
      </trkpt>
      <trkpt lat="45.67338" lon="3.20684">
        <ele>361.2</ele>
        <time>2024-05-19T08:36:37Z</time>
      </trkpt>
      <trkpt lat="45.67343" lon="3.20678">
        <ele>361.2</ele>
        <time>2024-05-19T08:36:38Z</time>
      </trkpt>
      <trkpt lat="45.67348" lon="3.20671">
        <ele>361.4</ele>
        <time>2024-05-19T08:36:39Z</time>
      </trkpt>
      <trkpt lat="45.67352" lon="3.20665">
        <ele>361.4</ele>
        <time>2024-05-19T08:36:40Z</time>
      </trkpt>
      <trkpt lat="45.67357" lon="3.20658">
        <ele>361.4</ele>
        <time>2024-05-19T08:36:41Z</time>
      </trkpt>
      <trkpt lat="45.67361" lon="3.20652">
        <ele>361.4</ele>
        <time>2024-05-19T08:36:42Z</time>
      </trkpt>
      <trkpt lat="45.67366" lon="3.20645">
        <ele>361.6</ele>
        <time>2024-05-19T08:36:43Z</time>
      </trkpt>
      <trkpt lat="45.6737" lon="3.20638">
        <ele>361.6</ele>
        <time>2024-05-19T08:36:44Z</time>
      </trkpt>
      <trkpt lat="45.67375" lon="3.20632">
        <ele>361.6</ele>
        <time>2024-05-19T08:36:45Z</time>
      </trkpt>
      <trkpt lat="45.67379" lon="3.20625">
        <ele>361.6</ele>
        <time>2024-05-19T08:36:46Z</time>
      </trkpt>
      <trkpt lat="45.67383" lon="3.20619">
        <ele>361.6</ele>
        <time>2024-05-19T08:36:47Z</time>
      </trkpt>
      <trkpt lat="45.67388" lon="3.20613">
        <ele>361.8</ele>
        <time>2024-05-19T08:36:48Z</time>
      </trkpt>
      <trkpt lat="45.67392" lon="3.20606">
        <ele>361.8</ele>
        <time>2024-05-19T08:36:49Z</time>
      </trkpt>
      <trkpt lat="45.67396" lon="3.206">
        <ele>361.8</ele>
        <time>2024-05-19T08:36:50Z</time>
      </trkpt>
      <trkpt lat="45.67401" lon="3.20594">
        <ele>361.8</ele>
        <time>2024-05-19T08:36:51Z</time>
      </trkpt>
      <trkpt lat="45.67405" lon="3.20588">
        <ele>361.8</ele>
        <time>2024-05-19T08:36:52Z</time>
      </trkpt>
      <trkpt lat="45.67409" lon="3.20582">
        <ele>362</ele>
        <time>2024-05-19T08:36:53Z</time>
      </trkpt>
      <trkpt lat="45.67413" lon="3.20576">
        <ele>362</ele>
        <time>2024-05-19T08:36:54Z</time>
      </trkpt>
      <trkpt lat="45.67417" lon="3.2057">
        <ele>362</ele>
        <time>2024-05-19T08:36:55Z</time>
      </trkpt>
      <trkpt lat="45.67421" lon="3.20564">
        <ele>362</ele>
        <time>2024-05-19T08:36:56Z</time>
      </trkpt>
      <trkpt lat="45.67426" lon="3.20558">
        <ele>362.2</ele>
        <time>2024-05-19T08:36:57Z</time>
      </trkpt>
      <trkpt lat="45.6743" lon="3.20552">
        <ele>362.2</ele>
        <time>2024-05-19T08:36:58Z</time>
      </trkpt>
      <trkpt lat="45.67434" lon="3.20546">
        <ele>362.2</ele>
        <time>2024-05-19T08:36:59Z</time>
      </trkpt>
      <trkpt lat="45.67438" lon="3.2054">
        <ele>362.2</ele>
        <time>2024-05-19T08:37:00Z</time>
      </trkpt>
      <trkpt lat="45.67442" lon="3.20534">
        <ele>362.4</ele>
        <time>2024-05-19T08:37:01Z</time>
      </trkpt>
      <trkpt lat="45.67446" lon="3.20528">
        <ele>362.4</ele>
        <time>2024-05-19T08:37:02Z</time>
      </trkpt>
      <trkpt lat="45.6745" lon="3.20522">
        <ele>362.4</ele>
        <time>2024-05-19T08:37:03Z</time>
      </trkpt>
      <trkpt lat="45.67454" lon="3.20516">
        <ele>362.6</ele>
        <time>2024-05-19T08:37:04Z</time>
      </trkpt>
      <trkpt lat="45.67458" lon="3.20511">
        <ele>362.6</ele>
        <time>2024-05-19T08:37:05Z</time>
      </trkpt>
      <trkpt lat="45.67462" lon="3.20505">
        <ele>362.6</ele>
        <time>2024-05-19T08:37:06Z</time>
      </trkpt>
      <trkpt lat="45.67466" lon="3.20499">
        <ele>362.8</ele>
        <time>2024-05-19T08:37:07Z</time>
      </trkpt>
      <trkpt lat="45.6747" lon="3.20493">
        <ele>362.8</ele>
        <time>2024-05-19T08:37:08Z</time>
      </trkpt>
      <trkpt lat="45.67474" lon="3.20487">
        <ele>362.8</ele>
        <time>2024-05-19T08:37:09Z</time>
      </trkpt>
      <trkpt lat="45.67478" lon="3.20482">
        <ele>363</ele>
        <time>2024-05-19T08:37:10Z</time>
      </trkpt>
      <trkpt lat="45.67482" lon="3.20476">
        <ele>363</ele>
        <time>2024-05-19T08:37:11Z</time>
      </trkpt>
      <trkpt lat="45.67486" lon="3.2047">
        <ele>363.2</ele>
        <time>2024-05-19T08:37:12Z</time>
      </trkpt>
      <trkpt lat="45.6749" lon="3.20464">
        <ele>363.2</ele>
        <time>2024-05-19T08:37:13Z</time>
      </trkpt>
      <trkpt lat="45.67494" lon="3.20459">
        <ele>363.2</ele>
        <time>2024-05-19T08:37:14Z</time>
      </trkpt>
      <trkpt lat="45.67498" lon="3.20453">
        <ele>363.2</ele>
        <time>2024-05-19T08:37:15Z</time>
      </trkpt>
      <trkpt lat="45.67502" lon="3.20447">
        <ele>363.4</ele>
        <time>2024-05-19T08:37:16Z</time>
      </trkpt>
      <trkpt lat="45.67506" lon="3.20442">
        <ele>363.4</ele>
        <time>2024-05-19T08:37:17Z</time>
      </trkpt>
      <trkpt lat="45.6751" lon="3.20436">
        <ele>363.6</ele>
        <time>2024-05-19T08:37:18Z</time>
      </trkpt>
      <trkpt lat="45.67514" lon="3.2043">
        <ele>363.6</ele>
        <time>2024-05-19T08:37:19Z</time>
      </trkpt>
      <trkpt lat="45.67517" lon="3.20425">
        <ele>363.8</ele>
        <time>2024-05-19T08:37:20Z</time>
      </trkpt>
      <trkpt lat="45.67521" lon="3.20419">
        <ele>363.8</ele>
        <time>2024-05-19T08:37:21Z</time>
      </trkpt>
      <trkpt lat="45.67525" lon="3.20413">
        <ele>363.8</ele>
        <time>2024-05-19T08:37:22Z</time>
      </trkpt>
      <trkpt lat="45.67529" lon="3.20408">
        <ele>364</ele>
        <time>2024-05-19T08:37:23Z</time>
      </trkpt>
      <trkpt lat="45.67533" lon="3.20402">
        <ele>364.2</ele>
        <time>2024-05-19T08:37:24Z</time>
      </trkpt>
      <trkpt lat="45.67537" lon="3.20397">
        <ele>364.2</ele>
        <time>2024-05-19T08:37:25Z</time>
      </trkpt>
      <trkpt lat="45.67541" lon="3.20391">
        <ele>364.4</ele>
        <time>2024-05-19T08:37:26Z</time>
      </trkpt>
      <trkpt lat="45.67544" lon="3.20385">
        <ele>364.4</ele>
        <time>2024-05-19T08:37:27Z</time>
      </trkpt>
      <trkpt lat="45.67548" lon="3.2038">
        <ele>364.4</ele>
        <time>2024-05-19T08:37:28Z</time>
      </trkpt>
      <trkpt lat="45.67552" lon="3.20374">
        <ele>364.6</ele>
        <time>2024-05-19T08:37:29Z</time>
      </trkpt>
      <trkpt lat="45.67556" lon="3.20368">
        <ele>364.6</ele>
        <time>2024-05-19T08:37:30Z</time>
      </trkpt>
      <trkpt lat="45.6756" lon="3.20362">
        <ele>364.8</ele>
        <time>2024-05-19T08:37:31Z</time>
      </trkpt>
      <trkpt lat="45.67564" lon="3.20357">
        <ele>364.8</ele>
        <time>2024-05-19T08:37:32Z</time>
      </trkpt>
      <trkpt lat="45.67568" lon="3.20351">
        <ele>365</ele>
        <time>2024-05-19T08:37:33Z</time>
      </trkpt>
      <trkpt lat="45.67572" lon="3.20345">
        <ele>365</ele>
        <time>2024-05-19T08:37:34Z</time>
      </trkpt>
      <trkpt lat="45.67575" lon="3.20339">
        <ele>365.2</ele>
        <time>2024-05-19T08:37:35Z</time>
      </trkpt>
      <trkpt lat="45.67578" lon="3.20333">
        <ele>365.2</ele>
        <time>2024-05-19T08:37:36Z</time>
      </trkpt>
      <trkpt lat="45.67581" lon="3.20326">
        <ele>365.2</ele>
        <time>2024-05-19T08:37:37Z</time>
      </trkpt>
      <trkpt lat="45.67584" lon="3.2032">
        <ele>365.4</ele>
        <time>2024-05-19T08:37:38Z</time>
      </trkpt>
      <trkpt lat="45.67587" lon="3.20314">
        <ele>365.4</ele>
        <time>2024-05-19T08:37:39Z</time>
      </trkpt>
      <trkpt lat="45.67591" lon="3.20307">
        <ele>365.6</ele>
        <time>2024-05-19T08:37:40Z</time>
      </trkpt>
      <trkpt lat="45.67594" lon="3.20301">
        <ele>365.6</ele>
        <time>2024-05-19T08:37:41Z</time>
      </trkpt>
      <trkpt lat="45.67597" lon="3.20294">
        <ele>365.8</ele>
        <time>2024-05-19T08:37:42Z</time>
      </trkpt>
      <trkpt lat="45.676" lon="3.20288">
        <ele>365.8</ele>
        <time>2024-05-19T08:37:43Z</time>
      </trkpt>
      <trkpt lat="45.67604" lon="3.20281">
        <ele>366</ele>
        <time>2024-05-19T08:37:44Z</time>
      </trkpt>
      <trkpt lat="45.67607" lon="3.20275">
        <ele>366.2</ele>
        <time>2024-05-19T08:37:45Z</time>
      </trkpt>
      <trkpt lat="45.6761" lon="3.20268">
        <ele>366.2</ele>
        <time>2024-05-19T08:37:46Z</time>
      </trkpt>
      <trkpt lat="45.67613" lon="3.20262">
        <ele>366.2</ele>
        <time>2024-05-19T08:37:47Z</time>
      </trkpt>
      <trkpt lat="45.67617" lon="3.20255">
        <ele>366.4</ele>
        <time>2024-05-19T08:37:48Z</time>
      </trkpt>
      <trkpt lat="45.6762" lon="3.20249">
        <ele>366.6</ele>
        <time>2024-05-19T08:37:49Z</time>
      </trkpt>
      <trkpt lat="45.67623" lon="3.20242">
        <ele>366.6</ele>
        <time>2024-05-19T08:37:50Z</time>
      </trkpt>
      <trkpt lat="45.67626" lon="3.20236">
        <ele>366.6</ele>
        <time>2024-05-19T08:37:51Z</time>
      </trkpt>
      <trkpt lat="45.67629" lon="3.20229">
        <ele>366.8</ele>
        <time>2024-05-19T08:37:52Z</time>
      </trkpt>
      <trkpt lat="45.67632" lon="3.20223">
        <ele>366.8</ele>
        <time>2024-05-19T08:37:53Z</time>
      </trkpt>
      <trkpt lat="45.67635" lon="3.20216">
        <ele>367</ele>
        <time>2024-05-19T08:37:54Z</time>
      </trkpt>
      <trkpt lat="45.67638" lon="3.20209">
        <ele>367</ele>
        <time>2024-05-19T08:37:55Z</time>
      </trkpt>
      <trkpt lat="45.67641" lon="3.20202">
        <ele>367.2</ele>
        <time>2024-05-19T08:37:56Z</time>
      </trkpt>
      <trkpt lat="45.67644" lon="3.20195">
        <ele>367.2</ele>
        <time>2024-05-19T08:37:57Z</time>
      </trkpt>
      <trkpt lat="45.67647" lon="3.20188">
        <ele>367.2</ele>
        <time>2024-05-19T08:37:58Z</time>
      </trkpt>
      <trkpt lat="45.6765" lon="3.20181">
        <ele>367.4</ele>
        <time>2024-05-19T08:37:59Z</time>
      </trkpt>
      <trkpt lat="45.67653" lon="3.20174">
        <ele>367.4</ele>
        <time>2024-05-19T08:38:00Z</time>
      </trkpt>
      <trkpt lat="45.67655" lon="3.20166">
        <ele>367.4</ele>
        <time>2024-05-19T08:38:01Z</time>
      </trkpt>
      <trkpt lat="45.67658" lon="3.20159">
        <ele>367.6</ele>
        <time>2024-05-19T08:38:02Z</time>
      </trkpt>
      <trkpt lat="45.6766" lon="3.20152">
        <ele>367.6</ele>
        <time>2024-05-19T08:38:03Z</time>
      </trkpt>
      <trkpt lat="45.67663" lon="3.20145">
        <ele>367.8</ele>
        <time>2024-05-19T08:38:04Z</time>
      </trkpt>
      <trkpt lat="45.67666" lon="3.20138">
        <ele>367.8</ele>
        <time>2024-05-19T08:38:05Z</time>
      </trkpt>
      <trkpt lat="45.67668" lon="3.20131">
        <ele>368</ele>
        <time>2024-05-19T08:38:06Z</time>
      </trkpt>
      <trkpt lat="45.67671" lon="3.20123">
        <ele>368</ele>
        <time>2024-05-19T08:38:07Z</time>
      </trkpt>
      <trkpt lat="45.67673" lon="3.20116">
        <ele>368.2</ele>
        <time>2024-05-19T08:38:08Z</time>
      </trkpt>
      <trkpt lat="45.67676" lon="3.20109">
        <ele>368.2</ele>
        <time>2024-05-19T08:38:09Z</time>
      </trkpt>
      <trkpt lat="45.67678" lon="3.20102">
        <ele>368.4</ele>
        <time>2024-05-19T08:38:10Z</time>
      </trkpt>
      <trkpt lat="45.67681" lon="3.20095">
        <ele>368.4</ele>
        <time>2024-05-19T08:38:11Z</time>
      </trkpt>
      <trkpt lat="45.67683" lon="3.20088">
        <ele>368.4</ele>
        <time>2024-05-19T08:38:12Z</time>
      </trkpt>
      <trkpt lat="45.67686" lon="3.20081">
        <ele>368.6</ele>
        <time>2024-05-19T08:38:13Z</time>
      </trkpt>
      <trkpt lat="45.67688" lon="3.20074">
        <ele>368.6</ele>
        <time>2024-05-19T08:38:14Z</time>
      </trkpt>
      <trkpt lat="45.67691" lon="3.20067">
        <ele>368.8</ele>
        <time>2024-05-19T08:38:15Z</time>
      </trkpt>
      <trkpt lat="45.67693" lon="3.2006">
        <ele>368.8</ele>
        <time>2024-05-19T08:38:16Z</time>
      </trkpt>
      <trkpt lat="45.67696" lon="3.20053">
        <ele>369</ele>
        <time>2024-05-19T08:38:17Z</time>
      </trkpt>
      <trkpt lat="45.67698" lon="3.20046">
        <ele>369</ele>
        <time>2024-05-19T08:38:18Z</time>
      </trkpt>
      <trkpt lat="45.67701" lon="3.20039">
        <ele>369.2</ele>
        <time>2024-05-19T08:38:19Z</time>
      </trkpt>
      <trkpt lat="45.67704" lon="3.20032">
        <ele>369.2</ele>
        <time>2024-05-19T08:38:20Z</time>
      </trkpt>
      <trkpt lat="45.67706" lon="3.20024">
        <ele>369.2</ele>
        <time>2024-05-19T08:38:21Z</time>
      </trkpt>
      <trkpt lat="45.67709" lon="3.20017">
        <ele>369.4</ele>
        <time>2024-05-19T08:38:22Z</time>
      </trkpt>
      <trkpt lat="45.67712" lon="3.20009">
        <ele>369.4</ele>
        <time>2024-05-19T08:38:23Z</time>
      </trkpt>
      <trkpt lat="45.67715" lon="3.20002">
        <ele>369.4</ele>
        <time>2024-05-19T08:38:24Z</time>
      </trkpt>
      <trkpt lat="45.67718" lon="3.19995">
        <ele>369.6</ele>
        <time>2024-05-19T08:38:25Z</time>
      </trkpt>
      <trkpt lat="45.67721" lon="3.19987">
        <ele>369.6</ele>
        <time>2024-05-19T08:38:26Z</time>
      </trkpt>
      <trkpt lat="45.67724" lon="3.19979">
        <ele>369.8</ele>
        <time>2024-05-19T08:38:27Z</time>
      </trkpt>
      <trkpt lat="45.67727" lon="3.19971">
        <ele>369.8</ele>
        <time>2024-05-19T08:38:28Z</time>
      </trkpt>
      <trkpt lat="45.6773" lon="3.19963">
        <ele>369.8</ele>
        <time>2024-05-19T08:38:29Z</time>
      </trkpt>
      <trkpt lat="45.67734" lon="3.19955">
        <ele>369.8</ele>
        <time>2024-05-19T08:38:30Z</time>
      </trkpt>
      <trkpt lat="45.67737" lon="3.19947">
        <ele>369.8</ele>
        <time>2024-05-19T08:38:31Z</time>
      </trkpt>
      <trkpt lat="45.67741" lon="3.1994">
        <ele>370</ele>
        <time>2024-05-19T08:38:32Z</time>
      </trkpt>
      <trkpt lat="45.67746" lon="3.19933">
        <ele>370</ele>
        <time>2024-05-19T08:38:33Z</time>
      </trkpt>
      <trkpt lat="45.67751" lon="3.19926">
        <ele>370</ele>
        <time>2024-05-19T08:38:34Z</time>
      </trkpt>
      <trkpt lat="45.67756" lon="3.19919">
        <ele>370</ele>
        <time>2024-05-19T08:38:35Z</time>
      </trkpt>
      <trkpt lat="45.67762" lon="3.19911">
        <ele>370</ele>
        <time>2024-05-19T08:38:36Z</time>
      </trkpt>
      <trkpt lat="45.67767" lon="3.19904">
        <ele>370</ele>
        <time>2024-05-19T08:38:37Z</time>
      </trkpt>
      <trkpt lat="45.67773" lon="3.19896">
        <ele>370</ele>
        <time>2024-05-19T08:38:38Z</time>
      </trkpt>
      <trkpt lat="45.67778" lon="3.19889">
        <ele>370</ele>
        <time>2024-05-19T08:38:39Z</time>
      </trkpt>
      <trkpt lat="45.67784" lon="3.19881">
        <ele>370</ele>
        <time>2024-05-19T08:38:40Z</time>
      </trkpt>
      <trkpt lat="45.67791" lon="3.19874">
        <ele>370</ele>
        <time>2024-05-19T08:38:41Z</time>
      </trkpt>
      <trkpt lat="45.67799" lon="3.19868">
        <ele>370</ele>
        <time>2024-05-19T08:38:42Z</time>
      </trkpt>
      <trkpt lat="45.67806" lon="3.19861">
        <ele>370</ele>
        <time>2024-05-19T08:38:43Z</time>
      </trkpt>
      <trkpt lat="45.67814" lon="3.19854">
        <ele>370</ele>
        <time>2024-05-19T08:38:44Z</time>
      </trkpt>
      <trkpt lat="45.67822" lon="3.19847">
        <ele>370</ele>
        <time>2024-05-19T08:38:45Z</time>
      </trkpt>
      <trkpt lat="45.67829" lon="3.1984">
        <ele>370</ele>
        <time>2024-05-19T08:38:46Z</time>
      </trkpt>
      <trkpt lat="45.67837" lon="3.19832">
        <ele>369.8</ele>
        <time>2024-05-19T08:38:47Z</time>
      </trkpt>
      <trkpt lat="45.67844" lon="3.19823">
        <ele>369.8</ele>
        <time>2024-05-19T08:38:48Z</time>
      </trkpt>
      <trkpt lat="45.67852" lon="3.19814">
        <ele>369.8</ele>
        <time>2024-05-19T08:38:49Z</time>
      </trkpt>
      <trkpt lat="45.67859" lon="3.19804">
        <ele>369.4</ele>
        <time>2024-05-19T08:38:50Z</time>
      </trkpt>
      <trkpt lat="45.67866" lon="3.19794">
        <ele>369.4</ele>
        <time>2024-05-19T08:38:51Z</time>
      </trkpt>
      <trkpt lat="45.67873" lon="3.19783">
        <ele>369.2</ele>
        <time>2024-05-19T08:38:52Z</time>
      </trkpt>
      <trkpt lat="45.67878" lon="3.19771">
        <ele>369.2</ele>
        <time>2024-05-19T08:38:53Z</time>
      </trkpt>
      <trkpt lat="45.67884" lon="3.19759">
        <ele>369</ele>
        <time>2024-05-19T08:38:54Z</time>
      </trkpt>
      <trkpt lat="45.67889" lon="3.19747">
        <ele>368.8</ele>
        <time>2024-05-19T08:38:55Z</time>
      </trkpt>
      <trkpt lat="45.67895" lon="3.19735">
        <ele>368.6</ele>
        <time>2024-05-19T08:38:56Z</time>
      </trkpt>
      <trkpt lat="45.679" lon="3.19723">
        <ele>368.4</ele>
        <time>2024-05-19T08:38:57Z</time>
      </trkpt>
      <trkpt lat="45.67906" lon="3.1971">
        <ele>368.2</ele>
        <time>2024-05-19T08:38:58Z</time>
      </trkpt>
      <trkpt lat="45.67912" lon="3.19697">
        <ele>368</ele>
        <time>2024-05-19T08:38:59Z</time>
      </trkpt>
      <trkpt lat="45.67917" lon="3.19684">
        <ele>367.8</ele>
        <time>2024-05-19T08:39:00Z</time>
      </trkpt>
      <trkpt lat="45.67923" lon="3.19671">
        <ele>367.6</ele>
        <time>2024-05-19T08:39:01Z</time>
      </trkpt>
      <trkpt lat="45.67929" lon="3.19658">
        <ele>367.4</ele>
        <time>2024-05-19T08:39:02Z</time>
      </trkpt>
      <trkpt lat="45.67934" lon="3.19644">
        <ele>367</ele>
        <time>2024-05-19T08:39:03Z</time>
      </trkpt>
      <trkpt lat="45.67939" lon="3.19631">
        <ele>366.8</ele>
        <time>2024-05-19T08:39:04Z</time>
      </trkpt>
      <trkpt lat="45.67945" lon="3.19618">
        <ele>366.6</ele>
        <time>2024-05-19T08:39:05Z</time>
      </trkpt>
      <trkpt lat="45.67951" lon="3.19605">
        <ele>366.6</ele>
        <time>2024-05-19T08:39:06Z</time>
      </trkpt>
      <trkpt lat="45.67956" lon="3.19592">
        <ele>366.4</ele>
        <time>2024-05-19T08:39:07Z</time>
      </trkpt>
      <trkpt lat="45.67961" lon="3.19579">
        <ele>366.2</ele>
        <time>2024-05-19T08:39:08Z</time>
      </trkpt>
      <trkpt lat="45.67966" lon="3.19566">
        <ele>366</ele>
        <time>2024-05-19T08:39:09Z</time>
      </trkpt>
      <trkpt lat="45.67971" lon="3.19553">
        <ele>365.8</ele>
        <time>2024-05-19T08:39:10Z</time>
      </trkpt>
      <trkpt lat="45.67975" lon="3.19542">
        <ele>365.6</ele>
        <time>2024-05-19T08:39:11Z</time>
      </trkpt>
      <trkpt lat="45.67979" lon="3.19531">
        <ele>365.6</ele>
        <time>2024-05-19T08:39:12Z</time>
      </trkpt>
      <trkpt lat="45.67982" lon="3.19522">
        <ele>365.4</ele>
        <time>2024-05-19T08:39:13Z</time>
      </trkpt>
      <trkpt lat="45.67985" lon="3.19513">
        <ele>365.4</ele>
        <time>2024-05-19T08:39:14Z</time>
      </trkpt>
      <trkpt lat="45.67988" lon="3.19506">
        <ele>365.2</ele>
        <time>2024-05-19T08:39:15Z</time>
      </trkpt>
      <trkpt lat="45.6799" lon="3.19502">
        <ele>365</ele>
        <time>2024-05-19T08:39:16Z</time>
      </trkpt>
      <trkpt lat="45.67991" lon="3.19499">
        <ele>365</ele>
        <time>2024-05-19T08:39:17Z</time>
      </trkpt>
      <trkpt lat="45.67991" lon="3.19498">
        <ele>364.8</ele>
        <time>2024-05-19T08:39:18Z</time>
      </trkpt>
      <trkpt lat="45.67991" lon="3.19498">
        <ele>364.8</ele>
        <time>2024-05-19T08:39:19Z</time>
      </trkpt>
      <trkpt lat="45.67991" lon="3.19498">
        <ele>364.6</ele>
        <time>2024-05-19T08:39:20Z</time>
      </trkpt>
      <trkpt lat="45.67991" lon="3.19497">
        <ele>364.6</ele>
        <time>2024-05-19T08:39:21Z</time>
      </trkpt>
      <trkpt lat="45.67992" lon="3.19494">
        <ele>364.4</ele>
        <time>2024-05-19T08:39:22Z</time>
      </trkpt>
      <trkpt lat="45.67993" lon="3.19492">
        <ele>364.2</ele>
        <time>2024-05-19T08:39:23Z</time>
      </trkpt>
      <trkpt lat="45.67995" lon="3.19488">
        <ele>364</ele>
        <time>2024-05-19T08:39:24Z</time>
      </trkpt>
      <trkpt lat="45.67996" lon="3.19484">
        <ele>363.8</ele>
        <time>2024-05-19T08:39:25Z</time>
      </trkpt>
      <trkpt lat="45.67998" lon="3.19479">
        <ele>363.6</ele>
        <time>2024-05-19T08:39:26Z</time>
      </trkpt>
      <trkpt lat="45.68" lon="3.19472">
        <ele>363.4</ele>
        <time>2024-05-19T08:39:27Z</time>
      </trkpt>
      <trkpt lat="45.68002" lon="3.19465">
        <ele>363.2</ele>
        <time>2024-05-19T08:39:28Z</time>
      </trkpt>
      <trkpt lat="45.68005" lon="3.19457">
        <ele>363</ele>
        <time>2024-05-19T08:39:29Z</time>
      </trkpt>
      <trkpt lat="45.68007" lon="3.19449">
        <ele>363</ele>
        <time>2024-05-19T08:39:30Z</time>
      </trkpt>
      <trkpt lat="45.6801" lon="3.1944">
        <ele>362.8</ele>
        <time>2024-05-19T08:39:31Z</time>
      </trkpt>
      <trkpt lat="45.68013" lon="3.19431">
        <ele>362.4</ele>
        <time>2024-05-19T08:39:32Z</time>
      </trkpt>
      <trkpt lat="45.68015" lon="3.19422">
        <ele>362.4</ele>
        <time>2024-05-19T08:39:33Z</time>
      </trkpt>
      <trkpt lat="45.68018" lon="3.19413">
        <ele>362</ele>
        <time>2024-05-19T08:39:34Z</time>
      </trkpt>
      <trkpt lat="45.68021" lon="3.19403">
        <ele>362</ele>
        <time>2024-05-19T08:39:35Z</time>
      </trkpt>
      <trkpt lat="45.68023" lon="3.19393">
        <ele>361.8</ele>
        <time>2024-05-19T08:39:36Z</time>
      </trkpt>
      <trkpt lat="45.68026" lon="3.19384">
        <ele>361.6</ele>
        <time>2024-05-19T08:39:37Z</time>
      </trkpt>
      <trkpt lat="45.68029" lon="3.19374">
        <ele>361.4</ele>
        <time>2024-05-19T08:39:38Z</time>
      </trkpt>
      <trkpt lat="45.68032" lon="3.19364">
        <ele>361.4</ele>
        <time>2024-05-19T08:39:39Z</time>
      </trkpt>
      <trkpt lat="45.68035" lon="3.19354">
        <ele>361.2</ele>
        <time>2024-05-19T08:39:40Z</time>
      </trkpt>
      <trkpt lat="45.68038" lon="3.19344">
        <ele>361</ele>
        <time>2024-05-19T08:39:41Z</time>
      </trkpt>
      <trkpt lat="45.6804" lon="3.19334">
        <ele>360.8</ele>
        <time>2024-05-19T08:39:42Z</time>
      </trkpt>
      <trkpt lat="45.68043" lon="3.19324">
        <ele>360.6</ele>
        <time>2024-05-19T08:39:43Z</time>
      </trkpt>
      <trkpt lat="45.68045" lon="3.19314">
        <ele>360.4</ele>
        <time>2024-05-19T08:39:44Z</time>
      </trkpt>
      <trkpt lat="45.68048" lon="3.19305">
        <ele>360.2</ele>
        <time>2024-05-19T08:39:45Z</time>
      </trkpt>
      <trkpt lat="45.68051" lon="3.19295">
        <ele>360.2</ele>
        <time>2024-05-19T08:39:46Z</time>
      </trkpt>
      <trkpt lat="45.68053" lon="3.19285">
        <ele>360</ele>
        <time>2024-05-19T08:39:47Z</time>
      </trkpt>
      <trkpt lat="45.68057" lon="3.19275">
        <ele>360</ele>
        <time>2024-05-19T08:39:48Z</time>
      </trkpt>
      <trkpt lat="45.6806" lon="3.19265">
        <ele>359.8</ele>
        <time>2024-05-19T08:39:49Z</time>
      </trkpt>
      <trkpt lat="45.68063" lon="3.19255">
        <ele>359.6</ele>
        <time>2024-05-19T08:39:50Z</time>
      </trkpt>
      <trkpt lat="45.68066" lon="3.19245">
        <ele>359.6</ele>
        <time>2024-05-19T08:39:51Z</time>
      </trkpt>
      <trkpt lat="45.6807" lon="3.19235">
        <ele>359.4</ele>
        <time>2024-05-19T08:39:52Z</time>
      </trkpt>
      <trkpt lat="45.68073" lon="3.19225">
        <ele>359.2</ele>
        <time>2024-05-19T08:39:53Z</time>
      </trkpt>
      <trkpt lat="45.68076" lon="3.19215">
        <ele>359.2</ele>
        <time>2024-05-19T08:39:54Z</time>
      </trkpt>
      <trkpt lat="45.68079" lon="3.19204">
        <ele>359</ele>
        <time>2024-05-19T08:39:55Z</time>
      </trkpt>
      <trkpt lat="45.68085" lon="3.19195">
        <ele>358.8</ele>
        <time>2024-05-19T08:39:56Z</time>
      </trkpt>
      <trkpt lat="45.68091" lon="3.19189">
        <ele>358.6</ele>
        <time>2024-05-19T08:39:57Z</time>
      </trkpt>
      <trkpt lat="45.68099" lon="3.19189">
        <ele>358.6</ele>
        <time>2024-05-19T08:39:58Z</time>
      </trkpt>
      <trkpt lat="45.68107" lon="3.19191">
        <ele>358.4</ele>
        <time>2024-05-19T08:39:59Z</time>
      </trkpt>
      <trkpt lat="45.68114" lon="3.19193">
        <ele>358.4</ele>
        <time>2024-05-19T08:40:00Z</time>
      </trkpt>
      <trkpt lat="45.68122" lon="3.19196">
        <ele>358.2</ele>
        <time>2024-05-19T08:40:01Z</time>
      </trkpt>
      <trkpt lat="45.68129" lon="3.19198">
        <ele>358.2</ele>
        <time>2024-05-19T08:40:02Z</time>
      </trkpt>
      <trkpt lat="45.68137" lon="3.19202">
        <ele>358.2</ele>
        <time>2024-05-19T08:40:03Z</time>
      </trkpt>
      <trkpt lat="45.68145" lon="3.19206">
        <ele>358</ele>
        <time>2024-05-19T08:40:04Z</time>
      </trkpt>
      <trkpt lat="45.68152" lon="3.1921">
        <ele>358</ele>
        <time>2024-05-19T08:40:05Z</time>
      </trkpt>
      <trkpt lat="45.68159" lon="3.19215">
        <ele>357.8</ele>
        <time>2024-05-19T08:40:06Z</time>
      </trkpt>
      <trkpt lat="45.68166" lon="3.19219">
        <ele>357.8</ele>
        <time>2024-05-19T08:40:07Z</time>
      </trkpt>
      <trkpt lat="45.68173" lon="3.19223">
        <ele>357.8</ele>
        <time>2024-05-19T08:40:08Z</time>
      </trkpt>
      <trkpt lat="45.6818" lon="3.19227">
        <ele>357.8</ele>
        <time>2024-05-19T08:40:09Z</time>
      </trkpt>
      <trkpt lat="45.68187" lon="3.19231">
        <ele>357.6</ele>
        <time>2024-05-19T08:40:10Z</time>
      </trkpt>
      <trkpt lat="45.68194" lon="3.19235">
        <ele>357.6</ele>
        <time>2024-05-19T08:40:11Z</time>
      </trkpt>
      <trkpt lat="45.68201" lon="3.19239">
        <ele>357.4</ele>
        <time>2024-05-19T08:40:12Z</time>
      </trkpt>
      <trkpt lat="45.68207" lon="3.19243">
        <ele>357.4</ele>
        <time>2024-05-19T08:40:13Z</time>
      </trkpt>
      <trkpt lat="45.68214" lon="3.19248">
        <ele>357.2</ele>
        <time>2024-05-19T08:40:14Z</time>
      </trkpt>
      <trkpt lat="45.68221" lon="3.19252">
        <ele>357.2</ele>
        <time>2024-05-19T08:40:15Z</time>
      </trkpt>
      <trkpt lat="45.68228" lon="3.19256">
        <ele>357</ele>
        <time>2024-05-19T08:40:16Z</time>
      </trkpt>
      <trkpt lat="45.68234" lon="3.1926">
        <ele>356.8</ele>
        <time>2024-05-19T08:40:17Z</time>
      </trkpt>
      <trkpt lat="45.68241" lon="3.19264">
        <ele>356.8</ele>
        <time>2024-05-19T08:40:18Z</time>
      </trkpt>
      <trkpt lat="45.68248" lon="3.19268">
        <ele>356.8</ele>
        <time>2024-05-19T08:40:19Z</time>
      </trkpt>
      <trkpt lat="45.68254" lon="3.19272">
        <ele>356.6</ele>
        <time>2024-05-19T08:40:20Z</time>
      </trkpt>
      <trkpt lat="45.68261" lon="3.19276">
        <ele>356.6</ele>
        <time>2024-05-19T08:40:21Z</time>
      </trkpt>
      <trkpt lat="45.68268" lon="3.1928">
        <ele>356.4</ele>
        <time>2024-05-19T08:40:22Z</time>
      </trkpt>
      <trkpt lat="45.68274" lon="3.19284">
        <ele>356.4</ele>
        <time>2024-05-19T08:40:23Z</time>
      </trkpt>
      <trkpt lat="45.68281" lon="3.19287">
        <ele>356.2</ele>
        <time>2024-05-19T08:40:24Z</time>
      </trkpt>
      <trkpt lat="45.68288" lon="3.19291">
        <ele>356.2</ele>
        <time>2024-05-19T08:40:25Z</time>
      </trkpt>
      <trkpt lat="45.68295" lon="3.19294">
        <ele>356</ele>
        <time>2024-05-19T08:40:26Z</time>
      </trkpt>
      <trkpt lat="45.68302" lon="3.19299">
        <ele>356</ele>
        <time>2024-05-19T08:40:27Z</time>
      </trkpt>
      <trkpt lat="45.68308" lon="3.19303">
        <ele>355.8</ele>
        <time>2024-05-19T08:40:28Z</time>
      </trkpt>
      <trkpt lat="45.68316" lon="3.19307">
        <ele>355.8</ele>
        <time>2024-05-19T08:40:29Z</time>
      </trkpt>
      <trkpt lat="45.68323" lon="3.19311">
        <ele>355.6</ele>
        <time>2024-05-19T08:40:30Z</time>
      </trkpt>
      <trkpt lat="45.6833" lon="3.19316">
        <ele>355.6</ele>
        <time>2024-05-19T08:40:31Z</time>
      </trkpt>
      <trkpt lat="45.68337" lon="3.1932">
        <ele>355.4</ele>
        <time>2024-05-19T08:40:32Z</time>
      </trkpt>
      <trkpt lat="45.68344" lon="3.19324">
        <ele>355.4</ele>
        <time>2024-05-19T08:40:33Z</time>
      </trkpt>
      <trkpt lat="45.68351" lon="3.19329">
        <ele>355.2</ele>
        <time>2024-05-19T08:40:34Z</time>
      </trkpt>
      <trkpt lat="45.68359" lon="3.19333">
        <ele>355.2</ele>
        <time>2024-05-19T08:40:35Z</time>
      </trkpt>
      <trkpt lat="45.68366" lon="3.19337">
        <ele>355</ele>
        <time>2024-05-19T08:40:36Z</time>
      </trkpt>
      <trkpt lat="45.68373" lon="3.19342">
        <ele>354.8</ele>
        <time>2024-05-19T08:40:37Z</time>
      </trkpt>
      <trkpt lat="45.68381" lon="3.19346">
        <ele>354.8</ele>
        <time>2024-05-19T08:40:38Z</time>
      </trkpt>
      <trkpt lat="45.68388" lon="3.1935">
        <ele>354.6</ele>
        <time>2024-05-19T08:40:39Z</time>
      </trkpt>
      <trkpt lat="45.68395" lon="3.19354">
        <ele>354.6</ele>
        <time>2024-05-19T08:40:40Z</time>
      </trkpt>
      <trkpt lat="45.68403" lon="3.19359">
        <ele>354.4</ele>
        <time>2024-05-19T08:40:41Z</time>
      </trkpt>
      <trkpt lat="45.6841" lon="3.19363">
        <ele>354.2</ele>
        <time>2024-05-19T08:40:42Z</time>
      </trkpt>
      <trkpt lat="45.68417" lon="3.19367">
        <ele>354.2</ele>
        <time>2024-05-19T08:40:43Z</time>
      </trkpt>
      <trkpt lat="45.68425" lon="3.19372">
        <ele>354</ele>
        <time>2024-05-19T08:40:44Z</time>
      </trkpt>
      <trkpt lat="45.68432" lon="3.19376">
        <ele>353.8</ele>
        <time>2024-05-19T08:40:45Z</time>
      </trkpt>
      <trkpt lat="45.68439" lon="3.1938">
        <ele>353.6</ele>
        <time>2024-05-19T08:40:46Z</time>
      </trkpt>
      <trkpt lat="45.68446" lon="3.19384">
        <ele>353.4</ele>
        <time>2024-05-19T08:40:47Z</time>
      </trkpt>
      <trkpt lat="45.68453" lon="3.19388">
        <ele>353.2</ele>
        <time>2024-05-19T08:40:48Z</time>
      </trkpt>
      <trkpt lat="45.6846" lon="3.19392">
        <ele>353.2</ele>
        <time>2024-05-19T08:40:49Z</time>
      </trkpt>
      <trkpt lat="45.68467" lon="3.19396">
        <ele>353</ele>
        <time>2024-05-19T08:40:50Z</time>
      </trkpt>
      <trkpt lat="45.68474" lon="3.19401">
        <ele>353</ele>
        <time>2024-05-19T08:40:51Z</time>
      </trkpt>
      <trkpt lat="45.68481" lon="3.19405">
        <ele>352.8</ele>
        <time>2024-05-19T08:40:52Z</time>
      </trkpt>
      <trkpt lat="45.68487" lon="3.19409">
        <ele>352.6</ele>
        <time>2024-05-19T08:40:53Z</time>
      </trkpt>
      <trkpt lat="45.68494" lon="3.19413">
        <ele>352.6</ele>
        <time>2024-05-19T08:40:54Z</time>
      </trkpt>
      <trkpt lat="45.68501" lon="3.19417">
        <ele>352.4</ele>
        <time>2024-05-19T08:40:55Z</time>
      </trkpt>
      <trkpt lat="45.68508" lon="3.19421">
        <ele>352.4</ele>
        <time>2024-05-19T08:40:56Z</time>
      </trkpt>
      <trkpt lat="45.68515" lon="3.19425">
        <ele>352.2</ele>
        <time>2024-05-19T08:40:57Z</time>
      </trkpt>
      <trkpt lat="45.68522" lon="3.19429">
        <ele>352</ele>
        <time>2024-05-19T08:40:58Z</time>
      </trkpt>
      <trkpt lat="45.68529" lon="3.19433">
        <ele>352</ele>
        <time>2024-05-19T08:40:59Z</time>
      </trkpt>
      <trkpt lat="45.68535" lon="3.19436">
        <ele>352</ele>
        <time>2024-05-19T08:41:00Z</time>
      </trkpt>
      <trkpt lat="45.68542" lon="3.1944">
        <ele>351.8</ele>
        <time>2024-05-19T08:41:01Z</time>
      </trkpt>
      <trkpt lat="45.68548" lon="3.19444">
        <ele>351.8</ele>
        <time>2024-05-19T08:41:02Z</time>
      </trkpt>
      <trkpt lat="45.68557" lon="3.19451">
        <ele>351.6</ele>
        <time>2024-05-19T08:41:03Z</time>
      </trkpt>
      <trkpt lat="45.68561" lon="3.19454">
        <ele>351.6</ele>
        <time>2024-05-19T08:41:04Z</time>
      </trkpt>
      <trkpt lat="45.68567" lon="3.19459">
        <ele>351.6</ele>
        <time>2024-05-19T08:41:05Z</time>
      </trkpt>
      <trkpt lat="45.68574" lon="3.19463">
        <ele>351.4</ele>
        <time>2024-05-19T08:41:06Z</time>
      </trkpt>
      <trkpt lat="45.6858" lon="3.19467">
        <ele>351.4</ele>
        <time>2024-05-19T08:41:07Z</time>
      </trkpt>
      <trkpt lat="45.68587" lon="3.19472">
        <ele>351.4</ele>
        <time>2024-05-19T08:41:08Z</time>
      </trkpt>
      <trkpt lat="45.68593" lon="3.19477">
        <ele>351.2</ele>
        <time>2024-05-19T08:41:09Z</time>
      </trkpt>
      <trkpt lat="45.686" lon="3.19482">
        <ele>351</ele>
        <time>2024-05-19T08:41:10Z</time>
      </trkpt>
      <trkpt lat="45.68607" lon="3.19487">
        <ele>350.8</ele>
        <time>2024-05-19T08:41:11Z</time>
      </trkpt>
      <trkpt lat="45.68613" lon="3.19494">
        <ele>350.8</ele>
        <time>2024-05-19T08:41:12Z</time>
      </trkpt>
      <trkpt lat="45.68618" lon="3.19503">
        <ele>350.6</ele>
        <time>2024-05-19T08:41:13Z</time>
      </trkpt>
      <trkpt lat="45.68621" lon="3.19514">
        <ele>350.6</ele>
        <time>2024-05-19T08:41:14Z</time>
      </trkpt>
      <trkpt lat="45.68624" lon="3.19524">
        <ele>350.6</ele>
        <time>2024-05-19T08:41:15Z</time>
      </trkpt>
      <trkpt lat="45.68627" lon="3.19534">
        <ele>350.4</ele>
        <time>2024-05-19T08:41:16Z</time>
      </trkpt>
      <trkpt lat="45.68629" lon="3.19544">
        <ele>350.4</ele>
        <time>2024-05-19T08:41:17Z</time>
      </trkpt>
      <trkpt lat="45.68632" lon="3.19553">
        <ele>350.2</ele>
        <time>2024-05-19T08:41:18Z</time>
      </trkpt>
      <trkpt lat="45.68633" lon="3.19564">
        <ele>350.2</ele>
        <time>2024-05-19T08:41:19Z</time>
      </trkpt>
      <trkpt lat="45.68634" lon="3.19574">
        <ele>350</ele>
        <time>2024-05-19T08:41:20Z</time>
      </trkpt>
      <trkpt lat="45.68634" lon="3.19584">
        <ele>350</ele>
        <time>2024-05-19T08:41:21Z</time>
      </trkpt>
      <trkpt lat="45.68635" lon="3.19594">
        <ele>350</ele>
        <time>2024-05-19T08:41:22Z</time>
      </trkpt>
      <trkpt lat="45.68635" lon="3.19604">
        <ele>350</ele>
        <time>2024-05-19T08:41:23Z</time>
      </trkpt>
      <trkpt lat="45.68636" lon="3.19614">
        <ele>349.8</ele>
        <time>2024-05-19T08:41:24Z</time>
      </trkpt>
      <trkpt lat="45.68637" lon="3.19624">
        <ele>349.8</ele>
        <time>2024-05-19T08:41:25Z</time>
      </trkpt>
      <trkpt lat="45.68637" lon="3.19634">
        <ele>349.8</ele>
        <time>2024-05-19T08:41:26Z</time>
      </trkpt>
      <trkpt lat="45.68638" lon="3.19643">
        <ele>349.6</ele>
        <time>2024-05-19T08:41:27Z</time>
      </trkpt>
      <trkpt lat="45.68638" lon="3.19653">
        <ele>349.6</ele>
        <time>2024-05-19T08:41:28Z</time>
      </trkpt>
      <trkpt lat="45.68639" lon="3.19662">
        <ele>349.4</ele>
        <time>2024-05-19T08:41:29Z</time>
      </trkpt>
      <trkpt lat="45.68639" lon="3.19671">
        <ele>349.4</ele>
        <time>2024-05-19T08:41:30Z</time>
      </trkpt>
      <trkpt lat="45.6864" lon="3.19681">
        <ele>349.4</ele>
        <time>2024-05-19T08:41:31Z</time>
      </trkpt>
      <trkpt lat="45.68641" lon="3.1969">
        <ele>349.2</ele>
        <time>2024-05-19T08:41:32Z</time>
      </trkpt>
      <trkpt lat="45.68642" lon="3.19699">
        <ele>349.2</ele>
        <time>2024-05-19T08:41:33Z</time>
      </trkpt>
      <trkpt lat="45.68643" lon="3.19708">
        <ele>349.2</ele>
        <time>2024-05-19T08:41:34Z</time>
      </trkpt>
      <trkpt lat="45.68645" lon="3.19717">
        <ele>349.2</ele>
        <time>2024-05-19T08:41:35Z</time>
      </trkpt>
      <trkpt lat="45.68647" lon="3.19726">
        <ele>349</ele>
        <time>2024-05-19T08:41:36Z</time>
      </trkpt>
      <trkpt lat="45.68649" lon="3.19735">
        <ele>349</ele>
        <time>2024-05-19T08:41:37Z</time>
      </trkpt>
      <trkpt lat="45.68651" lon="3.19744">
        <ele>349</ele>
        <time>2024-05-19T08:41:38Z</time>
      </trkpt>
      <trkpt lat="45.68652" lon="3.19753">
        <ele>349</ele>
        <time>2024-05-19T08:41:39Z</time>
      </trkpt>
      <trkpt lat="45.68654" lon="3.19761">
        <ele>349</ele>
        <time>2024-05-19T08:41:40Z</time>
      </trkpt>
      <trkpt lat="45.68656" lon="3.1977">
        <ele>348.8</ele>
        <time>2024-05-19T08:41:41Z</time>
      </trkpt>
      <trkpt lat="45.68659" lon="3.19778">
        <ele>348.8</ele>
        <time>2024-05-19T08:41:42Z</time>
      </trkpt>
      <trkpt lat="45.68663" lon="3.19786">
        <ele>348.8</ele>
        <time>2024-05-19T08:41:43Z</time>
      </trkpt>
      <trkpt lat="45.68666" lon="3.19794">
        <ele>348.8</ele>
        <time>2024-05-19T08:41:44Z</time>
      </trkpt>
      <trkpt lat="45.6867" lon="3.19802">
        <ele>348.8</ele>
        <time>2024-05-19T08:41:45Z</time>
      </trkpt>
      <trkpt lat="45.68673" lon="3.1981">
        <ele>348.8</ele>
        <time>2024-05-19T08:41:46Z</time>
      </trkpt>
      <trkpt lat="45.68677" lon="3.19818">
        <ele>348.8</ele>
        <time>2024-05-19T08:41:47Z</time>
      </trkpt>
      <trkpt lat="45.68681" lon="3.19827">
        <ele>348.8</ele>
        <time>2024-05-19T08:41:48Z</time>
      </trkpt>
      <trkpt lat="45.68686" lon="3.19834">
        <ele>348.8</ele>
        <time>2024-05-19T08:41:49Z</time>
      </trkpt>
      <trkpt lat="45.68691" lon="3.19841">
        <ele>348.8</ele>
        <time>2024-05-19T08:41:50Z</time>
      </trkpt>
      <trkpt lat="45.68697" lon="3.19848">
        <ele>348.6</ele>
        <time>2024-05-19T08:41:51Z</time>
      </trkpt>
      <trkpt lat="45.68703" lon="3.19855">
        <ele>348.6</ele>
        <time>2024-05-19T08:41:52Z</time>
      </trkpt>
      <trkpt lat="45.68708" lon="3.19862">
        <ele>348.6</ele>
        <time>2024-05-19T08:41:53Z</time>
      </trkpt>
      <trkpt lat="45.68714" lon="3.19869">
        <ele>348.4</ele>
        <time>2024-05-19T08:41:54Z</time>
      </trkpt>
      <trkpt lat="45.68719" lon="3.19876">
        <ele>348.4</ele>
        <time>2024-05-19T08:41:55Z</time>
      </trkpt>
      <trkpt lat="45.68725" lon="3.19883">
        <ele>348.2</ele>
        <time>2024-05-19T08:41:56Z</time>
      </trkpt>
      <trkpt lat="45.68731" lon="3.19889">
        <ele>348.2</ele>
        <time>2024-05-19T08:41:57Z</time>
      </trkpt>
      <trkpt lat="45.68737" lon="3.19896">
        <ele>348.2</ele>
        <time>2024-05-19T08:41:58Z</time>
      </trkpt>
      <trkpt lat="45.68744" lon="3.19903">
        <ele>348</ele>
        <time>2024-05-19T08:41:59Z</time>
      </trkpt>
      <trkpt lat="45.6875" lon="3.1991">
        <ele>347.8</ele>
        <time>2024-05-19T08:42:00Z</time>
      </trkpt>
      <trkpt lat="45.68757" lon="3.19917">
        <ele>347.6</ele>
        <time>2024-05-19T08:42:01Z</time>
      </trkpt>
      <trkpt lat="45.68764" lon="3.19924">
        <ele>347.6</ele>
        <time>2024-05-19T08:42:02Z</time>
      </trkpt>
      <trkpt lat="45.6877" lon="3.19931">
        <ele>347.4</ele>
        <time>2024-05-19T08:42:03Z</time>
      </trkpt>
      <trkpt lat="45.68777" lon="3.19938">
        <ele>347.4</ele>
        <time>2024-05-19T08:42:04Z</time>
      </trkpt>
      <trkpt lat="45.68784" lon="3.19945">
        <ele>347.2</ele>
        <time>2024-05-19T08:42:05Z</time>
      </trkpt>
      <trkpt lat="45.68791" lon="3.19952">
        <ele>347</ele>
        <time>2024-05-19T08:42:06Z</time>
      </trkpt>
      <trkpt lat="45.68798" lon="3.19959">
        <ele>346.8</ele>
        <time>2024-05-19T08:42:07Z</time>
      </trkpt>
      <trkpt lat="45.68805" lon="3.19966">
        <ele>346.8</ele>
        <time>2024-05-19T08:42:08Z</time>
      </trkpt>
      <trkpt lat="45.68812" lon="3.19974">
        <ele>346.6</ele>
        <time>2024-05-19T08:42:09Z</time>
      </trkpt>
      <trkpt lat="45.68819" lon="3.1998">
        <ele>346.4</ele>
        <time>2024-05-19T08:42:10Z</time>
      </trkpt>
      <trkpt lat="45.68826" lon="3.19986">
        <ele>346.4</ele>
        <time>2024-05-19T08:42:11Z</time>
      </trkpt>
      <trkpt lat="45.68834" lon="3.19992">
        <ele>346.2</ele>
        <time>2024-05-19T08:42:12Z</time>
      </trkpt>
      <trkpt lat="45.68842" lon="3.19999">
        <ele>346.2</ele>
        <time>2024-05-19T08:42:13Z</time>
      </trkpt>
      <trkpt lat="45.68849" lon="3.20005">
        <ele>346</ele>
        <time>2024-05-19T08:42:14Z</time>
      </trkpt>
      <trkpt lat="45.68857" lon="3.20011">
        <ele>346</ele>
        <time>2024-05-19T08:42:15Z</time>
      </trkpt>
      <trkpt lat="45.68865" lon="3.20014">
        <ele>345.8</ele>
        <time>2024-05-19T08:42:16Z</time>
      </trkpt>
      <trkpt lat="45.68873" lon="3.20017">
        <ele>345.8</ele>
        <time>2024-05-19T08:42:17Z</time>
      </trkpt>
      <trkpt lat="45.68882" lon="3.20021">
        <ele>345.6</ele>
        <time>2024-05-19T08:42:18Z</time>
      </trkpt>
      <trkpt lat="45.6889" lon="3.20023">
        <ele>345.6</ele>
        <time>2024-05-19T08:42:19Z</time>
      </trkpt>
      <trkpt lat="45.68898" lon="3.20026">
        <ele>345.4</ele>
        <time>2024-05-19T08:42:20Z</time>
      </trkpt>
      <trkpt lat="45.68907" lon="3.20029">
        <ele>345.2</ele>
        <time>2024-05-19T08:42:21Z</time>
      </trkpt>
      <trkpt lat="45.68915" lon="3.20032">
        <ele>345.2</ele>
        <time>2024-05-19T08:42:22Z</time>
      </trkpt>
      <trkpt lat="45.68923" lon="3.20036">
        <ele>345.2</ele>
        <time>2024-05-19T08:42:23Z</time>
      </trkpt>
      <trkpt lat="45.68932" lon="3.20041">
        <ele>345</ele>
        <time>2024-05-19T08:42:24Z</time>
      </trkpt>
      <trkpt lat="45.6894" lon="3.20045">
        <ele>345</ele>
        <time>2024-05-19T08:42:25Z</time>
      </trkpt>
      <trkpt lat="45.68947" lon="3.20051">
        <ele>344.8</ele>
        <time>2024-05-19T08:42:26Z</time>
      </trkpt>
      <trkpt lat="45.68953" lon="3.20059">
        <ele>344.8</ele>
        <time>2024-05-19T08:42:27Z</time>
      </trkpt>
      <trkpt lat="45.68958" lon="3.20069">
        <ele>344.8</ele>
        <time>2024-05-19T08:42:28Z</time>
      </trkpt>
      <trkpt lat="45.68964" lon="3.20076">
        <ele>344.6</ele>
        <time>2024-05-19T08:42:29Z</time>
      </trkpt>
      <trkpt lat="45.68969" lon="3.20085">
        <ele>344.6</ele>
        <time>2024-05-19T08:42:30Z</time>
      </trkpt>
      <trkpt lat="45.68973" lon="3.20095">
        <ele>344.6</ele>
        <time>2024-05-19T08:42:31Z</time>
      </trkpt>
      <trkpt lat="45.68978" lon="3.20104">
        <ele>344.6</ele>
        <time>2024-05-19T08:42:32Z</time>
      </trkpt>
      <trkpt lat="45.6898" lon="3.20114">
        <ele>344.4</ele>
        <time>2024-05-19T08:42:33Z</time>
      </trkpt>
      <trkpt lat="45.68981" lon="3.20125">
        <ele>344.4</ele>
        <time>2024-05-19T08:42:34Z</time>
      </trkpt>
      <trkpt lat="45.68983" lon="3.20135">
        <ele>344.4</ele>
        <time>2024-05-19T08:42:35Z</time>
      </trkpt>
      <trkpt lat="45.68984" lon="3.20147">
        <ele>344.4</ele>
        <time>2024-05-19T08:42:36Z</time>
      </trkpt>
      <trkpt lat="45.68984" lon="3.20158">
        <ele>344.4</ele>
        <time>2024-05-19T08:42:37Z</time>
      </trkpt>
      <trkpt lat="45.68984" lon="3.20169">
        <ele>344.4</ele>
        <time>2024-05-19T08:42:38Z</time>
      </trkpt>
      <trkpt lat="45.68983" lon="3.2018">
        <ele>344.4</ele>
        <time>2024-05-19T08:42:39Z</time>
      </trkpt>
      <trkpt lat="45.68983" lon="3.20191">
        <ele>344.4</ele>
        <time>2024-05-19T08:42:40Z</time>
      </trkpt>
      <trkpt lat="45.68982" lon="3.20202">
        <ele>344.4</ele>
        <time>2024-05-19T08:42:41Z</time>
      </trkpt>
      <trkpt lat="45.68982" lon="3.20213">
        <ele>344.4</ele>
        <time>2024-05-19T08:42:42Z</time>
      </trkpt>
      <trkpt lat="45.68981" lon="3.20224">
        <ele>344.2</ele>
        <time>2024-05-19T08:42:43Z</time>
      </trkpt>
      <trkpt lat="45.68981" lon="3.20235">
        <ele>344.2</ele>
        <time>2024-05-19T08:42:44Z</time>
      </trkpt>
      <trkpt lat="45.6898" lon="3.20245">
        <ele>344.2</ele>
        <time>2024-05-19T08:42:45Z</time>
      </trkpt>
      <trkpt lat="45.6898" lon="3.20255">
        <ele>344.2</ele>
        <time>2024-05-19T08:42:46Z</time>
      </trkpt>
      <trkpt lat="45.68979" lon="3.20266">
        <ele>344</ele>
        <time>2024-05-19T08:42:47Z</time>
      </trkpt>
      <trkpt lat="45.68979" lon="3.20277">
        <ele>344</ele>
        <time>2024-05-19T08:42:48Z</time>
      </trkpt>
      <trkpt lat="45.68978" lon="3.20287">
        <ele>344</ele>
        <time>2024-05-19T08:42:49Z</time>
      </trkpt>
      <trkpt lat="45.68978" lon="3.20298">
        <ele>343.8</ele>
        <time>2024-05-19T08:42:50Z</time>
      </trkpt>
      <trkpt lat="45.68977" lon="3.20309">
        <ele>343.8</ele>
        <time>2024-05-19T08:42:51Z</time>
      </trkpt>
      <trkpt lat="45.68976" lon="3.2032">
        <ele>343.8</ele>
        <time>2024-05-19T08:42:52Z</time>
      </trkpt>
      <trkpt lat="45.68976" lon="3.20331">
        <ele>343.6</ele>
        <time>2024-05-19T08:42:53Z</time>
      </trkpt>
      <trkpt lat="45.68975" lon="3.20343">
        <ele>343.6</ele>
        <time>2024-05-19T08:42:54Z</time>
      </trkpt>
      <trkpt lat="45.68975" lon="3.20354">
        <ele>343.6</ele>
        <time>2024-05-19T08:42:55Z</time>
      </trkpt>
      <trkpt lat="45.68974" lon="3.20365">
        <ele>343.4</ele>
        <time>2024-05-19T08:42:56Z</time>
      </trkpt>
      <trkpt lat="45.68974" lon="3.20377">
        <ele>343.4</ele>
        <time>2024-05-19T08:42:57Z</time>
      </trkpt>
      <trkpt lat="45.68974" lon="3.20377">
        <ele>343.2</ele>
        <time>2024-05-19T08:42:58Z</time>
      </trkpt>
      <trkpt lat="45.68973" lon="3.204">
        <ele>343.2</ele>
        <time>2024-05-19T08:42:59Z</time>
      </trkpt>
      <trkpt lat="45.68972" lon="3.20412">
        <ele>343</ele>
        <time>2024-05-19T08:43:00Z</time>
      </trkpt>
      <trkpt lat="45.68972" lon="3.20424">
        <ele>343</ele>
        <time>2024-05-19T08:43:01Z</time>
      </trkpt>
      <trkpt lat="45.68971" lon="3.20436">
        <ele>342.8</ele>
        <time>2024-05-19T08:43:02Z</time>
      </trkpt>
      <trkpt lat="45.68971" lon="3.20448">
        <ele>342.8</ele>
        <time>2024-05-19T08:43:03Z</time>
      </trkpt>
      <trkpt lat="45.6897" lon="3.20461">
        <ele>342.6</ele>
        <time>2024-05-19T08:43:04Z</time>
      </trkpt>
      <trkpt lat="45.6897" lon="3.20473">
        <ele>342.4</ele>
        <time>2024-05-19T08:43:05Z</time>
      </trkpt>
      <trkpt lat="45.68969" lon="3.20486">
        <ele>342.4</ele>
        <time>2024-05-19T08:43:06Z</time>
      </trkpt>
      <trkpt lat="45.68969" lon="3.20498">
        <ele>342.4</ele>
        <time>2024-05-19T08:43:07Z</time>
      </trkpt>
      <trkpt lat="45.68968" lon="3.20511">
        <ele>342.2</ele>
        <time>2024-05-19T08:43:08Z</time>
      </trkpt>
      <trkpt lat="45.68968" lon="3.20523">
        <ele>342.2</ele>
        <time>2024-05-19T08:43:09Z</time>
      </trkpt>
      <trkpt lat="45.68967" lon="3.20535">
        <ele>342</ele>
        <time>2024-05-19T08:43:10Z</time>
      </trkpt>
      <trkpt lat="45.68967" lon="3.20547">
        <ele>341.8</ele>
        <time>2024-05-19T08:43:11Z</time>
      </trkpt>
      <trkpt lat="45.68966" lon="3.20558">
        <ele>341.8</ele>
        <time>2024-05-19T08:43:12Z</time>
      </trkpt>
      <trkpt lat="45.68966" lon="3.20569">
        <ele>341.8</ele>
        <time>2024-05-19T08:43:13Z</time>
      </trkpt>
      <trkpt lat="45.68965" lon="3.2058">
        <ele>341.6</ele>
        <time>2024-05-19T08:43:14Z</time>
      </trkpt>
      <trkpt lat="45.68965" lon="3.20591">
        <ele>341.6</ele>
        <time>2024-05-19T08:43:15Z</time>
      </trkpt>
      <trkpt lat="45.68964" lon="3.20601">
        <ele>341.6</ele>
        <time>2024-05-19T08:43:16Z</time>
      </trkpt>
      <trkpt lat="45.68964" lon="3.20612">
        <ele>341.4</ele>
        <time>2024-05-19T08:43:17Z</time>
      </trkpt>
      <trkpt lat="45.68964" lon="3.20623">
        <ele>341.4</ele>
        <time>2024-05-19T08:43:18Z</time>
      </trkpt>
      <trkpt lat="45.68963" lon="3.20633">
        <ele>341.4</ele>
        <time>2024-05-19T08:43:19Z</time>
      </trkpt>
      <trkpt lat="45.68963" lon="3.20643">
        <ele>341.4</ele>
        <time>2024-05-19T08:43:20Z</time>
      </trkpt>
      <trkpt lat="45.68962" lon="3.20654">
        <ele>341.4</ele>
        <time>2024-05-19T08:43:21Z</time>
      </trkpt>
      <trkpt lat="45.68962" lon="3.20664">
        <ele>341.2</ele>
        <time>2024-05-19T08:43:22Z</time>
      </trkpt>
      <trkpt lat="45.68962" lon="3.20673">
        <ele>341.2</ele>
        <time>2024-05-19T08:43:23Z</time>
      </trkpt>
      <trkpt lat="45.68961" lon="3.20683">
        <ele>341.2</ele>
        <time>2024-05-19T08:43:24Z</time>
      </trkpt>
      <trkpt lat="45.68961" lon="3.20693">
        <ele>341</ele>
        <time>2024-05-19T08:43:25Z</time>
      </trkpt>
      <trkpt lat="45.6896" lon="3.20703">
        <ele>341</ele>
        <time>2024-05-19T08:43:26Z</time>
      </trkpt>
      <trkpt lat="45.6896" lon="3.20712">
        <ele>341</ele>
        <time>2024-05-19T08:43:27Z</time>
      </trkpt>
      <trkpt lat="45.6896" lon="3.20722">
        <ele>341</ele>
        <time>2024-05-19T08:43:28Z</time>
      </trkpt>
      <trkpt lat="45.68959" lon="3.20732">
        <ele>340.8</ele>
        <time>2024-05-19T08:43:29Z</time>
      </trkpt>
      <trkpt lat="45.68959" lon="3.20741">
        <ele>340.8</ele>
        <time>2024-05-19T08:43:30Z</time>
      </trkpt>
      <trkpt lat="45.68959" lon="3.2075">
        <ele>340.8</ele>
        <time>2024-05-19T08:43:31Z</time>
      </trkpt>
      <trkpt lat="45.68959" lon="3.20758">
        <ele>340.8</ele>
        <time>2024-05-19T08:43:32Z</time>
      </trkpt>
      <trkpt lat="45.68959" lon="3.20766">
        <ele>340.8</ele>
        <time>2024-05-19T08:43:33Z</time>
      </trkpt>
      <trkpt lat="45.68959" lon="3.20775">
        <ele>340.8</ele>
        <time>2024-05-19T08:43:34Z</time>
      </trkpt>
      <trkpt lat="45.68959" lon="3.20783">
        <ele>340.8</ele>
        <time>2024-05-19T08:43:35Z</time>
      </trkpt>
      <trkpt lat="45.68959" lon="3.20791">
        <ele>340.8</ele>
        <time>2024-05-19T08:43:36Z</time>
      </trkpt>
      <trkpt lat="45.68959" lon="3.20799">
        <ele>340.8</ele>
        <time>2024-05-19T08:43:37Z</time>
      </trkpt>
      <trkpt lat="45.68959" lon="3.20807">
        <ele>340.8</ele>
        <time>2024-05-19T08:43:38Z</time>
      </trkpt>
      <trkpt lat="45.68959" lon="3.20816">
        <ele>340.8</ele>
        <time>2024-05-19T08:43:39Z</time>
      </trkpt>
      <trkpt lat="45.68959" lon="3.20824">
        <ele>340.6</ele>
        <time>2024-05-19T08:43:40Z</time>
      </trkpt>
      <trkpt lat="45.68959" lon="3.20832">
        <ele>340.6</ele>
        <time>2024-05-19T08:43:41Z</time>
      </trkpt>
      <trkpt lat="45.68959" lon="3.20841">
        <ele>340.6</ele>
        <time>2024-05-19T08:43:42Z</time>
      </trkpt>
      <trkpt lat="45.68959" lon="3.20849">
        <ele>340.6</ele>
        <time>2024-05-19T08:43:43Z</time>
      </trkpt>
      <trkpt lat="45.68961" lon="3.20857">
        <ele>340.6</ele>
        <time>2024-05-19T08:43:44Z</time>
      </trkpt>
      <trkpt lat="45.68962" lon="3.20866">
        <ele>340.6</ele>
        <time>2024-05-19T08:43:45Z</time>
      </trkpt>
      <trkpt lat="45.68964" lon="3.20874">
        <ele>340.6</ele>
        <time>2024-05-19T08:43:46Z</time>
      </trkpt>
      <trkpt lat="45.68965" lon="3.20883">
        <ele>340.8</ele>
        <time>2024-05-19T08:43:47Z</time>
      </trkpt>
      <trkpt lat="45.68967" lon="3.20891">
        <ele>340.6</ele>
        <time>2024-05-19T08:43:48Z</time>
      </trkpt>
      <trkpt lat="45.68968" lon="3.20899">
        <ele>340.8</ele>
        <time>2024-05-19T08:43:49Z</time>
      </trkpt>
      <trkpt lat="45.68971" lon="3.20908">
        <ele>340.8</ele>
        <time>2024-05-19T08:43:50Z</time>
      </trkpt>
      <trkpt lat="45.68973" lon="3.20916">
        <ele>340.4</ele>
        <time>2024-05-19T08:43:51Z</time>
      </trkpt>
      <trkpt lat="45.68976" lon="3.20923">
        <ele>340.6</ele>
        <time>2024-05-19T08:43:52Z</time>
      </trkpt>
      <trkpt lat="45.68979" lon="3.20931">
        <ele>340.8</ele>
        <time>2024-05-19T08:43:53Z</time>
      </trkpt>
      <trkpt lat="45.68981" lon="3.20938">
        <ele>341</ele>
        <time>2024-05-19T08:43:54Z</time>
      </trkpt>
      <trkpt lat="45.68984" lon="3.20946">
        <ele>341.2</ele>
        <time>2024-05-19T08:43:55Z</time>
      </trkpt>
      <trkpt lat="45.68986" lon="3.20953">
        <ele>341</ele>
        <time>2024-05-19T08:43:56Z</time>
      </trkpt>
      <trkpt lat="45.68989" lon="3.2096">
        <ele>341</ele>
        <time>2024-05-19T08:43:57Z</time>
      </trkpt>
      <trkpt lat="45.68991" lon="3.20967">
        <ele>341</ele>
        <time>2024-05-19T08:43:58Z</time>
      </trkpt>
      <trkpt lat="45.68994" lon="3.20974">
        <ele>341</ele>
        <time>2024-05-19T08:43:59Z</time>
      </trkpt>
      <trkpt lat="45.68996" lon="3.20981">
        <ele>341</ele>
        <time>2024-05-19T08:44:00Z</time>
      </trkpt>
      <trkpt lat="45.68998" lon="3.20988">
        <ele>341.2</ele>
        <time>2024-05-19T08:44:01Z</time>
      </trkpt>
      <trkpt lat="45.69001" lon="3.20995">
        <ele>341.2</ele>
        <time>2024-05-19T08:44:02Z</time>
      </trkpt>
      <trkpt lat="45.69003" lon="3.21001">
        <ele>341.2</ele>
        <time>2024-05-19T08:44:03Z</time>
      </trkpt>
      <trkpt lat="45.69005" lon="3.21008">
        <ele>341.4</ele>
        <time>2024-05-19T08:44:04Z</time>
      </trkpt>
      <trkpt lat="45.69007" lon="3.21014">
        <ele>341.4</ele>
        <time>2024-05-19T08:44:05Z</time>
      </trkpt>
      <trkpt lat="45.6901" lon="3.21021">
        <ele>341.4</ele>
        <time>2024-05-19T08:44:06Z</time>
      </trkpt>
      <trkpt lat="45.6901" lon="3.21021">
        <ele>341.4</ele>
        <time>2024-05-19T08:44:07Z</time>
      </trkpt>
      <trkpt lat="45.69017" lon="3.21041">
        <ele>341.6</ele>
        <time>2024-05-19T08:44:08Z</time>
      </trkpt>
      <trkpt lat="45.69017" lon="3.21041">
        <ele>341.6</ele>
        <time>2024-05-19T08:44:09Z</time>
      </trkpt>
      <trkpt lat="45.69019" lon="3.21048">
        <ele>341.6</ele>
        <time>2024-05-19T08:44:10Z</time>
      </trkpt>
      <trkpt lat="45.69021" lon="3.21054">
        <ele>341.8</ele>
        <time>2024-05-19T08:44:11Z</time>
      </trkpt>
      <trkpt lat="45.69024" lon="3.21061">
        <ele>341.8</ele>
        <time>2024-05-19T08:44:12Z</time>
      </trkpt>
      <trkpt lat="45.69026" lon="3.21068">
        <ele>341.8</ele>
        <time>2024-05-19T08:44:13Z</time>
      </trkpt>
      <trkpt lat="45.69028" lon="3.21074">
        <ele>341.8</ele>
        <time>2024-05-19T08:44:14Z</time>
      </trkpt>
      <trkpt lat="45.6903" lon="3.2108">
        <ele>342</ele>
        <time>2024-05-19T08:44:15Z</time>
      </trkpt>
      <trkpt lat="45.69032" lon="3.21086">
        <ele>342</ele>
        <time>2024-05-19T08:44:16Z</time>
      </trkpt>
      <trkpt lat="45.69035" lon="3.21093">
        <ele>342</ele>
        <time>2024-05-19T08:44:17Z</time>
      </trkpt>
      <trkpt lat="45.69037" lon="3.21099">
        <ele>342</ele>
        <time>2024-05-19T08:44:18Z</time>
      </trkpt>
      <trkpt lat="45.69039" lon="3.21105">
        <ele>342.2</ele>
        <time>2024-05-19T08:44:19Z</time>
      </trkpt>
      <trkpt lat="45.69041" lon="3.2111">
        <ele>342.2</ele>
        <time>2024-05-19T08:44:20Z</time>
      </trkpt>
      <trkpt lat="45.69043" lon="3.21116">
        <ele>342.2</ele>
        <time>2024-05-19T08:44:21Z</time>
      </trkpt>
      <trkpt lat="45.69045" lon="3.21122">
        <ele>342.4</ele>
        <time>2024-05-19T08:44:22Z</time>
      </trkpt>
      <trkpt lat="45.69047" lon="3.21127">
        <ele>342.4</ele>
        <time>2024-05-19T08:44:23Z</time>
      </trkpt>
      <trkpt lat="45.69049" lon="3.21134">
        <ele>342.6</ele>
        <time>2024-05-19T08:44:24Z</time>
      </trkpt>
      <trkpt lat="45.69052" lon="3.2114">
        <ele>342.6</ele>
        <time>2024-05-19T08:44:25Z</time>
      </trkpt>
      <trkpt lat="45.69054" lon="3.21145">
        <ele>342.8</ele>
        <time>2024-05-19T08:44:26Z</time>
      </trkpt>
      <trkpt lat="45.69056" lon="3.21151">
        <ele>342.8</ele>
        <time>2024-05-19T08:44:27Z</time>
      </trkpt>
      <trkpt lat="45.69058" lon="3.21157">
        <ele>343</ele>
        <time>2024-05-19T08:44:28Z</time>
      </trkpt>
      <trkpt lat="45.6906" lon="3.21163">
        <ele>343</ele>
        <time>2024-05-19T08:44:29Z</time>
      </trkpt>
      <trkpt lat="45.69062" lon="3.21169">
        <ele>343.2</ele>
        <time>2024-05-19T08:44:30Z</time>
      </trkpt>
      <trkpt lat="45.69064" lon="3.21175">
        <ele>343.2</ele>
        <time>2024-05-19T08:44:31Z</time>
      </trkpt>
      <trkpt lat="45.69066" lon="3.21181">
        <ele>343.4</ele>
        <time>2024-05-19T08:44:32Z</time>
      </trkpt>
      <trkpt lat="45.69068" lon="3.21186">
        <ele>343.4</ele>
        <time>2024-05-19T08:44:33Z</time>
      </trkpt>
      <trkpt lat="45.6907" lon="3.21192">
        <ele>343.6</ele>
        <time>2024-05-19T08:44:34Z</time>
      </trkpt>
      <trkpt lat="45.69072" lon="3.21198">
        <ele>343.6</ele>
        <time>2024-05-19T08:44:35Z</time>
      </trkpt>
      <trkpt lat="45.69075" lon="3.21204">
        <ele>343.8</ele>
        <time>2024-05-19T08:44:36Z</time>
      </trkpt>
      <trkpt lat="45.69077" lon="3.2121">
        <ele>343.8</ele>
        <time>2024-05-19T08:44:37Z</time>
      </trkpt>
      <trkpt lat="45.69079" lon="3.21216">
        <ele>344</ele>
        <time>2024-05-19T08:44:38Z</time>
      </trkpt>
      <trkpt lat="45.69081" lon="3.21222">
        <ele>344</ele>
        <time>2024-05-19T08:44:39Z</time>
      </trkpt>
      <trkpt lat="45.69083" lon="3.21228">
        <ele>344.2</ele>
        <time>2024-05-19T08:44:40Z</time>
      </trkpt>
      <trkpt lat="45.69085" lon="3.21233">
        <ele>344.2</ele>
        <time>2024-05-19T08:44:41Z</time>
      </trkpt>
      <trkpt lat="45.69087" lon="3.21239">
        <ele>344.4</ele>
        <time>2024-05-19T08:44:42Z</time>
      </trkpt>
      <trkpt lat="45.69089" lon="3.21245">
        <ele>344.4</ele>
        <time>2024-05-19T08:44:43Z</time>
      </trkpt>
      <trkpt lat="45.69091" lon="3.2125">
        <ele>344.6</ele>
        <time>2024-05-19T08:44:44Z</time>
      </trkpt>
      <trkpt lat="45.69093" lon="3.21256">
        <ele>344.8</ele>
        <time>2024-05-19T08:44:45Z</time>
      </trkpt>
      <trkpt lat="45.69095" lon="3.21261">
        <ele>344.8</ele>
        <time>2024-05-19T08:44:46Z</time>
      </trkpt>
      <trkpt lat="45.69097" lon="3.21267">
        <ele>345</ele>
        <time>2024-05-19T08:44:47Z</time>
      </trkpt>
      <trkpt lat="45.69099" lon="3.21272">
        <ele>345</ele>
        <time>2024-05-19T08:44:48Z</time>
      </trkpt>
      <trkpt lat="45.69101" lon="3.21278">
        <ele>345.2</ele>
        <time>2024-05-19T08:44:49Z</time>
      </trkpt>
      <trkpt lat="45.69103" lon="3.21283">
        <ele>345.2</ele>
        <time>2024-05-19T08:44:50Z</time>
      </trkpt>
      <trkpt lat="45.69105" lon="3.21288">
        <ele>345.4</ele>
        <time>2024-05-19T08:44:51Z</time>
      </trkpt>
      <trkpt lat="45.69107" lon="3.21294">
        <ele>345.4</ele>
        <time>2024-05-19T08:44:52Z</time>
      </trkpt>
      <trkpt lat="45.69109" lon="3.213">
        <ele>345.6</ele>
        <time>2024-05-19T08:44:53Z</time>
      </trkpt>
      <trkpt lat="45.69111" lon="3.21305">
        <ele>345.6</ele>
        <time>2024-05-19T08:44:54Z</time>
      </trkpt>
      <trkpt lat="45.69113" lon="3.21311">
        <ele>345.6</ele>
        <time>2024-05-19T08:44:55Z</time>
      </trkpt>
      <trkpt lat="45.69115" lon="3.21317">
        <ele>345.8</ele>
        <time>2024-05-19T08:44:56Z</time>
      </trkpt>
      <trkpt lat="45.69117" lon="3.21322">
        <ele>345.8</ele>
        <time>2024-05-19T08:44:57Z</time>
      </trkpt>
      <trkpt lat="45.69119" lon="3.21327">
        <ele>346</ele>
        <time>2024-05-19T08:44:58Z</time>
      </trkpt>
      <trkpt lat="45.69121" lon="3.21333">
        <ele>346</ele>
        <time>2024-05-19T08:44:59Z</time>
      </trkpt>
      <trkpt lat="45.69123" lon="3.21338">
        <ele>346.2</ele>
        <time>2024-05-19T08:45:00Z</time>
      </trkpt>
      <trkpt lat="45.69125" lon="3.21344">
        <ele>346.2</ele>
        <time>2024-05-19T08:45:01Z</time>
      </trkpt>
      <trkpt lat="45.69127" lon="3.21349">
        <ele>346.4</ele>
        <time>2024-05-19T08:45:02Z</time>
      </trkpt>
      <trkpt lat="45.69129" lon="3.21354">
        <ele>346.4</ele>
        <time>2024-05-19T08:45:03Z</time>
      </trkpt>
      <trkpt lat="45.6913" lon="3.2136">
        <ele>346.6</ele>
        <time>2024-05-19T08:45:04Z</time>
      </trkpt>
      <trkpt lat="45.69132" lon="3.21366">
        <ele>346.8</ele>
        <time>2024-05-19T08:45:05Z</time>
      </trkpt>
      <trkpt lat="45.69133" lon="3.21372">
        <ele>346.8</ele>
        <time>2024-05-19T08:45:06Z</time>
      </trkpt>
      <trkpt lat="45.69134" lon="3.21378">
        <ele>347</ele>
        <time>2024-05-19T08:45:07Z</time>
      </trkpt>
      <trkpt lat="45.69135" lon="3.21384">
        <ele>347</ele>
        <time>2024-05-19T08:45:08Z</time>
      </trkpt>
      <trkpt lat="45.69136" lon="3.2139">
        <ele>347.2</ele>
        <time>2024-05-19T08:45:09Z</time>
      </trkpt>
      <trkpt lat="45.69137" lon="3.21396">
        <ele>347.2</ele>
        <time>2024-05-19T08:45:10Z</time>
      </trkpt>
      <trkpt lat="45.69138" lon="3.21402">
        <ele>347.4</ele>
        <time>2024-05-19T08:45:11Z</time>
      </trkpt>
      <trkpt lat="45.6914" lon="3.21409">
        <ele>347.6</ele>
        <time>2024-05-19T08:45:12Z</time>
      </trkpt>
      <trkpt lat="45.69141" lon="3.21415">
        <ele>347.6</ele>
        <time>2024-05-19T08:45:13Z</time>
      </trkpt>
      <trkpt lat="45.69142" lon="3.21421">
        <ele>347.8</ele>
        <time>2024-05-19T08:45:14Z</time>
      </trkpt>
      <trkpt lat="45.69143" lon="3.21427">
        <ele>347.8</ele>
        <time>2024-05-19T08:45:15Z</time>
      </trkpt>
      <trkpt lat="45.69143" lon="3.21433">
        <ele>348</ele>
        <time>2024-05-19T08:45:16Z</time>
      </trkpt>
      <trkpt lat="45.69143" lon="3.2144">
        <ele>348</ele>
        <time>2024-05-19T08:45:17Z</time>
      </trkpt>
      <trkpt lat="45.69143" lon="3.21446">
        <ele>348</ele>
        <time>2024-05-19T08:45:18Z</time>
      </trkpt>
      <trkpt lat="45.69143" lon="3.21453">
        <ele>348.2</ele>
        <time>2024-05-19T08:45:19Z</time>
      </trkpt>
      <trkpt lat="45.69144" lon="3.21459">
        <ele>348.4</ele>
        <time>2024-05-19T08:45:20Z</time>
      </trkpt>
      <trkpt lat="45.69144" lon="3.21466">
        <ele>348.4</ele>
        <time>2024-05-19T08:45:21Z</time>
      </trkpt>
      <trkpt lat="45.69144" lon="3.21472">
        <ele>348.6</ele>
        <time>2024-05-19T08:45:22Z</time>
      </trkpt>
      <trkpt lat="45.69144" lon="3.21478">
        <ele>348.6</ele>
        <time>2024-05-19T08:45:23Z</time>
      </trkpt>
      <trkpt lat="45.69144" lon="3.21484">
        <ele>348.8</ele>
        <time>2024-05-19T08:45:24Z</time>
      </trkpt>
      <trkpt lat="45.69144" lon="3.2149">
        <ele>349</ele>
        <time>2024-05-19T08:45:25Z</time>
      </trkpt>
      <trkpt lat="45.69144" lon="3.21496">
        <ele>349</ele>
        <time>2024-05-19T08:45:26Z</time>
      </trkpt>
      <trkpt lat="45.69144" lon="3.21502">
        <ele>349.4</ele>
        <time>2024-05-19T08:45:27Z</time>
      </trkpt>
      <trkpt lat="45.69144" lon="3.21509">
        <ele>349.4</ele>
        <time>2024-05-19T08:45:28Z</time>
      </trkpt>
      <trkpt lat="45.69144" lon="3.21514">
        <ele>349.6</ele>
        <time>2024-05-19T08:45:29Z</time>
      </trkpt>
      <trkpt lat="45.69144" lon="3.21521">
        <ele>349.6</ele>
        <time>2024-05-19T08:45:30Z</time>
      </trkpt>
      <trkpt lat="45.69145" lon="3.21527">
        <ele>349.8</ele>
        <time>2024-05-19T08:45:31Z</time>
      </trkpt>
      <trkpt lat="45.69145" lon="3.21532">
        <ele>350</ele>
        <time>2024-05-19T08:45:32Z</time>
      </trkpt>
      <trkpt lat="45.69145" lon="3.21539">
        <ele>350</ele>
        <time>2024-05-19T08:45:33Z</time>
      </trkpt>
      <trkpt lat="45.69145" lon="3.21545">
        <ele>350.2</ele>
        <time>2024-05-19T08:45:34Z</time>
      </trkpt>
      <trkpt lat="45.69145" lon="3.21551">
        <ele>350.4</ele>
        <time>2024-05-19T08:45:35Z</time>
      </trkpt>
      <trkpt lat="45.69145" lon="3.21557">
        <ele>350.4</ele>
        <time>2024-05-19T08:45:36Z</time>
      </trkpt>
      <trkpt lat="45.69145" lon="3.21563">
        <ele>350.6</ele>
        <time>2024-05-19T08:45:37Z</time>
      </trkpt>
      <trkpt lat="45.69145" lon="3.21569">
        <ele>350.8</ele>
        <time>2024-05-19T08:45:38Z</time>
      </trkpt>
      <trkpt lat="45.69145" lon="3.21575">
        <ele>350.8</ele>
        <time>2024-05-19T08:45:39Z</time>
      </trkpt>
      <trkpt lat="45.69145" lon="3.2158">
        <ele>351</ele>
        <time>2024-05-19T08:45:40Z</time>
      </trkpt>
      <trkpt lat="45.69145" lon="3.21586">
        <ele>351</ele>
        <time>2024-05-19T08:45:41Z</time>
      </trkpt>
      <trkpt lat="45.69146" lon="3.21592">
        <ele>351.2</ele>
        <time>2024-05-19T08:45:42Z</time>
      </trkpt>
      <trkpt lat="45.69146" lon="3.21597">
        <ele>351.4</ele>
        <time>2024-05-19T08:45:43Z</time>
      </trkpt>
      <trkpt lat="45.69146" lon="3.21603">
        <ele>351.4</ele>
        <time>2024-05-19T08:45:44Z</time>
      </trkpt>
      <trkpt lat="45.69146" lon="3.21609">
        <ele>351.6</ele>
        <time>2024-05-19T08:45:45Z</time>
      </trkpt>
      <trkpt lat="45.69146" lon="3.21615">
        <ele>351.6</ele>
        <time>2024-05-19T08:45:46Z</time>
      </trkpt>
      <trkpt lat="45.69146" lon="3.21621">
        <ele>351.8</ele>
        <time>2024-05-19T08:45:47Z</time>
      </trkpt>
      <trkpt lat="45.69146" lon="3.21626">
        <ele>351.8</ele>
        <time>2024-05-19T08:45:48Z</time>
      </trkpt>
      <trkpt lat="45.69146" lon="3.21632">
        <ele>351.8</ele>
        <time>2024-05-19T08:45:49Z</time>
      </trkpt>
      <trkpt lat="45.69146" lon="3.21637">
        <ele>352</ele>
        <time>2024-05-19T08:45:50Z</time>
      </trkpt>
      <trkpt lat="45.69146" lon="3.21643">
        <ele>352.2</ele>
        <time>2024-05-19T08:45:51Z</time>
      </trkpt>
      <trkpt lat="45.69146" lon="3.21648">
        <ele>352.2</ele>
        <time>2024-05-19T08:45:52Z</time>
      </trkpt>
      <trkpt lat="45.69146" lon="3.21654">
        <ele>352.4</ele>
        <time>2024-05-19T08:45:53Z</time>
      </trkpt>
      <trkpt lat="45.69147" lon="3.21659">
        <ele>352.6</ele>
        <time>2024-05-19T08:45:54Z</time>
      </trkpt>
      <trkpt lat="45.69147" lon="3.21665">
        <ele>352.6</ele>
        <time>2024-05-19T08:45:55Z</time>
      </trkpt>
      <trkpt lat="45.69147" lon="3.21671">
        <ele>352.8</ele>
        <time>2024-05-19T08:45:56Z</time>
      </trkpt>
      <trkpt lat="45.69147" lon="3.21677">
        <ele>352.8</ele>
        <time>2024-05-19T08:45:57Z</time>
      </trkpt>
      <trkpt lat="45.69147" lon="3.21683">
        <ele>353</ele>
        <time>2024-05-19T08:45:58Z</time>
      </trkpt>
      <trkpt lat="45.69147" lon="3.21689">
        <ele>353.2</ele>
        <time>2024-05-19T08:45:59Z</time>
      </trkpt>
      <trkpt lat="45.69147" lon="3.21695">
        <ele>353.2</ele>
        <time>2024-05-19T08:46:00Z</time>
      </trkpt>
      <trkpt lat="45.69147" lon="3.21701">
        <ele>353.4</ele>
        <time>2024-05-19T08:46:01Z</time>
      </trkpt>
      <trkpt lat="45.69147" lon="3.21707">
        <ele>353.4</ele>
        <time>2024-05-19T08:46:02Z</time>
      </trkpt>
      <trkpt lat="45.69147" lon="3.21713">
        <ele>353.6</ele>
        <time>2024-05-19T08:46:03Z</time>
      </trkpt>
      <trkpt lat="45.69147" lon="3.21719">
        <ele>353.6</ele>
        <time>2024-05-19T08:46:04Z</time>
      </trkpt>
      <trkpt lat="45.69146" lon="3.21724">
        <ele>353.8</ele>
        <time>2024-05-19T08:46:05Z</time>
      </trkpt>
      <trkpt lat="45.69146" lon="3.2173">
        <ele>353.8</ele>
        <time>2024-05-19T08:46:06Z</time>
      </trkpt>
      <trkpt lat="45.69145" lon="3.21736">
        <ele>354</ele>
        <time>2024-05-19T08:46:07Z</time>
      </trkpt>
      <trkpt lat="45.69145" lon="3.21741">
        <ele>354.2</ele>
        <time>2024-05-19T08:46:08Z</time>
      </trkpt>
      <trkpt lat="45.69144" lon="3.21747">
        <ele>354.2</ele>
        <time>2024-05-19T08:46:09Z</time>
      </trkpt>
      <trkpt lat="45.69144" lon="3.21753">
        <ele>354.4</ele>
        <time>2024-05-19T08:46:10Z</time>
      </trkpt>
      <trkpt lat="45.69143" lon="3.21758">
        <ele>354.4</ele>
        <time>2024-05-19T08:46:11Z</time>
      </trkpt>
      <trkpt lat="45.69139" lon="3.21765">
        <ele>354.6</ele>
        <time>2024-05-19T08:46:12Z</time>
      </trkpt>
      <trkpt lat="45.69139" lon="3.21771">
        <ele>354.6</ele>
        <time>2024-05-19T08:46:13Z</time>
      </trkpt>
      <trkpt lat="45.6914" lon="3.2178">
        <ele>354.8</ele>
        <time>2024-05-19T08:46:14Z</time>
      </trkpt>
      <trkpt lat="45.69145" lon="3.21784">
        <ele>355</ele>
        <time>2024-05-19T08:46:15Z</time>
      </trkpt>
      <trkpt lat="45.69149" lon="3.21784">
        <ele>355.2</ele>
        <time>2024-05-19T08:46:16Z</time>
      </trkpt>
      <trkpt lat="45.69153" lon="3.21784">
        <ele>355.4</ele>
        <time>2024-05-19T08:46:17Z</time>
      </trkpt>
      <trkpt lat="45.69158" lon="3.21777">
        <ele>355.6</ele>
        <time>2024-05-19T08:46:18Z</time>
      </trkpt>
      <trkpt lat="45.69163" lon="3.21776">
        <ele>355.6</ele>
        <time>2024-05-19T08:46:19Z</time>
      </trkpt>
      <trkpt lat="45.69168" lon="3.21774">
        <ele>355.8</ele>
        <time>2024-05-19T08:46:20Z</time>
      </trkpt>
      <trkpt lat="45.69174" lon="3.21772">
        <ele>355.8</ele>
        <time>2024-05-19T08:46:21Z</time>
      </trkpt>
      <trkpt lat="45.6918" lon="3.2177">
        <ele>356</ele>
        <time>2024-05-19T08:46:22Z</time>
      </trkpt>
      <trkpt lat="45.69187" lon="3.21769">
        <ele>356</ele>
        <time>2024-05-19T08:46:23Z</time>
      </trkpt>
      <trkpt lat="45.69193" lon="3.21769">
        <ele>356.2</ele>
        <time>2024-05-19T08:46:24Z</time>
      </trkpt>
      <trkpt lat="45.692" lon="3.21769">
        <ele>356.2</ele>
        <time>2024-05-19T08:46:25Z</time>
      </trkpt>
      <trkpt lat="45.69207" lon="3.21769">
        <ele>356.2</ele>
        <time>2024-05-19T08:46:26Z</time>
      </trkpt>
      <trkpt lat="45.69214" lon="3.21769">
        <ele>356.4</ele>
        <time>2024-05-19T08:46:27Z</time>
      </trkpt>
      <trkpt lat="45.69221" lon="3.21769">
        <ele>356.4</ele>
        <time>2024-05-19T08:46:28Z</time>
      </trkpt>
      <trkpt lat="45.69228" lon="3.21769">
        <ele>356.4</ele>
        <time>2024-05-19T08:46:29Z</time>
      </trkpt>
      <trkpt lat="45.69235" lon="3.21769">
        <ele>356.6</ele>
        <time>2024-05-19T08:46:30Z</time>
      </trkpt>
      <trkpt lat="45.69241" lon="3.21767">
        <ele>356.6</ele>
        <time>2024-05-19T08:46:31Z</time>
      </trkpt>
      <trkpt lat="45.69249" lon="3.21765">
        <ele>356.6</ele>
        <time>2024-05-19T08:46:32Z</time>
      </trkpt>
      <trkpt lat="45.69256" lon="3.21764">
        <ele>356.6</ele>
        <time>2024-05-19T08:46:33Z</time>
      </trkpt>
      <trkpt lat="45.69263" lon="3.21762">
        <ele>356.8</ele>
        <time>2024-05-19T08:46:34Z</time>
      </trkpt>
      <trkpt lat="45.6927" lon="3.2176">
        <ele>356.8</ele>
        <time>2024-05-19T08:46:35Z</time>
      </trkpt>
      <trkpt lat="45.69278" lon="3.21758">
        <ele>356.8</ele>
        <time>2024-05-19T08:46:36Z</time>
      </trkpt>
      <trkpt lat="45.69285" lon="3.21757">
        <ele>356.8</ele>
        <time>2024-05-19T08:46:37Z</time>
      </trkpt>
      <trkpt lat="45.69293" lon="3.21754">
        <ele>357</ele>
        <time>2024-05-19T08:46:38Z</time>
      </trkpt>
      <trkpt lat="45.693" lon="3.21751">
        <ele>357</ele>
        <time>2024-05-19T08:46:39Z</time>
      </trkpt>
      <trkpt lat="45.69308" lon="3.21749">
        <ele>357</ele>
        <time>2024-05-19T08:46:40Z</time>
      </trkpt>
      <trkpt lat="45.69316" lon="3.21746">
        <ele>357</ele>
        <time>2024-05-19T08:46:41Z</time>
      </trkpt>
      <trkpt lat="45.69323" lon="3.21743">
        <ele>357.2</ele>
        <time>2024-05-19T08:46:42Z</time>
      </trkpt>
      <trkpt lat="45.6933" lon="3.2174">
        <ele>357.2</ele>
        <time>2024-05-19T08:46:43Z</time>
      </trkpt>
      <trkpt lat="45.69338" lon="3.21737">
        <ele>357.2</ele>
        <time>2024-05-19T08:46:44Z</time>
      </trkpt>
      <trkpt lat="45.69346" lon="3.21735">
        <ele>357.2</ele>
        <time>2024-05-19T08:46:45Z</time>
      </trkpt>
      <trkpt lat="45.69353" lon="3.21732">
        <ele>357.2</ele>
        <time>2024-05-19T08:46:46Z</time>
      </trkpt>
      <trkpt lat="45.69361" lon="3.21729">
        <ele>357.2</ele>
        <time>2024-05-19T08:46:47Z</time>
      </trkpt>
      <trkpt lat="45.69368" lon="3.21726">
        <ele>357.2</ele>
        <time>2024-05-19T08:46:48Z</time>
      </trkpt>
      <trkpt lat="45.69376" lon="3.21723">
        <ele>357.2</ele>
        <time>2024-05-19T08:46:49Z</time>
      </trkpt>
      <trkpt lat="45.69384" lon="3.21721">
        <ele>357.2</ele>
        <time>2024-05-19T08:46:50Z</time>
      </trkpt>
      <trkpt lat="45.69391" lon="3.21718">
        <ele>357.2</ele>
        <time>2024-05-19T08:46:51Z</time>
      </trkpt>
      <trkpt lat="45.69399" lon="3.21715">
        <ele>357.2</ele>
        <time>2024-05-19T08:46:52Z</time>
      </trkpt>
      <trkpt lat="45.69406" lon="3.21712">
        <ele>357.2</ele>
        <time>2024-05-19T08:46:53Z</time>
      </trkpt>
      <trkpt lat="45.69414" lon="3.21709">
        <ele>357.2</ele>
        <time>2024-05-19T08:46:54Z</time>
      </trkpt>
      <trkpt lat="45.69421" lon="3.21707">
        <ele>357.2</ele>
        <time>2024-05-19T08:46:55Z</time>
      </trkpt>
      <trkpt lat="45.69429" lon="3.21704">
        <ele>357.2</ele>
        <time>2024-05-19T08:46:56Z</time>
      </trkpt>
      <trkpt lat="45.69436" lon="3.21701">
        <ele>357.2</ele>
        <time>2024-05-19T08:46:57Z</time>
      </trkpt>
      <trkpt lat="45.69444" lon="3.21698">
        <ele>357.2</ele>
        <time>2024-05-19T08:46:58Z</time>
      </trkpt>
      <trkpt lat="45.69451" lon="3.21694">
        <ele>357.2</ele>
        <time>2024-05-19T08:46:59Z</time>
      </trkpt>
      <trkpt lat="45.69459" lon="3.21691">
        <ele>357.2</ele>
        <time>2024-05-19T08:47:00Z</time>
      </trkpt>
      <trkpt lat="45.69466" lon="3.21689">
        <ele>357</ele>
        <time>2024-05-19T08:47:01Z</time>
      </trkpt>
      <trkpt lat="45.69472" lon="3.21686">
        <ele>357.4</ele>
        <time>2024-05-19T08:47:02Z</time>
      </trkpt>
      <trkpt lat="45.69477" lon="3.21684">
        <ele>357</ele>
        <time>2024-05-19T08:47:03Z</time>
      </trkpt>
      <trkpt lat="45.69481" lon="3.21682">
        <ele>357</ele>
        <time>2024-05-19T08:47:04Z</time>
      </trkpt>
      <trkpt lat="45.69483" lon="3.21682">
        <ele>356.8</ele>
        <time>2024-05-19T08:47:05Z</time>
      </trkpt>
      <trkpt lat="45.69483" lon="3.21681">
        <ele>356.8</ele>
        <time>2024-05-19T08:47:06Z</time>
      </trkpt>
      <trkpt lat="45.69483" lon="3.21681">
        <ele>356.8</ele>
        <time>2024-05-19T08:47:07Z</time>
      </trkpt>
      <trkpt lat="45.69483" lon="3.21681">
        <ele>356.8</ele>
        <time>2024-05-19T08:47:08Z</time>
      </trkpt>
      <trkpt lat="45.69485" lon="3.21681">
        <ele>356.8</ele>
        <time>2024-05-19T08:47:09Z</time>
      </trkpt>
      <trkpt lat="45.69488" lon="3.21679">
        <ele>356.8</ele>
        <time>2024-05-19T08:47:10Z</time>
      </trkpt>
      <trkpt lat="45.69492" lon="3.21678">
        <ele>356.8</ele>
        <time>2024-05-19T08:47:11Z</time>
      </trkpt>
      <trkpt lat="45.69496" lon="3.21676">
        <ele>356.8</ele>
        <time>2024-05-19T08:47:12Z</time>
      </trkpt>
      <trkpt lat="45.69501" lon="3.21674">
        <ele>356.8</ele>
        <time>2024-05-19T08:47:13Z</time>
      </trkpt>
      <trkpt lat="45.69507" lon="3.21672">
        <ele>356.6</ele>
        <time>2024-05-19T08:47:14Z</time>
      </trkpt>
      <trkpt lat="45.69512" lon="3.21671">
        <ele>356.6</ele>
        <time>2024-05-19T08:47:15Z</time>
      </trkpt>
      <trkpt lat="45.69518" lon="3.21669">
        <ele>356.6</ele>
        <time>2024-05-19T08:47:16Z</time>
      </trkpt>
      <trkpt lat="45.69524" lon="3.21667">
        <ele>356.6</ele>
        <time>2024-05-19T08:47:17Z</time>
      </trkpt>
      <trkpt lat="45.6953" lon="3.21666">
        <ele>356.6</ele>
        <time>2024-05-19T08:47:18Z</time>
      </trkpt>
      <trkpt lat="45.69536" lon="3.21664">
        <ele>356.6</ele>
        <time>2024-05-19T08:47:19Z</time>
      </trkpt>
      <trkpt lat="45.69542" lon="3.21662">
        <ele>356.4</ele>
        <time>2024-05-19T08:47:20Z</time>
      </trkpt>
      <trkpt lat="45.69549" lon="3.2166">
        <ele>356.4</ele>
        <time>2024-05-19T08:47:21Z</time>
      </trkpt>
      <trkpt lat="45.69556" lon="3.21658">
        <ele>356.4</ele>
        <time>2024-05-19T08:47:22Z</time>
      </trkpt>
      <trkpt lat="45.69563" lon="3.21657">
        <ele>356.4</ele>
        <time>2024-05-19T08:47:23Z</time>
      </trkpt>
      <trkpt lat="45.69563" lon="3.21657">
        <ele>356.4</ele>
        <time>2024-05-19T08:47:24Z</time>
      </trkpt>
      <trkpt lat="45.69584" lon="3.21656">
        <ele>356.4</ele>
        <time>2024-05-19T08:47:25Z</time>
      </trkpt>
      <trkpt lat="45.69584" lon="3.21656">
        <ele>356.4</ele>
        <time>2024-05-19T08:47:26Z</time>
      </trkpt>
      <trkpt lat="45.69591" lon="3.21656">
        <ele>356.4</ele>
        <time>2024-05-19T08:47:27Z</time>
      </trkpt>
      <trkpt lat="45.69598" lon="3.21655">
        <ele>356.2</ele>
        <time>2024-05-19T08:47:28Z</time>
      </trkpt>
      <trkpt lat="45.69606" lon="3.21655">
        <ele>356.2</ele>
        <time>2024-05-19T08:47:29Z</time>
      </trkpt>
      <trkpt lat="45.69613" lon="3.21655">
        <ele>356.2</ele>
        <time>2024-05-19T08:47:30Z</time>
      </trkpt>
      <trkpt lat="45.6962" lon="3.21655">
        <ele>356.2</ele>
        <time>2024-05-19T08:47:31Z</time>
      </trkpt>
      <trkpt lat="45.69627" lon="3.21656">
        <ele>356.2</ele>
        <time>2024-05-19T08:47:32Z</time>
      </trkpt>
      <trkpt lat="45.69634" lon="3.21657">
        <ele>356.2</ele>
        <time>2024-05-19T08:47:33Z</time>
      </trkpt>
      <trkpt lat="45.69642" lon="3.21658">
        <ele>356.2</ele>
        <time>2024-05-19T08:47:34Z</time>
      </trkpt>
      <trkpt lat="45.69649" lon="3.21658">
        <ele>356</ele>
        <time>2024-05-19T08:47:35Z</time>
      </trkpt>
      <trkpt lat="45.69656" lon="3.21659">
        <ele>356</ele>
        <time>2024-05-19T08:47:36Z</time>
      </trkpt>
      <trkpt lat="45.69664" lon="3.2166">
        <ele>356</ele>
        <time>2024-05-19T08:47:37Z</time>
      </trkpt>
      <trkpt lat="45.69671" lon="3.21661">
        <ele>356</ele>
        <time>2024-05-19T08:47:38Z</time>
      </trkpt>
      <trkpt lat="45.69679" lon="3.21662">
        <ele>356</ele>
        <time>2024-05-19T08:47:39Z</time>
      </trkpt>
      <trkpt lat="45.69686" lon="3.21663">
        <ele>355.8</ele>
        <time>2024-05-19T08:47:40Z</time>
      </trkpt>
      <trkpt lat="45.69694" lon="3.21663">
        <ele>355.8</ele>
        <time>2024-05-19T08:47:41Z</time>
      </trkpt>
      <trkpt lat="45.69702" lon="3.21664">
        <ele>355.8</ele>
        <time>2024-05-19T08:47:42Z</time>
      </trkpt>
      <trkpt lat="45.6971" lon="3.21665">
        <ele>355.8</ele>
        <time>2024-05-19T08:47:43Z</time>
      </trkpt>
      <trkpt lat="45.69718" lon="3.21666">
        <ele>355.6</ele>
        <time>2024-05-19T08:47:44Z</time>
      </trkpt>
      <trkpt lat="45.69726" lon="3.21667">
        <ele>355.6</ele>
        <time>2024-05-19T08:47:45Z</time>
      </trkpt>
      <trkpt lat="45.69734" lon="3.21668">
        <ele>355.6</ele>
        <time>2024-05-19T08:47:46Z</time>
      </trkpt>
      <trkpt lat="45.69751" lon="3.2167">
        <ele>355.4</ele>
        <time>2024-05-19T08:47:47Z</time>
      </trkpt>
      <trkpt lat="45.69751" lon="3.2167">
        <ele>355.4</ele>
        <time>2024-05-19T08:47:48Z</time>
      </trkpt>
      <trkpt lat="45.69759" lon="3.2167">
        <ele>355.4</ele>
        <time>2024-05-19T08:47:49Z</time>
      </trkpt>
      <trkpt lat="45.69768" lon="3.21671">
        <ele>355.2</ele>
        <time>2024-05-19T08:47:50Z</time>
      </trkpt>
      <trkpt lat="45.69777" lon="3.21672">
        <ele>355.2</ele>
        <time>2024-05-19T08:47:51Z</time>
      </trkpt>
      <trkpt lat="45.69786" lon="3.21673">
        <ele>355</ele>
        <time>2024-05-19T08:47:52Z</time>
      </trkpt>
      <trkpt lat="45.69795" lon="3.21674">
        <ele>354.8</ele>
        <time>2024-05-19T08:47:53Z</time>
      </trkpt>
      <trkpt lat="45.69805" lon="3.21675">
        <ele>354.8</ele>
        <time>2024-05-19T08:47:54Z</time>
      </trkpt>
      <trkpt lat="45.69814" lon="3.21676">
        <ele>354.6</ele>
        <time>2024-05-19T08:47:55Z</time>
      </trkpt>
      <trkpt lat="45.69824" lon="3.21678">
        <ele>354.4</ele>
        <time>2024-05-19T08:47:56Z</time>
      </trkpt>
      <trkpt lat="45.69834" lon="3.21679">
        <ele>354.2</ele>
        <time>2024-05-19T08:47:57Z</time>
      </trkpt>
      <trkpt lat="45.69844" lon="3.2168">
        <ele>354</ele>
        <time>2024-05-19T08:47:58Z</time>
      </trkpt>
      <trkpt lat="45.69854" lon="3.21681">
        <ele>354</ele>
        <time>2024-05-19T08:47:59Z</time>
      </trkpt>
      <trkpt lat="45.69864" lon="3.21682">
        <ele>353.8</ele>
        <time>2024-05-19T08:48:00Z</time>
      </trkpt>
      <trkpt lat="45.69874" lon="3.21683">
        <ele>353.6</ele>
        <time>2024-05-19T08:48:01Z</time>
      </trkpt>
      <trkpt lat="45.69884" lon="3.21684">
        <ele>353.4</ele>
        <time>2024-05-19T08:48:02Z</time>
      </trkpt>
      <trkpt lat="45.69895" lon="3.21685">
        <ele>353.2</ele>
        <time>2024-05-19T08:48:03Z</time>
      </trkpt>
      <trkpt lat="45.69905" lon="3.21686">
        <ele>353</ele>
        <time>2024-05-19T08:48:04Z</time>
      </trkpt>
      <trkpt lat="45.69915" lon="3.21688">
        <ele>352.8</ele>
        <time>2024-05-19T08:48:05Z</time>
      </trkpt>
      <trkpt lat="45.69926" lon="3.21689">
        <ele>352.6</ele>
        <time>2024-05-19T08:48:06Z</time>
      </trkpt>
      <trkpt lat="45.69936" lon="3.2169">
        <ele>352.4</ele>
        <time>2024-05-19T08:48:07Z</time>
      </trkpt>
      <trkpt lat="45.69946" lon="3.21691">
        <ele>352.2</ele>
        <time>2024-05-19T08:48:08Z</time>
      </trkpt>
      <trkpt lat="45.69956" lon="3.21692">
        <ele>352</ele>
        <time>2024-05-19T08:48:09Z</time>
      </trkpt>
      <trkpt lat="45.69965" lon="3.21694">
        <ele>352</ele>
        <time>2024-05-19T08:48:10Z</time>
      </trkpt>
      <trkpt lat="45.69975" lon="3.21695">
        <ele>351.8</ele>
        <time>2024-05-19T08:48:11Z</time>
      </trkpt>
      <trkpt lat="45.69985" lon="3.21697">
        <ele>351.6</ele>
        <time>2024-05-19T08:48:12Z</time>
      </trkpt>
      <trkpt lat="45.69994" lon="3.21698">
        <ele>351.4</ele>
        <time>2024-05-19T08:48:13Z</time>
      </trkpt>
      <trkpt lat="45.70004" lon="3.217">
        <ele>351.4</ele>
        <time>2024-05-19T08:48:14Z</time>
      </trkpt>
      <trkpt lat="45.70013" lon="3.21702">
        <ele>351.2</ele>
        <time>2024-05-19T08:48:15Z</time>
      </trkpt>
      <trkpt lat="45.70022" lon="3.21704">
        <ele>351</ele>
        <time>2024-05-19T08:48:16Z</time>
      </trkpt>
      <trkpt lat="45.70031" lon="3.21706">
        <ele>350.8</ele>
        <time>2024-05-19T08:48:17Z</time>
      </trkpt>
      <trkpt lat="45.7004" lon="3.21707">
        <ele>350.8</ele>
        <time>2024-05-19T08:48:18Z</time>
      </trkpt>
      <trkpt lat="45.70049" lon="3.21709">
        <ele>350.6</ele>
        <time>2024-05-19T08:48:19Z</time>
      </trkpt>
      <trkpt lat="45.70058" lon="3.21711">
        <ele>350.4</ele>
        <time>2024-05-19T08:48:20Z</time>
      </trkpt>
      <trkpt lat="45.70067" lon="3.21713">
        <ele>350.4</ele>
        <time>2024-05-19T08:48:21Z</time>
      </trkpt>
      <trkpt lat="45.70076" lon="3.21714">
        <ele>350.2</ele>
        <time>2024-05-19T08:48:22Z</time>
      </trkpt>
      <trkpt lat="45.70084" lon="3.21716">
        <ele>350.2</ele>
        <time>2024-05-19T08:48:23Z</time>
      </trkpt>
      <trkpt lat="45.70093" lon="3.21718">
        <ele>350</ele>
        <time>2024-05-19T08:48:24Z</time>
      </trkpt>
      <trkpt lat="45.70102" lon="3.21719">
        <ele>349.8</ele>
        <time>2024-05-19T08:48:25Z</time>
      </trkpt>
      <trkpt lat="45.70111" lon="3.2172">
        <ele>349.8</ele>
        <time>2024-05-19T08:48:26Z</time>
      </trkpt>
      <trkpt lat="45.70119" lon="3.2172">
        <ele>349.6</ele>
        <time>2024-05-19T08:48:27Z</time>
      </trkpt>
      <trkpt lat="45.70128" lon="3.21721">
        <ele>349.6</ele>
        <time>2024-05-19T08:48:28Z</time>
      </trkpt>
      <trkpt lat="45.70137" lon="3.21722">
        <ele>349.4</ele>
        <time>2024-05-19T08:48:29Z</time>
      </trkpt>
      <trkpt lat="45.70146" lon="3.21722">
        <ele>349.4</ele>
        <time>2024-05-19T08:48:30Z</time>
      </trkpt>
      <trkpt lat="45.70155" lon="3.21723">
        <ele>349.2</ele>
        <time>2024-05-19T08:48:31Z</time>
      </trkpt>
      <trkpt lat="45.70163" lon="3.21723">
        <ele>349</ele>
        <time>2024-05-19T08:48:32Z</time>
      </trkpt>
      <trkpt lat="45.70172" lon="3.21724">
        <ele>348.8</ele>
        <time>2024-05-19T08:48:33Z</time>
      </trkpt>
      <trkpt lat="45.7018" lon="3.21725">
        <ele>348.8</ele>
        <time>2024-05-19T08:48:34Z</time>
      </trkpt>
      <trkpt lat="45.70189" lon="3.21725">
        <ele>348.6</ele>
        <time>2024-05-19T08:48:35Z</time>
      </trkpt>
      <trkpt lat="45.70197" lon="3.21726">
        <ele>348.6</ele>
        <time>2024-05-19T08:48:36Z</time>
      </trkpt>
      <trkpt lat="45.70206" lon="3.21726">
        <ele>348.6</ele>
        <time>2024-05-19T08:48:37Z</time>
      </trkpt>
      <trkpt lat="45.70214" lon="3.21727">
        <ele>348.4</ele>
        <time>2024-05-19T08:48:38Z</time>
      </trkpt>
      <trkpt lat="45.70222" lon="3.21727">
        <ele>348.4</ele>
        <time>2024-05-19T08:48:39Z</time>
      </trkpt>
      <trkpt lat="45.7023" lon="3.21728">
        <ele>348.2</ele>
        <time>2024-05-19T08:48:40Z</time>
      </trkpt>
      <trkpt lat="45.70238" lon="3.21731">
        <ele>348.2</ele>
        <time>2024-05-19T08:48:41Z</time>
      </trkpt>
      <trkpt lat="45.70246" lon="3.21734">
        <ele>348</ele>
        <time>2024-05-19T08:48:42Z</time>
      </trkpt>
      <trkpt lat="45.70254" lon="3.21736">
        <ele>348</ele>
        <time>2024-05-19T08:48:43Z</time>
      </trkpt>
      <trkpt lat="45.70262" lon="3.21739">
        <ele>347.8</ele>
        <time>2024-05-19T08:48:44Z</time>
      </trkpt>
      <trkpt lat="45.70269" lon="3.21742">
        <ele>347.8</ele>
        <time>2024-05-19T08:48:45Z</time>
      </trkpt>
      <trkpt lat="45.70277" lon="3.21744">
        <ele>347.6</ele>
        <time>2024-05-19T08:48:46Z</time>
      </trkpt>
      <trkpt lat="45.70284" lon="3.21747">
        <ele>347.6</ele>
        <time>2024-05-19T08:48:47Z</time>
      </trkpt>
      <trkpt lat="45.70292" lon="3.21749">
        <ele>347.4</ele>
        <time>2024-05-19T08:48:48Z</time>
      </trkpt>
      <trkpt lat="45.70299" lon="3.21752">
        <ele>347.4</ele>
        <time>2024-05-19T08:48:49Z</time>
      </trkpt>
      <trkpt lat="45.70307" lon="3.21754">
        <ele>347.4</ele>
        <time>2024-05-19T08:48:50Z</time>
      </trkpt>
      <trkpt lat="45.70314" lon="3.21757">
        <ele>347.4</ele>
        <time>2024-05-19T08:48:51Z</time>
      </trkpt>
      <trkpt lat="45.70321" lon="3.21759">
        <ele>347.2</ele>
        <time>2024-05-19T08:48:52Z</time>
      </trkpt>
      <trkpt lat="45.70328" lon="3.21762">
        <ele>347.2</ele>
        <time>2024-05-19T08:48:53Z</time>
      </trkpt>
      <trkpt lat="45.70335" lon="3.21764">
        <ele>347.2</ele>
        <time>2024-05-19T08:48:54Z</time>
      </trkpt>
      <trkpt lat="45.70342" lon="3.21767">
        <ele>347</ele>
        <time>2024-05-19T08:48:55Z</time>
      </trkpt>
      <trkpt lat="45.70349" lon="3.21769">
        <ele>347</ele>
        <time>2024-05-19T08:48:56Z</time>
      </trkpt>
      <trkpt lat="45.70356" lon="3.21771">
        <ele>347</ele>
        <time>2024-05-19T08:48:57Z</time>
      </trkpt>
      <trkpt lat="45.70362" lon="3.21773">
        <ele>347</ele>
        <time>2024-05-19T08:48:58Z</time>
      </trkpt>
      <trkpt lat="45.70369" lon="3.21776">
        <ele>347</ele>
        <time>2024-05-19T08:48:59Z</time>
      </trkpt>
      <trkpt lat="45.70375" lon="3.21778">
        <ele>347</ele>
        <time>2024-05-19T08:49:00Z</time>
      </trkpt>
      <trkpt lat="45.70381" lon="3.2178">
        <ele>347.2</ele>
        <time>2024-05-19T08:49:01Z</time>
      </trkpt>
      <trkpt lat="45.70388" lon="3.21782">
        <ele>347.2</ele>
        <time>2024-05-19T08:49:02Z</time>
      </trkpt>
      <trkpt lat="45.70394" lon="3.21784">
        <ele>347.2</ele>
        <time>2024-05-19T08:49:03Z</time>
      </trkpt>
      <trkpt lat="45.704" lon="3.21786">
        <ele>347.2</ele>
        <time>2024-05-19T08:49:04Z</time>
      </trkpt>
      <trkpt lat="45.70406" lon="3.21788">
        <ele>347.2</ele>
        <time>2024-05-19T08:49:05Z</time>
      </trkpt>
      <trkpt lat="45.70412" lon="3.2179">
        <ele>347.2</ele>
        <time>2024-05-19T08:49:06Z</time>
      </trkpt>
      <trkpt lat="45.70418" lon="3.21792">
        <ele>347.2</ele>
        <time>2024-05-19T08:49:07Z</time>
      </trkpt>
      <trkpt lat="45.70424" lon="3.21794">
        <ele>347.2</ele>
        <time>2024-05-19T08:49:08Z</time>
      </trkpt>
      <trkpt lat="45.70429" lon="3.21796">
        <ele>347.2</ele>
        <time>2024-05-19T08:49:09Z</time>
      </trkpt>
      <trkpt lat="45.70435" lon="3.21798">
        <ele>347.2</ele>
        <time>2024-05-19T08:49:10Z</time>
      </trkpt>
      <trkpt lat="45.70441" lon="3.218">
        <ele>347.2</ele>
        <time>2024-05-19T08:49:11Z</time>
      </trkpt>
      <trkpt lat="45.70446" lon="3.21802">
        <ele>346.8</ele>
        <time>2024-05-19T08:49:12Z</time>
      </trkpt>
      <trkpt lat="45.70451" lon="3.21804">
        <ele>347.2</ele>
        <time>2024-05-19T08:49:13Z</time>
      </trkpt>
      <trkpt lat="45.70456" lon="3.21806">
        <ele>347.4</ele>
        <time>2024-05-19T08:49:14Z</time>
      </trkpt>
      <trkpt lat="45.70462" lon="3.21807">
        <ele>347.8</ele>
        <time>2024-05-19T08:49:15Z</time>
      </trkpt>
      <trkpt lat="45.70467" lon="3.21809">
        <ele>348</ele>
        <time>2024-05-19T08:49:16Z</time>
      </trkpt>
      <trkpt lat="45.70472" lon="3.21811">
        <ele>347.6</ele>
        <time>2024-05-19T08:49:17Z</time>
      </trkpt>
      <trkpt lat="45.70477" lon="3.21813">
        <ele>347.6</ele>
        <time>2024-05-19T08:49:18Z</time>
      </trkpt>
      <trkpt lat="45.70483" lon="3.21814">
        <ele>347.6</ele>
        <time>2024-05-19T08:49:19Z</time>
      </trkpt>
      <trkpt lat="45.70488" lon="3.21816">
        <ele>347.6</ele>
        <time>2024-05-19T08:49:20Z</time>
      </trkpt>
      <trkpt lat="45.70493" lon="3.21818">
        <ele>347.8</ele>
        <time>2024-05-19T08:49:21Z</time>
      </trkpt>
      <trkpt lat="45.70499" lon="3.21819">
        <ele>347.8</ele>
        <time>2024-05-19T08:49:22Z</time>
      </trkpt>
      <trkpt lat="45.70504" lon="3.21821">
        <ele>347.8</ele>
        <time>2024-05-19T08:49:23Z</time>
      </trkpt>
      <trkpt lat="45.70509" lon="3.21822">
        <ele>347.8</ele>
        <time>2024-05-19T08:49:24Z</time>
      </trkpt>
      <trkpt lat="45.70514" lon="3.21824">
        <ele>347.8</ele>
        <time>2024-05-19T08:49:25Z</time>
      </trkpt>
      <trkpt lat="45.70519" lon="3.21825">
        <ele>348</ele>
        <time>2024-05-19T08:49:26Z</time>
      </trkpt>
      <trkpt lat="45.70524" lon="3.21827">
        <ele>348</ele>
        <time>2024-05-19T08:49:27Z</time>
      </trkpt>
      <trkpt lat="45.70529" lon="3.21828">
        <ele>348</ele>
        <time>2024-05-19T08:49:28Z</time>
      </trkpt>
      <trkpt lat="45.70535" lon="3.2183">
        <ele>348.2</ele>
        <time>2024-05-19T08:49:29Z</time>
      </trkpt>
      <trkpt lat="45.7054" lon="3.21832">
        <ele>348.2</ele>
        <time>2024-05-19T08:49:30Z</time>
      </trkpt>
      <trkpt lat="45.70545" lon="3.21833">
        <ele>348.2</ele>
        <time>2024-05-19T08:49:31Z</time>
      </trkpt>
      <trkpt lat="45.70551" lon="3.21835">
        <ele>348.4</ele>
        <time>2024-05-19T08:49:32Z</time>
      </trkpt>
      <trkpt lat="45.70556" lon="3.21836">
        <ele>348.4</ele>
        <time>2024-05-19T08:49:33Z</time>
      </trkpt>
      <trkpt lat="45.70562" lon="3.21838">
        <ele>348.6</ele>
        <time>2024-05-19T08:49:34Z</time>
      </trkpt>
      <trkpt lat="45.70567" lon="3.2184">
        <ele>348.6</ele>
        <time>2024-05-19T08:49:35Z</time>
      </trkpt>
      <trkpt lat="45.70573" lon="3.21842">
        <ele>348.6</ele>
        <time>2024-05-19T08:49:36Z</time>
      </trkpt>
      <trkpt lat="45.70579" lon="3.21843">
        <ele>348.6</ele>
        <time>2024-05-19T08:49:37Z</time>
      </trkpt>
      <trkpt lat="45.70585" lon="3.21845">
        <ele>348.8</ele>
        <time>2024-05-19T08:49:38Z</time>
      </trkpt>
      <trkpt lat="45.70591" lon="3.21846">
        <ele>348.8</ele>
        <time>2024-05-19T08:49:39Z</time>
      </trkpt>
      <trkpt lat="45.70598" lon="3.21847">
        <ele>348.8</ele>
        <time>2024-05-19T08:49:40Z</time>
      </trkpt>
      <trkpt lat="45.70604" lon="3.21847">
        <ele>349</ele>
        <time>2024-05-19T08:49:41Z</time>
      </trkpt>
      <trkpt lat="45.70611" lon="3.21848">
        <ele>349</ele>
        <time>2024-05-19T08:49:42Z</time>
      </trkpt>
      <trkpt lat="45.70618" lon="3.21849">
        <ele>349</ele>
        <time>2024-05-19T08:49:43Z</time>
      </trkpt>
      <trkpt lat="45.70626" lon="3.21849">
        <ele>349</ele>
        <time>2024-05-19T08:49:44Z</time>
      </trkpt>
      <trkpt lat="45.70633" lon="3.2185">
        <ele>349</ele>
        <time>2024-05-19T08:49:45Z</time>
      </trkpt>
      <trkpt lat="45.7064" lon="3.2185">
        <ele>349</ele>
        <time>2024-05-19T08:49:46Z</time>
      </trkpt>
      <trkpt lat="45.70647" lon="3.21849">
        <ele>349</ele>
        <time>2024-05-19T08:49:47Z</time>
      </trkpt>
      <trkpt lat="45.70655" lon="3.21849">
        <ele>349</ele>
        <time>2024-05-19T08:49:48Z</time>
      </trkpt>
      <trkpt lat="45.70662" lon="3.21848">
        <ele>349</ele>
        <time>2024-05-19T08:49:49Z</time>
      </trkpt>
      <trkpt lat="45.7067" lon="3.21848">
        <ele>349</ele>
        <time>2024-05-19T08:49:50Z</time>
      </trkpt>
      <trkpt lat="45.70679" lon="3.21848">
        <ele>349</ele>
        <time>2024-05-19T08:49:51Z</time>
      </trkpt>
      <trkpt lat="45.70687" lon="3.21847">
        <ele>349</ele>
        <time>2024-05-19T08:49:52Z</time>
      </trkpt>
      <trkpt lat="45.70695" lon="3.21847">
        <ele>349</ele>
        <time>2024-05-19T08:49:53Z</time>
      </trkpt>
      <trkpt lat="45.70703" lon="3.21846">
        <ele>348.8</ele>
        <time>2024-05-19T08:49:54Z</time>
      </trkpt>
      <trkpt lat="45.70711" lon="3.21846">
        <ele>348.8</ele>
        <time>2024-05-19T08:49:55Z</time>
      </trkpt>
      <trkpt lat="45.70719" lon="3.21845">
        <ele>348.8</ele>
        <time>2024-05-19T08:49:56Z</time>
      </trkpt>
      <trkpt lat="45.70727" lon="3.21845">
        <ele>348.8</ele>
        <time>2024-05-19T08:49:57Z</time>
      </trkpt>
      <trkpt lat="45.70735" lon="3.21844">
        <ele>349.4</ele>
        <time>2024-05-19T08:49:58Z</time>
      </trkpt>
      <trkpt lat="45.70743" lon="3.21844">
        <ele>349.2</ele>
        <time>2024-05-19T08:49:59Z</time>
      </trkpt>
      <trkpt lat="45.70751" lon="3.21844">
        <ele>349</ele>
        <time>2024-05-19T08:50:00Z</time>
      </trkpt>
      <trkpt lat="45.70759" lon="3.21847">
        <ele>348.4</ele>
        <time>2024-05-19T08:50:01Z</time>
      </trkpt>
      <trkpt lat="45.70768" lon="3.21849">
        <ele>348.6</ele>
        <time>2024-05-19T08:50:02Z</time>
      </trkpt>
      <trkpt lat="45.70776" lon="3.21853">
        <ele>348.6</ele>
        <time>2024-05-19T08:50:03Z</time>
      </trkpt>
      <trkpt lat="45.70784" lon="3.21859">
        <ele>348.4</ele>
        <time>2024-05-19T08:50:04Z</time>
      </trkpt>
      <trkpt lat="45.70792" lon="3.21864">
        <ele>348.4</ele>
        <time>2024-05-19T08:50:05Z</time>
      </trkpt>
      <trkpt lat="45.708" lon="3.2187">
        <ele>348.4</ele>
        <time>2024-05-19T08:50:06Z</time>
      </trkpt>
      <trkpt lat="45.70807" lon="3.21875">
        <ele>348.2</ele>
        <time>2024-05-19T08:50:07Z</time>
      </trkpt>
      <trkpt lat="45.70815" lon="3.21883">
        <ele>348.2</ele>
        <time>2024-05-19T08:50:08Z</time>
      </trkpt>
      <trkpt lat="45.70822" lon="3.21892">
        <ele>348.2</ele>
        <time>2024-05-19T08:50:09Z</time>
      </trkpt>
      <trkpt lat="45.70829" lon="3.219">
        <ele>348.2</ele>
        <time>2024-05-19T08:50:10Z</time>
      </trkpt>
      <trkpt lat="45.70836" lon="3.21908">
        <ele>348.2</ele>
        <time>2024-05-19T08:50:11Z</time>
      </trkpt>
      <trkpt lat="45.70843" lon="3.21916">
        <ele>348</ele>
        <time>2024-05-19T08:50:12Z</time>
      </trkpt>
      <trkpt lat="45.7085" lon="3.21925">
        <ele>348</ele>
        <time>2024-05-19T08:50:13Z</time>
      </trkpt>
      <trkpt lat="45.70857" lon="3.21933">
        <ele>348</ele>
        <time>2024-05-19T08:50:14Z</time>
      </trkpt>
      <trkpt lat="45.70865" lon="3.2194">
        <ele>348</ele>
        <time>2024-05-19T08:50:15Z</time>
      </trkpt>
      <trkpt lat="45.70873" lon="3.21948">
        <ele>347.8</ele>
        <time>2024-05-19T08:50:16Z</time>
      </trkpt>
      <trkpt lat="45.70881" lon="3.21955">
        <ele>347.8</ele>
        <time>2024-05-19T08:50:17Z</time>
      </trkpt>
      <trkpt lat="45.7089" lon="3.2196">
        <ele>347.8</ele>
        <time>2024-05-19T08:50:18Z</time>
      </trkpt>
      <trkpt lat="45.70899" lon="3.21964">
        <ele>347.6</ele>
        <time>2024-05-19T08:50:19Z</time>
      </trkpt>
      <trkpt lat="45.70908" lon="3.21968">
        <ele>347.6</ele>
        <time>2024-05-19T08:50:20Z</time>
      </trkpt>
      <trkpt lat="45.70918" lon="3.21972">
        <ele>347.4</ele>
        <time>2024-05-19T08:50:21Z</time>
      </trkpt>
      <trkpt lat="45.70927" lon="3.21975">
        <ele>347.4</ele>
        <time>2024-05-19T08:50:22Z</time>
      </trkpt>
      <trkpt lat="45.70936" lon="3.21979">
        <ele>347.2</ele>
        <time>2024-05-19T08:50:23Z</time>
      </trkpt>
      <trkpt lat="45.70945" lon="3.21982">
        <ele>347.2</ele>
        <time>2024-05-19T08:50:24Z</time>
      </trkpt>
      <trkpt lat="45.70955" lon="3.21984">
        <ele>347</ele>
        <time>2024-05-19T08:50:25Z</time>
      </trkpt>
      <trkpt lat="45.70964" lon="3.21987">
        <ele>347</ele>
        <time>2024-05-19T08:50:26Z</time>
      </trkpt>
      <trkpt lat="45.70973" lon="3.21989">
        <ele>346.8</ele>
        <time>2024-05-19T08:50:27Z</time>
      </trkpt>
      <trkpt lat="45.70982" lon="3.21992">
        <ele>346.6</ele>
        <time>2024-05-19T08:50:28Z</time>
      </trkpt>
      <trkpt lat="45.70992" lon="3.21994">
        <ele>346.6</ele>
        <time>2024-05-19T08:50:29Z</time>
      </trkpt>
      <trkpt lat="45.71001" lon="3.21997">
        <ele>346.6</ele>
        <time>2024-05-19T08:50:30Z</time>
      </trkpt>
      <trkpt lat="45.7101" lon="3.22">
        <ele>346.4</ele>
        <time>2024-05-19T08:50:31Z</time>
      </trkpt>
      <trkpt lat="45.7102" lon="3.22002">
        <ele>346.2</ele>
        <time>2024-05-19T08:50:32Z</time>
      </trkpt>
      <trkpt lat="45.71029" lon="3.22005">
        <ele>346.2</ele>
        <time>2024-05-19T08:50:33Z</time>
      </trkpt>
      <trkpt lat="45.71038" lon="3.22007">
        <ele>346</ele>
        <time>2024-05-19T08:50:34Z</time>
      </trkpt>
      <trkpt lat="45.71048" lon="3.2201">
        <ele>345.8</ele>
        <time>2024-05-19T08:50:35Z</time>
      </trkpt>
      <trkpt lat="45.71057" lon="3.22012">
        <ele>345.8</ele>
        <time>2024-05-19T08:50:36Z</time>
      </trkpt>
      <trkpt lat="45.71066" lon="3.22015">
        <ele>345.6</ele>
        <time>2024-05-19T08:50:37Z</time>
      </trkpt>
      <trkpt lat="45.71076" lon="3.22017">
        <ele>345.4</ele>
        <time>2024-05-19T08:50:38Z</time>
      </trkpt>
      <trkpt lat="45.71085" lon="3.2202">
        <ele>345.2</ele>
        <time>2024-05-19T08:50:39Z</time>
      </trkpt>
      <trkpt lat="45.71094" lon="3.22022">
        <ele>345.2</ele>
        <time>2024-05-19T08:50:40Z</time>
      </trkpt>
      <trkpt lat="45.71103" lon="3.22025">
        <ele>345</ele>
        <time>2024-05-19T08:50:41Z</time>
      </trkpt>
      <trkpt lat="45.71112" lon="3.22027">
        <ele>345</ele>
        <time>2024-05-19T08:50:42Z</time>
      </trkpt>
      <trkpt lat="45.7112" lon="3.2203">
        <ele>344.8</ele>
        <time>2024-05-19T08:50:43Z</time>
      </trkpt>
      <trkpt lat="45.71129" lon="3.22032">
        <ele>344.8</ele>
        <time>2024-05-19T08:50:44Z</time>
      </trkpt>
      <trkpt lat="45.71139" lon="3.22035">
        <ele>344.6</ele>
        <time>2024-05-19T08:50:45Z</time>
      </trkpt>
      <trkpt lat="45.71148" lon="3.22037">
        <ele>344.6</ele>
        <time>2024-05-19T08:50:46Z</time>
      </trkpt>
      <trkpt lat="45.71157" lon="3.2204">
        <ele>344.4</ele>
        <time>2024-05-19T08:50:47Z</time>
      </trkpt>
      <trkpt lat="45.71166" lon="3.22042">
        <ele>344.2</ele>
        <time>2024-05-19T08:50:48Z</time>
      </trkpt>
      <trkpt lat="45.71175" lon="3.22045">
        <ele>344</ele>
        <time>2024-05-19T08:50:49Z</time>
      </trkpt>
      <trkpt lat="45.71184" lon="3.22047">
        <ele>343.8</ele>
        <time>2024-05-19T08:50:50Z</time>
      </trkpt>
      <trkpt lat="45.71193" lon="3.2205">
        <ele>343.6</ele>
        <time>2024-05-19T08:50:51Z</time>
      </trkpt>
      <trkpt lat="45.71202" lon="3.22052">
        <ele>343.4</ele>
        <time>2024-05-19T08:50:52Z</time>
      </trkpt>
      <trkpt lat="45.71211" lon="3.22055">
        <ele>343.2</ele>
        <time>2024-05-19T08:50:53Z</time>
      </trkpt>
      <trkpt lat="45.7122" lon="3.22057">
        <ele>343.2</ele>
        <time>2024-05-19T08:50:54Z</time>
      </trkpt>
      <trkpt lat="45.71228" lon="3.22059">
        <ele>343</ele>
        <time>2024-05-19T08:50:55Z</time>
      </trkpt>
      <trkpt lat="45.71237" lon="3.22062">
        <ele>343</ele>
        <time>2024-05-19T08:50:56Z</time>
      </trkpt>
      <trkpt lat="45.71246" lon="3.22064">
        <ele>343</ele>
        <time>2024-05-19T08:50:57Z</time>
      </trkpt>
      <trkpt lat="45.71254" lon="3.22067">
        <ele>342.8</ele>
        <time>2024-05-19T08:50:58Z</time>
      </trkpt>
      <trkpt lat="45.71262" lon="3.22069">
        <ele>342.8</ele>
        <time>2024-05-19T08:50:59Z</time>
      </trkpt>
      <trkpt lat="45.7127" lon="3.22071">
        <ele>342.8</ele>
        <time>2024-05-19T08:51:00Z</time>
      </trkpt>
      <trkpt lat="45.71278" lon="3.22074">
        <ele>342.8</ele>
        <time>2024-05-19T08:51:01Z</time>
      </trkpt>
      <trkpt lat="45.71286" lon="3.22076">
        <ele>342.6</ele>
        <time>2024-05-19T08:51:02Z</time>
      </trkpt>
      <trkpt lat="45.71293" lon="3.22078">
        <ele>342.6</ele>
        <time>2024-05-19T08:51:03Z</time>
      </trkpt>
      <trkpt lat="45.713" lon="3.2208">
        <ele>342.6</ele>
        <time>2024-05-19T08:51:04Z</time>
      </trkpt>
      <trkpt lat="45.71307" lon="3.22082">
        <ele>342.6</ele>
        <time>2024-05-19T08:51:05Z</time>
      </trkpt>
      <trkpt lat="45.71314" lon="3.22084">
        <ele>342.6</ele>
        <time>2024-05-19T08:51:06Z</time>
      </trkpt>
      <trkpt lat="45.7132" lon="3.22086">
        <ele>342.6</ele>
        <time>2024-05-19T08:51:07Z</time>
      </trkpt>
      <trkpt lat="45.71327" lon="3.22087">
        <ele>342.6</ele>
        <time>2024-05-19T08:51:08Z</time>
      </trkpt>
      <trkpt lat="45.71333" lon="3.22089">
        <ele>342.6</ele>
        <time>2024-05-19T08:51:09Z</time>
      </trkpt>
      <trkpt lat="45.7134" lon="3.22091">
        <ele>342.6</ele>
        <time>2024-05-19T08:51:10Z</time>
      </trkpt>
      <trkpt lat="45.71347" lon="3.22093">
        <ele>342.6</ele>
        <time>2024-05-19T08:51:11Z</time>
      </trkpt>
      <trkpt lat="45.71353" lon="3.22095">
        <ele>342.6</ele>
        <time>2024-05-19T08:51:12Z</time>
      </trkpt>
      <trkpt lat="45.7136" lon="3.22097">
        <ele>342.6</ele>
        <time>2024-05-19T08:51:13Z</time>
      </trkpt>
      <trkpt lat="45.71366" lon="3.22099">
        <ele>342.6</ele>
        <time>2024-05-19T08:51:14Z</time>
      </trkpt>
      <trkpt lat="45.71373" lon="3.22101">
        <ele>342.6</ele>
        <time>2024-05-19T08:51:15Z</time>
      </trkpt>
      <trkpt lat="45.71379" lon="3.22102">
        <ele>342.6</ele>
        <time>2024-05-19T08:51:16Z</time>
      </trkpt>
      <trkpt lat="45.71386" lon="3.22104">
        <ele>342.6</ele>
        <time>2024-05-19T08:51:17Z</time>
      </trkpt>
      <trkpt lat="45.71393" lon="3.22106">
        <ele>342.6</ele>
        <time>2024-05-19T08:51:18Z</time>
      </trkpt>
      <trkpt lat="45.714" lon="3.22107">
        <ele>342.6</ele>
        <time>2024-05-19T08:51:19Z</time>
      </trkpt>
      <trkpt lat="45.71407" lon="3.2211">
        <ele>342.6</ele>
        <time>2024-05-19T08:51:20Z</time>
      </trkpt>
      <trkpt lat="45.71414" lon="3.22113">
        <ele>342.6</ele>
        <time>2024-05-19T08:51:21Z</time>
      </trkpt>
      <trkpt lat="45.71421" lon="3.22115">
        <ele>342.6</ele>
        <time>2024-05-19T08:51:22Z</time>
      </trkpt>
      <trkpt lat="45.71428" lon="3.22118">
        <ele>342.6</ele>
        <time>2024-05-19T08:51:23Z</time>
      </trkpt>
      <trkpt lat="45.71435" lon="3.22121">
        <ele>342.4</ele>
        <time>2024-05-19T08:51:24Z</time>
      </trkpt>
      <trkpt lat="45.71442" lon="3.22124">
        <ele>342.6</ele>
        <time>2024-05-19T08:51:25Z</time>
      </trkpt>
      <trkpt lat="45.71449" lon="3.22126">
        <ele>342.4</ele>
        <time>2024-05-19T08:51:26Z</time>
      </trkpt>
      <trkpt lat="45.71456" lon="3.22129">
        <ele>342.4</ele>
        <time>2024-05-19T08:51:27Z</time>
      </trkpt>
      <trkpt lat="45.71463" lon="3.22132">
        <ele>342.2</ele>
        <time>2024-05-19T08:51:28Z</time>
      </trkpt>
      <trkpt lat="45.71471" lon="3.22135">
        <ele>342.4</ele>
        <time>2024-05-19T08:51:29Z</time>
      </trkpt>
      <trkpt lat="45.71478" lon="3.22137">
        <ele>342.2</ele>
        <time>2024-05-19T08:51:30Z</time>
      </trkpt>
      <trkpt lat="45.71485" lon="3.2214">
        <ele>342.2</ele>
        <time>2024-05-19T08:51:31Z</time>
      </trkpt>
      <trkpt lat="45.71493" lon="3.22143">
        <ele>342.2</ele>
        <time>2024-05-19T08:51:32Z</time>
      </trkpt>
      <trkpt lat="45.715" lon="3.22146">
        <ele>342.2</ele>
        <time>2024-05-19T08:51:33Z</time>
      </trkpt>
      <trkpt lat="45.71508" lon="3.22149">
        <ele>342</ele>
        <time>2024-05-19T08:51:34Z</time>
      </trkpt>
      <trkpt lat="45.71516" lon="3.22152">
        <ele>342</ele>
        <time>2024-05-19T08:51:35Z</time>
      </trkpt>
      <trkpt lat="45.71523" lon="3.22155">
        <ele>342</ele>
        <time>2024-05-19T08:51:36Z</time>
      </trkpt>
      <trkpt lat="45.71531" lon="3.22158">
        <ele>342</ele>
        <time>2024-05-19T08:51:37Z</time>
      </trkpt>
      <trkpt lat="45.71538" lon="3.2216">
        <ele>342</ele>
        <time>2024-05-19T08:51:38Z</time>
      </trkpt>
      <trkpt lat="45.71546" lon="3.22163">
        <ele>341.8</ele>
        <time>2024-05-19T08:51:39Z</time>
      </trkpt>
      <trkpt lat="45.71554" lon="3.22166">
        <ele>341.8</ele>
        <time>2024-05-19T08:51:40Z</time>
      </trkpt>
      <trkpt lat="45.71562" lon="3.22169">
        <ele>341.8</ele>
        <time>2024-05-19T08:51:41Z</time>
      </trkpt>
      <trkpt lat="45.7157" lon="3.22172">
        <ele>341.8</ele>
        <time>2024-05-19T08:51:42Z</time>
      </trkpt>
      <trkpt lat="45.71578" lon="3.22175">
        <ele>341.8</ele>
        <time>2024-05-19T08:51:43Z</time>
      </trkpt>
      <trkpt lat="45.71586" lon="3.22178">
        <ele>341.6</ele>
        <time>2024-05-19T08:51:44Z</time>
      </trkpt>
      <trkpt lat="45.71594" lon="3.22181">
        <ele>341.6</ele>
        <time>2024-05-19T08:51:45Z</time>
      </trkpt>
      <trkpt lat="45.71602" lon="3.22184">
        <ele>341.6</ele>
        <time>2024-05-19T08:51:46Z</time>
      </trkpt>
      <trkpt lat="45.7161" lon="3.22187">
        <ele>341.6</ele>
        <time>2024-05-19T08:51:47Z</time>
      </trkpt>
      <trkpt lat="45.71617" lon="3.2219">
        <ele>341.4</ele>
        <time>2024-05-19T08:51:48Z</time>
      </trkpt>
      <trkpt lat="45.71625" lon="3.22193">
        <ele>341.4</ele>
        <time>2024-05-19T08:51:49Z</time>
      </trkpt>
      <trkpt lat="45.71633" lon="3.22196">
        <ele>341.4</ele>
        <time>2024-05-19T08:51:50Z</time>
      </trkpt>
      <trkpt lat="45.71641" lon="3.222">
        <ele>341.4</ele>
        <time>2024-05-19T08:51:51Z</time>
      </trkpt>
      <trkpt lat="45.71648" lon="3.22203">
        <ele>341.2</ele>
        <time>2024-05-19T08:51:52Z</time>
      </trkpt>
      <trkpt lat="45.71656" lon="3.22206">
        <ele>341.2</ele>
        <time>2024-05-19T08:51:53Z</time>
      </trkpt>
      <trkpt lat="45.71664" lon="3.22209">
        <ele>341.2</ele>
        <time>2024-05-19T08:51:54Z</time>
      </trkpt>
      <trkpt lat="45.71672" lon="3.22212">
        <ele>341.2</ele>
        <time>2024-05-19T08:51:55Z</time>
      </trkpt>
      <trkpt lat="45.71679" lon="3.22215">
        <ele>341.2</ele>
        <time>2024-05-19T08:51:56Z</time>
      </trkpt>
      <trkpt lat="45.71687" lon="3.22219">
        <ele>341.2</ele>
        <time>2024-05-19T08:51:57Z</time>
      </trkpt>
      <trkpt lat="45.71694" lon="3.22222">
        <ele>341.2</ele>
        <time>2024-05-19T08:51:58Z</time>
      </trkpt>
      <trkpt lat="45.71702" lon="3.22225">
        <ele>341.2</ele>
        <time>2024-05-19T08:51:59Z</time>
      </trkpt>
      <trkpt lat="45.71709" lon="3.22228">
        <ele>341.2</ele>
        <time>2024-05-19T08:52:00Z</time>
      </trkpt>
      <trkpt lat="45.71717" lon="3.22231">
        <ele>341.2</ele>
        <time>2024-05-19T08:52:01Z</time>
      </trkpt>
      <trkpt lat="45.71724" lon="3.22234">
        <ele>341.2</ele>
        <time>2024-05-19T08:52:02Z</time>
      </trkpt>
      <trkpt lat="45.71732" lon="3.22237">
        <ele>341</ele>
        <time>2024-05-19T08:52:03Z</time>
      </trkpt>
      <trkpt lat="45.71739" lon="3.2224">
        <ele>341</ele>
        <time>2024-05-19T08:52:04Z</time>
      </trkpt>
      <trkpt lat="45.71746" lon="3.22243">
        <ele>341</ele>
        <time>2024-05-19T08:52:05Z</time>
      </trkpt>
      <trkpt lat="45.71753" lon="3.22245">
        <ele>341</ele>
        <time>2024-05-19T08:52:06Z</time>
      </trkpt>
      <trkpt lat="45.7176" lon="3.22248">
        <ele>341</ele>
        <time>2024-05-19T08:52:07Z</time>
      </trkpt>
      <trkpt lat="45.71767" lon="3.22251">
        <ele>341</ele>
        <time>2024-05-19T08:52:08Z</time>
      </trkpt>
      <trkpt lat="45.71774" lon="3.22254">
        <ele>341</ele>
        <time>2024-05-19T08:52:09Z</time>
      </trkpt>
      <trkpt lat="45.71781" lon="3.22257">
        <ele>341</ele>
        <time>2024-05-19T08:52:10Z</time>
      </trkpt>
      <trkpt lat="45.71788" lon="3.2226">
        <ele>341</ele>
        <time>2024-05-19T08:52:11Z</time>
      </trkpt>
      <trkpt lat="45.71795" lon="3.22263">
        <ele>341</ele>
        <time>2024-05-19T08:52:12Z</time>
      </trkpt>
      <trkpt lat="45.71801" lon="3.22265">
        <ele>341</ele>
        <time>2024-05-19T08:52:13Z</time>
      </trkpt>
      <trkpt lat="45.71808" lon="3.22268">
        <ele>341</ele>
        <time>2024-05-19T08:52:14Z</time>
      </trkpt>
      <trkpt lat="45.71816" lon="3.22271">
        <ele>341</ele>
        <time>2024-05-19T08:52:15Z</time>
      </trkpt>
      <trkpt lat="45.71822" lon="3.22274">
        <ele>341</ele>
        <time>2024-05-19T08:52:16Z</time>
      </trkpt>
      <trkpt lat="45.71829" lon="3.22277">
        <ele>341</ele>
        <time>2024-05-19T08:52:17Z</time>
      </trkpt>
      <trkpt lat="45.71836" lon="3.2228">
        <ele>341</ele>
        <time>2024-05-19T08:52:18Z</time>
      </trkpt>
      <trkpt lat="45.71843" lon="3.22283">
        <ele>341</ele>
        <time>2024-05-19T08:52:19Z</time>
      </trkpt>
      <trkpt lat="45.7185" lon="3.22286">
        <ele>341</ele>
        <time>2024-05-19T08:52:20Z</time>
      </trkpt>
      <trkpt lat="45.71857" lon="3.22289">
        <ele>341</ele>
        <time>2024-05-19T08:52:21Z</time>
      </trkpt>
      <trkpt lat="45.71864" lon="3.22292">
        <ele>341</ele>
        <time>2024-05-19T08:52:22Z</time>
      </trkpt>
      <trkpt lat="45.71871" lon="3.22295">
        <ele>341</ele>
        <time>2024-05-19T08:52:23Z</time>
      </trkpt>
      <trkpt lat="45.71878" lon="3.22298">
        <ele>341</ele>
        <time>2024-05-19T08:52:24Z</time>
      </trkpt>
      <trkpt lat="45.71885" lon="3.22301">
        <ele>341</ele>
        <time>2024-05-19T08:52:25Z</time>
      </trkpt>
      <trkpt lat="45.71892" lon="3.22304">
        <ele>340.8</ele>
        <time>2024-05-19T08:52:26Z</time>
      </trkpt>
      <trkpt lat="45.71899" lon="3.22307">
        <ele>340.8</ele>
        <time>2024-05-19T08:52:27Z</time>
      </trkpt>
      <trkpt lat="45.71906" lon="3.2231">
        <ele>340.8</ele>
        <time>2024-05-19T08:52:28Z</time>
      </trkpt>
      <trkpt lat="45.71913" lon="3.22313">
        <ele>340.8</ele>
        <time>2024-05-19T08:52:29Z</time>
      </trkpt>
      <trkpt lat="45.7192" lon="3.22316">
        <ele>340.8</ele>
        <time>2024-05-19T08:52:30Z</time>
      </trkpt>
      <trkpt lat="45.71928" lon="3.22319">
        <ele>340.8</ele>
        <time>2024-05-19T08:52:31Z</time>
      </trkpt>
      <trkpt lat="45.71935" lon="3.22322">
        <ele>340.8</ele>
        <time>2024-05-19T08:52:32Z</time>
      </trkpt>
      <trkpt lat="45.71942" lon="3.22326">
        <ele>340.8</ele>
        <time>2024-05-19T08:52:33Z</time>
      </trkpt>
      <trkpt lat="45.71949" lon="3.22329">
        <ele>340.8</ele>
        <time>2024-05-19T08:52:34Z</time>
      </trkpt>
      <trkpt lat="45.71957" lon="3.22332">
        <ele>340.6</ele>
        <time>2024-05-19T08:52:35Z</time>
      </trkpt>
      <trkpt lat="45.71964" lon="3.22335">
        <ele>340.6</ele>
        <time>2024-05-19T08:52:36Z</time>
      </trkpt>
      <trkpt lat="45.71971" lon="3.22338">
        <ele>340.6</ele>
        <time>2024-05-19T08:52:37Z</time>
      </trkpt>
      <trkpt lat="45.71979" lon="3.22341">
        <ele>340.6</ele>
        <time>2024-05-19T08:52:38Z</time>
      </trkpt>
      <trkpt lat="45.71986" lon="3.22345">
        <ele>340.6</ele>
        <time>2024-05-19T08:52:39Z</time>
      </trkpt>
      <trkpt lat="45.71994" lon="3.22348">
        <ele>340.6</ele>
        <time>2024-05-19T08:52:40Z</time>
      </trkpt>
      <trkpt lat="45.72001" lon="3.22351">
        <ele>340.4</ele>
        <time>2024-05-19T08:52:41Z</time>
      </trkpt>
      <trkpt lat="45.72009" lon="3.22354">
        <ele>340.4</ele>
        <time>2024-05-19T08:52:42Z</time>
      </trkpt>
      <trkpt lat="45.72016" lon="3.22357">
        <ele>340.4</ele>
        <time>2024-05-19T08:52:43Z</time>
      </trkpt>
      <trkpt lat="45.72023" lon="3.22361">
        <ele>340.4</ele>
        <time>2024-05-19T08:52:44Z</time>
      </trkpt>
      <trkpt lat="45.7203" lon="3.22364">
        <ele>340.4</ele>
        <time>2024-05-19T08:52:45Z</time>
      </trkpt>
      <trkpt lat="45.72038" lon="3.22367">
        <ele>340.4</ele>
        <time>2024-05-19T08:52:46Z</time>
      </trkpt>
      <trkpt lat="45.72045" lon="3.2237">
        <ele>340.4</ele>
        <time>2024-05-19T08:52:47Z</time>
      </trkpt>
      <trkpt lat="45.72052" lon="3.22373">
        <ele>340.4</ele>
        <time>2024-05-19T08:52:48Z</time>
      </trkpt>
      <trkpt lat="45.72059" lon="3.22376">
        <ele>340.4</ele>
        <time>2024-05-19T08:52:49Z</time>
      </trkpt>
      <trkpt lat="45.72066" lon="3.22379">
        <ele>340.4</ele>
        <time>2024-05-19T08:52:50Z</time>
      </trkpt>
      <trkpt lat="45.72073" lon="3.22382">
        <ele>340.4</ele>
        <time>2024-05-19T08:52:51Z</time>
      </trkpt>
      <trkpt lat="45.7208" lon="3.22385">
        <ele>340.4</ele>
        <time>2024-05-19T08:52:52Z</time>
      </trkpt>
      <trkpt lat="45.72087" lon="3.22388">
        <ele>340.2</ele>
        <time>2024-05-19T08:52:53Z</time>
      </trkpt>
      <trkpt lat="45.72093" lon="3.22391">
        <ele>340.2</ele>
        <time>2024-05-19T08:52:54Z</time>
      </trkpt>
      <trkpt lat="45.721" lon="3.22394">
        <ele>340.2</ele>
        <time>2024-05-19T08:52:55Z</time>
      </trkpt>
      <trkpt lat="45.72107" lon="3.22397">
        <ele>340.2</ele>
        <time>2024-05-19T08:52:56Z</time>
      </trkpt>
      <trkpt lat="45.72114" lon="3.22399">
        <ele>340.2</ele>
        <time>2024-05-19T08:52:57Z</time>
      </trkpt>
      <trkpt lat="45.72121" lon="3.22402">
        <ele>340.2</ele>
        <time>2024-05-19T08:52:58Z</time>
      </trkpt>
      <trkpt lat="45.72127" lon="3.22405">
        <ele>340.2</ele>
        <time>2024-05-19T08:52:59Z</time>
      </trkpt>
      <trkpt lat="45.72134" lon="3.22408">
        <ele>340.2</ele>
        <time>2024-05-19T08:53:00Z</time>
      </trkpt>
      <trkpt lat="45.72141" lon="3.2241">
        <ele>340.2</ele>
        <time>2024-05-19T08:53:01Z</time>
      </trkpt>
      <trkpt lat="45.72148" lon="3.22413">
        <ele>340.2</ele>
        <time>2024-05-19T08:53:02Z</time>
      </trkpt>
      <trkpt lat="45.72155" lon="3.22416">
        <ele>340.2</ele>
        <time>2024-05-19T08:53:03Z</time>
      </trkpt>
      <trkpt lat="45.72162" lon="3.22419">
        <ele>340.2</ele>
        <time>2024-05-19T08:53:04Z</time>
      </trkpt>
      <trkpt lat="45.72168" lon="3.22422">
        <ele>340.2</ele>
        <time>2024-05-19T08:53:05Z</time>
      </trkpt>
      <trkpt lat="45.72175" lon="3.22424">
        <ele>340.2</ele>
        <time>2024-05-19T08:53:06Z</time>
      </trkpt>
      <trkpt lat="45.72182" lon="3.22427">
        <ele>340.4</ele>
        <time>2024-05-19T08:53:07Z</time>
      </trkpt>
      <trkpt lat="45.72189" lon="3.2243">
        <ele>340.2</ele>
        <time>2024-05-19T08:53:08Z</time>
      </trkpt>
      <trkpt lat="45.72196" lon="3.22433">
        <ele>340</ele>
        <time>2024-05-19T08:53:09Z</time>
      </trkpt>
      <trkpt lat="45.72202" lon="3.22435">
        <ele>340.2</ele>
        <time>2024-05-19T08:53:10Z</time>
      </trkpt>
      <trkpt lat="45.72209" lon="3.22438">
        <ele>340.2</ele>
        <time>2024-05-19T08:53:11Z</time>
      </trkpt>
      <trkpt lat="45.72216" lon="3.22441">
        <ele>340.2</ele>
        <time>2024-05-19T08:53:12Z</time>
      </trkpt>
      <trkpt lat="45.72223" lon="3.22444">
        <ele>340.2</ele>
        <time>2024-05-19T08:53:13Z</time>
      </trkpt>
      <trkpt lat="45.72229" lon="3.22446">
        <ele>340.2</ele>
        <time>2024-05-19T08:53:14Z</time>
      </trkpt>
      <trkpt lat="45.72236" lon="3.22449">
        <ele>340.2</ele>
        <time>2024-05-19T08:53:15Z</time>
      </trkpt>
      <trkpt lat="45.72243" lon="3.22452">
        <ele>340.2</ele>
        <time>2024-05-19T08:53:16Z</time>
      </trkpt>
      <trkpt lat="45.7225" lon="3.22454">
        <ele>340</ele>
        <time>2024-05-19T08:53:17Z</time>
      </trkpt>
      <trkpt lat="45.72256" lon="3.22455">
        <ele>340.4</ele>
        <time>2024-05-19T08:53:18Z</time>
      </trkpt>
      <trkpt lat="45.72263" lon="3.22457">
        <ele>340.4</ele>
        <time>2024-05-19T08:53:19Z</time>
      </trkpt>
      <trkpt lat="45.72278" lon="3.2246">
        <ele>340.4</ele>
        <time>2024-05-19T08:53:20Z</time>
      </trkpt>
      <trkpt lat="45.72278" lon="3.2246">
        <ele>340.2</ele>
        <time>2024-05-19T08:53:21Z</time>
      </trkpt>
      <trkpt lat="45.72285" lon="3.22462">
        <ele>340.2</ele>
        <time>2024-05-19T08:53:22Z</time>
      </trkpt>
      <trkpt lat="45.72292" lon="3.22463">
        <ele>340.2</ele>
        <time>2024-05-19T08:53:23Z</time>
      </trkpt>
      <trkpt lat="45.72299" lon="3.22465">
        <ele>340.2</ele>
        <time>2024-05-19T08:53:24Z</time>
      </trkpt>
      <trkpt lat="45.72313" lon="3.22468">
        <ele>340.2</ele>
        <time>2024-05-19T08:53:25Z</time>
      </trkpt>
      <trkpt lat="45.72313" lon="3.22468">
        <ele>340.2</ele>
        <time>2024-05-19T08:53:26Z</time>
      </trkpt>
      <trkpt lat="45.7232" lon="3.2247">
        <ele>340.2</ele>
        <time>2024-05-19T08:53:27Z</time>
      </trkpt>
      <trkpt lat="45.72328" lon="3.22472">
        <ele>340.2</ele>
        <time>2024-05-19T08:53:28Z</time>
      </trkpt>
      <trkpt lat="45.72335" lon="3.22473">
        <ele>340.2</ele>
        <time>2024-05-19T08:53:29Z</time>
      </trkpt>
      <trkpt lat="45.72342" lon="3.22475">
        <ele>340.2</ele>
        <time>2024-05-19T08:53:30Z</time>
      </trkpt>
      <trkpt lat="45.7235" lon="3.22477">
        <ele>340.2</ele>
        <time>2024-05-19T08:53:31Z</time>
      </trkpt>
      <trkpt lat="45.72357" lon="3.22478">
        <ele>340</ele>
        <time>2024-05-19T08:53:32Z</time>
      </trkpt>
      <trkpt lat="45.72364" lon="3.2248">
        <ele>340</ele>
        <time>2024-05-19T08:53:33Z</time>
      </trkpt>
      <trkpt lat="45.72372" lon="3.22481">
        <ele>340</ele>
        <time>2024-05-19T08:53:34Z</time>
      </trkpt>
      <trkpt lat="45.72379" lon="3.22482">
        <ele>340</ele>
        <time>2024-05-19T08:53:35Z</time>
      </trkpt>
      <trkpt lat="45.72387" lon="3.22484">
        <ele>340</ele>
        <time>2024-05-19T08:53:36Z</time>
      </trkpt>
      <trkpt lat="45.72394" lon="3.22485">
        <ele>340</ele>
        <time>2024-05-19T08:53:37Z</time>
      </trkpt>
      <trkpt lat="45.72401" lon="3.22486">
        <ele>340</ele>
        <time>2024-05-19T08:53:38Z</time>
      </trkpt>
      <trkpt lat="45.72409" lon="3.22488">
        <ele>340</ele>
        <time>2024-05-19T08:53:39Z</time>
      </trkpt>
      <trkpt lat="45.72416" lon="3.22489">
        <ele>340</ele>
        <time>2024-05-19T08:53:40Z</time>
      </trkpt>
      <trkpt lat="45.72424" lon="3.2249">
        <ele>340</ele>
        <time>2024-05-19T08:53:41Z</time>
      </trkpt>
      <trkpt lat="45.72431" lon="3.22492">
        <ele>340</ele>
        <time>2024-05-19T08:53:42Z</time>
      </trkpt>
      <trkpt lat="45.72439" lon="3.22493">
        <ele>339.8</ele>
        <time>2024-05-19T08:53:43Z</time>
      </trkpt>
      <trkpt lat="45.72446" lon="3.22495">
        <ele>339.8</ele>
        <time>2024-05-19T08:53:44Z</time>
      </trkpt>
      <trkpt lat="45.72454" lon="3.22496">
        <ele>339.8</ele>
        <time>2024-05-19T08:53:45Z</time>
      </trkpt>
      <trkpt lat="45.72462" lon="3.22497">
        <ele>339.8</ele>
        <time>2024-05-19T08:53:46Z</time>
      </trkpt>
      <trkpt lat="45.72469" lon="3.22499">
        <ele>339.8</ele>
        <time>2024-05-19T08:53:47Z</time>
      </trkpt>
      <trkpt lat="45.72478" lon="3.225">
        <ele>339.8</ele>
        <time>2024-05-19T08:53:48Z</time>
      </trkpt>
      <trkpt lat="45.72486" lon="3.22502">
        <ele>339.8</ele>
        <time>2024-05-19T08:53:49Z</time>
      </trkpt>
      <trkpt lat="45.72494" lon="3.22503">
        <ele>339.6</ele>
        <time>2024-05-19T08:53:50Z</time>
      </trkpt>
      <trkpt lat="45.72502" lon="3.22505">
        <ele>339.6</ele>
        <time>2024-05-19T08:53:51Z</time>
      </trkpt>
      <trkpt lat="45.7251" lon="3.22506">
        <ele>339.6</ele>
        <time>2024-05-19T08:53:52Z</time>
      </trkpt>
      <trkpt lat="45.72518" lon="3.22508">
        <ele>339.4</ele>
        <time>2024-05-19T08:53:53Z</time>
      </trkpt>
      <trkpt lat="45.72527" lon="3.2251">
        <ele>339.4</ele>
        <time>2024-05-19T08:53:54Z</time>
      </trkpt>
      <trkpt lat="45.72535" lon="3.22512">
        <ele>339.2</ele>
        <time>2024-05-19T08:53:55Z</time>
      </trkpt>
      <trkpt lat="45.72544" lon="3.22513">
        <ele>339.2</ele>
        <time>2024-05-19T08:53:56Z</time>
      </trkpt>
      <trkpt lat="45.72553" lon="3.22515">
        <ele>339</ele>
        <time>2024-05-19T08:53:57Z</time>
      </trkpt>
      <trkpt lat="45.72561" lon="3.22517">
        <ele>338.8</ele>
        <time>2024-05-19T08:53:58Z</time>
      </trkpt>
      <trkpt lat="45.7257" lon="3.22519">
        <ele>338.8</ele>
        <time>2024-05-19T08:53:59Z</time>
      </trkpt>
      <trkpt lat="45.72579" lon="3.22523">
        <ele>338.6</ele>
        <time>2024-05-19T08:54:00Z</time>
      </trkpt>
      <trkpt lat="45.72588" lon="3.22527">
        <ele>338.4</ele>
        <time>2024-05-19T08:54:01Z</time>
      </trkpt>
      <trkpt lat="45.72596" lon="3.22532">
        <ele>338.2</ele>
        <time>2024-05-19T08:54:02Z</time>
      </trkpt>
      <trkpt lat="45.72604" lon="3.22537">
        <ele>338</ele>
        <time>2024-05-19T08:54:03Z</time>
      </trkpt>
      <trkpt lat="45.72613" lon="3.22543">
        <ele>337.8</ele>
        <time>2024-05-19T08:54:04Z</time>
      </trkpt>
      <trkpt lat="45.72622" lon="3.22548">
        <ele>337.6</ele>
        <time>2024-05-19T08:54:05Z</time>
      </trkpt>
      <trkpt lat="45.72631" lon="3.22553">
        <ele>337.4</ele>
        <time>2024-05-19T08:54:06Z</time>
      </trkpt>
      <trkpt lat="45.7264" lon="3.2256">
        <ele>337.2</ele>
        <time>2024-05-19T08:54:07Z</time>
      </trkpt>
      <trkpt lat="45.72648" lon="3.22567">
        <ele>337</ele>
        <time>2024-05-19T08:54:08Z</time>
      </trkpt>
      <trkpt lat="45.72657" lon="3.22574">
        <ele>336.8</ele>
        <time>2024-05-19T08:54:09Z</time>
      </trkpt>
      <trkpt lat="45.72665" lon="3.22581">
        <ele>336.6</ele>
        <time>2024-05-19T08:54:10Z</time>
      </trkpt>
      <trkpt lat="45.72674" lon="3.22588">
        <ele>336.4</ele>
        <time>2024-05-19T08:54:11Z</time>
      </trkpt>
      <trkpt lat="45.72682" lon="3.22595">
        <ele>336.4</ele>
        <time>2024-05-19T08:54:12Z</time>
      </trkpt>
      <trkpt lat="45.72691" lon="3.22602">
        <ele>336.2</ele>
        <time>2024-05-19T08:54:13Z</time>
      </trkpt>
      <trkpt lat="45.72699" lon="3.22609">
        <ele>336</ele>
        <time>2024-05-19T08:54:14Z</time>
      </trkpt>
      <trkpt lat="45.72708" lon="3.22616">
        <ele>336</ele>
        <time>2024-05-19T08:54:15Z</time>
      </trkpt>
      <trkpt lat="45.72716" lon="3.22623">
        <ele>335.8</ele>
        <time>2024-05-19T08:54:16Z</time>
      </trkpt>
      <trkpt lat="45.72724" lon="3.2263">
        <ele>335.6</ele>
        <time>2024-05-19T08:54:17Z</time>
      </trkpt>
      <trkpt lat="45.72732" lon="3.22637">
        <ele>335.6</ele>
        <time>2024-05-19T08:54:18Z</time>
      </trkpt>
      <trkpt lat="45.72741" lon="3.22643">
        <ele>335.4</ele>
        <time>2024-05-19T08:54:19Z</time>
      </trkpt>
      <trkpt lat="45.72749" lon="3.2265">
        <ele>335.4</ele>
        <time>2024-05-19T08:54:20Z</time>
      </trkpt>
      <trkpt lat="45.72756" lon="3.22656">
        <ele>335.2</ele>
        <time>2024-05-19T08:54:21Z</time>
      </trkpt>
      <trkpt lat="45.72764" lon="3.22663">
        <ele>335</ele>
        <time>2024-05-19T08:54:22Z</time>
      </trkpt>
      <trkpt lat="45.72772" lon="3.22669">
        <ele>335</ele>
        <time>2024-05-19T08:54:23Z</time>
      </trkpt>
      <trkpt lat="45.72779" lon="3.22675">
        <ele>334.8</ele>
        <time>2024-05-19T08:54:24Z</time>
      </trkpt>
      <trkpt lat="45.72787" lon="3.22682">
        <ele>334.8</ele>
        <time>2024-05-19T08:54:25Z</time>
      </trkpt>
      <trkpt lat="45.72794" lon="3.22688">
        <ele>334.6</ele>
        <time>2024-05-19T08:54:26Z</time>
      </trkpt>
      <trkpt lat="45.72802" lon="3.22694">
        <ele>334.4</ele>
        <time>2024-05-19T08:54:27Z</time>
      </trkpt>
      <trkpt lat="45.72809" lon="3.227">
        <ele>334.4</ele>
        <time>2024-05-19T08:54:28Z</time>
      </trkpt>
      <trkpt lat="45.72816" lon="3.22706">
        <ele>334.2</ele>
        <time>2024-05-19T08:54:29Z</time>
      </trkpt>
      <trkpt lat="45.72824" lon="3.22712">
        <ele>334.2</ele>
        <time>2024-05-19T08:54:30Z</time>
      </trkpt>
      <trkpt lat="45.72831" lon="3.22718">
        <ele>334</ele>
        <time>2024-05-19T08:54:31Z</time>
      </trkpt>
      <trkpt lat="45.72839" lon="3.22723">
        <ele>334</ele>
        <time>2024-05-19T08:54:32Z</time>
      </trkpt>
      <trkpt lat="45.72847" lon="3.22728">
        <ele>333.8</ele>
        <time>2024-05-19T08:54:33Z</time>
      </trkpt>
      <trkpt lat="45.72855" lon="3.22732">
        <ele>333.6</ele>
        <time>2024-05-19T08:54:34Z</time>
      </trkpt>
      <trkpt lat="45.72862" lon="3.22737">
        <ele>333.6</ele>
        <time>2024-05-19T08:54:35Z</time>
      </trkpt>
      <trkpt lat="45.7287" lon="3.22742">
        <ele>333.4</ele>
        <time>2024-05-19T08:54:36Z</time>
      </trkpt>
      <trkpt lat="45.72878" lon="3.22747">
        <ele>333.2</ele>
        <time>2024-05-19T08:54:37Z</time>
      </trkpt>
      <trkpt lat="45.72886" lon="3.22751">
        <ele>333.2</ele>
        <time>2024-05-19T08:54:38Z</time>
      </trkpt>
      <trkpt lat="45.72894" lon="3.22756">
        <ele>333</ele>
        <time>2024-05-19T08:54:39Z</time>
      </trkpt>
      <trkpt lat="45.72902" lon="3.22761">
        <ele>333</ele>
        <time>2024-05-19T08:54:40Z</time>
      </trkpt>
      <trkpt lat="45.7291" lon="3.22766">
        <ele>332.8</ele>
        <time>2024-05-19T08:54:41Z</time>
      </trkpt>
      <trkpt lat="45.72917" lon="3.22771">
        <ele>332.6</ele>
        <time>2024-05-19T08:54:42Z</time>
      </trkpt>
      <trkpt lat="45.72925" lon="3.22775">
        <ele>332.6</ele>
        <time>2024-05-19T08:54:43Z</time>
      </trkpt>
      <trkpt lat="45.72932" lon="3.2278">
        <ele>332.4</ele>
        <time>2024-05-19T08:54:44Z</time>
      </trkpt>
      <trkpt lat="45.72939" lon="3.22784">
        <ele>332.4</ele>
        <time>2024-05-19T08:54:45Z</time>
      </trkpt>
      <trkpt lat="45.72946" lon="3.22788">
        <ele>332.2</ele>
        <time>2024-05-19T08:54:46Z</time>
      </trkpt>
      <trkpt lat="45.72953" lon="3.22792">
        <ele>332.2</ele>
        <time>2024-05-19T08:54:47Z</time>
      </trkpt>
      <trkpt lat="45.7296" lon="3.22796">
        <ele>332.2</ele>
        <time>2024-05-19T08:54:48Z</time>
      </trkpt>
      <trkpt lat="45.72966" lon="3.228">
        <ele>332</ele>
        <time>2024-05-19T08:54:49Z</time>
      </trkpt>
      <trkpt lat="45.72971" lon="3.22803">
        <ele>332</ele>
        <time>2024-05-19T08:54:50Z</time>
      </trkpt>
      <trkpt lat="45.72975" lon="3.22805">
        <ele>332</ele>
        <time>2024-05-19T08:54:51Z</time>
      </trkpt>
      <trkpt lat="45.72978" lon="3.22807">
        <ele>331.8</ele>
        <time>2024-05-19T08:54:52Z</time>
      </trkpt>
      <trkpt lat="45.72981" lon="3.22812">
        <ele>331.6</ele>
        <time>2024-05-19T08:54:53Z</time>
      </trkpt>
      <trkpt lat="45.72986" lon="3.22818">
        <ele>331.6</ele>
        <time>2024-05-19T08:54:54Z</time>
      </trkpt>
      <trkpt lat="45.72992" lon="3.2282">
        <ele>331.6</ele>
        <time>2024-05-19T08:54:55Z</time>
      </trkpt>
      <trkpt lat="45.72998" lon="3.22821">
        <ele>331.4</ele>
        <time>2024-05-19T08:54:56Z</time>
      </trkpt>
      <trkpt lat="45.73006" lon="3.22819">
        <ele>331.4</ele>
        <time>2024-05-19T08:54:57Z</time>
      </trkpt>
      <trkpt lat="45.73014" lon="3.2281">
        <ele>331.2</ele>
        <time>2024-05-19T08:54:58Z</time>
      </trkpt>
      <trkpt lat="45.73017" lon="3.22802">
        <ele>331.2</ele>
        <time>2024-05-19T08:54:59Z</time>
      </trkpt>
      <trkpt lat="45.7302" lon="3.22788">
        <ele>331</ele>
        <time>2024-05-19T08:55:00Z</time>
      </trkpt>
      <trkpt lat="45.73017" lon="3.22779">
        <ele>331</ele>
        <time>2024-05-19T08:55:01Z</time>
      </trkpt>
      <trkpt lat="45.73012" lon="3.2277">
        <ele>330.8</ele>
        <time>2024-05-19T08:55:02Z</time>
      </trkpt>
      <trkpt lat="45.73006" lon="3.22765">
        <ele>330.8</ele>
        <time>2024-05-19T08:55:03Z</time>
      </trkpt>
      <trkpt lat="45.73" lon="3.2276">
        <ele>330.8</ele>
        <time>2024-05-19T08:55:04Z</time>
      </trkpt>
      <trkpt lat="45.72994" lon="3.22754">
        <ele>330.8</ele>
        <time>2024-05-19T08:55:05Z</time>
      </trkpt>
      <trkpt lat="45.7299" lon="3.22746">
        <ele>330.6</ele>
        <time>2024-05-19T08:55:06Z</time>
      </trkpt>
      <trkpt lat="45.72985" lon="3.22739">
        <ele>330.6</ele>
        <time>2024-05-19T08:55:07Z</time>
      </trkpt>
      <trkpt lat="45.72981" lon="3.2273">
        <ele>330.6</ele>
        <time>2024-05-19T08:55:08Z</time>
      </trkpt>
      <trkpt lat="45.7298" lon="3.22721">
        <ele>330.4</ele>
        <time>2024-05-19T08:55:09Z</time>
      </trkpt>
      <trkpt lat="45.72979" lon="3.22711">
        <ele>330.4</ele>
        <time>2024-05-19T08:55:10Z</time>
      </trkpt>
      <trkpt lat="45.72978" lon="3.22701">
        <ele>330.4</ele>
        <time>2024-05-19T08:55:11Z</time>
      </trkpt>
      <trkpt lat="45.72977" lon="3.22692">
        <ele>330.2</ele>
        <time>2024-05-19T08:55:12Z</time>
      </trkpt>
      <trkpt lat="45.72976" lon="3.22682">
        <ele>330.2</ele>
        <time>2024-05-19T08:55:13Z</time>
      </trkpt>
      <trkpt lat="45.72975" lon="3.22672">
        <ele>330.2</ele>
        <time>2024-05-19T08:55:14Z</time>
      </trkpt>
      <trkpt lat="45.72974" lon="3.22663">
        <ele>330.2</ele>
        <time>2024-05-19T08:55:15Z</time>
      </trkpt>
      <trkpt lat="45.72973" lon="3.22653">
        <ele>330.2</ele>
        <time>2024-05-19T08:55:16Z</time>
      </trkpt>
      <trkpt lat="45.72971" lon="3.22644">
        <ele>330.2</ele>
        <time>2024-05-19T08:55:17Z</time>
      </trkpt>
      <trkpt lat="45.7297" lon="3.22634">
        <ele>330.2</ele>
        <time>2024-05-19T08:55:18Z</time>
      </trkpt>
      <trkpt lat="45.72969" lon="3.22625">
        <ele>330.2</ele>
        <time>2024-05-19T08:55:19Z</time>
      </trkpt>
      <trkpt lat="45.72968" lon="3.22615">
        <ele>330</ele>
        <time>2024-05-19T08:55:20Z</time>
      </trkpt>
      <trkpt lat="45.72967" lon="3.22606">
        <ele>330</ele>
        <time>2024-05-19T08:55:21Z</time>
      </trkpt>
      <trkpt lat="45.72966" lon="3.22596">
        <ele>330</ele>
        <time>2024-05-19T08:55:22Z</time>
      </trkpt>
      <trkpt lat="45.72965" lon="3.22586">
        <ele>330</ele>
        <time>2024-05-19T08:55:23Z</time>
      </trkpt>
      <trkpt lat="45.72964" lon="3.22577">
        <ele>330</ele>
        <time>2024-05-19T08:55:24Z</time>
      </trkpt>
      <trkpt lat="45.72962" lon="3.22567">
        <ele>330</ele>
        <time>2024-05-19T08:55:25Z</time>
      </trkpt>
      <trkpt lat="45.72961" lon="3.22557">
        <ele>330</ele>
        <time>2024-05-19T08:55:26Z</time>
      </trkpt>
      <trkpt lat="45.7296" lon="3.22548">
        <ele>329.8</ele>
        <time>2024-05-19T08:55:27Z</time>
      </trkpt>
      <trkpt lat="45.72959" lon="3.22538">
        <ele>329.8</ele>
        <time>2024-05-19T08:55:28Z</time>
      </trkpt>
      <trkpt lat="45.72958" lon="3.22528">
        <ele>329.8</ele>
        <time>2024-05-19T08:55:29Z</time>
      </trkpt>
      <trkpt lat="45.72957" lon="3.22518">
        <ele>329.8</ele>
        <time>2024-05-19T08:55:30Z</time>
      </trkpt>
      <trkpt lat="45.72956" lon="3.22508">
        <ele>329.8</ele>
        <time>2024-05-19T08:55:31Z</time>
      </trkpt>
      <trkpt lat="45.72954" lon="3.22498">
        <ele>329.8</ele>
        <time>2024-05-19T08:55:32Z</time>
      </trkpt>
      <trkpt lat="45.72953" lon="3.22488">
        <ele>329.6</ele>
        <time>2024-05-19T08:55:33Z</time>
      </trkpt>
      <trkpt lat="45.72952" lon="3.22478">
        <ele>329.6</ele>
        <time>2024-05-19T08:55:34Z</time>
      </trkpt>
      <trkpt lat="45.72951" lon="3.22469">
        <ele>329.6</ele>
        <time>2024-05-19T08:55:35Z</time>
      </trkpt>
      <trkpt lat="45.7295" lon="3.22459">
        <ele>329.6</ele>
        <time>2024-05-19T08:55:36Z</time>
      </trkpt>
      <trkpt lat="45.72949" lon="3.22449">
        <ele>329.6</ele>
        <time>2024-05-19T08:55:37Z</time>
      </trkpt>
      <trkpt lat="45.72947" lon="3.22439">
        <ele>329.4</ele>
        <time>2024-05-19T08:55:38Z</time>
      </trkpt>
      <trkpt lat="45.72946" lon="3.2243">
        <ele>329.4</ele>
        <time>2024-05-19T08:55:39Z</time>
      </trkpt>
      <trkpt lat="45.72945" lon="3.2242">
        <ele>329.6</ele>
        <time>2024-05-19T08:55:40Z</time>
      </trkpt>
      <trkpt lat="45.72944" lon="3.22409">
        <ele>329.6</ele>
        <time>2024-05-19T08:55:41Z</time>
      </trkpt>
      <trkpt lat="45.72942" lon="3.22399">
        <ele>329.6</ele>
        <time>2024-05-19T08:55:42Z</time>
      </trkpt>
      <trkpt lat="45.72941" lon="3.22389">
        <ele>329.6</ele>
        <time>2024-05-19T08:55:43Z</time>
      </trkpt>
      <trkpt lat="45.7294" lon="3.22379">
        <ele>329.4</ele>
        <time>2024-05-19T08:55:44Z</time>
      </trkpt>
      <trkpt lat="45.72939" lon="3.22369">
        <ele>329.4</ele>
        <time>2024-05-19T08:55:45Z</time>
      </trkpt>
      <trkpt lat="45.72938" lon="3.22359">
        <ele>329.4</ele>
        <time>2024-05-19T08:55:46Z</time>
      </trkpt>
      <trkpt lat="45.72937" lon="3.22349">
        <ele>329.4</ele>
        <time>2024-05-19T08:55:47Z</time>
      </trkpt>
      <trkpt lat="45.72936" lon="3.22339">
        <ele>329.4</ele>
        <time>2024-05-19T08:55:48Z</time>
      </trkpt>
      <trkpt lat="45.72934" lon="3.22328">
        <ele>329.4</ele>
        <time>2024-05-19T08:55:49Z</time>
      </trkpt>
      <trkpt lat="45.72933" lon="3.22318">
        <ele>329.4</ele>
        <time>2024-05-19T08:55:50Z</time>
      </trkpt>
      <trkpt lat="45.72932" lon="3.22308">
        <ele>329.4</ele>
        <time>2024-05-19T08:55:51Z</time>
      </trkpt>
      <trkpt lat="45.72931" lon="3.22298">
        <ele>329.4</ele>
        <time>2024-05-19T08:55:52Z</time>
      </trkpt>
      <trkpt lat="45.7293" lon="3.22288">
        <ele>329.4</ele>
        <time>2024-05-19T08:55:53Z</time>
      </trkpt>
      <trkpt lat="45.72929" lon="3.22278">
        <ele>329.2</ele>
        <time>2024-05-19T08:55:54Z</time>
      </trkpt>
      <trkpt lat="45.72928" lon="3.22268">
        <ele>329.2</ele>
        <time>2024-05-19T08:55:55Z</time>
      </trkpt>
      <trkpt lat="45.72927" lon="3.22257">
        <ele>329.2</ele>
        <time>2024-05-19T08:55:56Z</time>
      </trkpt>
      <trkpt lat="45.72926" lon="3.22247">
        <ele>329.2</ele>
        <time>2024-05-19T08:55:57Z</time>
      </trkpt>
      <trkpt lat="45.72924" lon="3.22237">
        <ele>329.2</ele>
        <time>2024-05-19T08:55:58Z</time>
      </trkpt>
      <trkpt lat="45.72923" lon="3.22226">
        <ele>329.2</ele>
        <time>2024-05-19T08:55:59Z</time>
      </trkpt>
      <trkpt lat="45.72922" lon="3.22216">
        <ele>329.2</ele>
        <time>2024-05-19T08:56:00Z</time>
      </trkpt>
      <trkpt lat="45.72921" lon="3.22205">
        <ele>329.2</ele>
        <time>2024-05-19T08:56:01Z</time>
      </trkpt>
      <trkpt lat="45.7292" lon="3.22195">
        <ele>329</ele>
        <time>2024-05-19T08:56:02Z</time>
      </trkpt>
      <trkpt lat="45.72919" lon="3.22185">
        <ele>329</ele>
        <time>2024-05-19T08:56:03Z</time>
      </trkpt>
      <trkpt lat="45.72918" lon="3.22175">
        <ele>329</ele>
        <time>2024-05-19T08:56:04Z</time>
      </trkpt>
      <trkpt lat="45.72917" lon="3.22165">
        <ele>329</ele>
        <time>2024-05-19T08:56:05Z</time>
      </trkpt>
      <trkpt lat="45.72915" lon="3.22155">
        <ele>329</ele>
        <time>2024-05-19T08:56:06Z</time>
      </trkpt>
      <trkpt lat="45.72914" lon="3.22145">
        <ele>329</ele>
        <time>2024-05-19T08:56:07Z</time>
      </trkpt>
      <trkpt lat="45.72913" lon="3.22135">
        <ele>329</ele>
        <time>2024-05-19T08:56:08Z</time>
      </trkpt>
      <trkpt lat="45.72912" lon="3.22125">
        <ele>329</ele>
        <time>2024-05-19T08:56:09Z</time>
      </trkpt>
      <trkpt lat="45.7291" lon="3.22114">
        <ele>329</ele>
        <time>2024-05-19T08:56:10Z</time>
      </trkpt>
      <trkpt lat="45.72909" lon="3.22104">
        <ele>329</ele>
        <time>2024-05-19T08:56:11Z</time>
      </trkpt>
      <trkpt lat="45.72908" lon="3.22094">
        <ele>329</ele>
        <time>2024-05-19T08:56:12Z</time>
      </trkpt>
      <trkpt lat="45.72907" lon="3.22083">
        <ele>329</ele>
        <time>2024-05-19T08:56:13Z</time>
      </trkpt>
      <trkpt lat="45.72906" lon="3.22073">
        <ele>329</ele>
        <time>2024-05-19T08:56:14Z</time>
      </trkpt>
      <trkpt lat="45.72904" lon="3.22063">
        <ele>329</ele>
        <time>2024-05-19T08:56:15Z</time>
      </trkpt>
      <trkpt lat="45.72903" lon="3.22052">
        <ele>328.8</ele>
        <time>2024-05-19T08:56:16Z</time>
      </trkpt>
      <trkpt lat="45.72902" lon="3.22042">
        <ele>328.8</ele>
        <time>2024-05-19T08:56:17Z</time>
      </trkpt>
      <trkpt lat="45.72901" lon="3.22031">
        <ele>328.8</ele>
        <time>2024-05-19T08:56:18Z</time>
      </trkpt>
      <trkpt lat="45.729" lon="3.2202">
        <ele>328.8</ele>
        <time>2024-05-19T08:56:19Z</time>
      </trkpt>
      <trkpt lat="45.72898" lon="3.2201">
        <ele>328.8</ele>
        <time>2024-05-19T08:56:20Z</time>
      </trkpt>
      <trkpt lat="45.72897" lon="3.21999">
        <ele>328.8</ele>
        <time>2024-05-19T08:56:21Z</time>
      </trkpt>
      <trkpt lat="45.72896" lon="3.21988">
        <ele>328.8</ele>
        <time>2024-05-19T08:56:22Z</time>
      </trkpt>
      <trkpt lat="45.72895" lon="3.21978">
        <ele>328.8</ele>
        <time>2024-05-19T08:56:23Z</time>
      </trkpt>
      <trkpt lat="45.72893" lon="3.21967">
        <ele>328.8</ele>
        <time>2024-05-19T08:56:24Z</time>
      </trkpt>
      <trkpt lat="45.72892" lon="3.21957">
        <ele>328.8</ele>
        <time>2024-05-19T08:56:25Z</time>
      </trkpt>
      <trkpt lat="45.72891" lon="3.21947">
        <ele>328.8</ele>
        <time>2024-05-19T08:56:26Z</time>
      </trkpt>
      <trkpt lat="45.7289" lon="3.21937">
        <ele>328.8</ele>
        <time>2024-05-19T08:56:27Z</time>
      </trkpt>
      <trkpt lat="45.72889" lon="3.21926">
        <ele>328.8</ele>
        <time>2024-05-19T08:56:28Z</time>
      </trkpt>
      <trkpt lat="45.72887" lon="3.21916">
        <ele>328.8</ele>
        <time>2024-05-19T08:56:29Z</time>
      </trkpt>
      <trkpt lat="45.72886" lon="3.21905">
        <ele>328.8</ele>
        <time>2024-05-19T08:56:30Z</time>
      </trkpt>
      <trkpt lat="45.72885" lon="3.21895">
        <ele>328.8</ele>
        <time>2024-05-19T08:56:31Z</time>
      </trkpt>
      <trkpt lat="45.72884" lon="3.21885">
        <ele>328.8</ele>
        <time>2024-05-19T08:56:32Z</time>
      </trkpt>
      <trkpt lat="45.72883" lon="3.21875">
        <ele>328.8</ele>
        <time>2024-05-19T08:56:33Z</time>
      </trkpt>
      <trkpt lat="45.72881" lon="3.21864">
        <ele>328.6</ele>
        <time>2024-05-19T08:56:34Z</time>
      </trkpt>
      <trkpt lat="45.7288" lon="3.21854">
        <ele>328.6</ele>
        <time>2024-05-19T08:56:35Z</time>
      </trkpt>
      <trkpt lat="45.72879" lon="3.21844">
        <ele>328.6</ele>
        <time>2024-05-19T08:56:36Z</time>
      </trkpt>
      <trkpt lat="45.72878" lon="3.21834">
        <ele>328.6</ele>
        <time>2024-05-19T08:56:37Z</time>
      </trkpt>
      <trkpt lat="45.72877" lon="3.21824">
        <ele>328.6</ele>
        <time>2024-05-19T08:56:38Z</time>
      </trkpt>
      <trkpt lat="45.72876" lon="3.21814">
        <ele>328.6</ele>
        <time>2024-05-19T08:56:39Z</time>
      </trkpt>
      <trkpt lat="45.72875" lon="3.21804">
        <ele>328.6</ele>
        <time>2024-05-19T08:56:40Z</time>
      </trkpt>
      <trkpt lat="45.72874" lon="3.21794">
        <ele>328.6</ele>
        <time>2024-05-19T08:56:41Z</time>
      </trkpt>
      <trkpt lat="45.72873" lon="3.21783">
        <ele>328.6</ele>
        <time>2024-05-19T08:56:42Z</time>
      </trkpt>
      <trkpt lat="45.72871" lon="3.21773">
        <ele>328.6</ele>
        <time>2024-05-19T08:56:43Z</time>
      </trkpt>
      <trkpt lat="45.7287" lon="3.21763">
        <ele>328.6</ele>
        <time>2024-05-19T08:56:44Z</time>
      </trkpt>
      <trkpt lat="45.72869" lon="3.21753">
        <ele>328.6</ele>
        <time>2024-05-19T08:56:45Z</time>
      </trkpt>
      <trkpt lat="45.72868" lon="3.21742">
        <ele>328.6</ele>
        <time>2024-05-19T08:56:46Z</time>
      </trkpt>
      <trkpt lat="45.72867" lon="3.21732">
        <ele>328.6</ele>
        <time>2024-05-19T08:56:47Z</time>
      </trkpt>
      <trkpt lat="45.72866" lon="3.21721">
        <ele>328.6</ele>
        <time>2024-05-19T08:56:48Z</time>
      </trkpt>
      <trkpt lat="45.72865" lon="3.21711">
        <ele>328.4</ele>
        <time>2024-05-19T08:56:49Z</time>
      </trkpt>
      <trkpt lat="45.72864" lon="3.217">
        <ele>328.4</ele>
        <time>2024-05-19T08:56:50Z</time>
      </trkpt>
      <trkpt lat="45.72862" lon="3.2169">
        <ele>328.4</ele>
        <time>2024-05-19T08:56:51Z</time>
      </trkpt>
      <trkpt lat="45.72861" lon="3.21679">
        <ele>328.4</ele>
        <time>2024-05-19T08:56:52Z</time>
      </trkpt>
      <trkpt lat="45.7286" lon="3.21669">
        <ele>328.4</ele>
        <time>2024-05-19T08:56:53Z</time>
      </trkpt>
      <trkpt lat="45.7286" lon="3.21658">
        <ele>328.4</ele>
        <time>2024-05-19T08:56:54Z</time>
      </trkpt>
      <trkpt lat="45.7286" lon="3.21648">
        <ele>328.4</ele>
        <time>2024-05-19T08:56:55Z</time>
      </trkpt>
      <trkpt lat="45.7286" lon="3.21637">
        <ele>328.4</ele>
        <time>2024-05-19T08:56:56Z</time>
      </trkpt>
      <trkpt lat="45.7286" lon="3.21626">
        <ele>328.4</ele>
        <time>2024-05-19T08:56:57Z</time>
      </trkpt>
      <trkpt lat="45.7286" lon="3.21615">
        <ele>328.4</ele>
        <time>2024-05-19T08:56:58Z</time>
      </trkpt>
      <trkpt lat="45.7286" lon="3.21605">
        <ele>328.4</ele>
        <time>2024-05-19T08:56:59Z</time>
      </trkpt>
      <trkpt lat="45.7286" lon="3.21594">
        <ele>328.4</ele>
        <time>2024-05-19T08:57:00Z</time>
      </trkpt>
      <trkpt lat="45.72861" lon="3.21584">
        <ele>328.4</ele>
        <time>2024-05-19T08:57:01Z</time>
      </trkpt>
      <trkpt lat="45.72862" lon="3.21574">
        <ele>328.4</ele>
        <time>2024-05-19T08:57:02Z</time>
      </trkpt>
      <trkpt lat="45.72863" lon="3.21563">
        <ele>328.4</ele>
        <time>2024-05-19T08:57:03Z</time>
      </trkpt>
      <trkpt lat="45.72865" lon="3.21553">
        <ele>328.4</ele>
        <time>2024-05-19T08:57:04Z</time>
      </trkpt>
      <trkpt lat="45.72868" lon="3.21543">
        <ele>328.4</ele>
        <time>2024-05-19T08:57:05Z</time>
      </trkpt>
      <trkpt lat="45.7287" lon="3.21533">
        <ele>328.4</ele>
        <time>2024-05-19T08:57:06Z</time>
      </trkpt>
      <trkpt lat="45.72873" lon="3.21524">
        <ele>328.4</ele>
        <time>2024-05-19T08:57:07Z</time>
      </trkpt>
      <trkpt lat="45.72875" lon="3.21514">
        <ele>328.2</ele>
        <time>2024-05-19T08:57:08Z</time>
      </trkpt>
      <trkpt lat="45.72878" lon="3.21505">
        <ele>328.2</ele>
        <time>2024-05-19T08:57:09Z</time>
      </trkpt>
      <trkpt lat="45.7288" lon="3.21496">
        <ele>328.2</ele>
        <time>2024-05-19T08:57:10Z</time>
      </trkpt>
      <trkpt lat="45.72884" lon="3.21485">
        <ele>328.2</ele>
        <time>2024-05-19T08:57:11Z</time>
      </trkpt>
      <trkpt lat="45.72888" lon="3.21477">
        <ele>328.2</ele>
        <time>2024-05-19T08:57:12Z</time>
      </trkpt>
      <trkpt lat="45.72891" lon="3.21469">
        <ele>328.2</ele>
        <time>2024-05-19T08:57:13Z</time>
      </trkpt>
      <trkpt lat="45.72894" lon="3.21462">
        <ele>328.2</ele>
        <time>2024-05-19T08:57:14Z</time>
      </trkpt>
      <trkpt lat="45.72898" lon="3.21454">
        <ele>328.2</ele>
        <time>2024-05-19T08:57:15Z</time>
      </trkpt>
      <trkpt lat="45.72901" lon="3.21447">
        <ele>328.2</ele>
        <time>2024-05-19T08:57:16Z</time>
      </trkpt>
      <trkpt lat="45.72904" lon="3.2144">
        <ele>328.2</ele>
        <time>2024-05-19T08:57:17Z</time>
      </trkpt>
      <trkpt lat="45.72907" lon="3.21432">
        <ele>328.2</ele>
        <time>2024-05-19T08:57:18Z</time>
      </trkpt>
      <trkpt lat="45.72911" lon="3.21425">
        <ele>328</ele>
        <time>2024-05-19T08:57:19Z</time>
      </trkpt>
      <trkpt lat="45.72914" lon="3.21418">
        <ele>328</ele>
        <time>2024-05-19T08:57:20Z</time>
      </trkpt>
      <trkpt lat="45.72917" lon="3.21411">
        <ele>328</ele>
        <time>2024-05-19T08:57:21Z</time>
      </trkpt>
      <trkpt lat="45.7292" lon="3.21403">
        <ele>328</ele>
        <time>2024-05-19T08:57:22Z</time>
      </trkpt>
      <trkpt lat="45.72923" lon="3.21396">
        <ele>328.2</ele>
        <time>2024-05-19T08:57:23Z</time>
      </trkpt>
      <trkpt lat="45.72926" lon="3.21389">
        <ele>328.2</ele>
        <time>2024-05-19T08:57:24Z</time>
      </trkpt>
      <trkpt lat="45.72929" lon="3.21383">
        <ele>328.4</ele>
        <time>2024-05-19T08:57:25Z</time>
      </trkpt>
      <trkpt lat="45.72932" lon="3.21376">
        <ele>328.4</ele>
        <time>2024-05-19T08:57:26Z</time>
      </trkpt>
      <trkpt lat="45.72935" lon="3.2137">
        <ele>328.4</ele>
        <time>2024-05-19T08:57:27Z</time>
      </trkpt>
      <trkpt lat="45.72937" lon="3.21364">
        <ele>328.4</ele>
        <time>2024-05-19T08:57:28Z</time>
      </trkpt>
      <trkpt lat="45.7294" lon="3.21359">
        <ele>328.4</ele>
        <time>2024-05-19T08:57:29Z</time>
      </trkpt>
      <trkpt lat="45.72942" lon="3.21355">
        <ele>328.6</ele>
        <time>2024-05-19T08:57:30Z</time>
      </trkpt>
      <trkpt lat="45.72944" lon="3.2135">
        <ele>328.6</ele>
        <time>2024-05-19T08:57:31Z</time>
      </trkpt>
      <trkpt lat="45.72947" lon="3.21344">
        <ele>328.6</ele>
        <time>2024-05-19T08:57:32Z</time>
      </trkpt>
      <trkpt lat="45.7295" lon="3.21338">
        <ele>328.6</ele>
        <time>2024-05-19T08:57:33Z</time>
      </trkpt>
      <trkpt lat="45.72953" lon="3.21332">
        <ele>328.8</ele>
        <time>2024-05-19T08:57:34Z</time>
      </trkpt>
      <trkpt lat="45.72957" lon="3.21325">
        <ele>328.8</ele>
        <time>2024-05-19T08:57:35Z</time>
      </trkpt>
      <trkpt lat="45.7296" lon="3.21318">
        <ele>328.8</ele>
        <time>2024-05-19T08:57:36Z</time>
      </trkpt>
      <trkpt lat="45.72963" lon="3.21311">
        <ele>328.8</ele>
        <time>2024-05-19T08:57:37Z</time>
      </trkpt>
      <trkpt lat="45.72967" lon="3.21304">
        <ele>328.8</ele>
        <time>2024-05-19T08:57:38Z</time>
      </trkpt>
      <trkpt lat="45.7297" lon="3.21297">
        <ele>329</ele>
        <time>2024-05-19T08:57:39Z</time>
      </trkpt>
      <trkpt lat="45.72974" lon="3.2129">
        <ele>329</ele>
        <time>2024-05-19T08:57:40Z</time>
      </trkpt>
      <trkpt lat="45.72978" lon="3.21282">
        <ele>329</ele>
        <time>2024-05-19T08:57:41Z</time>
      </trkpt>
      <trkpt lat="45.72981" lon="3.21275">
        <ele>329</ele>
        <time>2024-05-19T08:57:42Z</time>
      </trkpt>
      <trkpt lat="45.72985" lon="3.21268">
        <ele>329.2</ele>
        <time>2024-05-19T08:57:43Z</time>
      </trkpt>
      <trkpt lat="45.72989" lon="3.2126">
        <ele>329.2</ele>
        <time>2024-05-19T08:57:44Z</time>
      </trkpt>
      <trkpt lat="45.72992" lon="3.21253">
        <ele>329.4</ele>
        <time>2024-05-19T08:57:45Z</time>
      </trkpt>
      <trkpt lat="45.72996" lon="3.21245">
        <ele>329.4</ele>
        <time>2024-05-19T08:57:46Z</time>
      </trkpt>
      <trkpt lat="45.72999" lon="3.21238">
        <ele>329.4</ele>
        <time>2024-05-19T08:57:47Z</time>
      </trkpt>
      <trkpt lat="45.73003" lon="3.21231">
        <ele>329.4</ele>
        <time>2024-05-19T08:57:48Z</time>
      </trkpt>
      <trkpt lat="45.73007" lon="3.21223">
        <ele>329.4</ele>
        <time>2024-05-19T08:57:49Z</time>
      </trkpt>
      <trkpt lat="45.7301" lon="3.21217">
        <ele>329.4</ele>
        <time>2024-05-19T08:57:50Z</time>
      </trkpt>
      <trkpt lat="45.73015" lon="3.21211">
        <ele>329.4</ele>
        <time>2024-05-19T08:57:51Z</time>
      </trkpt>
      <trkpt lat="45.7302" lon="3.21206">
        <ele>329.6</ele>
        <time>2024-05-19T08:57:52Z</time>
      </trkpt>
      <trkpt lat="45.73025" lon="3.21201">
        <ele>329.6</ele>
        <time>2024-05-19T08:57:53Z</time>
      </trkpt>
      <trkpt lat="45.7303" lon="3.21196">
        <ele>329.6</ele>
        <time>2024-05-19T08:57:54Z</time>
      </trkpt>
      <trkpt lat="45.73034" lon="3.21191">
        <ele>329.6</ele>
        <time>2024-05-19T08:57:55Z</time>
      </trkpt>
      <trkpt lat="45.73039" lon="3.21186">
        <ele>329.8</ele>
        <time>2024-05-19T08:57:56Z</time>
      </trkpt>
      <trkpt lat="45.73043" lon="3.21182">
        <ele>329.8</ele>
        <time>2024-05-19T08:57:57Z</time>
      </trkpt>
      <trkpt lat="45.73048" lon="3.21177">
        <ele>329.8</ele>
        <time>2024-05-19T08:57:58Z</time>
      </trkpt>
      <trkpt lat="45.73052" lon="3.21173">
        <ele>330</ele>
        <time>2024-05-19T08:57:59Z</time>
      </trkpt>
      <trkpt lat="45.73056" lon="3.21169">
        <ele>330</ele>
        <time>2024-05-19T08:58:00Z</time>
      </trkpt>
      <trkpt lat="45.73061" lon="3.21165">
        <ele>330.2</ele>
        <time>2024-05-19T08:58:01Z</time>
      </trkpt>
      <trkpt lat="45.73066" lon="3.21161">
        <ele>330.2</ele>
        <time>2024-05-19T08:58:02Z</time>
      </trkpt>
      <trkpt lat="45.7307" lon="3.21157">
        <ele>330.2</ele>
        <time>2024-05-19T08:58:03Z</time>
      </trkpt>
      <trkpt lat="45.73075" lon="3.21154">
        <ele>330.4</ele>
        <time>2024-05-19T08:58:04Z</time>
      </trkpt>
      <trkpt lat="45.7308" lon="3.2115">
        <ele>330.4</ele>
        <time>2024-05-19T08:58:05Z</time>
      </trkpt>
      <trkpt lat="45.73084" lon="3.21147">
        <ele>330.6</ele>
        <time>2024-05-19T08:58:06Z</time>
      </trkpt>
      <trkpt lat="45.73089" lon="3.21143">
        <ele>330.6</ele>
        <time>2024-05-19T08:58:07Z</time>
      </trkpt>
      <trkpt lat="45.73093" lon="3.2114">
        <ele>330.8</ele>
        <time>2024-05-19T08:58:08Z</time>
      </trkpt>
      <trkpt lat="45.73098" lon="3.21136">
        <ele>330.8</ele>
        <time>2024-05-19T08:58:09Z</time>
      </trkpt>
      <trkpt lat="45.73102" lon="3.21133">
        <ele>331</ele>
        <time>2024-05-19T08:58:10Z</time>
      </trkpt>
      <trkpt lat="45.73107" lon="3.21129">
        <ele>331</ele>
        <time>2024-05-19T08:58:11Z</time>
      </trkpt>
      <trkpt lat="45.73112" lon="3.21126">
        <ele>331.2</ele>
        <time>2024-05-19T08:58:12Z</time>
      </trkpt>
      <trkpt lat="45.73116" lon="3.21122">
        <ele>331.2</ele>
        <time>2024-05-19T08:58:13Z</time>
      </trkpt>
      <trkpt lat="45.7312" lon="3.21119">
        <ele>331.2</ele>
        <time>2024-05-19T08:58:14Z</time>
      </trkpt>
      <trkpt lat="45.73125" lon="3.21115">
        <ele>331.4</ele>
        <time>2024-05-19T08:58:15Z</time>
      </trkpt>
      <trkpt lat="45.73129" lon="3.21112">
        <ele>331.6</ele>
        <time>2024-05-19T08:58:16Z</time>
      </trkpt>
      <trkpt lat="45.73134" lon="3.21109">
        <ele>331.6</ele>
        <time>2024-05-19T08:58:17Z</time>
      </trkpt>
      <trkpt lat="45.73138" lon="3.21105">
        <ele>331.8</ele>
        <time>2024-05-19T08:58:18Z</time>
      </trkpt>
      <trkpt lat="45.73142" lon="3.21102">
        <ele>331.8</ele>
        <time>2024-05-19T08:58:19Z</time>
      </trkpt>
      <trkpt lat="45.73146" lon="3.21098">
        <ele>332</ele>
        <time>2024-05-19T08:58:20Z</time>
      </trkpt>
      <trkpt lat="45.73151" lon="3.21094">
        <ele>332</ele>
        <time>2024-05-19T08:58:21Z</time>
      </trkpt>
      <trkpt lat="45.73155" lon="3.2109">
        <ele>332.2</ele>
        <time>2024-05-19T08:58:22Z</time>
      </trkpt>
      <trkpt lat="45.73159" lon="3.21086">
        <ele>332.4</ele>
        <time>2024-05-19T08:58:23Z</time>
      </trkpt>
      <trkpt lat="45.73163" lon="3.21082">
        <ele>332.4</ele>
        <time>2024-05-19T08:58:24Z</time>
      </trkpt>
      <trkpt lat="45.73167" lon="3.21078">
        <ele>332.6</ele>
        <time>2024-05-19T08:58:25Z</time>
      </trkpt>
      <trkpt lat="45.73172" lon="3.21074">
        <ele>332.6</ele>
        <time>2024-05-19T08:58:26Z</time>
      </trkpt>
      <trkpt lat="45.73176" lon="3.21069">
        <ele>332.8</ele>
        <time>2024-05-19T08:58:27Z</time>
      </trkpt>
      <trkpt lat="45.73179" lon="3.21064">
        <ele>332.8</ele>
        <time>2024-05-19T08:58:28Z</time>
      </trkpt>
      <trkpt lat="45.73183" lon="3.21059">
        <ele>333</ele>
        <time>2024-05-19T08:58:29Z</time>
      </trkpt>
      <trkpt lat="45.73187" lon="3.21054">
        <ele>333</ele>
        <time>2024-05-19T08:58:30Z</time>
      </trkpt>
      <trkpt lat="45.73191" lon="3.21049">
        <ele>333.2</ele>
        <time>2024-05-19T08:58:31Z</time>
      </trkpt>
      <trkpt lat="45.73194" lon="3.21044">
        <ele>333.2</ele>
        <time>2024-05-19T08:58:32Z</time>
      </trkpt>
      <trkpt lat="45.73198" lon="3.21039">
        <ele>333.4</ele>
        <time>2024-05-19T08:58:33Z</time>
      </trkpt>
      <trkpt lat="45.73202" lon="3.21034">
        <ele>333.6</ele>
        <time>2024-05-19T08:58:34Z</time>
      </trkpt>
      <trkpt lat="45.73206" lon="3.21028">
        <ele>333.6</ele>
        <time>2024-05-19T08:58:35Z</time>
      </trkpt>
      <trkpt lat="45.73209" lon="3.21023">
        <ele>333.8</ele>
        <time>2024-05-19T08:58:36Z</time>
      </trkpt>
      <trkpt lat="45.73213" lon="3.21018">
        <ele>333.8</ele>
        <time>2024-05-19T08:58:37Z</time>
      </trkpt>
      <trkpt lat="45.73217" lon="3.21013">
        <ele>334</ele>
        <time>2024-05-19T08:58:38Z</time>
      </trkpt>
      <trkpt lat="45.73221" lon="3.21008">
        <ele>334</ele>
        <time>2024-05-19T08:58:39Z</time>
      </trkpt>
      <trkpt lat="45.73225" lon="3.21002">
        <ele>334.2</ele>
        <time>2024-05-19T08:58:40Z</time>
      </trkpt>
      <trkpt lat="45.73229" lon="3.20997">
        <ele>334.4</ele>
        <time>2024-05-19T08:58:41Z</time>
      </trkpt>
      <trkpt lat="45.73233" lon="3.20991">
        <ele>334.4</ele>
        <time>2024-05-19T08:58:42Z</time>
      </trkpt>
      <trkpt lat="45.73237" lon="3.20985">
        <ele>334.6</ele>
        <time>2024-05-19T08:58:43Z</time>
      </trkpt>
      <trkpt lat="45.73241" lon="3.20981">
        <ele>334.8</ele>
        <time>2024-05-19T08:58:44Z</time>
      </trkpt>
      <trkpt lat="45.73252" lon="3.20983">
        <ele>334.8</ele>
        <time>2024-05-19T08:58:45Z</time>
      </trkpt>
      <trkpt lat="45.73256" lon="3.20979">
        <ele>335</ele>
        <time>2024-05-19T08:58:46Z</time>
      </trkpt>
      <trkpt lat="45.73256" lon="3.20979">
        <ele>335</ele>
        <time>2024-05-19T08:58:47Z</time>
      </trkpt>
      <trkpt lat="45.7326" lon="3.2096">
        <ele>335.2</ele>
        <time>2024-05-19T08:58:48Z</time>
      </trkpt>
      <trkpt lat="45.73264" lon="3.20957">
        <ele>335.4</ele>
        <time>2024-05-19T08:58:49Z</time>
      </trkpt>
      <trkpt lat="45.73268" lon="3.20954">
        <ele>335.4</ele>
        <time>2024-05-19T08:58:50Z</time>
      </trkpt>
      <trkpt lat="45.73273" lon="3.20951">
        <ele>335.6</ele>
        <time>2024-05-19T08:58:51Z</time>
      </trkpt>
      <trkpt lat="45.73278" lon="3.20947">
        <ele>335.6</ele>
        <time>2024-05-19T08:58:52Z</time>
      </trkpt>
      <trkpt lat="45.73282" lon="3.20944">
        <ele>335.8</ele>
        <time>2024-05-19T08:58:53Z</time>
      </trkpt>
      <trkpt lat="45.73287" lon="3.20941">
        <ele>336</ele>
        <time>2024-05-19T08:58:54Z</time>
      </trkpt>
      <trkpt lat="45.73291" lon="3.20938">
        <ele>336</ele>
        <time>2024-05-19T08:58:55Z</time>
      </trkpt>
      <trkpt lat="45.73296" lon="3.20934">
        <ele>336.2</ele>
        <time>2024-05-19T08:58:56Z</time>
      </trkpt>
      <trkpt lat="45.733" lon="3.20931">
        <ele>336.4</ele>
        <time>2024-05-19T08:58:57Z</time>
      </trkpt>
      <trkpt lat="45.73305" lon="3.20928">
        <ele>336.4</ele>
        <time>2024-05-19T08:58:58Z</time>
      </trkpt>
      <trkpt lat="45.73309" lon="3.20925">
        <ele>336.6</ele>
        <time>2024-05-19T08:58:59Z</time>
      </trkpt>
      <trkpt lat="45.73314" lon="3.20921">
        <ele>336.8</ele>
        <time>2024-05-19T08:59:00Z</time>
      </trkpt>
      <trkpt lat="45.73318" lon="3.20918">
        <ele>336.8</ele>
        <time>2024-05-19T08:59:01Z</time>
      </trkpt>
      <trkpt lat="45.73323" lon="3.20915">
        <ele>337</ele>
        <time>2024-05-19T08:59:02Z</time>
      </trkpt>
      <trkpt lat="45.73327" lon="3.20912">
        <ele>337</ele>
        <time>2024-05-19T08:59:03Z</time>
      </trkpt>
      <trkpt lat="45.73331" lon="3.20909">
        <ele>337.2</ele>
        <time>2024-05-19T08:59:04Z</time>
      </trkpt>
      <trkpt lat="45.73336" lon="3.20906">
        <ele>337.4</ele>
        <time>2024-05-19T08:59:05Z</time>
      </trkpt>
      <trkpt lat="45.7334" lon="3.20903">
        <ele>337.4</ele>
        <time>2024-05-19T08:59:06Z</time>
      </trkpt>
      <trkpt lat="45.73344" lon="3.209">
        <ele>337.6</ele>
        <time>2024-05-19T08:59:07Z</time>
      </trkpt>
      <trkpt lat="45.73349" lon="3.20896">
        <ele>337.6</ele>
        <time>2024-05-19T08:59:08Z</time>
      </trkpt>
      <trkpt lat="45.73353" lon="3.20893">
        <ele>337.8</ele>
        <time>2024-05-19T08:59:09Z</time>
      </trkpt>
      <trkpt lat="45.73358" lon="3.2089">
        <ele>338</ele>
        <time>2024-05-19T08:59:10Z</time>
      </trkpt>
      <trkpt lat="45.73362" lon="3.20887">
        <ele>338</ele>
        <time>2024-05-19T08:59:11Z</time>
      </trkpt>
      <trkpt lat="45.73367" lon="3.20884">
        <ele>338.2</ele>
        <time>2024-05-19T08:59:12Z</time>
      </trkpt>
      <trkpt lat="45.73371" lon="3.20881">
        <ele>338.4</ele>
        <time>2024-05-19T08:59:13Z</time>
      </trkpt>
      <trkpt lat="45.73375" lon="3.20877">
        <ele>338.4</ele>
        <time>2024-05-19T08:59:14Z</time>
      </trkpt>
      <trkpt lat="45.7338" lon="3.20874">
        <ele>338.6</ele>
        <time>2024-05-19T08:59:15Z</time>
      </trkpt>
      <trkpt lat="45.73384" lon="3.20871">
        <ele>338.8</ele>
        <time>2024-05-19T08:59:16Z</time>
      </trkpt>
      <trkpt lat="45.73389" lon="3.20868">
        <ele>339</ele>
        <time>2024-05-19T08:59:17Z</time>
      </trkpt>
      <trkpt lat="45.73393" lon="3.20865">
        <ele>339.2</ele>
        <time>2024-05-19T08:59:18Z</time>
      </trkpt>
      <trkpt lat="45.73397" lon="3.20862">
        <ele>339.2</ele>
        <time>2024-05-19T08:59:19Z</time>
      </trkpt>
      <trkpt lat="45.73402" lon="3.20859">
        <ele>339.4</ele>
        <time>2024-05-19T08:59:20Z</time>
      </trkpt>
      <trkpt lat="45.73406" lon="3.20856">
        <ele>339.6</ele>
        <time>2024-05-19T08:59:21Z</time>
      </trkpt>
      <trkpt lat="45.7341" lon="3.20853">
        <ele>339.8</ele>
        <time>2024-05-19T08:59:22Z</time>
      </trkpt>
      <trkpt lat="45.73415" lon="3.2085">
        <ele>339.8</ele>
        <time>2024-05-19T08:59:23Z</time>
      </trkpt>
      <trkpt lat="45.73419" lon="3.20847">
        <ele>340</ele>
        <time>2024-05-19T08:59:24Z</time>
      </trkpt>
      <trkpt lat="45.73424" lon="3.20844">
        <ele>340.2</ele>
        <time>2024-05-19T08:59:25Z</time>
      </trkpt>
      <trkpt lat="45.73428" lon="3.20841">
        <ele>340.4</ele>
        <time>2024-05-19T08:59:26Z</time>
      </trkpt>
      <trkpt lat="45.73432" lon="3.20838">
        <ele>340.6</ele>
        <time>2024-05-19T08:59:27Z</time>
      </trkpt>
      <trkpt lat="45.73437" lon="3.20835">
        <ele>340.6</ele>
        <time>2024-05-19T08:59:28Z</time>
      </trkpt>
      <trkpt lat="45.73441" lon="3.20832">
        <ele>340.8</ele>
        <time>2024-05-19T08:59:29Z</time>
      </trkpt>
      <trkpt lat="45.73445" lon="3.20829">
        <ele>341</ele>
        <time>2024-05-19T08:59:30Z</time>
      </trkpt>
      <trkpt lat="45.73449" lon="3.20824">
        <ele>341.2</ele>
        <time>2024-05-19T08:59:31Z</time>
      </trkpt>
      <trkpt lat="45.73452" lon="3.20819">
        <ele>341.2</ele>
        <time>2024-05-19T08:59:32Z</time>
      </trkpt>
      <trkpt lat="45.73455" lon="3.20814">
        <ele>341.4</ele>
        <time>2024-05-19T08:59:33Z</time>
      </trkpt>
      <trkpt lat="45.73459" lon="3.20809">
        <ele>341.6</ele>
        <time>2024-05-19T08:59:34Z</time>
      </trkpt>
      <trkpt lat="45.73462" lon="3.20804">
        <ele>341.8</ele>
        <time>2024-05-19T08:59:35Z</time>
      </trkpt>
      <trkpt lat="45.73465" lon="3.20799">
        <ele>341.8</ele>
        <time>2024-05-19T08:59:36Z</time>
      </trkpt>
      <trkpt lat="45.73469" lon="3.20794">
        <ele>342</ele>
        <time>2024-05-19T08:59:37Z</time>
      </trkpt>
      <trkpt lat="45.73472" lon="3.20789">
        <ele>342.2</ele>
        <time>2024-05-19T08:59:38Z</time>
      </trkpt>
      <trkpt lat="45.73475" lon="3.20785">
        <ele>342.2</ele>
        <time>2024-05-19T08:59:39Z</time>
      </trkpt>
      <trkpt lat="45.73478" lon="3.20779">
        <ele>342.4</ele>
        <time>2024-05-19T08:59:40Z</time>
      </trkpt>
      <trkpt lat="45.7348" lon="3.20772">
        <ele>342.6</ele>
        <time>2024-05-19T08:59:41Z</time>
      </trkpt>
      <trkpt lat="45.73481" lon="3.20766">
        <ele>342.8</ele>
        <time>2024-05-19T08:59:42Z</time>
      </trkpt>
      <trkpt lat="45.73483" lon="3.20759">
        <ele>342.8</ele>
        <time>2024-05-19T08:59:43Z</time>
      </trkpt>
      <trkpt lat="45.73485" lon="3.20752">
        <ele>343</ele>
        <time>2024-05-19T08:59:44Z</time>
      </trkpt>
      <trkpt lat="45.73486" lon="3.20746">
        <ele>343.2</ele>
        <time>2024-05-19T08:59:45Z</time>
      </trkpt>
      <trkpt lat="45.73488" lon="3.20739">
        <ele>343.2</ele>
        <time>2024-05-19T08:59:46Z</time>
      </trkpt>
      <trkpt lat="45.7349" lon="3.20732">
        <ele>343.4</ele>
        <time>2024-05-19T08:59:47Z</time>
      </trkpt>
      <trkpt lat="45.73492" lon="3.20725">
        <ele>343.6</ele>
        <time>2024-05-19T08:59:48Z</time>
      </trkpt>
      <trkpt lat="45.73494" lon="3.20718">
        <ele>343.6</ele>
        <time>2024-05-19T08:59:49Z</time>
      </trkpt>
      <trkpt lat="45.73496" lon="3.20712">
        <ele>343.8</ele>
        <time>2024-05-19T08:59:50Z</time>
      </trkpt>
      <trkpt lat="45.73498" lon="3.20705">
        <ele>344</ele>
        <time>2024-05-19T08:59:51Z</time>
      </trkpt>
      <trkpt lat="45.735" lon="3.20698">
        <ele>344.2</ele>
        <time>2024-05-19T08:59:52Z</time>
      </trkpt>
      <trkpt lat="45.73502" lon="3.20691">
        <ele>344.2</ele>
        <time>2024-05-19T08:59:53Z</time>
      </trkpt>
      <trkpt lat="45.73503" lon="3.20685">
        <ele>344.4</ele>
        <time>2024-05-19T08:59:54Z</time>
      </trkpt>
      <trkpt lat="45.73505" lon="3.20678">
        <ele>344.6</ele>
        <time>2024-05-19T08:59:55Z</time>
      </trkpt>
      <trkpt lat="45.73507" lon="3.20671">
        <ele>344.8</ele>
        <time>2024-05-19T08:59:56Z</time>
      </trkpt>
      <trkpt lat="45.73509" lon="3.20664">
        <ele>344.8</ele>
        <time>2024-05-19T08:59:57Z</time>
      </trkpt>
      <trkpt lat="45.7351" lon="3.20658">
        <ele>345</ele>
        <time>2024-05-19T08:59:58Z</time>
      </trkpt>
      <trkpt lat="45.73512" lon="3.20651">
        <ele>345.2</ele>
        <time>2024-05-19T08:59:59Z</time>
      </trkpt>
      <trkpt lat="45.73514" lon="3.20645">
        <ele>345.2</ele>
        <time>2024-05-19T09:00:00Z</time>
      </trkpt>
      <trkpt lat="45.73516" lon="3.20638">
        <ele>345.4</ele>
        <time>2024-05-19T09:00:01Z</time>
      </trkpt>
      <trkpt lat="45.73517" lon="3.20632">
        <ele>345.6</ele>
        <time>2024-05-19T09:00:02Z</time>
      </trkpt>
      <trkpt lat="45.73519" lon="3.20626">
        <ele>345.8</ele>
        <time>2024-05-19T09:00:03Z</time>
      </trkpt>
      <trkpt lat="45.7352" lon="3.20621">
        <ele>345.8</ele>
        <time>2024-05-19T09:00:04Z</time>
      </trkpt>
      <trkpt lat="45.73521" lon="3.20616">
        <ele>346</ele>
        <time>2024-05-19T09:00:05Z</time>
      </trkpt>
      <trkpt lat="45.73523" lon="3.20612">
        <ele>346.2</ele>
        <time>2024-05-19T09:00:06Z</time>
      </trkpt>
      <trkpt lat="45.73523" lon="3.20609">
        <ele>346.4</ele>
        <time>2024-05-19T09:00:07Z</time>
      </trkpt>
      <trkpt lat="45.73524" lon="3.20606">
        <ele>346.4</ele>
        <time>2024-05-19T09:00:08Z</time>
      </trkpt>
      <trkpt lat="45.73525" lon="3.20603">
        <ele>346.6</ele>
        <time>2024-05-19T09:00:09Z</time>
      </trkpt>
      <trkpt lat="45.73525" lon="3.20602">
        <ele>346.8</ele>
        <time>2024-05-19T09:00:10Z</time>
      </trkpt>
      <trkpt lat="45.73525" lon="3.20601">
        <ele>347</ele>
        <time>2024-05-19T09:00:11Z</time>
      </trkpt>
      <trkpt lat="45.73526" lon="3.206">
        <ele>347.2</ele>
        <time>2024-05-19T09:00:12Z</time>
      </trkpt>
      <trkpt lat="45.73527" lon="3.20596">
        <ele>347.2</ele>
        <time>2024-05-19T09:00:13Z</time>
      </trkpt>
      <trkpt lat="45.73528" lon="3.20592">
        <ele>347.4</ele>
        <time>2024-05-19T09:00:14Z</time>
      </trkpt>
      <trkpt lat="45.73529" lon="3.20587">
        <ele>347.4</ele>
        <time>2024-05-19T09:00:15Z</time>
      </trkpt>
      <trkpt lat="45.73531" lon="3.20581">
        <ele>347.6</ele>
        <time>2024-05-19T09:00:16Z</time>
      </trkpt>
      <trkpt lat="45.73533" lon="3.20576">
        <ele>347.6</ele>
        <time>2024-05-19T09:00:17Z</time>
      </trkpt>
      <trkpt lat="45.73537" lon="3.2057">
        <ele>347.8</ele>
        <time>2024-05-19T09:00:18Z</time>
      </trkpt>
      <trkpt lat="45.7354" lon="3.20565">
        <ele>347.8</ele>
        <time>2024-05-19T09:00:19Z</time>
      </trkpt>
      <trkpt lat="45.73543" lon="3.2056">
        <ele>348</ele>
        <time>2024-05-19T09:00:20Z</time>
      </trkpt>
      <trkpt lat="45.73546" lon="3.20554">
        <ele>348.2</ele>
        <time>2024-05-19T09:00:21Z</time>
      </trkpt>
      <trkpt lat="45.73549" lon="3.20549">
        <ele>348.2</ele>
        <time>2024-05-19T09:00:22Z</time>
      </trkpt>
      <trkpt lat="45.73552" lon="3.20543">
        <ele>348.4</ele>
        <time>2024-05-19T09:00:23Z</time>
      </trkpt>
      <trkpt lat="45.73556" lon="3.20538">
        <ele>348.6</ele>
        <time>2024-05-19T09:00:24Z</time>
      </trkpt>
      <trkpt lat="45.73559" lon="3.20532">
        <ele>348.6</ele>
        <time>2024-05-19T09:00:25Z</time>
      </trkpt>
      <trkpt lat="45.73563" lon="3.20526">
        <ele>348.8</ele>
        <time>2024-05-19T09:00:26Z</time>
      </trkpt>
      <trkpt lat="45.73567" lon="3.20521">
        <ele>349</ele>
        <time>2024-05-19T09:00:27Z</time>
      </trkpt>
      <trkpt lat="45.73572" lon="3.20516">
        <ele>349</ele>
        <time>2024-05-19T09:00:28Z</time>
      </trkpt>
      <trkpt lat="45.73576" lon="3.20511">
        <ele>349.2</ele>
        <time>2024-05-19T09:00:29Z</time>
      </trkpt>
      <trkpt lat="45.7358" lon="3.20505">
        <ele>349.4</ele>
        <time>2024-05-19T09:00:30Z</time>
      </trkpt>
      <trkpt lat="45.73584" lon="3.205">
        <ele>349.4</ele>
        <time>2024-05-19T09:00:31Z</time>
      </trkpt>
      <trkpt lat="45.73589" lon="3.20495">
        <ele>349.6</ele>
        <time>2024-05-19T09:00:32Z</time>
      </trkpt>
      <trkpt lat="45.73593" lon="3.2049">
        <ele>349.8</ele>
        <time>2024-05-19T09:00:33Z</time>
      </trkpt>
      <trkpt lat="45.73597" lon="3.20485">
        <ele>349.8</ele>
        <time>2024-05-19T09:00:34Z</time>
      </trkpt>
      <trkpt lat="45.73602" lon="3.20479">
        <ele>350</ele>
        <time>2024-05-19T09:00:35Z</time>
      </trkpt>
      <trkpt lat="45.73607" lon="3.20476">
        <ele>350.2</ele>
        <time>2024-05-19T09:00:36Z</time>
      </trkpt>
      <trkpt lat="45.73613" lon="3.20473">
        <ele>350.4</ele>
        <time>2024-05-19T09:00:37Z</time>
      </trkpt>
      <trkpt lat="45.73618" lon="3.2047">
        <ele>350.6</ele>
        <time>2024-05-19T09:00:38Z</time>
      </trkpt>
      <trkpt lat="45.73624" lon="3.20467">
        <ele>350.6</ele>
        <time>2024-05-19T09:00:39Z</time>
      </trkpt>
      <trkpt lat="45.73629" lon="3.20465">
        <ele>350.8</ele>
        <time>2024-05-19T09:00:40Z</time>
      </trkpt>
      <trkpt lat="45.73634" lon="3.20462">
        <ele>351</ele>
        <time>2024-05-19T09:00:41Z</time>
      </trkpt>
      <trkpt lat="45.7364" lon="3.20459">
        <ele>351.2</ele>
        <time>2024-05-19T09:00:42Z</time>
      </trkpt>
      <trkpt lat="45.73646" lon="3.20458">
        <ele>351.4</ele>
        <time>2024-05-19T09:00:43Z</time>
      </trkpt>
      <trkpt lat="45.73652" lon="3.20457">
        <ele>351.6</ele>
        <time>2024-05-19T09:00:44Z</time>
      </trkpt>
      <trkpt lat="45.73657" lon="3.20455">
        <ele>351.6</ele>
        <time>2024-05-19T09:00:45Z</time>
      </trkpt>
      <trkpt lat="45.73663" lon="3.20454">
        <ele>351.8</ele>
        <time>2024-05-19T09:00:46Z</time>
      </trkpt>
      <trkpt lat="45.73669" lon="3.20453">
        <ele>352</ele>
        <time>2024-05-19T09:00:47Z</time>
      </trkpt>
      <trkpt lat="45.73675" lon="3.20451">
        <ele>352.2</ele>
        <time>2024-05-19T09:00:48Z</time>
      </trkpt>
      <trkpt lat="45.7368" lon="3.2045">
        <ele>352.2</ele>
        <time>2024-05-19T09:00:49Z</time>
      </trkpt>
      <trkpt lat="45.73686" lon="3.20449">
        <ele>352.4</ele>
        <time>2024-05-19T09:00:50Z</time>
      </trkpt>
      <trkpt lat="45.73692" lon="3.20447">
        <ele>352.6</ele>
        <time>2024-05-19T09:00:51Z</time>
      </trkpt>
      <trkpt lat="45.73697" lon="3.20446">
        <ele>352.8</ele>
        <time>2024-05-19T09:00:52Z</time>
      </trkpt>
      <trkpt lat="45.73703" lon="3.20445">
        <ele>352.8</ele>
        <time>2024-05-19T09:00:53Z</time>
      </trkpt>
      <trkpt lat="45.73709" lon="3.20443">
        <ele>353</ele>
        <time>2024-05-19T09:00:54Z</time>
      </trkpt>
      <trkpt lat="45.73714" lon="3.20442">
        <ele>353.2</ele>
        <time>2024-05-19T09:00:55Z</time>
      </trkpt>
      <trkpt lat="45.7372" lon="3.20441">
        <ele>353.4</ele>
        <time>2024-05-19T09:00:56Z</time>
      </trkpt>
      <trkpt lat="45.73725" lon="3.2044">
        <ele>353.6</ele>
        <time>2024-05-19T09:00:57Z</time>
      </trkpt>
      <trkpt lat="45.73731" lon="3.20439">
        <ele>353.8</ele>
        <time>2024-05-19T09:00:58Z</time>
      </trkpt>
      <trkpt lat="45.73736" lon="3.20437">
        <ele>354</ele>
        <time>2024-05-19T09:00:59Z</time>
      </trkpt>
      <trkpt lat="45.73741" lon="3.20436">
        <ele>354.2</ele>
        <time>2024-05-19T09:01:00Z</time>
      </trkpt>
      <trkpt lat="45.73746" lon="3.20433">
        <ele>354.2</ele>
        <time>2024-05-19T09:01:01Z</time>
      </trkpt>
      <trkpt lat="45.73751" lon="3.20429">
        <ele>354.4</ele>
        <time>2024-05-19T09:01:02Z</time>
      </trkpt>
      <trkpt lat="45.73755" lon="3.20425">
        <ele>354.6</ele>
        <time>2024-05-19T09:01:03Z</time>
      </trkpt>
      <trkpt lat="45.7376" lon="3.20421">
        <ele>354.8</ele>
        <time>2024-05-19T09:01:04Z</time>
      </trkpt>
      <trkpt lat="45.73765" lon="3.20418">
        <ele>355</ele>
        <time>2024-05-19T09:01:05Z</time>
      </trkpt>
      <trkpt lat="45.73769" lon="3.20414">
        <ele>355.2</ele>
        <time>2024-05-19T09:01:06Z</time>
      </trkpt>
      <trkpt lat="45.73774" lon="3.20407">
        <ele>355.4</ele>
        <time>2024-05-19T09:01:07Z</time>
      </trkpt>
      <trkpt lat="45.73776" lon="3.20401">
        <ele>355.4</ele>
        <time>2024-05-19T09:01:08Z</time>
      </trkpt>
      <trkpt lat="45.73779" lon="3.20394">
        <ele>355.6</ele>
        <time>2024-05-19T09:01:09Z</time>
      </trkpt>
      <trkpt lat="45.73782" lon="3.20387">
        <ele>355.8</ele>
        <time>2024-05-19T09:01:10Z</time>
      </trkpt>
      <trkpt lat="45.73784" lon="3.2038">
        <ele>356</ele>
        <time>2024-05-19T09:01:11Z</time>
      </trkpt>
      <trkpt lat="45.73787" lon="3.20373">
        <ele>356</ele>
        <time>2024-05-19T09:01:12Z</time>
      </trkpt>
      <trkpt lat="45.7379" lon="3.20367">
        <ele>356.2</ele>
        <time>2024-05-19T09:01:13Z</time>
      </trkpt>
      <trkpt lat="45.73792" lon="3.2036">
        <ele>356.4</ele>
        <time>2024-05-19T09:01:14Z</time>
      </trkpt>
      <trkpt lat="45.73795" lon="3.20353">
        <ele>356.6</ele>
        <time>2024-05-19T09:01:15Z</time>
      </trkpt>
      <trkpt lat="45.73798" lon="3.20346">
        <ele>356.8</ele>
        <time>2024-05-19T09:01:16Z</time>
      </trkpt>
      <trkpt lat="45.738" lon="3.20339">
        <ele>357</ele>
        <time>2024-05-19T09:01:17Z</time>
      </trkpt>
      <trkpt lat="45.73803" lon="3.20332">
        <ele>357.2</ele>
        <time>2024-05-19T09:01:18Z</time>
      </trkpt>
      <trkpt lat="45.73805" lon="3.20326">
        <ele>357.4</ele>
        <time>2024-05-19T09:01:19Z</time>
      </trkpt>
      <trkpt lat="45.73808" lon="3.20319">
        <ele>357.6</ele>
        <time>2024-05-19T09:01:20Z</time>
      </trkpt>
      <trkpt lat="45.7381" lon="3.20313">
        <ele>357.8</ele>
        <time>2024-05-19T09:01:21Z</time>
      </trkpt>
      <trkpt lat="45.73812" lon="3.20306">
        <ele>357.8</ele>
        <time>2024-05-19T09:01:22Z</time>
      </trkpt>
      <trkpt lat="45.73815" lon="3.203">
        <ele>358</ele>
        <time>2024-05-19T09:01:23Z</time>
      </trkpt>
      <trkpt lat="45.73817" lon="3.20294">
        <ele>358.2</ele>
        <time>2024-05-19T09:01:24Z</time>
      </trkpt>
      <trkpt lat="45.7382" lon="3.20288">
        <ele>358.4</ele>
        <time>2024-05-19T09:01:25Z</time>
      </trkpt>
      <trkpt lat="45.73823" lon="3.20282">
        <ele>358.6</ele>
        <time>2024-05-19T09:01:26Z</time>
      </trkpt>
      <trkpt lat="45.73825" lon="3.20277">
        <ele>358.8</ele>
        <time>2024-05-19T09:01:27Z</time>
      </trkpt>
      <trkpt lat="45.73828" lon="3.20271">
        <ele>359</ele>
        <time>2024-05-19T09:01:28Z</time>
      </trkpt>
      <trkpt lat="45.73831" lon="3.20266">
        <ele>359.2</ele>
        <time>2024-05-19T09:01:29Z</time>
      </trkpt>
      <trkpt lat="45.73834" lon="3.2026">
        <ele>359.2</ele>
        <time>2024-05-19T09:01:30Z</time>
      </trkpt>
      <trkpt lat="45.73836" lon="3.20255">
        <ele>359.4</ele>
        <time>2024-05-19T09:01:31Z</time>
      </trkpt>
      <trkpt lat="45.73839" lon="3.2025">
        <ele>359.6</ele>
        <time>2024-05-19T09:01:32Z</time>
      </trkpt>
      <trkpt lat="45.73841" lon="3.20245">
        <ele>359.8</ele>
        <time>2024-05-19T09:01:33Z</time>
      </trkpt>
      <trkpt lat="45.73844" lon="3.2024">
        <ele>360</ele>
        <time>2024-05-19T09:01:34Z</time>
      </trkpt>
      <trkpt lat="45.73846" lon="3.20235">
        <ele>360.2</ele>
        <time>2024-05-19T09:01:35Z</time>
      </trkpt>
      <trkpt lat="45.73848" lon="3.20231">
        <ele>360.2</ele>
        <time>2024-05-19T09:01:36Z</time>
      </trkpt>
      <trkpt lat="45.73851" lon="3.20227">
        <ele>360.4</ele>
        <time>2024-05-19T09:01:37Z</time>
      </trkpt>
      <trkpt lat="45.73853" lon="3.20224">
        <ele>360.6</ele>
        <time>2024-05-19T09:01:38Z</time>
      </trkpt>
      <trkpt lat="45.73855" lon="3.20222">
        <ele>360.6</ele>
        <time>2024-05-19T09:01:39Z</time>
      </trkpt>
      <trkpt lat="45.73857" lon="3.20219">
        <ele>360.8</ele>
        <time>2024-05-19T09:01:40Z</time>
      </trkpt>
      <trkpt lat="45.73858" lon="3.20218">
        <ele>361</ele>
        <time>2024-05-19T09:01:41Z</time>
      </trkpt>
      <trkpt lat="45.73859" lon="3.20217">
        <ele>361.2</ele>
        <time>2024-05-19T09:01:42Z</time>
      </trkpt>
      <trkpt lat="45.7386" lon="3.20216">
        <ele>361.2</ele>
        <time>2024-05-19T09:01:43Z</time>
      </trkpt>
      <trkpt lat="45.7386" lon="3.20216">
        <ele>361.4</ele>
        <time>2024-05-19T09:01:44Z</time>
      </trkpt>
      <trkpt lat="45.7386" lon="3.20216">
        <ele>361.6</ele>
        <time>2024-05-19T09:01:45Z</time>
      </trkpt>
      <trkpt lat="45.73865" lon="3.20209">
        <ele>365</ele>
        <time>2024-05-19T09:02:16Z</time>
      </trkpt>
      <trkpt lat="45.73865" lon="3.20209">
        <ele>365.2</ele>
        <time>2024-05-19T09:02:17Z</time>
      </trkpt>
      <trkpt lat="45.73869" lon="3.20203">
        <ele>365.2</ele>
        <time>2024-05-19T09:02:18Z</time>
      </trkpt>
      <trkpt lat="45.7387" lon="3.20195">
        <ele>365.4</ele>
        <time>2024-05-19T09:02:19Z</time>
      </trkpt>
      <trkpt lat="45.7387" lon="3.20195">
        <ele>365.4</ele>
        <time>2024-05-19T09:02:20Z</time>
      </trkpt>
      <trkpt lat="45.7387" lon="3.20189">
        <ele>365.6</ele>
        <time>2024-05-19T09:02:21Z</time>
      </trkpt>
      <trkpt lat="45.7387" lon="3.20183">
        <ele>365.6</ele>
        <time>2024-05-19T09:02:22Z</time>
      </trkpt>
      <trkpt lat="45.7387" lon="3.20177">
        <ele>365.8</ele>
        <time>2024-05-19T09:02:23Z</time>
      </trkpt>
      <trkpt lat="45.7387" lon="3.2017">
        <ele>365.8</ele>
        <time>2024-05-19T09:02:24Z</time>
      </trkpt>
      <trkpt lat="45.7387" lon="3.20164">
        <ele>366</ele>
        <time>2024-05-19T09:02:25Z</time>
      </trkpt>
      <trkpt lat="45.7387" lon="3.20157">
        <ele>366</ele>
        <time>2024-05-19T09:02:26Z</time>
      </trkpt>
      <trkpt lat="45.7387" lon="3.2015">
        <ele>366</ele>
        <time>2024-05-19T09:02:27Z</time>
      </trkpt>
      <trkpt lat="45.73869" lon="3.20143">
        <ele>366.2</ele>
        <time>2024-05-19T09:02:28Z</time>
      </trkpt>
      <trkpt lat="45.73869" lon="3.20136">
        <ele>366.2</ele>
        <time>2024-05-19T09:02:29Z</time>
      </trkpt>
      <trkpt lat="45.73869" lon="3.20129">
        <ele>366.4</ele>
        <time>2024-05-19T09:02:30Z</time>
      </trkpt>
      <trkpt lat="45.73869" lon="3.20122">
        <ele>366.6</ele>
        <time>2024-05-19T09:02:31Z</time>
      </trkpt>
      <trkpt lat="45.73869" lon="3.20115">
        <ele>366.6</ele>
        <time>2024-05-19T09:02:32Z</time>
      </trkpt>
      <trkpt lat="45.73868" lon="3.20108">
        <ele>366.8</ele>
        <time>2024-05-19T09:02:33Z</time>
      </trkpt>
      <trkpt lat="45.73868" lon="3.20102">
        <ele>367</ele>
        <time>2024-05-19T09:02:34Z</time>
      </trkpt>
      <trkpt lat="45.73868" lon="3.20095">
        <ele>367.2</ele>
        <time>2024-05-19T09:02:35Z</time>
      </trkpt>
      <trkpt lat="45.73868" lon="3.20089">
        <ele>367.4</ele>
        <time>2024-05-19T09:02:36Z</time>
      </trkpt>
      <trkpt lat="45.73868" lon="3.20082">
        <ele>367.6</ele>
        <time>2024-05-19T09:02:37Z</time>
      </trkpt>
      <trkpt lat="45.73867" lon="3.20076">
        <ele>367.8</ele>
        <time>2024-05-19T09:02:38Z</time>
      </trkpt>
      <trkpt lat="45.73867" lon="3.20071">
        <ele>367.8</ele>
        <time>2024-05-19T09:02:39Z</time>
      </trkpt>
      <trkpt lat="45.73867" lon="3.20066">
        <ele>368</ele>
        <time>2024-05-19T09:02:40Z</time>
      </trkpt>
      <trkpt lat="45.73867" lon="3.20061">
        <ele>368.2</ele>
        <time>2024-05-19T09:02:41Z</time>
      </trkpt>
      <trkpt lat="45.73867" lon="3.20057">
        <ele>368.4</ele>
        <time>2024-05-19T09:02:42Z</time>
      </trkpt>
      <trkpt lat="45.73867" lon="3.20053">
        <ele>368.4</ele>
        <time>2024-05-19T09:02:43Z</time>
      </trkpt>
      <trkpt lat="45.73867" lon="3.20051">
        <ele>368.6</ele>
        <time>2024-05-19T09:02:44Z</time>
      </trkpt>
      <trkpt lat="45.73867" lon="3.20051">
        <ele>368.8</ele>
        <time>2024-05-19T09:02:45Z</time>
      </trkpt>
      <trkpt lat="45.73867" lon="3.20049">
        <ele>368.8</ele>
        <time>2024-05-19T09:02:46Z</time>
      </trkpt>
      <trkpt lat="45.73867" lon="3.20048">
        <ele>369</ele>
        <time>2024-05-19T09:02:47Z</time>
      </trkpt>
      <trkpt lat="45.73867" lon="3.20047">
        <ele>369.2</ele>
        <time>2024-05-19T09:02:48Z</time>
      </trkpt>
      <trkpt lat="45.73867" lon="3.20046">
        <ele>369.2</ele>
        <time>2024-05-19T09:02:49Z</time>
      </trkpt>
      <trkpt lat="45.73867" lon="3.20046">
        <ele>369.4</ele>
        <time>2024-05-19T09:02:50Z</time>
      </trkpt>
      <trkpt lat="45.73867" lon="3.20043">
        <ele>371.2</ele>
        <time>2024-05-19T09:03:07Z</time>
      </trkpt>
      <trkpt lat="45.73867" lon="3.20043">
        <ele>371.4</ele>
        <time>2024-05-19T09:03:08Z</time>
      </trkpt>
      <trkpt lat="45.73866" lon="3.20041">
        <ele>371.4</ele>
        <time>2024-05-19T09:03:09Z</time>
      </trkpt>
      <trkpt lat="45.73866" lon="3.20038">
        <ele>371.6</ele>
        <time>2024-05-19T09:03:10Z</time>
      </trkpt>
      <trkpt lat="45.73866" lon="3.2003">
        <ele>371.6</ele>
        <time>2024-05-19T09:03:11Z</time>
      </trkpt>
      <trkpt lat="45.73866" lon="3.2003">
        <ele>371.8</ele>
        <time>2024-05-19T09:03:12Z</time>
      </trkpt>
      <trkpt lat="45.73866" lon="3.20026">
        <ele>371.8</ele>
        <time>2024-05-19T09:03:13Z</time>
      </trkpt>
      <trkpt lat="45.73866" lon="3.20021">
        <ele>372</ele>
        <time>2024-05-19T09:03:14Z</time>
      </trkpt>
      <trkpt lat="45.73867" lon="3.20015">
        <ele>372</ele>
        <time>2024-05-19T09:03:15Z</time>
      </trkpt>
      <trkpt lat="45.73867" lon="3.20009">
        <ele>372.2</ele>
        <time>2024-05-19T09:03:16Z</time>
      </trkpt>
      <trkpt lat="45.73868" lon="3.20003">
        <ele>372.2</ele>
        <time>2024-05-19T09:03:17Z</time>
      </trkpt>
      <trkpt lat="45.73869" lon="3.19996">
        <ele>372.4</ele>
        <time>2024-05-19T09:03:18Z</time>
      </trkpt>
      <trkpt lat="45.7387" lon="3.1999">
        <ele>372.4</ele>
        <time>2024-05-19T09:03:19Z</time>
      </trkpt>
      <trkpt lat="45.73871" lon="3.19983">
        <ele>372.6</ele>
        <time>2024-05-19T09:03:20Z</time>
      </trkpt>
      <trkpt lat="45.73872" lon="3.19976">
        <ele>372.6</ele>
        <time>2024-05-19T09:03:21Z</time>
      </trkpt>
      <trkpt lat="45.73872" lon="3.19969">
        <ele>372.8</ele>
        <time>2024-05-19T09:03:22Z</time>
      </trkpt>
      <trkpt lat="45.73873" lon="3.19961">
        <ele>373</ele>
        <time>2024-05-19T09:03:23Z</time>
      </trkpt>
      <trkpt lat="45.73874" lon="3.19954">
        <ele>373</ele>
        <time>2024-05-19T09:03:24Z</time>
      </trkpt>
      <trkpt lat="45.73875" lon="3.19947">
        <ele>373.2</ele>
        <time>2024-05-19T09:03:25Z</time>
      </trkpt>
      <trkpt lat="45.73876" lon="3.19939">
        <ele>373.4</ele>
        <time>2024-05-19T09:03:26Z</time>
      </trkpt>
      <trkpt lat="45.73877" lon="3.19931">
        <ele>373.6</ele>
        <time>2024-05-19T09:03:27Z</time>
      </trkpt>
      <trkpt lat="45.73878" lon="3.19923">
        <ele>373.6</ele>
        <time>2024-05-19T09:03:28Z</time>
      </trkpt>
      <trkpt lat="45.73879" lon="3.19916">
        <ele>373.8</ele>
        <time>2024-05-19T09:03:29Z</time>
      </trkpt>
      <trkpt lat="45.7388" lon="3.19908">
        <ele>374</ele>
        <time>2024-05-19T09:03:30Z</time>
      </trkpt>
      <trkpt lat="45.73881" lon="3.19901">
        <ele>374</ele>
        <time>2024-05-19T09:03:31Z</time>
      </trkpt>
      <trkpt lat="45.73882" lon="3.19893">
        <ele>374.2</ele>
        <time>2024-05-19T09:03:32Z</time>
      </trkpt>
      <trkpt lat="45.73883" lon="3.19886">
        <ele>374.2</ele>
        <time>2024-05-19T09:03:33Z</time>
      </trkpt>
      <trkpt lat="45.73883" lon="3.19878">
        <ele>374.4</ele>
        <time>2024-05-19T09:03:34Z</time>
      </trkpt>
      <trkpt lat="45.73883" lon="3.19871">
        <ele>374.6</ele>
        <time>2024-05-19T09:03:35Z</time>
      </trkpt>
      <trkpt lat="45.73884" lon="3.19863">
        <ele>374.6</ele>
        <time>2024-05-19T09:03:36Z</time>
      </trkpt>
      <trkpt lat="45.73884" lon="3.19856">
        <ele>374.8</ele>
        <time>2024-05-19T09:03:37Z</time>
      </trkpt>
      <trkpt lat="45.73884" lon="3.19848">
        <ele>375</ele>
        <time>2024-05-19T09:03:38Z</time>
      </trkpt>
      <trkpt lat="45.73884" lon="3.1984">
        <ele>375.2</ele>
        <time>2024-05-19T09:03:39Z</time>
      </trkpt>
      <trkpt lat="45.73884" lon="3.19832">
        <ele>375.2</ele>
        <time>2024-05-19T09:03:40Z</time>
      </trkpt>
      <trkpt lat="45.73884" lon="3.19825">
        <ele>375.4</ele>
        <time>2024-05-19T09:03:41Z</time>
      </trkpt>
      <trkpt lat="45.73884" lon="3.19817">
        <ele>375.4</ele>
        <time>2024-05-19T09:03:42Z</time>
      </trkpt>
      <trkpt lat="45.73885" lon="3.19809">
        <ele>375.6</ele>
        <time>2024-05-19T09:03:43Z</time>
      </trkpt>
      <trkpt lat="45.73885" lon="3.19801">
        <ele>375.8</ele>
        <time>2024-05-19T09:03:44Z</time>
      </trkpt>
      <trkpt lat="45.73885" lon="3.19793">
        <ele>376</ele>
        <time>2024-05-19T09:03:45Z</time>
      </trkpt>
      <trkpt lat="45.73885" lon="3.19785">
        <ele>376</ele>
        <time>2024-05-19T09:03:46Z</time>
      </trkpt>
      <trkpt lat="45.73886" lon="3.19775">
        <ele>376.2</ele>
        <time>2024-05-19T09:03:47Z</time>
      </trkpt>
      <trkpt lat="45.73888" lon="3.19766">
        <ele>376.2</ele>
        <time>2024-05-19T09:03:48Z</time>
      </trkpt>
      <trkpt lat="45.73892" lon="3.19757">
        <ele>376.4</ele>
        <time>2024-05-19T09:03:49Z</time>
      </trkpt>
      <trkpt lat="45.73896" lon="3.19751">
        <ele>376.4</ele>
        <time>2024-05-19T09:03:50Z</time>
      </trkpt>
      <trkpt lat="45.73901" lon="3.19744">
        <ele>376.6</ele>
        <time>2024-05-19T09:03:51Z</time>
      </trkpt>
      <trkpt lat="45.73905" lon="3.19737">
        <ele>376.6</ele>
        <time>2024-05-19T09:03:52Z</time>
      </trkpt>
      <trkpt lat="45.73909" lon="3.19731">
        <ele>376.8</ele>
        <time>2024-05-19T09:03:53Z</time>
      </trkpt>
      <trkpt lat="45.73913" lon="3.19726">
        <ele>376.8</ele>
        <time>2024-05-19T09:03:54Z</time>
      </trkpt>
      <trkpt lat="45.73917" lon="3.19721">
        <ele>377</ele>
        <time>2024-05-19T09:03:55Z</time>
      </trkpt>
      <trkpt lat="45.73918" lon="3.19719">
        <ele>377.2</ele>
        <time>2024-05-19T09:03:56Z</time>
      </trkpt>
      <trkpt lat="45.73919" lon="3.19718">
        <ele>377.2</ele>
        <time>2024-05-19T09:03:57Z</time>
      </trkpt>
      <trkpt lat="45.73919" lon="3.19718">
        <ele>377.2</ele>
        <time>2024-05-19T09:03:58Z</time>
      </trkpt>
      <trkpt lat="45.73921" lon="3.19716">
        <ele>377.6</ele>
        <time>2024-05-19T09:03:59Z</time>
      </trkpt>
      <trkpt lat="45.73921" lon="3.19716">
        <ele>377.6</ele>
        <time>2024-05-19T09:04:00Z</time>
      </trkpt>
      <trkpt lat="45.73923" lon="3.19713">
        <ele>379</ele>
        <time>2024-05-19T09:04:14Z</time>
      </trkpt>
      <trkpt lat="45.73923" lon="3.19713">
        <ele>379</ele>
        <time>2024-05-19T09:04:15Z</time>
      </trkpt>
      <trkpt lat="45.73927" lon="3.19707">
        <ele>379</ele>
        <time>2024-05-19T09:04:16Z</time>
      </trkpt>
      <trkpt lat="45.73931" lon="3.19703">
        <ele>379</ele>
        <time>2024-05-19T09:04:17Z</time>
      </trkpt>
      <trkpt lat="45.73931" lon="3.19703">
        <ele>379</ele>
        <time>2024-05-19T09:04:18Z</time>
      </trkpt>
      <trkpt lat="45.73935" lon="3.19698">
        <ele>379.2</ele>
        <time>2024-05-19T09:04:19Z</time>
      </trkpt>
      <trkpt lat="45.73939" lon="3.19692">
        <ele>379.2</ele>
        <time>2024-05-19T09:04:20Z</time>
      </trkpt>
      <trkpt lat="45.73943" lon="3.19686">
        <ele>379.2</ele>
        <time>2024-05-19T09:04:21Z</time>
      </trkpt>
      <trkpt lat="45.73946" lon="3.19679">
        <ele>379.2</ele>
        <time>2024-05-19T09:04:22Z</time>
      </trkpt>
      <trkpt lat="45.7395" lon="3.19671">
        <ele>379.4</ele>
        <time>2024-05-19T09:04:23Z</time>
      </trkpt>
      <trkpt lat="45.73954" lon="3.19663">
        <ele>379.4</ele>
        <time>2024-05-19T09:04:24Z</time>
      </trkpt>
      <trkpt lat="45.73957" lon="3.19653">
        <ele>379.4</ele>
        <time>2024-05-19T09:04:25Z</time>
      </trkpt>
      <trkpt lat="45.7396" lon="3.19644">
        <ele>379.6</ele>
        <time>2024-05-19T09:04:26Z</time>
      </trkpt>
      <trkpt lat="45.73963" lon="3.19634">
        <ele>379.6</ele>
        <time>2024-05-19T09:04:27Z</time>
      </trkpt>
      <trkpt lat="45.73966" lon="3.19625">
        <ele>379.6</ele>
        <time>2024-05-19T09:04:28Z</time>
      </trkpt>
      <trkpt lat="45.73967" lon="3.19614">
        <ele>379.6</ele>
        <time>2024-05-19T09:04:29Z</time>
      </trkpt>
      <trkpt lat="45.73967" lon="3.19603">
        <ele>379.8</ele>
        <time>2024-05-19T09:04:30Z</time>
      </trkpt>
      <trkpt lat="45.73967" lon="3.19592">
        <ele>379.8</ele>
        <time>2024-05-19T09:04:31Z</time>
      </trkpt>
      <trkpt lat="45.73967" lon="3.19581">
        <ele>380</ele>
        <time>2024-05-19T09:04:32Z</time>
      </trkpt>
      <trkpt lat="45.73967" lon="3.1957">
        <ele>380</ele>
        <time>2024-05-19T09:04:33Z</time>
      </trkpt>
      <trkpt lat="45.73967" lon="3.19559">
        <ele>380</ele>
        <time>2024-05-19T09:04:34Z</time>
      </trkpt>
      <trkpt lat="45.73967" lon="3.19547">
        <ele>380.2</ele>
        <time>2024-05-19T09:04:35Z</time>
      </trkpt>
      <trkpt lat="45.73967" lon="3.19536">
        <ele>380.2</ele>
        <time>2024-05-19T09:04:36Z</time>
      </trkpt>
      <trkpt lat="45.73967" lon="3.19525">
        <ele>380.2</ele>
        <time>2024-05-19T09:04:37Z</time>
      </trkpt>
      <trkpt lat="45.73967" lon="3.19514">
        <ele>380.4</ele>
        <time>2024-05-19T09:04:38Z</time>
      </trkpt>
      <trkpt lat="45.73967" lon="3.19503">
        <ele>380.4</ele>
        <time>2024-05-19T09:04:39Z</time>
      </trkpt>
      <trkpt lat="45.73967" lon="3.19492">
        <ele>380.6</ele>
        <time>2024-05-19T09:04:40Z</time>
      </trkpt>
      <trkpt lat="45.73967" lon="3.19481">
        <ele>380.8</ele>
        <time>2024-05-19T09:04:41Z</time>
      </trkpt>
      <trkpt lat="45.73967" lon="3.1947">
        <ele>380.8</ele>
        <time>2024-05-19T09:04:42Z</time>
      </trkpt>
      <trkpt lat="45.73967" lon="3.19459">
        <ele>381</ele>
        <time>2024-05-19T09:04:43Z</time>
      </trkpt>
      <trkpt lat="45.73968" lon="3.19448">
        <ele>381</ele>
        <time>2024-05-19T09:04:44Z</time>
      </trkpt>
      <trkpt lat="45.73969" lon="3.19438">
        <ele>381.2</ele>
        <time>2024-05-19T09:04:45Z</time>
      </trkpt>
      <trkpt lat="45.73971" lon="3.19428">
        <ele>381.2</ele>
        <time>2024-05-19T09:04:46Z</time>
      </trkpt>
      <trkpt lat="45.73972" lon="3.19418">
        <ele>381.2</ele>
        <time>2024-05-19T09:04:47Z</time>
      </trkpt>
      <trkpt lat="45.73974" lon="3.19408">
        <ele>381.4</ele>
        <time>2024-05-19T09:04:48Z</time>
      </trkpt>
      <trkpt lat="45.73975" lon="3.19398">
        <ele>381.4</ele>
        <time>2024-05-19T09:04:49Z</time>
      </trkpt>
      <trkpt lat="45.73977" lon="3.19388">
        <ele>381.4</ele>
        <time>2024-05-19T09:04:50Z</time>
      </trkpt>
      <trkpt lat="45.73978" lon="3.19378">
        <ele>381.6</ele>
        <time>2024-05-19T09:04:51Z</time>
      </trkpt>
      <trkpt lat="45.73979" lon="3.19369">
        <ele>381.6</ele>
        <time>2024-05-19T09:04:52Z</time>
      </trkpt>
      <trkpt lat="45.73981" lon="3.1936">
        <ele>381.8</ele>
        <time>2024-05-19T09:04:53Z</time>
      </trkpt>
      <trkpt lat="45.73983" lon="3.19352">
        <ele>381.8</ele>
        <time>2024-05-19T09:04:54Z</time>
      </trkpt>
      <trkpt lat="45.73985" lon="3.19345">
        <ele>381.8</ele>
        <time>2024-05-19T09:04:55Z</time>
      </trkpt>
      <trkpt lat="45.73986" lon="3.19339">
        <ele>382</ele>
        <time>2024-05-19T09:04:56Z</time>
      </trkpt>
      <trkpt lat="45.73988" lon="3.19335">
        <ele>382</ele>
        <time>2024-05-19T09:04:57Z</time>
      </trkpt>
      <trkpt lat="45.73988" lon="3.19332">
        <ele>382.2</ele>
        <time>2024-05-19T09:04:58Z</time>
      </trkpt>
      <trkpt lat="45.73989" lon="3.1933">
        <ele>382.2</ele>
        <time>2024-05-19T09:04:59Z</time>
      </trkpt>
      <trkpt lat="45.73989" lon="3.19329">
        <ele>382.2</ele>
        <time>2024-05-19T09:05:00Z</time>
      </trkpt>
      <trkpt lat="45.73989" lon="3.19328">
        <ele>382.4</ele>
        <time>2024-05-19T09:05:01Z</time>
      </trkpt>
      <trkpt lat="45.7399" lon="3.19326">
        <ele>382.4</ele>
        <time>2024-05-19T09:05:02Z</time>
      </trkpt>
      <trkpt lat="45.7399" lon="3.19323">
        <ele>382.4</ele>
        <time>2024-05-19T09:05:03Z</time>
      </trkpt>
      <trkpt lat="45.73991" lon="3.19319">
        <ele>382.6</ele>
        <time>2024-05-19T09:05:04Z</time>
      </trkpt>
      <trkpt lat="45.73993" lon="3.19313">
        <ele>382.6</ele>
        <time>2024-05-19T09:05:05Z</time>
      </trkpt>
      <trkpt lat="45.73994" lon="3.19308">
        <ele>382.6</ele>
        <time>2024-05-19T09:05:06Z</time>
      </trkpt>
      <trkpt lat="45.73996" lon="3.19302">
        <ele>382.8</ele>
        <time>2024-05-19T09:05:07Z</time>
      </trkpt>
      <trkpt lat="45.73998" lon="3.19294">
        <ele>382.8</ele>
        <time>2024-05-19T09:05:08Z</time>
      </trkpt>
      <trkpt lat="45.74001" lon="3.19288">
        <ele>382.8</ele>
        <time>2024-05-19T09:05:09Z</time>
      </trkpt>
      <trkpt lat="45.74005" lon="3.19281">
        <ele>383</ele>
        <time>2024-05-19T09:05:10Z</time>
      </trkpt>
      <trkpt lat="45.74008" lon="3.19273">
        <ele>383</ele>
        <time>2024-05-19T09:05:11Z</time>
      </trkpt>
      <trkpt lat="45.7401" lon="3.19265">
        <ele>383.2</ele>
        <time>2024-05-19T09:05:12Z</time>
      </trkpt>
      <trkpt lat="45.74012" lon="3.19256">
        <ele>383.2</ele>
        <time>2024-05-19T09:05:13Z</time>
      </trkpt>
      <trkpt lat="45.74014" lon="3.19247">
        <ele>383.4</ele>
        <time>2024-05-19T09:05:14Z</time>
      </trkpt>
      <trkpt lat="45.74016" lon="3.19238">
        <ele>383.4</ele>
        <time>2024-05-19T09:05:15Z</time>
      </trkpt>
      <trkpt lat="45.74018" lon="3.19229">
        <ele>383.6</ele>
        <time>2024-05-19T09:05:16Z</time>
      </trkpt>
      <trkpt lat="45.7402" lon="3.1922">
        <ele>383.6</ele>
        <time>2024-05-19T09:05:17Z</time>
      </trkpt>
      <trkpt lat="45.74022" lon="3.19212">
        <ele>383.8</ele>
        <time>2024-05-19T09:05:18Z</time>
      </trkpt>
      <trkpt lat="45.74024" lon="3.19203">
        <ele>383.8</ele>
        <time>2024-05-19T09:05:19Z</time>
      </trkpt>
      <trkpt lat="45.74025" lon="3.19194">
        <ele>384</ele>
        <time>2024-05-19T09:05:20Z</time>
      </trkpt>
      <trkpt lat="45.74026" lon="3.19185">
        <ele>384</ele>
        <time>2024-05-19T09:05:21Z</time>
      </trkpt>
      <trkpt lat="45.74027" lon="3.19176">
        <ele>384</ele>
        <time>2024-05-19T09:05:22Z</time>
      </trkpt>
      <trkpt lat="45.74029" lon="3.19167">
        <ele>384.2</ele>
        <time>2024-05-19T09:05:23Z</time>
      </trkpt>
      <trkpt lat="45.7403" lon="3.19158">
        <ele>384.2</ele>
        <time>2024-05-19T09:05:24Z</time>
      </trkpt>
      <trkpt lat="45.74031" lon="3.1915">
        <ele>384.4</ele>
        <time>2024-05-19T09:05:25Z</time>
      </trkpt>
      <trkpt lat="45.74032" lon="3.19141">
        <ele>384.6</ele>
        <time>2024-05-19T09:05:26Z</time>
      </trkpt>
      <trkpt lat="45.74034" lon="3.19132">
        <ele>384.6</ele>
        <time>2024-05-19T09:05:27Z</time>
      </trkpt>
      <trkpt lat="45.74035" lon="3.19123">
        <ele>384.8</ele>
        <time>2024-05-19T09:05:28Z</time>
      </trkpt>
      <trkpt lat="45.74036" lon="3.19115">
        <ele>384.8</ele>
        <time>2024-05-19T09:05:29Z</time>
      </trkpt>
      <trkpt lat="45.74037" lon="3.19106">
        <ele>385</ele>
        <time>2024-05-19T09:05:30Z</time>
      </trkpt>
      <trkpt lat="45.74038" lon="3.19097">
        <ele>385</ele>
        <time>2024-05-19T09:05:31Z</time>
      </trkpt>
      <trkpt lat="45.7404" lon="3.19089">
        <ele>385.2</ele>
        <time>2024-05-19T09:05:32Z</time>
      </trkpt>
      <trkpt lat="45.74041" lon="3.19081">
        <ele>385.2</ele>
        <time>2024-05-19T09:05:33Z</time>
      </trkpt>
      <trkpt lat="45.74042" lon="3.19072">
        <ele>385.4</ele>
        <time>2024-05-19T09:05:34Z</time>
      </trkpt>
      <trkpt lat="45.74043" lon="3.19064">
        <ele>385.4</ele>
        <time>2024-05-19T09:05:35Z</time>
      </trkpt>
      <trkpt lat="45.74044" lon="3.19055">
        <ele>385.6</ele>
        <time>2024-05-19T09:05:36Z</time>
      </trkpt>
      <trkpt lat="45.74046" lon="3.19046">
        <ele>385.6</ele>
        <time>2024-05-19T09:05:37Z</time>
      </trkpt>
      <trkpt lat="45.74047" lon="3.19038">
        <ele>385.8</ele>
        <time>2024-05-19T09:05:38Z</time>
      </trkpt>
      <trkpt lat="45.74048" lon="3.1903">
        <ele>385.8</ele>
        <time>2024-05-19T09:05:39Z</time>
      </trkpt>
      <trkpt lat="45.74049" lon="3.19022">
        <ele>386</ele>
        <time>2024-05-19T09:05:40Z</time>
      </trkpt>
      <trkpt lat="45.7405" lon="3.19013">
        <ele>386</ele>
        <time>2024-05-19T09:05:41Z</time>
      </trkpt>
      <trkpt lat="45.74051" lon="3.19004">
        <ele>386.2</ele>
        <time>2024-05-19T09:05:42Z</time>
      </trkpt>
      <trkpt lat="45.74053" lon="3.18996">
        <ele>386.2</ele>
        <time>2024-05-19T09:05:43Z</time>
      </trkpt>
      <trkpt lat="45.74054" lon="3.18987">
        <ele>386.4</ele>
        <time>2024-05-19T09:05:44Z</time>
      </trkpt>
      <trkpt lat="45.74055" lon="3.18979">
        <ele>386.4</ele>
        <time>2024-05-19T09:05:45Z</time>
      </trkpt>
      <trkpt lat="45.74056" lon="3.1897">
        <ele>386.6</ele>
        <time>2024-05-19T09:05:46Z</time>
      </trkpt>
      <trkpt lat="45.74057" lon="3.18962">
        <ele>386.6</ele>
        <time>2024-05-19T09:05:47Z</time>
      </trkpt>
      <trkpt lat="45.74059" lon="3.18954">
        <ele>386.8</ele>
        <time>2024-05-19T09:05:48Z</time>
      </trkpt>
      <trkpt lat="45.7406" lon="3.18945">
        <ele>386.8</ele>
        <time>2024-05-19T09:05:49Z</time>
      </trkpt>
      <trkpt lat="45.74061" lon="3.18937">
        <ele>387</ele>
        <time>2024-05-19T09:05:50Z</time>
      </trkpt>
      <trkpt lat="45.74063" lon="3.18928">
        <ele>387</ele>
        <time>2024-05-19T09:05:51Z</time>
      </trkpt>
      <trkpt lat="45.74064" lon="3.18919">
        <ele>387.2</ele>
        <time>2024-05-19T09:05:52Z</time>
      </trkpt>
      <trkpt lat="45.74065" lon="3.18911">
        <ele>387.2</ele>
        <time>2024-05-19T09:05:53Z</time>
      </trkpt>
      <trkpt lat="45.74066" lon="3.18903">
        <ele>387.4</ele>
        <time>2024-05-19T09:05:54Z</time>
      </trkpt>
      <trkpt lat="45.74068" lon="3.18894">
        <ele>387.4</ele>
        <time>2024-05-19T09:05:55Z</time>
      </trkpt>
      <trkpt lat="45.74069" lon="3.18885">
        <ele>387.6</ele>
        <time>2024-05-19T09:05:56Z</time>
      </trkpt>
      <trkpt lat="45.7407" lon="3.18877">
        <ele>387.8</ele>
        <time>2024-05-19T09:05:57Z</time>
      </trkpt>
      <trkpt lat="45.74072" lon="3.18868">
        <ele>387.8</ele>
        <time>2024-05-19T09:05:58Z</time>
      </trkpt>
      <trkpt lat="45.74073" lon="3.18859">
        <ele>388</ele>
        <time>2024-05-19T09:05:59Z</time>
      </trkpt>
      <trkpt lat="45.74074" lon="3.1885">
        <ele>388.2</ele>
        <time>2024-05-19T09:06:00Z</time>
      </trkpt>
      <trkpt lat="45.74076" lon="3.18841">
        <ele>388.2</ele>
        <time>2024-05-19T09:06:01Z</time>
      </trkpt>
      <trkpt lat="45.74077" lon="3.18831">
        <ele>388.4</ele>
        <time>2024-05-19T09:06:02Z</time>
      </trkpt>
      <trkpt lat="45.74077" lon="3.18822">
        <ele>388.4</ele>
        <time>2024-05-19T09:06:03Z</time>
      </trkpt>
      <trkpt lat="45.74078" lon="3.18813">
        <ele>388.6</ele>
        <time>2024-05-19T09:06:04Z</time>
      </trkpt>
      <trkpt lat="45.74078" lon="3.18804">
        <ele>388.6</ele>
        <time>2024-05-19T09:06:05Z</time>
      </trkpt>
      <trkpt lat="45.74079" lon="3.18794">
        <ele>388.8</ele>
        <time>2024-05-19T09:06:06Z</time>
      </trkpt>
      <trkpt lat="45.7408" lon="3.18784">
        <ele>388.8</ele>
        <time>2024-05-19T09:06:07Z</time>
      </trkpt>
      <trkpt lat="45.7408" lon="3.18774">
        <ele>388.8</ele>
        <time>2024-05-19T09:06:08Z</time>
      </trkpt>
      <trkpt lat="45.74081" lon="3.18764">
        <ele>388.8</ele>
        <time>2024-05-19T09:06:09Z</time>
      </trkpt>
      <trkpt lat="45.74082" lon="3.18754">
        <ele>389</ele>
        <time>2024-05-19T09:06:10Z</time>
      </trkpt>
      <trkpt lat="45.74083" lon="3.18744">
        <ele>389</ele>
        <time>2024-05-19T09:06:11Z</time>
      </trkpt>
      <trkpt lat="45.74084" lon="3.18734">
        <ele>389</ele>
        <time>2024-05-19T09:06:12Z</time>
      </trkpt>
      <trkpt lat="45.74085" lon="3.18724">
        <ele>389</ele>
        <time>2024-05-19T09:06:13Z</time>
      </trkpt>
      <trkpt lat="45.74085" lon="3.18713">
        <ele>389.2</ele>
        <time>2024-05-19T09:06:14Z</time>
      </trkpt>
      <trkpt lat="45.74086" lon="3.18703">
        <ele>389.2</ele>
        <time>2024-05-19T09:06:15Z</time>
      </trkpt>
      <trkpt lat="45.74087" lon="3.18693">
        <ele>389.2</ele>
        <time>2024-05-19T09:06:16Z</time>
      </trkpt>
      <trkpt lat="45.74087" lon="3.18682">
        <ele>389.2</ele>
        <time>2024-05-19T09:06:17Z</time>
      </trkpt>
      <trkpt lat="45.74088" lon="3.18672">
        <ele>389.2</ele>
        <time>2024-05-19T09:06:18Z</time>
      </trkpt>
      <trkpt lat="45.74088" lon="3.18661">
        <ele>389.2</ele>
        <time>2024-05-19T09:06:19Z</time>
      </trkpt>
      <trkpt lat="45.74089" lon="3.18651">
        <ele>389.2</ele>
        <time>2024-05-19T09:06:20Z</time>
      </trkpt>
      <trkpt lat="45.74089" lon="3.18641">
        <ele>389.2</ele>
        <time>2024-05-19T09:06:21Z</time>
      </trkpt>
      <trkpt lat="45.7409" lon="3.1863">
        <ele>389.2</ele>
        <time>2024-05-19T09:06:22Z</time>
      </trkpt>
      <trkpt lat="45.7409" lon="3.1862">
        <ele>389.4</ele>
        <time>2024-05-19T09:06:23Z</time>
      </trkpt>
      <trkpt lat="45.74091" lon="3.18609">
        <ele>389.4</ele>
        <time>2024-05-19T09:06:24Z</time>
      </trkpt>
      <trkpt lat="45.74091" lon="3.18599">
        <ele>389.4</ele>
        <time>2024-05-19T09:06:25Z</time>
      </trkpt>
      <trkpt lat="45.74092" lon="3.18588">
        <ele>389.4</ele>
        <time>2024-05-19T09:06:26Z</time>
      </trkpt>
      <trkpt lat="45.74092" lon="3.18578">
        <ele>389.4</ele>
        <time>2024-05-19T09:06:27Z</time>
      </trkpt>
      <trkpt lat="45.74092" lon="3.18568">
        <ele>389.6</ele>
        <time>2024-05-19T09:06:28Z</time>
      </trkpt>
      <trkpt lat="45.74093" lon="3.18557">
        <ele>389.6</ele>
        <time>2024-05-19T09:06:29Z</time>
      </trkpt>
      <trkpt lat="45.74093" lon="3.18547">
        <ele>389.6</ele>
        <time>2024-05-19T09:06:30Z</time>
      </trkpt>
      <trkpt lat="45.74094" lon="3.18537">
        <ele>389.6</ele>
        <time>2024-05-19T09:06:31Z</time>
      </trkpt>
      <trkpt lat="45.74095" lon="3.18526">
        <ele>389.6</ele>
        <time>2024-05-19T09:06:32Z</time>
      </trkpt>
      <trkpt lat="45.74096" lon="3.18516">
        <ele>389.6</ele>
        <time>2024-05-19T09:06:33Z</time>
      </trkpt>
      <trkpt lat="45.74097" lon="3.18506">
        <ele>389.8</ele>
        <time>2024-05-19T09:06:34Z</time>
      </trkpt>
      <trkpt lat="45.74098" lon="3.18495">
        <ele>389.8</ele>
        <time>2024-05-19T09:06:35Z</time>
      </trkpt>
      <trkpt lat="45.74099" lon="3.18485">
        <ele>389.8</ele>
        <time>2024-05-19T09:06:36Z</time>
      </trkpt>
      <trkpt lat="45.74101" lon="3.18475">
        <ele>389.8</ele>
        <time>2024-05-19T09:06:37Z</time>
      </trkpt>
      <trkpt lat="45.74102" lon="3.18466">
        <ele>389.8</ele>
        <time>2024-05-19T09:06:38Z</time>
      </trkpt>
      <trkpt lat="45.74103" lon="3.18455">
        <ele>389.8</ele>
        <time>2024-05-19T09:06:39Z</time>
      </trkpt>
      <trkpt lat="45.74105" lon="3.18446">
        <ele>390</ele>
        <time>2024-05-19T09:06:40Z</time>
      </trkpt>
      <trkpt lat="45.74106" lon="3.18436">
        <ele>390</ele>
        <time>2024-05-19T09:06:41Z</time>
      </trkpt>
      <trkpt lat="45.74107" lon="3.18427">
        <ele>390</ele>
        <time>2024-05-19T09:06:42Z</time>
      </trkpt>
      <trkpt lat="45.74109" lon="3.18417">
        <ele>390.2</ele>
        <time>2024-05-19T09:06:43Z</time>
      </trkpt>
      <trkpt lat="45.74111" lon="3.18408">
        <ele>390.2</ele>
        <time>2024-05-19T09:06:44Z</time>
      </trkpt>
      <trkpt lat="45.74114" lon="3.18399">
        <ele>390.2</ele>
        <time>2024-05-19T09:06:45Z</time>
      </trkpt>
      <trkpt lat="45.74116" lon="3.1839">
        <ele>390.4</ele>
        <time>2024-05-19T09:06:46Z</time>
      </trkpt>
      <trkpt lat="45.74119" lon="3.18381">
        <ele>390.4</ele>
        <time>2024-05-19T09:06:47Z</time>
      </trkpt>
      <trkpt lat="45.74122" lon="3.18371">
        <ele>390.4</ele>
        <time>2024-05-19T09:06:48Z</time>
      </trkpt>
      <trkpt lat="45.74124" lon="3.18362">
        <ele>390.6</ele>
        <time>2024-05-19T09:06:49Z</time>
      </trkpt>
      <trkpt lat="45.74127" lon="3.18353">
        <ele>390.6</ele>
        <time>2024-05-19T09:06:50Z</time>
      </trkpt>
      <trkpt lat="45.74129" lon="3.18344">
        <ele>390.6</ele>
        <time>2024-05-19T09:06:51Z</time>
      </trkpt>
      <trkpt lat="45.74132" lon="3.18335">
        <ele>390.8</ele>
        <time>2024-05-19T09:06:52Z</time>
      </trkpt>
      <trkpt lat="45.74135" lon="3.18326">
        <ele>390.8</ele>
        <time>2024-05-19T09:06:53Z</time>
      </trkpt>
      <trkpt lat="45.74138" lon="3.18317">
        <ele>390.8</ele>
        <time>2024-05-19T09:06:54Z</time>
      </trkpt>
      <trkpt lat="45.74142" lon="3.18308">
        <ele>390.8</ele>
        <time>2024-05-19T09:06:55Z</time>
      </trkpt>
      <trkpt lat="45.74146" lon="3.183">
        <ele>390.8</ele>
        <time>2024-05-19T09:06:56Z</time>
      </trkpt>
      <trkpt lat="45.7415" lon="3.18291">
        <ele>390.8</ele>
        <time>2024-05-19T09:06:57Z</time>
      </trkpt>
      <trkpt lat="45.74153" lon="3.18282">
        <ele>391</ele>
        <time>2024-05-19T09:06:58Z</time>
      </trkpt>
      <trkpt lat="45.74157" lon="3.18273">
        <ele>391</ele>
        <time>2024-05-19T09:06:59Z</time>
      </trkpt>
      <trkpt lat="45.74161" lon="3.18264">
        <ele>391</ele>
        <time>2024-05-19T09:07:00Z</time>
      </trkpt>
      <trkpt lat="45.74165" lon="3.18255">
        <ele>391</ele>
        <time>2024-05-19T09:07:01Z</time>
      </trkpt>
      <trkpt lat="45.74169" lon="3.18245">
        <ele>390.8</ele>
        <time>2024-05-19T09:07:02Z</time>
      </trkpt>
      <trkpt lat="45.74173" lon="3.18236">
        <ele>390.8</ele>
        <time>2024-05-19T09:07:03Z</time>
      </trkpt>
      <trkpt lat="45.74177" lon="3.18227">
        <ele>390.8</ele>
        <time>2024-05-19T09:07:04Z</time>
      </trkpt>
      <trkpt lat="45.74181" lon="3.18217">
        <ele>390.8</ele>
        <time>2024-05-19T09:07:05Z</time>
      </trkpt>
      <trkpt lat="45.74185" lon="3.18208">
        <ele>390.8</ele>
        <time>2024-05-19T09:07:06Z</time>
      </trkpt>
      <trkpt lat="45.74189" lon="3.18198">
        <ele>390.8</ele>
        <time>2024-05-19T09:07:07Z</time>
      </trkpt>
      <trkpt lat="45.74194" lon="3.18189">
        <ele>390.8</ele>
        <time>2024-05-19T09:07:08Z</time>
      </trkpt>
      <trkpt lat="45.74198" lon="3.18179">
        <ele>390.8</ele>
        <time>2024-05-19T09:07:09Z</time>
      </trkpt>
      <trkpt lat="45.74202" lon="3.18169">
        <ele>390.8</ele>
        <time>2024-05-19T09:07:10Z</time>
      </trkpt>
      <trkpt lat="45.74206" lon="3.1816">
        <ele>390.8</ele>
        <time>2024-05-19T09:07:11Z</time>
      </trkpt>
      <trkpt lat="45.7421" lon="3.1815">
        <ele>390.8</ele>
        <time>2024-05-19T09:07:12Z</time>
      </trkpt>
      <trkpt lat="45.74215" lon="3.1814">
        <ele>390.8</ele>
        <time>2024-05-19T09:07:13Z</time>
      </trkpt>
      <trkpt lat="45.74219" lon="3.1813">
        <ele>390.8</ele>
        <time>2024-05-19T09:07:14Z</time>
      </trkpt>
      <trkpt lat="45.74223" lon="3.1812">
        <ele>391</ele>
        <time>2024-05-19T09:07:15Z</time>
      </trkpt>
      <trkpt lat="45.74227" lon="3.1811">
        <ele>390.8</ele>
        <time>2024-05-19T09:07:16Z</time>
      </trkpt>
      <trkpt lat="45.74232" lon="3.181">
        <ele>390.4</ele>
        <time>2024-05-19T09:07:17Z</time>
      </trkpt>
      <trkpt lat="45.74236" lon="3.1809">
        <ele>390.6</ele>
        <time>2024-05-19T09:07:18Z</time>
      </trkpt>
      <trkpt lat="45.7424" lon="3.1808">
        <ele>390.6</ele>
        <time>2024-05-19T09:07:19Z</time>
      </trkpt>
      <trkpt lat="45.74245" lon="3.1807">
        <ele>390.6</ele>
        <time>2024-05-19T09:07:20Z</time>
      </trkpt>
      <trkpt lat="45.74249" lon="3.18059">
        <ele>390.4</ele>
        <time>2024-05-19T09:07:21Z</time>
      </trkpt>
      <trkpt lat="45.74253" lon="3.18049">
        <ele>390.4</ele>
        <time>2024-05-19T09:07:22Z</time>
      </trkpt>
      <trkpt lat="45.74257" lon="3.18039">
        <ele>390.4</ele>
        <time>2024-05-19T09:07:23Z</time>
      </trkpt>
      <trkpt lat="45.74261" lon="3.18029">
        <ele>390.4</ele>
        <time>2024-05-19T09:07:24Z</time>
      </trkpt>
      <trkpt lat="45.74265" lon="3.18019">
        <ele>390.2</ele>
        <time>2024-05-19T09:07:25Z</time>
      </trkpt>
      <trkpt lat="45.7427" lon="3.18009">
        <ele>390.2</ele>
        <time>2024-05-19T09:07:26Z</time>
      </trkpt>
      <trkpt lat="45.74274" lon="3.18">
        <ele>390.2</ele>
        <time>2024-05-19T09:07:27Z</time>
      </trkpt>
      <trkpt lat="45.74279" lon="3.1799">
        <ele>390</ele>
        <time>2024-05-19T09:07:28Z</time>
      </trkpt>
      <trkpt lat="45.74283" lon="3.17981">
        <ele>390</ele>
        <time>2024-05-19T09:07:29Z</time>
      </trkpt>
      <trkpt lat="45.74287" lon="3.17971">
        <ele>390</ele>
        <time>2024-05-19T09:07:30Z</time>
      </trkpt>
      <trkpt lat="45.74292" lon="3.17961">
        <ele>390</ele>
        <time>2024-05-19T09:07:31Z</time>
      </trkpt>
      <trkpt lat="45.74296" lon="3.17952">
        <ele>389.8</ele>
        <time>2024-05-19T09:07:32Z</time>
      </trkpt>
      <trkpt lat="45.743" lon="3.17942">
        <ele>389.8</ele>
        <time>2024-05-19T09:07:33Z</time>
      </trkpt>
      <trkpt lat="45.74305" lon="3.17933">
        <ele>389.6</ele>
        <time>2024-05-19T09:07:34Z</time>
      </trkpt>
      <trkpt lat="45.74309" lon="3.17924">
        <ele>389.6</ele>
        <time>2024-05-19T09:07:35Z</time>
      </trkpt>
      <trkpt lat="45.74313" lon="3.17914">
        <ele>389.6</ele>
        <time>2024-05-19T09:07:36Z</time>
      </trkpt>
      <trkpt lat="45.74318" lon="3.17905">
        <ele>389.4</ele>
        <time>2024-05-19T09:07:37Z</time>
      </trkpt>
      <trkpt lat="45.74322" lon="3.17895">
        <ele>389.4</ele>
        <time>2024-05-19T09:07:38Z</time>
      </trkpt>
      <trkpt lat="45.74327" lon="3.17886">
        <ele>389.4</ele>
        <time>2024-05-19T09:07:39Z</time>
      </trkpt>
      <trkpt lat="45.74332" lon="3.17877">
        <ele>389.2</ele>
        <time>2024-05-19T09:07:40Z</time>
      </trkpt>
      <trkpt lat="45.74337" lon="3.17868">
        <ele>389.2</ele>
        <time>2024-05-19T09:07:41Z</time>
      </trkpt>
      <trkpt lat="45.74342" lon="3.1786">
        <ele>389.2</ele>
        <time>2024-05-19T09:07:42Z</time>
      </trkpt>
      <trkpt lat="45.74347" lon="3.17851">
        <ele>389.2</ele>
        <time>2024-05-19T09:07:43Z</time>
      </trkpt>
      <trkpt lat="45.74353" lon="3.17842">
        <ele>389</ele>
        <time>2024-05-19T09:07:44Z</time>
      </trkpt>
      <trkpt lat="45.74358" lon="3.17833">
        <ele>389</ele>
        <time>2024-05-19T09:07:45Z</time>
      </trkpt>
      <trkpt lat="45.74363" lon="3.17824">
        <ele>389</ele>
        <time>2024-05-19T09:07:46Z</time>
      </trkpt>
      <trkpt lat="45.74369" lon="3.17817">
        <ele>389</ele>
        <time>2024-05-19T09:07:47Z</time>
      </trkpt>
      <trkpt lat="45.74376" lon="3.17811">
        <ele>388.8</ele>
        <time>2024-05-19T09:07:48Z</time>
      </trkpt>
      <trkpt lat="45.74382" lon="3.17804">
        <ele>388.8</ele>
        <time>2024-05-19T09:07:49Z</time>
      </trkpt>
      <trkpt lat="45.74388" lon="3.17798">
        <ele>388.8</ele>
        <time>2024-05-19T09:07:50Z</time>
      </trkpt>
      <trkpt lat="45.74395" lon="3.17792">
        <ele>388.6</ele>
        <time>2024-05-19T09:07:51Z</time>
      </trkpt>
      <trkpt lat="45.74401" lon="3.17785">
        <ele>388.6</ele>
        <time>2024-05-19T09:07:52Z</time>
      </trkpt>
      <trkpt lat="45.74407" lon="3.17779">
        <ele>388.6</ele>
        <time>2024-05-19T09:07:53Z</time>
      </trkpt>
      <trkpt lat="45.74413" lon="3.17773">
        <ele>388.6</ele>
        <time>2024-05-19T09:07:54Z</time>
      </trkpt>
      <trkpt lat="45.74423" lon="3.17773">
        <ele>388.6</ele>
        <time>2024-05-19T09:07:55Z</time>
      </trkpt>
      <trkpt lat="45.74431" lon="3.17764">
        <ele>388.6</ele>
        <time>2024-05-19T09:07:56Z</time>
      </trkpt>
      <trkpt lat="45.74432" lon="3.17754">
        <ele>388.6</ele>
        <time>2024-05-19T09:07:57Z</time>
      </trkpt>
      <trkpt lat="45.74436" lon="3.17746">
        <ele>388.6</ele>
        <time>2024-05-19T09:07:58Z</time>
      </trkpt>
      <trkpt lat="45.74441" lon="3.17736">
        <ele>388.6</ele>
        <time>2024-05-19T09:07:59Z</time>
      </trkpt>
      <trkpt lat="45.74446" lon="3.17726">
        <ele>388.6</ele>
        <time>2024-05-19T09:08:00Z</time>
      </trkpt>
      <trkpt lat="45.7445" lon="3.17716">
        <ele>388.4</ele>
        <time>2024-05-19T09:08:01Z</time>
      </trkpt>
      <trkpt lat="45.74455" lon="3.17706">
        <ele>388.4</ele>
        <time>2024-05-19T09:08:02Z</time>
      </trkpt>
      <trkpt lat="45.7446" lon="3.17696">
        <ele>388.4</ele>
        <time>2024-05-19T09:08:03Z</time>
      </trkpt>
      <trkpt lat="45.74465" lon="3.17687">
        <ele>388.2</ele>
        <time>2024-05-19T09:08:04Z</time>
      </trkpt>
      <trkpt lat="45.7447" lon="3.17677">
        <ele>388.2</ele>
        <time>2024-05-19T09:08:05Z</time>
      </trkpt>
      <trkpt lat="45.74476" lon="3.17668">
        <ele>388.2</ele>
        <time>2024-05-19T09:08:06Z</time>
      </trkpt>
      <trkpt lat="45.74481" lon="3.17658">
        <ele>388.2</ele>
        <time>2024-05-19T09:08:07Z</time>
      </trkpt>
      <trkpt lat="45.74487" lon="3.17649">
        <ele>388.2</ele>
        <time>2024-05-19T09:08:08Z</time>
      </trkpt>
      <trkpt lat="45.74493" lon="3.1764">
        <ele>388</ele>
        <time>2024-05-19T09:08:09Z</time>
      </trkpt>
      <trkpt lat="45.74499" lon="3.17631">
        <ele>387.8</ele>
        <time>2024-05-19T09:08:10Z</time>
      </trkpt>
      <trkpt lat="45.74505" lon="3.17622">
        <ele>387.8</ele>
        <time>2024-05-19T09:08:11Z</time>
      </trkpt>
      <trkpt lat="45.74511" lon="3.17612">
        <ele>387.8</ele>
        <time>2024-05-19T09:08:12Z</time>
      </trkpt>
      <trkpt lat="45.74517" lon="3.17603">
        <ele>387.6</ele>
        <time>2024-05-19T09:08:13Z</time>
      </trkpt>
      <trkpt lat="45.74522" lon="3.17593">
        <ele>387.6</ele>
        <time>2024-05-19T09:08:14Z</time>
      </trkpt>
      <trkpt lat="45.74528" lon="3.17583">
        <ele>387.6</ele>
        <time>2024-05-19T09:08:15Z</time>
      </trkpt>
      <trkpt lat="45.74534" lon="3.17573">
        <ele>387.4</ele>
        <time>2024-05-19T09:08:16Z</time>
      </trkpt>
      <trkpt lat="45.74539" lon="3.17563">
        <ele>387.4</ele>
        <time>2024-05-19T09:08:17Z</time>
      </trkpt>
      <trkpt lat="45.74545" lon="3.17553">
        <ele>387.4</ele>
        <time>2024-05-19T09:08:18Z</time>
      </trkpt>
      <trkpt lat="45.74551" lon="3.17543">
        <ele>387.2</ele>
        <time>2024-05-19T09:08:19Z</time>
      </trkpt>
      <trkpt lat="45.74557" lon="3.17533">
        <ele>387.2</ele>
        <time>2024-05-19T09:08:20Z</time>
      </trkpt>
      <trkpt lat="45.74563" lon="3.17523">
        <ele>387</ele>
        <time>2024-05-19T09:08:21Z</time>
      </trkpt>
      <trkpt lat="45.74568" lon="3.17513">
        <ele>387</ele>
        <time>2024-05-19T09:08:22Z</time>
      </trkpt>
      <trkpt lat="45.74574" lon="3.17504">
        <ele>386.8</ele>
        <time>2024-05-19T09:08:23Z</time>
      </trkpt>
      <trkpt lat="45.7458" lon="3.17494">
        <ele>386.8</ele>
        <time>2024-05-19T09:08:24Z</time>
      </trkpt>
      <trkpt lat="45.74586" lon="3.17484">
        <ele>386.6</ele>
        <time>2024-05-19T09:08:25Z</time>
      </trkpt>
      <trkpt lat="45.74592" lon="3.17474">
        <ele>386.6</ele>
        <time>2024-05-19T09:08:26Z</time>
      </trkpt>
      <trkpt lat="45.74598" lon="3.17464">
        <ele>386.4</ele>
        <time>2024-05-19T09:08:27Z</time>
      </trkpt>
      <trkpt lat="45.74604" lon="3.17454">
        <ele>386.4</ele>
        <time>2024-05-19T09:08:28Z</time>
      </trkpt>
      <trkpt lat="45.74609" lon="3.17444">
        <ele>386.4</ele>
        <time>2024-05-19T09:08:29Z</time>
      </trkpt>
      <trkpt lat="45.74615" lon="3.17433">
        <ele>386.2</ele>
        <time>2024-05-19T09:08:30Z</time>
      </trkpt>
      <trkpt lat="45.7462" lon="3.17422">
        <ele>386.2</ele>
        <time>2024-05-19T09:08:31Z</time>
      </trkpt>
      <trkpt lat="45.74625" lon="3.17411">
        <ele>386</ele>
        <time>2024-05-19T09:08:32Z</time>
      </trkpt>
      <trkpt lat="45.74629" lon="3.174">
        <ele>386</ele>
        <time>2024-05-19T09:08:33Z</time>
      </trkpt>
      <trkpt lat="45.74634" lon="3.17389">
        <ele>385.8</ele>
        <time>2024-05-19T09:08:34Z</time>
      </trkpt>
      <trkpt lat="45.74639" lon="3.17378">
        <ele>385.6</ele>
        <time>2024-05-19T09:08:35Z</time>
      </trkpt>
      <trkpt lat="45.74644" lon="3.17367">
        <ele>385.6</ele>
        <time>2024-05-19T09:08:36Z</time>
      </trkpt>
      <trkpt lat="45.74649" lon="3.17356">
        <ele>385.6</ele>
        <time>2024-05-19T09:08:37Z</time>
      </trkpt>
      <trkpt lat="45.74653" lon="3.17346">
        <ele>385.4</ele>
        <time>2024-05-19T09:08:38Z</time>
      </trkpt>
      <trkpt lat="45.74658" lon="3.17335">
        <ele>385.4</ele>
        <time>2024-05-19T09:08:39Z</time>
      </trkpt>
      <trkpt lat="45.74663" lon="3.17324">
        <ele>385.4</ele>
        <time>2024-05-19T09:08:40Z</time>
      </trkpt>
      <trkpt lat="45.74667" lon="3.17313">
        <ele>385.4</ele>
        <time>2024-05-19T09:08:41Z</time>
      </trkpt>
      <trkpt lat="45.74672" lon="3.17302">
        <ele>385.2</ele>
        <time>2024-05-19T09:08:42Z</time>
      </trkpt>
      <trkpt lat="45.74677" lon="3.17292">
        <ele>385.2</ele>
        <time>2024-05-19T09:08:43Z</time>
      </trkpt>
      <trkpt lat="45.74682" lon="3.17281">
        <ele>385.2</ele>
        <time>2024-05-19T09:08:44Z</time>
      </trkpt>
      <trkpt lat="45.74687" lon="3.17271">
        <ele>385</ele>
        <time>2024-05-19T09:08:45Z</time>
      </trkpt>
      <trkpt lat="45.74691" lon="3.1726">
        <ele>385</ele>
        <time>2024-05-19T09:08:46Z</time>
      </trkpt>
      <trkpt lat="45.74696" lon="3.1725">
        <ele>385</ele>
        <time>2024-05-19T09:08:47Z</time>
      </trkpt>
      <trkpt lat="45.74701" lon="3.17239">
        <ele>385</ele>
        <time>2024-05-19T09:08:48Z</time>
      </trkpt>
      <trkpt lat="45.74706" lon="3.17229">
        <ele>384.8</ele>
        <time>2024-05-19T09:08:49Z</time>
      </trkpt>
      <trkpt lat="45.7471" lon="3.17219">
        <ele>384.8</ele>
        <time>2024-05-19T09:08:50Z</time>
      </trkpt>
      <trkpt lat="45.74715" lon="3.17209">
        <ele>384.8</ele>
        <time>2024-05-19T09:08:51Z</time>
      </trkpt>
      <trkpt lat="45.74719" lon="3.17199">
        <ele>384.8</ele>
        <time>2024-05-19T09:08:52Z</time>
      </trkpt>
      <trkpt lat="45.74724" lon="3.17188">
        <ele>384.8</ele>
        <time>2024-05-19T09:08:53Z</time>
      </trkpt>
      <trkpt lat="45.74729" lon="3.17178">
        <ele>384.6</ele>
        <time>2024-05-19T09:08:54Z</time>
      </trkpt>
      <trkpt lat="45.74732" lon="3.17168">
        <ele>384.6</ele>
        <time>2024-05-19T09:08:55Z</time>
      </trkpt>
      <trkpt lat="45.74736" lon="3.17157">
        <ele>384.6</ele>
        <time>2024-05-19T09:08:56Z</time>
      </trkpt>
      <trkpt lat="45.7474" lon="3.17146">
        <ele>384.6</ele>
        <time>2024-05-19T09:08:57Z</time>
      </trkpt>
      <trkpt lat="45.74743" lon="3.17135">
        <ele>384.6</ele>
        <time>2024-05-19T09:08:58Z</time>
      </trkpt>
      <trkpt lat="45.74751" lon="3.17113">
        <ele>384.4</ele>
        <time>2024-05-19T09:08:59Z</time>
      </trkpt>
      <trkpt lat="45.74754" lon="3.17103">
        <ele>384.4</ele>
        <time>2024-05-19T09:09:00Z</time>
      </trkpt>
      <trkpt lat="45.74754" lon="3.17103">
        <ele>384.4</ele>
        <time>2024-05-19T09:09:01Z</time>
      </trkpt>
      <trkpt lat="45.74762" lon="3.17081">
        <ele>384.4</ele>
        <time>2024-05-19T09:09:02Z</time>
      </trkpt>
      <trkpt lat="45.74762" lon="3.17081">
        <ele>384.2</ele>
        <time>2024-05-19T09:09:03Z</time>
      </trkpt>
      <trkpt lat="45.74765" lon="3.1707">
        <ele>384.2</ele>
        <time>2024-05-19T09:09:04Z</time>
      </trkpt>
      <trkpt lat="45.74774" lon="3.17049">
        <ele>384.2</ele>
        <time>2024-05-19T09:09:05Z</time>
      </trkpt>
      <trkpt lat="45.74774" lon="3.17049">
        <ele>384</ele>
        <time>2024-05-19T09:09:06Z</time>
      </trkpt>
      <trkpt lat="45.74778" lon="3.1704">
        <ele>384</ele>
        <time>2024-05-19T09:09:07Z</time>
      </trkpt>
      <trkpt lat="45.74783" lon="3.1703">
        <ele>383.8</ele>
        <time>2024-05-19T09:09:08Z</time>
      </trkpt>
      <trkpt lat="45.74788" lon="3.1702">
        <ele>383.8</ele>
        <time>2024-05-19T09:09:09Z</time>
      </trkpt>
      <trkpt lat="45.74793" lon="3.1701">
        <ele>383.8</ele>
        <time>2024-05-19T09:09:10Z</time>
      </trkpt>
      <trkpt lat="45.74798" lon="3.17">
        <ele>383.6</ele>
        <time>2024-05-19T09:09:11Z</time>
      </trkpt>
      <trkpt lat="45.74803" lon="3.16991">
        <ele>383.6</ele>
        <time>2024-05-19T09:09:12Z</time>
      </trkpt>
      <trkpt lat="45.7481" lon="3.16986">
        <ele>383.4</ele>
        <time>2024-05-19T09:09:13Z</time>
      </trkpt>
      <trkpt lat="45.74817" lon="3.16981">
        <ele>383.4</ele>
        <time>2024-05-19T09:09:14Z</time>
      </trkpt>
      <trkpt lat="45.74824" lon="3.16969">
        <ele>383.4</ele>
        <time>2024-05-19T09:09:15Z</time>
      </trkpt>
      <trkpt lat="45.74826" lon="3.16957">
        <ele>383.4</ele>
        <time>2024-05-19T09:09:16Z</time>
      </trkpt>
      <trkpt lat="45.74825" lon="3.16944">
        <ele>383.2</ele>
        <time>2024-05-19T09:09:17Z</time>
      </trkpt>
      <trkpt lat="45.74822" lon="3.16932">
        <ele>383</ele>
        <time>2024-05-19T09:09:18Z</time>
      </trkpt>
      <trkpt lat="45.74821" lon="3.1692">
        <ele>382.8</ele>
        <time>2024-05-19T09:09:19Z</time>
      </trkpt>
      <trkpt lat="45.74822" lon="3.16907">
        <ele>382.8</ele>
        <time>2024-05-19T09:09:20Z</time>
      </trkpt>
      <trkpt lat="45.74823" lon="3.16895">
        <ele>382.8</ele>
        <time>2024-05-19T09:09:21Z</time>
      </trkpt>
      <trkpt lat="45.74825" lon="3.16883">
        <ele>382.6</ele>
        <time>2024-05-19T09:09:22Z</time>
      </trkpt>
      <trkpt lat="45.74828" lon="3.1687">
        <ele>382.4</ele>
        <time>2024-05-19T09:09:23Z</time>
      </trkpt>
      <trkpt lat="45.74831" lon="3.16858">
        <ele>382.4</ele>
        <time>2024-05-19T09:09:24Z</time>
      </trkpt>
      <trkpt lat="45.74834" lon="3.16845">
        <ele>382.2</ele>
        <time>2024-05-19T09:09:25Z</time>
      </trkpt>
      <trkpt lat="45.74837" lon="3.16833">
        <ele>382.2</ele>
        <time>2024-05-19T09:09:26Z</time>
      </trkpt>
      <trkpt lat="45.7484" lon="3.1682">
        <ele>382.2</ele>
        <time>2024-05-19T09:09:27Z</time>
      </trkpt>
      <trkpt lat="45.74844" lon="3.16809">
        <ele>382</ele>
        <time>2024-05-19T09:09:28Z</time>
      </trkpt>
      <trkpt lat="45.74848" lon="3.16798">
        <ele>382</ele>
        <time>2024-05-19T09:09:29Z</time>
      </trkpt>
      <trkpt lat="45.74853" lon="3.16786">
        <ele>382</ele>
        <time>2024-05-19T09:09:30Z</time>
      </trkpt>
      <trkpt lat="45.74857" lon="3.16775">
        <ele>381.8</ele>
        <time>2024-05-19T09:09:31Z</time>
      </trkpt>
      <trkpt lat="45.74861" lon="3.16764">
        <ele>381.8</ele>
        <time>2024-05-19T09:09:32Z</time>
      </trkpt>
      <trkpt lat="45.74865" lon="3.16753">
        <ele>381.8</ele>
        <time>2024-05-19T09:09:33Z</time>
      </trkpt>
      <trkpt lat="45.74869" lon="3.16742">
        <ele>381.6</ele>
        <time>2024-05-19T09:09:34Z</time>
      </trkpt>
      <trkpt lat="45.74873" lon="3.1673">
        <ele>381.6</ele>
        <time>2024-05-19T09:09:35Z</time>
      </trkpt>
      <trkpt lat="45.74877" lon="3.16719">
        <ele>381.4</ele>
        <time>2024-05-19T09:09:36Z</time>
      </trkpt>
      <trkpt lat="45.74881" lon="3.16707">
        <ele>381.2</ele>
        <time>2024-05-19T09:09:37Z</time>
      </trkpt>
      <trkpt lat="45.74886" lon="3.16696">
        <ele>381.2</ele>
        <time>2024-05-19T09:09:38Z</time>
      </trkpt>
      <trkpt lat="45.7489" lon="3.16684">
        <ele>381</ele>
        <time>2024-05-19T09:09:39Z</time>
      </trkpt>
      <trkpt lat="45.74894" lon="3.16673">
        <ele>381</ele>
        <time>2024-05-19T09:09:40Z</time>
      </trkpt>
      <trkpt lat="45.74899" lon="3.16661">
        <ele>380.8</ele>
        <time>2024-05-19T09:09:41Z</time>
      </trkpt>
      <trkpt lat="45.74903" lon="3.16649">
        <ele>380.8</ele>
        <time>2024-05-19T09:09:42Z</time>
      </trkpt>
      <trkpt lat="45.74908" lon="3.16638">
        <ele>380.6</ele>
        <time>2024-05-19T09:09:43Z</time>
      </trkpt>
      <trkpt lat="45.74912" lon="3.16626">
        <ele>380.6</ele>
        <time>2024-05-19T09:09:44Z</time>
      </trkpt>
      <trkpt lat="45.74917" lon="3.16614">
        <ele>380.4</ele>
        <time>2024-05-19T09:09:45Z</time>
      </trkpt>
      <trkpt lat="45.74921" lon="3.16602">
        <ele>380.2</ele>
        <time>2024-05-19T09:09:46Z</time>
      </trkpt>
      <trkpt lat="45.74925" lon="3.16591">
        <ele>380.2</ele>
        <time>2024-05-19T09:09:47Z</time>
      </trkpt>
      <trkpt lat="45.7493" lon="3.16579">
        <ele>380</ele>
        <time>2024-05-19T09:09:48Z</time>
      </trkpt>
      <trkpt lat="45.74934" lon="3.16567">
        <ele>379.8</ele>
        <time>2024-05-19T09:09:49Z</time>
      </trkpt>
      <trkpt lat="45.74939" lon="3.16555">
        <ele>379.6</ele>
        <time>2024-05-19T09:09:50Z</time>
      </trkpt>
      <trkpt lat="45.74943" lon="3.16543">
        <ele>379.6</ele>
        <time>2024-05-19T09:09:51Z</time>
      </trkpt>
      <trkpt lat="45.74948" lon="3.16531">
        <ele>379.4</ele>
        <time>2024-05-19T09:09:52Z</time>
      </trkpt>
      <trkpt lat="45.74953" lon="3.16519">
        <ele>379.2</ele>
        <time>2024-05-19T09:09:53Z</time>
      </trkpt>
      <trkpt lat="45.74957" lon="3.16507">
        <ele>379</ele>
        <time>2024-05-19T09:09:54Z</time>
      </trkpt>
      <trkpt lat="45.74962" lon="3.16494">
        <ele>378.8</ele>
        <time>2024-05-19T09:09:55Z</time>
      </trkpt>
      <trkpt lat="45.74968" lon="3.16483">
        <ele>378.6</ele>
        <time>2024-05-19T09:09:56Z</time>
      </trkpt>
      <trkpt lat="45.74973" lon="3.16471">
        <ele>378.6</ele>
        <time>2024-05-19T09:09:57Z</time>
      </trkpt>
      <trkpt lat="45.74979" lon="3.16459">
        <ele>378.4</ele>
        <time>2024-05-19T09:09:58Z</time>
      </trkpt>
      <trkpt lat="45.74985" lon="3.16447">
        <ele>378.2</ele>
        <time>2024-05-19T09:09:59Z</time>
      </trkpt>
      <trkpt lat="45.7499" lon="3.16435">
        <ele>378</ele>
        <time>2024-05-19T09:10:00Z</time>
      </trkpt>
      <trkpt lat="45.74996" lon="3.16423">
        <ele>377.8</ele>
        <time>2024-05-19T09:10:01Z</time>
      </trkpt>
      <trkpt lat="45.75002" lon="3.16411">
        <ele>377.6</ele>
        <time>2024-05-19T09:10:02Z</time>
      </trkpt>
      <trkpt lat="45.75008" lon="3.16399">
        <ele>377.4</ele>
        <time>2024-05-19T09:10:03Z</time>
      </trkpt>
      <trkpt lat="45.75013" lon="3.16387">
        <ele>377.2</ele>
        <time>2024-05-19T09:10:04Z</time>
      </trkpt>
      <trkpt lat="45.75019" lon="3.16375">
        <ele>377</ele>
        <time>2024-05-19T09:10:05Z</time>
      </trkpt>
      <trkpt lat="45.75024" lon="3.16364">
        <ele>376.8</ele>
        <time>2024-05-19T09:10:06Z</time>
      </trkpt>
      <trkpt lat="45.7503" lon="3.16352">
        <ele>376.6</ele>
        <time>2024-05-19T09:10:07Z</time>
      </trkpt>
      <trkpt lat="45.75036" lon="3.1634">
        <ele>376.4</ele>
        <time>2024-05-19T09:10:08Z</time>
      </trkpt>
      <trkpt lat="45.75041" lon="3.16328">
        <ele>376.2</ele>
        <time>2024-05-19T09:10:09Z</time>
      </trkpt>
      <trkpt lat="45.75047" lon="3.16316">
        <ele>376</ele>
        <time>2024-05-19T09:10:10Z</time>
      </trkpt>
      <trkpt lat="45.75052" lon="3.16305">
        <ele>375.8</ele>
        <time>2024-05-19T09:10:11Z</time>
      </trkpt>
      <trkpt lat="45.75058" lon="3.16293">
        <ele>375.6</ele>
        <time>2024-05-19T09:10:12Z</time>
      </trkpt>
      <trkpt lat="45.75064" lon="3.16281">
        <ele>375.4</ele>
        <time>2024-05-19T09:10:13Z</time>
      </trkpt>
      <trkpt lat="45.75069" lon="3.16269">
        <ele>375.2</ele>
        <time>2024-05-19T09:10:14Z</time>
      </trkpt>
      <trkpt lat="45.75075" lon="3.16258">
        <ele>375</ele>
        <time>2024-05-19T09:10:15Z</time>
      </trkpt>
      <trkpt lat="45.75081" lon="3.16246">
        <ele>374.8</ele>
        <time>2024-05-19T09:10:16Z</time>
      </trkpt>
      <trkpt lat="45.75087" lon="3.16235">
        <ele>374.6</ele>
        <time>2024-05-19T09:10:17Z</time>
      </trkpt>
      <trkpt lat="45.75093" lon="3.16223">
        <ele>374.4</ele>
        <time>2024-05-19T09:10:18Z</time>
      </trkpt>
      <trkpt lat="45.75099" lon="3.16212">
        <ele>374.2</ele>
        <time>2024-05-19T09:10:19Z</time>
      </trkpt>
      <trkpt lat="45.75105" lon="3.16201">
        <ele>374</ele>
        <time>2024-05-19T09:10:20Z</time>
      </trkpt>
      <trkpt lat="45.75112" lon="3.16189">
        <ele>373.8</ele>
        <time>2024-05-19T09:10:21Z</time>
      </trkpt>
      <trkpt lat="45.75118" lon="3.16178">
        <ele>373.6</ele>
        <time>2024-05-19T09:10:22Z</time>
      </trkpt>
      <trkpt lat="45.75124" lon="3.16167">
        <ele>373.4</ele>
        <time>2024-05-19T09:10:23Z</time>
      </trkpt>
      <trkpt lat="45.7513" lon="3.16156">
        <ele>373.2</ele>
        <time>2024-05-19T09:10:24Z</time>
      </trkpt>
      <trkpt lat="45.75136" lon="3.16145">
        <ele>373.2</ele>
        <time>2024-05-19T09:10:25Z</time>
      </trkpt>
      <trkpt lat="45.75142" lon="3.16134">
        <ele>373</ele>
        <time>2024-05-19T09:10:26Z</time>
      </trkpt>
      <trkpt lat="45.75149" lon="3.16123">
        <ele>372.8</ele>
        <time>2024-05-19T09:10:27Z</time>
      </trkpt>
      <trkpt lat="45.75155" lon="3.16111">
        <ele>372.4</ele>
        <time>2024-05-19T09:10:28Z</time>
      </trkpt>
      <trkpt lat="45.75161" lon="3.161">
        <ele>372.2</ele>
        <time>2024-05-19T09:10:29Z</time>
      </trkpt>
      <trkpt lat="45.75167" lon="3.16089">
        <ele>372</ele>
        <time>2024-05-19T09:10:30Z</time>
      </trkpt>
      <trkpt lat="45.75173" lon="3.16078">
        <ele>371.8</ele>
        <time>2024-05-19T09:10:31Z</time>
      </trkpt>
      <trkpt lat="45.7518" lon="3.16067">
        <ele>371.6</ele>
        <time>2024-05-19T09:10:32Z</time>
      </trkpt>
      <trkpt lat="45.75186" lon="3.16056">
        <ele>371.4</ele>
        <time>2024-05-19T09:10:33Z</time>
      </trkpt>
      <trkpt lat="45.75192" lon="3.16044">
        <ele>371.2</ele>
        <time>2024-05-19T09:10:34Z</time>
      </trkpt>
      <trkpt lat="45.75198" lon="3.16033">
        <ele>371</ele>
        <time>2024-05-19T09:10:35Z</time>
      </trkpt>
      <trkpt lat="45.75205" lon="3.16022">
        <ele>370.8</ele>
        <time>2024-05-19T09:10:36Z</time>
      </trkpt>
      <trkpt lat="45.75211" lon="3.1601">
        <ele>370.6</ele>
        <time>2024-05-19T09:10:37Z</time>
      </trkpt>
      <trkpt lat="45.75217" lon="3.15999">
        <ele>370.4</ele>
        <time>2024-05-19T09:10:38Z</time>
      </trkpt>
      <trkpt lat="45.75224" lon="3.15988">
        <ele>370.2</ele>
        <time>2024-05-19T09:10:39Z</time>
      </trkpt>
      <trkpt lat="45.7523" lon="3.15976">
        <ele>370.2</ele>
        <time>2024-05-19T09:10:40Z</time>
      </trkpt>
      <trkpt lat="45.75236" lon="3.15965">
        <ele>369.8</ele>
        <time>2024-05-19T09:10:41Z</time>
      </trkpt>
      <trkpt lat="45.75243" lon="3.15953">
        <ele>369.8</ele>
        <time>2024-05-19T09:10:42Z</time>
      </trkpt>
      <trkpt lat="45.7525" lon="3.15942">
        <ele>369.6</ele>
        <time>2024-05-19T09:10:43Z</time>
      </trkpt>
      <trkpt lat="45.75256" lon="3.1593">
        <ele>369.2</ele>
        <time>2024-05-19T09:10:44Z</time>
      </trkpt>
      <trkpt lat="45.75263" lon="3.15919">
        <ele>369</ele>
        <time>2024-05-19T09:10:45Z</time>
      </trkpt>
      <trkpt lat="45.75269" lon="3.15907">
        <ele>369</ele>
        <time>2024-05-19T09:10:46Z</time>
      </trkpt>
      <trkpt lat="45.75276" lon="3.15896">
        <ele>368.6</ele>
        <time>2024-05-19T09:10:47Z</time>
      </trkpt>
      <trkpt lat="45.75282" lon="3.15885">
        <ele>368.6</ele>
        <time>2024-05-19T09:10:48Z</time>
      </trkpt>
      <trkpt lat="45.75289" lon="3.15873">
        <ele>368.4</ele>
        <time>2024-05-19T09:10:49Z</time>
      </trkpt>
      <trkpt lat="45.75295" lon="3.15862">
        <ele>368.2</ele>
        <time>2024-05-19T09:10:50Z</time>
      </trkpt>
      <trkpt lat="45.75302" lon="3.15852">
        <ele>368</ele>
        <time>2024-05-19T09:10:51Z</time>
      </trkpt>
      <trkpt lat="45.75309" lon="3.15842">
        <ele>367.8</ele>
        <time>2024-05-19T09:10:52Z</time>
      </trkpt>
      <trkpt lat="45.75316" lon="3.15833">
        <ele>367.8</ele>
        <time>2024-05-19T09:10:53Z</time>
      </trkpt>
      <trkpt lat="45.75323" lon="3.15824">
        <ele>367.6</ele>
        <time>2024-05-19T09:10:54Z</time>
      </trkpt>
      <trkpt lat="45.7533" lon="3.15814">
        <ele>367.4</ele>
        <time>2024-05-19T09:10:55Z</time>
      </trkpt>
      <trkpt lat="45.75337" lon="3.15805">
        <ele>367.2</ele>
        <time>2024-05-19T09:10:56Z</time>
      </trkpt>
      <trkpt lat="45.75343" lon="3.15797">
        <ele>367</ele>
        <time>2024-05-19T09:10:57Z</time>
      </trkpt>
      <trkpt lat="45.7535" lon="3.15788">
        <ele>366.8</ele>
        <time>2024-05-19T09:10:58Z</time>
      </trkpt>
      <trkpt lat="45.75357" lon="3.15779">
        <ele>366.6</ele>
        <time>2024-05-19T09:10:59Z</time>
      </trkpt>
      <trkpt lat="45.75364" lon="3.15771">
        <ele>366.4</ele>
        <time>2024-05-19T09:11:00Z</time>
      </trkpt>
      <trkpt lat="45.75372" lon="3.15765">
        <ele>366.2</ele>
        <time>2024-05-19T09:11:01Z</time>
      </trkpt>
      <trkpt lat="45.75382" lon="3.15767">
        <ele>366</ele>
        <time>2024-05-19T09:11:02Z</time>
      </trkpt>
      <trkpt lat="45.75391" lon="3.15763">
        <ele>365.8</ele>
        <time>2024-05-19T09:11:03Z</time>
      </trkpt>
      <trkpt lat="45.75398" lon="3.15754">
        <ele>365.6</ele>
        <time>2024-05-19T09:11:04Z</time>
      </trkpt>
      <trkpt lat="45.75407" lon="3.15754">
        <ele>365.4</ele>
        <time>2024-05-19T09:11:05Z</time>
      </trkpt>
      <trkpt lat="45.75416" lon="3.15754">
        <ele>365.2</ele>
        <time>2024-05-19T09:11:06Z</time>
      </trkpt>
      <trkpt lat="45.75425" lon="3.15754">
        <ele>365</ele>
        <time>2024-05-19T09:11:07Z</time>
      </trkpt>
      <trkpt lat="45.75434" lon="3.15754">
        <ele>364.8</ele>
        <time>2024-05-19T09:11:08Z</time>
      </trkpt>
      <trkpt lat="45.75442" lon="3.15754">
        <ele>364.6</ele>
        <time>2024-05-19T09:11:09Z</time>
      </trkpt>
      <trkpt lat="45.75451" lon="3.15754">
        <ele>364.4</ele>
        <time>2024-05-19T09:11:10Z</time>
      </trkpt>
      <trkpt lat="45.75459" lon="3.15752">
        <ele>364.2</ele>
        <time>2024-05-19T09:11:11Z</time>
      </trkpt>
      <trkpt lat="45.75467" lon="3.15746">
        <ele>364</ele>
        <time>2024-05-19T09:11:12Z</time>
      </trkpt>
      <trkpt lat="45.75473" lon="3.15738">
        <ele>363.8</ele>
        <time>2024-05-19T09:11:13Z</time>
      </trkpt>
      <trkpt lat="45.75479" lon="3.1573">
        <ele>363.6</ele>
        <time>2024-05-19T09:11:14Z</time>
      </trkpt>
      <trkpt lat="45.75485" lon="3.15721">
        <ele>363.4</ele>
        <time>2024-05-19T09:11:15Z</time>
      </trkpt>
      <trkpt lat="45.75491" lon="3.15713">
        <ele>363.2</ele>
        <time>2024-05-19T09:11:16Z</time>
      </trkpt>
      <trkpt lat="45.75499" lon="3.15709">
        <ele>363.2</ele>
        <time>2024-05-19T09:11:17Z</time>
      </trkpt>
      <trkpt lat="45.75507" lon="3.15706">
        <ele>363</ele>
        <time>2024-05-19T09:11:18Z</time>
      </trkpt>
      <trkpt lat="45.75515" lon="3.15698">
        <ele>362.8</ele>
        <time>2024-05-19T09:11:19Z</time>
      </trkpt>
      <trkpt lat="45.75519" lon="3.15688">
        <ele>362.6</ele>
        <time>2024-05-19T09:11:20Z</time>
      </trkpt>
      <trkpt lat="45.75524" lon="3.15678">
        <ele>362.6</ele>
        <time>2024-05-19T09:11:21Z</time>
      </trkpt>
      <trkpt lat="45.75529" lon="3.15668">
        <ele>362.4</ele>
        <time>2024-05-19T09:11:22Z</time>
      </trkpt>
      <trkpt lat="45.75534" lon="3.15658">
        <ele>362.2</ele>
        <time>2024-05-19T09:11:23Z</time>
      </trkpt>
      <trkpt lat="45.75538" lon="3.15648">
        <ele>362.2</ele>
        <time>2024-05-19T09:11:24Z</time>
      </trkpt>
      <trkpt lat="45.75541" lon="3.15637">
        <ele>362</ele>
        <time>2024-05-19T09:11:25Z</time>
      </trkpt>
      <trkpt lat="45.75543" lon="3.15626">
        <ele>361.8</ele>
        <time>2024-05-19T09:11:26Z</time>
      </trkpt>
      <trkpt lat="45.75546" lon="3.15614">
        <ele>361.8</ele>
        <time>2024-05-19T09:11:27Z</time>
      </trkpt>
      <trkpt lat="45.75548" lon="3.15602">
        <ele>361.6</ele>
        <time>2024-05-19T09:11:28Z</time>
      </trkpt>
      <trkpt lat="45.75551" lon="3.1559">
        <ele>361.4</ele>
        <time>2024-05-19T09:11:29Z</time>
      </trkpt>
      <trkpt lat="45.75554" lon="3.15578">
        <ele>361.4</ele>
        <time>2024-05-19T09:11:30Z</time>
      </trkpt>
      <trkpt lat="45.75558" lon="3.15567">
        <ele>361.2</ele>
        <time>2024-05-19T09:11:31Z</time>
      </trkpt>
      <trkpt lat="45.75563" lon="3.15557">
        <ele>361.2</ele>
        <time>2024-05-19T09:11:32Z</time>
      </trkpt>
      <trkpt lat="45.75568" lon="3.15548">
        <ele>361.2</ele>
        <time>2024-05-19T09:11:33Z</time>
      </trkpt>
      <trkpt lat="45.75574" lon="3.15539">
        <ele>361</ele>
        <time>2024-05-19T09:11:34Z</time>
      </trkpt>
      <trkpt lat="45.75582" lon="3.15535">
        <ele>361</ele>
        <time>2024-05-19T09:11:35Z</time>
      </trkpt>
      <trkpt lat="45.7559" lon="3.15533">
        <ele>361</ele>
        <time>2024-05-19T09:11:36Z</time>
      </trkpt>
      <trkpt lat="45.75598" lon="3.1553">
        <ele>360.8</ele>
        <time>2024-05-19T09:11:37Z</time>
      </trkpt>
      <trkpt lat="45.75607" lon="3.15527">
        <ele>360.6</ele>
        <time>2024-05-19T09:11:38Z</time>
      </trkpt>
      <trkpt lat="45.75615" lon="3.15524">
        <ele>360.6</ele>
        <time>2024-05-19T09:11:39Z</time>
      </trkpt>
      <trkpt lat="45.75623" lon="3.15522">
        <ele>360.4</ele>
        <time>2024-05-19T09:11:40Z</time>
      </trkpt>
      <trkpt lat="45.75631" lon="3.15519">
        <ele>360.4</ele>
        <time>2024-05-19T09:11:41Z</time>
      </trkpt>
      <trkpt lat="45.7564" lon="3.15517">
        <ele>360.2</ele>
        <time>2024-05-19T09:11:42Z</time>
      </trkpt>
      <trkpt lat="45.75648" lon="3.15516">
        <ele>360.2</ele>
        <time>2024-05-19T09:11:43Z</time>
      </trkpt>
      <trkpt lat="45.75656" lon="3.15515">
        <ele>360.2</ele>
        <time>2024-05-19T09:11:44Z</time>
      </trkpt>
      <trkpt lat="45.75664" lon="3.15513">
        <ele>360</ele>
        <time>2024-05-19T09:11:45Z</time>
      </trkpt>
      <trkpt lat="45.75673" lon="3.15512">
        <ele>360</ele>
        <time>2024-05-19T09:11:46Z</time>
      </trkpt>
      <trkpt lat="45.75681" lon="3.15511">
        <ele>360</ele>
        <time>2024-05-19T09:11:47Z</time>
      </trkpt>
      <trkpt lat="45.75689" lon="3.1551">
        <ele>359.8</ele>
        <time>2024-05-19T09:11:48Z</time>
      </trkpt>
      <trkpt lat="45.75696" lon="3.15508">
        <ele>359.8</ele>
        <time>2024-05-19T09:11:49Z</time>
      </trkpt>
      <trkpt lat="45.75704" lon="3.15507">
        <ele>359.8</ele>
        <time>2024-05-19T09:11:50Z</time>
      </trkpt>
      <trkpt lat="45.75711" lon="3.15503">
        <ele>359.6</ele>
        <time>2024-05-19T09:11:51Z</time>
      </trkpt>
      <trkpt lat="45.75718" lon="3.15497">
        <ele>359.6</ele>
        <time>2024-05-19T09:11:52Z</time>
      </trkpt>
      <trkpt lat="45.75725" lon="3.15492">
        <ele>359.6</ele>
        <time>2024-05-19T09:11:53Z</time>
      </trkpt>
      <trkpt lat="45.75732" lon="3.15487">
        <ele>359.6</ele>
        <time>2024-05-19T09:11:54Z</time>
      </trkpt>
      <trkpt lat="45.75739" lon="3.15481">
        <ele>359.4</ele>
        <time>2024-05-19T09:11:55Z</time>
      </trkpt>
      <trkpt lat="45.75746" lon="3.15476">
        <ele>359.4</ele>
        <time>2024-05-19T09:11:56Z</time>
      </trkpt>
      <trkpt lat="45.75753" lon="3.1547">
        <ele>359.4</ele>
        <time>2024-05-19T09:11:57Z</time>
      </trkpt>
      <trkpt lat="45.7576" lon="3.15465">
        <ele>359.2</ele>
        <time>2024-05-19T09:11:58Z</time>
      </trkpt>
      <trkpt lat="45.75767" lon="3.1546">
        <ele>359.2</ele>
        <time>2024-05-19T09:11:59Z</time>
      </trkpt>
      <trkpt lat="45.75774" lon="3.15454">
        <ele>359.2</ele>
        <time>2024-05-19T09:12:00Z</time>
      </trkpt>
      <trkpt lat="45.75782" lon="3.15448">
        <ele>359</ele>
        <time>2024-05-19T09:12:01Z</time>
      </trkpt>
      <trkpt lat="45.75789" lon="3.15443">
        <ele>359</ele>
        <time>2024-05-19T09:12:02Z</time>
      </trkpt>
      <trkpt lat="45.75796" lon="3.15437">
        <ele>358.8</ele>
        <time>2024-05-19T09:12:03Z</time>
      </trkpt>
      <trkpt lat="45.75804" lon="3.15432">
        <ele>358.8</ele>
        <time>2024-05-19T09:12:04Z</time>
      </trkpt>
      <trkpt lat="45.75811" lon="3.15426">
        <ele>358.8</ele>
        <time>2024-05-19T09:12:05Z</time>
      </trkpt>
      <trkpt lat="45.75818" lon="3.1542">
        <ele>358.6</ele>
        <time>2024-05-19T09:12:06Z</time>
      </trkpt>
      <trkpt lat="45.75825" lon="3.15415">
        <ele>358.6</ele>
        <time>2024-05-19T09:12:07Z</time>
      </trkpt>
      <trkpt lat="45.75832" lon="3.15409">
        <ele>358.6</ele>
        <time>2024-05-19T09:12:08Z</time>
      </trkpt>
      <trkpt lat="45.7584" lon="3.15404">
        <ele>358.4</ele>
        <time>2024-05-19T09:12:09Z</time>
      </trkpt>
      <trkpt lat="45.75847" lon="3.15398">
        <ele>358.4</ele>
        <time>2024-05-19T09:12:10Z</time>
      </trkpt>
      <trkpt lat="45.75854" lon="3.15393">
        <ele>358.4</ele>
        <time>2024-05-19T09:12:11Z</time>
      </trkpt>
      <trkpt lat="45.75861" lon="3.15387">
        <ele>358.2</ele>
        <time>2024-05-19T09:12:12Z</time>
      </trkpt>
      <trkpt lat="45.75868" lon="3.15382">
        <ele>358.2</ele>
        <time>2024-05-19T09:12:13Z</time>
      </trkpt>
      <trkpt lat="45.75876" lon="3.15376">
        <ele>358.2</ele>
        <time>2024-05-19T09:12:14Z</time>
      </trkpt>
      <trkpt lat="45.75883" lon="3.15371">
        <ele>358.2</ele>
        <time>2024-05-19T09:12:15Z</time>
      </trkpt>
      <trkpt lat="45.7589" lon="3.15365">
        <ele>358</ele>
        <time>2024-05-19T09:12:16Z</time>
      </trkpt>
      <trkpt lat="45.75897" lon="3.1536">
        <ele>358</ele>
        <time>2024-05-19T09:12:17Z</time>
      </trkpt>
      <trkpt lat="45.75904" lon="3.15354">
        <ele>358</ele>
        <time>2024-05-19T09:12:18Z</time>
      </trkpt>
      <trkpt lat="45.75911" lon="3.15349">
        <ele>358</ele>
        <time>2024-05-19T09:12:19Z</time>
      </trkpt>
      <trkpt lat="45.75918" lon="3.15343">
        <ele>357.8</ele>
        <time>2024-05-19T09:12:20Z</time>
      </trkpt>
      <trkpt lat="45.75926" lon="3.15337">
        <ele>357.8</ele>
        <time>2024-05-19T09:12:21Z</time>
      </trkpt>
      <trkpt lat="45.75933" lon="3.15332">
        <ele>357.8</ele>
        <time>2024-05-19T09:12:22Z</time>
      </trkpt>
      <trkpt lat="45.7594" lon="3.15326">
        <ele>357.8</ele>
        <time>2024-05-19T09:12:23Z</time>
      </trkpt>
      <trkpt lat="45.75947" lon="3.15321">
        <ele>357.6</ele>
        <time>2024-05-19T09:12:24Z</time>
      </trkpt>
      <trkpt lat="45.75955" lon="3.15315">
        <ele>357.6</ele>
        <time>2024-05-19T09:12:25Z</time>
      </trkpt>
      <trkpt lat="45.75962" lon="3.1531">
        <ele>357.6</ele>
        <time>2024-05-19T09:12:26Z</time>
      </trkpt>
      <trkpt lat="45.75969" lon="3.15304">
        <ele>357.4</ele>
        <time>2024-05-19T09:12:27Z</time>
      </trkpt>
      <trkpt lat="45.75977" lon="3.15298">
        <ele>357.4</ele>
        <time>2024-05-19T09:12:28Z</time>
      </trkpt>
      <trkpt lat="45.75984" lon="3.15292">
        <ele>357.4</ele>
        <time>2024-05-19T09:12:29Z</time>
      </trkpt>
      <trkpt lat="45.75991" lon="3.15287">
        <ele>357.2</ele>
        <time>2024-05-19T09:12:30Z</time>
      </trkpt>
      <trkpt lat="45.75998" lon="3.15281">
        <ele>357.2</ele>
        <time>2024-05-19T09:12:31Z</time>
      </trkpt>
      <trkpt lat="45.76006" lon="3.15275">
        <ele>357.2</ele>
        <time>2024-05-19T09:12:32Z</time>
      </trkpt>
      <trkpt lat="45.76013" lon="3.1527">
        <ele>357</ele>
        <time>2024-05-19T09:12:33Z</time>
      </trkpt>
      <trkpt lat="45.7602" lon="3.15264">
        <ele>357</ele>
        <time>2024-05-19T09:12:34Z</time>
      </trkpt>
      <trkpt lat="45.76027" lon="3.15257">
        <ele>357</ele>
        <time>2024-05-19T09:12:35Z</time>
      </trkpt>
      <trkpt lat="45.76033" lon="3.15249">
        <ele>356.8</ele>
        <time>2024-05-19T09:12:36Z</time>
      </trkpt>
      <trkpt lat="45.7604" lon="3.15242">
        <ele>356.8</ele>
        <time>2024-05-19T09:12:37Z</time>
      </trkpt>
      <trkpt lat="45.76046" lon="3.15234">
        <ele>356.8</ele>
        <time>2024-05-19T09:12:38Z</time>
      </trkpt>
      <trkpt lat="45.76052" lon="3.15226">
        <ele>356.6</ele>
        <time>2024-05-19T09:12:39Z</time>
      </trkpt>
      <trkpt lat="45.76059" lon="3.15218">
        <ele>356.6</ele>
        <time>2024-05-19T09:12:40Z</time>
      </trkpt>
      <trkpt lat="45.76065" lon="3.1521">
        <ele>356.6</ele>
        <time>2024-05-19T09:12:41Z</time>
      </trkpt>
      <trkpt lat="45.76071" lon="3.15202">
        <ele>356.4</ele>
        <time>2024-05-19T09:12:42Z</time>
      </trkpt>
      <trkpt lat="45.76078" lon="3.15194">
        <ele>356.4</ele>
        <time>2024-05-19T09:12:43Z</time>
      </trkpt>
      <trkpt lat="45.76084" lon="3.15186">
        <ele>356.2</ele>
        <time>2024-05-19T09:12:44Z</time>
      </trkpt>
      <trkpt lat="45.76091" lon="3.15178">
        <ele>356.2</ele>
        <time>2024-05-19T09:12:45Z</time>
      </trkpt>
      <trkpt lat="45.76098" lon="3.15169">
        <ele>356</ele>
        <time>2024-05-19T09:12:46Z</time>
      </trkpt>
      <trkpt lat="45.76104" lon="3.15161">
        <ele>356</ele>
        <time>2024-05-19T09:12:47Z</time>
      </trkpt>
      <trkpt lat="45.76111" lon="3.15152">
        <ele>355.8</ele>
        <time>2024-05-19T09:12:48Z</time>
      </trkpt>
      <trkpt lat="45.76117" lon="3.15143">
        <ele>355.8</ele>
        <time>2024-05-19T09:12:49Z</time>
      </trkpt>
      <trkpt lat="45.76124" lon="3.15134">
        <ele>355.6</ele>
        <time>2024-05-19T09:12:50Z</time>
      </trkpt>
      <trkpt lat="45.76131" lon="3.15125">
        <ele>355.4</ele>
        <time>2024-05-19T09:12:51Z</time>
      </trkpt>
      <trkpt lat="45.76138" lon="3.15115">
        <ele>355.2</ele>
        <time>2024-05-19T09:12:52Z</time>
      </trkpt>
      <trkpt lat="45.76144" lon="3.15106">
        <ele>355.2</ele>
        <time>2024-05-19T09:12:53Z</time>
      </trkpt>
      <trkpt lat="45.76151" lon="3.15097">
        <ele>355</ele>
        <time>2024-05-19T09:12:54Z</time>
      </trkpt>
      <trkpt lat="45.76158" lon="3.15088">
        <ele>355</ele>
        <time>2024-05-19T09:12:55Z</time>
      </trkpt>
      <trkpt lat="45.76165" lon="3.15079">
        <ele>354.8</ele>
        <time>2024-05-19T09:12:56Z</time>
      </trkpt>
      <trkpt lat="45.76171" lon="3.1507">
        <ele>354.6</ele>
        <time>2024-05-19T09:12:57Z</time>
      </trkpt>
      <trkpt lat="45.76178" lon="3.15061">
        <ele>354.6</ele>
        <time>2024-05-19T09:12:58Z</time>
      </trkpt>
      <trkpt lat="45.76185" lon="3.15052">
        <ele>354.6</ele>
        <time>2024-05-19T09:12:59Z</time>
      </trkpt>
      <trkpt lat="45.76192" lon="3.15044">
        <ele>354.6</ele>
        <time>2024-05-19T09:13:00Z</time>
      </trkpt>
      <trkpt lat="45.762" lon="3.15038">
        <ele>354.4</ele>
        <time>2024-05-19T09:13:01Z</time>
      </trkpt>
      <trkpt lat="45.76207" lon="3.15031">
        <ele>354.4</ele>
        <time>2024-05-19T09:13:02Z</time>
      </trkpt>
      <trkpt lat="45.76214" lon="3.15025">
        <ele>354.4</ele>
        <time>2024-05-19T09:13:03Z</time>
      </trkpt>
      <trkpt lat="45.76221" lon="3.15018">
        <ele>354.2</ele>
        <time>2024-05-19T09:13:04Z</time>
      </trkpt>
      <trkpt lat="45.76228" lon="3.15012">
        <ele>354.2</ele>
        <time>2024-05-19T09:13:05Z</time>
      </trkpt>
      <trkpt lat="45.76235" lon="3.15006">
        <ele>354.2</ele>
        <time>2024-05-19T09:13:06Z</time>
      </trkpt>
      <trkpt lat="45.76243" lon="3.15001">
        <ele>354.2</ele>
        <time>2024-05-19T09:13:07Z</time>
      </trkpt>
      <trkpt lat="45.7625" lon="3.14996">
        <ele>354</ele>
        <time>2024-05-19T09:13:08Z</time>
      </trkpt>
      <trkpt lat="45.76258" lon="3.14991">
        <ele>354</ele>
        <time>2024-05-19T09:13:09Z</time>
      </trkpt>
      <trkpt lat="45.76265" lon="3.14986">
        <ele>354</ele>
        <time>2024-05-19T09:13:10Z</time>
      </trkpt>
      <trkpt lat="45.76272" lon="3.14982">
        <ele>353.8</ele>
        <time>2024-05-19T09:13:11Z</time>
      </trkpt>
      <trkpt lat="45.7628" lon="3.14977">
        <ele>353.8</ele>
        <time>2024-05-19T09:13:12Z</time>
      </trkpt>
      <trkpt lat="45.76287" lon="3.14972">
        <ele>353.8</ele>
        <time>2024-05-19T09:13:13Z</time>
      </trkpt>
      <trkpt lat="45.76295" lon="3.1497">
        <ele>353.8</ele>
        <time>2024-05-19T09:13:14Z</time>
      </trkpt>
      <trkpt lat="45.76303" lon="3.14967">
        <ele>353.6</ele>
        <time>2024-05-19T09:13:15Z</time>
      </trkpt>
      <trkpt lat="45.76311" lon="3.14964">
        <ele>353.6</ele>
        <time>2024-05-19T09:13:16Z</time>
      </trkpt>
      <trkpt lat="45.76319" lon="3.14961">
        <ele>353.4</ele>
        <time>2024-05-19T09:13:17Z</time>
      </trkpt>
      <trkpt lat="45.76327" lon="3.14958">
        <ele>353.4</ele>
        <time>2024-05-19T09:13:18Z</time>
      </trkpt>
      <trkpt lat="45.76336" lon="3.14955">
        <ele>353.4</ele>
        <time>2024-05-19T09:13:19Z</time>
      </trkpt>
      <trkpt lat="45.76344" lon="3.14953">
        <ele>353.2</ele>
        <time>2024-05-19T09:13:20Z</time>
      </trkpt>
      <trkpt lat="45.76352" lon="3.1495">
        <ele>353.2</ele>
        <time>2024-05-19T09:13:21Z</time>
      </trkpt>
      <trkpt lat="45.7636" lon="3.14947">
        <ele>353</ele>
        <time>2024-05-19T09:13:22Z</time>
      </trkpt>
      <trkpt lat="45.76368" lon="3.14944">
        <ele>353</ele>
        <time>2024-05-19T09:13:23Z</time>
      </trkpt>
      <trkpt lat="45.76376" lon="3.14941">
        <ele>353</ele>
        <time>2024-05-19T09:13:24Z</time>
      </trkpt>
      <trkpt lat="45.76385" lon="3.14938">
        <ele>352.8</ele>
        <time>2024-05-19T09:13:25Z</time>
      </trkpt>
      <trkpt lat="45.76393" lon="3.14935">
        <ele>352.8</ele>
        <time>2024-05-19T09:13:26Z</time>
      </trkpt>
      <trkpt lat="45.76401" lon="3.14933">
        <ele>352.8</ele>
        <time>2024-05-19T09:13:27Z</time>
      </trkpt>
      <trkpt lat="45.76409" lon="3.1493">
        <ele>352.8</ele>
        <time>2024-05-19T09:13:28Z</time>
      </trkpt>
      <trkpt lat="45.76417" lon="3.14927">
        <ele>352.6</ele>
        <time>2024-05-19T09:13:29Z</time>
      </trkpt>
      <trkpt lat="45.76425" lon="3.14924">
        <ele>352.6</ele>
        <time>2024-05-19T09:13:30Z</time>
      </trkpt>
      <trkpt lat="45.76433" lon="3.14921">
        <ele>352.6</ele>
        <time>2024-05-19T09:13:31Z</time>
      </trkpt>
      <trkpt lat="45.76441" lon="3.14918">
        <ele>352.6</ele>
        <time>2024-05-19T09:13:32Z</time>
      </trkpt>
      <trkpt lat="45.76449" lon="3.14915">
        <ele>352.4</ele>
        <time>2024-05-19T09:13:33Z</time>
      </trkpt>
      <trkpt lat="45.76457" lon="3.14913">
        <ele>352.4</ele>
        <time>2024-05-19T09:13:34Z</time>
      </trkpt>
      <trkpt lat="45.76465" lon="3.1491">
        <ele>352.4</ele>
        <time>2024-05-19T09:13:35Z</time>
      </trkpt>
      <trkpt lat="45.76473" lon="3.14907">
        <ele>352.2</ele>
        <time>2024-05-19T09:13:36Z</time>
      </trkpt>
      <trkpt lat="45.76481" lon="3.14905">
        <ele>352.2</ele>
        <time>2024-05-19T09:13:37Z</time>
      </trkpt>
      <trkpt lat="45.7649" lon="3.14903">
        <ele>352.2</ele>
        <time>2024-05-19T09:13:38Z</time>
      </trkpt>
      <trkpt lat="45.76498" lon="3.14901">
        <ele>352.2</ele>
        <time>2024-05-19T09:13:39Z</time>
      </trkpt>
      <trkpt lat="45.76507" lon="3.14898">
        <ele>352</ele>
        <time>2024-05-19T09:13:40Z</time>
      </trkpt>
      <trkpt lat="45.76515" lon="3.14896">
        <ele>352</ele>
        <time>2024-05-19T09:13:41Z</time>
      </trkpt>
      <trkpt lat="45.76523" lon="3.14894">
        <ele>351.8</ele>
        <time>2024-05-19T09:13:42Z</time>
      </trkpt>
      <trkpt lat="45.76532" lon="3.14891">
        <ele>351.8</ele>
        <time>2024-05-19T09:13:43Z</time>
      </trkpt>
      <trkpt lat="45.76541" lon="3.14889">
        <ele>351.8</ele>
        <time>2024-05-19T09:13:44Z</time>
      </trkpt>
      <trkpt lat="45.76549" lon="3.14887">
        <ele>351.6</ele>
        <time>2024-05-19T09:13:45Z</time>
      </trkpt>
      <trkpt lat="45.76558" lon="3.14884">
        <ele>351.6</ele>
        <time>2024-05-19T09:13:46Z</time>
      </trkpt>
      <trkpt lat="45.76567" lon="3.14882">
        <ele>351.6</ele>
        <time>2024-05-19T09:13:47Z</time>
      </trkpt>
      <trkpt lat="45.76576" lon="3.1488">
        <ele>351.4</ele>
        <time>2024-05-19T09:13:48Z</time>
      </trkpt>
      <trkpt lat="45.76584" lon="3.14877">
        <ele>351.4</ele>
        <time>2024-05-19T09:13:49Z</time>
      </trkpt>
      <trkpt lat="45.76593" lon="3.14875">
        <ele>351.2</ele>
        <time>2024-05-19T09:13:50Z</time>
      </trkpt>
      <trkpt lat="45.76602" lon="3.14871">
        <ele>351.2</ele>
        <time>2024-05-19T09:13:51Z</time>
      </trkpt>
      <trkpt lat="45.7661" lon="3.14868">
        <ele>351</ele>
        <time>2024-05-19T09:13:52Z</time>
      </trkpt>
      <trkpt lat="45.76619" lon="3.14864">
        <ele>351</ele>
        <time>2024-05-19T09:13:53Z</time>
      </trkpt>
      <trkpt lat="45.76627" lon="3.1486">
        <ele>351</ele>
        <time>2024-05-19T09:13:54Z</time>
      </trkpt>
      <trkpt lat="45.76636" lon="3.14857">
        <ele>350.8</ele>
        <time>2024-05-19T09:13:55Z</time>
      </trkpt>
      <trkpt lat="45.76644" lon="3.14853">
        <ele>350.8</ele>
        <time>2024-05-19T09:13:56Z</time>
      </trkpt>
      <trkpt lat="45.76653" lon="3.14849">
        <ele>350.6</ele>
        <time>2024-05-19T09:13:57Z</time>
      </trkpt>
      <trkpt lat="45.76662" lon="3.14844">
        <ele>350.6</ele>
        <time>2024-05-19T09:13:58Z</time>
      </trkpt>
      <trkpt lat="45.7667" lon="3.1484">
        <ele>350.4</ele>
        <time>2024-05-19T09:13:59Z</time>
      </trkpt>
      <trkpt lat="45.76678" lon="3.14836">
        <ele>350.4</ele>
        <time>2024-05-19T09:14:00Z</time>
      </trkpt>
      <trkpt lat="45.76687" lon="3.14832">
        <ele>350.4</ele>
        <time>2024-05-19T09:14:01Z</time>
      </trkpt>
      <trkpt lat="45.76695" lon="3.14825">
        <ele>350.2</ele>
        <time>2024-05-19T09:14:02Z</time>
      </trkpt>
      <trkpt lat="45.76703" lon="3.14819">
        <ele>350.2</ele>
        <time>2024-05-19T09:14:03Z</time>
      </trkpt>
      <trkpt lat="45.7671" lon="3.14812">
        <ele>350</ele>
        <time>2024-05-19T09:14:04Z</time>
      </trkpt>
      <trkpt lat="45.76718" lon="3.14806">
        <ele>350</ele>
        <time>2024-05-19T09:14:05Z</time>
      </trkpt>
      <trkpt lat="45.76726" lon="3.148">
        <ele>350</ele>
        <time>2024-05-19T09:14:06Z</time>
      </trkpt>
      <trkpt lat="45.76733" lon="3.14794">
        <ele>349.8</ele>
        <time>2024-05-19T09:14:07Z</time>
      </trkpt>
      <trkpt lat="45.76741" lon="3.14787">
        <ele>349.8</ele>
        <time>2024-05-19T09:14:08Z</time>
      </trkpt>
      <trkpt lat="45.76748" lon="3.14781">
        <ele>349.8</ele>
        <time>2024-05-19T09:14:09Z</time>
      </trkpt>
      <trkpt lat="45.76756" lon="3.14775">
        <ele>349.6</ele>
        <time>2024-05-19T09:14:10Z</time>
      </trkpt>
      <trkpt lat="45.76763" lon="3.14769">
        <ele>349.6</ele>
        <time>2024-05-19T09:14:11Z</time>
      </trkpt>
      <trkpt lat="45.76771" lon="3.14763">
        <ele>349.4</ele>
        <time>2024-05-19T09:14:12Z</time>
      </trkpt>
      <trkpt lat="45.76778" lon="3.14757">
        <ele>349.4</ele>
        <time>2024-05-19T09:14:13Z</time>
      </trkpt>
      <trkpt lat="45.76785" lon="3.1475">
        <ele>349.2</ele>
        <time>2024-05-19T09:14:14Z</time>
      </trkpt>
      <trkpt lat="45.76794" lon="3.14746">
        <ele>349.2</ele>
        <time>2024-05-19T09:14:15Z</time>
      </trkpt>
      <trkpt lat="45.76801" lon="3.14742">
        <ele>349.2</ele>
        <time>2024-05-19T09:14:16Z</time>
      </trkpt>
      <trkpt lat="45.76809" lon="3.14737">
        <ele>349.2</ele>
        <time>2024-05-19T09:14:17Z</time>
      </trkpt>
      <trkpt lat="45.76816" lon="3.14732">
        <ele>349.2</ele>
        <time>2024-05-19T09:14:18Z</time>
      </trkpt>
      <trkpt lat="45.76824" lon="3.14728">
        <ele>349</ele>
        <time>2024-05-19T09:14:19Z</time>
      </trkpt>
      <trkpt lat="45.76832" lon="3.14723">
        <ele>349</ele>
        <time>2024-05-19T09:14:20Z</time>
      </trkpt>
      <trkpt lat="45.76839" lon="3.14719">
        <ele>349</ele>
        <time>2024-05-19T09:14:21Z</time>
      </trkpt>
      <trkpt lat="45.76847" lon="3.14714">
        <ele>349</ele>
        <time>2024-05-19T09:14:22Z</time>
      </trkpt>
      <trkpt lat="45.76854" lon="3.1471">
        <ele>348.8</ele>
        <time>2024-05-19T09:14:23Z</time>
      </trkpt>
      <trkpt lat="45.76862" lon="3.14706">
        <ele>348.8</ele>
        <time>2024-05-19T09:14:24Z</time>
      </trkpt>
      <trkpt lat="45.7687" lon="3.14702">
        <ele>348.8</ele>
        <time>2024-05-19T09:14:25Z</time>
      </trkpt>
      <trkpt lat="45.76878" lon="3.14699">
        <ele>348.6</ele>
        <time>2024-05-19T09:14:26Z</time>
      </trkpt>
      <trkpt lat="45.76885" lon="3.14696">
        <ele>348.6</ele>
        <time>2024-05-19T09:14:27Z</time>
      </trkpt>
      <trkpt lat="45.76893" lon="3.14692">
        <ele>348.6</ele>
        <time>2024-05-19T09:14:28Z</time>
      </trkpt>
      <trkpt lat="45.769" lon="3.14689">
        <ele>348.4</ele>
        <time>2024-05-19T09:14:29Z</time>
      </trkpt>
      <trkpt lat="45.76908" lon="3.14687">
        <ele>348.4</ele>
        <time>2024-05-19T09:14:30Z</time>
      </trkpt>
      <trkpt lat="45.76916" lon="3.14685">
        <ele>348.4</ele>
        <time>2024-05-19T09:14:31Z</time>
      </trkpt>
      <trkpt lat="45.76924" lon="3.14683">
        <ele>348.2</ele>
        <time>2024-05-19T09:14:32Z</time>
      </trkpt>
      <trkpt lat="45.76932" lon="3.14681">
        <ele>348.2</ele>
        <time>2024-05-19T09:14:33Z</time>
      </trkpt>
      <trkpt lat="45.76939" lon="3.14679">
        <ele>348.2</ele>
        <time>2024-05-19T09:14:34Z</time>
      </trkpt>
      <trkpt lat="45.76948" lon="3.14678">
        <ele>348</ele>
        <time>2024-05-19T09:14:35Z</time>
      </trkpt>
      <trkpt lat="45.76956" lon="3.14678">
        <ele>348</ele>
        <time>2024-05-19T09:14:36Z</time>
      </trkpt>
      <trkpt lat="45.76964" lon="3.14677">
        <ele>347.8</ele>
        <time>2024-05-19T09:14:37Z</time>
      </trkpt>
      <trkpt lat="45.76972" lon="3.14676">
        <ele>347.8</ele>
        <time>2024-05-19T09:14:38Z</time>
      </trkpt>
      <trkpt lat="45.7698" lon="3.14676">
        <ele>347.8</ele>
        <time>2024-05-19T09:14:39Z</time>
      </trkpt>
      <trkpt lat="45.76988" lon="3.14675">
        <ele>347.8</ele>
        <time>2024-05-19T09:14:40Z</time>
      </trkpt>
      <trkpt lat="45.76996" lon="3.14674">
        <ele>347.6</ele>
        <time>2024-05-19T09:14:41Z</time>
      </trkpt>
      <trkpt lat="45.77005" lon="3.14674">
        <ele>347.6</ele>
        <time>2024-05-19T09:14:42Z</time>
      </trkpt>
      <trkpt lat="45.77013" lon="3.14673">
        <ele>347.6</ele>
        <time>2024-05-19T09:14:43Z</time>
      </trkpt>
      <trkpt lat="45.77021" lon="3.14673">
        <ele>347.6</ele>
        <time>2024-05-19T09:14:44Z</time>
      </trkpt>
      <trkpt lat="45.7703" lon="3.14672">
        <ele>347.6</ele>
        <time>2024-05-19T09:14:45Z</time>
      </trkpt>
      <trkpt lat="45.77038" lon="3.14671">
        <ele>347.6</ele>
        <time>2024-05-19T09:14:46Z</time>
      </trkpt>
      <trkpt lat="45.77046" lon="3.14671">
        <ele>347.4</ele>
        <time>2024-05-19T09:14:47Z</time>
      </trkpt>
      <trkpt lat="45.77055" lon="3.1467">
        <ele>347.4</ele>
        <time>2024-05-19T09:14:48Z</time>
      </trkpt>
      <trkpt lat="45.77063" lon="3.1467">
        <ele>347.4</ele>
        <time>2024-05-19T09:14:49Z</time>
      </trkpt>
      <trkpt lat="45.77071" lon="3.1467">
        <ele>347.4</ele>
        <time>2024-05-19T09:14:50Z</time>
      </trkpt>
      <trkpt lat="45.77079" lon="3.1467">
        <ele>347.4</ele>
        <time>2024-05-19T09:14:51Z</time>
      </trkpt>
      <trkpt lat="45.77087" lon="3.1467">
        <ele>347.4</ele>
        <time>2024-05-19T09:14:52Z</time>
      </trkpt>
      <trkpt lat="45.77095" lon="3.1467">
        <ele>347.4</ele>
        <time>2024-05-19T09:14:53Z</time>
      </trkpt>
      <trkpt lat="45.77101" lon="3.1467">
        <ele>347.4</ele>
        <time>2024-05-19T09:14:54Z</time>
      </trkpt>
      <trkpt lat="45.77108" lon="3.14671">
        <ele>347.6</ele>
        <time>2024-05-19T09:14:55Z</time>
      </trkpt>
      <trkpt lat="45.77115" lon="3.14672">
        <ele>347.6</ele>
        <time>2024-05-19T09:14:56Z</time>
      </trkpt>
      <trkpt lat="45.77122" lon="3.14673">
        <ele>347.6</ele>
        <time>2024-05-19T09:14:57Z</time>
      </trkpt>
      <trkpt lat="45.77128" lon="3.14674">
        <ele>347.6</ele>
        <time>2024-05-19T09:14:58Z</time>
      </trkpt>
      <trkpt lat="45.77134" lon="3.14674">
        <ele>347.6</ele>
        <time>2024-05-19T09:14:59Z</time>
      </trkpt>
      <trkpt lat="45.7714" lon="3.14675">
        <ele>347.2</ele>
        <time>2024-05-19T09:15:00Z</time>
      </trkpt>
      <trkpt lat="45.77147" lon="3.14676">
        <ele>347.6</ele>
        <time>2024-05-19T09:15:01Z</time>
      </trkpt>
      <trkpt lat="45.77153" lon="3.14677">
        <ele>347.8</ele>
        <time>2024-05-19T09:15:02Z</time>
      </trkpt>
      <trkpt lat="45.7716" lon="3.14678">
        <ele>348.2</ele>
        <time>2024-05-19T09:15:03Z</time>
      </trkpt>
      <trkpt lat="45.77166" lon="3.14679">
        <ele>347.8</ele>
        <time>2024-05-19T09:15:04Z</time>
      </trkpt>
      <trkpt lat="45.77172" lon="3.1468">
        <ele>347.8</ele>
        <time>2024-05-19T09:15:05Z</time>
      </trkpt>
      <trkpt lat="45.77178" lon="3.14681">
        <ele>348</ele>
        <time>2024-05-19T09:15:06Z</time>
      </trkpt>
      <trkpt lat="45.77185" lon="3.14682">
        <ele>348</ele>
        <time>2024-05-19T09:15:07Z</time>
      </trkpt>
      <trkpt lat="45.77191" lon="3.14683">
        <ele>348</ele>
        <time>2024-05-19T09:15:08Z</time>
      </trkpt>
      <trkpt lat="45.77197" lon="3.14684">
        <ele>348</ele>
        <time>2024-05-19T09:15:09Z</time>
      </trkpt>
      <trkpt lat="45.77203" lon="3.14685">
        <ele>348</ele>
        <time>2024-05-19T09:15:10Z</time>
      </trkpt>
      <trkpt lat="45.77209" lon="3.14686">
        <ele>348</ele>
        <time>2024-05-19T09:15:11Z</time>
      </trkpt>
      <trkpt lat="45.77216" lon="3.14688">
        <ele>348</ele>
        <time>2024-05-19T09:15:12Z</time>
      </trkpt>
      <trkpt lat="45.77223" lon="3.14689">
        <ele>348</ele>
        <time>2024-05-19T09:15:13Z</time>
      </trkpt>
      <trkpt lat="45.77229" lon="3.1469">
        <ele>348</ele>
        <time>2024-05-19T09:15:14Z</time>
      </trkpt>
      <trkpt lat="45.77236" lon="3.14692">
        <ele>348</ele>
        <time>2024-05-19T09:15:15Z</time>
      </trkpt>
      <trkpt lat="45.77243" lon="3.14693">
        <ele>348</ele>
        <time>2024-05-19T09:15:16Z</time>
      </trkpt>
      <trkpt lat="45.7725" lon="3.14694">
        <ele>348</ele>
        <time>2024-05-19T09:15:17Z</time>
      </trkpt>
      <trkpt lat="45.77257" lon="3.14696">
        <ele>348</ele>
        <time>2024-05-19T09:15:18Z</time>
      </trkpt>
      <trkpt lat="45.77264" lon="3.14697">
        <ele>348</ele>
        <time>2024-05-19T09:15:19Z</time>
      </trkpt>
      <trkpt lat="45.77272" lon="3.14699">
        <ele>348</ele>
        <time>2024-05-19T09:15:20Z</time>
      </trkpt>
      <trkpt lat="45.77279" lon="3.147">
        <ele>348</ele>
        <time>2024-05-19T09:15:21Z</time>
      </trkpt>
      <trkpt lat="45.77286" lon="3.14701">
        <ele>348</ele>
        <time>2024-05-19T09:15:22Z</time>
      </trkpt>
      <trkpt lat="45.77293" lon="3.14703">
        <ele>348</ele>
        <time>2024-05-19T09:15:23Z</time>
      </trkpt>
      <trkpt lat="45.77301" lon="3.14704">
        <ele>348.2</ele>
        <time>2024-05-19T09:15:24Z</time>
      </trkpt>
      <trkpt lat="45.77309" lon="3.14706">
        <ele>347.8</ele>
        <time>2024-05-19T09:15:25Z</time>
      </trkpt>
      <trkpt lat="45.77317" lon="3.14707">
        <ele>347.8</ele>
        <time>2024-05-19T09:15:26Z</time>
      </trkpt>
      <trkpt lat="45.77325" lon="3.14709">
        <ele>347.4</ele>
        <time>2024-05-19T09:15:27Z</time>
      </trkpt>
      <trkpt lat="45.77333" lon="3.14711">
        <ele>347.6</ele>
        <time>2024-05-19T09:15:28Z</time>
      </trkpt>
      <trkpt lat="45.77342" lon="3.14711">
        <ele>347.6</ele>
        <time>2024-05-19T09:15:29Z</time>
      </trkpt>
      <trkpt lat="45.7735" lon="3.14712">
        <ele>347.4</ele>
        <time>2024-05-19T09:15:30Z</time>
      </trkpt>
      <trkpt lat="45.77359" lon="3.14712">
        <ele>347.4</ele>
        <time>2024-05-19T09:15:31Z</time>
      </trkpt>
      <trkpt lat="45.77367" lon="3.14713">
        <ele>347.4</ele>
        <time>2024-05-19T09:15:32Z</time>
      </trkpt>
      <trkpt lat="45.77376" lon="3.14713">
        <ele>347.2</ele>
        <time>2024-05-19T09:15:33Z</time>
      </trkpt>
      <trkpt lat="45.77384" lon="3.14714">
        <ele>347.2</ele>
        <time>2024-05-19T09:15:34Z</time>
      </trkpt>
      <trkpt lat="45.77393" lon="3.14714">
        <ele>347</ele>
        <time>2024-05-19T09:15:35Z</time>
      </trkpt>
      <trkpt lat="45.77402" lon="3.14715">
        <ele>346.8</ele>
        <time>2024-05-19T09:15:36Z</time>
      </trkpt>
      <trkpt lat="45.77411" lon="3.14715">
        <ele>346.8</ele>
        <time>2024-05-19T09:15:37Z</time>
      </trkpt>
      <trkpt lat="45.7742" lon="3.14716">
        <ele>346.6</ele>
        <time>2024-05-19T09:15:38Z</time>
      </trkpt>
      <trkpt lat="45.7743" lon="3.14716">
        <ele>346.4</ele>
        <time>2024-05-19T09:15:39Z</time>
      </trkpt>
      <trkpt lat="45.77439" lon="3.14717">
        <ele>346.2</ele>
        <time>2024-05-19T09:15:40Z</time>
      </trkpt>
      <trkpt lat="45.77448" lon="3.14717">
        <ele>346.2</ele>
        <time>2024-05-19T09:15:41Z</time>
      </trkpt>
      <trkpt lat="45.77457" lon="3.14718">
        <ele>346</ele>
        <time>2024-05-19T09:15:42Z</time>
      </trkpt>
      <trkpt lat="45.77466" lon="3.14718">
        <ele>346</ele>
        <time>2024-05-19T09:15:43Z</time>
      </trkpt>
      <trkpt lat="45.77474" lon="3.14719">
        <ele>345.8</ele>
        <time>2024-05-19T09:15:44Z</time>
      </trkpt>
      <trkpt lat="45.77491" lon="3.1472">
        <ele>345.6</ele>
        <time>2024-05-19T09:15:45Z</time>
      </trkpt>
      <trkpt lat="45.775" lon="3.1472">
        <ele>345.6</ele>
        <time>2024-05-19T09:15:46Z</time>
      </trkpt>
      <trkpt lat="45.775" lon="3.1472">
        <ele>345.4</ele>
        <time>2024-05-19T09:15:47Z</time>
      </trkpt>
      <trkpt lat="45.77508" lon="3.14721">
        <ele>345.4</ele>
        <time>2024-05-19T09:15:48Z</time>
      </trkpt>
      <trkpt lat="45.77516" lon="3.14721">
        <ele>345.2</ele>
        <time>2024-05-19T09:15:49Z</time>
      </trkpt>
      <trkpt lat="45.77524" lon="3.14722">
        <ele>345.2</ele>
        <time>2024-05-19T09:15:50Z</time>
      </trkpt>
      <trkpt lat="45.77531" lon="3.14722">
        <ele>345</ele>
        <time>2024-05-19T09:15:51Z</time>
      </trkpt>
      <trkpt lat="45.77539" lon="3.14724">
        <ele>345</ele>
        <time>2024-05-19T09:15:52Z</time>
      </trkpt>
      <trkpt lat="45.77547" lon="3.14725">
        <ele>344.8</ele>
        <time>2024-05-19T09:15:53Z</time>
      </trkpt>
      <trkpt lat="45.77555" lon="3.14727">
        <ele>344.8</ele>
        <time>2024-05-19T09:15:54Z</time>
      </trkpt>
      <trkpt lat="45.77562" lon="3.14728">
        <ele>344.8</ele>
        <time>2024-05-19T09:15:55Z</time>
      </trkpt>
      <trkpt lat="45.7757" lon="3.1473">
        <ele>344.6</ele>
        <time>2024-05-19T09:15:56Z</time>
      </trkpt>
      <trkpt lat="45.77578" lon="3.14732">
        <ele>344.6</ele>
        <time>2024-05-19T09:15:57Z</time>
      </trkpt>
      <trkpt lat="45.77586" lon="3.14736">
        <ele>344.6</ele>
        <time>2024-05-19T09:15:58Z</time>
      </trkpt>
      <trkpt lat="45.77593" lon="3.14739">
        <ele>344.4</ele>
        <time>2024-05-19T09:15:59Z</time>
      </trkpt>
      <trkpt lat="45.776" lon="3.14743">
        <ele>344.4</ele>
        <time>2024-05-19T09:16:00Z</time>
      </trkpt>
      <trkpt lat="45.77608" lon="3.14746">
        <ele>344.4</ele>
        <time>2024-05-19T09:16:01Z</time>
      </trkpt>
      <trkpt lat="45.77615" lon="3.1475">
        <ele>344.4</ele>
        <time>2024-05-19T09:16:02Z</time>
      </trkpt>
      <trkpt lat="45.77623" lon="3.14753">
        <ele>344.2</ele>
        <time>2024-05-19T09:16:03Z</time>
      </trkpt>
      <trkpt lat="45.7763" lon="3.14757">
        <ele>344.2</ele>
        <time>2024-05-19T09:16:04Z</time>
      </trkpt>
      <trkpt lat="45.77637" lon="3.1476">
        <ele>344.2</ele>
        <time>2024-05-19T09:16:05Z</time>
      </trkpt>
      <trkpt lat="45.77644" lon="3.14763">
        <ele>344.2</ele>
        <time>2024-05-19T09:16:06Z</time>
      </trkpt>
      <trkpt lat="45.77651" lon="3.14766">
        <ele>344</ele>
        <time>2024-05-19T09:16:07Z</time>
      </trkpt>
      <trkpt lat="45.77658" lon="3.14769">
        <ele>344</ele>
        <time>2024-05-19T09:16:08Z</time>
      </trkpt>
      <trkpt lat="45.77671" lon="3.14775">
        <ele>344</ele>
        <time>2024-05-19T09:16:09Z</time>
      </trkpt>
      <trkpt lat="45.77671" lon="3.14775">
        <ele>343.8</ele>
        <time>2024-05-19T09:16:10Z</time>
      </trkpt>
      <trkpt lat="45.77677" lon="3.14778">
        <ele>343.8</ele>
        <time>2024-05-19T09:16:11Z</time>
      </trkpt>
      <trkpt lat="45.77684" lon="3.14781">
        <ele>343.6</ele>
        <time>2024-05-19T09:16:12Z</time>
      </trkpt>
      <trkpt lat="45.77697" lon="3.14787">
        <ele>343.6</ele>
        <time>2024-05-19T09:16:13Z</time>
      </trkpt>
      <trkpt lat="45.77697" lon="3.14787">
        <ele>343.6</ele>
        <time>2024-05-19T09:16:14Z</time>
      </trkpt>
      <trkpt lat="45.77704" lon="3.14791">
        <ele>343.6</ele>
        <time>2024-05-19T09:16:15Z</time>
      </trkpt>
      <trkpt lat="45.7771" lon="3.14794">
        <ele>343.6</ele>
        <time>2024-05-19T09:16:16Z</time>
      </trkpt>
      <trkpt lat="45.77725" lon="3.14799">
        <ele>343.4</ele>
        <time>2024-05-19T09:16:17Z</time>
      </trkpt>
      <trkpt lat="45.77725" lon="3.14799">
        <ele>343.4</ele>
        <time>2024-05-19T09:16:18Z</time>
      </trkpt>
      <trkpt lat="45.77732" lon="3.14799">
        <ele>343.4</ele>
        <time>2024-05-19T09:16:19Z</time>
      </trkpt>
      <trkpt lat="45.77739" lon="3.14799">
        <ele>343.4</ele>
        <time>2024-05-19T09:16:20Z</time>
      </trkpt>
      <trkpt lat="45.77747" lon="3.14799">
        <ele>343.4</ele>
        <time>2024-05-19T09:16:21Z</time>
      </trkpt>
      <trkpt lat="45.77761" lon="3.14799">
        <ele>343.2</ele>
        <time>2024-05-19T09:16:22Z</time>
      </trkpt>
      <trkpt lat="45.77761" lon="3.14799">
        <ele>343.2</ele>
        <time>2024-05-19T09:16:23Z</time>
      </trkpt>
      <trkpt lat="45.77768" lon="3.14799">
        <ele>343.2</ele>
        <time>2024-05-19T09:16:24Z</time>
      </trkpt>
      <trkpt lat="45.77776" lon="3.14799">
        <ele>343.2</ele>
        <time>2024-05-19T09:16:25Z</time>
      </trkpt>
      <trkpt lat="45.77789" lon="3.14795">
        <ele>343</ele>
        <time>2024-05-19T09:16:26Z</time>
      </trkpt>
      <trkpt lat="45.77789" lon="3.14795">
        <ele>343</ele>
        <time>2024-05-19T09:16:27Z</time>
      </trkpt>
      <trkpt lat="45.77796" lon="3.14793">
        <ele>343</ele>
        <time>2024-05-19T09:16:28Z</time>
      </trkpt>
      <trkpt lat="45.77802" lon="3.14791">
        <ele>343</ele>
        <time>2024-05-19T09:16:29Z</time>
      </trkpt>
      <trkpt lat="45.77814" lon="3.14787">
        <ele>343</ele>
        <time>2024-05-19T09:16:30Z</time>
      </trkpt>
      <trkpt lat="45.77821" lon="3.14785">
        <ele>343</ele>
        <time>2024-05-19T09:16:31Z</time>
      </trkpt>
      <trkpt lat="45.77821" lon="3.14785">
        <ele>342.8</ele>
        <time>2024-05-19T09:16:32Z</time>
      </trkpt>
      <trkpt lat="45.77826" lon="3.14783">
        <ele>342.8</ele>
        <time>2024-05-19T09:16:33Z</time>
      </trkpt>
      <trkpt lat="45.77832" lon="3.14781">
        <ele>342.8</ele>
        <time>2024-05-19T09:16:34Z</time>
      </trkpt>
      <trkpt lat="45.77844" lon="3.14778">
        <ele>342.6</ele>
        <time>2024-05-19T09:16:35Z</time>
      </trkpt>
      <trkpt lat="45.77844" lon="3.14778">
        <ele>342.6</ele>
        <time>2024-05-19T09:16:36Z</time>
      </trkpt>
      <trkpt lat="45.77851" lon="3.14776">
        <ele>342.6</ele>
        <time>2024-05-19T09:16:37Z</time>
      </trkpt>
      <trkpt lat="45.77857" lon="3.14774">
        <ele>342.4</ele>
        <time>2024-05-19T09:16:38Z</time>
      </trkpt>
      <trkpt lat="45.7787" lon="3.14771">
        <ele>342.4</ele>
        <time>2024-05-19T09:16:39Z</time>
      </trkpt>
      <trkpt lat="45.7787" lon="3.14771">
        <ele>342.4</ele>
        <time>2024-05-19T09:16:40Z</time>
      </trkpt>
      <trkpt lat="45.77876" lon="3.14769">
        <ele>342.2</ele>
        <time>2024-05-19T09:16:41Z</time>
      </trkpt>
      <trkpt lat="45.77883" lon="3.14767">
        <ele>342.2</ele>
        <time>2024-05-19T09:16:42Z</time>
      </trkpt>
      <trkpt lat="45.77895" lon="3.14768">
        <ele>342.2</ele>
        <time>2024-05-19T09:16:43Z</time>
      </trkpt>
      <trkpt lat="45.77895" lon="3.14768">
        <ele>342.2</ele>
        <time>2024-05-19T09:16:44Z</time>
      </trkpt>
      <trkpt lat="45.77901" lon="3.14772">
        <ele>342.2</ele>
        <time>2024-05-19T09:16:45Z</time>
      </trkpt>
      <trkpt lat="45.77907" lon="3.14776">
        <ele>342</ele>
        <time>2024-05-19T09:16:46Z</time>
      </trkpt>
      <trkpt lat="45.77915" lon="3.14776">
        <ele>342</ele>
        <time>2024-05-19T09:16:47Z</time>
      </trkpt>
      <trkpt lat="45.77928" lon="3.14768">
        <ele>342</ele>
        <time>2024-05-19T09:16:48Z</time>
      </trkpt>
      <trkpt lat="45.77928" lon="3.14768">
        <ele>341.8</ele>
        <time>2024-05-19T09:16:49Z</time>
      </trkpt>
      <trkpt lat="45.77933" lon="3.14762">
        <ele>341.8</ele>
        <time>2024-05-19T09:16:50Z</time>
      </trkpt>
      <trkpt lat="45.77939" lon="3.14743">
        <ele>341.8</ele>
        <time>2024-05-19T09:16:51Z</time>
      </trkpt>
      <trkpt lat="45.77939" lon="3.14743">
        <ele>341.8</ele>
        <time>2024-05-19T09:16:52Z</time>
      </trkpt>
      <trkpt lat="45.77941" lon="3.14735">
        <ele>341.8</ele>
        <time>2024-05-19T09:16:53Z</time>
      </trkpt>
      <trkpt lat="45.77948" lon="3.14729">
        <ele>341.8</ele>
        <time>2024-05-19T09:16:54Z</time>
      </trkpt>
      <trkpt lat="45.77954" lon="3.14725">
        <ele>341.6</ele>
        <time>2024-05-19T09:16:55Z</time>
      </trkpt>
      <trkpt lat="45.77967" lon="3.14715">
        <ele>341.6</ele>
        <time>2024-05-19T09:16:56Z</time>
      </trkpt>
      <trkpt lat="45.77967" lon="3.14715">
        <ele>341.6</ele>
        <time>2024-05-19T09:16:57Z</time>
      </trkpt>
      <trkpt lat="45.77973" lon="3.14711">
        <ele>341.6</ele>
        <time>2024-05-19T09:16:58Z</time>
      </trkpt>
      <trkpt lat="45.77979" lon="3.14706">
        <ele>341.6</ele>
        <time>2024-05-19T09:16:59Z</time>
      </trkpt>
      <trkpt lat="45.77986" lon="3.14702">
        <ele>341.4</ele>
        <time>2024-05-19T09:17:00Z</time>
      </trkpt>
      <trkpt lat="45.77992" lon="3.14697">
        <ele>341.4</ele>
        <time>2024-05-19T09:17:01Z</time>
      </trkpt>
      <trkpt lat="45.77998" lon="3.14693">
        <ele>341.4</ele>
        <time>2024-05-19T09:17:02Z</time>
      </trkpt>
      <trkpt lat="45.78004" lon="3.14688">
        <ele>341.2</ele>
        <time>2024-05-19T09:17:03Z</time>
      </trkpt>
      <trkpt lat="45.7801" lon="3.14684">
        <ele>341.2</ele>
        <time>2024-05-19T09:17:04Z</time>
      </trkpt>
      <trkpt lat="45.78016" lon="3.14679">
        <ele>341.2</ele>
        <time>2024-05-19T09:17:05Z</time>
      </trkpt>
      <trkpt lat="45.78022" lon="3.14675">
        <ele>341</ele>
        <time>2024-05-19T09:17:06Z</time>
      </trkpt>
      <trkpt lat="45.78028" lon="3.14671">
        <ele>341</ele>
        <time>2024-05-19T09:17:07Z</time>
      </trkpt>
      <trkpt lat="45.78035" lon="3.14667">
        <ele>341</ele>
        <time>2024-05-19T09:17:08Z</time>
      </trkpt>
      <trkpt lat="45.78041" lon="3.14664">
        <ele>341</ele>
        <time>2024-05-19T09:17:09Z</time>
      </trkpt>
      <trkpt lat="45.78047" lon="3.14661">
        <ele>340.8</ele>
        <time>2024-05-19T09:17:10Z</time>
      </trkpt>
      <trkpt lat="45.78053" lon="3.14658">
        <ele>340.8</ele>
        <time>2024-05-19T09:17:11Z</time>
      </trkpt>
      <trkpt lat="45.78059" lon="3.14654">
        <ele>340.8</ele>
        <time>2024-05-19T09:17:12Z</time>
      </trkpt>
      <trkpt lat="45.78066" lon="3.14651">
        <ele>340.8</ele>
        <time>2024-05-19T09:17:13Z</time>
      </trkpt>
      <trkpt lat="45.78072" lon="3.14648">
        <ele>340.6</ele>
        <time>2024-05-19T09:17:14Z</time>
      </trkpt>
      <trkpt lat="45.78078" lon="3.14645">
        <ele>340.6</ele>
        <time>2024-05-19T09:17:15Z</time>
      </trkpt>
      <trkpt lat="45.78084" lon="3.14641">
        <ele>340.6</ele>
        <time>2024-05-19T09:17:16Z</time>
      </trkpt>
      <trkpt lat="45.78091" lon="3.14638">
        <ele>340.6</ele>
        <time>2024-05-19T09:17:17Z</time>
      </trkpt>
      <trkpt lat="45.78097" lon="3.14635">
        <ele>340.6</ele>
        <time>2024-05-19T09:17:18Z</time>
      </trkpt>
      <trkpt lat="45.78103" lon="3.14631">
        <ele>340.6</ele>
        <time>2024-05-19T09:17:19Z</time>
      </trkpt>
      <trkpt lat="45.7811" lon="3.14628">
        <ele>340.6</ele>
        <time>2024-05-19T09:17:20Z</time>
      </trkpt>
      <trkpt lat="45.78116" lon="3.14625">
        <ele>340.6</ele>
        <time>2024-05-19T09:17:21Z</time>
      </trkpt>
      <trkpt lat="45.78123" lon="3.14621">
        <ele>340.4</ele>
        <time>2024-05-19T09:17:22Z</time>
      </trkpt>
      <trkpt lat="45.78129" lon="3.14616">
        <ele>340.4</ele>
        <time>2024-05-19T09:17:23Z</time>
      </trkpt>
      <trkpt lat="45.78135" lon="3.14612">
        <ele>340.4</ele>
        <time>2024-05-19T09:17:24Z</time>
      </trkpt>
      <trkpt lat="45.78141" lon="3.14607">
        <ele>340.4</ele>
        <time>2024-05-19T09:17:25Z</time>
      </trkpt>
      <trkpt lat="45.78147" lon="3.14601">
        <ele>340.4</ele>
        <time>2024-05-19T09:17:26Z</time>
      </trkpt>
      <trkpt lat="45.78153" lon="3.14596">
        <ele>340.4</ele>
        <time>2024-05-19T09:17:27Z</time>
      </trkpt>
      <trkpt lat="45.78159" lon="3.14591">
        <ele>340.4</ele>
        <time>2024-05-19T09:17:28Z</time>
      </trkpt>
      <trkpt lat="45.78165" lon="3.14586">
        <ele>340.2</ele>
        <time>2024-05-19T09:17:29Z</time>
      </trkpt>
      <trkpt lat="45.78171" lon="3.14581">
        <ele>340.2</ele>
        <time>2024-05-19T09:17:30Z</time>
      </trkpt>
      <trkpt lat="45.78177" lon="3.14576">
        <ele>340.2</ele>
        <time>2024-05-19T09:17:31Z</time>
      </trkpt>
      <trkpt lat="45.78183" lon="3.14571">
        <ele>340.2</ele>
        <time>2024-05-19T09:17:32Z</time>
      </trkpt>
      <trkpt lat="45.78189" lon="3.14566">
        <ele>340</ele>
        <time>2024-05-19T09:17:33Z</time>
      </trkpt>
      <trkpt lat="45.78195" lon="3.1456">
        <ele>340.2</ele>
        <time>2024-05-19T09:17:34Z</time>
      </trkpt>
      <trkpt lat="45.78201" lon="3.14554">
        <ele>340</ele>
        <time>2024-05-19T09:17:35Z</time>
      </trkpt>
      <trkpt lat="45.78207" lon="3.14548">
        <ele>340</ele>
        <time>2024-05-19T09:17:36Z</time>
      </trkpt>
      <trkpt lat="45.78213" lon="3.14542">
        <ele>340</ele>
        <time>2024-05-19T09:17:37Z</time>
      </trkpt>
      <trkpt lat="45.78219" lon="3.14535">
        <ele>340</ele>
        <time>2024-05-19T09:17:38Z</time>
      </trkpt>
      <trkpt lat="45.78225" lon="3.14529">
        <ele>340</ele>
        <time>2024-05-19T09:17:39Z</time>
      </trkpt>
      <trkpt lat="45.78231" lon="3.14522">
        <ele>339.8</ele>
        <time>2024-05-19T09:17:40Z</time>
      </trkpt>
      <trkpt lat="45.78236" lon="3.14516">
        <ele>339.8</ele>
        <time>2024-05-19T09:17:41Z</time>
      </trkpt>
      <trkpt lat="45.78242" lon="3.14509">
        <ele>339.8</ele>
        <time>2024-05-19T09:17:42Z</time>
      </trkpt>
      <trkpt lat="45.78248" lon="3.14503">
        <ele>339.8</ele>
        <time>2024-05-19T09:17:43Z</time>
      </trkpt>
      <trkpt lat="45.78254" lon="3.14497">
        <ele>339.6</ele>
        <time>2024-05-19T09:17:44Z</time>
      </trkpt>
      <trkpt lat="45.7826" lon="3.14491">
        <ele>339.6</ele>
        <time>2024-05-19T09:17:45Z</time>
      </trkpt>
      <trkpt lat="45.78265" lon="3.14484">
        <ele>339.6</ele>
        <time>2024-05-19T09:17:46Z</time>
      </trkpt>
      <trkpt lat="45.78271" lon="3.14478">
        <ele>339.4</ele>
        <time>2024-05-19T09:17:47Z</time>
      </trkpt>
      <trkpt lat="45.78277" lon="3.14472">
        <ele>339.4</ele>
        <time>2024-05-19T09:17:48Z</time>
      </trkpt>
      <trkpt lat="45.78282" lon="3.14465">
        <ele>339.4</ele>
        <time>2024-05-19T09:17:49Z</time>
      </trkpt>
      <trkpt lat="45.78288" lon="3.14459">
        <ele>339.4</ele>
        <time>2024-05-19T09:17:50Z</time>
      </trkpt>
      <trkpt lat="45.78293" lon="3.14452">
        <ele>339.2</ele>
        <time>2024-05-19T09:17:51Z</time>
      </trkpt>
      <trkpt lat="45.78299" lon="3.14445">
        <ele>339.2</ele>
        <time>2024-05-19T09:17:52Z</time>
      </trkpt>
      <trkpt lat="45.78304" lon="3.14439">
        <ele>339.2</ele>
        <time>2024-05-19T09:17:53Z</time>
      </trkpt>
      <trkpt lat="45.78309" lon="3.14432">
        <ele>339.2</ele>
        <time>2024-05-19T09:17:54Z</time>
      </trkpt>
      <trkpt lat="45.78314" lon="3.14426">
        <ele>339.2</ele>
        <time>2024-05-19T09:17:55Z</time>
      </trkpt>
      <trkpt lat="45.78319" lon="3.1442">
        <ele>339</ele>
        <time>2024-05-19T09:17:56Z</time>
      </trkpt>
      <trkpt lat="45.78324" lon="3.14414">
        <ele>339</ele>
        <time>2024-05-19T09:17:57Z</time>
      </trkpt>
      <trkpt lat="45.78329" lon="3.14408">
        <ele>339</ele>
        <time>2024-05-19T09:17:58Z</time>
      </trkpt>
      <trkpt lat="45.78335" lon="3.14403">
        <ele>339</ele>
        <time>2024-05-19T09:17:59Z</time>
      </trkpt>
      <trkpt lat="45.78341" lon="3.14407">
        <ele>339</ele>
        <time>2024-05-19T09:18:00Z</time>
      </trkpt>
      <trkpt lat="45.78349" lon="3.14406">
        <ele>339</ele>
        <time>2024-05-19T09:18:01Z</time>
      </trkpt>
      <trkpt lat="45.78355" lon="3.14404">
        <ele>339</ele>
        <time>2024-05-19T09:18:02Z</time>
      </trkpt>
      <trkpt lat="45.78364" lon="3.14399">
        <ele>339</ele>
        <time>2024-05-19T09:18:03Z</time>
      </trkpt>
      <trkpt lat="45.78367" lon="3.14391">
        <ele>339</ele>
        <time>2024-05-19T09:18:04Z</time>
      </trkpt>
      <trkpt lat="45.78368" lon="3.1438">
        <ele>339</ele>
        <time>2024-05-19T09:18:05Z</time>
      </trkpt>
      <trkpt lat="45.78368" lon="3.14371">
        <ele>339</ele>
        <time>2024-05-19T09:18:06Z</time>
      </trkpt>
      <trkpt lat="45.78368" lon="3.14363">
        <ele>339</ele>
        <time>2024-05-19T09:18:07Z</time>
      </trkpt>
      <trkpt lat="45.78374" lon="3.14355">
        <ele>339</ele>
        <time>2024-05-19T09:18:08Z</time>
      </trkpt>
      <trkpt lat="45.78378" lon="3.14348">
        <ele>339</ele>
        <time>2024-05-19T09:18:09Z</time>
      </trkpt>
      <trkpt lat="45.78383" lon="3.14342">
        <ele>338.8</ele>
        <time>2024-05-19T09:18:10Z</time>
      </trkpt>
      <trkpt lat="45.78387" lon="3.14335">
        <ele>338.8</ele>
        <time>2024-05-19T09:18:11Z</time>
      </trkpt>
      <trkpt lat="45.78392" lon="3.14328">
        <ele>339</ele>
        <time>2024-05-19T09:18:12Z</time>
      </trkpt>
      <trkpt lat="45.78396" lon="3.14321">
        <ele>339</ele>
        <time>2024-05-19T09:18:13Z</time>
      </trkpt>
      <trkpt lat="45.78401" lon="3.14314">
        <ele>339</ele>
        <time>2024-05-19T09:18:14Z</time>
      </trkpt>
      <trkpt lat="45.78405" lon="3.14308">
        <ele>339</ele>
        <time>2024-05-19T09:18:15Z</time>
      </trkpt>
      <trkpt lat="45.7841" lon="3.14302">
        <ele>338.8</ele>
        <time>2024-05-19T09:18:16Z</time>
      </trkpt>
      <trkpt lat="45.78415" lon="3.14296">
        <ele>339</ele>
        <time>2024-05-19T09:18:17Z</time>
      </trkpt>
      <trkpt lat="45.7842" lon="3.14289">
        <ele>339.2</ele>
        <time>2024-05-19T09:18:18Z</time>
      </trkpt>
      <trkpt lat="45.78425" lon="3.14283">
        <ele>339.4</ele>
        <time>2024-05-19T09:18:19Z</time>
      </trkpt>
      <trkpt lat="45.7843" lon="3.14277">
        <ele>339.2</ele>
        <time>2024-05-19T09:18:20Z</time>
      </trkpt>
      <trkpt lat="45.78435" lon="3.14271">
        <ele>339.4</ele>
        <time>2024-05-19T09:18:21Z</time>
      </trkpt>
      <trkpt lat="45.7844" lon="3.14265">
        <ele>339.4</ele>
        <time>2024-05-19T09:18:22Z</time>
      </trkpt>
      <trkpt lat="45.78445" lon="3.14258">
        <ele>339.4</ele>
        <time>2024-05-19T09:18:23Z</time>
      </trkpt>
      <trkpt lat="45.7845" lon="3.14253">
        <ele>339.4</ele>
        <time>2024-05-19T09:18:24Z</time>
      </trkpt>
      <trkpt lat="45.78454" lon="3.14247">
        <ele>339.4</ele>
        <time>2024-05-19T09:18:25Z</time>
      </trkpt>
      <trkpt lat="45.78459" lon="3.14242">
        <ele>339.4</ele>
        <time>2024-05-19T09:18:26Z</time>
      </trkpt>
      <trkpt lat="45.78465" lon="3.14237">
        <ele>339.4</ele>
        <time>2024-05-19T09:18:27Z</time>
      </trkpt>
      <trkpt lat="45.7847" lon="3.14231">
        <ele>339.4</ele>
        <time>2024-05-19T09:18:28Z</time>
      </trkpt>
      <trkpt lat="45.78475" lon="3.14227">
        <ele>339.4</ele>
        <time>2024-05-19T09:18:29Z</time>
      </trkpt>
      <trkpt lat="45.78483" lon="3.14226">
        <ele>339.4</ele>
        <time>2024-05-19T09:18:30Z</time>
      </trkpt>
      <trkpt lat="45.78489" lon="3.14227">
        <ele>339.4</ele>
        <time>2024-05-19T09:18:31Z</time>
      </trkpt>
      <trkpt lat="45.78495" lon="3.14225">
        <ele>339.4</ele>
        <time>2024-05-19T09:18:32Z</time>
      </trkpt>
      <trkpt lat="45.785" lon="3.14219">
        <ele>339.4</ele>
        <time>2024-05-19T09:18:33Z</time>
      </trkpt>
      <trkpt lat="45.78502" lon="3.1421">
        <ele>339.2</ele>
        <time>2024-05-19T09:18:34Z</time>
      </trkpt>
      <trkpt lat="45.78506" lon="3.14202">
        <ele>339.4</ele>
        <time>2024-05-19T09:18:35Z</time>
      </trkpt>
      <trkpt lat="45.7851" lon="3.14194">
        <ele>339.2</ele>
        <time>2024-05-19T09:18:36Z</time>
      </trkpt>
      <trkpt lat="45.78521" lon="3.14182">
        <ele>339.6</ele>
        <time>2024-05-19T09:18:37Z</time>
      </trkpt>
      <trkpt lat="45.78521" lon="3.14182">
        <ele>339.4</ele>
        <time>2024-05-19T09:18:38Z</time>
      </trkpt>
      <trkpt lat="45.78527" lon="3.14176">
        <ele>339.2</ele>
        <time>2024-05-19T09:18:39Z</time>
      </trkpt>
      <trkpt lat="45.78533" lon="3.14171">
        <ele>339</ele>
        <time>2024-05-19T09:18:40Z</time>
      </trkpt>
      <trkpt lat="45.78539" lon="3.14166">
        <ele>338.8</ele>
        <time>2024-05-19T09:18:41Z</time>
      </trkpt>
      <trkpt lat="45.78545" lon="3.14161">
        <ele>338.8</ele>
        <time>2024-05-19T09:18:42Z</time>
      </trkpt>
      <trkpt lat="45.78551" lon="3.14156">
        <ele>339</ele>
        <time>2024-05-19T09:18:43Z</time>
      </trkpt>
      <trkpt lat="45.78557" lon="3.14151">
        <ele>339</ele>
        <time>2024-05-19T09:18:44Z</time>
      </trkpt>
      <trkpt lat="45.78563" lon="3.14146">
        <ele>338.8</ele>
        <time>2024-05-19T09:18:45Z</time>
      </trkpt>
      <trkpt lat="45.78569" lon="3.14141">
        <ele>338.8</ele>
        <time>2024-05-19T09:18:46Z</time>
      </trkpt>
      <trkpt lat="45.78576" lon="3.14136">
        <ele>339</ele>
        <time>2024-05-19T09:18:47Z</time>
      </trkpt>
      <trkpt lat="45.78582" lon="3.14131">
        <ele>339</ele>
        <time>2024-05-19T09:18:48Z</time>
      </trkpt>
      <trkpt lat="45.78588" lon="3.14126">
        <ele>338.8</ele>
        <time>2024-05-19T09:18:49Z</time>
      </trkpt>
      <trkpt lat="45.78594" lon="3.14121">
        <ele>339</ele>
        <time>2024-05-19T09:18:50Z</time>
      </trkpt>
      <trkpt lat="45.78601" lon="3.14117">
        <ele>339</ele>
        <time>2024-05-19T09:18:51Z</time>
      </trkpt>
      <trkpt lat="45.78607" lon="3.14112">
        <ele>339</ele>
        <time>2024-05-19T09:18:52Z</time>
      </trkpt>
      <trkpt lat="45.78613" lon="3.14107">
        <ele>339</ele>
        <time>2024-05-19T09:18:53Z</time>
      </trkpt>
      <trkpt lat="45.78619" lon="3.14103">
        <ele>338.8</ele>
        <time>2024-05-19T09:18:54Z</time>
      </trkpt>
      <trkpt lat="45.78626" lon="3.14098">
        <ele>339</ele>
        <time>2024-05-19T09:18:55Z</time>
      </trkpt>
      <trkpt lat="45.78632" lon="3.14093">
        <ele>339</ele>
        <time>2024-05-19T09:18:56Z</time>
      </trkpt>
      <trkpt lat="45.78638" lon="3.14089">
        <ele>339</ele>
        <time>2024-05-19T09:18:57Z</time>
      </trkpt>
      <trkpt lat="45.78644" lon="3.14084">
        <ele>339</ele>
        <time>2024-05-19T09:18:58Z</time>
      </trkpt>
      <trkpt lat="45.7865" lon="3.1408">
        <ele>338.8</ele>
        <time>2024-05-19T09:18:59Z</time>
      </trkpt>
      <trkpt lat="45.78656" lon="3.14075">
        <ele>338.8</ele>
        <time>2024-05-19T09:19:00Z</time>
      </trkpt>
      <trkpt lat="45.78663" lon="3.14071">
        <ele>338.8</ele>
        <time>2024-05-19T09:19:01Z</time>
      </trkpt>
      <trkpt lat="45.78669" lon="3.14066">
        <ele>338.6</ele>
        <time>2024-05-19T09:19:02Z</time>
      </trkpt>
      <trkpt lat="45.78675" lon="3.14061">
        <ele>338.6</ele>
        <time>2024-05-19T09:19:03Z</time>
      </trkpt>
      <trkpt lat="45.78681" lon="3.14057">
        <ele>338.6</ele>
        <time>2024-05-19T09:19:04Z</time>
      </trkpt>
      <trkpt lat="45.78687" lon="3.14052">
        <ele>338.6</ele>
        <time>2024-05-19T09:19:05Z</time>
      </trkpt>
      <trkpt lat="45.78693" lon="3.14048">
        <ele>338.6</ele>
        <time>2024-05-19T09:19:06Z</time>
      </trkpt>
      <trkpt lat="45.78699" lon="3.14043">
        <ele>338.4</ele>
        <time>2024-05-19T09:19:07Z</time>
      </trkpt>
      <trkpt lat="45.78705" lon="3.14039">
        <ele>338.4</ele>
        <time>2024-05-19T09:19:08Z</time>
      </trkpt>
      <trkpt lat="45.78717" lon="3.1404">
        <ele>338.4</ele>
        <time>2024-05-19T09:19:09Z</time>
      </trkpt>
      <trkpt lat="45.78721" lon="3.14047">
        <ele>338.4</ele>
        <time>2024-05-19T09:19:10Z</time>
      </trkpt>
      <trkpt lat="45.78726" lon="3.14055">
        <ele>338.2</ele>
        <time>2024-05-19T09:19:11Z</time>
      </trkpt>
      <trkpt lat="45.7873" lon="3.14063">
        <ele>338.2</ele>
        <time>2024-05-19T09:19:12Z</time>
      </trkpt>
      <trkpt lat="45.78735" lon="3.14072">
        <ele>338</ele>
        <time>2024-05-19T09:19:13Z</time>
      </trkpt>
      <trkpt lat="45.78739" lon="3.1408">
        <ele>338</ele>
        <time>2024-05-19T09:19:14Z</time>
      </trkpt>
      <trkpt lat="45.78744" lon="3.14088">
        <ele>338</ele>
        <time>2024-05-19T09:19:15Z</time>
      </trkpt>
      <trkpt lat="45.78749" lon="3.14096">
        <ele>337.8</ele>
        <time>2024-05-19T09:19:16Z</time>
      </trkpt>
      <trkpt lat="45.78753" lon="3.14105">
        <ele>337.8</ele>
        <time>2024-05-19T09:19:17Z</time>
      </trkpt>
      <trkpt lat="45.78758" lon="3.14113">
        <ele>337.8</ele>
        <time>2024-05-19T09:19:18Z</time>
      </trkpt>
      <trkpt lat="45.78763" lon="3.14123">
        <ele>337.8</ele>
        <time>2024-05-19T09:19:19Z</time>
      </trkpt>
      <trkpt lat="45.78764" lon="3.14133">
        <ele>337.6</ele>
        <time>2024-05-19T09:19:20Z</time>
      </trkpt>
      <trkpt lat="45.78766" lon="3.14144">
        <ele>337.6</ele>
        <time>2024-05-19T09:19:21Z</time>
      </trkpt>
      <trkpt lat="45.78767" lon="3.14154">
        <ele>337.6</ele>
        <time>2024-05-19T09:19:22Z</time>
      </trkpt>
      <trkpt lat="45.78766" lon="3.14164">
        <ele>337.6</ele>
        <time>2024-05-19T09:19:23Z</time>
      </trkpt>
      <trkpt lat="45.78765" lon="3.14175">
        <ele>337.6</ele>
        <time>2024-05-19T09:19:24Z</time>
      </trkpt>
      <trkpt lat="45.78763" lon="3.14185">
        <ele>337.6</ele>
        <time>2024-05-19T09:19:25Z</time>
      </trkpt>
      <trkpt lat="45.7876" lon="3.14195">
        <ele>337.6</ele>
        <time>2024-05-19T09:19:26Z</time>
      </trkpt>
      <trkpt lat="45.78757" lon="3.14204">
        <ele>337.6</ele>
        <time>2024-05-19T09:19:27Z</time>
      </trkpt>
      <trkpt lat="45.78755" lon="3.14213">
        <ele>337.6</ele>
        <time>2024-05-19T09:19:28Z</time>
      </trkpt>
      <trkpt lat="45.78752" lon="3.14221">
        <ele>337.6</ele>
        <time>2024-05-19T09:19:29Z</time>
      </trkpt>
      <trkpt lat="45.7875" lon="3.14228">
        <ele>337.8</ele>
        <time>2024-05-19T09:19:30Z</time>
      </trkpt>
      <trkpt lat="45.78749" lon="3.14235">
        <ele>337.8</ele>
        <time>2024-05-19T09:19:31Z</time>
      </trkpt>
      <trkpt lat="45.78747" lon="3.14239">
        <ele>337.8</ele>
        <time>2024-05-19T09:19:32Z</time>
      </trkpt>
      <trkpt lat="45.7875" lon="3.14248">
        <ele>337.4</ele>
        <time>2024-05-19T09:19:33Z</time>
      </trkpt>
      <trkpt lat="45.78754" lon="3.1425">
        <ele>337.4</ele>
        <time>2024-05-19T09:19:34Z</time>
      </trkpt>
      <trkpt lat="45.78759" lon="3.14253">
        <ele>337.4</ele>
        <time>2024-05-19T09:19:35Z</time>
      </trkpt>
      <trkpt lat="45.78765" lon="3.14255">
        <ele>337.8</ele>
        <time>2024-05-19T09:19:36Z</time>
      </trkpt>
      <trkpt lat="45.78771" lon="3.14259">
        <ele>337.6</ele>
        <time>2024-05-19T09:19:37Z</time>
      </trkpt>
      <trkpt lat="45.78777" lon="3.14262">
        <ele>337.6</ele>
        <time>2024-05-19T09:19:38Z</time>
      </trkpt>
      <trkpt lat="45.78783" lon="3.14265">
        <ele>337.6</ele>
        <time>2024-05-19T09:19:39Z</time>
      </trkpt>
      <trkpt lat="45.78789" lon="3.14268">
        <ele>337.4</ele>
        <time>2024-05-19T09:19:40Z</time>
      </trkpt>
      <trkpt lat="45.78795" lon="3.14271">
        <ele>337.4</ele>
        <time>2024-05-19T09:19:41Z</time>
      </trkpt>
      <trkpt lat="45.78802" lon="3.14275">
        <ele>337.4</ele>
        <time>2024-05-19T09:19:42Z</time>
      </trkpt>
      <trkpt lat="45.78808" lon="3.14278">
        <ele>337.4</ele>
        <time>2024-05-19T09:19:43Z</time>
      </trkpt>
      <trkpt lat="45.78814" lon="3.14281">
        <ele>337.2</ele>
        <time>2024-05-19T09:19:44Z</time>
      </trkpt>
      <trkpt lat="45.78821" lon="3.14285">
        <ele>337.2</ele>
        <time>2024-05-19T09:19:45Z</time>
      </trkpt>
      <trkpt lat="45.78827" lon="3.14288">
        <ele>337.2</ele>
        <time>2024-05-19T09:19:46Z</time>
      </trkpt>
      <trkpt lat="45.78834" lon="3.14291">
        <ele>337.2</ele>
        <time>2024-05-19T09:19:47Z</time>
      </trkpt>
      <trkpt lat="45.7884" lon="3.14295">
        <ele>337</ele>
        <time>2024-05-19T09:19:48Z</time>
      </trkpt>
      <trkpt lat="45.78846" lon="3.14298">
        <ele>337</ele>
        <time>2024-05-19T09:19:49Z</time>
      </trkpt>
      <trkpt lat="45.78853" lon="3.14301">
        <ele>337</ele>
        <time>2024-05-19T09:19:50Z</time>
      </trkpt>
      <trkpt lat="45.78859" lon="3.14304">
        <ele>337</ele>
        <time>2024-05-19T09:19:51Z</time>
      </trkpt>
      <trkpt lat="45.78865" lon="3.14308">
        <ele>337</ele>
        <time>2024-05-19T09:19:52Z</time>
      </trkpt>
      <trkpt lat="45.7887" lon="3.1431">
        <ele>336.8</ele>
        <time>2024-05-19T09:19:53Z</time>
      </trkpt>
      <trkpt lat="45.78876" lon="3.14313">
        <ele>336.8</ele>
        <time>2024-05-19T09:19:54Z</time>
      </trkpt>
      <trkpt lat="45.78882" lon="3.14316">
        <ele>336.8</ele>
        <time>2024-05-19T09:19:55Z</time>
      </trkpt>
      <trkpt lat="45.78888" lon="3.1432">
        <ele>336.6</ele>
        <time>2024-05-19T09:19:56Z</time>
      </trkpt>
      <trkpt lat="45.78894" lon="3.14323">
        <ele>336.6</ele>
        <time>2024-05-19T09:19:57Z</time>
      </trkpt>
      <trkpt lat="45.789" lon="3.14326">
        <ele>336.6</ele>
        <time>2024-05-19T09:19:58Z</time>
      </trkpt>
      <trkpt lat="45.78906" lon="3.14329">
        <ele>336.6</ele>
        <time>2024-05-19T09:19:59Z</time>
      </trkpt>
      <trkpt lat="45.78912" lon="3.14332">
        <ele>336.6</ele>
        <time>2024-05-19T09:20:00Z</time>
      </trkpt>
      <trkpt lat="45.78919" lon="3.14336">
        <ele>336.6</ele>
        <time>2024-05-19T09:20:01Z</time>
      </trkpt>
      <trkpt lat="45.78925" lon="3.14339">
        <ele>336.4</ele>
        <time>2024-05-19T09:20:02Z</time>
      </trkpt>
      <trkpt lat="45.78931" lon="3.14342">
        <ele>336.4</ele>
        <time>2024-05-19T09:20:03Z</time>
      </trkpt>
      <trkpt lat="45.78938" lon="3.14345">
        <ele>336.4</ele>
        <time>2024-05-19T09:20:04Z</time>
      </trkpt>
      <trkpt lat="45.78944" lon="3.14349">
        <ele>336.4</ele>
        <time>2024-05-19T09:20:05Z</time>
      </trkpt>
      <trkpt lat="45.7895" lon="3.14352">
        <ele>336.4</ele>
        <time>2024-05-19T09:20:06Z</time>
      </trkpt>
      <trkpt lat="45.78956" lon="3.14355">
        <ele>336.4</ele>
        <time>2024-05-19T09:20:07Z</time>
      </trkpt>
      <trkpt lat="45.78963" lon="3.14358">
        <ele>336.2</ele>
        <time>2024-05-19T09:20:08Z</time>
      </trkpt>
      <trkpt lat="45.78969" lon="3.14359">
        <ele>336.2</ele>
        <time>2024-05-19T09:20:09Z</time>
      </trkpt>
      <trkpt lat="45.78975" lon="3.14359">
        <ele>336.2</ele>
        <time>2024-05-19T09:20:10Z</time>
      </trkpt>
      <trkpt lat="45.78982" lon="3.14359">
        <ele>336.2</ele>
        <time>2024-05-19T09:20:11Z</time>
      </trkpt>
      <trkpt lat="45.78982" lon="3.14359">
        <ele>336.2</ele>
        <time>2024-05-19T09:20:12Z</time>
      </trkpt>
      <trkpt lat="45.78998" lon="3.14347">
        <ele>336</ele>
        <time>2024-05-19T09:20:13Z</time>
      </trkpt>
      <trkpt lat="45.78998" lon="3.14347">
        <ele>336</ele>
        <time>2024-05-19T09:20:14Z</time>
      </trkpt>
      <trkpt lat="45.79004" lon="3.14342">
        <ele>336</ele>
        <time>2024-05-19T09:20:15Z</time>
      </trkpt>
      <trkpt lat="45.79015" lon="3.14332">
        <ele>336</ele>
        <time>2024-05-19T09:20:16Z</time>
      </trkpt>
      <trkpt lat="45.79015" lon="3.14332">
        <ele>336</ele>
        <time>2024-05-19T09:20:17Z</time>
      </trkpt>
      <trkpt lat="45.7902" lon="3.14327">
        <ele>336</ele>
        <time>2024-05-19T09:20:18Z</time>
      </trkpt>
      <trkpt lat="45.79031" lon="3.14317">
        <ele>336</ele>
        <time>2024-05-19T09:20:19Z</time>
      </trkpt>
      <trkpt lat="45.79031" lon="3.14317">
        <ele>336</ele>
        <time>2024-05-19T09:20:20Z</time>
      </trkpt>
      <trkpt lat="45.79036" lon="3.14313">
        <ele>336</ele>
        <time>2024-05-19T09:20:21Z</time>
      </trkpt>
      <trkpt lat="45.79044" lon="3.14305">
        <ele>336</ele>
        <time>2024-05-19T09:20:22Z</time>
      </trkpt>
      <trkpt lat="45.79044" lon="3.14305">
        <ele>336</ele>
        <time>2024-05-19T09:20:23Z</time>
      </trkpt>
      <trkpt lat="45.79055" lon="3.14309">
        <ele>335.8</ele>
        <time>2024-05-19T09:20:24Z</time>
      </trkpt>
      <trkpt lat="45.79057" lon="3.14314">
        <ele>335.8</ele>
        <time>2024-05-19T09:20:25Z</time>
      </trkpt>
      <trkpt lat="45.79064" lon="3.14329">
        <ele>335.8</ele>
        <time>2024-05-19T09:20:26Z</time>
      </trkpt>
      <trkpt lat="45.79064" lon="3.14329">
        <ele>335.6</ele>
        <time>2024-05-19T09:20:27Z</time>
      </trkpt>
      <trkpt lat="45.79068" lon="3.14336">
        <ele>335.4</ele>
        <time>2024-05-19T09:20:28Z</time>
      </trkpt>
      <trkpt lat="45.79071" lon="3.14343">
        <ele>335.4</ele>
        <time>2024-05-19T09:20:29Z</time>
      </trkpt>
      <trkpt lat="45.79075" lon="3.14351">
        <ele>335.4</ele>
        <time>2024-05-19T09:20:30Z</time>
      </trkpt>
      <trkpt lat="45.79083" lon="3.14365">
        <ele>335.4</ele>
        <time>2024-05-19T09:20:31Z</time>
      </trkpt>
      <trkpt lat="45.79083" lon="3.14365">
        <ele>335.2</ele>
        <time>2024-05-19T09:20:32Z</time>
      </trkpt>
      <trkpt lat="45.79087" lon="3.14373">
        <ele>335.2</ele>
        <time>2024-05-19T09:20:33Z</time>
      </trkpt>
      <trkpt lat="45.79095" lon="3.14388">
        <ele>335.4</ele>
        <time>2024-05-19T09:20:34Z</time>
      </trkpt>
      <trkpt lat="45.79095" lon="3.14388">
        <ele>335.4</ele>
        <time>2024-05-19T09:20:35Z</time>
      </trkpt>
      <trkpt lat="45.79099" lon="3.14396">
        <ele>335.4</ele>
        <time>2024-05-19T09:20:36Z</time>
      </trkpt>
      <trkpt lat="45.79103" lon="3.14403">
        <ele>335.2</ele>
        <time>2024-05-19T09:20:37Z</time>
      </trkpt>
      <trkpt lat="45.79111" lon="3.14418">
        <ele>335.2</ele>
        <time>2024-05-19T09:20:38Z</time>
      </trkpt>
      <trkpt lat="45.79111" lon="3.14418">
        <ele>335.2</ele>
        <time>2024-05-19T09:20:39Z</time>
      </trkpt>
      <trkpt lat="45.79115" lon="3.14426">
        <ele>335.2</ele>
        <time>2024-05-19T09:20:40Z</time>
      </trkpt>
      <trkpt lat="45.79123" lon="3.14441">
        <ele>335</ele>
        <time>2024-05-19T09:20:41Z</time>
      </trkpt>
      <trkpt lat="45.79123" lon="3.14441">
        <ele>335</ele>
        <time>2024-05-19T09:20:42Z</time>
      </trkpt>
      <trkpt lat="45.79127" lon="3.14449">
        <ele>335</ele>
        <time>2024-05-19T09:20:43Z</time>
      </trkpt>
      <trkpt lat="45.79131" lon="3.14456">
        <ele>335</ele>
        <time>2024-05-19T09:20:44Z</time>
      </trkpt>
      <trkpt lat="45.79139" lon="3.14471">
        <ele>334.8</ele>
        <time>2024-05-19T09:20:45Z</time>
      </trkpt>
      <trkpt lat="45.79139" lon="3.14471">
        <ele>334.8</ele>
        <time>2024-05-19T09:20:46Z</time>
      </trkpt>
      <trkpt lat="45.79144" lon="3.14479">
        <ele>334.8</ele>
        <time>2024-05-19T09:20:47Z</time>
      </trkpt>
      <trkpt lat="45.79152" lon="3.14494">
        <ele>334.8</ele>
        <time>2024-05-19T09:20:48Z</time>
      </trkpt>
      <trkpt lat="45.79152" lon="3.14494">
        <ele>334.8</ele>
        <time>2024-05-19T09:20:49Z</time>
      </trkpt>
      <trkpt lat="45.79156" lon="3.14501">
        <ele>335</ele>
        <time>2024-05-19T09:20:50Z</time>
      </trkpt>
      <trkpt lat="45.7916" lon="3.14509">
        <ele>335</ele>
        <time>2024-05-19T09:20:51Z</time>
      </trkpt>
      <trkpt lat="45.79164" lon="3.14517">
        <ele>335</ele>
        <time>2024-05-19T09:20:52Z</time>
      </trkpt>
      <trkpt lat="45.79168" lon="3.14524">
        <ele>335</ele>
        <time>2024-05-19T09:20:53Z</time>
      </trkpt>
      <trkpt lat="45.79173" lon="3.14531">
        <ele>334.8</ele>
        <time>2024-05-19T09:20:54Z</time>
      </trkpt>
      <trkpt lat="45.79178" lon="3.14538">
        <ele>334.8</ele>
        <time>2024-05-19T09:20:55Z</time>
      </trkpt>
      <trkpt lat="45.79183" lon="3.14544">
        <ele>334.8</ele>
        <time>2024-05-19T09:20:56Z</time>
      </trkpt>
      <trkpt lat="45.79188" lon="3.14551">
        <ele>334.8</ele>
        <time>2024-05-19T09:20:57Z</time>
      </trkpt>
      <trkpt lat="45.79194" lon="3.14556">
        <ele>334.8</ele>
        <time>2024-05-19T09:20:58Z</time>
      </trkpt>
      <trkpt lat="45.792" lon="3.14562">
        <ele>334.8</ele>
        <time>2024-05-19T09:20:59Z</time>
      </trkpt>
      <trkpt lat="45.79206" lon="3.14568">
        <ele>334.8</ele>
        <time>2024-05-19T09:21:00Z</time>
      </trkpt>
      <trkpt lat="45.79211" lon="3.14573">
        <ele>334.8</ele>
        <time>2024-05-19T09:21:01Z</time>
      </trkpt>
      <trkpt lat="45.79217" lon="3.14579">
        <ele>334.8</ele>
        <time>2024-05-19T09:21:02Z</time>
      </trkpt>
      <trkpt lat="45.79223" lon="3.14584">
        <ele>334.8</ele>
        <time>2024-05-19T09:21:03Z</time>
      </trkpt>
      <trkpt lat="45.79228" lon="3.1459">
        <ele>334.8</ele>
        <time>2024-05-19T09:21:04Z</time>
      </trkpt>
      <trkpt lat="45.79234" lon="3.14595">
        <ele>334.6</ele>
        <time>2024-05-19T09:21:05Z</time>
      </trkpt>
      <trkpt lat="45.7924" lon="3.146">
        <ele>334.8</ele>
        <time>2024-05-19T09:21:06Z</time>
      </trkpt>
      <trkpt lat="45.79245" lon="3.14607">
        <ele>334.8</ele>
        <time>2024-05-19T09:21:07Z</time>
      </trkpt>
      <trkpt lat="45.79249" lon="3.14615">
        <ele>334.8</ele>
        <time>2024-05-19T09:21:08Z</time>
      </trkpt>
      <trkpt lat="45.79252" lon="3.14622">
        <ele>334.6</ele>
        <time>2024-05-19T09:21:09Z</time>
      </trkpt>
      <trkpt lat="45.79256" lon="3.14633">
        <ele>334.6</ele>
        <time>2024-05-19T09:21:10Z</time>
      </trkpt>
      <trkpt lat="45.79255" lon="3.14642">
        <ele>334.6</ele>
        <time>2024-05-19T09:21:11Z</time>
      </trkpt>
      <trkpt lat="45.79255" lon="3.1465">
        <ele>334.6</ele>
        <time>2024-05-19T09:21:12Z</time>
      </trkpt>
      <trkpt lat="45.79254" lon="3.14658">
        <ele>334.6</ele>
        <time>2024-05-19T09:21:13Z</time>
      </trkpt>
      <trkpt lat="45.79253" lon="3.14668">
        <ele>334.6</ele>
        <time>2024-05-19T09:21:14Z</time>
      </trkpt>
      <trkpt lat="45.79253" lon="3.14678">
        <ele>334.6</ele>
        <time>2024-05-19T09:21:15Z</time>
      </trkpt>
      <trkpt lat="45.79252" lon="3.14688">
        <ele>334.6</ele>
        <time>2024-05-19T09:21:16Z</time>
      </trkpt>
      <trkpt lat="45.79252" lon="3.14699">
        <ele>334.8</ele>
        <time>2024-05-19T09:21:17Z</time>
      </trkpt>
      <trkpt lat="45.79252" lon="3.14709">
        <ele>334.6</ele>
        <time>2024-05-19T09:21:18Z</time>
      </trkpt>
      <trkpt lat="45.79251" lon="3.1472">
        <ele>334.6</ele>
        <time>2024-05-19T09:21:19Z</time>
      </trkpt>
      <trkpt lat="45.79251" lon="3.1473">
        <ele>334.6</ele>
        <time>2024-05-19T09:21:20Z</time>
      </trkpt>
      <trkpt lat="45.7925" lon="3.1474">
        <ele>334.8</ele>
        <time>2024-05-19T09:21:21Z</time>
      </trkpt>
      <trkpt lat="45.7925" lon="3.1475">
        <ele>334.6</ele>
        <time>2024-05-19T09:21:22Z</time>
      </trkpt>
      <trkpt lat="45.79249" lon="3.14761">
        <ele>334.6</ele>
        <time>2024-05-19T09:21:23Z</time>
      </trkpt>
      <trkpt lat="45.79248" lon="3.14771">
        <ele>334.6</ele>
        <time>2024-05-19T09:21:24Z</time>
      </trkpt>
      <trkpt lat="45.79248" lon="3.14782">
        <ele>334.6</ele>
        <time>2024-05-19T09:21:25Z</time>
      </trkpt>
      <trkpt lat="45.79247" lon="3.14792">
        <ele>334.6</ele>
        <time>2024-05-19T09:21:26Z</time>
      </trkpt>
      <trkpt lat="45.79247" lon="3.14803">
        <ele>334.6</ele>
        <time>2024-05-19T09:21:27Z</time>
      </trkpt>
      <trkpt lat="45.79246" lon="3.14813">
        <ele>334.6</ele>
        <time>2024-05-19T09:21:28Z</time>
      </trkpt>
      <trkpt lat="45.79245" lon="3.14824">
        <ele>334.8</ele>
        <time>2024-05-19T09:21:29Z</time>
      </trkpt>
      <trkpt lat="45.79245" lon="3.14834">
        <ele>334.6</ele>
        <time>2024-05-19T09:21:30Z</time>
      </trkpt>
      <trkpt lat="45.79244" lon="3.14845">
        <ele>334.6</ele>
        <time>2024-05-19T09:21:31Z</time>
      </trkpt>
      <trkpt lat="45.79244" lon="3.14855">
        <ele>334.6</ele>
        <time>2024-05-19T09:21:32Z</time>
      </trkpt>
      <trkpt lat="45.79243" lon="3.14866">
        <ele>334.6</ele>
        <time>2024-05-19T09:21:33Z</time>
      </trkpt>
      <trkpt lat="45.79242" lon="3.14876">
        <ele>334.6</ele>
        <time>2024-05-19T09:21:34Z</time>
      </trkpt>
      <trkpt lat="45.79242" lon="3.14887">
        <ele>334.6</ele>
        <time>2024-05-19T09:21:35Z</time>
      </trkpt>
      <trkpt lat="45.79241" lon="3.14897">
        <ele>334.6</ele>
        <time>2024-05-19T09:21:36Z</time>
      </trkpt>
      <trkpt lat="45.79241" lon="3.14907">
        <ele>334.6</ele>
        <time>2024-05-19T09:21:37Z</time>
      </trkpt>
      <trkpt lat="45.7924" lon="3.14918">
        <ele>334.6</ele>
        <time>2024-05-19T09:21:38Z</time>
      </trkpt>
      <trkpt lat="45.7924" lon="3.14928">
        <ele>334.6</ele>
        <time>2024-05-19T09:21:39Z</time>
      </trkpt>
      <trkpt lat="45.79239" lon="3.14938">
        <ele>334.6</ele>
        <time>2024-05-19T09:21:40Z</time>
      </trkpt>
      <trkpt lat="45.79239" lon="3.14948">
        <ele>334.6</ele>
        <time>2024-05-19T09:21:41Z</time>
      </trkpt>
      <trkpt lat="45.79238" lon="3.14958">
        <ele>334.6</ele>
        <time>2024-05-19T09:21:42Z</time>
      </trkpt>
      <trkpt lat="45.79238" lon="3.14968">
        <ele>334.4</ele>
        <time>2024-05-19T09:21:43Z</time>
      </trkpt>
      <trkpt lat="45.79237" lon="3.14978">
        <ele>334.4</ele>
        <time>2024-05-19T09:21:44Z</time>
      </trkpt>
      <trkpt lat="45.79237" lon="3.14988">
        <ele>334.4</ele>
        <time>2024-05-19T09:21:45Z</time>
      </trkpt>
      <trkpt lat="45.79236" lon="3.14999">
        <ele>334.4</ele>
        <time>2024-05-19T09:21:46Z</time>
      </trkpt>
      <trkpt lat="45.79236" lon="3.15008">
        <ele>334.4</ele>
        <time>2024-05-19T09:21:47Z</time>
      </trkpt>
      <trkpt lat="45.79235" lon="3.15018">
        <ele>334.4</ele>
        <time>2024-05-19T09:21:48Z</time>
      </trkpt>
      <trkpt lat="45.79235" lon="3.15028">
        <ele>334.4</ele>
        <time>2024-05-19T09:21:49Z</time>
      </trkpt>
      <trkpt lat="45.79234" lon="3.15038">
        <ele>334.4</ele>
        <time>2024-05-19T09:21:50Z</time>
      </trkpt>
      <trkpt lat="45.79234" lon="3.15047">
        <ele>334.4</ele>
        <time>2024-05-19T09:21:51Z</time>
      </trkpt>
      <trkpt lat="45.79233" lon="3.15057">
        <ele>334.4</ele>
        <time>2024-05-19T09:21:52Z</time>
      </trkpt>
      <trkpt lat="45.79233" lon="3.15067">
        <ele>334.4</ele>
        <time>2024-05-19T09:21:53Z</time>
      </trkpt>
      <trkpt lat="45.79232" lon="3.15077">
        <ele>334.4</ele>
        <time>2024-05-19T09:21:54Z</time>
      </trkpt>
      <trkpt lat="45.79232" lon="3.15087">
        <ele>334.4</ele>
        <time>2024-05-19T09:21:55Z</time>
      </trkpt>
      <trkpt lat="45.79231" lon="3.15097">
        <ele>334.4</ele>
        <time>2024-05-19T09:21:56Z</time>
      </trkpt>
      <trkpt lat="45.79231" lon="3.15107">
        <ele>334.4</ele>
        <time>2024-05-19T09:21:57Z</time>
      </trkpt>
      <trkpt lat="45.7923" lon="3.15118">
        <ele>334.4</ele>
        <time>2024-05-19T09:21:58Z</time>
      </trkpt>
      <trkpt lat="45.79229" lon="3.15128">
        <ele>334.2</ele>
        <time>2024-05-19T09:21:59Z</time>
      </trkpt>
      <trkpt lat="45.79229" lon="3.15138">
        <ele>334.4</ele>
        <time>2024-05-19T09:22:00Z</time>
      </trkpt>
      <trkpt lat="45.79228" lon="3.15148">
        <ele>334.4</ele>
        <time>2024-05-19T09:22:01Z</time>
      </trkpt>
      <trkpt lat="45.79228" lon="3.15159">
        <ele>334.4</ele>
        <time>2024-05-19T09:22:02Z</time>
      </trkpt>
      <trkpt lat="45.79227" lon="3.15169">
        <ele>334.4</ele>
        <time>2024-05-19T09:22:03Z</time>
      </trkpt>
      <trkpt lat="45.79227" lon="3.15179">
        <ele>334.4</ele>
        <time>2024-05-19T09:22:04Z</time>
      </trkpt>
      <trkpt lat="45.79226" lon="3.15189">
        <ele>334.4</ele>
        <time>2024-05-19T09:22:05Z</time>
      </trkpt>
      <trkpt lat="45.79226" lon="3.15199">
        <ele>334.4</ele>
        <time>2024-05-19T09:22:06Z</time>
      </trkpt>
      <trkpt lat="45.79225" lon="3.1521">
        <ele>334.4</ele>
        <time>2024-05-19T09:22:07Z</time>
      </trkpt>
      <trkpt lat="45.79225" lon="3.1522">
        <ele>334.4</ele>
        <time>2024-05-19T09:22:08Z</time>
      </trkpt>
      <trkpt lat="45.79224" lon="3.1523">
        <ele>334.4</ele>
        <time>2024-05-19T09:22:09Z</time>
      </trkpt>
      <trkpt lat="45.79224" lon="3.15241">
        <ele>334.2</ele>
        <time>2024-05-19T09:22:10Z</time>
      </trkpt>
      <trkpt lat="45.79223" lon="3.15251">
        <ele>334.2</ele>
        <time>2024-05-19T09:22:11Z</time>
      </trkpt>
      <trkpt lat="45.79223" lon="3.15261">
        <ele>334.2</ele>
        <time>2024-05-19T09:22:12Z</time>
      </trkpt>
      <trkpt lat="45.79222" lon="3.15271">
        <ele>334.2</ele>
        <time>2024-05-19T09:22:13Z</time>
      </trkpt>
      <trkpt lat="45.79222" lon="3.15282">
        <ele>334.2</ele>
        <time>2024-05-19T09:22:14Z</time>
      </trkpt>
      <trkpt lat="45.79221" lon="3.15292">
        <ele>334.2</ele>
        <time>2024-05-19T09:22:15Z</time>
      </trkpt>
      <trkpt lat="45.79221" lon="3.15302">
        <ele>334.2</ele>
        <time>2024-05-19T09:22:16Z</time>
      </trkpt>
      <trkpt lat="45.7922" lon="3.15312">
        <ele>334.2</ele>
        <time>2024-05-19T09:22:17Z</time>
      </trkpt>
      <trkpt lat="45.7922" lon="3.15322">
        <ele>334.2</ele>
        <time>2024-05-19T09:22:18Z</time>
      </trkpt>
      <trkpt lat="45.7922" lon="3.15332">
        <ele>334.2</ele>
        <time>2024-05-19T09:22:19Z</time>
      </trkpt>
      <trkpt lat="45.7922" lon="3.15343">
        <ele>334.2</ele>
        <time>2024-05-19T09:22:20Z</time>
      </trkpt>
      <trkpt lat="45.79219" lon="3.15353">
        <ele>334.2</ele>
        <time>2024-05-19T09:22:21Z</time>
      </trkpt>
      <trkpt lat="45.79219" lon="3.15363">
        <ele>334.2</ele>
        <time>2024-05-19T09:22:22Z</time>
      </trkpt>
      <trkpt lat="45.79218" lon="3.15373">
        <ele>334.2</ele>
        <time>2024-05-19T09:22:23Z</time>
      </trkpt>
      <trkpt lat="45.79218" lon="3.15383">
        <ele>334.2</ele>
        <time>2024-05-19T09:22:24Z</time>
      </trkpt>
      <trkpt lat="45.79217" lon="3.15393">
        <ele>334</ele>
        <time>2024-05-19T09:22:25Z</time>
      </trkpt>
      <trkpt lat="45.79217" lon="3.15403">
        <ele>334</ele>
        <time>2024-05-19T09:22:26Z</time>
      </trkpt>
      <trkpt lat="45.79216" lon="3.15414">
        <ele>334</ele>
        <time>2024-05-19T09:22:27Z</time>
      </trkpt>
      <trkpt lat="45.79216" lon="3.15424">
        <ele>334</ele>
        <time>2024-05-19T09:22:28Z</time>
      </trkpt>
      <trkpt lat="45.79215" lon="3.15434">
        <ele>334</ele>
        <time>2024-05-19T09:22:29Z</time>
      </trkpt>
      <trkpt lat="45.79215" lon="3.15444">
        <ele>334</ele>
        <time>2024-05-19T09:22:30Z</time>
      </trkpt>
      <trkpt lat="45.79214" lon="3.15454">
        <ele>334.2</ele>
        <time>2024-05-19T09:22:31Z</time>
      </trkpt>
      <trkpt lat="45.79214" lon="3.15464">
        <ele>334</ele>
        <time>2024-05-19T09:22:32Z</time>
      </trkpt>
      <trkpt lat="45.79213" lon="3.15474">
        <ele>334</ele>
        <time>2024-05-19T09:22:33Z</time>
      </trkpt>
      <trkpt lat="45.79213" lon="3.15484">
        <ele>334</ele>
        <time>2024-05-19T09:22:34Z</time>
      </trkpt>
      <trkpt lat="45.79212" lon="3.15494">
        <ele>334</ele>
        <time>2024-05-19T09:22:35Z</time>
      </trkpt>
      <trkpt lat="45.79212" lon="3.15504">
        <ele>334</ele>
        <time>2024-05-19T09:22:36Z</time>
      </trkpt>
      <trkpt lat="45.79211" lon="3.15515">
        <ele>334</ele>
        <time>2024-05-19T09:22:37Z</time>
      </trkpt>
      <trkpt lat="45.79211" lon="3.15525">
        <ele>334</ele>
        <time>2024-05-19T09:22:38Z</time>
      </trkpt>
      <trkpt lat="45.7921" lon="3.15536">
        <ele>334</ele>
        <time>2024-05-19T09:22:39Z</time>
      </trkpt>
      <trkpt lat="45.7921" lon="3.15546">
        <ele>334</ele>
        <time>2024-05-19T09:22:40Z</time>
      </trkpt>
      <trkpt lat="45.79209" lon="3.15556">
        <ele>334</ele>
        <time>2024-05-19T09:22:41Z</time>
      </trkpt>
      <trkpt lat="45.79209" lon="3.15566">
        <ele>334</ele>
        <time>2024-05-19T09:22:42Z</time>
      </trkpt>
      <trkpt lat="45.79208" lon="3.15576">
        <ele>334</ele>
        <time>2024-05-19T09:22:43Z</time>
      </trkpt>
      <trkpt lat="45.79208" lon="3.15587">
        <ele>334</ele>
        <time>2024-05-19T09:22:44Z</time>
      </trkpt>
      <trkpt lat="45.79208" lon="3.15597">
        <ele>334</ele>
        <time>2024-05-19T09:22:45Z</time>
      </trkpt>
      <trkpt lat="45.79207" lon="3.15607">
        <ele>334</ele>
        <time>2024-05-19T09:22:46Z</time>
      </trkpt>
      <trkpt lat="45.79207" lon="3.15617">
        <ele>334</ele>
        <time>2024-05-19T09:22:47Z</time>
      </trkpt>
      <trkpt lat="45.79206" lon="3.15627">
        <ele>334</ele>
        <time>2024-05-19T09:22:48Z</time>
      </trkpt>
      <trkpt lat="45.79206" lon="3.15638">
        <ele>334</ele>
        <time>2024-05-19T09:22:49Z</time>
      </trkpt>
      <trkpt lat="45.79206" lon="3.15647">
        <ele>334</ele>
        <time>2024-05-19T09:22:50Z</time>
      </trkpt>
      <trkpt lat="45.79205" lon="3.15657">
        <ele>334</ele>
        <time>2024-05-19T09:22:51Z</time>
      </trkpt>
      <trkpt lat="45.79205" lon="3.15668">
        <ele>334.2</ele>
        <time>2024-05-19T09:22:52Z</time>
      </trkpt>
      <trkpt lat="45.79205" lon="3.15678">
        <ele>334.2</ele>
        <time>2024-05-19T09:22:53Z</time>
      </trkpt>
      <trkpt lat="45.79204" lon="3.15688">
        <ele>334.2</ele>
        <time>2024-05-19T09:22:54Z</time>
      </trkpt>
      <trkpt lat="45.79204" lon="3.15698">
        <ele>334.2</ele>
        <time>2024-05-19T09:22:55Z</time>
      </trkpt>
      <trkpt lat="45.79204" lon="3.15708">
        <ele>334.2</ele>
        <time>2024-05-19T09:22:56Z</time>
      </trkpt>
      <trkpt lat="45.79203" lon="3.15719">
        <ele>334.2</ele>
        <time>2024-05-19T09:22:57Z</time>
      </trkpt>
      <trkpt lat="45.79203" lon="3.15728">
        <ele>334.2</ele>
        <time>2024-05-19T09:22:58Z</time>
      </trkpt>
      <trkpt lat="45.79202" lon="3.15739">
        <ele>334.2</ele>
        <time>2024-05-19T09:22:59Z</time>
      </trkpt>
      <trkpt lat="45.79202" lon="3.15749">
        <ele>334.2</ele>
        <time>2024-05-19T09:23:00Z</time>
      </trkpt>
      <trkpt lat="45.79202" lon="3.15759">
        <ele>334.2</ele>
        <time>2024-05-19T09:23:01Z</time>
      </trkpt>
      <trkpt lat="45.79201" lon="3.15769">
        <ele>334.2</ele>
        <time>2024-05-19T09:23:02Z</time>
      </trkpt>
      <trkpt lat="45.79201" lon="3.15779">
        <ele>334.2</ele>
        <time>2024-05-19T09:23:03Z</time>
      </trkpt>
      <trkpt lat="45.79201" lon="3.15789">
        <ele>334.2</ele>
        <time>2024-05-19T09:23:04Z</time>
      </trkpt>
      <trkpt lat="45.792" lon="3.15798">
        <ele>334</ele>
        <time>2024-05-19T09:23:05Z</time>
      </trkpt>
      <trkpt lat="45.79199" lon="3.15808">
        <ele>334</ele>
        <time>2024-05-19T09:23:06Z</time>
      </trkpt>
      <trkpt lat="45.79198" lon="3.15818">
        <ele>334</ele>
        <time>2024-05-19T09:23:07Z</time>
      </trkpt>
      <trkpt lat="45.79197" lon="3.15828">
        <ele>334</ele>
        <time>2024-05-19T09:23:08Z</time>
      </trkpt>
      <trkpt lat="45.79197" lon="3.15838">
        <ele>334</ele>
        <time>2024-05-19T09:23:09Z</time>
      </trkpt>
      <trkpt lat="45.79197" lon="3.15848">
        <ele>334</ele>
        <time>2024-05-19T09:23:10Z</time>
      </trkpt>
      <trkpt lat="45.79196" lon="3.15858">
        <ele>334</ele>
        <time>2024-05-19T09:23:11Z</time>
      </trkpt>
      <trkpt lat="45.79196" lon="3.15868">
        <ele>334</ele>
        <time>2024-05-19T09:23:12Z</time>
      </trkpt>
      <trkpt lat="45.79195" lon="3.15878">
        <ele>333.8</ele>
        <time>2024-05-19T09:23:13Z</time>
      </trkpt>
      <trkpt lat="45.79194" lon="3.15888">
        <ele>333.8</ele>
        <time>2024-05-19T09:23:14Z</time>
      </trkpt>
      <trkpt lat="45.79193" lon="3.15898">
        <ele>333.8</ele>
        <time>2024-05-19T09:23:15Z</time>
      </trkpt>
      <trkpt lat="45.79192" lon="3.15908">
        <ele>333.8</ele>
        <time>2024-05-19T09:23:16Z</time>
      </trkpt>
      <trkpt lat="45.79191" lon="3.15918">
        <ele>333.8</ele>
        <time>2024-05-19T09:23:17Z</time>
      </trkpt>
      <trkpt lat="45.79191" lon="3.15928">
        <ele>333.6</ele>
        <time>2024-05-19T09:23:18Z</time>
      </trkpt>
      <trkpt lat="45.7919" lon="3.15937">
        <ele>333.6</ele>
        <time>2024-05-19T09:23:19Z</time>
      </trkpt>
      <trkpt lat="45.79189" lon="3.15947">
        <ele>333.6</ele>
        <time>2024-05-19T09:23:20Z</time>
      </trkpt>
      <trkpt lat="45.79188" lon="3.15957">
        <ele>333.6</ele>
        <time>2024-05-19T09:23:21Z</time>
      </trkpt>
      <trkpt lat="45.79187" lon="3.15967">
        <ele>333.6</ele>
        <time>2024-05-19T09:23:22Z</time>
      </trkpt>
      <trkpt lat="45.79187" lon="3.15977">
        <ele>333.6</ele>
        <time>2024-05-19T09:23:23Z</time>
      </trkpt>
      <trkpt lat="45.79186" lon="3.15987">
        <ele>333.6</ele>
        <time>2024-05-19T09:23:24Z</time>
      </trkpt>
      <trkpt lat="45.79185" lon="3.15997">
        <ele>333.6</ele>
        <time>2024-05-19T09:23:25Z</time>
      </trkpt>
      <trkpt lat="45.79184" lon="3.16007">
        <ele>333.6</ele>
        <time>2024-05-19T09:23:26Z</time>
      </trkpt>
      <trkpt lat="45.79183" lon="3.16017">
        <ele>333.6</ele>
        <time>2024-05-19T09:23:27Z</time>
      </trkpt>
      <trkpt lat="45.79182" lon="3.16027">
        <ele>333.4</ele>
        <time>2024-05-19T09:23:28Z</time>
      </trkpt>
      <trkpt lat="45.79182" lon="3.16037">
        <ele>333.4</ele>
        <time>2024-05-19T09:23:29Z</time>
      </trkpt>
      <trkpt lat="45.79181" lon="3.16047">
        <ele>333.6</ele>
        <time>2024-05-19T09:23:30Z</time>
      </trkpt>
      <trkpt lat="45.7918" lon="3.16057">
        <ele>333.4</ele>
        <time>2024-05-19T09:23:31Z</time>
      </trkpt>
      <trkpt lat="45.79179" lon="3.16067">
        <ele>333.4</ele>
        <time>2024-05-19T09:23:32Z</time>
      </trkpt>
      <trkpt lat="45.79178" lon="3.16077">
        <ele>333.4</ele>
        <time>2024-05-19T09:23:33Z</time>
      </trkpt>
      <trkpt lat="45.79177" lon="3.16087">
        <ele>333.4</ele>
        <time>2024-05-19T09:23:34Z</time>
      </trkpt>
      <trkpt lat="45.79177" lon="3.16097">
        <ele>333.4</ele>
        <time>2024-05-19T09:23:35Z</time>
      </trkpt>
      <trkpt lat="45.79176" lon="3.16107">
        <ele>333.4</ele>
        <time>2024-05-19T09:23:36Z</time>
      </trkpt>
      <trkpt lat="45.79176" lon="3.16117">
        <ele>333.4</ele>
        <time>2024-05-19T09:23:37Z</time>
      </trkpt>
      <trkpt lat="45.79175" lon="3.16127">
        <ele>333.4</ele>
        <time>2024-05-19T09:23:38Z</time>
      </trkpt>
      <trkpt lat="45.79175" lon="3.16137">
        <ele>333.4</ele>
        <time>2024-05-19T09:23:39Z</time>
      </trkpt>
      <trkpt lat="45.79174" lon="3.16147">
        <ele>333.4</ele>
        <time>2024-05-19T09:23:40Z</time>
      </trkpt>
      <trkpt lat="45.79174" lon="3.16157">
        <ele>333.4</ele>
        <time>2024-05-19T09:23:41Z</time>
      </trkpt>
      <trkpt lat="45.79173" lon="3.16168">
        <ele>333.4</ele>
        <time>2024-05-19T09:23:42Z</time>
      </trkpt>
      <trkpt lat="45.79173" lon="3.16178">
        <ele>333.4</ele>
        <time>2024-05-19T09:23:43Z</time>
      </trkpt>
      <trkpt lat="45.79172" lon="3.16188">
        <ele>333.4</ele>
        <time>2024-05-19T09:23:44Z</time>
      </trkpt>
      <trkpt lat="45.79172" lon="3.16198">
        <ele>333.4</ele>
        <time>2024-05-19T09:23:45Z</time>
      </trkpt>
      <trkpt lat="45.79171" lon="3.16208">
        <ele>333.4</ele>
        <time>2024-05-19T09:23:46Z</time>
      </trkpt>
      <trkpt lat="45.79171" lon="3.16218">
        <ele>333.2</ele>
        <time>2024-05-19T09:23:47Z</time>
      </trkpt>
      <trkpt lat="45.7917" lon="3.16228">
        <ele>333.2</ele>
        <time>2024-05-19T09:23:48Z</time>
      </trkpt>
      <trkpt lat="45.79169" lon="3.16238">
        <ele>333.2</ele>
        <time>2024-05-19T09:23:49Z</time>
      </trkpt>
      <trkpt lat="45.79169" lon="3.16248">
        <ele>333.2</ele>
        <time>2024-05-19T09:23:50Z</time>
      </trkpt>
      <trkpt lat="45.79168" lon="3.16258">
        <ele>333.2</ele>
        <time>2024-05-19T09:23:51Z</time>
      </trkpt>
      <trkpt lat="45.79168" lon="3.16268">
        <ele>333.2</ele>
        <time>2024-05-19T09:23:52Z</time>
      </trkpt>
      <trkpt lat="45.79167" lon="3.16278">
        <ele>333</ele>
        <time>2024-05-19T09:23:53Z</time>
      </trkpt>
      <trkpt lat="45.79166" lon="3.16288">
        <ele>333</ele>
        <time>2024-05-19T09:23:54Z</time>
      </trkpt>
      <trkpt lat="45.79166" lon="3.16297">
        <ele>333</ele>
        <time>2024-05-19T09:23:55Z</time>
      </trkpt>
      <trkpt lat="45.79165" lon="3.16307">
        <ele>332.8</ele>
        <time>2024-05-19T09:23:56Z</time>
      </trkpt>
      <trkpt lat="45.79165" lon="3.16318">
        <ele>332.8</ele>
        <time>2024-05-19T09:23:57Z</time>
      </trkpt>
      <trkpt lat="45.79164" lon="3.16328">
        <ele>332.8</ele>
        <time>2024-05-19T09:23:58Z</time>
      </trkpt>
      <trkpt lat="45.79163" lon="3.16337">
        <ele>332.8</ele>
        <time>2024-05-19T09:23:59Z</time>
      </trkpt>
      <trkpt lat="45.79162" lon="3.16348">
        <ele>332.8</ele>
        <time>2024-05-19T09:24:00Z</time>
      </trkpt>
      <trkpt lat="45.79162" lon="3.16358">
        <ele>332.6</ele>
        <time>2024-05-19T09:24:01Z</time>
      </trkpt>
      <trkpt lat="45.79161" lon="3.16368">
        <ele>332.8</ele>
        <time>2024-05-19T09:24:02Z</time>
      </trkpt>
      <trkpt lat="45.7916" lon="3.16378">
        <ele>332.6</ele>
        <time>2024-05-19T09:24:03Z</time>
      </trkpt>
      <trkpt lat="45.79159" lon="3.16389">
        <ele>332.6</ele>
        <time>2024-05-19T09:24:04Z</time>
      </trkpt>
      <trkpt lat="45.79158" lon="3.16399">
        <ele>332.6</ele>
        <time>2024-05-19T09:24:05Z</time>
      </trkpt>
      <trkpt lat="45.79158" lon="3.16409">
        <ele>332.6</ele>
        <time>2024-05-19T09:24:06Z</time>
      </trkpt>
      <trkpt lat="45.79157" lon="3.16419">
        <ele>332.6</ele>
        <time>2024-05-19T09:24:07Z</time>
      </trkpt>
      <trkpt lat="45.79156" lon="3.1643">
        <ele>332.6</ele>
        <time>2024-05-19T09:24:08Z</time>
      </trkpt>
      <trkpt lat="45.79155" lon="3.1644">
        <ele>332.4</ele>
        <time>2024-05-19T09:24:09Z</time>
      </trkpt>
      <trkpt lat="45.79155" lon="3.1645">
        <ele>332.4</ele>
        <time>2024-05-19T09:24:10Z</time>
      </trkpt>
      <trkpt lat="45.79156" lon="3.1646">
        <ele>332.4</ele>
        <time>2024-05-19T09:24:11Z</time>
      </trkpt>
      <trkpt lat="45.79156" lon="3.1647">
        <ele>332.4</ele>
        <time>2024-05-19T09:24:12Z</time>
      </trkpt>
      <trkpt lat="45.79156" lon="3.16481">
        <ele>332.4</ele>
        <time>2024-05-19T09:24:13Z</time>
      </trkpt>
      <trkpt lat="45.79156" lon="3.1649">
        <ele>332.4</ele>
        <time>2024-05-19T09:24:14Z</time>
      </trkpt>
      <trkpt lat="45.79157" lon="3.165">
        <ele>332.2</ele>
        <time>2024-05-19T09:24:15Z</time>
      </trkpt>
      <trkpt lat="45.79157" lon="3.16511">
        <ele>332.2</ele>
        <time>2024-05-19T09:24:16Z</time>
      </trkpt>
      <trkpt lat="45.79157" lon="3.16521">
        <ele>332.2</ele>
        <time>2024-05-19T09:24:17Z</time>
      </trkpt>
      <trkpt lat="45.79158" lon="3.16531">
        <ele>332.2</ele>
        <time>2024-05-19T09:24:18Z</time>
      </trkpt>
      <trkpt lat="45.79158" lon="3.16541">
        <ele>332.2</ele>
        <time>2024-05-19T09:24:19Z</time>
      </trkpt>
      <trkpt lat="45.79159" lon="3.16552">
        <ele>332.2</ele>
        <time>2024-05-19T09:24:20Z</time>
      </trkpt>
      <trkpt lat="45.7916" lon="3.16562">
        <ele>332.2</ele>
        <time>2024-05-19T09:24:21Z</time>
      </trkpt>
      <trkpt lat="45.7916" lon="3.16573">
        <ele>332.2</ele>
        <time>2024-05-19T09:24:22Z</time>
      </trkpt>
      <trkpt lat="45.79161" lon="3.16584">
        <ele>332.2</ele>
        <time>2024-05-19T09:24:23Z</time>
      </trkpt>
      <trkpt lat="45.79162" lon="3.16594">
        <ele>332.2</ele>
        <time>2024-05-19T09:24:24Z</time>
      </trkpt>
      <trkpt lat="45.79163" lon="3.16605">
        <ele>332.2</ele>
        <time>2024-05-19T09:24:25Z</time>
      </trkpt>
      <trkpt lat="45.79163" lon="3.16615">
        <ele>332</ele>
        <time>2024-05-19T09:24:26Z</time>
      </trkpt>
      <trkpt lat="45.79164" lon="3.16626">
        <ele>332</ele>
        <time>2024-05-19T09:24:27Z</time>
      </trkpt>
      <trkpt lat="45.79165" lon="3.16636">
        <ele>332</ele>
        <time>2024-05-19T09:24:28Z</time>
      </trkpt>
      <trkpt lat="45.79165" lon="3.16646">
        <ele>332</ele>
        <time>2024-05-19T09:24:29Z</time>
      </trkpt>
      <trkpt lat="45.79166" lon="3.16656">
        <ele>332</ele>
        <time>2024-05-19T09:24:30Z</time>
      </trkpt>
      <trkpt lat="45.79167" lon="3.16666">
        <ele>332</ele>
        <time>2024-05-19T09:24:31Z</time>
      </trkpt>
      <trkpt lat="45.79167" lon="3.16676">
        <ele>332</ele>
        <time>2024-05-19T09:24:32Z</time>
      </trkpt>
      <trkpt lat="45.79168" lon="3.16687">
        <ele>332</ele>
        <time>2024-05-19T09:24:33Z</time>
      </trkpt>
      <trkpt lat="45.79168" lon="3.16697">
        <ele>331.8</ele>
        <time>2024-05-19T09:24:34Z</time>
      </trkpt>
      <trkpt lat="45.79167" lon="3.16706">
        <ele>331.8</ele>
        <time>2024-05-19T09:24:35Z</time>
      </trkpt>
      <trkpt lat="45.79167" lon="3.16716">
        <ele>331.8</ele>
        <time>2024-05-19T09:24:36Z</time>
      </trkpt>
      <trkpt lat="45.79166" lon="3.16727">
        <ele>331.8</ele>
        <time>2024-05-19T09:24:37Z</time>
      </trkpt>
      <trkpt lat="45.79166" lon="3.16737">
        <ele>331.8</ele>
        <time>2024-05-19T09:24:38Z</time>
      </trkpt>
      <trkpt lat="45.79165" lon="3.16747">
        <ele>331.8</ele>
        <time>2024-05-19T09:24:39Z</time>
      </trkpt>
      <trkpt lat="45.79165" lon="3.16757">
        <ele>331.8</ele>
        <time>2024-05-19T09:24:40Z</time>
      </trkpt>
      <trkpt lat="45.79164" lon="3.16767">
        <ele>331.8</ele>
        <time>2024-05-19T09:24:41Z</time>
      </trkpt>
      <trkpt lat="45.79164" lon="3.16777">
        <ele>331.8</ele>
        <time>2024-05-19T09:24:42Z</time>
      </trkpt>
      <trkpt lat="45.79163" lon="3.16787">
        <ele>331.8</ele>
        <time>2024-05-19T09:24:43Z</time>
      </trkpt>
      <trkpt lat="45.79163" lon="3.16797">
        <ele>331.8</ele>
        <time>2024-05-19T09:24:44Z</time>
      </trkpt>
      <trkpt lat="45.79162" lon="3.16807">
        <ele>331.8</ele>
        <time>2024-05-19T09:24:45Z</time>
      </trkpt>
      <trkpt lat="45.79162" lon="3.16817">
        <ele>331.8</ele>
        <time>2024-05-19T09:24:46Z</time>
      </trkpt>
      <trkpt lat="45.79161" lon="3.16827">
        <ele>332</ele>
        <time>2024-05-19T09:24:47Z</time>
      </trkpt>
      <trkpt lat="45.79161" lon="3.16836">
        <ele>331.8</ele>
        <time>2024-05-19T09:24:48Z</time>
      </trkpt>
      <trkpt lat="45.79161" lon="3.16846">
        <ele>331.8</ele>
        <time>2024-05-19T09:24:49Z</time>
      </trkpt>
      <trkpt lat="45.7916" lon="3.16856">
        <ele>331.8</ele>
        <time>2024-05-19T09:24:50Z</time>
      </trkpt>
      <trkpt lat="45.7916" lon="3.16866">
        <ele>331.8</ele>
        <time>2024-05-19T09:24:51Z</time>
      </trkpt>
      <trkpt lat="45.79159" lon="3.16876">
        <ele>331.8</ele>
        <time>2024-05-19T09:24:52Z</time>
      </trkpt>
      <trkpt lat="45.79159" lon="3.16886">
        <ele>332</ele>
        <time>2024-05-19T09:24:53Z</time>
      </trkpt>
      <trkpt lat="45.79158" lon="3.16896">
        <ele>332</ele>
        <time>2024-05-19T09:24:54Z</time>
      </trkpt>
      <trkpt lat="45.79158" lon="3.16906">
        <ele>332</ele>
        <time>2024-05-19T09:24:55Z</time>
      </trkpt>
      <trkpt lat="45.79157" lon="3.16916">
        <ele>332.2</ele>
        <time>2024-05-19T09:24:56Z</time>
      </trkpt>
      <trkpt lat="45.79157" lon="3.16926">
        <ele>332.2</ele>
        <time>2024-05-19T09:24:57Z</time>
      </trkpt>
      <trkpt lat="45.79156" lon="3.16936">
        <ele>332</ele>
        <time>2024-05-19T09:24:58Z</time>
      </trkpt>
      <trkpt lat="45.79156" lon="3.16947">
        <ele>331.8</ele>
        <time>2024-05-19T09:24:59Z</time>
      </trkpt>
      <trkpt lat="45.79155" lon="3.16957">
        <ele>331.8</ele>
        <time>2024-05-19T09:25:00Z</time>
      </trkpt>
      <trkpt lat="45.79155" lon="3.16967">
        <ele>331.8</ele>
        <time>2024-05-19T09:25:01Z</time>
      </trkpt>
      <trkpt lat="45.79154" lon="3.16977">
        <ele>331.8</ele>
        <time>2024-05-19T09:25:02Z</time>
      </trkpt>
      <trkpt lat="45.79154" lon="3.16986">
        <ele>331.8</ele>
        <time>2024-05-19T09:25:03Z</time>
      </trkpt>
      <trkpt lat="45.79154" lon="3.16997">
        <ele>331.8</ele>
        <time>2024-05-19T09:25:04Z</time>
      </trkpt>
      <trkpt lat="45.79153" lon="3.17006">
        <ele>331.8</ele>
        <time>2024-05-19T09:25:05Z</time>
      </trkpt>
      <trkpt lat="45.79153" lon="3.17016">
        <ele>331.8</ele>
        <time>2024-05-19T09:25:06Z</time>
      </trkpt>
      <trkpt lat="45.79152" lon="3.17026">
        <ele>331.6</ele>
        <time>2024-05-19T09:25:07Z</time>
      </trkpt>
      <trkpt lat="45.79152" lon="3.17036">
        <ele>331.6</ele>
        <time>2024-05-19T09:25:08Z</time>
      </trkpt>
      <trkpt lat="45.79151" lon="3.17046">
        <ele>331.6</ele>
        <time>2024-05-19T09:25:09Z</time>
      </trkpt>
      <trkpt lat="45.79151" lon="3.17057">
        <ele>331.6</ele>
        <time>2024-05-19T09:25:10Z</time>
      </trkpt>
      <trkpt lat="45.7915" lon="3.17067">
        <ele>331.6</ele>
        <time>2024-05-19T09:25:11Z</time>
      </trkpt>
      <trkpt lat="45.7915" lon="3.17077">
        <ele>331.6</ele>
        <time>2024-05-19T09:25:12Z</time>
      </trkpt>
      <trkpt lat="45.79149" lon="3.17087">
        <ele>331.4</ele>
        <time>2024-05-19T09:25:13Z</time>
      </trkpt>
      <trkpt lat="45.79149" lon="3.17098">
        <ele>331.4</ele>
        <time>2024-05-19T09:25:14Z</time>
      </trkpt>
      <trkpt lat="45.79148" lon="3.17108">
        <ele>331.4</ele>
        <time>2024-05-19T09:25:15Z</time>
      </trkpt>
      <trkpt lat="45.79148" lon="3.17118">
        <ele>331.4</ele>
        <time>2024-05-19T09:25:16Z</time>
      </trkpt>
      <trkpt lat="45.79147" lon="3.17128">
        <ele>331.4</ele>
        <time>2024-05-19T09:25:17Z</time>
      </trkpt>
      <trkpt lat="45.79147" lon="3.17138">
        <ele>331.4</ele>
        <time>2024-05-19T09:25:18Z</time>
      </trkpt>
      <trkpt lat="45.79146" lon="3.17148">
        <ele>331.2</ele>
        <time>2024-05-19T09:25:19Z</time>
      </trkpt>
      <trkpt lat="45.79146" lon="3.17158">
        <ele>331.2</ele>
        <time>2024-05-19T09:25:20Z</time>
      </trkpt>
      <trkpt lat="45.79146" lon="3.17169">
        <ele>331.2</ele>
        <time>2024-05-19T09:25:21Z</time>
      </trkpt>
      <trkpt lat="45.79145" lon="3.17179">
        <ele>331.2</ele>
        <time>2024-05-19T09:25:22Z</time>
      </trkpt>
      <trkpt lat="45.79145" lon="3.17189">
        <ele>331.2</ele>
        <time>2024-05-19T09:25:23Z</time>
      </trkpt>
      <trkpt lat="45.79144" lon="3.17199">
        <ele>331.2</ele>
        <time>2024-05-19T09:25:24Z</time>
      </trkpt>
      <trkpt lat="45.79144" lon="3.17209">
        <ele>331.2</ele>
        <time>2024-05-19T09:25:25Z</time>
      </trkpt>
      <trkpt lat="45.79143" lon="3.17219">
        <ele>331.2</ele>
        <time>2024-05-19T09:25:26Z</time>
      </trkpt>
      <trkpt lat="45.79143" lon="3.17229">
        <ele>331.2</ele>
        <time>2024-05-19T09:25:27Z</time>
      </trkpt>
      <trkpt lat="45.79142" lon="3.17239">
        <ele>331</ele>
        <time>2024-05-19T09:25:28Z</time>
      </trkpt>
      <trkpt lat="45.79142" lon="3.17249">
        <ele>331</ele>
        <time>2024-05-19T09:25:29Z</time>
      </trkpt>
      <trkpt lat="45.79141" lon="3.17259">
        <ele>331</ele>
        <time>2024-05-19T09:25:30Z</time>
      </trkpt>
      <trkpt lat="45.79141" lon="3.1727">
        <ele>331</ele>
        <time>2024-05-19T09:25:31Z</time>
      </trkpt>
      <trkpt lat="45.7914" lon="3.1728">
        <ele>331</ele>
        <time>2024-05-19T09:25:32Z</time>
      </trkpt>
      <trkpt lat="45.7914" lon="3.1729">
        <ele>331</ele>
        <time>2024-05-19T09:25:33Z</time>
      </trkpt>
      <trkpt lat="45.79139" lon="3.17299">
        <ele>331</ele>
        <time>2024-05-19T09:25:34Z</time>
      </trkpt>
      <trkpt lat="45.79139" lon="3.17309">
        <ele>330.8</ele>
        <time>2024-05-19T09:25:35Z</time>
      </trkpt>
      <trkpt lat="45.79138" lon="3.1732">
        <ele>331</ele>
        <time>2024-05-19T09:25:36Z</time>
      </trkpt>
      <trkpt lat="45.79138" lon="3.1733">
        <ele>330.8</ele>
        <time>2024-05-19T09:25:37Z</time>
      </trkpt>
      <trkpt lat="45.79138" lon="3.1734">
        <ele>330.8</ele>
        <time>2024-05-19T09:25:38Z</time>
      </trkpt>
      <trkpt lat="45.79137" lon="3.1735">
        <ele>330.8</ele>
        <time>2024-05-19T09:25:39Z</time>
      </trkpt>
      <trkpt lat="45.79137" lon="3.1736">
        <ele>330.8</ele>
        <time>2024-05-19T09:25:40Z</time>
      </trkpt>
      <trkpt lat="45.79136" lon="3.17371">
        <ele>330.8</ele>
        <time>2024-05-19T09:25:41Z</time>
      </trkpt>
      <trkpt lat="45.79136" lon="3.17381">
        <ele>330.6</ele>
        <time>2024-05-19T09:25:42Z</time>
      </trkpt>
      <trkpt lat="45.79135" lon="3.17392">
        <ele>330.6</ele>
        <time>2024-05-19T09:25:43Z</time>
      </trkpt>
      <trkpt lat="45.79135" lon="3.17402">
        <ele>330.6</ele>
        <time>2024-05-19T09:25:44Z</time>
      </trkpt>
      <trkpt lat="45.79134" lon="3.17413">
        <ele>330.6</ele>
        <time>2024-05-19T09:25:45Z</time>
      </trkpt>
      <trkpt lat="45.79134" lon="3.17423">
        <ele>330.6</ele>
        <time>2024-05-19T09:25:46Z</time>
      </trkpt>
      <trkpt lat="45.79133" lon="3.17433">
        <ele>330.6</ele>
        <time>2024-05-19T09:25:47Z</time>
      </trkpt>
      <trkpt lat="45.79133" lon="3.17443">
        <ele>330.6</ele>
        <time>2024-05-19T09:25:48Z</time>
      </trkpt>
      <trkpt lat="45.79132" lon="3.17454">
        <ele>330.6</ele>
        <time>2024-05-19T09:25:49Z</time>
      </trkpt>
      <trkpt lat="45.79132" lon="3.17464">
        <ele>330.6</ele>
        <time>2024-05-19T09:25:50Z</time>
      </trkpt>
      <trkpt lat="45.79131" lon="3.17474">
        <ele>330.4</ele>
        <time>2024-05-19T09:25:51Z</time>
      </trkpt>
      <trkpt lat="45.79131" lon="3.17484">
        <ele>330.4</ele>
        <time>2024-05-19T09:25:52Z</time>
      </trkpt>
      <trkpt lat="45.7913" lon="3.17494">
        <ele>330.4</ele>
        <time>2024-05-19T09:25:53Z</time>
      </trkpt>
      <trkpt lat="45.7913" lon="3.17504">
        <ele>330.4</ele>
        <time>2024-05-19T09:25:54Z</time>
      </trkpt>
      <trkpt lat="45.79129" lon="3.17514">
        <ele>330.4</ele>
        <time>2024-05-19T09:25:55Z</time>
      </trkpt>
      <trkpt lat="45.79129" lon="3.17524">
        <ele>330.2</ele>
        <time>2024-05-19T09:25:56Z</time>
      </trkpt>
      <trkpt lat="45.79128" lon="3.17534">
        <ele>330.2</ele>
        <time>2024-05-19T09:25:57Z</time>
      </trkpt>
      <trkpt lat="45.79128" lon="3.17544">
        <ele>330.2</ele>
        <time>2024-05-19T09:25:58Z</time>
      </trkpt>
      <trkpt lat="45.79128" lon="3.17554">
        <ele>330.2</ele>
        <time>2024-05-19T09:25:59Z</time>
      </trkpt>
      <trkpt lat="45.79127" lon="3.17564">
        <ele>330.2</ele>
        <time>2024-05-19T09:26:00Z</time>
      </trkpt>
      <trkpt lat="45.79127" lon="3.17574">
        <ele>330.2</ele>
        <time>2024-05-19T09:26:01Z</time>
      </trkpt>
      <trkpt lat="45.79126" lon="3.17583">
        <ele>330.2</ele>
        <time>2024-05-19T09:26:02Z</time>
      </trkpt>
      <trkpt lat="45.79126" lon="3.17593">
        <ele>330.2</ele>
        <time>2024-05-19T09:26:03Z</time>
      </trkpt>
      <trkpt lat="45.79125" lon="3.17603">
        <ele>330</ele>
        <time>2024-05-19T09:26:04Z</time>
      </trkpt>
      <trkpt lat="45.79125" lon="3.17613">
        <ele>330</ele>
        <time>2024-05-19T09:26:05Z</time>
      </trkpt>
      <trkpt lat="45.79124" lon="3.17623">
        <ele>330</ele>
        <time>2024-05-19T09:26:06Z</time>
      </trkpt>
      <trkpt lat="45.79124" lon="3.17632">
        <ele>330</ele>
        <time>2024-05-19T09:26:07Z</time>
      </trkpt>
      <trkpt lat="45.79123" lon="3.17642">
        <ele>330</ele>
        <time>2024-05-19T09:26:08Z</time>
      </trkpt>
      <trkpt lat="45.79123" lon="3.17652">
        <ele>330</ele>
        <time>2024-05-19T09:26:09Z</time>
      </trkpt>
      <trkpt lat="45.79122" lon="3.17662">
        <ele>330</ele>
        <time>2024-05-19T09:26:10Z</time>
      </trkpt>
      <trkpt lat="45.79122" lon="3.17673">
        <ele>330</ele>
        <time>2024-05-19T09:26:11Z</time>
      </trkpt>
      <trkpt lat="45.79122" lon="3.17683">
        <ele>330</ele>
        <time>2024-05-19T09:26:12Z</time>
      </trkpt>
      <trkpt lat="45.79121" lon="3.17693">
        <ele>329.8</ele>
        <time>2024-05-19T09:26:13Z</time>
      </trkpt>
      <trkpt lat="45.79121" lon="3.17704">
        <ele>329.8</ele>
        <time>2024-05-19T09:26:14Z</time>
      </trkpt>
      <trkpt lat="45.7912" lon="3.17714">
        <ele>329.8</ele>
        <time>2024-05-19T09:26:15Z</time>
      </trkpt>
      <trkpt lat="45.7912" lon="3.17724">
        <ele>329.8</ele>
        <time>2024-05-19T09:26:16Z</time>
      </trkpt>
      <trkpt lat="45.79119" lon="3.17735">
        <ele>329.8</ele>
        <time>2024-05-19T09:26:17Z</time>
      </trkpt>
      <trkpt lat="45.79119" lon="3.17745">
        <ele>329.8</ele>
        <time>2024-05-19T09:26:18Z</time>
      </trkpt>
      <trkpt lat="45.79118" lon="3.17756">
        <ele>329.8</ele>
        <time>2024-05-19T09:26:19Z</time>
      </trkpt>
      <trkpt lat="45.79118" lon="3.17766">
        <ele>329.8</ele>
        <time>2024-05-19T09:26:20Z</time>
      </trkpt>
      <trkpt lat="45.79117" lon="3.17777">
        <ele>329.8</ele>
        <time>2024-05-19T09:26:21Z</time>
      </trkpt>
      <trkpt lat="45.79117" lon="3.17788">
        <ele>329.6</ele>
        <time>2024-05-19T09:26:22Z</time>
      </trkpt>
      <trkpt lat="45.79116" lon="3.17799">
        <ele>329.6</ele>
        <time>2024-05-19T09:26:23Z</time>
      </trkpt>
      <trkpt lat="45.79116" lon="3.17809">
        <ele>329.6</ele>
        <time>2024-05-19T09:26:24Z</time>
      </trkpt>
      <trkpt lat="45.79115" lon="3.1782">
        <ele>329.6</ele>
        <time>2024-05-19T09:26:25Z</time>
      </trkpt>
      <trkpt lat="45.79115" lon="3.1783">
        <ele>329.6</ele>
        <time>2024-05-19T09:26:26Z</time>
      </trkpt>
      <trkpt lat="45.79114" lon="3.1784">
        <ele>329.6</ele>
        <time>2024-05-19T09:26:27Z</time>
      </trkpt>
      <trkpt lat="45.79114" lon="3.17851">
        <ele>329.6</ele>
        <time>2024-05-19T09:26:28Z</time>
      </trkpt>
      <trkpt lat="45.79113" lon="3.17861">
        <ele>329.4</ele>
        <time>2024-05-19T09:26:29Z</time>
      </trkpt>
      <trkpt lat="45.79113" lon="3.17872">
        <ele>329.4</ele>
        <time>2024-05-19T09:26:30Z</time>
      </trkpt>
      <trkpt lat="45.79112" lon="3.17882">
        <ele>329.4</ele>
        <time>2024-05-19T09:26:31Z</time>
      </trkpt>
      <trkpt lat="45.79112" lon="3.17893">
        <ele>329.4</ele>
        <time>2024-05-19T09:26:32Z</time>
      </trkpt>
      <trkpt lat="45.79111" lon="3.17904">
        <ele>329.4</ele>
        <time>2024-05-19T09:26:33Z</time>
      </trkpt>
      <trkpt lat="45.79111" lon="3.17915">
        <ele>329.4</ele>
        <time>2024-05-19T09:26:34Z</time>
      </trkpt>
      <trkpt lat="45.7911" lon="3.17926">
        <ele>329.2</ele>
        <time>2024-05-19T09:26:35Z</time>
      </trkpt>
      <trkpt lat="45.7911" lon="3.17937">
        <ele>329.2</ele>
        <time>2024-05-19T09:26:36Z</time>
      </trkpt>
      <trkpt lat="45.79109" lon="3.17948">
        <ele>329.2</ele>
        <time>2024-05-19T09:26:37Z</time>
      </trkpt>
      <trkpt lat="45.79109" lon="3.17958">
        <ele>329.2</ele>
        <time>2024-05-19T09:26:38Z</time>
      </trkpt>
      <trkpt lat="45.79108" lon="3.17969">
        <ele>329.2</ele>
        <time>2024-05-19T09:26:39Z</time>
      </trkpt>
      <trkpt lat="45.79108" lon="3.1798">
        <ele>329.2</ele>
        <time>2024-05-19T09:26:40Z</time>
      </trkpt>
      <trkpt lat="45.79107" lon="3.17991">
        <ele>329</ele>
        <time>2024-05-19T09:26:41Z</time>
      </trkpt>
      <trkpt lat="45.79107" lon="3.18002">
        <ele>329</ele>
        <time>2024-05-19T09:26:42Z</time>
      </trkpt>
      <trkpt lat="45.79106" lon="3.18012">
        <ele>329</ele>
        <time>2024-05-19T09:26:43Z</time>
      </trkpt>
      <trkpt lat="45.79105" lon="3.18023">
        <ele>329</ele>
        <time>2024-05-19T09:26:44Z</time>
      </trkpt>
      <trkpt lat="45.79105" lon="3.18034">
        <ele>329</ele>
        <time>2024-05-19T09:26:45Z</time>
      </trkpt>
      <trkpt lat="45.79104" lon="3.18044">
        <ele>329</ele>
        <time>2024-05-19T09:26:46Z</time>
      </trkpt>
      <trkpt lat="45.79104" lon="3.18054">
        <ele>328.8</ele>
        <time>2024-05-19T09:26:47Z</time>
      </trkpt>
      <trkpt lat="45.79103" lon="3.18065">
        <ele>328.8</ele>
        <time>2024-05-19T09:26:48Z</time>
      </trkpt>
      <trkpt lat="45.79103" lon="3.18075">
        <ele>328.8</ele>
        <time>2024-05-19T09:26:49Z</time>
      </trkpt>
      <trkpt lat="45.79102" lon="3.18085">
        <ele>328.8</ele>
        <time>2024-05-19T09:26:50Z</time>
      </trkpt>
      <trkpt lat="45.79102" lon="3.18095">
        <ele>328.8</ele>
        <time>2024-05-19T09:26:51Z</time>
      </trkpt>
      <trkpt lat="45.79101" lon="3.18106">
        <ele>328.8</ele>
        <time>2024-05-19T09:26:52Z</time>
      </trkpt>
      <trkpt lat="45.79101" lon="3.18116">
        <ele>328.8</ele>
        <time>2024-05-19T09:26:53Z</time>
      </trkpt>
      <trkpt lat="45.791" lon="3.18126">
        <ele>328.8</ele>
        <time>2024-05-19T09:26:54Z</time>
      </trkpt>
      <trkpt lat="45.791" lon="3.18136">
        <ele>328.8</ele>
        <time>2024-05-19T09:26:55Z</time>
      </trkpt>
      <trkpt lat="45.79099" lon="3.18146">
        <ele>328.8</ele>
        <time>2024-05-19T09:26:56Z</time>
      </trkpt>
      <trkpt lat="45.79099" lon="3.18156">
        <ele>328.8</ele>
        <time>2024-05-19T09:26:57Z</time>
      </trkpt>
      <trkpt lat="45.79098" lon="3.18165">
        <ele>328.8</ele>
        <time>2024-05-19T09:26:58Z</time>
      </trkpt>
      <trkpt lat="45.79098" lon="3.18175">
        <ele>328.8</ele>
        <time>2024-05-19T09:26:59Z</time>
      </trkpt>
      <trkpt lat="45.79097" lon="3.18185">
        <ele>328.8</ele>
        <time>2024-05-19T09:27:00Z</time>
      </trkpt>
      <trkpt lat="45.79097" lon="3.18195">
        <ele>328.8</ele>
        <time>2024-05-19T09:27:01Z</time>
      </trkpt>
      <trkpt lat="45.79096" lon="3.18204">
        <ele>328.8</ele>
        <time>2024-05-19T09:27:02Z</time>
      </trkpt>
      <trkpt lat="45.79096" lon="3.18214">
        <ele>328.8</ele>
        <time>2024-05-19T09:27:03Z</time>
      </trkpt>
      <trkpt lat="45.79095" lon="3.18223">
        <ele>328.8</ele>
        <time>2024-05-19T09:27:04Z</time>
      </trkpt>
      <trkpt lat="45.79095" lon="3.18233">
        <ele>328.6</ele>
        <time>2024-05-19T09:27:05Z</time>
      </trkpt>
      <trkpt lat="45.79094" lon="3.18243">
        <ele>328.6</ele>
        <time>2024-05-19T09:27:06Z</time>
      </trkpt>
      <trkpt lat="45.79094" lon="3.18253">
        <ele>328.6</ele>
        <time>2024-05-19T09:27:07Z</time>
      </trkpt>
      <trkpt lat="45.79093" lon="3.18262">
        <ele>328.8</ele>
        <time>2024-05-19T09:27:08Z</time>
      </trkpt>
      <trkpt lat="45.79093" lon="3.18272">
        <ele>328.6</ele>
        <time>2024-05-19T09:27:09Z</time>
      </trkpt>
      <trkpt lat="45.79092" lon="3.18282">
        <ele>328.8</ele>
        <time>2024-05-19T09:27:10Z</time>
      </trkpt>
      <trkpt lat="45.79092" lon="3.18292">
        <ele>328.6</ele>
        <time>2024-05-19T09:27:11Z</time>
      </trkpt>
      <trkpt lat="45.79091" lon="3.18302">
        <ele>328.6</ele>
        <time>2024-05-19T09:27:12Z</time>
      </trkpt>
      <trkpt lat="45.79091" lon="3.18312">
        <ele>328.6</ele>
        <time>2024-05-19T09:27:13Z</time>
      </trkpt>
      <trkpt lat="45.7909" lon="3.18322">
        <ele>328.6</ele>
        <time>2024-05-19T09:27:14Z</time>
      </trkpt>
      <trkpt lat="45.7909" lon="3.18332">
        <ele>328.6</ele>
        <time>2024-05-19T09:27:15Z</time>
      </trkpt>
      <trkpt lat="45.79089" lon="3.18342">
        <ele>328.6</ele>
        <time>2024-05-19T09:27:16Z</time>
      </trkpt>
      <trkpt lat="45.79089" lon="3.18352">
        <ele>328.6</ele>
        <time>2024-05-19T09:27:17Z</time>
      </trkpt>
      <trkpt lat="45.79088" lon="3.18362">
        <ele>328.6</ele>
        <time>2024-05-19T09:27:18Z</time>
      </trkpt>
      <trkpt lat="45.79088" lon="3.18372">
        <ele>328.6</ele>
        <time>2024-05-19T09:27:19Z</time>
      </trkpt>
      <trkpt lat="45.79087" lon="3.18382">
        <ele>328.6</ele>
        <time>2024-05-19T09:27:20Z</time>
      </trkpt>
      <trkpt lat="45.79087" lon="3.18392">
        <ele>328.6</ele>
        <time>2024-05-19T09:27:21Z</time>
      </trkpt>
      <trkpt lat="45.79086" lon="3.18401">
        <ele>328.6</ele>
        <time>2024-05-19T09:27:22Z</time>
      </trkpt>
      <trkpt lat="45.79086" lon="3.18411">
        <ele>328.6</ele>
        <time>2024-05-19T09:27:23Z</time>
      </trkpt>
      <trkpt lat="45.79085" lon="3.18421">
        <ele>328.6</ele>
        <time>2024-05-19T09:27:24Z</time>
      </trkpt>
      <trkpt lat="45.79085" lon="3.1843">
        <ele>328.6</ele>
        <time>2024-05-19T09:27:25Z</time>
      </trkpt>
      <trkpt lat="45.79084" lon="3.1844">
        <ele>328.6</ele>
        <time>2024-05-19T09:27:26Z</time>
      </trkpt>
      <trkpt lat="45.79084" lon="3.1845">
        <ele>328.6</ele>
        <time>2024-05-19T09:27:27Z</time>
      </trkpt>
      <trkpt lat="45.79083" lon="3.18459">
        <ele>328.4</ele>
        <time>2024-05-19T09:27:28Z</time>
      </trkpt>
      <trkpt lat="45.79083" lon="3.18469">
        <ele>328.4</ele>
        <time>2024-05-19T09:27:29Z</time>
      </trkpt>
      <trkpt lat="45.79082" lon="3.18479">
        <ele>328.6</ele>
        <time>2024-05-19T09:27:30Z</time>
      </trkpt>
      <trkpt lat="45.79082" lon="3.18489">
        <ele>328.6</ele>
        <time>2024-05-19T09:27:31Z</time>
      </trkpt>
      <trkpt lat="45.79081" lon="3.18498">
        <ele>328.6</ele>
        <time>2024-05-19T09:27:32Z</time>
      </trkpt>
      <trkpt lat="45.79081" lon="3.18508">
        <ele>328.6</ele>
        <time>2024-05-19T09:27:33Z</time>
      </trkpt>
      <trkpt lat="45.7908" lon="3.18517">
        <ele>328.6</ele>
        <time>2024-05-19T09:27:34Z</time>
      </trkpt>
      <trkpt lat="45.7908" lon="3.18527">
        <ele>328.6</ele>
        <time>2024-05-19T09:27:35Z</time>
      </trkpt>
      <trkpt lat="45.7908" lon="3.18537">
        <ele>328.4</ele>
        <time>2024-05-19T09:27:36Z</time>
      </trkpt>
      <trkpt lat="45.79079" lon="3.18547">
        <ele>328.4</ele>
        <time>2024-05-19T09:27:37Z</time>
      </trkpt>
      <trkpt lat="45.79079" lon="3.18557">
        <ele>328.6</ele>
        <time>2024-05-19T09:27:38Z</time>
      </trkpt>
      <trkpt lat="45.79078" lon="3.18567">
        <ele>328.6</ele>
        <time>2024-05-19T09:27:39Z</time>
      </trkpt>
      <trkpt lat="45.79078" lon="3.18576">
        <ele>328.6</ele>
        <time>2024-05-19T09:27:40Z</time>
      </trkpt>
      <trkpt lat="45.79077" lon="3.18586">
        <ele>328.6</ele>
        <time>2024-05-19T09:27:41Z</time>
      </trkpt>
      <trkpt lat="45.79077" lon="3.18596">
        <ele>328.6</ele>
        <time>2024-05-19T09:27:42Z</time>
      </trkpt>
      <trkpt lat="45.79076" lon="3.18606">
        <ele>328.6</ele>
        <time>2024-05-19T09:27:43Z</time>
      </trkpt>
      <trkpt lat="45.79075" lon="3.18616">
        <ele>328.6</ele>
        <time>2024-05-19T09:27:44Z</time>
      </trkpt>
      <trkpt lat="45.79075" lon="3.18627">
        <ele>328.6</ele>
        <time>2024-05-19T09:27:45Z</time>
      </trkpt>
      <trkpt lat="45.79074" lon="3.18637">
        <ele>328.4</ele>
        <time>2024-05-19T09:27:46Z</time>
      </trkpt>
      <trkpt lat="45.79074" lon="3.18647">
        <ele>328.6</ele>
        <time>2024-05-19T09:27:47Z</time>
      </trkpt>
      <trkpt lat="45.79073" lon="3.18658">
        <ele>328.6</ele>
        <time>2024-05-19T09:27:48Z</time>
      </trkpt>
      <trkpt lat="45.79073" lon="3.18668">
        <ele>328.6</ele>
        <time>2024-05-19T09:27:49Z</time>
      </trkpt>
      <trkpt lat="45.79072" lon="3.18678">
        <ele>328.6</ele>
        <time>2024-05-19T09:27:50Z</time>
      </trkpt>
      <trkpt lat="45.79072" lon="3.18688">
        <ele>328.4</ele>
        <time>2024-05-19T09:27:51Z</time>
      </trkpt>
      <trkpt lat="45.79071" lon="3.18698">
        <ele>328.4</ele>
        <time>2024-05-19T09:27:52Z</time>
      </trkpt>
      <trkpt lat="45.79071" lon="3.18709">
        <ele>328.4</ele>
        <time>2024-05-19T09:27:53Z</time>
      </trkpt>
      <trkpt lat="45.7907" lon="3.18719">
        <ele>328.6</ele>
        <time>2024-05-19T09:27:54Z</time>
      </trkpt>
      <trkpt lat="45.7907" lon="3.18729">
        <ele>328.4</ele>
        <time>2024-05-19T09:27:55Z</time>
      </trkpt>
      <trkpt lat="45.79069" lon="3.1874">
        <ele>328.4</ele>
        <time>2024-05-19T09:27:56Z</time>
      </trkpt>
      <trkpt lat="45.79069" lon="3.1875">
        <ele>328.4</ele>
        <time>2024-05-19T09:27:57Z</time>
      </trkpt>
      <trkpt lat="45.79068" lon="3.1876">
        <ele>328.4</ele>
        <time>2024-05-19T09:27:58Z</time>
      </trkpt>
      <trkpt lat="45.79068" lon="3.18771">
        <ele>328.4</ele>
        <time>2024-05-19T09:27:59Z</time>
      </trkpt>
      <trkpt lat="45.79067" lon="3.18781">
        <ele>328.4</ele>
        <time>2024-05-19T09:28:00Z</time>
      </trkpt>
      <trkpt lat="45.79067" lon="3.18791">
        <ele>328.4</ele>
        <time>2024-05-19T09:28:01Z</time>
      </trkpt>
      <trkpt lat="45.79066" lon="3.18802">
        <ele>328.4</ele>
        <time>2024-05-19T09:28:02Z</time>
      </trkpt>
      <trkpt lat="45.79066" lon="3.18812">
        <ele>328.4</ele>
        <time>2024-05-19T09:28:03Z</time>
      </trkpt>
      <trkpt lat="45.79065" lon="3.18823">
        <ele>328.4</ele>
        <time>2024-05-19T09:28:04Z</time>
      </trkpt>
      <trkpt lat="45.79065" lon="3.18834">
        <ele>328.2</ele>
        <time>2024-05-19T09:28:05Z</time>
      </trkpt>
      <trkpt lat="45.79064" lon="3.18844">
        <ele>328.2</ele>
        <time>2024-05-19T09:28:06Z</time>
      </trkpt>
      <trkpt lat="45.79063" lon="3.18855">
        <ele>328.2</ele>
        <time>2024-05-19T09:28:07Z</time>
      </trkpt>
      <trkpt lat="45.79063" lon="3.18865">
        <ele>328.2</ele>
        <time>2024-05-19T09:28:08Z</time>
      </trkpt>
      <trkpt lat="45.79062" lon="3.18876">
        <ele>328.2</ele>
        <time>2024-05-19T09:28:09Z</time>
      </trkpt>
      <trkpt lat="45.79062" lon="3.18887">
        <ele>328.2</ele>
        <time>2024-05-19T09:28:10Z</time>
      </trkpt>
      <trkpt lat="45.79061" lon="3.18898">
        <ele>328.2</ele>
        <time>2024-05-19T09:28:11Z</time>
      </trkpt>
      <trkpt lat="45.79061" lon="3.18909">
        <ele>328</ele>
        <time>2024-05-19T09:28:12Z</time>
      </trkpt>
      <trkpt lat="45.7906" lon="3.1892">
        <ele>328</ele>
        <time>2024-05-19T09:28:13Z</time>
      </trkpt>
      <trkpt lat="45.7906" lon="3.18931">
        <ele>328</ele>
        <time>2024-05-19T09:28:14Z</time>
      </trkpt>
      <trkpt lat="45.79059" lon="3.18942">
        <ele>328</ele>
        <time>2024-05-19T09:28:15Z</time>
      </trkpt>
      <trkpt lat="45.79058" lon="3.18953">
        <ele>328</ele>
        <time>2024-05-19T09:28:16Z</time>
      </trkpt>
      <trkpt lat="45.79058" lon="3.18964">
        <ele>328</ele>
        <time>2024-05-19T09:28:17Z</time>
      </trkpt>
      <trkpt lat="45.79057" lon="3.18975">
        <ele>327.8</ele>
        <time>2024-05-19T09:28:18Z</time>
      </trkpt>
      <trkpt lat="45.79057" lon="3.18986">
        <ele>327.8</ele>
        <time>2024-05-19T09:28:19Z</time>
      </trkpt>
      <trkpt lat="45.79056" lon="3.18997">
        <ele>327.8</ele>
        <time>2024-05-19T09:28:20Z</time>
      </trkpt>
      <trkpt lat="45.79056" lon="3.19008">
        <ele>327.8</ele>
        <time>2024-05-19T09:28:21Z</time>
      </trkpt>
      <trkpt lat="45.79055" lon="3.19019">
        <ele>327.8</ele>
        <time>2024-05-19T09:28:22Z</time>
      </trkpt>
      <trkpt lat="45.79055" lon="3.1903">
        <ele>327.8</ele>
        <time>2024-05-19T09:28:23Z</time>
      </trkpt>
      <trkpt lat="45.79054" lon="3.19041">
        <ele>327.8</ele>
        <time>2024-05-19T09:28:24Z</time>
      </trkpt>
      <trkpt lat="45.79053" lon="3.19052">
        <ele>327.8</ele>
        <time>2024-05-19T09:28:25Z</time>
      </trkpt>
      <trkpt lat="45.79053" lon="3.19063">
        <ele>327.8</ele>
        <time>2024-05-19T09:28:26Z</time>
      </trkpt>
      <trkpt lat="45.79052" lon="3.19074">
        <ele>327.8</ele>
        <time>2024-05-19T09:28:27Z</time>
      </trkpt>
      <trkpt lat="45.79052" lon="3.19085">
        <ele>327.8</ele>
        <time>2024-05-19T09:28:28Z</time>
      </trkpt>
      <trkpt lat="45.79051" lon="3.19095">
        <ele>327.8</ele>
        <time>2024-05-19T09:28:29Z</time>
      </trkpt>
      <trkpt lat="45.79051" lon="3.19106">
        <ele>327.8</ele>
        <time>2024-05-19T09:28:30Z</time>
      </trkpt>
      <trkpt lat="45.7905" lon="3.19116">
        <ele>327.8</ele>
        <time>2024-05-19T09:28:31Z</time>
      </trkpt>
      <trkpt lat="45.7905" lon="3.19127">
        <ele>327.8</ele>
        <time>2024-05-19T09:28:32Z</time>
      </trkpt>
      <trkpt lat="45.79049" lon="3.19137">
        <ele>327.8</ele>
        <time>2024-05-19T09:28:33Z</time>
      </trkpt>
      <trkpt lat="45.79049" lon="3.19148">
        <ele>327.8</ele>
        <time>2024-05-19T09:28:34Z</time>
      </trkpt>
      <trkpt lat="45.79048" lon="3.19158">
        <ele>327.8</ele>
        <time>2024-05-19T09:28:35Z</time>
      </trkpt>
      <trkpt lat="45.79048" lon="3.19169">
        <ele>327.8</ele>
        <time>2024-05-19T09:28:36Z</time>
      </trkpt>
      <trkpt lat="45.79047" lon="3.19179">
        <ele>327.8</ele>
        <time>2024-05-19T09:28:37Z</time>
      </trkpt>
      <trkpt lat="45.79047" lon="3.19189">
        <ele>327.6</ele>
        <time>2024-05-19T09:28:38Z</time>
      </trkpt>
      <trkpt lat="45.79046" lon="3.19199">
        <ele>327.6</ele>
        <time>2024-05-19T09:28:39Z</time>
      </trkpt>
      <trkpt lat="45.79046" lon="3.1921">
        <ele>327.8</ele>
        <time>2024-05-19T09:28:40Z</time>
      </trkpt>
      <trkpt lat="45.79045" lon="3.1922">
        <ele>327.6</ele>
        <time>2024-05-19T09:28:41Z</time>
      </trkpt>
      <trkpt lat="45.79045" lon="3.1923">
        <ele>327.8</ele>
        <time>2024-05-19T09:28:42Z</time>
      </trkpt>
      <trkpt lat="45.79044" lon="3.1924">
        <ele>328</ele>
        <time>2024-05-19T09:28:43Z</time>
      </trkpt>
      <trkpt lat="45.79043" lon="3.1925">
        <ele>328</ele>
        <time>2024-05-19T09:28:44Z</time>
      </trkpt>
      <trkpt lat="45.79043" lon="3.1926">
        <ele>328</ele>
        <time>2024-05-19T09:28:45Z</time>
      </trkpt>
      <trkpt lat="45.79042" lon="3.19271">
        <ele>328</ele>
        <time>2024-05-19T09:28:46Z</time>
      </trkpt>
      <trkpt lat="45.79042" lon="3.19281">
        <ele>328</ele>
        <time>2024-05-19T09:28:47Z</time>
      </trkpt>
      <trkpt lat="45.79041" lon="3.19291">
        <ele>328</ele>
        <time>2024-05-19T09:28:48Z</time>
      </trkpt>
      <trkpt lat="45.79041" lon="3.19301">
        <ele>328</ele>
        <time>2024-05-19T09:28:49Z</time>
      </trkpt>
      <trkpt lat="45.7904" lon="3.19311">
        <ele>328</ele>
        <time>2024-05-19T09:28:50Z</time>
      </trkpt>
      <trkpt lat="45.7904" lon="3.19321">
        <ele>327.8</ele>
        <time>2024-05-19T09:28:51Z</time>
      </trkpt>
      <trkpt lat="45.79039" lon="3.1933">
        <ele>327.8</ele>
        <time>2024-05-19T09:28:52Z</time>
      </trkpt>
      <trkpt lat="45.79039" lon="3.1934">
        <ele>328</ele>
        <time>2024-05-19T09:28:53Z</time>
      </trkpt>
      <trkpt lat="45.79038" lon="3.1935">
        <ele>328</ele>
        <time>2024-05-19T09:28:54Z</time>
      </trkpt>
      <trkpt lat="45.79038" lon="3.1936">
        <ele>328</ele>
        <time>2024-05-19T09:28:55Z</time>
      </trkpt>
      <trkpt lat="45.79037" lon="3.1937">
        <ele>328</ele>
        <time>2024-05-19T09:28:56Z</time>
      </trkpt>
      <trkpt lat="45.79037" lon="3.1938">
        <ele>328</ele>
        <time>2024-05-19T09:28:57Z</time>
      </trkpt>
      <trkpt lat="45.79036" lon="3.1939">
        <ele>328</ele>
        <time>2024-05-19T09:28:58Z</time>
      </trkpt>
      <trkpt lat="45.79036" lon="3.19399">
        <ele>328</ele>
        <time>2024-05-19T09:28:59Z</time>
      </trkpt>
      <trkpt lat="45.79035" lon="3.19409">
        <ele>328</ele>
        <time>2024-05-19T09:29:00Z</time>
      </trkpt>
      <trkpt lat="45.79035" lon="3.19419">
        <ele>328</ele>
        <time>2024-05-19T09:29:01Z</time>
      </trkpt>
      <trkpt lat="45.79034" lon="3.19428">
        <ele>328</ele>
        <time>2024-05-19T09:29:02Z</time>
      </trkpt>
      <trkpt lat="45.79034" lon="3.19438">
        <ele>328</ele>
        <time>2024-05-19T09:29:03Z</time>
      </trkpt>
      <trkpt lat="45.79034" lon="3.19448">
        <ele>328.2</ele>
        <time>2024-05-19T09:29:04Z</time>
      </trkpt>
      <trkpt lat="45.79033" lon="3.19458">
        <ele>328.2</ele>
        <time>2024-05-19T09:29:05Z</time>
      </trkpt>
      <trkpt lat="45.79033" lon="3.19458">
        <ele>328.2</ele>
        <time>2024-05-19T09:29:06Z</time>
      </trkpt>
      <trkpt lat="45.79032" lon="3.19487">
        <ele>328.2</ele>
        <time>2024-05-19T09:29:07Z</time>
      </trkpt>
      <trkpt lat="45.79032" lon="3.19487">
        <ele>328.2</ele>
        <time>2024-05-19T09:29:08Z</time>
      </trkpt>
      <trkpt lat="45.79031" lon="3.19497">
        <ele>328.2</ele>
        <time>2024-05-19T09:29:09Z</time>
      </trkpt>
      <trkpt lat="45.79031" lon="3.19507">
        <ele>328.2</ele>
        <time>2024-05-19T09:29:10Z</time>
      </trkpt>
      <trkpt lat="45.7903" lon="3.19516">
        <ele>328.2</ele>
        <time>2024-05-19T09:29:11Z</time>
      </trkpt>
      <trkpt lat="45.7903" lon="3.19526">
        <ele>328.2</ele>
        <time>2024-05-19T09:29:12Z</time>
      </trkpt>
      <trkpt lat="45.79029" lon="3.19536">
        <ele>328.2</ele>
        <time>2024-05-19T09:29:13Z</time>
      </trkpt>
      <trkpt lat="45.79029" lon="3.19546">
        <ele>328.2</ele>
        <time>2024-05-19T09:29:14Z</time>
      </trkpt>
      <trkpt lat="45.79028" lon="3.19556">
        <ele>328.2</ele>
        <time>2024-05-19T09:29:15Z</time>
      </trkpt>
      <trkpt lat="45.79028" lon="3.19566">
        <ele>328.2</ele>
        <time>2024-05-19T09:29:16Z</time>
      </trkpt>
      <trkpt lat="45.79027" lon="3.19575">
        <ele>328.2</ele>
        <time>2024-05-19T09:29:17Z</time>
      </trkpt>
      <trkpt lat="45.79027" lon="3.19585">
        <ele>328.2</ele>
        <time>2024-05-19T09:29:18Z</time>
      </trkpt>
      <trkpt lat="45.79026" lon="3.19595">
        <ele>328.2</ele>
        <time>2024-05-19T09:29:19Z</time>
      </trkpt>
      <trkpt lat="45.79026" lon="3.19605">
        <ele>328.2</ele>
        <time>2024-05-19T09:29:20Z</time>
      </trkpt>
      <trkpt lat="45.79025" lon="3.19615">
        <ele>328.2</ele>
        <time>2024-05-19T09:29:21Z</time>
      </trkpt>
      <trkpt lat="45.79025" lon="3.19625">
        <ele>328.2</ele>
        <time>2024-05-19T09:29:22Z</time>
      </trkpt>
      <trkpt lat="45.79024" lon="3.19635">
        <ele>328</ele>
        <time>2024-05-19T09:29:23Z</time>
      </trkpt>
      <trkpt lat="45.79024" lon="3.19645">
        <ele>328</ele>
        <time>2024-05-19T09:29:24Z</time>
      </trkpt>
      <trkpt lat="45.79023" lon="3.19655">
        <ele>328</ele>
        <time>2024-05-19T09:29:25Z</time>
      </trkpt>
      <trkpt lat="45.79023" lon="3.19665">
        <ele>328</ele>
        <time>2024-05-19T09:29:26Z</time>
      </trkpt>
      <trkpt lat="45.79022" lon="3.19675">
        <ele>328</ele>
        <time>2024-05-19T09:29:27Z</time>
      </trkpt>
      <trkpt lat="45.79022" lon="3.19684">
        <ele>327.8</ele>
        <time>2024-05-19T09:29:28Z</time>
      </trkpt>
      <trkpt lat="45.79021" lon="3.19694">
        <ele>327.8</ele>
        <time>2024-05-19T09:29:29Z</time>
      </trkpt>
      <trkpt lat="45.79021" lon="3.19704">
        <ele>327.8</ele>
        <time>2024-05-19T09:29:30Z</time>
      </trkpt>
      <trkpt lat="45.7902" lon="3.19714">
        <ele>327.8</ele>
        <time>2024-05-19T09:29:31Z</time>
      </trkpt>
      <trkpt lat="45.7902" lon="3.19723">
        <ele>327.8</ele>
        <time>2024-05-19T09:29:32Z</time>
      </trkpt>
      <trkpt lat="45.79019" lon="3.19733">
        <ele>327.6</ele>
        <time>2024-05-19T09:29:33Z</time>
      </trkpt>
      <trkpt lat="45.79019" lon="3.19743">
        <ele>327.6</ele>
        <time>2024-05-19T09:29:34Z</time>
      </trkpt>
      <trkpt lat="45.79018" lon="3.19753">
        <ele>327.6</ele>
        <time>2024-05-19T09:29:35Z</time>
      </trkpt>
      <trkpt lat="45.79018" lon="3.19763">
        <ele>327.6</ele>
        <time>2024-05-19T09:29:36Z</time>
      </trkpt>
      <trkpt lat="45.79017" lon="3.19773">
        <ele>327.6</ele>
        <time>2024-05-19T09:29:37Z</time>
      </trkpt>
      <trkpt lat="45.79017" lon="3.19783">
        <ele>327.6</ele>
        <time>2024-05-19T09:29:38Z</time>
      </trkpt>
      <trkpt lat="45.79016" lon="3.19793">
        <ele>327.6</ele>
        <time>2024-05-19T09:29:39Z</time>
      </trkpt>
      <trkpt lat="45.79016" lon="3.19803">
        <ele>327.6</ele>
        <time>2024-05-19T09:29:40Z</time>
      </trkpt>
      <trkpt lat="45.79015" lon="3.19813">
        <ele>327.6</ele>
        <time>2024-05-19T09:29:41Z</time>
      </trkpt>
      <trkpt lat="45.79015" lon="3.19823">
        <ele>327.6</ele>
        <time>2024-05-19T09:29:42Z</time>
      </trkpt>
      <trkpt lat="45.79014" lon="3.19833">
        <ele>327.6</ele>
        <time>2024-05-19T09:29:43Z</time>
      </trkpt>
      <trkpt lat="45.79014" lon="3.19843">
        <ele>327.6</ele>
        <time>2024-05-19T09:29:44Z</time>
      </trkpt>
      <trkpt lat="45.79013" lon="3.19853">
        <ele>327.6</ele>
        <time>2024-05-19T09:29:45Z</time>
      </trkpt>
      <trkpt lat="45.79013" lon="3.19864">
        <ele>327.6</ele>
        <time>2024-05-19T09:29:46Z</time>
      </trkpt>
      <trkpt lat="45.79012" lon="3.19874">
        <ele>327.4</ele>
        <time>2024-05-19T09:29:47Z</time>
      </trkpt>
      <trkpt lat="45.79011" lon="3.19884">
        <ele>327.4</ele>
        <time>2024-05-19T09:29:48Z</time>
      </trkpt>
      <trkpt lat="45.79011" lon="3.19894">
        <ele>327.4</ele>
        <time>2024-05-19T09:29:49Z</time>
      </trkpt>
      <trkpt lat="45.7901" lon="3.19904">
        <ele>327.4</ele>
        <time>2024-05-19T09:29:50Z</time>
      </trkpt>
      <trkpt lat="45.7901" lon="3.19914">
        <ele>327.4</ele>
        <time>2024-05-19T09:29:51Z</time>
      </trkpt>
      <trkpt lat="45.79009" lon="3.19924">
        <ele>327.4</ele>
        <time>2024-05-19T09:29:52Z</time>
      </trkpt>
      <trkpt lat="45.79009" lon="3.19934">
        <ele>327.4</ele>
        <time>2024-05-19T09:29:53Z</time>
      </trkpt>
      <trkpt lat="45.79008" lon="3.19944">
        <ele>327.2</ele>
        <time>2024-05-19T09:29:54Z</time>
      </trkpt>
      <trkpt lat="45.79008" lon="3.19954">
        <ele>327.2</ele>
        <time>2024-05-19T09:29:55Z</time>
      </trkpt>
      <trkpt lat="45.79007" lon="3.19964">
        <ele>327.2</ele>
        <time>2024-05-19T09:29:56Z</time>
      </trkpt>
      <trkpt lat="45.79007" lon="3.19974">
        <ele>327.2</ele>
        <time>2024-05-19T09:29:57Z</time>
      </trkpt>
      <trkpt lat="45.79006" lon="3.19984">
        <ele>327.2</ele>
        <time>2024-05-19T09:29:58Z</time>
      </trkpt>
      <trkpt lat="45.79006" lon="3.19994">
        <ele>327.2</ele>
        <time>2024-05-19T09:29:59Z</time>
      </trkpt>
      <trkpt lat="45.79005" lon="3.20004">
        <ele>327.2</ele>
        <time>2024-05-19T09:30:00Z</time>
      </trkpt>
      <trkpt lat="45.79005" lon="3.20014">
        <ele>327.2</ele>
        <time>2024-05-19T09:30:01Z</time>
      </trkpt>
      <trkpt lat="45.79004" lon="3.20024">
        <ele>327</ele>
        <time>2024-05-19T09:30:02Z</time>
      </trkpt>
      <trkpt lat="45.79004" lon="3.20033">
        <ele>327</ele>
        <time>2024-05-19T09:30:03Z</time>
      </trkpt>
      <trkpt lat="45.79003" lon="3.20043">
        <ele>327</ele>
        <time>2024-05-19T09:30:04Z</time>
      </trkpt>
      <trkpt lat="45.79003" lon="3.20053">
        <ele>327.2</ele>
        <time>2024-05-19T09:30:05Z</time>
      </trkpt>
      <trkpt lat="45.79002" lon="3.20062">
        <ele>327.2</ele>
        <time>2024-05-19T09:30:06Z</time>
      </trkpt>
      <trkpt lat="45.79002" lon="3.20072">
        <ele>327</ele>
        <time>2024-05-19T09:30:07Z</time>
      </trkpt>
      <trkpt lat="45.79001" lon="3.20082">
        <ele>327</ele>
        <time>2024-05-19T09:30:08Z</time>
      </trkpt>
      <trkpt lat="45.79001" lon="3.20091">
        <ele>327</ele>
        <time>2024-05-19T09:30:09Z</time>
      </trkpt>
      <trkpt lat="45.79001" lon="3.20101">
        <ele>326.8</ele>
        <time>2024-05-19T09:30:10Z</time>
      </trkpt>
      <trkpt lat="45.79" lon="3.20111">
        <ele>326.8</ele>
        <time>2024-05-19T09:30:11Z</time>
      </trkpt>
      <trkpt lat="45.79" lon="3.20121">
        <ele>326.8</ele>
        <time>2024-05-19T09:30:12Z</time>
      </trkpt>
      <trkpt lat="45.78999" lon="3.20131">
        <ele>326.8</ele>
        <time>2024-05-19T09:30:13Z</time>
      </trkpt>
      <trkpt lat="45.78998" lon="3.20141">
        <ele>326.8</ele>
        <time>2024-05-19T09:30:14Z</time>
      </trkpt>
      <trkpt lat="45.78996" lon="3.20151">
        <ele>326.8</ele>
        <time>2024-05-19T09:30:15Z</time>
      </trkpt>
      <trkpt lat="45.78995" lon="3.2016">
        <ele>326.8</ele>
        <time>2024-05-19T09:30:16Z</time>
      </trkpt>
      <trkpt lat="45.78993" lon="3.2017">
        <ele>326.6</ele>
        <time>2024-05-19T09:30:17Z</time>
      </trkpt>
      <trkpt lat="45.78991" lon="3.20179">
        <ele>326.6</ele>
        <time>2024-05-19T09:30:18Z</time>
      </trkpt>
      <trkpt lat="45.78989" lon="3.20188">
        <ele>326.6</ele>
        <time>2024-05-19T09:30:19Z</time>
      </trkpt>
      <trkpt lat="45.78988" lon="3.20197">
        <ele>326.6</ele>
        <time>2024-05-19T09:30:20Z</time>
      </trkpt>
      <trkpt lat="45.78986" lon="3.20206">
        <ele>326.6</ele>
        <time>2024-05-19T09:30:21Z</time>
      </trkpt>
      <trkpt lat="45.78984" lon="3.20215">
        <ele>326.6</ele>
        <time>2024-05-19T09:30:22Z</time>
      </trkpt>
      <trkpt lat="45.78982" lon="3.20224">
        <ele>326.6</ele>
        <time>2024-05-19T09:30:23Z</time>
      </trkpt>
      <trkpt lat="45.7898" lon="3.20234">
        <ele>326.6</ele>
        <time>2024-05-19T09:30:24Z</time>
      </trkpt>
      <trkpt lat="45.78977" lon="3.20243">
        <ele>326.6</ele>
        <time>2024-05-19T09:30:25Z</time>
      </trkpt>
      <trkpt lat="45.78974" lon="3.20252">
        <ele>326.6</ele>
        <time>2024-05-19T09:30:26Z</time>
      </trkpt>
      <trkpt lat="45.78971" lon="3.20261">
        <ele>326.6</ele>
        <time>2024-05-19T09:30:27Z</time>
      </trkpt>
      <trkpt lat="45.78968" lon="3.2027">
        <ele>326.6</ele>
        <time>2024-05-19T09:30:28Z</time>
      </trkpt>
      <trkpt lat="45.78964" lon="3.20278">
        <ele>326.6</ele>
        <time>2024-05-19T09:30:29Z</time>
      </trkpt>
      <trkpt lat="45.7896" lon="3.20286">
        <ele>326.6</ele>
        <time>2024-05-19T09:30:30Z</time>
      </trkpt>
      <trkpt lat="45.78957" lon="3.20294">
        <ele>326.6</ele>
        <time>2024-05-19T09:30:31Z</time>
      </trkpt>
      <trkpt lat="45.78953" lon="3.20302">
        <ele>326.6</ele>
        <time>2024-05-19T09:30:32Z</time>
      </trkpt>
      <trkpt lat="45.78949" lon="3.20311">
        <ele>326.6</ele>
        <time>2024-05-19T09:30:33Z</time>
      </trkpt>
      <trkpt lat="45.78946" lon="3.20319">
        <ele>326.6</ele>
        <time>2024-05-19T09:30:34Z</time>
      </trkpt>
      <trkpt lat="45.7894" lon="3.20326">
        <ele>326.6</ele>
        <time>2024-05-19T09:30:35Z</time>
      </trkpt>
      <trkpt lat="45.78935" lon="3.20333">
        <ele>326.6</ele>
        <time>2024-05-19T09:30:36Z</time>
      </trkpt>
      <trkpt lat="45.78931" lon="3.2034">
        <ele>326.4</ele>
        <time>2024-05-19T09:30:37Z</time>
      </trkpt>
      <trkpt lat="45.78926" lon="3.20347">
        <ele>326.4</ele>
        <time>2024-05-19T09:30:38Z</time>
      </trkpt>
      <trkpt lat="45.78921" lon="3.20354">
        <ele>326.4</ele>
        <time>2024-05-19T09:30:39Z</time>
      </trkpt>
      <trkpt lat="45.78916" lon="3.20361">
        <ele>326.4</ele>
        <time>2024-05-19T09:30:40Z</time>
      </trkpt>
      <trkpt lat="45.78911" lon="3.20367">
        <ele>326.4</ele>
        <time>2024-05-19T09:30:41Z</time>
      </trkpt>
      <trkpt lat="45.78906" lon="3.20374">
        <ele>326.4</ele>
        <time>2024-05-19T09:30:42Z</time>
      </trkpt>
      <trkpt lat="45.78901" lon="3.20381">
        <ele>326.4</ele>
        <time>2024-05-19T09:30:43Z</time>
      </trkpt>
      <trkpt lat="45.78896" lon="3.20388">
        <ele>326.4</ele>
        <time>2024-05-19T09:30:44Z</time>
      </trkpt>
      <trkpt lat="45.78889" lon="3.20394">
        <ele>326.4</ele>
        <time>2024-05-19T09:30:45Z</time>
      </trkpt>
      <trkpt lat="45.78883" lon="3.20399">
        <ele>326.6</ele>
        <time>2024-05-19T09:30:46Z</time>
      </trkpt>
      <trkpt lat="45.78877" lon="3.20404">
        <ele>326.6</ele>
        <time>2024-05-19T09:30:47Z</time>
      </trkpt>
      <trkpt lat="45.78871" lon="3.20409">
        <ele>326.4</ele>
        <time>2024-05-19T09:30:48Z</time>
      </trkpt>
      <trkpt lat="45.78865" lon="3.20413">
        <ele>326.4</ele>
        <time>2024-05-19T09:30:49Z</time>
      </trkpt>
      <trkpt lat="45.78858" lon="3.20418">
        <ele>326.6</ele>
        <time>2024-05-19T09:30:50Z</time>
      </trkpt>
      <trkpt lat="45.78852" lon="3.20423">
        <ele>326.4</ele>
        <time>2024-05-19T09:30:51Z</time>
      </trkpt>
      <trkpt lat="45.78846" lon="3.20428">
        <ele>326.4</ele>
        <time>2024-05-19T09:30:52Z</time>
      </trkpt>
      <trkpt lat="45.78839" lon="3.20433">
        <ele>326.4</ele>
        <time>2024-05-19T09:30:53Z</time>
      </trkpt>
      <trkpt lat="45.78832" lon="3.20436">
        <ele>326.4</ele>
        <time>2024-05-19T09:30:54Z</time>
      </trkpt>
      <trkpt lat="45.78825" lon="3.20439">
        <ele>326.4</ele>
        <time>2024-05-19T09:30:55Z</time>
      </trkpt>
      <trkpt lat="45.78818" lon="3.20442">
        <ele>326.4</ele>
        <time>2024-05-19T09:30:56Z</time>
      </trkpt>
      <trkpt lat="45.78811" lon="3.20445">
        <ele>326.4</ele>
        <time>2024-05-19T09:30:57Z</time>
      </trkpt>
      <trkpt lat="45.78805" lon="3.20447">
        <ele>326.4</ele>
        <time>2024-05-19T09:30:58Z</time>
      </trkpt>
      <trkpt lat="45.78798" lon="3.2045">
        <ele>326.4</ele>
        <time>2024-05-19T09:30:59Z</time>
      </trkpt>
      <trkpt lat="45.78791" lon="3.20452">
        <ele>326.4</ele>
        <time>2024-05-19T09:31:00Z</time>
      </trkpt>
      <trkpt lat="45.78784" lon="3.20453">
        <ele>326.4</ele>
        <time>2024-05-19T09:31:01Z</time>
      </trkpt>
      <trkpt lat="45.78777" lon="3.20454">
        <ele>326.4</ele>
        <time>2024-05-19T09:31:02Z</time>
      </trkpt>
      <trkpt lat="45.7877" lon="3.20456">
        <ele>326.2</ele>
        <time>2024-05-19T09:31:03Z</time>
      </trkpt>
      <trkpt lat="45.78763" lon="3.20457">
        <ele>326.2</ele>
        <time>2024-05-19T09:31:04Z</time>
      </trkpt>
      <trkpt lat="45.78756" lon="3.20457">
        <ele>326.4</ele>
        <time>2024-05-19T09:31:05Z</time>
      </trkpt>
      <trkpt lat="45.78749" lon="3.20457">
        <ele>326.2</ele>
        <time>2024-05-19T09:31:06Z</time>
      </trkpt>
      <trkpt lat="45.78742" lon="3.20456">
        <ele>326.2</ele>
        <time>2024-05-19T09:31:07Z</time>
      </trkpt>
      <trkpt lat="45.78735" lon="3.20456">
        <ele>326.2</ele>
        <time>2024-05-19T09:31:08Z</time>
      </trkpt>
      <trkpt lat="45.78728" lon="3.20455">
        <ele>326.2</ele>
        <time>2024-05-19T09:31:09Z</time>
      </trkpt>
      <trkpt lat="45.78721" lon="3.20455">
        <ele>326.2</ele>
        <time>2024-05-19T09:31:10Z</time>
      </trkpt>
      <trkpt lat="45.78714" lon="3.20454">
        <ele>326.2</ele>
        <time>2024-05-19T09:31:11Z</time>
      </trkpt>
      <trkpt lat="45.78707" lon="3.20454">
        <ele>326.2</ele>
        <time>2024-05-19T09:31:12Z</time>
      </trkpt>
      <trkpt lat="45.787" lon="3.20454">
        <ele>326.2</ele>
        <time>2024-05-19T09:31:13Z</time>
      </trkpt>
      <trkpt lat="45.78692" lon="3.20453">
        <ele>326.2</ele>
        <time>2024-05-19T09:31:14Z</time>
      </trkpt>
      <trkpt lat="45.78686" lon="3.2045">
        <ele>326.2</ele>
        <time>2024-05-19T09:31:15Z</time>
      </trkpt>
      <trkpt lat="45.7868" lon="3.20446">
        <ele>326.2</ele>
        <time>2024-05-19T09:31:16Z</time>
      </trkpt>
      <trkpt lat="45.78673" lon="3.20443">
        <ele>326.2</ele>
        <time>2024-05-19T09:31:17Z</time>
      </trkpt>
      <trkpt lat="45.78667" lon="3.2044">
        <ele>326.2</ele>
        <time>2024-05-19T09:31:18Z</time>
      </trkpt>
      <trkpt lat="45.7866" lon="3.20437">
        <ele>326.2</ele>
        <time>2024-05-19T09:31:19Z</time>
      </trkpt>
      <trkpt lat="45.78654" lon="3.20434">
        <ele>326.2</ele>
        <time>2024-05-19T09:31:20Z</time>
      </trkpt>
      <trkpt lat="45.78648" lon="3.20431">
        <ele>326.2</ele>
        <time>2024-05-19T09:31:21Z</time>
      </trkpt>
      <trkpt lat="45.78641" lon="3.20428">
        <ele>326.2</ele>
        <time>2024-05-19T09:31:22Z</time>
      </trkpt>
      <trkpt lat="45.78635" lon="3.20425">
        <ele>326.4</ele>
        <time>2024-05-19T09:31:23Z</time>
      </trkpt>
      <trkpt lat="45.78628" lon="3.20422">
        <ele>326.2</ele>
        <time>2024-05-19T09:31:24Z</time>
      </trkpt>
      <trkpt lat="45.78622" lon="3.20419">
        <ele>326.4</ele>
        <time>2024-05-19T09:31:25Z</time>
      </trkpt>
      <trkpt lat="45.78615" lon="3.20416">
        <ele>326.4</ele>
        <time>2024-05-19T09:31:26Z</time>
      </trkpt>
      <trkpt lat="45.78609" lon="3.20413">
        <ele>326.4</ele>
        <time>2024-05-19T09:31:27Z</time>
      </trkpt>
      <trkpt lat="45.78602" lon="3.2041">
        <ele>326.2</ele>
        <time>2024-05-19T09:31:28Z</time>
      </trkpt>
      <trkpt lat="45.78596" lon="3.20407">
        <ele>326.4</ele>
        <time>2024-05-19T09:31:29Z</time>
      </trkpt>
      <trkpt lat="45.78589" lon="3.20404">
        <ele>326.4</ele>
        <time>2024-05-19T09:31:30Z</time>
      </trkpt>
      <trkpt lat="45.78583" lon="3.20401">
        <ele>326.2</ele>
        <time>2024-05-19T09:31:31Z</time>
      </trkpt>
      <trkpt lat="45.78576" lon="3.20397">
        <ele>326.4</ele>
        <time>2024-05-19T09:31:32Z</time>
      </trkpt>
      <trkpt lat="45.7857" lon="3.20394">
        <ele>326.4</ele>
        <time>2024-05-19T09:31:33Z</time>
      </trkpt>
      <trkpt lat="45.78563" lon="3.2039">
        <ele>326.4</ele>
        <time>2024-05-19T09:31:34Z</time>
      </trkpt>
      <trkpt lat="45.78557" lon="3.20387">
        <ele>326.4</ele>
        <time>2024-05-19T09:31:35Z</time>
      </trkpt>
      <trkpt lat="45.7855" lon="3.20383">
        <ele>326.4</ele>
        <time>2024-05-19T09:31:36Z</time>
      </trkpt>
      <trkpt lat="45.78544" lon="3.2038">
        <ele>326.4</ele>
        <time>2024-05-19T09:31:37Z</time>
      </trkpt>
      <trkpt lat="45.78537" lon="3.20376">
        <ele>326.4</ele>
        <time>2024-05-19T09:31:38Z</time>
      </trkpt>
      <trkpt lat="45.7853" lon="3.20372">
        <ele>326.4</ele>
        <time>2024-05-19T09:31:39Z</time>
      </trkpt>
      <trkpt lat="45.78524" lon="3.20369">
        <ele>326.4</ele>
        <time>2024-05-19T09:31:40Z</time>
      </trkpt>
      <trkpt lat="45.78517" lon="3.20365">
        <ele>326.4</ele>
        <time>2024-05-19T09:31:41Z</time>
      </trkpt>
      <trkpt lat="45.78511" lon="3.20362">
        <ele>326.4</ele>
        <time>2024-05-19T09:31:42Z</time>
      </trkpt>
      <trkpt lat="45.78504" lon="3.20358">
        <ele>326.4</ele>
        <time>2024-05-19T09:31:43Z</time>
      </trkpt>
      <trkpt lat="45.78497" lon="3.20354">
        <ele>326.2</ele>
        <time>2024-05-19T09:31:44Z</time>
      </trkpt>
      <trkpt lat="45.7849" lon="3.20351">
        <ele>326.4</ele>
        <time>2024-05-19T09:31:45Z</time>
      </trkpt>
      <trkpt lat="45.78484" lon="3.20347">
        <ele>326.4</ele>
        <time>2024-05-19T09:31:46Z</time>
      </trkpt>
      <trkpt lat="45.78478" lon="3.20344">
        <ele>326.4</ele>
        <time>2024-05-19T09:31:47Z</time>
      </trkpt>
      <trkpt lat="45.78472" lon="3.2034">
        <ele>326.4</ele>
        <time>2024-05-19T09:31:48Z</time>
      </trkpt>
      <trkpt lat="45.78465" lon="3.20337">
        <ele>326.6</ele>
        <time>2024-05-19T09:31:49Z</time>
      </trkpt>
      <trkpt lat="45.78459" lon="3.20333">
        <ele>326.6</ele>
        <time>2024-05-19T09:31:50Z</time>
      </trkpt>
      <trkpt lat="45.78452" lon="3.2033">
        <ele>326.6</ele>
        <time>2024-05-19T09:31:51Z</time>
      </trkpt>
      <trkpt lat="45.78446" lon="3.20326">
        <ele>326.6</ele>
        <time>2024-05-19T09:31:52Z</time>
      </trkpt>
      <trkpt lat="45.7844" lon="3.20323">
        <ele>326.6</ele>
        <time>2024-05-19T09:31:53Z</time>
      </trkpt>
      <trkpt lat="45.78433" lon="3.20319">
        <ele>326.6</ele>
        <time>2024-05-19T09:31:54Z</time>
      </trkpt>
      <trkpt lat="45.78427" lon="3.20316">
        <ele>326.6</ele>
        <time>2024-05-19T09:31:55Z</time>
      </trkpt>
      <trkpt lat="45.7842" lon="3.20312">
        <ele>326.8</ele>
        <time>2024-05-19T09:31:56Z</time>
      </trkpt>
      <trkpt lat="45.78414" lon="3.20309">
        <ele>326.8</ele>
        <time>2024-05-19T09:31:57Z</time>
      </trkpt>
      <trkpt lat="45.78407" lon="3.20307">
        <ele>326.8</ele>
        <time>2024-05-19T09:31:58Z</time>
      </trkpt>
      <trkpt lat="45.78401" lon="3.20304">
        <ele>326.8</ele>
        <time>2024-05-19T09:31:59Z</time>
      </trkpt>
      <trkpt lat="45.78394" lon="3.20302">
        <ele>326.8</ele>
        <time>2024-05-19T09:32:00Z</time>
      </trkpt>
      <trkpt lat="45.78388" lon="3.203">
        <ele>326.8</ele>
        <time>2024-05-19T09:32:01Z</time>
      </trkpt>
      <trkpt lat="45.78381" lon="3.20297">
        <ele>326.8</ele>
        <time>2024-05-19T09:32:02Z</time>
      </trkpt>
      <trkpt lat="45.78374" lon="3.20295">
        <ele>326.8</ele>
        <time>2024-05-19T09:32:03Z</time>
      </trkpt>
      <trkpt lat="45.78368" lon="3.20293">
        <ele>326.8</ele>
        <time>2024-05-19T09:32:04Z</time>
      </trkpt>
      <trkpt lat="45.78361" lon="3.2029">
        <ele>326.8</ele>
        <time>2024-05-19T09:32:05Z</time>
      </trkpt>
      <trkpt lat="45.78354" lon="3.20288">
        <ele>326.8</ele>
        <time>2024-05-19T09:32:06Z</time>
      </trkpt>
      <trkpt lat="45.78347" lon="3.20285">
        <ele>326.8</ele>
        <time>2024-05-19T09:32:07Z</time>
      </trkpt>
      <trkpt lat="45.78341" lon="3.20283">
        <ele>326.8</ele>
        <time>2024-05-19T09:32:08Z</time>
      </trkpt>
      <trkpt lat="45.78334" lon="3.20281">
        <ele>326.8</ele>
        <time>2024-05-19T09:32:09Z</time>
      </trkpt>
      <trkpt lat="45.78327" lon="3.20278">
        <ele>326.8</ele>
        <time>2024-05-19T09:32:10Z</time>
      </trkpt>
      <trkpt lat="45.7832" lon="3.20276">
        <ele>326.8</ele>
        <time>2024-05-19T09:32:11Z</time>
      </trkpt>
      <trkpt lat="45.78313" lon="3.20274">
        <ele>326.8</ele>
        <time>2024-05-19T09:32:12Z</time>
      </trkpt>
      <trkpt lat="45.78307" lon="3.20273">
        <ele>326.8</ele>
        <time>2024-05-19T09:32:13Z</time>
      </trkpt>
      <trkpt lat="45.783" lon="3.20271">
        <ele>326.8</ele>
        <time>2024-05-19T09:32:14Z</time>
      </trkpt>
      <trkpt lat="45.78293" lon="3.2027">
        <ele>327</ele>
        <time>2024-05-19T09:32:15Z</time>
      </trkpt>
      <trkpt lat="45.78287" lon="3.20268">
        <ele>327</ele>
        <time>2024-05-19T09:32:16Z</time>
      </trkpt>
      <trkpt lat="45.7828" lon="3.20267">
        <ele>327</ele>
        <time>2024-05-19T09:32:17Z</time>
      </trkpt>
      <trkpt lat="45.78273" lon="3.20266">
        <ele>327</ele>
        <time>2024-05-19T09:32:18Z</time>
      </trkpt>
      <trkpt lat="45.78267" lon="3.20264">
        <ele>327</ele>
        <time>2024-05-19T09:32:19Z</time>
      </trkpt>
      <trkpt lat="45.7826" lon="3.20263">
        <ele>327</ele>
        <time>2024-05-19T09:32:20Z</time>
      </trkpt>
      <trkpt lat="45.78254" lon="3.20261">
        <ele>327</ele>
        <time>2024-05-19T09:32:21Z</time>
      </trkpt>
      <trkpt lat="45.78247" lon="3.2026">
        <ele>327</ele>
        <time>2024-05-19T09:32:22Z</time>
      </trkpt>
      <trkpt lat="45.78241" lon="3.2026">
        <ele>327</ele>
        <time>2024-05-19T09:32:23Z</time>
      </trkpt>
      <trkpt lat="45.78235" lon="3.20259">
        <ele>327</ele>
        <time>2024-05-19T09:32:24Z</time>
      </trkpt>
      <trkpt lat="45.78228" lon="3.20259">
        <ele>327</ele>
        <time>2024-05-19T09:32:25Z</time>
      </trkpt>
      <trkpt lat="45.78222" lon="3.20259">
        <ele>327</ele>
        <time>2024-05-19T09:32:26Z</time>
      </trkpt>
      <trkpt lat="45.78215" lon="3.20258">
        <ele>327</ele>
        <time>2024-05-19T09:32:27Z</time>
      </trkpt>
      <trkpt lat="45.78209" lon="3.20258">
        <ele>327</ele>
        <time>2024-05-19T09:32:28Z</time>
      </trkpt>
      <trkpt lat="45.78202" lon="3.20257">
        <ele>327</ele>
        <time>2024-05-19T09:32:29Z</time>
      </trkpt>
      <trkpt lat="45.78196" lon="3.20257">
        <ele>327</ele>
        <time>2024-05-19T09:32:30Z</time>
      </trkpt>
      <trkpt lat="45.78189" lon="3.20257">
        <ele>327</ele>
        <time>2024-05-19T09:32:31Z</time>
      </trkpt>
      <trkpt lat="45.78183" lon="3.20256">
        <ele>327</ele>
        <time>2024-05-19T09:32:32Z</time>
      </trkpt>
      <trkpt lat="45.78176" lon="3.20256">
        <ele>327</ele>
        <time>2024-05-19T09:32:33Z</time>
      </trkpt>
      <trkpt lat="45.7817" lon="3.20256">
        <ele>327</ele>
        <time>2024-05-19T09:32:34Z</time>
      </trkpt>
      <trkpt lat="45.78163" lon="3.20255">
        <ele>327.2</ele>
        <time>2024-05-19T09:32:35Z</time>
      </trkpt>
      <trkpt lat="45.78157" lon="3.20255">
        <ele>327</ele>
        <time>2024-05-19T09:32:36Z</time>
      </trkpt>
      <trkpt lat="45.78151" lon="3.20255">
        <ele>327</ele>
        <time>2024-05-19T09:32:37Z</time>
      </trkpt>
      <trkpt lat="45.78145" lon="3.20254">
        <ele>327</ele>
        <time>2024-05-19T09:32:38Z</time>
      </trkpt>
      <trkpt lat="45.78138" lon="3.20254">
        <ele>327</ele>
        <time>2024-05-19T09:32:39Z</time>
      </trkpt>
      <trkpt lat="45.78133" lon="3.20253">
        <ele>327</ele>
        <time>2024-05-19T09:32:40Z</time>
      </trkpt>
      <trkpt lat="45.78127" lon="3.20253">
        <ele>327</ele>
        <time>2024-05-19T09:32:41Z</time>
      </trkpt>
      <trkpt lat="45.78121" lon="3.20253">
        <ele>327</ele>
        <time>2024-05-19T09:32:42Z</time>
      </trkpt>
      <trkpt lat="45.78115" lon="3.20252">
        <ele>327.2</ele>
        <time>2024-05-19T09:32:43Z</time>
      </trkpt>
      <trkpt lat="45.78109" lon="3.20252">
        <ele>327.2</ele>
        <time>2024-05-19T09:32:44Z</time>
      </trkpt>
      <trkpt lat="45.78104" lon="3.20252">
        <ele>327.2</ele>
        <time>2024-05-19T09:32:45Z</time>
      </trkpt>
      <trkpt lat="45.78098" lon="3.20252">
        <ele>327.2</ele>
        <time>2024-05-19T09:32:46Z</time>
      </trkpt>
      <trkpt lat="45.78093" lon="3.20251">
        <ele>327.4</ele>
        <time>2024-05-19T09:32:47Z</time>
      </trkpt>
      <trkpt lat="45.78088" lon="3.20251">
        <ele>327.4</ele>
        <time>2024-05-19T09:32:48Z</time>
      </trkpt>
      <trkpt lat="45.78083" lon="3.2025">
        <ele>327.4</ele>
        <time>2024-05-19T09:32:49Z</time>
      </trkpt>
      <trkpt lat="45.78078" lon="3.2025">
        <ele>327.6</ele>
        <time>2024-05-19T09:32:50Z</time>
      </trkpt>
      <trkpt lat="45.78073" lon="3.20249">
        <ele>327.6</ele>
        <time>2024-05-19T09:32:51Z</time>
      </trkpt>
      <trkpt lat="45.78069" lon="3.20249">
        <ele>327.6</ele>
        <time>2024-05-19T09:32:52Z</time>
      </trkpt>
      <trkpt lat="45.78064" lon="3.20249">
        <ele>327.6</ele>
        <time>2024-05-19T09:32:53Z</time>
      </trkpt>
      <trkpt lat="45.78059" lon="3.20248">
        <ele>327.8</ele>
        <time>2024-05-19T09:32:54Z</time>
      </trkpt>
      <trkpt lat="45.78054" lon="3.20248">
        <ele>327.8</ele>
        <time>2024-05-19T09:32:55Z</time>
      </trkpt>
      <trkpt lat="45.78049" lon="3.20247">
        <ele>328</ele>
        <time>2024-05-19T09:32:56Z</time>
      </trkpt>
      <trkpt lat="45.78044" lon="3.20247">
        <ele>328</ele>
        <time>2024-05-19T09:32:57Z</time>
      </trkpt>
      <trkpt lat="45.7804" lon="3.20247">
        <ele>328</ele>
        <time>2024-05-19T09:32:58Z</time>
      </trkpt>
      <trkpt lat="45.78035" lon="3.20246">
        <ele>328.2</ele>
        <time>2024-05-19T09:32:59Z</time>
      </trkpt>
      <trkpt lat="45.78031" lon="3.20246">
        <ele>328.2</ele>
        <time>2024-05-19T09:33:00Z</time>
      </trkpt>
      <trkpt lat="45.78027" lon="3.20245">
        <ele>328.2</ele>
        <time>2024-05-19T09:33:01Z</time>
      </trkpt>
      <trkpt lat="45.78019" lon="3.2024">
        <ele>328.2</ele>
        <time>2024-05-19T09:33:02Z</time>
      </trkpt>
      <trkpt lat="45.78018" lon="3.20239">
        <ele>328.4</ele>
        <time>2024-05-19T09:33:03Z</time>
      </trkpt>
      <trkpt lat="45.78013" lon="3.2024">
        <ele>328.4</ele>
        <time>2024-05-19T09:33:04Z</time>
      </trkpt>
      <trkpt lat="45.78008" lon="3.20241">
        <ele>328.4</ele>
        <time>2024-05-19T09:33:05Z</time>
      </trkpt>
      <trkpt lat="45.78007" lon="3.20241">
        <ele>328.6</ele>
        <time>2024-05-19T09:33:06Z</time>
      </trkpt>
      <trkpt lat="45.78004" lon="3.20246">
        <ele>328.6</ele>
        <time>2024-05-19T09:33:07Z</time>
      </trkpt>
      <trkpt lat="45.77994" lon="3.2025">
        <ele>328.8</ele>
        <time>2024-05-19T09:33:08Z</time>
      </trkpt>
      <trkpt lat="45.7799" lon="3.20251">
        <ele>328.8</ele>
        <time>2024-05-19T09:33:09Z</time>
      </trkpt>
      <trkpt lat="45.77984" lon="3.20251">
        <ele>329</ele>
        <time>2024-05-19T09:33:10Z</time>
      </trkpt>
      <trkpt lat="45.77979" lon="3.20252">
        <ele>329</ele>
        <time>2024-05-19T09:33:11Z</time>
      </trkpt>
      <trkpt lat="45.77974" lon="3.20252">
        <ele>329.2</ele>
        <time>2024-05-19T09:33:12Z</time>
      </trkpt>
      <trkpt lat="45.77969" lon="3.20253">
        <ele>329.2</ele>
        <time>2024-05-19T09:33:13Z</time>
      </trkpt>
      <trkpt lat="45.77965" lon="3.20253">
        <ele>329.2</ele>
        <time>2024-05-19T09:33:14Z</time>
      </trkpt>
      <trkpt lat="45.7796" lon="3.20253">
        <ele>329.4</ele>
        <time>2024-05-19T09:33:15Z</time>
      </trkpt>
      <trkpt lat="45.77956" lon="3.20254">
        <ele>329.6</ele>
        <time>2024-05-19T09:33:16Z</time>
      </trkpt>
      <trkpt lat="45.77951" lon="3.20254">
        <ele>329.6</ele>
        <time>2024-05-19T09:33:17Z</time>
      </trkpt>
      <trkpt lat="45.77947" lon="3.20255">
        <ele>329.8</ele>
        <time>2024-05-19T09:33:18Z</time>
      </trkpt>
      <trkpt lat="45.77943" lon="3.20255">
        <ele>329.8</ele>
        <time>2024-05-19T09:33:19Z</time>
      </trkpt>
      <trkpt lat="45.77938" lon="3.20256">
        <ele>330</ele>
        <time>2024-05-19T09:33:20Z</time>
      </trkpt>
      <trkpt lat="45.77933" lon="3.20256">
        <ele>330</ele>
        <time>2024-05-19T09:33:21Z</time>
      </trkpt>
      <trkpt lat="45.77929" lon="3.20256">
        <ele>330</ele>
        <time>2024-05-19T09:33:22Z</time>
      </trkpt>
      <trkpt lat="45.77924" lon="3.20257">
        <ele>330.2</ele>
        <time>2024-05-19T09:33:23Z</time>
      </trkpt>
      <trkpt lat="45.7792" lon="3.20257">
        <ele>330.2</ele>
        <time>2024-05-19T09:33:24Z</time>
      </trkpt>
      <trkpt lat="45.77915" lon="3.20258">
        <ele>330.4</ele>
        <time>2024-05-19T09:33:25Z</time>
      </trkpt>
      <trkpt lat="45.7791" lon="3.20258">
        <ele>330.4</ele>
        <time>2024-05-19T09:33:26Z</time>
      </trkpt>
      <trkpt lat="45.77905" lon="3.20258">
        <ele>330.6</ele>
        <time>2024-05-19T09:33:27Z</time>
      </trkpt>
      <trkpt lat="45.77901" lon="3.20258">
        <ele>330.6</ele>
        <time>2024-05-19T09:33:28Z</time>
      </trkpt>
      <trkpt lat="45.77896" lon="3.20258">
        <ele>330.6</ele>
        <time>2024-05-19T09:33:29Z</time>
      </trkpt>
      <trkpt lat="45.77891" lon="3.20258">
        <ele>330.6</ele>
        <time>2024-05-19T09:33:30Z</time>
      </trkpt>
      <trkpt lat="45.77887" lon="3.20258">
        <ele>330.6</ele>
        <time>2024-05-19T09:33:31Z</time>
      </trkpt>
      <trkpt lat="45.77882" lon="3.20258">
        <ele>330.8</ele>
        <time>2024-05-19T09:33:32Z</time>
      </trkpt>
      <trkpt lat="45.77877" lon="3.20258">
        <ele>330.8</ele>
        <time>2024-05-19T09:33:33Z</time>
      </trkpt>
      <trkpt lat="45.77872" lon="3.20258">
        <ele>331</ele>
        <time>2024-05-19T09:33:34Z</time>
      </trkpt>
      <trkpt lat="45.77867" lon="3.20258">
        <ele>331</ele>
        <time>2024-05-19T09:33:35Z</time>
      </trkpt>
      <trkpt lat="45.77862" lon="3.20258">
        <ele>331.2</ele>
        <time>2024-05-19T09:33:36Z</time>
      </trkpt>
      <trkpt lat="45.77858" lon="3.20257">
        <ele>331</ele>
        <time>2024-05-19T09:33:37Z</time>
      </trkpt>
      <trkpt lat="45.77852" lon="3.20256">
        <ele>331.2</ele>
        <time>2024-05-19T09:33:38Z</time>
      </trkpt>
      <trkpt lat="45.77847" lon="3.20256">
        <ele>331.4</ele>
        <time>2024-05-19T09:33:39Z</time>
      </trkpt>
      <trkpt lat="45.77842" lon="3.20255">
        <ele>331.4</ele>
        <time>2024-05-19T09:33:40Z</time>
      </trkpt>
      <trkpt lat="45.77837" lon="3.20254">
        <ele>331.4</ele>
        <time>2024-05-19T09:33:41Z</time>
      </trkpt>
      <trkpt lat="45.77831" lon="3.20253">
        <ele>331.4</ele>
        <time>2024-05-19T09:33:42Z</time>
      </trkpt>
      <trkpt lat="45.77825" lon="3.20252">
        <ele>331.6</ele>
        <time>2024-05-19T09:33:43Z</time>
      </trkpt>
      <trkpt lat="45.7782" lon="3.20252">
        <ele>331.6</ele>
        <time>2024-05-19T09:33:44Z</time>
      </trkpt>
      <trkpt lat="45.77814" lon="3.20255">
        <ele>331.6</ele>
        <time>2024-05-19T09:33:45Z</time>
      </trkpt>
      <trkpt lat="45.77808" lon="3.20255">
        <ele>331.6</ele>
        <time>2024-05-19T09:33:46Z</time>
      </trkpt>
      <trkpt lat="45.77803" lon="3.20255">
        <ele>331.6</ele>
        <time>2024-05-19T09:33:47Z</time>
      </trkpt>
      <trkpt lat="45.77797" lon="3.20254">
        <ele>331.8</ele>
        <time>2024-05-19T09:33:48Z</time>
      </trkpt>
      <trkpt lat="45.77791" lon="3.20254">
        <ele>331.8</ele>
        <time>2024-05-19T09:33:49Z</time>
      </trkpt>
      <trkpt lat="45.77785" lon="3.20254">
        <ele>331.8</ele>
        <time>2024-05-19T09:33:50Z</time>
      </trkpt>
      <trkpt lat="45.77779" lon="3.20254">
        <ele>331.8</ele>
        <time>2024-05-19T09:33:51Z</time>
      </trkpt>
      <trkpt lat="45.77774" lon="3.20254">
        <ele>331.8</ele>
        <time>2024-05-19T09:33:52Z</time>
      </trkpt>
      <trkpt lat="45.77768" lon="3.20254">
        <ele>332</ele>
        <time>2024-05-19T09:33:53Z</time>
      </trkpt>
      <trkpt lat="45.77762" lon="3.20254">
        <ele>332</ele>
        <time>2024-05-19T09:33:54Z</time>
      </trkpt>
      <trkpt lat="45.77756" lon="3.20254">
        <ele>332</ele>
        <time>2024-05-19T09:33:55Z</time>
      </trkpt>
      <trkpt lat="45.7775" lon="3.20254">
        <ele>332</ele>
        <time>2024-05-19T09:33:56Z</time>
      </trkpt>
      <trkpt lat="45.77744" lon="3.20254">
        <ele>332.2</ele>
        <time>2024-05-19T09:33:57Z</time>
      </trkpt>
      <trkpt lat="45.77738" lon="3.20254">
        <ele>332.2</ele>
        <time>2024-05-19T09:33:58Z</time>
      </trkpt>
      <trkpt lat="45.77732" lon="3.20255">
        <ele>332.2</ele>
        <time>2024-05-19T09:33:59Z</time>
      </trkpt>
      <trkpt lat="45.77726" lon="3.20255">
        <ele>332.2</ele>
        <time>2024-05-19T09:34:00Z</time>
      </trkpt>
      <trkpt lat="45.7772" lon="3.20255">
        <ele>332.2</ele>
        <time>2024-05-19T09:34:01Z</time>
      </trkpt>
      <trkpt lat="45.77714" lon="3.20255">
        <ele>332.4</ele>
        <time>2024-05-19T09:34:02Z</time>
      </trkpt>
      <trkpt lat="45.77708" lon="3.20256">
        <ele>332.4</ele>
        <time>2024-05-19T09:34:03Z</time>
      </trkpt>
      <trkpt lat="45.77703" lon="3.20256">
        <ele>332.4</ele>
        <time>2024-05-19T09:34:04Z</time>
      </trkpt>
      <trkpt lat="45.77697" lon="3.20258">
        <ele>332.4</ele>
        <time>2024-05-19T09:34:05Z</time>
      </trkpt>
      <trkpt lat="45.77691" lon="3.20259">
        <ele>332.6</ele>
        <time>2024-05-19T09:34:06Z</time>
      </trkpt>
      <trkpt lat="45.77685" lon="3.20261">
        <ele>332.6</ele>
        <time>2024-05-19T09:34:07Z</time>
      </trkpt>
      <trkpt lat="45.7768" lon="3.20262">
        <ele>332.6</ele>
        <time>2024-05-19T09:34:08Z</time>
      </trkpt>
      <trkpt lat="45.77674" lon="3.20263">
        <ele>332.6</ele>
        <time>2024-05-19T09:34:09Z</time>
      </trkpt>
      <trkpt lat="45.77668" lon="3.20265">
        <ele>332.8</ele>
        <time>2024-05-19T09:34:10Z</time>
      </trkpt>
      <trkpt lat="45.77663" lon="3.20266">
        <ele>332.8</ele>
        <time>2024-05-19T09:34:11Z</time>
      </trkpt>
      <trkpt lat="45.77657" lon="3.20268">
        <ele>332.8</ele>
        <time>2024-05-19T09:34:12Z</time>
      </trkpt>
      <trkpt lat="45.77651" lon="3.20269">
        <ele>333</ele>
        <time>2024-05-19T09:34:13Z</time>
      </trkpt>
      <trkpt lat="45.77645" lon="3.20271">
        <ele>333</ele>
        <time>2024-05-19T09:34:14Z</time>
      </trkpt>
      <trkpt lat="45.7764" lon="3.20274">
        <ele>333</ele>
        <time>2024-05-19T09:34:15Z</time>
      </trkpt>
      <trkpt lat="45.77635" lon="3.20278">
        <ele>333</ele>
        <time>2024-05-19T09:34:16Z</time>
      </trkpt>
      <trkpt lat="45.7763" lon="3.20282">
        <ele>333.2</ele>
        <time>2024-05-19T09:34:17Z</time>
      </trkpt>
      <trkpt lat="45.77625" lon="3.20285">
        <ele>333.2</ele>
        <time>2024-05-19T09:34:18Z</time>
      </trkpt>
      <trkpt lat="45.77619" lon="3.20289">
        <ele>333.2</ele>
        <time>2024-05-19T09:34:19Z</time>
      </trkpt>
      <trkpt lat="45.77614" lon="3.20293">
        <ele>333.4</ele>
        <time>2024-05-19T09:34:20Z</time>
      </trkpt>
      <trkpt lat="45.77608" lon="3.20297">
        <ele>333.4</ele>
        <time>2024-05-19T09:34:21Z</time>
      </trkpt>
      <trkpt lat="45.77603" lon="3.20301">
        <ele>333.4</ele>
        <time>2024-05-19T09:34:22Z</time>
      </trkpt>
      <trkpt lat="45.77598" lon="3.20305">
        <ele>333.6</ele>
        <time>2024-05-19T09:34:23Z</time>
      </trkpt>
      <trkpt lat="45.77593" lon="3.20309">
        <ele>333.6</ele>
        <time>2024-05-19T09:34:24Z</time>
      </trkpt>
      <trkpt lat="45.77588" lon="3.20312">
        <ele>333.6</ele>
        <time>2024-05-19T09:34:25Z</time>
      </trkpt>
      <trkpt lat="45.77583" lon="3.20316">
        <ele>333.8</ele>
        <time>2024-05-19T09:34:26Z</time>
      </trkpt>
      <trkpt lat="45.77578" lon="3.20321">
        <ele>333.8</ele>
        <time>2024-05-19T09:34:27Z</time>
      </trkpt>
      <trkpt lat="45.77573" lon="3.20326">
        <ele>333.8</ele>
        <time>2024-05-19T09:34:28Z</time>
      </trkpt>
      <trkpt lat="45.77568" lon="3.20331">
        <ele>334</ele>
        <time>2024-05-19T09:34:29Z</time>
      </trkpt>
      <trkpt lat="45.77563" lon="3.20336">
        <ele>334</ele>
        <time>2024-05-19T09:34:30Z</time>
      </trkpt>
      <trkpt lat="45.77558" lon="3.20341">
        <ele>334</ele>
        <time>2024-05-19T09:34:31Z</time>
      </trkpt>
      <trkpt lat="45.77553" lon="3.20347">
        <ele>334.2</ele>
        <time>2024-05-19T09:34:32Z</time>
      </trkpt>
      <trkpt lat="45.77549" lon="3.20352">
        <ele>334.2</ele>
        <time>2024-05-19T09:34:33Z</time>
      </trkpt>
      <trkpt lat="45.77545" lon="3.20358">
        <ele>334.2</ele>
        <time>2024-05-19T09:34:34Z</time>
      </trkpt>
      <trkpt lat="45.77541" lon="3.20364">
        <ele>334.2</ele>
        <time>2024-05-19T09:34:35Z</time>
      </trkpt>
      <trkpt lat="45.77537" lon="3.2037">
        <ele>334.4</ele>
        <time>2024-05-19T09:34:36Z</time>
      </trkpt>
      <trkpt lat="45.77533" lon="3.20376">
        <ele>334.4</ele>
        <time>2024-05-19T09:34:37Z</time>
      </trkpt>
      <trkpt lat="45.7753" lon="3.20381">
        <ele>334.6</ele>
        <time>2024-05-19T09:34:38Z</time>
      </trkpt>
      <trkpt lat="45.77526" lon="3.20388">
        <ele>334.6</ele>
        <time>2024-05-19T09:34:39Z</time>
      </trkpt>
      <trkpt lat="45.77522" lon="3.20394">
        <ele>334.6</ele>
        <time>2024-05-19T09:34:40Z</time>
      </trkpt>
      <trkpt lat="45.77518" lon="3.204">
        <ele>334.8</ele>
        <time>2024-05-19T09:34:41Z</time>
      </trkpt>
      <trkpt lat="45.77515" lon="3.20406">
        <ele>334.8</ele>
        <time>2024-05-19T09:34:42Z</time>
      </trkpt>
      <trkpt lat="45.77511" lon="3.20412">
        <ele>335</ele>
        <time>2024-05-19T09:34:43Z</time>
      </trkpt>
      <trkpt lat="45.77507" lon="3.20418">
        <ele>335</ele>
        <time>2024-05-19T09:34:44Z</time>
      </trkpt>
      <trkpt lat="45.77504" lon="3.20425">
        <ele>335</ele>
        <time>2024-05-19T09:34:45Z</time>
      </trkpt>
      <trkpt lat="45.77501" lon="3.20432">
        <ele>335</ele>
        <time>2024-05-19T09:34:46Z</time>
      </trkpt>
      <trkpt lat="45.77498" lon="3.20439">
        <ele>335.2</ele>
        <time>2024-05-19T09:34:47Z</time>
      </trkpt>
      <trkpt lat="45.77495" lon="3.20446">
        <ele>335.2</ele>
        <time>2024-05-19T09:34:48Z</time>
      </trkpt>
      <trkpt lat="45.77492" lon="3.20454">
        <ele>335.2</ele>
        <time>2024-05-19T09:34:49Z</time>
      </trkpt>
      <trkpt lat="45.7749" lon="3.20462">
        <ele>335.4</ele>
        <time>2024-05-19T09:34:50Z</time>
      </trkpt>
      <trkpt lat="45.77487" lon="3.2047">
        <ele>335.4</ele>
        <time>2024-05-19T09:34:51Z</time>
      </trkpt>
      <trkpt lat="45.77485" lon="3.20477">
        <ele>335.4</ele>
        <time>2024-05-19T09:34:52Z</time>
      </trkpt>
      <trkpt lat="45.77483" lon="3.20485">
        <ele>335.6</ele>
        <time>2024-05-19T09:34:53Z</time>
      </trkpt>
      <trkpt lat="45.7748" lon="3.20493">
        <ele>335.6</ele>
        <time>2024-05-19T09:34:54Z</time>
      </trkpt>
      <trkpt lat="45.77478" lon="3.20501">
        <ele>335.8</ele>
        <time>2024-05-19T09:34:55Z</time>
      </trkpt>
      <trkpt lat="45.77476" lon="3.20509">
        <ele>335.8</ele>
        <time>2024-05-19T09:34:56Z</time>
      </trkpt>
      <trkpt lat="45.77473" lon="3.20517">
        <ele>336</ele>
        <time>2024-05-19T09:34:57Z</time>
      </trkpt>
      <trkpt lat="45.77471" lon="3.20525">
        <ele>336</ele>
        <time>2024-05-19T09:34:58Z</time>
      </trkpt>
      <trkpt lat="45.77468" lon="3.20533">
        <ele>336</ele>
        <time>2024-05-19T09:34:59Z</time>
      </trkpt>
      <trkpt lat="45.77466" lon="3.20541">
        <ele>336</ele>
        <time>2024-05-19T09:35:00Z</time>
      </trkpt>
      <trkpt lat="45.77464" lon="3.20549">
        <ele>336</ele>
        <time>2024-05-19T09:35:01Z</time>
      </trkpt>
      <trkpt lat="45.77463" lon="3.20558">
        <ele>336.2</ele>
        <time>2024-05-19T09:35:02Z</time>
      </trkpt>
      <trkpt lat="45.77461" lon="3.20566">
        <ele>336.2</ele>
        <time>2024-05-19T09:35:03Z</time>
      </trkpt>
      <trkpt lat="45.77459" lon="3.20575">
        <ele>336.2</ele>
        <time>2024-05-19T09:35:04Z</time>
      </trkpt>
      <trkpt lat="45.77458" lon="3.20584">
        <ele>336.4</ele>
        <time>2024-05-19T09:35:05Z</time>
      </trkpt>
      <trkpt lat="45.77456" lon="3.20593">
        <ele>336.4</ele>
        <time>2024-05-19T09:35:06Z</time>
      </trkpt>
      <trkpt lat="45.77454" lon="3.20602">
        <ele>336.4</ele>
        <time>2024-05-19T09:35:07Z</time>
      </trkpt>
      <trkpt lat="45.77452" lon="3.20611">
        <ele>336.6</ele>
        <time>2024-05-19T09:35:08Z</time>
      </trkpt>
      <trkpt lat="45.7745" lon="3.20619">
        <ele>336.6</ele>
        <time>2024-05-19T09:35:09Z</time>
      </trkpt>
      <trkpt lat="45.77449" lon="3.20628">
        <ele>336.6</ele>
        <time>2024-05-19T09:35:10Z</time>
      </trkpt>
      <trkpt lat="45.77447" lon="3.20637">
        <ele>336.6</ele>
        <time>2024-05-19T09:35:11Z</time>
      </trkpt>
      <trkpt lat="45.77446" lon="3.20646">
        <ele>336.6</ele>
        <time>2024-05-19T09:35:12Z</time>
      </trkpt>
      <trkpt lat="45.77445" lon="3.20655">
        <ele>336.8</ele>
        <time>2024-05-19T09:35:13Z</time>
      </trkpt>
      <trkpt lat="45.77445" lon="3.20663">
        <ele>336.8</ele>
        <time>2024-05-19T09:35:14Z</time>
      </trkpt>
      <trkpt lat="45.77444" lon="3.20671">
        <ele>336.8</ele>
        <time>2024-05-19T09:35:15Z</time>
      </trkpt>
      <trkpt lat="45.77443" lon="3.20679">
        <ele>336.8</ele>
        <time>2024-05-19T09:35:16Z</time>
      </trkpt>
      <trkpt lat="45.77441" lon="3.20685">
        <ele>336.8</ele>
        <time>2024-05-19T09:35:17Z</time>
      </trkpt>
      <trkpt lat="45.77438" lon="3.20692">
        <ele>336.8</ele>
        <time>2024-05-19T09:35:18Z</time>
      </trkpt>
      <trkpt lat="45.77434" lon="3.20698">
        <ele>337</ele>
        <time>2024-05-19T09:35:19Z</time>
      </trkpt>
      <trkpt lat="45.77432" lon="3.20707">
        <ele>337</ele>
        <time>2024-05-19T09:35:20Z</time>
      </trkpt>
      <trkpt lat="45.77432" lon="3.20715">
        <ele>337.2</ele>
        <time>2024-05-19T09:35:21Z</time>
      </trkpt>
      <trkpt lat="45.77432" lon="3.20723">
        <ele>337.2</ele>
        <time>2024-05-19T09:35:22Z</time>
      </trkpt>
      <trkpt lat="45.77433" lon="3.20732">
        <ele>337.2</ele>
        <time>2024-05-19T09:35:23Z</time>
      </trkpt>
      <trkpt lat="45.77437" lon="3.20738">
        <ele>337.2</ele>
        <time>2024-05-19T09:35:24Z</time>
      </trkpt>
      <trkpt lat="45.77441" lon="3.20745">
        <ele>337.2</ele>
        <time>2024-05-19T09:35:25Z</time>
      </trkpt>
      <trkpt lat="45.77445" lon="3.2075">
        <ele>337.2</ele>
        <time>2024-05-19T09:35:26Z</time>
      </trkpt>
      <trkpt lat="45.77451" lon="3.20753">
        <ele>337.2</ele>
        <time>2024-05-19T09:35:27Z</time>
      </trkpt>
      <trkpt lat="45.77457" lon="3.2076">
        <ele>337.2</ele>
        <time>2024-05-19T09:35:28Z</time>
      </trkpt>
      <trkpt lat="45.7746" lon="3.20768">
        <ele>337.2</ele>
        <time>2024-05-19T09:35:29Z</time>
      </trkpt>
      <trkpt lat="45.77464" lon="3.20776">
        <ele>337.2</ele>
        <time>2024-05-19T09:35:30Z</time>
      </trkpt>
      <trkpt lat="45.77467" lon="3.20785">
        <ele>337.2</ele>
        <time>2024-05-19T09:35:31Z</time>
      </trkpt>
      <trkpt lat="45.77468" lon="3.20796">
        <ele>337.4</ele>
        <time>2024-05-19T09:35:32Z</time>
      </trkpt>
      <trkpt lat="45.77466" lon="3.20805">
        <ele>337.4</ele>
        <time>2024-05-19T09:35:33Z</time>
      </trkpt>
      <trkpt lat="45.77464" lon="3.20815">
        <ele>337.4</ele>
        <time>2024-05-19T09:35:34Z</time>
      </trkpt>
      <trkpt lat="45.77463" lon="3.20825">
        <ele>337.4</ele>
        <time>2024-05-19T09:35:35Z</time>
      </trkpt>
      <trkpt lat="45.77461" lon="3.20834">
        <ele>337.6</ele>
        <time>2024-05-19T09:35:36Z</time>
      </trkpt>
      <trkpt lat="45.7746" lon="3.20844">
        <ele>337.6</ele>
        <time>2024-05-19T09:35:37Z</time>
      </trkpt>
      <trkpt lat="45.77458" lon="3.20853">
        <ele>337.6</ele>
        <time>2024-05-19T09:35:38Z</time>
      </trkpt>
      <trkpt lat="45.77456" lon="3.20862">
        <ele>337.6</ele>
        <time>2024-05-19T09:35:39Z</time>
      </trkpt>
      <trkpt lat="45.77455" lon="3.2087">
        <ele>337.8</ele>
        <time>2024-05-19T09:35:40Z</time>
      </trkpt>
      <trkpt lat="45.77454" lon="3.20879">
        <ele>337.8</ele>
        <time>2024-05-19T09:35:41Z</time>
      </trkpt>
      <trkpt lat="45.77452" lon="3.20887">
        <ele>337.8</ele>
        <time>2024-05-19T09:35:42Z</time>
      </trkpt>
      <trkpt lat="45.77451" lon="3.20896">
        <ele>337.8</ele>
        <time>2024-05-19T09:35:43Z</time>
      </trkpt>
      <trkpt lat="45.77449" lon="3.20904">
        <ele>338</ele>
        <time>2024-05-19T09:35:44Z</time>
      </trkpt>
      <trkpt lat="45.77448" lon="3.20912">
        <ele>338</ele>
        <time>2024-05-19T09:35:45Z</time>
      </trkpt>
      <trkpt lat="45.77446" lon="3.20919">
        <ele>338</ele>
        <time>2024-05-19T09:35:46Z</time>
      </trkpt>
      <trkpt lat="45.77442" lon="3.20926">
        <ele>338.2</ele>
        <time>2024-05-19T09:35:47Z</time>
      </trkpt>
      <trkpt lat="45.77438" lon="3.20932">
        <ele>338.2</ele>
        <time>2024-05-19T09:35:48Z</time>
      </trkpt>
      <trkpt lat="45.77434" lon="3.20938">
        <ele>338.4</ele>
        <time>2024-05-19T09:35:49Z</time>
      </trkpt>
      <trkpt lat="45.77431" lon="3.20944">
        <ele>338.4</ele>
        <time>2024-05-19T09:35:50Z</time>
      </trkpt>
      <trkpt lat="45.77427" lon="3.2095">
        <ele>338.2</ele>
        <time>2024-05-19T09:35:51Z</time>
      </trkpt>
      <trkpt lat="45.77423" lon="3.20956">
        <ele>338.2</ele>
        <time>2024-05-19T09:35:52Z</time>
      </trkpt>
      <trkpt lat="45.7742" lon="3.20962">
        <ele>338.2</ele>
        <time>2024-05-19T09:35:53Z</time>
      </trkpt>
      <trkpt lat="45.77416" lon="3.20968">
        <ele>338.4</ele>
        <time>2024-05-19T09:35:54Z</time>
      </trkpt>
      <trkpt lat="45.77413" lon="3.20974">
        <ele>338.4</ele>
        <time>2024-05-19T09:35:55Z</time>
      </trkpt>
      <trkpt lat="45.7741" lon="3.20979">
        <ele>338.6</ele>
        <time>2024-05-19T09:35:56Z</time>
      </trkpt>
      <trkpt lat="45.77406" lon="3.20985">
        <ele>338.6</ele>
        <time>2024-05-19T09:35:57Z</time>
      </trkpt>
      <trkpt lat="45.77403" lon="3.2099">
        <ele>338.6</ele>
        <time>2024-05-19T09:35:58Z</time>
      </trkpt>
      <trkpt lat="45.774" lon="3.20996">
        <ele>338.8</ele>
        <time>2024-05-19T09:35:59Z</time>
      </trkpt>
      <trkpt lat="45.77396" lon="3.21001">
        <ele>338.8</ele>
        <time>2024-05-19T09:36:00Z</time>
      </trkpt>
      <trkpt lat="45.77393" lon="3.21007">
        <ele>338.8</ele>
        <time>2024-05-19T09:36:01Z</time>
      </trkpt>
      <trkpt lat="45.7739" lon="3.21012">
        <ele>338.8</ele>
        <time>2024-05-19T09:36:02Z</time>
      </trkpt>
      <trkpt lat="45.77387" lon="3.21017">
        <ele>339</ele>
        <time>2024-05-19T09:36:03Z</time>
      </trkpt>
      <trkpt lat="45.77384" lon="3.21023">
        <ele>339</ele>
        <time>2024-05-19T09:36:04Z</time>
      </trkpt>
      <trkpt lat="45.77381" lon="3.21028">
        <ele>339</ele>
        <time>2024-05-19T09:36:05Z</time>
      </trkpt>
      <trkpt lat="45.77379" lon="3.21034">
        <ele>339.2</ele>
        <time>2024-05-19T09:36:06Z</time>
      </trkpt>
      <trkpt lat="45.77376" lon="3.21039">
        <ele>339.2</ele>
        <time>2024-05-19T09:36:07Z</time>
      </trkpt>
      <trkpt lat="45.77374" lon="3.21045">
        <ele>339.2</ele>
        <time>2024-05-19T09:36:08Z</time>
      </trkpt>
      <trkpt lat="45.77371" lon="3.2105">
        <ele>339.4</ele>
        <time>2024-05-19T09:36:09Z</time>
      </trkpt>
      <trkpt lat="45.7737" lon="3.21056">
        <ele>339.4</ele>
        <time>2024-05-19T09:36:10Z</time>
      </trkpt>
      <trkpt lat="45.77368" lon="3.21062">
        <ele>339.4</ele>
        <time>2024-05-19T09:36:11Z</time>
      </trkpt>
      <trkpt lat="45.77367" lon="3.21068">
        <ele>339.6</ele>
        <time>2024-05-19T09:36:12Z</time>
      </trkpt>
      <trkpt lat="45.77366" lon="3.21075">
        <ele>339.6</ele>
        <time>2024-05-19T09:36:13Z</time>
      </trkpt>
      <trkpt lat="45.77365" lon="3.21081">
        <ele>339.8</ele>
        <time>2024-05-19T09:36:14Z</time>
      </trkpt>
      <trkpt lat="45.77364" lon="3.21087">
        <ele>339.8</ele>
        <time>2024-05-19T09:36:15Z</time>
      </trkpt>
      <trkpt lat="45.77363" lon="3.21093">
        <ele>340</ele>
        <time>2024-05-19T09:36:16Z</time>
      </trkpt>
      <trkpt lat="45.77362" lon="3.211">
        <ele>340</ele>
        <time>2024-05-19T09:36:17Z</time>
      </trkpt>
      <trkpt lat="45.7736" lon="3.21106">
        <ele>340.2</ele>
        <time>2024-05-19T09:36:18Z</time>
      </trkpt>
      <trkpt lat="45.77359" lon="3.21112">
        <ele>340.2</ele>
        <time>2024-05-19T09:36:19Z</time>
      </trkpt>
      <trkpt lat="45.77358" lon="3.21119">
        <ele>340.2</ele>
        <time>2024-05-19T09:36:20Z</time>
      </trkpt>
      <trkpt lat="45.77357" lon="3.21125">
        <ele>340.4</ele>
        <time>2024-05-19T09:36:21Z</time>
      </trkpt>
      <trkpt lat="45.77356" lon="3.21131">
        <ele>340.4</ele>
        <time>2024-05-19T09:36:22Z</time>
      </trkpt>
      <trkpt lat="45.77355" lon="3.21137">
        <ele>340.4</ele>
        <time>2024-05-19T09:36:23Z</time>
      </trkpt>
      <trkpt lat="45.77354" lon="3.21143">
        <ele>340.6</ele>
        <time>2024-05-19T09:36:24Z</time>
      </trkpt>
      <trkpt lat="45.77353" lon="3.21149">
        <ele>340.6</ele>
        <time>2024-05-19T09:36:25Z</time>
      </trkpt>
      <trkpt lat="45.77352" lon="3.21155">
        <ele>340.6</ele>
        <time>2024-05-19T09:36:26Z</time>
      </trkpt>
      <trkpt lat="45.77351" lon="3.21161">
        <ele>340.8</ele>
        <time>2024-05-19T09:36:27Z</time>
      </trkpt>
      <trkpt lat="45.77349" lon="3.21167">
        <ele>340.8</ele>
        <time>2024-05-19T09:36:28Z</time>
      </trkpt>
      <trkpt lat="45.77348" lon="3.21172">
        <ele>341</ele>
        <time>2024-05-19T09:36:29Z</time>
      </trkpt>
      <trkpt lat="45.77348" lon="3.21178">
        <ele>341</ele>
        <time>2024-05-19T09:36:30Z</time>
      </trkpt>
      <trkpt lat="45.77347" lon="3.21183">
        <ele>341.2</ele>
        <time>2024-05-19T09:36:31Z</time>
      </trkpt>
      <trkpt lat="45.77346" lon="3.21189">
        <ele>341.2</ele>
        <time>2024-05-19T09:36:32Z</time>
      </trkpt>
      <trkpt lat="45.77345" lon="3.21194">
        <ele>341.2</ele>
        <time>2024-05-19T09:36:33Z</time>
      </trkpt>
      <trkpt lat="45.77344" lon="3.21199">
        <ele>341.4</ele>
        <time>2024-05-19T09:36:34Z</time>
      </trkpt>
      <trkpt lat="45.77343" lon="3.21204">
        <ele>341.6</ele>
        <time>2024-05-19T09:36:35Z</time>
      </trkpt>
      <trkpt lat="45.77342" lon="3.2121">
        <ele>341.6</ele>
        <time>2024-05-19T09:36:36Z</time>
      </trkpt>
      <trkpt lat="45.77342" lon="3.21215">
        <ele>341.8</ele>
        <time>2024-05-19T09:36:37Z</time>
      </trkpt>
      <trkpt lat="45.77341" lon="3.2122">
        <ele>341.8</ele>
        <time>2024-05-19T09:36:38Z</time>
      </trkpt>
      <trkpt lat="45.7734" lon="3.21225">
        <ele>342</ele>
        <time>2024-05-19T09:36:39Z</time>
      </trkpt>
      <trkpt lat="45.77339" lon="3.21231">
        <ele>342.2</ele>
        <time>2024-05-19T09:36:40Z</time>
      </trkpt>
      <trkpt lat="45.77338" lon="3.21236">
        <ele>342.2</ele>
        <time>2024-05-19T09:36:41Z</time>
      </trkpt>
      <trkpt lat="45.77337" lon="3.21241">
        <ele>342.4</ele>
        <time>2024-05-19T09:36:42Z</time>
      </trkpt>
      <trkpt lat="45.77337" lon="3.21247">
        <ele>342.4</ele>
        <time>2024-05-19T09:36:43Z</time>
      </trkpt>
      <trkpt lat="45.77336" lon="3.21252">
        <ele>342.6</ele>
        <time>2024-05-19T09:36:44Z</time>
      </trkpt>
      <trkpt lat="45.77335" lon="3.21257">
        <ele>342.6</ele>
        <time>2024-05-19T09:36:45Z</time>
      </trkpt>
      <trkpt lat="45.77334" lon="3.21263">
        <ele>342.8</ele>
        <time>2024-05-19T09:36:46Z</time>
      </trkpt>
      <trkpt lat="45.77331" lon="3.21267">
        <ele>342.8</ele>
        <time>2024-05-19T09:36:47Z</time>
      </trkpt>
      <trkpt lat="45.7733" lon="3.21273">
        <ele>343</ele>
        <time>2024-05-19T09:36:48Z</time>
      </trkpt>
      <trkpt lat="45.7733" lon="3.21278">
        <ele>343</ele>
        <time>2024-05-19T09:36:49Z</time>
      </trkpt>
      <trkpt lat="45.77329" lon="3.21283">
        <ele>343.2</ele>
        <time>2024-05-19T09:36:50Z</time>
      </trkpt>
      <trkpt lat="45.77329" lon="3.21289">
        <ele>343.2</ele>
        <time>2024-05-19T09:36:51Z</time>
      </trkpt>
      <trkpt lat="45.77328" lon="3.21294">
        <ele>343.4</ele>
        <time>2024-05-19T09:36:52Z</time>
      </trkpt>
      <trkpt lat="45.77328" lon="3.213">
        <ele>343.4</ele>
        <time>2024-05-19T09:36:53Z</time>
      </trkpt>
      <trkpt lat="45.77327" lon="3.21306">
        <ele>343.6</ele>
        <time>2024-05-19T09:36:54Z</time>
      </trkpt>
      <trkpt lat="45.77327" lon="3.21311">
        <ele>343.8</ele>
        <time>2024-05-19T09:36:55Z</time>
      </trkpt>
      <trkpt lat="45.77326" lon="3.21317">
        <ele>344</ele>
        <time>2024-05-19T09:36:56Z</time>
      </trkpt>
      <trkpt lat="45.77325" lon="3.21322">
        <ele>344</ele>
        <time>2024-05-19T09:36:57Z</time>
      </trkpt>
      <trkpt lat="45.77325" lon="3.21328">
        <ele>344</ele>
        <time>2024-05-19T09:36:58Z</time>
      </trkpt>
      <trkpt lat="45.77324" lon="3.21334">
        <ele>344.2</ele>
        <time>2024-05-19T09:36:59Z</time>
      </trkpt>
      <trkpt lat="45.77323" lon="3.21339">
        <ele>344.4</ele>
        <time>2024-05-19T09:37:00Z</time>
      </trkpt>
      <trkpt lat="45.77323" lon="3.21345">
        <ele>344.4</ele>
        <time>2024-05-19T09:37:01Z</time>
      </trkpt>
      <trkpt lat="45.77322" lon="3.21351">
        <ele>344.6</ele>
        <time>2024-05-19T09:37:02Z</time>
      </trkpt>
      <trkpt lat="45.77321" lon="3.21356">
        <ele>344.6</ele>
        <time>2024-05-19T09:37:03Z</time>
      </trkpt>
      <trkpt lat="45.77321" lon="3.21362">
        <ele>344.8</ele>
        <time>2024-05-19T09:37:04Z</time>
      </trkpt>
      <trkpt lat="45.7732" lon="3.21368">
        <ele>344.8</ele>
        <time>2024-05-19T09:37:05Z</time>
      </trkpt>
      <trkpt lat="45.7732" lon="3.21373">
        <ele>345</ele>
        <time>2024-05-19T09:37:06Z</time>
      </trkpt>
      <trkpt lat="45.77319" lon="3.21379">
        <ele>345</ele>
        <time>2024-05-19T09:37:07Z</time>
      </trkpt>
      <trkpt lat="45.77318" lon="3.21384">
        <ele>345.2</ele>
        <time>2024-05-19T09:37:08Z</time>
      </trkpt>
      <trkpt lat="45.77318" lon="3.21389">
        <ele>345.4</ele>
        <time>2024-05-19T09:37:09Z</time>
      </trkpt>
      <trkpt lat="45.77317" lon="3.21395">
        <ele>345.4</ele>
        <time>2024-05-19T09:37:10Z</time>
      </trkpt>
      <trkpt lat="45.77316" lon="3.21401">
        <ele>345.6</ele>
        <time>2024-05-19T09:37:11Z</time>
      </trkpt>
      <trkpt lat="45.77316" lon="3.21407">
        <ele>345.6</ele>
        <time>2024-05-19T09:37:12Z</time>
      </trkpt>
      <trkpt lat="45.77315" lon="3.21412">
        <ele>345.8</ele>
        <time>2024-05-19T09:37:13Z</time>
      </trkpt>
      <trkpt lat="45.77314" lon="3.21418">
        <ele>345.8</ele>
        <time>2024-05-19T09:37:14Z</time>
      </trkpt>
      <trkpt lat="45.77314" lon="3.21423">
        <ele>346</ele>
        <time>2024-05-19T09:37:15Z</time>
      </trkpt>
      <trkpt lat="45.77313" lon="3.21429">
        <ele>346</ele>
        <time>2024-05-19T09:37:16Z</time>
      </trkpt>
      <trkpt lat="45.77313" lon="3.21434">
        <ele>346.2</ele>
        <time>2024-05-19T09:37:17Z</time>
      </trkpt>
      <trkpt lat="45.77312" lon="3.2144">
        <ele>346.2</ele>
        <time>2024-05-19T09:37:18Z</time>
      </trkpt>
      <trkpt lat="45.77311" lon="3.21445">
        <ele>346.2</ele>
        <time>2024-05-19T09:37:19Z</time>
      </trkpt>
      <trkpt lat="45.77311" lon="3.21451">
        <ele>346.4</ele>
        <time>2024-05-19T09:37:20Z</time>
      </trkpt>
      <trkpt lat="45.77309" lon="3.21462">
        <ele>346.4</ele>
        <time>2024-05-19T09:37:21Z</time>
      </trkpt>
      <trkpt lat="45.77309" lon="3.21462">
        <ele>346.6</ele>
        <time>2024-05-19T09:37:22Z</time>
      </trkpt>
      <trkpt lat="45.77309" lon="3.21467">
        <ele>346.6</ele>
        <time>2024-05-19T09:37:23Z</time>
      </trkpt>
      <trkpt lat="45.77308" lon="3.21473">
        <ele>346.8</ele>
        <time>2024-05-19T09:37:24Z</time>
      </trkpt>
      <trkpt lat="45.77308" lon="3.21478">
        <ele>346.8</ele>
        <time>2024-05-19T09:37:25Z</time>
      </trkpt>
      <trkpt lat="45.77307" lon="3.21484">
        <ele>347</ele>
        <time>2024-05-19T09:37:26Z</time>
      </trkpt>
      <trkpt lat="45.77306" lon="3.21489">
        <ele>347.2</ele>
        <time>2024-05-19T09:37:27Z</time>
      </trkpt>
      <trkpt lat="45.77306" lon="3.21495">
        <ele>347.2</ele>
        <time>2024-05-19T09:37:28Z</time>
      </trkpt>
      <trkpt lat="45.77305" lon="3.215">
        <ele>347.4</ele>
        <time>2024-05-19T09:37:29Z</time>
      </trkpt>
      <trkpt lat="45.77305" lon="3.21506">
        <ele>347.6</ele>
        <time>2024-05-19T09:37:30Z</time>
      </trkpt>
      <trkpt lat="45.77304" lon="3.21511">
        <ele>347.6</ele>
        <time>2024-05-19T09:37:31Z</time>
      </trkpt>
      <trkpt lat="45.77303" lon="3.21516">
        <ele>347.8</ele>
        <time>2024-05-19T09:37:32Z</time>
      </trkpt>
      <trkpt lat="45.77303" lon="3.21522">
        <ele>347.8</ele>
        <time>2024-05-19T09:37:33Z</time>
      </trkpt>
      <trkpt lat="45.77302" lon="3.21527">
        <ele>348.2</ele>
        <time>2024-05-19T09:37:34Z</time>
      </trkpt>
      <trkpt lat="45.77302" lon="3.21532">
        <ele>348.2</ele>
        <time>2024-05-19T09:37:35Z</time>
      </trkpt>
      <trkpt lat="45.77301" lon="3.21537">
        <ele>348.2</ele>
        <time>2024-05-19T09:37:36Z</time>
      </trkpt>
      <trkpt lat="45.773" lon="3.21542">
        <ele>348.4</ele>
        <time>2024-05-19T09:37:37Z</time>
      </trkpt>
      <trkpt lat="45.773" lon="3.21547">
        <ele>348.6</ele>
        <time>2024-05-19T09:37:38Z</time>
      </trkpt>
      <trkpt lat="45.77299" lon="3.21553">
        <ele>348.6</ele>
        <time>2024-05-19T09:37:39Z</time>
      </trkpt>
      <trkpt lat="45.77299" lon="3.21558">
        <ele>348.8</ele>
        <time>2024-05-19T09:37:40Z</time>
      </trkpt>
      <trkpt lat="45.77298" lon="3.21563">
        <ele>348.8</ele>
        <time>2024-05-19T09:37:41Z</time>
      </trkpt>
      <trkpt lat="45.77297" lon="3.21568">
        <ele>349</ele>
        <time>2024-05-19T09:37:42Z</time>
      </trkpt>
      <trkpt lat="45.77297" lon="3.21574">
        <ele>349.2</ele>
        <time>2024-05-19T09:37:43Z</time>
      </trkpt>
      <trkpt lat="45.77296" lon="3.21579">
        <ele>349.2</ele>
        <time>2024-05-19T09:37:44Z</time>
      </trkpt>
      <trkpt lat="45.77296" lon="3.21584">
        <ele>349.4</ele>
        <time>2024-05-19T09:37:45Z</time>
      </trkpt>
      <trkpt lat="45.77295" lon="3.2159">
        <ele>349.6</ele>
        <time>2024-05-19T09:37:46Z</time>
      </trkpt>
      <trkpt lat="45.77294" lon="3.21595">
        <ele>349.8</ele>
        <time>2024-05-19T09:37:47Z</time>
      </trkpt>
      <trkpt lat="45.77294" lon="3.216">
        <ele>350</ele>
        <time>2024-05-19T09:37:48Z</time>
      </trkpt>
      <trkpt lat="45.77293" lon="3.21605">
        <ele>350</ele>
        <time>2024-05-19T09:37:49Z</time>
      </trkpt>
      <trkpt lat="45.77293" lon="3.2161">
        <ele>350.2</ele>
        <time>2024-05-19T09:37:50Z</time>
      </trkpt>
      <trkpt lat="45.77292" lon="3.21615">
        <ele>350.4</ele>
        <time>2024-05-19T09:37:51Z</time>
      </trkpt>
      <trkpt lat="45.77292" lon="3.2162">
        <ele>350.4</ele>
        <time>2024-05-19T09:37:52Z</time>
      </trkpt>
      <trkpt lat="45.77291" lon="3.21625">
        <ele>350.6</ele>
        <time>2024-05-19T09:37:53Z</time>
      </trkpt>
      <trkpt lat="45.7729" lon="3.2163">
        <ele>350.8</ele>
        <time>2024-05-19T09:37:54Z</time>
      </trkpt>
      <trkpt lat="45.7729" lon="3.21635">
        <ele>351</ele>
        <time>2024-05-19T09:37:55Z</time>
      </trkpt>
      <trkpt lat="45.77289" lon="3.2164">
        <ele>351</ele>
        <time>2024-05-19T09:37:56Z</time>
      </trkpt>
      <trkpt lat="45.77289" lon="3.21645">
        <ele>351.2</ele>
        <time>2024-05-19T09:37:57Z</time>
      </trkpt>
      <trkpt lat="45.77288" lon="3.21649">
        <ele>351.4</ele>
        <time>2024-05-19T09:37:58Z</time>
      </trkpt>
      <trkpt lat="45.77288" lon="3.21654">
        <ele>351.4</ele>
        <time>2024-05-19T09:37:59Z</time>
      </trkpt>
      <trkpt lat="45.77287" lon="3.21659">
        <ele>351.4</ele>
        <time>2024-05-19T09:38:00Z</time>
      </trkpt>
      <trkpt lat="45.77287" lon="3.21664">
        <ele>351.6</ele>
        <time>2024-05-19T09:38:01Z</time>
      </trkpt>
      <trkpt lat="45.77286" lon="3.21669">
        <ele>351.8</ele>
        <time>2024-05-19T09:38:02Z</time>
      </trkpt>
      <trkpt lat="45.77285" lon="3.21674">
        <ele>352</ele>
        <time>2024-05-19T09:38:03Z</time>
      </trkpt>
      <trkpt lat="45.77285" lon="3.21678">
        <ele>352.2</ele>
        <time>2024-05-19T09:38:04Z</time>
      </trkpt>
      <trkpt lat="45.77284" lon="3.21683">
        <ele>352.4</ele>
        <time>2024-05-19T09:38:05Z</time>
      </trkpt>
      <trkpt lat="45.77284" lon="3.21688">
        <ele>352.6</ele>
        <time>2024-05-19T09:38:06Z</time>
      </trkpt>
      <trkpt lat="45.77283" lon="3.21692">
        <ele>352.6</ele>
        <time>2024-05-19T09:38:07Z</time>
      </trkpt>
      <trkpt lat="45.77283" lon="3.21696">
        <ele>352.8</ele>
        <time>2024-05-19T09:38:08Z</time>
      </trkpt>
      <trkpt lat="45.77282" lon="3.21701">
        <ele>353</ele>
        <time>2024-05-19T09:38:09Z</time>
      </trkpt>
      <trkpt lat="45.77282" lon="3.21706">
        <ele>353.2</ele>
        <time>2024-05-19T09:38:10Z</time>
      </trkpt>
      <trkpt lat="45.77281" lon="3.21711">
        <ele>353.4</ele>
        <time>2024-05-19T09:38:11Z</time>
      </trkpt>
      <trkpt lat="45.77281" lon="3.21716">
        <ele>353.6</ele>
        <time>2024-05-19T09:38:12Z</time>
      </trkpt>
      <trkpt lat="45.7728" lon="3.21721">
        <ele>353.6</ele>
        <time>2024-05-19T09:38:13Z</time>
      </trkpt>
      <trkpt lat="45.7728" lon="3.21726">
        <ele>353.8</ele>
        <time>2024-05-19T09:38:14Z</time>
      </trkpt>
      <trkpt lat="45.77279" lon="3.21731">
        <ele>354</ele>
        <time>2024-05-19T09:38:15Z</time>
      </trkpt>
      <trkpt lat="45.77278" lon="3.21735">
        <ele>354</ele>
        <time>2024-05-19T09:38:16Z</time>
      </trkpt>
      <trkpt lat="45.77278" lon="3.21741">
        <ele>354.2</ele>
        <time>2024-05-19T09:38:17Z</time>
      </trkpt>
      <trkpt lat="45.77277" lon="3.21746">
        <ele>354.4</ele>
        <time>2024-05-19T09:38:18Z</time>
      </trkpt>
      <trkpt lat="45.77277" lon="3.21751">
        <ele>354.6</ele>
        <time>2024-05-19T09:38:19Z</time>
      </trkpt>
      <trkpt lat="45.77277" lon="3.21756">
        <ele>354.8</ele>
        <time>2024-05-19T09:38:20Z</time>
      </trkpt>
      <trkpt lat="45.77277" lon="3.21762">
        <ele>355</ele>
        <time>2024-05-19T09:38:21Z</time>
      </trkpt>
      <trkpt lat="45.77276" lon="3.21767">
        <ele>355</ele>
        <time>2024-05-19T09:38:22Z</time>
      </trkpt>
      <trkpt lat="45.77276" lon="3.21772">
        <ele>355.2</ele>
        <time>2024-05-19T09:38:23Z</time>
      </trkpt>
      <trkpt lat="45.77276" lon="3.21777">
        <ele>355.2</ele>
        <time>2024-05-19T09:38:24Z</time>
      </trkpt>
      <trkpt lat="45.77276" lon="3.21782">
        <ele>355.4</ele>
        <time>2024-05-19T09:38:25Z</time>
      </trkpt>
      <trkpt lat="45.77275" lon="3.21787">
        <ele>355.8</ele>
        <time>2024-05-19T09:38:26Z</time>
      </trkpt>
      <trkpt lat="45.77275" lon="3.21792">
        <ele>356</ele>
        <time>2024-05-19T09:38:27Z</time>
      </trkpt>
      <trkpt lat="45.77275" lon="3.21797">
        <ele>356.2</ele>
        <time>2024-05-19T09:38:28Z</time>
      </trkpt>
      <trkpt lat="45.77275" lon="3.21802">
        <ele>356.2</ele>
        <time>2024-05-19T09:38:29Z</time>
      </trkpt>
      <trkpt lat="45.77274" lon="3.21807">
        <ele>356.4</ele>
        <time>2024-05-19T09:38:30Z</time>
      </trkpt>
      <trkpt lat="45.77274" lon="3.21812">
        <ele>356.6</ele>
        <time>2024-05-19T09:38:31Z</time>
      </trkpt>
      <trkpt lat="45.77274" lon="3.21817">
        <ele>356.8</ele>
        <time>2024-05-19T09:38:32Z</time>
      </trkpt>
      <trkpt lat="45.77274" lon="3.21822">
        <ele>357</ele>
        <time>2024-05-19T09:38:33Z</time>
      </trkpt>
      <trkpt lat="45.77273" lon="3.21827">
        <ele>357.2</ele>
        <time>2024-05-19T09:38:34Z</time>
      </trkpt>
      <trkpt lat="45.77274" lon="3.21832">
        <ele>357.4</ele>
        <time>2024-05-19T09:38:35Z</time>
      </trkpt>
      <trkpt lat="45.77274" lon="3.21837">
        <ele>357.4</ele>
        <time>2024-05-19T09:38:36Z</time>
      </trkpt>
      <trkpt lat="45.77274" lon="3.21842">
        <ele>357.6</ele>
        <time>2024-05-19T09:38:37Z</time>
      </trkpt>
      <trkpt lat="45.77274" lon="3.21847">
        <ele>357.8</ele>
        <time>2024-05-19T09:38:38Z</time>
      </trkpt>
      <trkpt lat="45.77274" lon="3.21852">
        <ele>358</ele>
        <time>2024-05-19T09:38:39Z</time>
      </trkpt>
      <trkpt lat="45.77274" lon="3.21857">
        <ele>358.2</ele>
        <time>2024-05-19T09:38:40Z</time>
      </trkpt>
      <trkpt lat="45.77274" lon="3.21861">
        <ele>358.4</ele>
        <time>2024-05-19T09:38:41Z</time>
      </trkpt>
      <trkpt lat="45.77275" lon="3.21866">
        <ele>358.6</ele>
        <time>2024-05-19T09:38:42Z</time>
      </trkpt>
      <trkpt lat="45.77275" lon="3.21871">
        <ele>358.8</ele>
        <time>2024-05-19T09:38:43Z</time>
      </trkpt>
      <trkpt lat="45.77275" lon="3.21876">
        <ele>359</ele>
        <time>2024-05-19T09:38:44Z</time>
      </trkpt>
      <trkpt lat="45.77275" lon="3.21881">
        <ele>359.2</ele>
        <time>2024-05-19T09:38:45Z</time>
      </trkpt>
      <trkpt lat="45.77275" lon="3.21886">
        <ele>359.4</ele>
        <time>2024-05-19T09:38:46Z</time>
      </trkpt>
      <trkpt lat="45.77275" lon="3.21891">
        <ele>359.6</ele>
        <time>2024-05-19T09:38:47Z</time>
      </trkpt>
      <trkpt lat="45.77276" lon="3.21896">
        <ele>359.6</ele>
        <time>2024-05-19T09:38:48Z</time>
      </trkpt>
      <trkpt lat="45.77276" lon="3.21902">
        <ele>359.8</ele>
        <time>2024-05-19T09:38:49Z</time>
      </trkpt>
      <trkpt lat="45.77276" lon="3.21907">
        <ele>360</ele>
        <time>2024-05-19T09:38:50Z</time>
      </trkpt>
      <trkpt lat="45.77276" lon="3.21913">
        <ele>360.2</ele>
        <time>2024-05-19T09:38:51Z</time>
      </trkpt>
      <trkpt lat="45.77276" lon="3.21919">
        <ele>360.2</ele>
        <time>2024-05-19T09:38:52Z</time>
      </trkpt>
      <trkpt lat="45.77276" lon="3.21924">
        <ele>360.4</ele>
        <time>2024-05-19T09:38:53Z</time>
      </trkpt>
      <trkpt lat="45.77277" lon="3.2193">
        <ele>360.6</ele>
        <time>2024-05-19T09:38:54Z</time>
      </trkpt>
      <trkpt lat="45.77277" lon="3.21936">
        <ele>360.8</ele>
        <time>2024-05-19T09:38:55Z</time>
      </trkpt>
      <trkpt lat="45.77277" lon="3.21942">
        <ele>360.8</ele>
        <time>2024-05-19T09:38:56Z</time>
      </trkpt>
      <trkpt lat="45.77277" lon="3.21949">
        <ele>361</ele>
        <time>2024-05-19T09:38:57Z</time>
      </trkpt>
      <trkpt lat="45.77277" lon="3.21955">
        <ele>361.2</ele>
        <time>2024-05-19T09:38:58Z</time>
      </trkpt>
      <trkpt lat="45.77278" lon="3.21961">
        <ele>361.4</ele>
        <time>2024-05-19T09:38:59Z</time>
      </trkpt>
      <trkpt lat="45.77278" lon="3.21967">
        <ele>361.4</ele>
        <time>2024-05-19T09:39:00Z</time>
      </trkpt>
      <trkpt lat="45.77278" lon="3.21974">
        <ele>361.6</ele>
        <time>2024-05-19T09:39:01Z</time>
      </trkpt>
      <trkpt lat="45.77278" lon="3.2198">
        <ele>361.8</ele>
        <time>2024-05-19T09:39:02Z</time>
      </trkpt>
      <trkpt lat="45.77279" lon="3.21986">
        <ele>362</ele>
        <time>2024-05-19T09:39:03Z</time>
      </trkpt>
      <trkpt lat="45.77279" lon="3.21992">
        <ele>362.2</ele>
        <time>2024-05-19T09:39:04Z</time>
      </trkpt>
      <trkpt lat="45.77279" lon="3.21999">
        <ele>362.4</ele>
        <time>2024-05-19T09:39:05Z</time>
      </trkpt>
      <trkpt lat="45.7728" lon="3.22006">
        <ele>362.4</ele>
        <time>2024-05-19T09:39:06Z</time>
      </trkpt>
      <trkpt lat="45.7728" lon="3.22012">
        <ele>362.6</ele>
        <time>2024-05-19T09:39:07Z</time>
      </trkpt>
      <trkpt lat="45.7728" lon="3.22019">
        <ele>362.8</ele>
        <time>2024-05-19T09:39:08Z</time>
      </trkpt>
      <trkpt lat="45.7728" lon="3.22026">
        <ele>362.8</ele>
        <time>2024-05-19T09:39:09Z</time>
      </trkpt>
      <trkpt lat="45.77281" lon="3.22033">
        <ele>363</ele>
        <time>2024-05-19T09:39:10Z</time>
      </trkpt>
      <trkpt lat="45.77281" lon="3.2204">
        <ele>363.2</ele>
        <time>2024-05-19T09:39:11Z</time>
      </trkpt>
      <trkpt lat="45.77282" lon="3.22048">
        <ele>363.2</ele>
        <time>2024-05-19T09:39:12Z</time>
      </trkpt>
      <trkpt lat="45.77282" lon="3.22056">
        <ele>363.4</ele>
        <time>2024-05-19T09:39:13Z</time>
      </trkpt>
      <trkpt lat="45.77282" lon="3.22064">
        <ele>363.4</ele>
        <time>2024-05-19T09:39:14Z</time>
      </trkpt>
      <trkpt lat="45.77283" lon="3.22072">
        <ele>363.6</ele>
        <time>2024-05-19T09:39:15Z</time>
      </trkpt>
      <trkpt lat="45.77283" lon="3.2208">
        <ele>363.8</ele>
        <time>2024-05-19T09:39:16Z</time>
      </trkpt>
      <trkpt lat="45.77283" lon="3.22089">
        <ele>363.8</ele>
        <time>2024-05-19T09:39:17Z</time>
      </trkpt>
      <trkpt lat="45.77284" lon="3.22098">
        <ele>364</ele>
        <time>2024-05-19T09:39:18Z</time>
      </trkpt>
      <trkpt lat="45.77285" lon="3.22117">
        <ele>364</ele>
        <time>2024-05-19T09:39:19Z</time>
      </trkpt>
      <trkpt lat="45.77285" lon="3.22117">
        <ele>364.2</ele>
        <time>2024-05-19T09:39:20Z</time>
      </trkpt>
      <trkpt lat="45.77286" lon="3.22136">
        <ele>364.2</ele>
        <time>2024-05-19T09:39:21Z</time>
      </trkpt>
      <trkpt lat="45.77286" lon="3.22146">
        <ele>364.2</ele>
        <time>2024-05-19T09:39:22Z</time>
      </trkpt>
      <trkpt lat="45.77286" lon="3.22146">
        <ele>364.2</ele>
        <time>2024-05-19T09:39:23Z</time>
      </trkpt>
      <trkpt lat="45.77287" lon="3.22155">
        <ele>364.4</ele>
        <time>2024-05-19T09:39:24Z</time>
      </trkpt>
      <trkpt lat="45.77287" lon="3.22164">
        <ele>364.4</ele>
        <time>2024-05-19T09:39:25Z</time>
      </trkpt>
      <trkpt lat="45.77287" lon="3.22174">
        <ele>364.4</ele>
        <time>2024-05-19T09:39:26Z</time>
      </trkpt>
      <trkpt lat="45.77288" lon="3.22183">
        <ele>364.6</ele>
        <time>2024-05-19T09:39:27Z</time>
      </trkpt>
      <trkpt lat="45.77288" lon="3.22192">
        <ele>364.6</ele>
        <time>2024-05-19T09:39:28Z</time>
      </trkpt>
      <trkpt lat="45.77289" lon="3.22201">
        <ele>364.6</ele>
        <time>2024-05-19T09:39:29Z</time>
      </trkpt>
      <trkpt lat="45.7729" lon="3.22211">
        <ele>364.8</ele>
        <time>2024-05-19T09:39:30Z</time>
      </trkpt>
      <trkpt lat="45.77291" lon="3.22221">
        <ele>364.8</ele>
        <time>2024-05-19T09:39:31Z</time>
      </trkpt>
      <trkpt lat="45.77292" lon="3.2223">
        <ele>364.8</ele>
        <time>2024-05-19T09:39:32Z</time>
      </trkpt>
      <trkpt lat="45.77293" lon="3.22239">
        <ele>364.8</ele>
        <time>2024-05-19T09:39:33Z</time>
      </trkpt>
      <trkpt lat="45.77293" lon="3.22249">
        <ele>365</ele>
        <time>2024-05-19T09:39:34Z</time>
      </trkpt>
      <trkpt lat="45.77294" lon="3.22258">
        <ele>365</ele>
        <time>2024-05-19T09:39:35Z</time>
      </trkpt>
      <trkpt lat="45.77295" lon="3.22268">
        <ele>365</ele>
        <time>2024-05-19T09:39:36Z</time>
      </trkpt>
      <trkpt lat="45.77297" lon="3.22278">
        <ele>365</ele>
        <time>2024-05-19T09:39:37Z</time>
      </trkpt>
      <trkpt lat="45.77298" lon="3.22287">
        <ele>365</ele>
        <time>2024-05-19T09:39:38Z</time>
      </trkpt>
      <trkpt lat="45.773" lon="3.22297">
        <ele>365</ele>
        <time>2024-05-19T09:39:39Z</time>
      </trkpt>
      <trkpt lat="45.77301" lon="3.22307">
        <ele>365.2</ele>
        <time>2024-05-19T09:39:40Z</time>
      </trkpt>
      <trkpt lat="45.77303" lon="3.22317">
        <ele>365.2</ele>
        <time>2024-05-19T09:39:41Z</time>
      </trkpt>
      <trkpt lat="45.77305" lon="3.22326">
        <ele>365.2</ele>
        <time>2024-05-19T09:39:42Z</time>
      </trkpt>
      <trkpt lat="45.77308" lon="3.22335">
        <ele>365.2</ele>
        <time>2024-05-19T09:39:43Z</time>
      </trkpt>
      <trkpt lat="45.7731" lon="3.22345">
        <ele>365.2</ele>
        <time>2024-05-19T09:39:44Z</time>
      </trkpt>
      <trkpt lat="45.77314" lon="3.22354">
        <ele>365.2</ele>
        <time>2024-05-19T09:39:45Z</time>
      </trkpt>
      <trkpt lat="45.77317" lon="3.22364">
        <ele>365.2</ele>
        <time>2024-05-19T09:39:46Z</time>
      </trkpt>
      <trkpt lat="45.7732" lon="3.22374">
        <ele>365.2</ele>
        <time>2024-05-19T09:39:47Z</time>
      </trkpt>
      <trkpt lat="45.77323" lon="3.22383">
        <ele>365.2</ele>
        <time>2024-05-19T09:39:48Z</time>
      </trkpt>
      <trkpt lat="45.77326" lon="3.22393">
        <ele>365.2</ele>
        <time>2024-05-19T09:39:49Z</time>
      </trkpt>
      <trkpt lat="45.77329" lon="3.22402">
        <ele>365.2</ele>
        <time>2024-05-19T09:39:50Z</time>
      </trkpt>
      <trkpt lat="45.77332" lon="3.22412">
        <ele>365.2</ele>
        <time>2024-05-19T09:39:51Z</time>
      </trkpt>
      <trkpt lat="45.77335" lon="3.22421">
        <ele>365.2</ele>
        <time>2024-05-19T09:39:52Z</time>
      </trkpt>
      <trkpt lat="45.77338" lon="3.22431">
        <ele>365.2</ele>
        <time>2024-05-19T09:39:53Z</time>
      </trkpt>
      <trkpt lat="45.77341" lon="3.2244">
        <ele>365.2</ele>
        <time>2024-05-19T09:39:54Z</time>
      </trkpt>
      <trkpt lat="45.77344" lon="3.22449">
        <ele>365.2</ele>
        <time>2024-05-19T09:39:55Z</time>
      </trkpt>
      <trkpt lat="45.77349" lon="3.22458">
        <ele>365.2</ele>
        <time>2024-05-19T09:39:56Z</time>
      </trkpt>
      <trkpt lat="45.77353" lon="3.22466">
        <ele>365.2</ele>
        <time>2024-05-19T09:39:57Z</time>
      </trkpt>
      <trkpt lat="45.77357" lon="3.22475">
        <ele>365.2</ele>
        <time>2024-05-19T09:39:58Z</time>
      </trkpt>
      <trkpt lat="45.77362" lon="3.22484">
        <ele>365</ele>
        <time>2024-05-19T09:39:59Z</time>
      </trkpt>
      <trkpt lat="45.77366" lon="3.22492">
        <ele>365.2</ele>
        <time>2024-05-19T09:40:00Z</time>
      </trkpt>
      <trkpt lat="45.7737" lon="3.22501">
        <ele>365.2</ele>
        <time>2024-05-19T09:40:01Z</time>
      </trkpt>
      <trkpt lat="45.77375" lon="3.22508">
        <ele>365</ele>
        <time>2024-05-19T09:40:02Z</time>
      </trkpt>
      <trkpt lat="45.7738" lon="3.22516">
        <ele>365</ele>
        <time>2024-05-19T09:40:03Z</time>
      </trkpt>
      <trkpt lat="45.77385" lon="3.22523">
        <ele>364.8</ele>
        <time>2024-05-19T09:40:04Z</time>
      </trkpt>
      <trkpt lat="45.7739" lon="3.2253">
        <ele>364.8</ele>
        <time>2024-05-19T09:40:05Z</time>
      </trkpt>
      <trkpt lat="45.77395" lon="3.22537">
        <ele>364.8</ele>
        <time>2024-05-19T09:40:06Z</time>
      </trkpt>
      <trkpt lat="45.774" lon="3.22544">
        <ele>364.8</ele>
        <time>2024-05-19T09:40:07Z</time>
      </trkpt>
      <trkpt lat="45.77405" lon="3.22552">
        <ele>364.6</ele>
        <time>2024-05-19T09:40:08Z</time>
      </trkpt>
      <trkpt lat="45.7741" lon="3.22559">
        <ele>364.4</ele>
        <time>2024-05-19T09:40:09Z</time>
      </trkpt>
      <trkpt lat="45.77415" lon="3.22567">
        <ele>364.4</ele>
        <time>2024-05-19T09:40:10Z</time>
      </trkpt>
      <trkpt lat="45.7742" lon="3.22574">
        <ele>364.4</ele>
        <time>2024-05-19T09:40:11Z</time>
      </trkpt>
      <trkpt lat="45.77425" lon="3.22582">
        <ele>364.2</ele>
        <time>2024-05-19T09:40:12Z</time>
      </trkpt>
      <trkpt lat="45.77431" lon="3.2259">
        <ele>364.2</ele>
        <time>2024-05-19T09:40:13Z</time>
      </trkpt>
      <trkpt lat="45.77436" lon="3.22598">
        <ele>364</ele>
        <time>2024-05-19T09:40:14Z</time>
      </trkpt>
      <trkpt lat="45.77442" lon="3.22606">
        <ele>364</ele>
        <time>2024-05-19T09:40:15Z</time>
      </trkpt>
      <trkpt lat="45.77447" lon="3.22614">
        <ele>363.8</ele>
        <time>2024-05-19T09:40:16Z</time>
      </trkpt>
      <trkpt lat="45.77453" lon="3.22623">
        <ele>363.8</ele>
        <time>2024-05-19T09:40:17Z</time>
      </trkpt>
      <trkpt lat="45.77458" lon="3.22631">
        <ele>363.6</ele>
        <time>2024-05-19T09:40:18Z</time>
      </trkpt>
      <trkpt lat="45.77464" lon="3.2264">
        <ele>363.6</ele>
        <time>2024-05-19T09:40:19Z</time>
      </trkpt>
      <trkpt lat="45.7747" lon="3.22648">
        <ele>363.4</ele>
        <time>2024-05-19T09:40:20Z</time>
      </trkpt>
      <trkpt lat="45.77476" lon="3.22657">
        <ele>363.2</ele>
        <time>2024-05-19T09:40:21Z</time>
      </trkpt>
      <trkpt lat="45.77481" lon="3.22667">
        <ele>363</ele>
        <time>2024-05-19T09:40:22Z</time>
      </trkpt>
      <trkpt lat="45.77486" lon="3.22678">
        <ele>363</ele>
        <time>2024-05-19T09:40:23Z</time>
      </trkpt>
      <trkpt lat="45.77492" lon="3.22689">
        <ele>362.8</ele>
        <time>2024-05-19T09:40:24Z</time>
      </trkpt>
      <trkpt lat="45.77497" lon="3.227">
        <ele>362.6</ele>
        <time>2024-05-19T09:40:25Z</time>
      </trkpt>
      <trkpt lat="45.77503" lon="3.22711">
        <ele>362.4</ele>
        <time>2024-05-19T09:40:26Z</time>
      </trkpt>
      <trkpt lat="45.77508" lon="3.22724">
        <ele>362.2</ele>
        <time>2024-05-19T09:40:27Z</time>
      </trkpt>
      <trkpt lat="45.77513" lon="3.22737">
        <ele>362</ele>
        <time>2024-05-19T09:40:28Z</time>
      </trkpt>
      <trkpt lat="45.77517" lon="3.2275">
        <ele>361.6</ele>
        <time>2024-05-19T09:40:29Z</time>
      </trkpt>
      <trkpt lat="45.77522" lon="3.22763">
        <ele>361.4</ele>
        <time>2024-05-19T09:40:30Z</time>
      </trkpt>
      <trkpt lat="45.77527" lon="3.22777">
        <ele>361.2</ele>
        <time>2024-05-19T09:40:31Z</time>
      </trkpt>
      <trkpt lat="45.77532" lon="3.22791">
        <ele>361</ele>
        <time>2024-05-19T09:40:32Z</time>
      </trkpt>
      <trkpt lat="45.77536" lon="3.22806">
        <ele>360.8</ele>
        <time>2024-05-19T09:40:33Z</time>
      </trkpt>
      <trkpt lat="45.77539" lon="3.22821">
        <ele>360.6</ele>
        <time>2024-05-19T09:40:34Z</time>
      </trkpt>
      <trkpt lat="45.77542" lon="3.22836">
        <ele>360.4</ele>
        <time>2024-05-19T09:40:35Z</time>
      </trkpt>
      <trkpt lat="45.77546" lon="3.22851">
        <ele>360</ele>
        <time>2024-05-19T09:40:36Z</time>
      </trkpt>
      <trkpt lat="45.77549" lon="3.22867">
        <ele>359.8</ele>
        <time>2024-05-19T09:40:37Z</time>
      </trkpt>
      <trkpt lat="45.77551" lon="3.22883">
        <ele>359.4</ele>
        <time>2024-05-19T09:40:38Z</time>
      </trkpt>
      <trkpt lat="45.77553" lon="3.229">
        <ele>359.2</ele>
        <time>2024-05-19T09:40:39Z</time>
      </trkpt>
      <trkpt lat="45.77554" lon="3.22916">
        <ele>358.8</ele>
        <time>2024-05-19T09:40:40Z</time>
      </trkpt>
      <trkpt lat="45.77556" lon="3.22933">
        <ele>358.6</ele>
        <time>2024-05-19T09:40:41Z</time>
      </trkpt>
      <trkpt lat="45.77557" lon="3.22949">
        <ele>358.2</ele>
        <time>2024-05-19T09:40:42Z</time>
      </trkpt>
      <trkpt lat="45.77557" lon="3.22966">
        <ele>358</ele>
        <time>2024-05-19T09:40:43Z</time>
      </trkpt>
      <trkpt lat="45.77557" lon="3.22983">
        <ele>357.6</ele>
        <time>2024-05-19T09:40:44Z</time>
      </trkpt>
      <trkpt lat="45.77557" lon="3.23001">
        <ele>357.4</ele>
        <time>2024-05-19T09:40:45Z</time>
      </trkpt>
      <trkpt lat="45.77557" lon="3.23018">
        <ele>357</ele>
        <time>2024-05-19T09:40:46Z</time>
      </trkpt>
      <trkpt lat="45.77557" lon="3.23036">
        <ele>356.8</ele>
        <time>2024-05-19T09:40:47Z</time>
      </trkpt>
      <trkpt lat="45.77556" lon="3.23053">
        <ele>356.4</ele>
        <time>2024-05-19T09:40:48Z</time>
      </trkpt>
      <trkpt lat="45.77553" lon="3.2307">
        <ele>356</ele>
        <time>2024-05-19T09:40:49Z</time>
      </trkpt>
      <trkpt lat="45.77551" lon="3.23087">
        <ele>355.6</ele>
        <time>2024-05-19T09:40:50Z</time>
      </trkpt>
      <trkpt lat="45.77548" lon="3.23105">
        <ele>355.4</ele>
        <time>2024-05-19T09:40:51Z</time>
      </trkpt>
      <trkpt lat="45.77545" lon="3.23122">
        <ele>355</ele>
        <time>2024-05-19T09:40:52Z</time>
      </trkpt>
      <trkpt lat="45.77543" lon="3.23139">
        <ele>354.6</ele>
        <time>2024-05-19T09:40:53Z</time>
      </trkpt>
      <trkpt lat="45.7754" lon="3.23156">
        <ele>354.4</ele>
        <time>2024-05-19T09:40:54Z</time>
      </trkpt>
      <trkpt lat="45.77538" lon="3.23173">
        <ele>354</ele>
        <time>2024-05-19T09:40:55Z</time>
      </trkpt>
      <trkpt lat="45.77535" lon="3.23191">
        <ele>353.6</ele>
        <time>2024-05-19T09:40:56Z</time>
      </trkpt>
      <trkpt lat="45.77532" lon="3.23208">
        <ele>353.2</ele>
        <time>2024-05-19T09:40:57Z</time>
      </trkpt>
      <trkpt lat="45.7753" lon="3.23225">
        <ele>352.8</ele>
        <time>2024-05-19T09:40:58Z</time>
      </trkpt>
      <trkpt lat="45.77527" lon="3.23243">
        <ele>352.4</ele>
        <time>2024-05-19T09:40:59Z</time>
      </trkpt>
      <trkpt lat="45.77525" lon="3.2326">
        <ele>352</ele>
        <time>2024-05-19T09:41:00Z</time>
      </trkpt>
      <trkpt lat="45.77522" lon="3.23276">
        <ele>351.8</ele>
        <time>2024-05-19T09:41:01Z</time>
      </trkpt>
      <trkpt lat="45.7752" lon="3.23293">
        <ele>351.4</ele>
        <time>2024-05-19T09:41:02Z</time>
      </trkpt>
      <trkpt lat="45.77517" lon="3.2331">
        <ele>351</ele>
        <time>2024-05-19T09:41:03Z</time>
      </trkpt>
      <trkpt lat="45.77515" lon="3.23326">
        <ele>350.6</ele>
        <time>2024-05-19T09:41:04Z</time>
      </trkpt>
      <trkpt lat="45.77512" lon="3.23343">
        <ele>350.2</ele>
        <time>2024-05-19T09:41:05Z</time>
      </trkpt>
      <trkpt lat="45.7751" lon="3.23359">
        <ele>350</ele>
        <time>2024-05-19T09:41:06Z</time>
      </trkpt>
      <trkpt lat="45.77507" lon="3.23376">
        <ele>349.6</ele>
        <time>2024-05-19T09:41:07Z</time>
      </trkpt>
      <trkpt lat="45.77505" lon="3.23392">
        <ele>349.2</ele>
        <time>2024-05-19T09:41:08Z</time>
      </trkpt>
      <trkpt lat="45.77503" lon="3.23407">
        <ele>348.8</ele>
        <time>2024-05-19T09:41:09Z</time>
      </trkpt>
      <trkpt lat="45.775" lon="3.23421">
        <ele>348.6</ele>
        <time>2024-05-19T09:41:10Z</time>
      </trkpt>
      <trkpt lat="45.77495" lon="3.23433">
        <ele>348.2</ele>
        <time>2024-05-19T09:41:11Z</time>
      </trkpt>
      <trkpt lat="45.77491" lon="3.23444">
        <ele>347.8</ele>
        <time>2024-05-19T09:41:12Z</time>
      </trkpt>
      <trkpt lat="45.7749" lon="3.23459">
        <ele>347.2</ele>
        <time>2024-05-19T09:41:13Z</time>
      </trkpt>
      <trkpt lat="45.77493" lon="3.23472">
        <ele>346.8</ele>
        <time>2024-05-19T09:41:14Z</time>
      </trkpt>
      <trkpt lat="45.77493" lon="3.23488">
        <ele>346.4</ele>
        <time>2024-05-19T09:41:15Z</time>
      </trkpt>
      <trkpt lat="45.77492" lon="3.23502">
        <ele>346</ele>
        <time>2024-05-19T09:41:16Z</time>
      </trkpt>
      <trkpt lat="45.7749" lon="3.23516">
        <ele>345.8</ele>
        <time>2024-05-19T09:41:17Z</time>
      </trkpt>
      <trkpt lat="45.77488" lon="3.23531">
        <ele>345.4</ele>
        <time>2024-05-19T09:41:18Z</time>
      </trkpt>
      <trkpt lat="45.77486" lon="3.23545">
        <ele>345</ele>
        <time>2024-05-19T09:41:19Z</time>
      </trkpt>
      <trkpt lat="45.77483" lon="3.23561">
        <ele>344.8</ele>
        <time>2024-05-19T09:41:20Z</time>
      </trkpt>
      <trkpt lat="45.77481" lon="3.23575">
        <ele>344.4</ele>
        <time>2024-05-19T09:41:21Z</time>
      </trkpt>
      <trkpt lat="45.77479" lon="3.2359">
        <ele>344.2</ele>
        <time>2024-05-19T09:41:22Z</time>
      </trkpt>
      <trkpt lat="45.77477" lon="3.23605">
        <ele>344</ele>
        <time>2024-05-19T09:41:23Z</time>
      </trkpt>
      <trkpt lat="45.77475" lon="3.2362">
        <ele>343.6</ele>
        <time>2024-05-19T09:41:24Z</time>
      </trkpt>
      <trkpt lat="45.77473" lon="3.23635">
        <ele>343.2</ele>
        <time>2024-05-19T09:41:25Z</time>
      </trkpt>
      <trkpt lat="45.77471" lon="3.23649">
        <ele>343</ele>
        <time>2024-05-19T09:41:26Z</time>
      </trkpt>
      <trkpt lat="45.7747" lon="3.23664">
        <ele>342.8</ele>
        <time>2024-05-19T09:41:27Z</time>
      </trkpt>
      <trkpt lat="45.77468" lon="3.23678">
        <ele>342.4</ele>
        <time>2024-05-19T09:41:28Z</time>
      </trkpt>
      <trkpt lat="45.77466" lon="3.23692">
        <ele>342.2</ele>
        <time>2024-05-19T09:41:29Z</time>
      </trkpt>
      <trkpt lat="45.77464" lon="3.23705">
        <ele>342</ele>
        <time>2024-05-19T09:41:30Z</time>
      </trkpt>
      <trkpt lat="45.77462" lon="3.23719">
        <ele>341.6</ele>
        <time>2024-05-19T09:41:31Z</time>
      </trkpt>
      <trkpt lat="45.7746" lon="3.23732">
        <ele>341.4</ele>
        <time>2024-05-19T09:41:32Z</time>
      </trkpt>
      <trkpt lat="45.77458" lon="3.23744">
        <ele>341.2</ele>
        <time>2024-05-19T09:41:33Z</time>
      </trkpt>
      <trkpt lat="45.77457" lon="3.23756">
        <ele>341</ele>
        <time>2024-05-19T09:41:34Z</time>
      </trkpt>
      <trkpt lat="45.77455" lon="3.23768">
        <ele>340.8</ele>
        <time>2024-05-19T09:41:35Z</time>
      </trkpt>
      <trkpt lat="45.77453" lon="3.23779">
        <ele>340.6</ele>
        <time>2024-05-19T09:41:36Z</time>
      </trkpt>
      <trkpt lat="45.77451" lon="3.23791">
        <ele>340.4</ele>
        <time>2024-05-19T09:41:37Z</time>
      </trkpt>
      <trkpt lat="45.7745" lon="3.23801">
        <ele>340.2</ele>
        <time>2024-05-19T09:41:38Z</time>
      </trkpt>
      <trkpt lat="45.77448" lon="3.23812">
        <ele>340</ele>
        <time>2024-05-19T09:41:39Z</time>
      </trkpt>
      <trkpt lat="45.77447" lon="3.23823">
        <ele>339.8</ele>
        <time>2024-05-19T09:41:40Z</time>
      </trkpt>
      <trkpt lat="45.77445" lon="3.23833">
        <ele>339.8</ele>
        <time>2024-05-19T09:41:41Z</time>
      </trkpt>
      <trkpt lat="45.77443" lon="3.23844">
        <ele>339.6</ele>
        <time>2024-05-19T09:41:42Z</time>
      </trkpt>
      <trkpt lat="45.77442" lon="3.23854">
        <ele>339.4</ele>
        <time>2024-05-19T09:41:43Z</time>
      </trkpt>
      <trkpt lat="45.7744" lon="3.23864">
        <ele>339.2</ele>
        <time>2024-05-19T09:41:44Z</time>
      </trkpt>
      <trkpt lat="45.77439" lon="3.23874">
        <ele>339</ele>
        <time>2024-05-19T09:41:45Z</time>
      </trkpt>
      <trkpt lat="45.77437" lon="3.23884">
        <ele>339</ele>
        <time>2024-05-19T09:41:46Z</time>
      </trkpt>
      <trkpt lat="45.77436" lon="3.23894">
        <ele>338.8</ele>
        <time>2024-05-19T09:41:47Z</time>
      </trkpt>
      <trkpt lat="45.77434" lon="3.23904">
        <ele>338.6</ele>
        <time>2024-05-19T09:41:48Z</time>
      </trkpt>
      <trkpt lat="45.77433" lon="3.23914">
        <ele>338.6</ele>
        <time>2024-05-19T09:41:49Z</time>
      </trkpt>
      <trkpt lat="45.77431" lon="3.23924">
        <ele>338.4</ele>
        <time>2024-05-19T09:41:50Z</time>
      </trkpt>
      <trkpt lat="45.7743" lon="3.23934">
        <ele>338.2</ele>
        <time>2024-05-19T09:41:51Z</time>
      </trkpt>
      <trkpt lat="45.77428" lon="3.23944">
        <ele>338</ele>
        <time>2024-05-19T09:41:52Z</time>
      </trkpt>
      <trkpt lat="45.77427" lon="3.23953">
        <ele>338</ele>
        <time>2024-05-19T09:41:53Z</time>
      </trkpt>
      <trkpt lat="45.77426" lon="3.23963">
        <ele>337.8</ele>
        <time>2024-05-19T09:41:54Z</time>
      </trkpt>
      <trkpt lat="45.77424" lon="3.23973">
        <ele>337.8</ele>
        <time>2024-05-19T09:41:55Z</time>
      </trkpt>
      <trkpt lat="45.77421" lon="3.23983">
        <ele>337.6</ele>
        <time>2024-05-19T09:41:56Z</time>
      </trkpt>
      <trkpt lat="45.7742" lon="3.23991">
        <ele>337.6</ele>
        <time>2024-05-19T09:41:57Z</time>
      </trkpt>
      <trkpt lat="45.77419" lon="3.23999">
        <ele>337.6</ele>
        <time>2024-05-19T09:41:58Z</time>
      </trkpt>
      <trkpt lat="45.77417" lon="3.24008">
        <ele>337.4</ele>
        <time>2024-05-19T09:41:59Z</time>
      </trkpt>
      <trkpt lat="45.77416" lon="3.24016">
        <ele>337.4</ele>
        <time>2024-05-19T09:42:00Z</time>
      </trkpt>
      <trkpt lat="45.77411" lon="3.24026">
        <ele>337.2</ele>
        <time>2024-05-19T09:42:01Z</time>
      </trkpt>
      <trkpt lat="45.77408" lon="3.24031">
        <ele>337</ele>
        <time>2024-05-19T09:42:02Z</time>
      </trkpt>
      <trkpt lat="45.77405" lon="3.24039">
        <ele>337</ele>
        <time>2024-05-19T09:42:03Z</time>
      </trkpt>
      <trkpt lat="45.77403" lon="3.24047">
        <ele>337</ele>
        <time>2024-05-19T09:42:04Z</time>
      </trkpt>
      <trkpt lat="45.77405" lon="3.24057">
        <ele>336.8</ele>
        <time>2024-05-19T09:42:05Z</time>
      </trkpt>
      <trkpt lat="45.77409" lon="3.24065">
        <ele>336.8</ele>
        <time>2024-05-19T09:42:06Z</time>
      </trkpt>
      <trkpt lat="45.77414" lon="3.2407">
        <ele>336.6</ele>
        <time>2024-05-19T09:42:07Z</time>
      </trkpt>
      <trkpt lat="45.7742" lon="3.24078">
        <ele>336.6</ele>
        <time>2024-05-19T09:42:08Z</time>
      </trkpt>
      <trkpt lat="45.77423" lon="3.24087">
        <ele>336.4</ele>
        <time>2024-05-19T09:42:09Z</time>
      </trkpt>
      <trkpt lat="45.77427" lon="3.24097">
        <ele>336.4</ele>
        <time>2024-05-19T09:42:10Z</time>
      </trkpt>
      <trkpt lat="45.77431" lon="3.24107">
        <ele>336.2</ele>
        <time>2024-05-19T09:42:11Z</time>
      </trkpt>
      <trkpt lat="45.77435" lon="3.24117">
        <ele>336.2</ele>
        <time>2024-05-19T09:42:12Z</time>
      </trkpt>
      <trkpt lat="45.77439" lon="3.24127">
        <ele>336.2</ele>
        <time>2024-05-19T09:42:13Z</time>
      </trkpt>
      <trkpt lat="45.77443" lon="3.24138">
        <ele>336</ele>
        <time>2024-05-19T09:42:14Z</time>
      </trkpt>
      <trkpt lat="45.77446" lon="3.24148">
        <ele>336</ele>
        <time>2024-05-19T09:42:15Z</time>
      </trkpt>
      <trkpt lat="45.7745" lon="3.24159">
        <ele>335.8</ele>
        <time>2024-05-19T09:42:16Z</time>
      </trkpt>
      <trkpt lat="45.77454" lon="3.2417">
        <ele>335.6</ele>
        <time>2024-05-19T09:42:17Z</time>
      </trkpt>
      <trkpt lat="45.77458" lon="3.24181">
        <ele>335.6</ele>
        <time>2024-05-19T09:42:18Z</time>
      </trkpt>
      <trkpt lat="45.77462" lon="3.24191">
        <ele>335.6</ele>
        <time>2024-05-19T09:42:19Z</time>
      </trkpt>
      <trkpt lat="45.77465" lon="3.24202">
        <ele>335.4</ele>
        <time>2024-05-19T09:42:20Z</time>
      </trkpt>
      <trkpt lat="45.77469" lon="3.24212">
        <ele>335.4</ele>
        <time>2024-05-19T09:42:21Z</time>
      </trkpt>
      <trkpt lat="45.77473" lon="3.24223">
        <ele>335.2</ele>
        <time>2024-05-19T09:42:22Z</time>
      </trkpt>
      <trkpt lat="45.77477" lon="3.24233">
        <ele>335.2</ele>
        <time>2024-05-19T09:42:23Z</time>
      </trkpt>
      <trkpt lat="45.7748" lon="3.24243">
        <ele>335.2</ele>
        <time>2024-05-19T09:42:24Z</time>
      </trkpt>
      <trkpt lat="45.77484" lon="3.24253">
        <ele>335</ele>
        <time>2024-05-19T09:42:25Z</time>
      </trkpt>
      <trkpt lat="45.77487" lon="3.24263">
        <ele>335</ele>
        <time>2024-05-19T09:42:26Z</time>
      </trkpt>
      <trkpt lat="45.77491" lon="3.24273">
        <ele>334.8</ele>
        <time>2024-05-19T09:42:27Z</time>
      </trkpt>
      <trkpt lat="45.77494" lon="3.24283">
        <ele>334.8</ele>
        <time>2024-05-19T09:42:28Z</time>
      </trkpt>
      <trkpt lat="45.77498" lon="3.24292">
        <ele>334.8</ele>
        <time>2024-05-19T09:42:29Z</time>
      </trkpt>
      <trkpt lat="45.77501" lon="3.24301">
        <ele>334.8</ele>
        <time>2024-05-19T09:42:30Z</time>
      </trkpt>
      <trkpt lat="45.77504" lon="3.2431">
        <ele>334.6</ele>
        <time>2024-05-19T09:42:31Z</time>
      </trkpt>
      <trkpt lat="45.77507" lon="3.24319">
        <ele>334.6</ele>
        <time>2024-05-19T09:42:32Z</time>
      </trkpt>
      <trkpt lat="45.7751" lon="3.24327">
        <ele>334.6</ele>
        <time>2024-05-19T09:42:33Z</time>
      </trkpt>
      <trkpt lat="45.77513" lon="3.24336">
        <ele>334.6</ele>
        <time>2024-05-19T09:42:34Z</time>
      </trkpt>
      <trkpt lat="45.77516" lon="3.24344">
        <ele>334.4</ele>
        <time>2024-05-19T09:42:35Z</time>
      </trkpt>
      <trkpt lat="45.77519" lon="3.24352">
        <ele>334.4</ele>
        <time>2024-05-19T09:42:36Z</time>
      </trkpt>
      <trkpt lat="45.77522" lon="3.2436">
        <ele>334.4</ele>
        <time>2024-05-19T09:42:37Z</time>
      </trkpt>
      <trkpt lat="45.77525" lon="3.24368">
        <ele>334.4</ele>
        <time>2024-05-19T09:42:38Z</time>
      </trkpt>
      <trkpt lat="45.77527" lon="3.24375">
        <ele>334.4</ele>
        <time>2024-05-19T09:42:39Z</time>
      </trkpt>
      <trkpt lat="45.7753" lon="3.24382">
        <ele>334.4</ele>
        <time>2024-05-19T09:42:40Z</time>
      </trkpt>
      <trkpt lat="45.77533" lon="3.24389">
        <ele>334.4</ele>
        <time>2024-05-19T09:42:41Z</time>
      </trkpt>
      <trkpt lat="45.77536" lon="3.24396">
        <ele>334.4</ele>
        <time>2024-05-19T09:42:42Z</time>
      </trkpt>
      <trkpt lat="45.77539" lon="3.24403">
        <ele>334.4</ele>
        <time>2024-05-19T09:42:43Z</time>
      </trkpt>
      <trkpt lat="45.77542" lon="3.24409">
        <ele>334.4</ele>
        <time>2024-05-19T09:42:44Z</time>
      </trkpt>
      <trkpt lat="45.77544" lon="3.24416">
        <ele>334.4</ele>
        <time>2024-05-19T09:42:45Z</time>
      </trkpt>
      <trkpt lat="45.77547" lon="3.24422">
        <ele>334.4</ele>
        <time>2024-05-19T09:42:46Z</time>
      </trkpt>
      <trkpt lat="45.7755" lon="3.24429">
        <ele>334.4</ele>
        <time>2024-05-19T09:42:47Z</time>
      </trkpt>
      <trkpt lat="45.77552" lon="3.24435">
        <ele>334.4</ele>
        <time>2024-05-19T09:42:48Z</time>
      </trkpt>
      <trkpt lat="45.77555" lon="3.24441">
        <ele>334.4</ele>
        <time>2024-05-19T09:42:49Z</time>
      </trkpt>
      <trkpt lat="45.77558" lon="3.24448">
        <ele>334.4</ele>
        <time>2024-05-19T09:42:50Z</time>
      </trkpt>
      <trkpt lat="45.7756" lon="3.24454">
        <ele>334.4</ele>
        <time>2024-05-19T09:42:51Z</time>
      </trkpt>
      <trkpt lat="45.77563" lon="3.2446">
        <ele>334.4</ele>
        <time>2024-05-19T09:42:52Z</time>
      </trkpt>
      <trkpt lat="45.77565" lon="3.24466">
        <ele>334</ele>
        <time>2024-05-19T09:42:53Z</time>
      </trkpt>
      <trkpt lat="45.77568" lon="3.24472">
        <ele>334.2</ele>
        <time>2024-05-19T09:42:54Z</time>
      </trkpt>
      <trkpt lat="45.7757" lon="3.24478">
        <ele>334.2</ele>
        <time>2024-05-19T09:42:55Z</time>
      </trkpt>
      <trkpt lat="45.77573" lon="3.24484">
        <ele>334.6</ele>
        <time>2024-05-19T09:42:56Z</time>
      </trkpt>
      <trkpt lat="45.77575" lon="3.2449">
        <ele>334.8</ele>
        <time>2024-05-19T09:42:57Z</time>
      </trkpt>
      <trkpt lat="45.77578" lon="3.24496">
        <ele>335</ele>
        <time>2024-05-19T09:42:58Z</time>
      </trkpt>
      <trkpt lat="45.7758" lon="3.24502">
        <ele>334.6</ele>
        <time>2024-05-19T09:42:59Z</time>
      </trkpt>
      <trkpt lat="45.77583" lon="3.24508">
        <ele>334.8</ele>
        <time>2024-05-19T09:43:00Z</time>
      </trkpt>
      <trkpt lat="45.77585" lon="3.24513">
        <ele>334.8</ele>
        <time>2024-05-19T09:43:01Z</time>
      </trkpt>
      <trkpt lat="45.77587" lon="3.24519">
        <ele>334.8</ele>
        <time>2024-05-19T09:43:02Z</time>
      </trkpt>
      <trkpt lat="45.7759" lon="3.24525">
        <ele>335</ele>
        <time>2024-05-19T09:43:03Z</time>
      </trkpt>
      <trkpt lat="45.77592" lon="3.24531">
        <ele>335</ele>
        <time>2024-05-19T09:43:04Z</time>
      </trkpt>
      <trkpt lat="45.77595" lon="3.24537">
        <ele>335</ele>
        <time>2024-05-19T09:43:05Z</time>
      </trkpt>
      <trkpt lat="45.77597" lon="3.24543">
        <ele>335</ele>
        <time>2024-05-19T09:43:06Z</time>
      </trkpt>
      <trkpt lat="45.776" lon="3.24548">
        <ele>335.2</ele>
        <time>2024-05-19T09:43:07Z</time>
      </trkpt>
      <trkpt lat="45.77602" lon="3.24554">
        <ele>335.4</ele>
        <time>2024-05-19T09:43:08Z</time>
      </trkpt>
      <trkpt lat="45.77605" lon="3.2456">
        <ele>335.4</ele>
        <time>2024-05-19T09:43:09Z</time>
      </trkpt>
      <trkpt lat="45.77607" lon="3.24566">
        <ele>335.4</ele>
        <time>2024-05-19T09:43:10Z</time>
      </trkpt>
      <trkpt lat="45.77609" lon="3.24572">
        <ele>335.6</ele>
        <time>2024-05-19T09:43:11Z</time>
      </trkpt>
      <trkpt lat="45.77612" lon="3.24577">
        <ele>335.6</ele>
        <time>2024-05-19T09:43:12Z</time>
      </trkpt>
      <trkpt lat="45.77614" lon="3.24583">
        <ele>335.6</ele>
        <time>2024-05-19T09:43:13Z</time>
      </trkpt>
      <trkpt lat="45.77616" lon="3.24588">
        <ele>335.6</ele>
        <time>2024-05-19T09:43:14Z</time>
      </trkpt>
      <trkpt lat="45.77619" lon="3.24594">
        <ele>335.8</ele>
        <time>2024-05-19T09:43:15Z</time>
      </trkpt>
      <trkpt lat="45.77621" lon="3.246">
        <ele>335.8</ele>
        <time>2024-05-19T09:43:16Z</time>
      </trkpt>
      <trkpt lat="45.77624" lon="3.24606">
        <ele>336</ele>
        <time>2024-05-19T09:43:17Z</time>
      </trkpt>
      <trkpt lat="45.77626" lon="3.24611">
        <ele>336</ele>
        <time>2024-05-19T09:43:18Z</time>
      </trkpt>
      <trkpt lat="45.77628" lon="3.24616">
        <ele>336.2</ele>
        <time>2024-05-19T09:43:19Z</time>
      </trkpt>
      <trkpt lat="45.7763" lon="3.24621">
        <ele>336.4</ele>
        <time>2024-05-19T09:43:20Z</time>
      </trkpt>
      <trkpt lat="45.77633" lon="3.24626">
        <ele>336.4</ele>
        <time>2024-05-19T09:43:21Z</time>
      </trkpt>
      <trkpt lat="45.77636" lon="3.24631">
        <ele>336.6</ele>
        <time>2024-05-19T09:43:22Z</time>
      </trkpt>
      <trkpt lat="45.77639" lon="3.24636">
        <ele>336.6</ele>
        <time>2024-05-19T09:43:23Z</time>
      </trkpt>
      <trkpt lat="45.77641" lon="3.24641">
        <ele>336.6</ele>
        <time>2024-05-19T09:43:24Z</time>
      </trkpt>
      <trkpt lat="45.77644" lon="3.24646">
        <ele>336.8</ele>
        <time>2024-05-19T09:43:25Z</time>
      </trkpt>
      <trkpt lat="45.77647" lon="3.24651">
        <ele>337</ele>
        <time>2024-05-19T09:43:26Z</time>
      </trkpt>
      <trkpt lat="45.77651" lon="3.24655">
        <ele>337</ele>
        <time>2024-05-19T09:43:27Z</time>
      </trkpt>
      <trkpt lat="45.77654" lon="3.24659">
        <ele>337</ele>
        <time>2024-05-19T09:43:28Z</time>
      </trkpt>
      <trkpt lat="45.77656" lon="3.24663">
        <ele>337.2</ele>
        <time>2024-05-19T09:43:29Z</time>
      </trkpt>
      <trkpt lat="45.77659" lon="3.24667">
        <ele>337.2</ele>
        <time>2024-05-19T09:43:30Z</time>
      </trkpt>
      <trkpt lat="45.77663" lon="3.24671">
        <ele>337.4</ele>
        <time>2024-05-19T09:43:31Z</time>
      </trkpt>
      <trkpt lat="45.77666" lon="3.24675">
        <ele>337.6</ele>
        <time>2024-05-19T09:43:32Z</time>
      </trkpt>
      <trkpt lat="45.77669" lon="3.24679">
        <ele>337.6</ele>
        <time>2024-05-19T09:43:33Z</time>
      </trkpt>
      <trkpt lat="45.77672" lon="3.24683">
        <ele>337.8</ele>
        <time>2024-05-19T09:43:34Z</time>
      </trkpt>
      <trkpt lat="45.77675" lon="3.24687">
        <ele>337.8</ele>
        <time>2024-05-19T09:43:35Z</time>
      </trkpt>
      <trkpt lat="45.77678" lon="3.24691">
        <ele>338</ele>
        <time>2024-05-19T09:43:36Z</time>
      </trkpt>
      <trkpt lat="45.77681" lon="3.24695">
        <ele>338.2</ele>
        <time>2024-05-19T09:43:37Z</time>
      </trkpt>
      <trkpt lat="45.77685" lon="3.24698">
        <ele>338.2</ele>
        <time>2024-05-19T09:43:38Z</time>
      </trkpt>
      <trkpt lat="45.77689" lon="3.247">
        <ele>338.4</ele>
        <time>2024-05-19T09:43:39Z</time>
      </trkpt>
      <trkpt lat="45.77692" lon="3.24703">
        <ele>338.6</ele>
        <time>2024-05-19T09:43:40Z</time>
      </trkpt>
      <trkpt lat="45.77696" lon="3.24705">
        <ele>338.6</ele>
        <time>2024-05-19T09:43:41Z</time>
      </trkpt>
      <trkpt lat="45.777" lon="3.24708">
        <ele>338.8</ele>
        <time>2024-05-19T09:43:42Z</time>
      </trkpt>
      <trkpt lat="45.77703" lon="3.2471">
        <ele>339</ele>
        <time>2024-05-19T09:43:43Z</time>
      </trkpt>
      <trkpt lat="45.77707" lon="3.24713">
        <ele>339</ele>
        <time>2024-05-19T09:43:44Z</time>
      </trkpt>
      <trkpt lat="45.77711" lon="3.24715">
        <ele>339.2</ele>
        <time>2024-05-19T09:43:45Z</time>
      </trkpt>
      <trkpt lat="45.77714" lon="3.24717">
        <ele>339.2</ele>
        <time>2024-05-19T09:43:46Z</time>
      </trkpt>
      <trkpt lat="45.77718" lon="3.2472">
        <ele>339.4</ele>
        <time>2024-05-19T09:43:47Z</time>
      </trkpt>
      <trkpt lat="45.77721" lon="3.24722">
        <ele>339.6</ele>
        <time>2024-05-19T09:43:48Z</time>
      </trkpt>
      <trkpt lat="45.77725" lon="3.24723">
        <ele>339.6</ele>
        <time>2024-05-19T09:43:49Z</time>
      </trkpt>
      <trkpt lat="45.77729" lon="3.24725">
        <ele>339.8</ele>
        <time>2024-05-19T09:43:50Z</time>
      </trkpt>
      <trkpt lat="45.77733" lon="3.24727">
        <ele>339.8</ele>
        <time>2024-05-19T09:43:51Z</time>
      </trkpt>
      <trkpt lat="45.77737" lon="3.24728">
        <ele>340</ele>
        <time>2024-05-19T09:43:52Z</time>
      </trkpt>
      <trkpt lat="45.77741" lon="3.2473">
        <ele>340</ele>
        <time>2024-05-19T09:43:53Z</time>
      </trkpt>
      <trkpt lat="45.77745" lon="3.24732">
        <ele>340.2</ele>
        <time>2024-05-19T09:43:54Z</time>
      </trkpt>
      <trkpt lat="45.77749" lon="3.24734">
        <ele>340.2</ele>
        <time>2024-05-19T09:43:55Z</time>
      </trkpt>
      <trkpt lat="45.77753" lon="3.24735">
        <ele>340.2</ele>
        <time>2024-05-19T09:43:56Z</time>
      </trkpt>
      <trkpt lat="45.77757" lon="3.24737">
        <ele>340.2</ele>
        <time>2024-05-19T09:43:57Z</time>
      </trkpt>
      <trkpt lat="45.77761" lon="3.24739">
        <ele>340.2</ele>
        <time>2024-05-19T09:43:58Z</time>
      </trkpt>
      <trkpt lat="45.77765" lon="3.24741">
        <ele>340.4</ele>
        <time>2024-05-19T09:43:59Z</time>
      </trkpt>
      <trkpt lat="45.7777" lon="3.24742">
        <ele>340.4</ele>
        <time>2024-05-19T09:44:00Z</time>
      </trkpt>
      <trkpt lat="45.77774" lon="3.24744">
        <ele>340.6</ele>
        <time>2024-05-19T09:44:01Z</time>
      </trkpt>
      <trkpt lat="45.77778" lon="3.24746">
        <ele>340.6</ele>
        <time>2024-05-19T09:44:02Z</time>
      </trkpt>
      <trkpt lat="45.77782" lon="3.24749">
        <ele>340.6</ele>
        <time>2024-05-19T09:44:03Z</time>
      </trkpt>
      <trkpt lat="45.77786" lon="3.24752">
        <ele>340.8</ele>
        <time>2024-05-19T09:44:04Z</time>
      </trkpt>
      <trkpt lat="45.77791" lon="3.24755">
        <ele>340.8</ele>
        <time>2024-05-19T09:44:05Z</time>
      </trkpt>
      <trkpt lat="45.77795" lon="3.24757">
        <ele>340.8</ele>
        <time>2024-05-19T09:44:06Z</time>
      </trkpt>
      <trkpt lat="45.77799" lon="3.2476">
        <ele>341</ele>
        <time>2024-05-19T09:44:07Z</time>
      </trkpt>
      <trkpt lat="45.77803" lon="3.24763">
        <ele>341</ele>
        <time>2024-05-19T09:44:08Z</time>
      </trkpt>
      <trkpt lat="45.77807" lon="3.24766">
        <ele>341.2</ele>
        <time>2024-05-19T09:44:09Z</time>
      </trkpt>
      <trkpt lat="45.77811" lon="3.24769">
        <ele>341.2</ele>
        <time>2024-05-19T09:44:10Z</time>
      </trkpt>
      <trkpt lat="45.77816" lon="3.24772">
        <ele>341.2</ele>
        <time>2024-05-19T09:44:11Z</time>
      </trkpt>
      <trkpt lat="45.7782" lon="3.24776">
        <ele>341.2</ele>
        <time>2024-05-19T09:44:12Z</time>
      </trkpt>
      <trkpt lat="45.77824" lon="3.24781">
        <ele>341.2</ele>
        <time>2024-05-19T09:44:13Z</time>
      </trkpt>
      <trkpt lat="45.77828" lon="3.24785">
        <ele>341.4</ele>
        <time>2024-05-19T09:44:14Z</time>
      </trkpt>
      <trkpt lat="45.77833" lon="3.24789">
        <ele>341.4</ele>
        <time>2024-05-19T09:44:15Z</time>
      </trkpt>
      <trkpt lat="45.77837" lon="3.24793">
        <ele>341.6</ele>
        <time>2024-05-19T09:44:16Z</time>
      </trkpt>
      <trkpt lat="45.77842" lon="3.24798">
        <ele>341.6</ele>
        <time>2024-05-19T09:44:17Z</time>
      </trkpt>
      <trkpt lat="45.77846" lon="3.24802">
        <ele>341.6</ele>
        <time>2024-05-19T09:44:18Z</time>
      </trkpt>
      <trkpt lat="45.77851" lon="3.24807">
        <ele>341.8</ele>
        <time>2024-05-19T09:44:19Z</time>
      </trkpt>
      <trkpt lat="45.77856" lon="3.24812">
        <ele>341.8</ele>
        <time>2024-05-19T09:44:20Z</time>
      </trkpt>
      <trkpt lat="45.77861" lon="3.24816">
        <ele>341.8</ele>
        <time>2024-05-19T09:44:21Z</time>
      </trkpt>
      <trkpt lat="45.77866" lon="3.24821">
        <ele>341.8</ele>
        <time>2024-05-19T09:44:22Z</time>
      </trkpt>
      <trkpt lat="45.77871" lon="3.24826">
        <ele>341.8</ele>
        <time>2024-05-19T09:44:23Z</time>
      </trkpt>
      <trkpt lat="45.77876" lon="3.24831">
        <ele>342</ele>
        <time>2024-05-19T09:44:24Z</time>
      </trkpt>
      <trkpt lat="45.77881" lon="3.24836">
        <ele>342</ele>
        <time>2024-05-19T09:44:25Z</time>
      </trkpt>
      <trkpt lat="45.77887" lon="3.24841">
        <ele>342</ele>
        <time>2024-05-19T09:44:26Z</time>
      </trkpt>
      <trkpt lat="45.77892" lon="3.24847">
        <ele>342</ele>
        <time>2024-05-19T09:44:27Z</time>
      </trkpt>
      <trkpt lat="45.77898" lon="3.24852">
        <ele>342.2</ele>
        <time>2024-05-19T09:44:28Z</time>
      </trkpt>
      <trkpt lat="45.77904" lon="3.24857">
        <ele>342.2</ele>
        <time>2024-05-19T09:44:29Z</time>
      </trkpt>
      <trkpt lat="45.77911" lon="3.2486">
        <ele>342.2</ele>
        <time>2024-05-19T09:44:30Z</time>
      </trkpt>
      <trkpt lat="45.77918" lon="3.24863">
        <ele>342.2</ele>
        <time>2024-05-19T09:44:31Z</time>
      </trkpt>
      <trkpt lat="45.77925" lon="3.24866">
        <ele>342</ele>
        <time>2024-05-19T09:44:32Z</time>
      </trkpt>
      <trkpt lat="45.77932" lon="3.24869">
        <ele>342</ele>
        <time>2024-05-19T09:44:33Z</time>
      </trkpt>
      <trkpt lat="45.77939" lon="3.24872">
        <ele>342</ele>
        <time>2024-05-19T09:44:34Z</time>
      </trkpt>
      <trkpt lat="45.77947" lon="3.24873">
        <ele>342</ele>
        <time>2024-05-19T09:44:35Z</time>
      </trkpt>
      <trkpt lat="45.77954" lon="3.24874">
        <ele>342</ele>
        <time>2024-05-19T09:44:36Z</time>
      </trkpt>
      <trkpt lat="45.77962" lon="3.24876">
        <ele>342</ele>
        <time>2024-05-19T09:44:37Z</time>
      </trkpt>
      <trkpt lat="45.7797" lon="3.24877">
        <ele>342</ele>
        <time>2024-05-19T09:44:38Z</time>
      </trkpt>
      <trkpt lat="45.77977" lon="3.24878">
        <ele>342</ele>
        <time>2024-05-19T09:44:39Z</time>
      </trkpt>
      <trkpt lat="45.77985" lon="3.24879">
        <ele>342</ele>
        <time>2024-05-19T09:44:40Z</time>
      </trkpt>
      <trkpt lat="45.77992" lon="3.24879">
        <ele>342</ele>
        <time>2024-05-19T09:44:41Z</time>
      </trkpt>
      <trkpt lat="45.78" lon="3.24877">
        <ele>342</ele>
        <time>2024-05-19T09:44:42Z</time>
      </trkpt>
      <trkpt lat="45.78007" lon="3.24876">
        <ele>342.2</ele>
        <time>2024-05-19T09:44:43Z</time>
      </trkpt>
      <trkpt lat="45.78015" lon="3.24874">
        <ele>342.2</ele>
        <time>2024-05-19T09:44:44Z</time>
      </trkpt>
      <trkpt lat="45.78023" lon="3.24873">
        <ele>341.8</ele>
        <time>2024-05-19T09:44:45Z</time>
      </trkpt>
      <trkpt lat="45.7803" lon="3.2487">
        <ele>341.6</ele>
        <time>2024-05-19T09:44:46Z</time>
      </trkpt>
      <trkpt lat="45.78038" lon="3.24867">
        <ele>341.4</ele>
        <time>2024-05-19T09:44:47Z</time>
      </trkpt>
      <trkpt lat="45.78045" lon="3.24863">
        <ele>341.6</ele>
        <time>2024-05-19T09:44:48Z</time>
      </trkpt>
      <trkpt lat="45.78052" lon="3.24859">
        <ele>341.6</ele>
        <time>2024-05-19T09:44:49Z</time>
      </trkpt>
      <trkpt lat="45.7806" lon="3.24855">
        <ele>341.6</ele>
        <time>2024-05-19T09:44:50Z</time>
      </trkpt>
      <trkpt lat="45.78067" lon="3.24852">
        <ele>341.6</ele>
        <time>2024-05-19T09:44:51Z</time>
      </trkpt>
      <trkpt lat="45.78075" lon="3.24848">
        <ele>341.4</ele>
        <time>2024-05-19T09:44:52Z</time>
      </trkpt>
      <trkpt lat="45.78082" lon="3.24844">
        <ele>341.4</ele>
        <time>2024-05-19T09:44:53Z</time>
      </trkpt>
      <trkpt lat="45.7809" lon="3.2484">
        <ele>341.4</ele>
        <time>2024-05-19T09:44:54Z</time>
      </trkpt>
      <trkpt lat="45.78097" lon="3.24836">
        <ele>341.4</ele>
        <time>2024-05-19T09:44:55Z</time>
      </trkpt>
      <trkpt lat="45.78105" lon="3.24832">
        <ele>341.4</ele>
        <time>2024-05-19T09:44:56Z</time>
      </trkpt>
      <trkpt lat="45.78112" lon="3.24829">
        <ele>341.2</ele>
        <time>2024-05-19T09:44:57Z</time>
      </trkpt>
      <trkpt lat="45.7812" lon="3.24825">
        <ele>341.2</ele>
        <time>2024-05-19T09:44:58Z</time>
      </trkpt>
      <trkpt lat="45.78127" lon="3.24821">
        <ele>341.2</ele>
        <time>2024-05-19T09:44:59Z</time>
      </trkpt>
      <trkpt lat="45.78135" lon="3.24818">
        <ele>341.2</ele>
        <time>2024-05-19T09:45:00Z</time>
      </trkpt>
      <trkpt lat="45.78143" lon="3.24814">
        <ele>341.2</ele>
        <time>2024-05-19T09:45:01Z</time>
      </trkpt>
      <trkpt lat="45.78151" lon="3.24811">
        <ele>341.2</ele>
        <time>2024-05-19T09:45:02Z</time>
      </trkpt>
      <trkpt lat="45.78159" lon="3.24808">
        <ele>341.2</ele>
        <time>2024-05-19T09:45:03Z</time>
      </trkpt>
      <trkpt lat="45.78167" lon="3.24807">
        <ele>341</ele>
        <time>2024-05-19T09:45:04Z</time>
      </trkpt>
      <trkpt lat="45.78175" lon="3.24807">
        <ele>341</ele>
        <time>2024-05-19T09:45:05Z</time>
      </trkpt>
      <trkpt lat="45.78184" lon="3.24807">
        <ele>341</ele>
        <time>2024-05-19T09:45:06Z</time>
      </trkpt>
      <trkpt lat="45.78192" lon="3.24807">
        <ele>341</ele>
        <time>2024-05-19T09:45:07Z</time>
      </trkpt>
      <trkpt lat="45.782" lon="3.24808">
        <ele>341</ele>
        <time>2024-05-19T09:45:08Z</time>
      </trkpt>
      <trkpt lat="45.78208" lon="3.24809">
        <ele>341</ele>
        <time>2024-05-19T09:45:09Z</time>
      </trkpt>
      <trkpt lat="45.78216" lon="3.24811">
        <ele>340.8</ele>
        <time>2024-05-19T09:45:10Z</time>
      </trkpt>
      <trkpt lat="45.78223" lon="3.24814">
        <ele>340.8</ele>
        <time>2024-05-19T09:45:11Z</time>
      </trkpt>
      <trkpt lat="45.78231" lon="3.24818">
        <ele>340.8</ele>
        <time>2024-05-19T09:45:12Z</time>
      </trkpt>
      <trkpt lat="45.78239" lon="3.24821">
        <ele>340.8</ele>
        <time>2024-05-19T09:45:13Z</time>
      </trkpt>
      <trkpt lat="45.78246" lon="3.24825">
        <ele>340.8</ele>
        <time>2024-05-19T09:45:14Z</time>
      </trkpt>
      <trkpt lat="45.78253" lon="3.24829">
        <ele>340.8</ele>
        <time>2024-05-19T09:45:15Z</time>
      </trkpt>
      <trkpt lat="45.7826" lon="3.24835">
        <ele>340.8</ele>
        <time>2024-05-19T09:45:16Z</time>
      </trkpt>
      <trkpt lat="45.78266" lon="3.24841">
        <ele>340.8</ele>
        <time>2024-05-19T09:45:17Z</time>
      </trkpt>
      <trkpt lat="45.78273" lon="3.24847">
        <ele>340.8</ele>
        <time>2024-05-19T09:45:18Z</time>
      </trkpt>
      <trkpt lat="45.78279" lon="3.24853">
        <ele>340.8</ele>
        <time>2024-05-19T09:45:19Z</time>
      </trkpt>
      <trkpt lat="45.78285" lon="3.24858">
        <ele>340.8</ele>
        <time>2024-05-19T09:45:20Z</time>
      </trkpt>
      <trkpt lat="45.78292" lon="3.24864">
        <ele>340.8</ele>
        <time>2024-05-19T09:45:21Z</time>
      </trkpt>
      <trkpt lat="45.78298" lon="3.2487">
        <ele>340.8</ele>
        <time>2024-05-19T09:45:22Z</time>
      </trkpt>
      <trkpt lat="45.78305" lon="3.24876">
        <ele>340.8</ele>
        <time>2024-05-19T09:45:23Z</time>
      </trkpt>
      <trkpt lat="45.78311" lon="3.24881">
        <ele>340.8</ele>
        <time>2024-05-19T09:45:24Z</time>
      </trkpt>
      <trkpt lat="45.78317" lon="3.24887">
        <ele>340.8</ele>
        <time>2024-05-19T09:45:25Z</time>
      </trkpt>
      <trkpt lat="45.78324" lon="3.24893">
        <ele>340.8</ele>
        <time>2024-05-19T09:45:26Z</time>
      </trkpt>
      <trkpt lat="45.7833" lon="3.24898">
        <ele>340.8</ele>
        <time>2024-05-19T09:45:27Z</time>
      </trkpt>
      <trkpt lat="45.78336" lon="3.24904">
        <ele>340.8</ele>
        <time>2024-05-19T09:45:28Z</time>
      </trkpt>
      <trkpt lat="45.78342" lon="3.2491">
        <ele>340.8</ele>
        <time>2024-05-19T09:45:29Z</time>
      </trkpt>
      <trkpt lat="45.78349" lon="3.24915">
        <ele>340.6</ele>
        <time>2024-05-19T09:45:30Z</time>
      </trkpt>
      <trkpt lat="45.78355" lon="3.24921">
        <ele>340.6</ele>
        <time>2024-05-19T09:45:31Z</time>
      </trkpt>
      <trkpt lat="45.78361" lon="3.24927">
        <ele>340.6</ele>
        <time>2024-05-19T09:45:32Z</time>
      </trkpt>
      <trkpt lat="45.78366" lon="3.24934">
        <ele>340.6</ele>
        <time>2024-05-19T09:45:33Z</time>
      </trkpt>
      <trkpt lat="45.78371" lon="3.2494">
        <ele>340.6</ele>
        <time>2024-05-19T09:45:34Z</time>
      </trkpt>
      <trkpt lat="45.78377" lon="3.24947">
        <ele>340.8</ele>
        <time>2024-05-19T09:45:35Z</time>
      </trkpt>
      <trkpt lat="45.78382" lon="3.24953">
        <ele>340.6</ele>
        <time>2024-05-19T09:45:36Z</time>
      </trkpt>
      <trkpt lat="45.78388" lon="3.2496">
        <ele>340.6</ele>
        <time>2024-05-19T09:45:37Z</time>
      </trkpt>
      <trkpt lat="45.78393" lon="3.24966">
        <ele>340.6</ele>
        <time>2024-05-19T09:45:38Z</time>
      </trkpt>
      <trkpt lat="45.78399" lon="3.24973">
        <ele>340.6</ele>
        <time>2024-05-19T09:45:39Z</time>
      </trkpt>
      <trkpt lat="45.78404" lon="3.24979">
        <ele>340.6</ele>
        <time>2024-05-19T09:45:40Z</time>
      </trkpt>
      <trkpt lat="45.78409" lon="3.24986">
        <ele>340.6</ele>
        <time>2024-05-19T09:45:41Z</time>
      </trkpt>
      <trkpt lat="45.78414" lon="3.24993">
        <ele>340.6</ele>
        <time>2024-05-19T09:45:42Z</time>
      </trkpt>
      <trkpt lat="45.78419" lon="3.25">
        <ele>340.4</ele>
        <time>2024-05-19T09:45:43Z</time>
      </trkpt>
      <trkpt lat="45.78424" lon="3.25008">
        <ele>340.6</ele>
        <time>2024-05-19T09:45:44Z</time>
      </trkpt>
      <trkpt lat="45.78429" lon="3.25015">
        <ele>340.6</ele>
        <time>2024-05-19T09:45:45Z</time>
      </trkpt>
      <trkpt lat="45.78433" lon="3.25023">
        <ele>340.8</ele>
        <time>2024-05-19T09:45:46Z</time>
      </trkpt>
      <trkpt lat="45.78438" lon="3.2503">
        <ele>340.8</ele>
        <time>2024-05-19T09:45:47Z</time>
      </trkpt>
      <trkpt lat="45.78443" lon="3.25037">
        <ele>340.8</ele>
        <time>2024-05-19T09:45:48Z</time>
      </trkpt>
      <trkpt lat="45.78447" lon="3.25045">
        <ele>340.8</ele>
        <time>2024-05-19T09:45:49Z</time>
      </trkpt>
      <trkpt lat="45.78451" lon="3.25053">
        <ele>340.8</ele>
        <time>2024-05-19T09:45:50Z</time>
      </trkpt>
      <trkpt lat="45.78456" lon="3.25062">
        <ele>340.8</ele>
        <time>2024-05-19T09:45:51Z</time>
      </trkpt>
      <trkpt lat="45.7846" lon="3.2507">
        <ele>340.8</ele>
        <time>2024-05-19T09:45:52Z</time>
      </trkpt>
      <trkpt lat="45.78464" lon="3.25078">
        <ele>340.8</ele>
        <time>2024-05-19T09:45:53Z</time>
      </trkpt>
      <trkpt lat="45.78468" lon="3.25086">
        <ele>340.8</ele>
        <time>2024-05-19T09:45:54Z</time>
      </trkpt>
      <trkpt lat="45.78472" lon="3.25094">
        <ele>341</ele>
        <time>2024-05-19T09:45:55Z</time>
      </trkpt>
      <trkpt lat="45.78476" lon="3.25102">
        <ele>341</ele>
        <time>2024-05-19T09:45:56Z</time>
      </trkpt>
      <trkpt lat="45.7848" lon="3.2511">
        <ele>341</ele>
        <time>2024-05-19T09:45:57Z</time>
      </trkpt>
      <trkpt lat="45.78484" lon="3.25119">
        <ele>341</ele>
        <time>2024-05-19T09:45:58Z</time>
      </trkpt>
      <trkpt lat="45.78489" lon="3.25127">
        <ele>341</ele>
        <time>2024-05-19T09:45:59Z</time>
      </trkpt>
      <trkpt lat="45.78493" lon="3.25135">
        <ele>341</ele>
        <time>2024-05-19T09:46:00Z</time>
      </trkpt>
      <trkpt lat="45.78497" lon="3.25143">
        <ele>341</ele>
        <time>2024-05-19T09:46:01Z</time>
      </trkpt>
      <trkpt lat="45.78501" lon="3.25152">
        <ele>341.2</ele>
        <time>2024-05-19T09:46:02Z</time>
      </trkpt>
      <trkpt lat="45.78505" lon="3.2516">
        <ele>341.2</ele>
        <time>2024-05-19T09:46:03Z</time>
      </trkpt>
      <trkpt lat="45.7851" lon="3.25168">
        <ele>341.2</ele>
        <time>2024-05-19T09:46:04Z</time>
      </trkpt>
      <trkpt lat="45.78513" lon="3.25177">
        <ele>341.2</ele>
        <time>2024-05-19T09:46:05Z</time>
      </trkpt>
      <trkpt lat="45.78516" lon="3.25186">
        <ele>341.2</ele>
        <time>2024-05-19T09:46:06Z</time>
      </trkpt>
      <trkpt lat="45.7852" lon="3.25196">
        <ele>341.2</ele>
        <time>2024-05-19T09:46:07Z</time>
      </trkpt>
      <trkpt lat="45.78523" lon="3.25205">
        <ele>341.2</ele>
        <time>2024-05-19T09:46:08Z</time>
      </trkpt>
      <trkpt lat="45.78527" lon="3.25214">
        <ele>341.2</ele>
        <time>2024-05-19T09:46:09Z</time>
      </trkpt>
      <trkpt lat="45.7853" lon="3.25223">
        <ele>341.2</ele>
        <time>2024-05-19T09:46:10Z</time>
      </trkpt>
      <trkpt lat="45.78533" lon="3.25231">
        <ele>341.4</ele>
        <time>2024-05-19T09:46:11Z</time>
      </trkpt>
      <trkpt lat="45.78536" lon="3.2524">
        <ele>341.4</ele>
        <time>2024-05-19T09:46:12Z</time>
      </trkpt>
      <trkpt lat="45.78537" lon="3.2525">
        <ele>341.4</ele>
        <time>2024-05-19T09:46:13Z</time>
      </trkpt>
      <trkpt lat="45.78539" lon="3.25259">
        <ele>341.4</ele>
        <time>2024-05-19T09:46:14Z</time>
      </trkpt>
      <trkpt lat="45.78541" lon="3.25269">
        <ele>341.4</ele>
        <time>2024-05-19T09:46:15Z</time>
      </trkpt>
      <trkpt lat="45.78543" lon="3.25278">
        <ele>341.4</ele>
        <time>2024-05-19T09:46:16Z</time>
      </trkpt>
      <trkpt lat="45.78542" lon="3.25287">
        <ele>341.4</ele>
        <time>2024-05-19T09:46:17Z</time>
      </trkpt>
      <trkpt lat="45.78543" lon="3.25297">
        <ele>341.4</ele>
        <time>2024-05-19T09:46:18Z</time>
      </trkpt>
      <trkpt lat="45.78546" lon="3.25305">
        <ele>341.4</ele>
        <time>2024-05-19T09:46:19Z</time>
      </trkpt>
      <trkpt lat="45.78548" lon="3.25313">
        <ele>341.4</ele>
        <time>2024-05-19T09:46:20Z</time>
      </trkpt>
      <trkpt lat="45.78553" lon="3.25322">
        <ele>341.4</ele>
        <time>2024-05-19T09:46:21Z</time>
      </trkpt>
      <trkpt lat="45.78555" lon="3.25332">
        <ele>341.4</ele>
        <time>2024-05-19T09:46:22Z</time>
      </trkpt>
      <trkpt lat="45.78557" lon="3.25342">
        <ele>341.4</ele>
        <time>2024-05-19T09:46:23Z</time>
      </trkpt>
      <trkpt lat="45.78558" lon="3.25353">
        <ele>341.4</ele>
        <time>2024-05-19T09:46:24Z</time>
      </trkpt>
      <trkpt lat="45.78559" lon="3.25364">
        <ele>341.4</ele>
        <time>2024-05-19T09:46:25Z</time>
      </trkpt>
      <trkpt lat="45.7856" lon="3.25374">
        <ele>341.4</ele>
        <time>2024-05-19T09:46:26Z</time>
      </trkpt>
      <trkpt lat="45.78561" lon="3.25384">
        <ele>341.6</ele>
        <time>2024-05-19T09:46:27Z</time>
      </trkpt>
      <trkpt lat="45.78562" lon="3.25395">
        <ele>341.6</ele>
        <time>2024-05-19T09:46:28Z</time>
      </trkpt>
      <trkpt lat="45.78563" lon="3.25405">
        <ele>341.6</ele>
        <time>2024-05-19T09:46:29Z</time>
      </trkpt>
      <trkpt lat="45.78564" lon="3.25416">
        <ele>341.6</ele>
        <time>2024-05-19T09:46:30Z</time>
      </trkpt>
      <trkpt lat="45.78564" lon="3.25426">
        <ele>341.6</ele>
        <time>2024-05-19T09:46:31Z</time>
      </trkpt>
      <trkpt lat="45.78565" lon="3.25436">
        <ele>341.6</ele>
        <time>2024-05-19T09:46:32Z</time>
      </trkpt>
      <trkpt lat="45.78566" lon="3.25447">
        <ele>341.6</ele>
        <time>2024-05-19T09:46:33Z</time>
      </trkpt>
      <trkpt lat="45.78567" lon="3.25458">
        <ele>341.6</ele>
        <time>2024-05-19T09:46:34Z</time>
      </trkpt>
      <trkpt lat="45.78568" lon="3.25468">
        <ele>341.6</ele>
        <time>2024-05-19T09:46:35Z</time>
      </trkpt>
      <trkpt lat="45.78568" lon="3.25478">
        <ele>341.6</ele>
        <time>2024-05-19T09:46:36Z</time>
      </trkpt>
      <trkpt lat="45.78569" lon="3.25489">
        <ele>341.6</ele>
        <time>2024-05-19T09:46:37Z</time>
      </trkpt>
      <trkpt lat="45.7857" lon="3.25499">
        <ele>341.6</ele>
        <time>2024-05-19T09:46:38Z</time>
      </trkpt>
      <trkpt lat="45.78571" lon="3.25509">
        <ele>341.6</ele>
        <time>2024-05-19T09:46:39Z</time>
      </trkpt>
      <trkpt lat="45.78572" lon="3.2552">
        <ele>341.6</ele>
        <time>2024-05-19T09:46:40Z</time>
      </trkpt>
      <trkpt lat="45.78573" lon="3.2553">
        <ele>341.6</ele>
        <time>2024-05-19T09:46:41Z</time>
      </trkpt>
      <trkpt lat="45.78573" lon="3.2554">
        <ele>341.8</ele>
        <time>2024-05-19T09:46:42Z</time>
      </trkpt>
      <trkpt lat="45.78574" lon="3.25551">
        <ele>341.8</ele>
        <time>2024-05-19T09:46:43Z</time>
      </trkpt>
      <trkpt lat="45.78575" lon="3.25561">
        <ele>341.8</ele>
        <time>2024-05-19T09:46:44Z</time>
      </trkpt>
      <trkpt lat="45.78576" lon="3.25571">
        <ele>341.8</ele>
        <time>2024-05-19T09:46:45Z</time>
      </trkpt>
      <trkpt lat="45.78577" lon="3.25582">
        <ele>341.8</ele>
        <time>2024-05-19T09:46:46Z</time>
      </trkpt>
      <trkpt lat="45.78577" lon="3.25592">
        <ele>341.8</ele>
        <time>2024-05-19T09:46:47Z</time>
      </trkpt>
      <trkpt lat="45.78578" lon="3.25603">
        <ele>341.8</ele>
        <time>2024-05-19T09:46:48Z</time>
      </trkpt>
      <trkpt lat="45.78579" lon="3.25614">
        <ele>341.8</ele>
        <time>2024-05-19T09:46:49Z</time>
      </trkpt>
      <trkpt lat="45.7858" lon="3.25624">
        <ele>341.8</ele>
        <time>2024-05-19T09:46:50Z</time>
      </trkpt>
      <trkpt lat="45.78581" lon="3.25634">
        <ele>341.8</ele>
        <time>2024-05-19T09:46:51Z</time>
      </trkpt>
      <trkpt lat="45.78582" lon="3.25645">
        <ele>341.8</ele>
        <time>2024-05-19T09:46:52Z</time>
      </trkpt>
      <trkpt lat="45.78582" lon="3.25655">
        <ele>341.8</ele>
        <time>2024-05-19T09:46:53Z</time>
      </trkpt>
      <trkpt lat="45.78583" lon="3.25666">
        <ele>341.8</ele>
        <time>2024-05-19T09:46:54Z</time>
      </trkpt>
      <trkpt lat="45.78584" lon="3.25676">
        <ele>341.8</ele>
        <time>2024-05-19T09:46:55Z</time>
      </trkpt>
      <trkpt lat="45.78585" lon="3.25687">
        <ele>341.8</ele>
        <time>2024-05-19T09:46:56Z</time>
      </trkpt>
      <trkpt lat="45.78586" lon="3.25697">
        <ele>341.8</ele>
        <time>2024-05-19T09:46:57Z</time>
      </trkpt>
      <trkpt lat="45.78587" lon="3.25708">
        <ele>341.8</ele>
        <time>2024-05-19T09:46:58Z</time>
      </trkpt>
      <trkpt lat="45.78587" lon="3.25718">
        <ele>341.8</ele>
        <time>2024-05-19T09:46:59Z</time>
      </trkpt>
      <trkpt lat="45.78588" lon="3.25729">
        <ele>341.8</ele>
        <time>2024-05-19T09:47:00Z</time>
      </trkpt>
      <trkpt lat="45.78589" lon="3.25739">
        <ele>341.8</ele>
        <time>2024-05-19T09:47:01Z</time>
      </trkpt>
      <trkpt lat="45.7859" lon="3.2575">
        <ele>341.8</ele>
        <time>2024-05-19T09:47:02Z</time>
      </trkpt>
      <trkpt lat="45.78591" lon="3.2576">
        <ele>341.6</ele>
        <time>2024-05-19T09:47:03Z</time>
      </trkpt>
      <trkpt lat="45.78591" lon="3.25771">
        <ele>341.6</ele>
        <time>2024-05-19T09:47:04Z</time>
      </trkpt>
      <trkpt lat="45.78592" lon="3.25781">
        <ele>341.6</ele>
        <time>2024-05-19T09:47:05Z</time>
      </trkpt>
      <trkpt lat="45.78593" lon="3.25792">
        <ele>341.8</ele>
        <time>2024-05-19T09:47:06Z</time>
      </trkpt>
      <trkpt lat="45.78594" lon="3.25803">
        <ele>341.8</ele>
        <time>2024-05-19T09:47:07Z</time>
      </trkpt>
      <trkpt lat="45.78595" lon="3.25814">
        <ele>341.8</ele>
        <time>2024-05-19T09:47:08Z</time>
      </trkpt>
      <trkpt lat="45.78596" lon="3.25825">
        <ele>341.8</ele>
        <time>2024-05-19T09:47:09Z</time>
      </trkpt>
      <trkpt lat="45.78597" lon="3.25836">
        <ele>341.8</ele>
        <time>2024-05-19T09:47:10Z</time>
      </trkpt>
      <trkpt lat="45.78598" lon="3.25847">
        <ele>341.6</ele>
        <time>2024-05-19T09:47:11Z</time>
      </trkpt>
      <trkpt lat="45.78598" lon="3.25857">
        <ele>341.8</ele>
        <time>2024-05-19T09:47:12Z</time>
      </trkpt>
      <trkpt lat="45.78599" lon="3.25867">
        <ele>341.8</ele>
        <time>2024-05-19T09:47:13Z</time>
      </trkpt>
      <trkpt lat="45.786" lon="3.25877">
        <ele>341.8</ele>
        <time>2024-05-19T09:47:14Z</time>
      </trkpt>
      <trkpt lat="45.78601" lon="3.25888">
        <ele>341.8</ele>
        <time>2024-05-19T09:47:15Z</time>
      </trkpt>
      <trkpt lat="45.78602" lon="3.25898">
        <ele>341.8</ele>
        <time>2024-05-19T09:47:16Z</time>
      </trkpt>
      <trkpt lat="45.78603" lon="3.25909">
        <ele>341.8</ele>
        <time>2024-05-19T09:47:17Z</time>
      </trkpt>
      <trkpt lat="45.78604" lon="3.25919">
        <ele>341.6</ele>
        <time>2024-05-19T09:47:18Z</time>
      </trkpt>
      <trkpt lat="45.78604" lon="3.25929">
        <ele>341.6</ele>
        <time>2024-05-19T09:47:19Z</time>
      </trkpt>
      <trkpt lat="45.78605" lon="3.2594">
        <ele>341.6</ele>
        <time>2024-05-19T09:47:20Z</time>
      </trkpt>
      <trkpt lat="45.78606" lon="3.2595">
        <ele>341.6</ele>
        <time>2024-05-19T09:47:21Z</time>
      </trkpt>
      <trkpt lat="45.78607" lon="3.2596">
        <ele>341.6</ele>
        <time>2024-05-19T09:47:22Z</time>
      </trkpt>
      <trkpt lat="45.78609" lon="3.25979">
        <ele>341.6</ele>
        <time>2024-05-19T09:47:23Z</time>
      </trkpt>
      <trkpt lat="45.78609" lon="3.25979">
        <ele>341.6</ele>
        <time>2024-05-19T09:47:24Z</time>
      </trkpt>
      <trkpt lat="45.78609" lon="3.25989">
        <ele>341.6</ele>
        <time>2024-05-19T09:47:25Z</time>
      </trkpt>
      <trkpt lat="45.7861" lon="3.26">
        <ele>341.4</ele>
        <time>2024-05-19T09:47:26Z</time>
      </trkpt>
      <trkpt lat="45.78611" lon="3.2601">
        <ele>341.4</ele>
        <time>2024-05-19T09:47:27Z</time>
      </trkpt>
      <trkpt lat="45.78612" lon="3.26021">
        <ele>341.4</ele>
        <time>2024-05-19T09:47:28Z</time>
      </trkpt>
      <trkpt lat="45.78613" lon="3.26032">
        <ele>341.4</ele>
        <time>2024-05-19T09:47:29Z</time>
      </trkpt>
      <trkpt lat="45.78614" lon="3.26042">
        <ele>341.4</ele>
        <time>2024-05-19T09:47:30Z</time>
      </trkpt>
      <trkpt lat="45.78615" lon="3.26053">
        <ele>341.2</ele>
        <time>2024-05-19T09:47:31Z</time>
      </trkpt>
      <trkpt lat="45.78616" lon="3.26064">
        <ele>341.2</ele>
        <time>2024-05-19T09:47:32Z</time>
      </trkpt>
      <trkpt lat="45.78617" lon="3.26075">
        <ele>341.2</ele>
        <time>2024-05-19T09:47:33Z</time>
      </trkpt>
      <trkpt lat="45.78617" lon="3.26086">
        <ele>341.2</ele>
        <time>2024-05-19T09:47:34Z</time>
      </trkpt>
      <trkpt lat="45.78618" lon="3.26097">
        <ele>341</ele>
        <time>2024-05-19T09:47:35Z</time>
      </trkpt>
      <trkpt lat="45.78619" lon="3.26107">
        <ele>341</ele>
        <time>2024-05-19T09:47:36Z</time>
      </trkpt>
      <trkpt lat="45.7862" lon="3.26119">
        <ele>340.8</ele>
        <time>2024-05-19T09:47:37Z</time>
      </trkpt>
      <trkpt lat="45.78621" lon="3.26129">
        <ele>340.8</ele>
        <time>2024-05-19T09:47:38Z</time>
      </trkpt>
      <trkpt lat="45.78622" lon="3.2614">
        <ele>340.8</ele>
        <time>2024-05-19T09:47:39Z</time>
      </trkpt>
      <trkpt lat="45.78623" lon="3.2615">
        <ele>340.6</ele>
        <time>2024-05-19T09:47:40Z</time>
      </trkpt>
      <trkpt lat="45.78624" lon="3.26161">
        <ele>340.6</ele>
        <time>2024-05-19T09:47:41Z</time>
      </trkpt>
      <trkpt lat="45.78626" lon="3.26171">
        <ele>340.4</ele>
        <time>2024-05-19T09:47:42Z</time>
      </trkpt>
      <trkpt lat="45.78627" lon="3.26182">
        <ele>340.4</ele>
        <time>2024-05-19T09:47:43Z</time>
      </trkpt>
      <trkpt lat="45.78629" lon="3.26192">
        <ele>340.2</ele>
        <time>2024-05-19T09:47:44Z</time>
      </trkpt>
      <trkpt lat="45.78631" lon="3.26203">
        <ele>340.2</ele>
        <time>2024-05-19T09:47:45Z</time>
      </trkpt>
      <trkpt lat="45.78632" lon="3.26213">
        <ele>340.2</ele>
        <time>2024-05-19T09:47:46Z</time>
      </trkpt>
      <trkpt lat="45.78634" lon="3.26224">
        <ele>340</ele>
        <time>2024-05-19T09:47:47Z</time>
      </trkpt>
      <trkpt lat="45.78635" lon="3.26235">
        <ele>339.8</ele>
        <time>2024-05-19T09:47:48Z</time>
      </trkpt>
      <trkpt lat="45.78638" lon="3.26245">
        <ele>339.6</ele>
        <time>2024-05-19T09:47:49Z</time>
      </trkpt>
      <trkpt lat="45.78641" lon="3.26255">
        <ele>339.6</ele>
        <time>2024-05-19T09:47:50Z</time>
      </trkpt>
      <trkpt lat="45.78645" lon="3.26266">
        <ele>339.4</ele>
        <time>2024-05-19T09:47:51Z</time>
      </trkpt>
      <trkpt lat="45.78648" lon="3.26277">
        <ele>339.4</ele>
        <time>2024-05-19T09:47:52Z</time>
      </trkpt>
      <trkpt lat="45.78651" lon="3.26288">
        <ele>339.2</ele>
        <time>2024-05-19T09:47:53Z</time>
      </trkpt>
      <trkpt lat="45.78655" lon="3.26298">
        <ele>339</ele>
        <time>2024-05-19T09:47:54Z</time>
      </trkpt>
      <trkpt lat="45.7866" lon="3.26308">
        <ele>339</ele>
        <time>2024-05-19T09:47:55Z</time>
      </trkpt>
      <trkpt lat="45.78665" lon="3.26317">
        <ele>338.8</ele>
        <time>2024-05-19T09:47:56Z</time>
      </trkpt>
      <trkpt lat="45.7867" lon="3.26327">
        <ele>338.8</ele>
        <time>2024-05-19T09:47:57Z</time>
      </trkpt>
      <trkpt lat="45.78675" lon="3.26337">
        <ele>338.6</ele>
        <time>2024-05-19T09:47:58Z</time>
      </trkpt>
      <trkpt lat="45.7868" lon="3.26347">
        <ele>338.4</ele>
        <time>2024-05-19T09:47:59Z</time>
      </trkpt>
      <trkpt lat="45.78685" lon="3.26357">
        <ele>338.2</ele>
        <time>2024-05-19T09:48:00Z</time>
      </trkpt>
      <trkpt lat="45.78689" lon="3.26367">
        <ele>338.2</ele>
        <time>2024-05-19T09:48:01Z</time>
      </trkpt>
      <trkpt lat="45.78695" lon="3.26377">
        <ele>338</ele>
        <time>2024-05-19T09:48:02Z</time>
      </trkpt>
      <trkpt lat="45.78701" lon="3.26386">
        <ele>338</ele>
        <time>2024-05-19T09:48:03Z</time>
      </trkpt>
      <trkpt lat="45.78707" lon="3.26395">
        <ele>337.8</ele>
        <time>2024-05-19T09:48:04Z</time>
      </trkpt>
      <trkpt lat="45.78713" lon="3.26403">
        <ele>337.6</ele>
        <time>2024-05-19T09:48:05Z</time>
      </trkpt>
      <trkpt lat="45.78719" lon="3.26412">
        <ele>337.6</ele>
        <time>2024-05-19T09:48:06Z</time>
      </trkpt>
      <trkpt lat="45.78726" lon="3.26421">
        <ele>337.4</ele>
        <time>2024-05-19T09:48:07Z</time>
      </trkpt>
      <trkpt lat="45.78732" lon="3.2643">
        <ele>337.4</ele>
        <time>2024-05-19T09:48:08Z</time>
      </trkpt>
      <trkpt lat="45.78739" lon="3.26439">
        <ele>337.2</ele>
        <time>2024-05-19T09:48:09Z</time>
      </trkpt>
      <trkpt lat="45.78744" lon="3.26448">
        <ele>337</ele>
        <time>2024-05-19T09:48:10Z</time>
      </trkpt>
      <trkpt lat="45.7875" lon="3.26457">
        <ele>337</ele>
        <time>2024-05-19T09:48:11Z</time>
      </trkpt>
      <trkpt lat="45.78756" lon="3.26467">
        <ele>336.8</ele>
        <time>2024-05-19T09:48:12Z</time>
      </trkpt>
      <trkpt lat="45.78761" lon="3.26476">
        <ele>336.6</ele>
        <time>2024-05-19T09:48:13Z</time>
      </trkpt>
      <trkpt lat="45.78766" lon="3.26485">
        <ele>336.6</ele>
        <time>2024-05-19T09:48:14Z</time>
      </trkpt>
      <trkpt lat="45.78771" lon="3.26494">
        <ele>336.4</ele>
        <time>2024-05-19T09:48:15Z</time>
      </trkpt>
      <trkpt lat="45.78776" lon="3.26503">
        <ele>336.4</ele>
        <time>2024-05-19T09:48:16Z</time>
      </trkpt>
      <trkpt lat="45.78781" lon="3.26512">
        <ele>336.2</ele>
        <time>2024-05-19T09:48:17Z</time>
      </trkpt>
      <trkpt lat="45.78786" lon="3.2652">
        <ele>336.2</ele>
        <time>2024-05-19T09:48:18Z</time>
      </trkpt>
      <trkpt lat="45.7879" lon="3.2653">
        <ele>336.2</ele>
        <time>2024-05-19T09:48:19Z</time>
      </trkpt>
      <trkpt lat="45.78793" lon="3.2654">
        <ele>336</ele>
        <time>2024-05-19T09:48:20Z</time>
      </trkpt>
      <trkpt lat="45.78796" lon="3.2655">
        <ele>335.8</ele>
        <time>2024-05-19T09:48:21Z</time>
      </trkpt>
      <trkpt lat="45.78799" lon="3.2656">
        <ele>335.8</ele>
        <time>2024-05-19T09:48:22Z</time>
      </trkpt>
      <trkpt lat="45.78802" lon="3.2657">
        <ele>335.8</ele>
        <time>2024-05-19T09:48:23Z</time>
      </trkpt>
      <trkpt lat="45.78805" lon="3.26579">
        <ele>335.6</ele>
        <time>2024-05-19T09:48:24Z</time>
      </trkpt>
      <trkpt lat="45.78808" lon="3.26588">
        <ele>335.6</ele>
        <time>2024-05-19T09:48:25Z</time>
      </trkpt>
      <trkpt lat="45.78808" lon="3.26598">
        <ele>335.4</ele>
        <time>2024-05-19T09:48:26Z</time>
      </trkpt>
      <trkpt lat="45.78808" lon="3.26608">
        <ele>335.4</ele>
        <time>2024-05-19T09:48:27Z</time>
      </trkpt>
      <trkpt lat="45.78809" lon="3.26619">
        <ele>335.4</ele>
        <time>2024-05-19T09:48:28Z</time>
      </trkpt>
      <trkpt lat="45.78811" lon="3.26629">
        <ele>335.4</ele>
        <time>2024-05-19T09:48:29Z</time>
      </trkpt>
      <trkpt lat="45.78812" lon="3.26639">
        <ele>335.2</ele>
        <time>2024-05-19T09:48:30Z</time>
      </trkpt>
      <trkpt lat="45.78813" lon="3.26648">
        <ele>335.2</ele>
        <time>2024-05-19T09:48:31Z</time>
      </trkpt>
      <trkpt lat="45.78815" lon="3.26659">
        <ele>335.2</ele>
        <time>2024-05-19T09:48:32Z</time>
      </trkpt>
      <trkpt lat="45.78816" lon="3.26669">
        <ele>335.2</ele>
        <time>2024-05-19T09:48:33Z</time>
      </trkpt>
      <trkpt lat="45.78817" lon="3.26679">
        <ele>335.2</ele>
        <time>2024-05-19T09:48:34Z</time>
      </trkpt>
      <trkpt lat="45.78818" lon="3.2669">
        <ele>335</ele>
        <time>2024-05-19T09:48:35Z</time>
      </trkpt>
      <trkpt lat="45.78817" lon="3.267">
        <ele>335</ele>
        <time>2024-05-19T09:48:36Z</time>
      </trkpt>
      <trkpt lat="45.78816" lon="3.26711">
        <ele>335</ele>
        <time>2024-05-19T09:48:37Z</time>
      </trkpt>
      <trkpt lat="45.78816" lon="3.26721">
        <ele>334.8</ele>
        <time>2024-05-19T09:48:38Z</time>
      </trkpt>
      <trkpt lat="45.78815" lon="3.26731">
        <ele>334.8</ele>
        <time>2024-05-19T09:48:39Z</time>
      </trkpt>
      <trkpt lat="45.78814" lon="3.26741">
        <ele>334.8</ele>
        <time>2024-05-19T09:48:40Z</time>
      </trkpt>
      <trkpt lat="45.78812" lon="3.26751">
        <ele>334.8</ele>
        <time>2024-05-19T09:48:41Z</time>
      </trkpt>
      <trkpt lat="45.7881" lon="3.2676">
        <ele>334.6</ele>
        <time>2024-05-19T09:48:42Z</time>
      </trkpt>
      <trkpt lat="45.78808" lon="3.2677">
        <ele>334.6</ele>
        <time>2024-05-19T09:48:43Z</time>
      </trkpt>
      <trkpt lat="45.78806" lon="3.26779">
        <ele>334.6</ele>
        <time>2024-05-19T09:48:44Z</time>
      </trkpt>
      <trkpt lat="45.78804" lon="3.26788">
        <ele>334.6</ele>
        <time>2024-05-19T09:48:45Z</time>
      </trkpt>
      <trkpt lat="45.78802" lon="3.26797">
        <ele>334.4</ele>
        <time>2024-05-19T09:48:46Z</time>
      </trkpt>
      <trkpt lat="45.788" lon="3.26806">
        <ele>334.4</ele>
        <time>2024-05-19T09:48:47Z</time>
      </trkpt>
      <trkpt lat="45.78799" lon="3.26814">
        <ele>334.4</ele>
        <time>2024-05-19T09:48:48Z</time>
      </trkpt>
      <trkpt lat="45.78797" lon="3.26823">
        <ele>334.4</ele>
        <time>2024-05-19T09:48:49Z</time>
      </trkpt>
      <trkpt lat="45.78795" lon="3.26831">
        <ele>334.2</ele>
        <time>2024-05-19T09:48:50Z</time>
      </trkpt>
      <trkpt lat="45.78793" lon="3.26839">
        <ele>334.2</ele>
        <time>2024-05-19T09:48:51Z</time>
      </trkpt>
      <trkpt lat="45.78792" lon="3.26847">
        <ele>334.2</ele>
        <time>2024-05-19T09:48:52Z</time>
      </trkpt>
      <trkpt lat="45.7879" lon="3.26854">
        <ele>334.2</ele>
        <time>2024-05-19T09:48:53Z</time>
      </trkpt>
      <trkpt lat="45.78789" lon="3.26862">
        <ele>334.2</ele>
        <time>2024-05-19T09:48:54Z</time>
      </trkpt>
      <trkpt lat="45.78787" lon="3.26869">
        <ele>334.2</ele>
        <time>2024-05-19T09:48:55Z</time>
      </trkpt>
      <trkpt lat="45.78785" lon="3.26876">
        <ele>334.2</ele>
        <time>2024-05-19T09:48:56Z</time>
      </trkpt>
      <trkpt lat="45.78784" lon="3.26884">
        <ele>334.2</ele>
        <time>2024-05-19T09:48:57Z</time>
      </trkpt>
      <trkpt lat="45.78782" lon="3.26891">
        <ele>334.2</ele>
        <time>2024-05-19T09:48:58Z</time>
      </trkpt>
      <trkpt lat="45.78781" lon="3.26898">
        <ele>334.2</ele>
        <time>2024-05-19T09:48:59Z</time>
      </trkpt>
      <trkpt lat="45.78779" lon="3.26905">
        <ele>334.2</ele>
        <time>2024-05-19T09:49:00Z</time>
      </trkpt>
      <trkpt lat="45.78778" lon="3.26913">
        <ele>334.2</ele>
        <time>2024-05-19T09:49:01Z</time>
      </trkpt>
      <trkpt lat="45.78776" lon="3.2692">
        <ele>334.2</ele>
        <time>2024-05-19T09:49:02Z</time>
      </trkpt>
      <trkpt lat="45.78774" lon="3.26927">
        <ele>334.2</ele>
        <time>2024-05-19T09:49:03Z</time>
      </trkpt>
      <trkpt lat="45.78772" lon="3.26933">
        <ele>334.2</ele>
        <time>2024-05-19T09:49:04Z</time>
      </trkpt>
      <trkpt lat="45.7877" lon="3.26941">
        <ele>334.4</ele>
        <time>2024-05-19T09:49:05Z</time>
      </trkpt>
      <trkpt lat="45.78768" lon="3.26948">
        <ele>334.4</ele>
        <time>2024-05-19T09:49:06Z</time>
      </trkpt>
      <trkpt lat="45.78766" lon="3.26955">
        <ele>334</ele>
        <time>2024-05-19T09:49:07Z</time>
      </trkpt>
      <trkpt lat="45.78764" lon="3.26962">
        <ele>334.4</ele>
        <time>2024-05-19T09:49:08Z</time>
      </trkpt>
      <trkpt lat="45.78762" lon="3.26969">
        <ele>334.6</ele>
        <time>2024-05-19T09:49:09Z</time>
      </trkpt>
      <trkpt lat="45.78761" lon="3.26976">
        <ele>334.4</ele>
        <time>2024-05-19T09:49:10Z</time>
      </trkpt>
      <trkpt lat="45.78759" lon="3.26983">
        <ele>334.6</ele>
        <time>2024-05-19T09:49:11Z</time>
      </trkpt>
      <trkpt lat="45.78757" lon="3.2699">
        <ele>334.6</ele>
        <time>2024-05-19T09:49:12Z</time>
      </trkpt>
      <trkpt lat="45.78755" lon="3.26997">
        <ele>334.4</ele>
        <time>2024-05-19T09:49:13Z</time>
      </trkpt>
      <trkpt lat="45.78753" lon="3.27004">
        <ele>334.6</ele>
        <time>2024-05-19T09:49:14Z</time>
      </trkpt>
      <trkpt lat="45.78751" lon="3.27011">
        <ele>334.6</ele>
        <time>2024-05-19T09:49:15Z</time>
      </trkpt>
      <trkpt lat="45.78749" lon="3.27018">
        <ele>334.6</ele>
        <time>2024-05-19T09:49:16Z</time>
      </trkpt>
      <trkpt lat="45.78747" lon="3.27025">
        <ele>334.6</ele>
        <time>2024-05-19T09:49:17Z</time>
      </trkpt>
      <trkpt lat="45.78745" lon="3.27033">
        <ele>334.6</ele>
        <time>2024-05-19T09:49:18Z</time>
      </trkpt>
      <trkpt lat="45.78743" lon="3.2704">
        <ele>334.6</ele>
        <time>2024-05-19T09:49:19Z</time>
      </trkpt>
      <trkpt lat="45.78741" lon="3.27047">
        <ele>334.6</ele>
        <time>2024-05-19T09:49:20Z</time>
      </trkpt>
      <trkpt lat="45.78739" lon="3.27054">
        <ele>334.6</ele>
        <time>2024-05-19T09:49:21Z</time>
      </trkpt>
      <trkpt lat="45.78737" lon="3.27062">
        <ele>334.8</ele>
        <time>2024-05-19T09:49:22Z</time>
      </trkpt>
      <trkpt lat="45.78735" lon="3.27069">
        <ele>334.8</ele>
        <time>2024-05-19T09:49:23Z</time>
      </trkpt>
      <trkpt lat="45.78732" lon="3.27077">
        <ele>334.8</ele>
        <time>2024-05-19T09:49:24Z</time>
      </trkpt>
      <trkpt lat="45.7873" lon="3.27085">
        <ele>334.8</ele>
        <time>2024-05-19T09:49:25Z</time>
      </trkpt>
      <trkpt lat="45.78728" lon="3.27093">
        <ele>334.8</ele>
        <time>2024-05-19T09:49:26Z</time>
      </trkpt>
      <trkpt lat="45.78726" lon="3.27101">
        <ele>334.8</ele>
        <time>2024-05-19T09:49:27Z</time>
      </trkpt>
      <trkpt lat="45.78724" lon="3.27109">
        <ele>334.8</ele>
        <time>2024-05-19T09:49:28Z</time>
      </trkpt>
      <trkpt lat="45.78721" lon="3.27117">
        <ele>335</ele>
        <time>2024-05-19T09:49:29Z</time>
      </trkpt>
      <trkpt lat="45.78719" lon="3.27125">
        <ele>334.8</ele>
        <time>2024-05-19T09:49:30Z</time>
      </trkpt>
      <trkpt lat="45.78717" lon="3.27133">
        <ele>335</ele>
        <time>2024-05-19T09:49:31Z</time>
      </trkpt>
      <trkpt lat="45.78715" lon="3.27141">
        <ele>335</ele>
        <time>2024-05-19T09:49:32Z</time>
      </trkpt>
      <trkpt lat="45.78713" lon="3.27149">
        <ele>335</ele>
        <time>2024-05-19T09:49:33Z</time>
      </trkpt>
      <trkpt lat="45.7871" lon="3.27157">
        <ele>335</ele>
        <time>2024-05-19T09:49:34Z</time>
      </trkpt>
      <trkpt lat="45.78708" lon="3.27166">
        <ele>335.2</ele>
        <time>2024-05-19T09:49:35Z</time>
      </trkpt>
      <trkpt lat="45.78706" lon="3.27174">
        <ele>335.2</ele>
        <time>2024-05-19T09:49:36Z</time>
      </trkpt>
      <trkpt lat="45.78703" lon="3.27182">
        <ele>335.2</ele>
        <time>2024-05-19T09:49:37Z</time>
      </trkpt>
      <trkpt lat="45.78701" lon="3.27191">
        <ele>335.2</ele>
        <time>2024-05-19T09:49:38Z</time>
      </trkpt>
      <trkpt lat="45.78699" lon="3.27199">
        <ele>335.2</ele>
        <time>2024-05-19T09:49:39Z</time>
      </trkpt>
      <trkpt lat="45.78696" lon="3.27207">
        <ele>335.2</ele>
        <time>2024-05-19T09:49:40Z</time>
      </trkpt>
      <trkpt lat="45.78694" lon="3.27215">
        <ele>335.2</ele>
        <time>2024-05-19T09:49:41Z</time>
      </trkpt>
      <trkpt lat="45.78692" lon="3.27223">
        <ele>335.4</ele>
        <time>2024-05-19T09:49:42Z</time>
      </trkpt>
      <trkpt lat="45.7869" lon="3.27231">
        <ele>335.4</ele>
        <time>2024-05-19T09:49:43Z</time>
      </trkpt>
      <trkpt lat="45.78688" lon="3.2724">
        <ele>335.4</ele>
        <time>2024-05-19T09:49:44Z</time>
      </trkpt>
      <trkpt lat="45.78686" lon="3.27249">
        <ele>335.4</ele>
        <time>2024-05-19T09:49:45Z</time>
      </trkpt>
      <trkpt lat="45.78685" lon="3.27257">
        <ele>335.6</ele>
        <time>2024-05-19T09:49:46Z</time>
      </trkpt>
      <trkpt lat="45.78683" lon="3.27266">
        <ele>335.6</ele>
        <time>2024-05-19T09:49:47Z</time>
      </trkpt>
      <trkpt lat="45.78681" lon="3.27274">
        <ele>335.6</ele>
        <time>2024-05-19T09:49:48Z</time>
      </trkpt>
      <trkpt lat="45.7868" lon="3.27283">
        <ele>335.8</ele>
        <time>2024-05-19T09:49:49Z</time>
      </trkpt>
      <trkpt lat="45.78678" lon="3.27292">
        <ele>335.8</ele>
        <time>2024-05-19T09:49:50Z</time>
      </trkpt>
      <trkpt lat="45.78676" lon="3.273">
        <ele>335.8</ele>
        <time>2024-05-19T09:49:51Z</time>
      </trkpt>
      <trkpt lat="45.78675" lon="3.27309">
        <ele>335.8</ele>
        <time>2024-05-19T09:49:52Z</time>
      </trkpt>
      <trkpt lat="45.78673" lon="3.27318">
        <ele>335.8</ele>
        <time>2024-05-19T09:49:53Z</time>
      </trkpt>
      <trkpt lat="45.78671" lon="3.27327">
        <ele>336</ele>
        <time>2024-05-19T09:49:54Z</time>
      </trkpt>
      <trkpt lat="45.78669" lon="3.27336">
        <ele>336</ele>
        <time>2024-05-19T09:49:55Z</time>
      </trkpt>
      <trkpt lat="45.78668" lon="3.27346">
        <ele>336</ele>
        <time>2024-05-19T09:49:56Z</time>
      </trkpt>
      <trkpt lat="45.78666" lon="3.27355">
        <ele>336</ele>
        <time>2024-05-19T09:49:57Z</time>
      </trkpt>
      <trkpt lat="45.78665" lon="3.27365">
        <ele>336</ele>
        <time>2024-05-19T09:49:58Z</time>
      </trkpt>
      <trkpt lat="45.78665" lon="3.27376">
        <ele>336</ele>
        <time>2024-05-19T09:49:59Z</time>
      </trkpt>
      <trkpt lat="45.78664" lon="3.27386">
        <ele>335.8</ele>
        <time>2024-05-19T09:50:00Z</time>
      </trkpt>
      <trkpt lat="45.78664" lon="3.27397">
        <ele>335.8</ele>
        <time>2024-05-19T09:50:01Z</time>
      </trkpt>
      <trkpt lat="45.78663" lon="3.27408">
        <ele>335.8</ele>
        <time>2024-05-19T09:50:02Z</time>
      </trkpt>
      <trkpt lat="45.78662" lon="3.27419">
        <ele>335.8</ele>
        <time>2024-05-19T09:50:03Z</time>
      </trkpt>
      <trkpt lat="45.78662" lon="3.27431">
        <ele>335.8</ele>
        <time>2024-05-19T09:50:04Z</time>
      </trkpt>
      <trkpt lat="45.78661" lon="3.27442">
        <ele>335.8</ele>
        <time>2024-05-19T09:50:05Z</time>
      </trkpt>
      <trkpt lat="45.7866" lon="3.27453">
        <ele>336.2</ele>
        <time>2024-05-19T09:50:06Z</time>
      </trkpt>
      <trkpt lat="45.7866" lon="3.27464">
        <ele>335.8</ele>
        <time>2024-05-19T09:50:07Z</time>
      </trkpt>
      <trkpt lat="45.78659" lon="3.27476">
        <ele>335.4</ele>
        <time>2024-05-19T09:50:08Z</time>
      </trkpt>
      <trkpt lat="45.78659" lon="3.27487">
        <ele>335.2</ele>
        <time>2024-05-19T09:50:09Z</time>
      </trkpt>
      <trkpt lat="45.78658" lon="3.27499">
        <ele>335.4</ele>
        <time>2024-05-19T09:50:10Z</time>
      </trkpt>
      <trkpt lat="45.78657" lon="3.2751">
        <ele>335.4</ele>
        <time>2024-05-19T09:50:11Z</time>
      </trkpt>
      <trkpt lat="45.78657" lon="3.27522">
        <ele>335.4</ele>
        <time>2024-05-19T09:50:12Z</time>
      </trkpt>
      <trkpt lat="45.78656" lon="3.27533">
        <ele>335.2</ele>
        <time>2024-05-19T09:50:13Z</time>
      </trkpt>
      <trkpt lat="45.78656" lon="3.27544">
        <ele>335.2</ele>
        <time>2024-05-19T09:50:14Z</time>
      </trkpt>
      <trkpt lat="45.78655" lon="3.27556">
        <ele>335</ele>
        <time>2024-05-19T09:50:15Z</time>
      </trkpt>
      <trkpt lat="45.78655" lon="3.27568">
        <ele>335</ele>
        <time>2024-05-19T09:50:16Z</time>
      </trkpt>
      <trkpt lat="45.78654" lon="3.27579">
        <ele>335</ele>
        <time>2024-05-19T09:50:17Z</time>
      </trkpt>
      <trkpt lat="45.78654" lon="3.2759">
        <ele>334.8</ele>
        <time>2024-05-19T09:50:18Z</time>
      </trkpt>
      <trkpt lat="45.78653" lon="3.27602">
        <ele>334.8</ele>
        <time>2024-05-19T09:50:19Z</time>
      </trkpt>
      <trkpt lat="45.78652" lon="3.27614">
        <ele>334.8</ele>
        <time>2024-05-19T09:50:20Z</time>
      </trkpt>
      <trkpt lat="45.78652" lon="3.27625">
        <ele>334.6</ele>
        <time>2024-05-19T09:50:21Z</time>
      </trkpt>
      <trkpt lat="45.78651" lon="3.27637">
        <ele>334.6</ele>
        <time>2024-05-19T09:50:22Z</time>
      </trkpt>
      <trkpt lat="45.78651" lon="3.27649">
        <ele>334.6</ele>
        <time>2024-05-19T09:50:23Z</time>
      </trkpt>
      <trkpt lat="45.7865" lon="3.2766">
        <ele>334.4</ele>
        <time>2024-05-19T09:50:24Z</time>
      </trkpt>
      <trkpt lat="45.7865" lon="3.27671">
        <ele>334.4</ele>
        <time>2024-05-19T09:50:25Z</time>
      </trkpt>
      <trkpt lat="45.78649" lon="3.27683">
        <ele>334.4</ele>
        <time>2024-05-19T09:50:26Z</time>
      </trkpt>
      <trkpt lat="45.78649" lon="3.27695">
        <ele>334.4</ele>
        <time>2024-05-19T09:50:27Z</time>
      </trkpt>
      <trkpt lat="45.78648" lon="3.27706">
        <ele>334.2</ele>
        <time>2024-05-19T09:50:28Z</time>
      </trkpt>
      <trkpt lat="45.78648" lon="3.27718">
        <ele>334.2</ele>
        <time>2024-05-19T09:50:29Z</time>
      </trkpt>
      <trkpt lat="45.78647" lon="3.2773">
        <ele>334.2</ele>
        <time>2024-05-19T09:50:30Z</time>
      </trkpt>
      <trkpt lat="45.78646" lon="3.27741">
        <ele>334</ele>
        <time>2024-05-19T09:50:31Z</time>
      </trkpt>
      <trkpt lat="45.78646" lon="3.27753">
        <ele>334</ele>
        <time>2024-05-19T09:50:32Z</time>
      </trkpt>
      <trkpt lat="45.78645" lon="3.27764">
        <ele>334</ele>
        <time>2024-05-19T09:50:33Z</time>
      </trkpt>
      <trkpt lat="45.78645" lon="3.27776">
        <ele>334</ele>
        <time>2024-05-19T09:50:34Z</time>
      </trkpt>
      <trkpt lat="45.78644" lon="3.27788">
        <ele>333.8</ele>
        <time>2024-05-19T09:50:35Z</time>
      </trkpt>
      <trkpt lat="45.78644" lon="3.27799">
        <ele>333.8</ele>
        <time>2024-05-19T09:50:36Z</time>
      </trkpt>
      <trkpt lat="45.78643" lon="3.27811">
        <ele>333.8</ele>
        <time>2024-05-19T09:50:37Z</time>
      </trkpt>
      <trkpt lat="45.78642" lon="3.27822">
        <ele>333.8</ele>
        <time>2024-05-19T09:50:38Z</time>
      </trkpt>
      <trkpt lat="45.78642" lon="3.27834">
        <ele>333.8</ele>
        <time>2024-05-19T09:50:39Z</time>
      </trkpt>
      <trkpt lat="45.78641" lon="3.27845">
        <ele>333.6</ele>
        <time>2024-05-19T09:50:40Z</time>
      </trkpt>
      <trkpt lat="45.78641" lon="3.27856">
        <ele>333.6</ele>
        <time>2024-05-19T09:50:41Z</time>
      </trkpt>
      <trkpt lat="45.7864" lon="3.27868">
        <ele>333.6</ele>
        <time>2024-05-19T09:50:42Z</time>
      </trkpt>
      <trkpt lat="45.7864" lon="3.27879">
        <ele>333.6</ele>
        <time>2024-05-19T09:50:43Z</time>
      </trkpt>
      <trkpt lat="45.78639" lon="3.2789">
        <ele>333.6</ele>
        <time>2024-05-19T09:50:44Z</time>
      </trkpt>
      <trkpt lat="45.78639" lon="3.27901">
        <ele>333.6</ele>
        <time>2024-05-19T09:50:45Z</time>
      </trkpt>
      <trkpt lat="45.78638" lon="3.27912">
        <ele>333.6</ele>
        <time>2024-05-19T09:50:46Z</time>
      </trkpt>
      <trkpt lat="45.78638" lon="3.27922">
        <ele>333.6</ele>
        <time>2024-05-19T09:50:47Z</time>
      </trkpt>
      <trkpt lat="45.78637" lon="3.27933">
        <ele>333.4</ele>
        <time>2024-05-19T09:50:48Z</time>
      </trkpt>
      <trkpt lat="45.78637" lon="3.27943">
        <ele>333.4</ele>
        <time>2024-05-19T09:50:49Z</time>
      </trkpt>
      <trkpt lat="45.78636" lon="3.27954">
        <ele>333.4</ele>
        <time>2024-05-19T09:50:50Z</time>
      </trkpt>
      <trkpt lat="45.78636" lon="3.27965">
        <ele>333.4</ele>
        <time>2024-05-19T09:50:51Z</time>
      </trkpt>
      <trkpt lat="45.78635" lon="3.27976">
        <ele>333.4</ele>
        <time>2024-05-19T09:50:52Z</time>
      </trkpt>
      <trkpt lat="45.78635" lon="3.27987">
        <ele>333.4</ele>
        <time>2024-05-19T09:50:53Z</time>
      </trkpt>
      <trkpt lat="45.78634" lon="3.27997">
        <ele>333.4</ele>
        <time>2024-05-19T09:50:54Z</time>
      </trkpt>
      <trkpt lat="45.78634" lon="3.28008">
        <ele>333.2</ele>
        <time>2024-05-19T09:50:55Z</time>
      </trkpt>
      <trkpt lat="45.78633" lon="3.28018">
        <ele>333.2</ele>
        <time>2024-05-19T09:50:56Z</time>
      </trkpt>
      <trkpt lat="45.78633" lon="3.28029">
        <ele>333.2</ele>
        <time>2024-05-19T09:50:57Z</time>
      </trkpt>
      <trkpt lat="45.78633" lon="3.28039">
        <ele>333.2</ele>
        <time>2024-05-19T09:50:58Z</time>
      </trkpt>
      <trkpt lat="45.78632" lon="3.2805">
        <ele>333.2</ele>
        <time>2024-05-19T09:50:59Z</time>
      </trkpt>
      <trkpt lat="45.78632" lon="3.2806">
        <ele>333.2</ele>
        <time>2024-05-19T09:51:00Z</time>
      </trkpt>
      <trkpt lat="45.78631" lon="3.28071">
        <ele>333.2</ele>
        <time>2024-05-19T09:51:01Z</time>
      </trkpt>
      <trkpt lat="45.7863" lon="3.28081">
        <ele>333.2</ele>
        <time>2024-05-19T09:51:02Z</time>
      </trkpt>
      <trkpt lat="45.7863" lon="3.28091">
        <ele>333.2</ele>
        <time>2024-05-19T09:51:03Z</time>
      </trkpt>
      <trkpt lat="45.78629" lon="3.28102">
        <ele>333.2</ele>
        <time>2024-05-19T09:51:04Z</time>
      </trkpt>
      <trkpt lat="45.78628" lon="3.28112">
        <ele>333.2</ele>
        <time>2024-05-19T09:51:05Z</time>
      </trkpt>
      <trkpt lat="45.78628" lon="3.28123">
        <ele>333.2</ele>
        <time>2024-05-19T09:51:06Z</time>
      </trkpt>
      <trkpt lat="45.78627" lon="3.28133">
        <ele>333.2</ele>
        <time>2024-05-19T09:51:07Z</time>
      </trkpt>
      <trkpt lat="45.78625" lon="3.28154">
        <ele>333.4</ele>
        <time>2024-05-19T09:51:08Z</time>
      </trkpt>
      <trkpt lat="45.78625" lon="3.28164">
        <ele>333.4</ele>
        <time>2024-05-19T09:51:09Z</time>
      </trkpt>
      <trkpt lat="45.78624" lon="3.28174">
        <ele>333</ele>
        <time>2024-05-19T09:51:10Z</time>
      </trkpt>
      <trkpt lat="45.78624" lon="3.28174">
        <ele>333.2</ele>
        <time>2024-05-19T09:51:11Z</time>
      </trkpt>
      <trkpt lat="45.78623" lon="3.28184">
        <ele>333.2</ele>
        <time>2024-05-19T09:51:12Z</time>
      </trkpt>
      <trkpt lat="45.78623" lon="3.28194">
        <ele>333.2</ele>
        <time>2024-05-19T09:51:13Z</time>
      </trkpt>
      <trkpt lat="45.78622" lon="3.28205">
        <ele>333.2</ele>
        <time>2024-05-19T09:51:14Z</time>
      </trkpt>
      <trkpt lat="45.78621" lon="3.28215">
        <ele>333.2</ele>
        <time>2024-05-19T09:51:15Z</time>
      </trkpt>
      <trkpt lat="45.78621" lon="3.28225">
        <ele>333.2</ele>
        <time>2024-05-19T09:51:16Z</time>
      </trkpt>
      <trkpt lat="45.7862" lon="3.28235">
        <ele>333.2</ele>
        <time>2024-05-19T09:51:17Z</time>
      </trkpt>
      <trkpt lat="45.78619" lon="3.28245">
        <ele>333.2</ele>
        <time>2024-05-19T09:51:18Z</time>
      </trkpt>
      <trkpt lat="45.78619" lon="3.28255">
        <ele>333.2</ele>
        <time>2024-05-19T09:51:19Z</time>
      </trkpt>
      <trkpt lat="45.78618" lon="3.28265">
        <ele>333.2</ele>
        <time>2024-05-19T09:51:20Z</time>
      </trkpt>
      <trkpt lat="45.78617" lon="3.28275">
        <ele>333</ele>
        <time>2024-05-19T09:51:21Z</time>
      </trkpt>
      <trkpt lat="45.78617" lon="3.28285">
        <ele>333</ele>
        <time>2024-05-19T09:51:22Z</time>
      </trkpt>
      <trkpt lat="45.78616" lon="3.28296">
        <ele>333</ele>
        <time>2024-05-19T09:51:23Z</time>
      </trkpt>
      <trkpt lat="45.78615" lon="3.28306">
        <ele>333</ele>
        <time>2024-05-19T09:51:24Z</time>
      </trkpt>
      <trkpt lat="45.78615" lon="3.28316">
        <ele>332.8</ele>
        <time>2024-05-19T09:51:25Z</time>
      </trkpt>
      <trkpt lat="45.78614" lon="3.28326">
        <ele>332.8</ele>
        <time>2024-05-19T09:51:26Z</time>
      </trkpt>
      <trkpt lat="45.78613" lon="3.28337">
        <ele>332.8</ele>
        <time>2024-05-19T09:51:27Z</time>
      </trkpt>
      <trkpt lat="45.78613" lon="3.28347">
        <ele>332.6</ele>
        <time>2024-05-19T09:51:28Z</time>
      </trkpt>
      <trkpt lat="45.78612" lon="3.28358">
        <ele>332.6</ele>
        <time>2024-05-19T09:51:29Z</time>
      </trkpt>
      <trkpt lat="45.78612" lon="3.28368">
        <ele>332.6</ele>
        <time>2024-05-19T09:51:30Z</time>
      </trkpt>
      <trkpt lat="45.78611" lon="3.28378">
        <ele>332.4</ele>
        <time>2024-05-19T09:51:31Z</time>
      </trkpt>
      <trkpt lat="45.7861" lon="3.28388">
        <ele>332.4</ele>
        <time>2024-05-19T09:51:32Z</time>
      </trkpt>
      <trkpt lat="45.7861" lon="3.28399">
        <ele>332.6</ele>
        <time>2024-05-19T09:51:33Z</time>
      </trkpt>
      <trkpt lat="45.78609" lon="3.28409">
        <ele>332.6</ele>
        <time>2024-05-19T09:51:34Z</time>
      </trkpt>
      <trkpt lat="45.78609" lon="3.28419">
        <ele>332.6</ele>
        <time>2024-05-19T09:51:35Z</time>
      </trkpt>
      <trkpt lat="45.78608" lon="3.28429">
        <ele>332.6</ele>
        <time>2024-05-19T09:51:36Z</time>
      </trkpt>
      <trkpt lat="45.78607" lon="3.28438">
        <ele>332.8</ele>
        <time>2024-05-19T09:51:37Z</time>
      </trkpt>
      <trkpt lat="45.78607" lon="3.28448">
        <ele>332.8</ele>
        <time>2024-05-19T09:51:38Z</time>
      </trkpt>
      <trkpt lat="45.78606" lon="3.28457">
        <ele>332.6</ele>
        <time>2024-05-19T09:51:39Z</time>
      </trkpt>
      <trkpt lat="45.78606" lon="3.28465">
        <ele>332.8</ele>
        <time>2024-05-19T09:51:40Z</time>
      </trkpt>
      <trkpt lat="45.78605" lon="3.28473">
        <ele>332.8</ele>
        <time>2024-05-19T09:51:41Z</time>
      </trkpt>
      <trkpt lat="45.78605" lon="3.28482">
        <ele>332.8</ele>
        <time>2024-05-19T09:51:42Z</time>
      </trkpt>
      <trkpt lat="45.78604" lon="3.28491">
        <ele>332.8</ele>
        <time>2024-05-19T09:51:43Z</time>
      </trkpt>
      <trkpt lat="45.78604" lon="3.28501">
        <ele>332.4</ele>
        <time>2024-05-19T09:51:44Z</time>
      </trkpt>
      <trkpt lat="45.78603" lon="3.2851">
        <ele>332.4</ele>
        <time>2024-05-19T09:51:45Z</time>
      </trkpt>
      <trkpt lat="45.78603" lon="3.2852">
        <ele>332.4</ele>
        <time>2024-05-19T09:51:46Z</time>
      </trkpt>
      <trkpt lat="45.78602" lon="3.28529">
        <ele>332.4</ele>
        <time>2024-05-19T09:51:47Z</time>
      </trkpt>
      <trkpt lat="45.78602" lon="3.28539">
        <ele>332.4</ele>
        <time>2024-05-19T09:51:48Z</time>
      </trkpt>
      <trkpt lat="45.78601" lon="3.28549">
        <ele>332.6</ele>
        <time>2024-05-19T09:51:49Z</time>
      </trkpt>
      <trkpt lat="45.786" lon="3.28558">
        <ele>332.6</ele>
        <time>2024-05-19T09:51:50Z</time>
      </trkpt>
      <trkpt lat="45.786" lon="3.28568">
        <ele>332.6</ele>
        <time>2024-05-19T09:51:51Z</time>
      </trkpt>
      <trkpt lat="45.78599" lon="3.28578">
        <ele>332.8</ele>
        <time>2024-05-19T09:51:52Z</time>
      </trkpt>
      <trkpt lat="45.78599" lon="3.28588">
        <ele>332.8</ele>
        <time>2024-05-19T09:51:53Z</time>
      </trkpt>
      <trkpt lat="45.78598" lon="3.28598">
        <ele>333</ele>
        <time>2024-05-19T09:51:54Z</time>
      </trkpt>
      <trkpt lat="45.78598" lon="3.28608">
        <ele>332.8</ele>
        <time>2024-05-19T09:51:55Z</time>
      </trkpt>
      <trkpt lat="45.78597" lon="3.28618">
        <ele>332.8</ele>
        <time>2024-05-19T09:51:56Z</time>
      </trkpt>
      <trkpt lat="45.78597" lon="3.28628">
        <ele>332.8</ele>
        <time>2024-05-19T09:51:57Z</time>
      </trkpt>
      <trkpt lat="45.78596" lon="3.28638">
        <ele>332.8</ele>
        <time>2024-05-19T09:51:58Z</time>
      </trkpt>
      <trkpt lat="45.78596" lon="3.28648">
        <ele>332.8</ele>
        <time>2024-05-19T09:51:59Z</time>
      </trkpt>
      <trkpt lat="45.78595" lon="3.28658">
        <ele>332.8</ele>
        <time>2024-05-19T09:52:00Z</time>
      </trkpt>
      <trkpt lat="45.78595" lon="3.28668">
        <ele>332.8</ele>
        <time>2024-05-19T09:52:01Z</time>
      </trkpt>
      <trkpt lat="45.78594" lon="3.28678">
        <ele>332.8</ele>
        <time>2024-05-19T09:52:02Z</time>
      </trkpt>
      <trkpt lat="45.78593" lon="3.28688">
        <ele>332.8</ele>
        <time>2024-05-19T09:52:03Z</time>
      </trkpt>
      <trkpt lat="45.78593" lon="3.28697">
        <ele>332.8</ele>
        <time>2024-05-19T09:52:04Z</time>
      </trkpt>
      <trkpt lat="45.78592" lon="3.28707">
        <ele>332.8</ele>
        <time>2024-05-19T09:52:05Z</time>
      </trkpt>
      <trkpt lat="45.78591" lon="3.28717">
        <ele>333</ele>
        <time>2024-05-19T09:52:06Z</time>
      </trkpt>
      <trkpt lat="45.7859" lon="3.28727">
        <ele>333</ele>
        <time>2024-05-19T09:52:07Z</time>
      </trkpt>
      <trkpt lat="45.7859" lon="3.28737">
        <ele>333</ele>
        <time>2024-05-19T09:52:08Z</time>
      </trkpt>
      <trkpt lat="45.78589" lon="3.28747">
        <ele>333</ele>
        <time>2024-05-19T09:52:09Z</time>
      </trkpt>
      <trkpt lat="45.78589" lon="3.28757">
        <ele>333</ele>
        <time>2024-05-19T09:52:10Z</time>
      </trkpt>
      <trkpt lat="45.78588" lon="3.28767">
        <ele>333</ele>
        <time>2024-05-19T09:52:11Z</time>
      </trkpt>
      <trkpt lat="45.78588" lon="3.28776">
        <ele>332.8</ele>
        <time>2024-05-19T09:52:12Z</time>
      </trkpt>
      <trkpt lat="45.78587" lon="3.28785">
        <ele>332.8</ele>
        <time>2024-05-19T09:52:13Z</time>
      </trkpt>
      <trkpt lat="45.78587" lon="3.28794">
        <ele>332.8</ele>
        <time>2024-05-19T09:52:14Z</time>
      </trkpt>
      <trkpt lat="45.78586" lon="3.28803">
        <ele>332.8</ele>
        <time>2024-05-19T09:52:15Z</time>
      </trkpt>
      <trkpt lat="45.78586" lon="3.28812">
        <ele>332.8</ele>
        <time>2024-05-19T09:52:16Z</time>
      </trkpt>
      <trkpt lat="45.78585" lon="3.2882">
        <ele>333</ele>
        <time>2024-05-19T09:52:17Z</time>
      </trkpt>
      <trkpt lat="45.78585" lon="3.28829">
        <ele>332.8</ele>
        <time>2024-05-19T09:52:18Z</time>
      </trkpt>
      <trkpt lat="45.78585" lon="3.28837">
        <ele>333</ele>
        <time>2024-05-19T09:52:19Z</time>
      </trkpt>
      <trkpt lat="45.78584" lon="3.28845">
        <ele>333</ele>
        <time>2024-05-19T09:52:20Z</time>
      </trkpt>
      <trkpt lat="45.78584" lon="3.28853">
        <ele>332.8</ele>
        <time>2024-05-19T09:52:21Z</time>
      </trkpt>
      <trkpt lat="45.78584" lon="3.28861">
        <ele>333</ele>
        <time>2024-05-19T09:52:22Z</time>
      </trkpt>
      <trkpt lat="45.78584" lon="3.28869">
        <ele>333</ele>
        <time>2024-05-19T09:52:23Z</time>
      </trkpt>
      <trkpt lat="45.78584" lon="3.28876">
        <ele>333</ele>
        <time>2024-05-19T09:52:24Z</time>
      </trkpt>
      <trkpt lat="45.78584" lon="3.28884">
        <ele>333</ele>
        <time>2024-05-19T09:52:25Z</time>
      </trkpt>
      <trkpt lat="45.78584" lon="3.28891">
        <ele>333.2</ele>
        <time>2024-05-19T09:52:26Z</time>
      </trkpt>
      <trkpt lat="45.78584" lon="3.28897">
        <ele>333.2</ele>
        <time>2024-05-19T09:52:27Z</time>
      </trkpt>
      <trkpt lat="45.78584" lon="3.28904">
        <ele>333.2</ele>
        <time>2024-05-19T09:52:28Z</time>
      </trkpt>
      <trkpt lat="45.78584" lon="3.28911">
        <ele>333.2</ele>
        <time>2024-05-19T09:52:29Z</time>
      </trkpt>
      <trkpt lat="45.78584" lon="3.28917">
        <ele>333.2</ele>
        <time>2024-05-19T09:52:30Z</time>
      </trkpt>
      <trkpt lat="45.78584" lon="3.28924">
        <ele>333.4</ele>
        <time>2024-05-19T09:52:31Z</time>
      </trkpt>
      <trkpt lat="45.78584" lon="3.2893">
        <ele>333.4</ele>
        <time>2024-05-19T09:52:32Z</time>
      </trkpt>
      <trkpt lat="45.78584" lon="3.28937">
        <ele>333.4</ele>
        <time>2024-05-19T09:52:33Z</time>
      </trkpt>
      <trkpt lat="45.78584" lon="3.28943">
        <ele>333.6</ele>
        <time>2024-05-19T09:52:34Z</time>
      </trkpt>
      <trkpt lat="45.78584" lon="3.28949">
        <ele>333.6</ele>
        <time>2024-05-19T09:52:35Z</time>
      </trkpt>
      <trkpt lat="45.78584" lon="3.28955">
        <ele>333.6</ele>
        <time>2024-05-19T09:52:36Z</time>
      </trkpt>
      <trkpt lat="45.78584" lon="3.28961">
        <ele>333.8</ele>
        <time>2024-05-19T09:52:37Z</time>
      </trkpt>
      <trkpt lat="45.78584" lon="3.28967">
        <ele>333.8</ele>
        <time>2024-05-19T09:52:38Z</time>
      </trkpt>
      <trkpt lat="45.78584" lon="3.28973">
        <ele>333.8</ele>
        <time>2024-05-19T09:52:39Z</time>
      </trkpt>
      <trkpt lat="45.78584" lon="3.28979">
        <ele>334.2</ele>
        <time>2024-05-19T09:52:40Z</time>
      </trkpt>
      <trkpt lat="45.78584" lon="3.28984">
        <ele>334.2</ele>
        <time>2024-05-19T09:52:41Z</time>
      </trkpt>
      <trkpt lat="45.78585" lon="3.28991">
        <ele>334.4</ele>
        <time>2024-05-19T09:52:42Z</time>
      </trkpt>
      <trkpt lat="45.78586" lon="3.28997">
        <ele>334.6</ele>
        <time>2024-05-19T09:52:43Z</time>
      </trkpt>
      <trkpt lat="45.78587" lon="3.29003">
        <ele>334.6</ele>
        <time>2024-05-19T09:52:44Z</time>
      </trkpt>
      <trkpt lat="45.78588" lon="3.29008">
        <ele>334.6</ele>
        <time>2024-05-19T09:52:45Z</time>
      </trkpt>
      <trkpt lat="45.7859" lon="3.29013">
        <ele>334.8</ele>
        <time>2024-05-19T09:52:46Z</time>
      </trkpt>
      <trkpt lat="45.78592" lon="3.29018">
        <ele>334.8</ele>
        <time>2024-05-19T09:52:47Z</time>
      </trkpt>
      <trkpt lat="45.78594" lon="3.29022">
        <ele>334.8</ele>
        <time>2024-05-19T09:52:48Z</time>
      </trkpt>
      <trkpt lat="45.78596" lon="3.29027">
        <ele>335</ele>
        <time>2024-05-19T09:52:49Z</time>
      </trkpt>
      <trkpt lat="45.78598" lon="3.29032">
        <ele>335</ele>
        <time>2024-05-19T09:52:50Z</time>
      </trkpt>
      <trkpt lat="45.786" lon="3.29037">
        <ele>335.2</ele>
        <time>2024-05-19T09:52:51Z</time>
      </trkpt>
      <trkpt lat="45.78603" lon="3.29042">
        <ele>335.2</ele>
        <time>2024-05-19T09:52:52Z</time>
      </trkpt>
      <trkpt lat="45.78605" lon="3.29047">
        <ele>335.4</ele>
        <time>2024-05-19T09:52:53Z</time>
      </trkpt>
      <trkpt lat="45.78607" lon="3.29051">
        <ele>335.6</ele>
        <time>2024-05-19T09:52:54Z</time>
      </trkpt>
      <trkpt lat="45.78609" lon="3.29056">
        <ele>335.6</ele>
        <time>2024-05-19T09:52:55Z</time>
      </trkpt>
      <trkpt lat="45.78611" lon="3.29061">
        <ele>335.6</ele>
        <time>2024-05-19T09:52:56Z</time>
      </trkpt>
      <trkpt lat="45.78613" lon="3.29066">
        <ele>335.8</ele>
        <time>2024-05-19T09:52:57Z</time>
      </trkpt>
      <trkpt lat="45.78615" lon="3.2907">
        <ele>335.8</ele>
        <time>2024-05-19T09:52:58Z</time>
      </trkpt>
      <trkpt lat="45.78617" lon="3.29075">
        <ele>336</ele>
        <time>2024-05-19T09:52:59Z</time>
      </trkpt>
      <trkpt lat="45.78619" lon="3.2908">
        <ele>336</ele>
        <time>2024-05-19T09:53:00Z</time>
      </trkpt>
      <trkpt lat="45.78622" lon="3.29084">
        <ele>336.2</ele>
        <time>2024-05-19T09:53:01Z</time>
      </trkpt>
      <trkpt lat="45.78624" lon="3.29089">
        <ele>336.4</ele>
        <time>2024-05-19T09:53:02Z</time>
      </trkpt>
      <trkpt lat="45.78626" lon="3.29093">
        <ele>336.4</ele>
        <time>2024-05-19T09:53:03Z</time>
      </trkpt>
      <trkpt lat="45.78629" lon="3.29096">
        <ele>336.6</ele>
        <time>2024-05-19T09:53:04Z</time>
      </trkpt>
      <trkpt lat="45.78631" lon="3.291">
        <ele>336.8</ele>
        <time>2024-05-19T09:53:05Z</time>
      </trkpt>
      <trkpt lat="45.78634" lon="3.29104">
        <ele>336.8</ele>
        <time>2024-05-19T09:53:06Z</time>
      </trkpt>
      <trkpt lat="45.78637" lon="3.29108">
        <ele>337</ele>
        <time>2024-05-19T09:53:07Z</time>
      </trkpt>
      <trkpt lat="45.78639" lon="3.29112">
        <ele>337.2</ele>
        <time>2024-05-19T09:53:08Z</time>
      </trkpt>
      <trkpt lat="45.78642" lon="3.29116">
        <ele>337.4</ele>
        <time>2024-05-19T09:53:09Z</time>
      </trkpt>
      <trkpt lat="45.78644" lon="3.29119">
        <ele>337.4</ele>
        <time>2024-05-19T09:53:10Z</time>
      </trkpt>
      <trkpt lat="45.78647" lon="3.29123">
        <ele>337.6</ele>
        <time>2024-05-19T09:53:11Z</time>
      </trkpt>
      <trkpt lat="45.78649" lon="3.29127">
        <ele>337.6</ele>
        <time>2024-05-19T09:53:12Z</time>
      </trkpt>
      <trkpt lat="45.78651" lon="3.2913">
        <ele>337.8</ele>
        <time>2024-05-19T09:53:13Z</time>
      </trkpt>
      <trkpt lat="45.78654" lon="3.29134">
        <ele>338</ele>
        <time>2024-05-19T09:53:14Z</time>
      </trkpt>
      <trkpt lat="45.78656" lon="3.29138">
        <ele>338</ele>
        <time>2024-05-19T09:53:15Z</time>
      </trkpt>
      <trkpt lat="45.78659" lon="3.29142">
        <ele>338.2</ele>
        <time>2024-05-19T09:53:16Z</time>
      </trkpt>
      <trkpt lat="45.78662" lon="3.29146">
        <ele>338.2</ele>
        <time>2024-05-19T09:53:17Z</time>
      </trkpt>
      <trkpt lat="45.78664" lon="3.29149">
        <ele>338.4</ele>
        <time>2024-05-19T09:53:18Z</time>
      </trkpt>
      <trkpt lat="45.78666" lon="3.29153">
        <ele>338.6</ele>
        <time>2024-05-19T09:53:19Z</time>
      </trkpt>
      <trkpt lat="45.78669" lon="3.29156">
        <ele>338.8</ele>
        <time>2024-05-19T09:53:20Z</time>
      </trkpt>
      <trkpt lat="45.78671" lon="3.2916">
        <ele>338.8</ele>
        <time>2024-05-19T09:53:21Z</time>
      </trkpt>
      <trkpt lat="45.78673" lon="3.29163">
        <ele>339</ele>
        <time>2024-05-19T09:53:22Z</time>
      </trkpt>
      <trkpt lat="45.78676" lon="3.29167">
        <ele>339.2</ele>
        <time>2024-05-19T09:53:23Z</time>
      </trkpt>
      <trkpt lat="45.78678" lon="3.2917">
        <ele>339.2</ele>
        <time>2024-05-19T09:53:24Z</time>
      </trkpt>
      <trkpt lat="45.7868" lon="3.29173">
        <ele>339.4</ele>
        <time>2024-05-19T09:53:25Z</time>
      </trkpt>
      <trkpt lat="45.78683" lon="3.29177">
        <ele>339.6</ele>
        <time>2024-05-19T09:53:26Z</time>
      </trkpt>
      <trkpt lat="45.78685" lon="3.29181">
        <ele>339.6</ele>
        <time>2024-05-19T09:53:27Z</time>
      </trkpt>
      <trkpt lat="45.78691" lon="3.29188">
        <ele>339.8</ele>
        <time>2024-05-19T09:53:28Z</time>
      </trkpt>
      <trkpt lat="45.78691" lon="3.29188">
        <ele>340</ele>
        <time>2024-05-19T09:53:29Z</time>
      </trkpt>
      <trkpt lat="45.78693" lon="3.29191">
        <ele>340.2</ele>
        <time>2024-05-19T09:53:30Z</time>
      </trkpt>
      <trkpt lat="45.78698" lon="3.29197">
        <ele>340.4</ele>
        <time>2024-05-19T09:53:31Z</time>
      </trkpt>
      <trkpt lat="45.78698" lon="3.29197">
        <ele>340.6</ele>
        <time>2024-05-19T09:53:32Z</time>
      </trkpt>
      <trkpt lat="45.78703" lon="3.29204">
        <ele>340.8</ele>
        <time>2024-05-19T09:53:33Z</time>
      </trkpt>
      <trkpt lat="45.78703" lon="3.29204">
        <ele>340.8</ele>
        <time>2024-05-19T09:53:34Z</time>
      </trkpt>
      <trkpt lat="45.78705" lon="3.29206">
        <ele>340.8</ele>
        <time>2024-05-19T09:53:35Z</time>
      </trkpt>
      <trkpt lat="45.78707" lon="3.29209">
        <ele>341</ele>
        <time>2024-05-19T09:53:36Z</time>
      </trkpt>
      <trkpt lat="45.78709" lon="3.29212">
        <ele>341</ele>
        <time>2024-05-19T09:53:37Z</time>
      </trkpt>
      <trkpt lat="45.78711" lon="3.29215">
        <ele>341.2</ele>
        <time>2024-05-19T09:53:38Z</time>
      </trkpt>
      <trkpt lat="45.78713" lon="3.29217">
        <ele>341.2</ele>
        <time>2024-05-19T09:53:39Z</time>
      </trkpt>
      <trkpt lat="45.78716" lon="3.29221">
        <ele>341.6</ele>
        <time>2024-05-19T09:53:40Z</time>
      </trkpt>
      <trkpt lat="45.78719" lon="3.29224">
        <ele>341.8</ele>
        <time>2024-05-19T09:53:41Z</time>
      </trkpt>
      <trkpt lat="45.78721" lon="3.29228">
        <ele>342</ele>
        <time>2024-05-19T09:53:42Z</time>
      </trkpt>
      <trkpt lat="45.78724" lon="3.29232">
        <ele>342.2</ele>
        <time>2024-05-19T09:53:43Z</time>
      </trkpt>
      <trkpt lat="45.78727" lon="3.29236">
        <ele>342.4</ele>
        <time>2024-05-19T09:53:44Z</time>
      </trkpt>
      <trkpt lat="45.78731" lon="3.2924">
        <ele>342.6</ele>
        <time>2024-05-19T09:53:45Z</time>
      </trkpt>
      <trkpt lat="45.78734" lon="3.29244">
        <ele>342.8</ele>
        <time>2024-05-19T09:53:46Z</time>
      </trkpt>
      <trkpt lat="45.78737" lon="3.29248">
        <ele>342.8</ele>
        <time>2024-05-19T09:53:47Z</time>
      </trkpt>
      <trkpt lat="45.78743" lon="3.29256">
        <ele>343</ele>
        <time>2024-05-19T09:53:48Z</time>
      </trkpt>
      <trkpt lat="45.78743" lon="3.29256">
        <ele>343.2</ele>
        <time>2024-05-19T09:53:49Z</time>
      </trkpt>
      <trkpt lat="45.78745" lon="3.2926">
        <ele>343.2</ele>
        <time>2024-05-19T09:53:50Z</time>
      </trkpt>
      <trkpt lat="45.78748" lon="3.29264">
        <ele>343.4</ele>
        <time>2024-05-19T09:53:51Z</time>
      </trkpt>
      <trkpt lat="45.78751" lon="3.29267">
        <ele>343.6</ele>
        <time>2024-05-19T09:53:52Z</time>
      </trkpt>
      <trkpt lat="45.78757" lon="3.29275">
        <ele>343.8</ele>
        <time>2024-05-19T09:53:53Z</time>
      </trkpt>
      <trkpt lat="45.78757" lon="3.29275">
        <ele>344</ele>
        <time>2024-05-19T09:53:54Z</time>
      </trkpt>
      <trkpt lat="45.7876" lon="3.29279">
        <ele>344</ele>
        <time>2024-05-19T09:53:55Z</time>
      </trkpt>
      <trkpt lat="45.78763" lon="3.29284">
        <ele>344.2</ele>
        <time>2024-05-19T09:53:56Z</time>
      </trkpt>
      <trkpt lat="45.78767" lon="3.29288">
        <ele>344.4</ele>
        <time>2024-05-19T09:53:57Z</time>
      </trkpt>
      <trkpt lat="45.7877" lon="3.29292">
        <ele>344.6</ele>
        <time>2024-05-19T09:53:58Z</time>
      </trkpt>
      <trkpt lat="45.78773" lon="3.29296">
        <ele>344.8</ele>
        <time>2024-05-19T09:53:59Z</time>
      </trkpt>
      <trkpt lat="45.78776" lon="3.293">
        <ele>344.8</ele>
        <time>2024-05-19T09:54:00Z</time>
      </trkpt>
      <trkpt lat="45.78779" lon="3.29304">
        <ele>345</ele>
        <time>2024-05-19T09:54:01Z</time>
      </trkpt>
      <trkpt lat="45.78782" lon="3.29309">
        <ele>345.2</ele>
        <time>2024-05-19T09:54:02Z</time>
      </trkpt>
      <trkpt lat="45.78786" lon="3.29313">
        <ele>345.4</ele>
        <time>2024-05-19T09:54:03Z</time>
      </trkpt>
      <trkpt lat="45.78789" lon="3.29317">
        <ele>345.4</ele>
        <time>2024-05-19T09:54:04Z</time>
      </trkpt>
      <trkpt lat="45.78792" lon="3.29321">
        <ele>345.6</ele>
        <time>2024-05-19T09:54:05Z</time>
      </trkpt>
      <trkpt lat="45.78795" lon="3.29325">
        <ele>345.8</ele>
        <time>2024-05-19T09:54:06Z</time>
      </trkpt>
      <trkpt lat="45.78799" lon="3.2933">
        <ele>345.8</ele>
        <time>2024-05-19T09:54:07Z</time>
      </trkpt>
      <trkpt lat="45.78806" lon="3.29339">
        <ele>346</ele>
        <time>2024-05-19T09:54:08Z</time>
      </trkpt>
      <trkpt lat="45.78806" lon="3.29339">
        <ele>346.2</ele>
        <time>2024-05-19T09:54:09Z</time>
      </trkpt>
      <trkpt lat="45.78809" lon="3.29344">
        <ele>346.2</ele>
        <time>2024-05-19T09:54:10Z</time>
      </trkpt>
      <trkpt lat="45.78813" lon="3.29349">
        <ele>346.4</ele>
        <time>2024-05-19T09:54:11Z</time>
      </trkpt>
      <trkpt lat="45.78817" lon="3.29355">
        <ele>346.4</ele>
        <time>2024-05-19T09:54:12Z</time>
      </trkpt>
      <trkpt lat="45.78824" lon="3.29366">
        <ele>346.6</ele>
        <time>2024-05-19T09:54:13Z</time>
      </trkpt>
      <trkpt lat="45.78824" lon="3.29366">
        <ele>346.6</ele>
        <time>2024-05-19T09:54:14Z</time>
      </trkpt>
      <trkpt lat="45.78827" lon="3.29371">
        <ele>346.8</ele>
        <time>2024-05-19T09:54:15Z</time>
      </trkpt>
      <trkpt lat="45.78831" lon="3.29376">
        <ele>346.8</ele>
        <time>2024-05-19T09:54:16Z</time>
      </trkpt>
      <trkpt lat="45.78835" lon="3.29381">
        <ele>347</ele>
        <time>2024-05-19T09:54:17Z</time>
      </trkpt>
      <trkpt lat="45.78839" lon="3.29386">
        <ele>347.2</ele>
        <time>2024-05-19T09:54:18Z</time>
      </trkpt>
      <trkpt lat="45.78843" lon="3.29391">
        <ele>347.2</ele>
        <time>2024-05-19T09:54:19Z</time>
      </trkpt>
      <trkpt lat="45.78847" lon="3.29397">
        <ele>347.4</ele>
        <time>2024-05-19T09:54:20Z</time>
      </trkpt>
      <trkpt lat="45.78851" lon="3.29402">
        <ele>347.4</ele>
        <time>2024-05-19T09:54:21Z</time>
      </trkpt>
      <trkpt lat="45.78855" lon="3.29407">
        <ele>347.6</ele>
        <time>2024-05-19T09:54:22Z</time>
      </trkpt>
      <trkpt lat="45.7886" lon="3.29413">
        <ele>347.6</ele>
        <time>2024-05-19T09:54:23Z</time>
      </trkpt>
      <trkpt lat="45.78864" lon="3.29418">
        <ele>347.8</ele>
        <time>2024-05-19T09:54:24Z</time>
      </trkpt>
      <trkpt lat="45.78868" lon="3.29424">
        <ele>347.8</ele>
        <time>2024-05-19T09:54:25Z</time>
      </trkpt>
      <trkpt lat="45.78877" lon="3.29435">
        <ele>348</ele>
        <time>2024-05-19T09:54:26Z</time>
      </trkpt>
      <trkpt lat="45.78877" lon="3.29435">
        <ele>348</ele>
        <time>2024-05-19T09:54:27Z</time>
      </trkpt>
      <trkpt lat="45.78885" lon="3.29447">
        <ele>348</ele>
        <time>2024-05-19T09:54:28Z</time>
      </trkpt>
      <trkpt lat="45.78885" lon="3.29447">
        <ele>348.2</ele>
        <time>2024-05-19T09:54:29Z</time>
      </trkpt>
      <trkpt lat="45.7889" lon="3.29452">
        <ele>348.2</ele>
        <time>2024-05-19T09:54:30Z</time>
      </trkpt>
      <trkpt lat="45.78898" lon="3.29463">
        <ele>348.4</ele>
        <time>2024-05-19T09:54:31Z</time>
      </trkpt>
      <trkpt lat="45.78898" lon="3.29463">
        <ele>348.4</ele>
        <time>2024-05-19T09:54:32Z</time>
      </trkpt>
      <trkpt lat="45.78903" lon="3.29469">
        <ele>348.6</ele>
        <time>2024-05-19T09:54:33Z</time>
      </trkpt>
      <trkpt lat="45.78907" lon="3.29475">
        <ele>348.6</ele>
        <time>2024-05-19T09:54:34Z</time>
      </trkpt>
      <trkpt lat="45.78912" lon="3.29481">
        <ele>348.8</ele>
        <time>2024-05-19T09:54:35Z</time>
      </trkpt>
      <trkpt lat="45.78916" lon="3.29487">
        <ele>348.8</ele>
        <time>2024-05-19T09:54:36Z</time>
      </trkpt>
      <trkpt lat="45.78921" lon="3.29493">
        <ele>349</ele>
        <time>2024-05-19T09:54:37Z</time>
      </trkpt>
      <trkpt lat="45.78925" lon="3.29499">
        <ele>349</ele>
        <time>2024-05-19T09:54:38Z</time>
      </trkpt>
      <trkpt lat="45.7893" lon="3.29505">
        <ele>349</ele>
        <time>2024-05-19T09:54:39Z</time>
      </trkpt>
      <trkpt lat="45.78935" lon="3.29511">
        <ele>349.2</ele>
        <time>2024-05-19T09:54:40Z</time>
      </trkpt>
      <trkpt lat="45.78944" lon="3.29523">
        <ele>349.2</ele>
        <time>2024-05-19T09:54:41Z</time>
      </trkpt>
      <trkpt lat="45.78944" lon="3.29523">
        <ele>349.2</ele>
        <time>2024-05-19T09:54:42Z</time>
      </trkpt>
      <trkpt lat="45.78949" lon="3.29529">
        <ele>349.4</ele>
        <time>2024-05-19T09:54:43Z</time>
      </trkpt>
      <trkpt lat="45.78953" lon="3.29535">
        <ele>349.4</ele>
        <time>2024-05-19T09:54:44Z</time>
      </trkpt>
      <trkpt lat="45.78958" lon="3.29541">
        <ele>349.4</ele>
        <time>2024-05-19T09:54:45Z</time>
      </trkpt>
      <trkpt lat="45.78963" lon="3.29548">
        <ele>349.6</ele>
        <time>2024-05-19T09:54:46Z</time>
      </trkpt>
      <trkpt lat="45.78967" lon="3.29554">
        <ele>349.6</ele>
        <time>2024-05-19T09:54:47Z</time>
      </trkpt>
      <trkpt lat="45.78972" lon="3.29561">
        <ele>349.6</ele>
        <time>2024-05-19T09:54:48Z</time>
      </trkpt>
      <trkpt lat="45.78977" lon="3.29567">
        <ele>349.8</ele>
        <time>2024-05-19T09:54:49Z</time>
      </trkpt>
      <trkpt lat="45.78982" lon="3.29574">
        <ele>350</ele>
        <time>2024-05-19T09:54:50Z</time>
      </trkpt>
      <trkpt lat="45.78991" lon="3.29587">
        <ele>350</ele>
        <time>2024-05-19T09:54:51Z</time>
      </trkpt>
      <trkpt lat="45.78991" lon="3.29587">
        <ele>350</ele>
        <time>2024-05-19T09:54:52Z</time>
      </trkpt>
      <trkpt lat="45.78996" lon="3.29594">
        <ele>350</ele>
        <time>2024-05-19T09:54:53Z</time>
      </trkpt>
      <trkpt lat="45.79001" lon="3.296">
        <ele>350</ele>
        <time>2024-05-19T09:54:54Z</time>
      </trkpt>
      <trkpt lat="45.79012" lon="3.29614">
        <ele>350</ele>
        <time>2024-05-19T09:54:55Z</time>
      </trkpt>
      <trkpt lat="45.79012" lon="3.29614">
        <ele>350</ele>
        <time>2024-05-19T09:54:56Z</time>
      </trkpt>
      <trkpt lat="45.79022" lon="3.29629">
        <ele>350</ele>
        <time>2024-05-19T09:54:57Z</time>
      </trkpt>
      <trkpt lat="45.79027" lon="3.29636">
        <ele>350</ele>
        <time>2024-05-19T09:54:58Z</time>
      </trkpt>
      <trkpt lat="45.79027" lon="3.29636">
        <ele>350</ele>
        <time>2024-05-19T09:54:59Z</time>
      </trkpt>
      <trkpt lat="45.79033" lon="3.29644">
        <ele>350</ele>
        <time>2024-05-19T09:55:00Z</time>
      </trkpt>
      <trkpt lat="45.79039" lon="3.29651">
        <ele>350</ele>
        <time>2024-05-19T09:55:01Z</time>
      </trkpt>
      <trkpt lat="45.79045" lon="3.2966">
        <ele>350</ele>
        <time>2024-05-19T09:55:02Z</time>
      </trkpt>
      <trkpt lat="45.79045" lon="3.2966">
        <ele>349.8</ele>
        <time>2024-05-19T09:55:03Z</time>
      </trkpt>
      <trkpt lat="45.79064" lon="3.29685">
        <ele>349.8</ele>
        <time>2024-05-19T09:55:04Z</time>
      </trkpt>
      <trkpt lat="45.79064" lon="3.29685">
        <ele>349.8</ele>
        <time>2024-05-19T09:55:05Z</time>
      </trkpt>
      <trkpt lat="45.79071" lon="3.29695">
        <ele>350.6</ele>
        <time>2024-05-19T09:55:06Z</time>
      </trkpt>
      <trkpt lat="45.79077" lon="3.29704">
        <ele>349.8</ele>
        <time>2024-05-19T09:55:07Z</time>
      </trkpt>
      <trkpt lat="45.79084" lon="3.29713">
        <ele>349.2</ele>
        <time>2024-05-19T09:55:08Z</time>
      </trkpt>
      <trkpt lat="45.79091" lon="3.29722">
        <ele>348.8</ele>
        <time>2024-05-19T09:55:09Z</time>
      </trkpt>
      <trkpt lat="45.79099" lon="3.29731">
        <ele>349.2</ele>
        <time>2024-05-19T09:55:10Z</time>
      </trkpt>
      <trkpt lat="45.79106" lon="3.29741">
        <ele>349.2</ele>
        <time>2024-05-19T09:55:11Z</time>
      </trkpt>
      <trkpt lat="45.79114" lon="3.29751">
        <ele>349</ele>
        <time>2024-05-19T09:55:12Z</time>
      </trkpt>
      <trkpt lat="45.79121" lon="3.29761">
        <ele>348.8</ele>
        <time>2024-05-19T09:55:13Z</time>
      </trkpt>
      <trkpt lat="45.79129" lon="3.29771">
        <ele>348.6</ele>
        <time>2024-05-19T09:55:14Z</time>
      </trkpt>
      <trkpt lat="45.79137" lon="3.29782">
        <ele>348.6</ele>
        <time>2024-05-19T09:55:15Z</time>
      </trkpt>
      <trkpt lat="45.79145" lon="3.29792">
        <ele>348.4</ele>
        <time>2024-05-19T09:55:16Z</time>
      </trkpt>
      <trkpt lat="45.79153" lon="3.29803">
        <ele>348.2</ele>
        <time>2024-05-19T09:55:17Z</time>
      </trkpt>
      <trkpt lat="45.79161" lon="3.29814">
        <ele>348</ele>
        <time>2024-05-19T09:55:18Z</time>
      </trkpt>
      <trkpt lat="45.79169" lon="3.29825">
        <ele>347.8</ele>
        <time>2024-05-19T09:55:19Z</time>
      </trkpt>
      <trkpt lat="45.79177" lon="3.29836">
        <ele>347.6</ele>
        <time>2024-05-19T09:55:20Z</time>
      </trkpt>
      <trkpt lat="45.79186" lon="3.29847">
        <ele>347.4</ele>
        <time>2024-05-19T09:55:21Z</time>
      </trkpt>
      <trkpt lat="45.79194" lon="3.29858">
        <ele>347.2</ele>
        <time>2024-05-19T09:55:22Z</time>
      </trkpt>
      <trkpt lat="45.79203" lon="3.29869">
        <ele>347</ele>
        <time>2024-05-19T09:55:23Z</time>
      </trkpt>
      <trkpt lat="45.79211" lon="3.2988">
        <ele>346.6</ele>
        <time>2024-05-19T09:55:24Z</time>
      </trkpt>
      <trkpt lat="45.7922" lon="3.29892">
        <ele>346.4</ele>
        <time>2024-05-19T09:55:25Z</time>
      </trkpt>
      <trkpt lat="45.79229" lon="3.29904">
        <ele>346.2</ele>
        <time>2024-05-19T09:55:26Z</time>
      </trkpt>
      <trkpt lat="45.79238" lon="3.29915">
        <ele>346</ele>
        <time>2024-05-19T09:55:27Z</time>
      </trkpt>
      <trkpt lat="45.79247" lon="3.29927">
        <ele>345.6</ele>
        <time>2024-05-19T09:55:28Z</time>
      </trkpt>
      <trkpt lat="45.79256" lon="3.29939">
        <ele>345.4</ele>
        <time>2024-05-19T09:55:29Z</time>
      </trkpt>
      <trkpt lat="45.79265" lon="3.29951">
        <ele>345</ele>
        <time>2024-05-19T09:55:30Z</time>
      </trkpt>
      <trkpt lat="45.79274" lon="3.29963">
        <ele>344.8</ele>
        <time>2024-05-19T09:55:31Z</time>
      </trkpt>
      <trkpt lat="45.79283" lon="3.29975">
        <ele>344.4</ele>
        <time>2024-05-19T09:55:32Z</time>
      </trkpt>
      <trkpt lat="45.79292" lon="3.29987">
        <ele>344.2</ele>
        <time>2024-05-19T09:55:33Z</time>
      </trkpt>
      <trkpt lat="45.79301" lon="3.29999">
        <ele>343.8</ele>
        <time>2024-05-19T09:55:34Z</time>
      </trkpt>
      <trkpt lat="45.7931" lon="3.30011">
        <ele>343.6</ele>
        <time>2024-05-19T09:55:35Z</time>
      </trkpt>
      <trkpt lat="45.7932" lon="3.30024">
        <ele>343.2</ele>
        <time>2024-05-19T09:55:36Z</time>
      </trkpt>
      <trkpt lat="45.79329" lon="3.30036">
        <ele>343</ele>
        <time>2024-05-19T09:55:37Z</time>
      </trkpt>
      <trkpt lat="45.79338" lon="3.30048">
        <ele>342.6</ele>
        <time>2024-05-19T09:55:38Z</time>
      </trkpt>
      <trkpt lat="45.79347" lon="3.3006">
        <ele>342.4</ele>
        <time>2024-05-19T09:55:39Z</time>
      </trkpt>
      <trkpt lat="45.79356" lon="3.30072">
        <ele>342</ele>
        <time>2024-05-19T09:55:40Z</time>
      </trkpt>
      <trkpt lat="45.79365" lon="3.30084">
        <ele>341.6</ele>
        <time>2024-05-19T09:55:41Z</time>
      </trkpt>
      <trkpt lat="45.79374" lon="3.30096">
        <ele>341.2</ele>
        <time>2024-05-19T09:55:42Z</time>
      </trkpt>
      <trkpt lat="45.79383" lon="3.30108">
        <ele>341</ele>
        <time>2024-05-19T09:55:43Z</time>
      </trkpt>
      <trkpt lat="45.79392" lon="3.3012">
        <ele>340.6</ele>
        <time>2024-05-19T09:55:44Z</time>
      </trkpt>
      <trkpt lat="45.794" lon="3.30131">
        <ele>340.4</ele>
        <time>2024-05-19T09:55:45Z</time>
      </trkpt>
      <trkpt lat="45.79408" lon="3.30142">
        <ele>340.2</ele>
        <time>2024-05-19T09:55:46Z</time>
      </trkpt>
      <trkpt lat="45.79416" lon="3.30153">
        <ele>340</ele>
        <time>2024-05-19T09:55:47Z</time>
      </trkpt>
      <trkpt lat="45.79424" lon="3.30163">
        <ele>339.6</ele>
        <time>2024-05-19T09:55:48Z</time>
      </trkpt>
      <trkpt lat="45.79432" lon="3.30174">
        <ele>339.4</ele>
        <time>2024-05-19T09:55:49Z</time>
      </trkpt>
      <trkpt lat="45.7944" lon="3.30184">
        <ele>339.2</ele>
        <time>2024-05-19T09:55:50Z</time>
      </trkpt>
      <trkpt lat="45.79448" lon="3.30194">
        <ele>339</ele>
        <time>2024-05-19T09:55:51Z</time>
      </trkpt>
      <trkpt lat="45.79455" lon="3.30204">
        <ele>338.8</ele>
        <time>2024-05-19T09:55:52Z</time>
      </trkpt>
      <trkpt lat="45.79462" lon="3.30214">
        <ele>338.6</ele>
        <time>2024-05-19T09:55:53Z</time>
      </trkpt>
      <trkpt lat="45.79469" lon="3.30223">
        <ele>338.4</ele>
        <time>2024-05-19T09:55:54Z</time>
      </trkpt>
      <trkpt lat="45.79476" lon="3.30232">
        <ele>338.4</ele>
        <time>2024-05-19T09:55:55Z</time>
      </trkpt>
      <trkpt lat="45.79483" lon="3.30242">
        <ele>338.2</ele>
        <time>2024-05-19T09:55:56Z</time>
      </trkpt>
      <trkpt lat="45.79489" lon="3.30251">
        <ele>338</ele>
        <time>2024-05-19T09:55:57Z</time>
      </trkpt>
      <trkpt lat="45.79496" lon="3.30261">
        <ele>337.8</ele>
        <time>2024-05-19T09:55:58Z</time>
      </trkpt>
      <trkpt lat="45.79502" lon="3.3027">
        <ele>337.6</ele>
        <time>2024-05-19T09:55:59Z</time>
      </trkpt>
      <trkpt lat="45.79509" lon="3.30279">
        <ele>337.6</ele>
        <time>2024-05-19T09:56:00Z</time>
      </trkpt>
      <trkpt lat="45.79515" lon="3.30287">
        <ele>337.4</ele>
        <time>2024-05-19T09:56:01Z</time>
      </trkpt>
      <trkpt lat="45.79521" lon="3.30296">
        <ele>337.2</ele>
        <time>2024-05-19T09:56:02Z</time>
      </trkpt>
      <trkpt lat="45.79527" lon="3.30304">
        <ele>337</ele>
        <time>2024-05-19T09:56:03Z</time>
      </trkpt>
      <trkpt lat="45.79533" lon="3.30313">
        <ele>336.8</ele>
        <time>2024-05-19T09:56:04Z</time>
      </trkpt>
      <trkpt lat="45.79539" lon="3.30321">
        <ele>336.8</ele>
        <time>2024-05-19T09:56:05Z</time>
      </trkpt>
      <trkpt lat="45.79544" lon="3.30329">
        <ele>336.6</ele>
        <time>2024-05-19T09:56:06Z</time>
      </trkpt>
      <trkpt lat="45.7955" lon="3.30337">
        <ele>336.4</ele>
        <time>2024-05-19T09:56:07Z</time>
      </trkpt>
      <trkpt lat="45.79555" lon="3.30345">
        <ele>336.2</ele>
        <time>2024-05-19T09:56:08Z</time>
      </trkpt>
      <trkpt lat="45.79561" lon="3.30352">
        <ele>336.2</ele>
        <time>2024-05-19T09:56:09Z</time>
      </trkpt>
      <trkpt lat="45.79566" lon="3.30359">
        <ele>336</ele>
        <time>2024-05-19T09:56:10Z</time>
      </trkpt>
      <trkpt lat="45.79571" lon="3.30366">
        <ele>336</ele>
        <time>2024-05-19T09:56:11Z</time>
      </trkpt>
      <trkpt lat="45.79576" lon="3.30373">
        <ele>335.8</ele>
        <time>2024-05-19T09:56:12Z</time>
      </trkpt>
      <trkpt lat="45.7958" lon="3.3038">
        <ele>335.6</ele>
        <time>2024-05-19T09:56:13Z</time>
      </trkpt>
      <trkpt lat="45.79585" lon="3.30387">
        <ele>335.6</ele>
        <time>2024-05-19T09:56:14Z</time>
      </trkpt>
      <trkpt lat="45.7959" lon="3.30394">
        <ele>335.4</ele>
        <time>2024-05-19T09:56:15Z</time>
      </trkpt>
      <trkpt lat="45.79595" lon="3.304">
        <ele>335.2</ele>
        <time>2024-05-19T09:56:16Z</time>
      </trkpt>
      <trkpt lat="45.79599" lon="3.30407">
        <ele>335.2</ele>
        <time>2024-05-19T09:56:17Z</time>
      </trkpt>
      <trkpt lat="45.79604" lon="3.30413">
        <ele>335.2</ele>
        <time>2024-05-19T09:56:18Z</time>
      </trkpt>
      <trkpt lat="45.79608" lon="3.30419">
        <ele>335</ele>
        <time>2024-05-19T09:56:19Z</time>
      </trkpt>
      <trkpt lat="45.79613" lon="3.30425">
        <ele>335</ele>
        <time>2024-05-19T09:56:20Z</time>
      </trkpt>
      <trkpt lat="45.79618" lon="3.3043">
        <ele>335</ele>
        <time>2024-05-19T09:56:21Z</time>
      </trkpt>
      <trkpt lat="45.79622" lon="3.30436">
        <ele>334.8</ele>
        <time>2024-05-19T09:56:22Z</time>
      </trkpt>
      <trkpt lat="45.79627" lon="3.30441">
        <ele>334.8</ele>
        <time>2024-05-19T09:56:23Z</time>
      </trkpt>
      <trkpt lat="45.79632" lon="3.30447">
        <ele>334.8</ele>
        <time>2024-05-19T09:56:24Z</time>
      </trkpt>
      <trkpt lat="45.79636" lon="3.30452">
        <ele>334.6</ele>
        <time>2024-05-19T09:56:25Z</time>
      </trkpt>
      <trkpt lat="45.79641" lon="3.30458">
        <ele>334.6</ele>
        <time>2024-05-19T09:56:26Z</time>
      </trkpt>
      <trkpt lat="45.79645" lon="3.30463">
        <ele>334.4</ele>
        <time>2024-05-19T09:56:27Z</time>
      </trkpt>
      <trkpt lat="45.7965" lon="3.30469">
        <ele>334.4</ele>
        <time>2024-05-19T09:56:28Z</time>
      </trkpt>
      <trkpt lat="45.79654" lon="3.30474">
        <ele>334.4</ele>
        <time>2024-05-19T09:56:29Z</time>
      </trkpt>
      <trkpt lat="45.79659" lon="3.3048">
        <ele>334.4</ele>
        <time>2024-05-19T09:56:30Z</time>
      </trkpt>
      <trkpt lat="45.79663" lon="3.30485">
        <ele>334.4</ele>
        <time>2024-05-19T09:56:31Z</time>
      </trkpt>
      <trkpt lat="45.79668" lon="3.30491">
        <ele>334.2</ele>
        <time>2024-05-19T09:56:32Z</time>
      </trkpt>
      <trkpt lat="45.79672" lon="3.30496">
        <ele>334.2</ele>
        <time>2024-05-19T09:56:33Z</time>
      </trkpt>
      <trkpt lat="45.79677" lon="3.30502">
        <ele>334.2</ele>
        <time>2024-05-19T09:56:34Z</time>
      </trkpt>
      <trkpt lat="45.79679" lon="3.30512">
        <ele>334</ele>
        <time>2024-05-19T09:56:35Z</time>
      </trkpt>
      <trkpt lat="45.79683" lon="3.30517">
        <ele>334</ele>
        <time>2024-05-19T09:56:36Z</time>
      </trkpt>
      <trkpt lat="45.79688" lon="3.30523">
        <ele>334</ele>
        <time>2024-05-19T09:56:37Z</time>
      </trkpt>
      <trkpt lat="45.79692" lon="3.30529">
        <ele>333.8</ele>
        <time>2024-05-19T09:56:38Z</time>
      </trkpt>
      <trkpt lat="45.79697" lon="3.30535">
        <ele>333.8</ele>
        <time>2024-05-19T09:56:39Z</time>
      </trkpt>
      <trkpt lat="45.79701" lon="3.30541">
        <ele>333.8</ele>
        <time>2024-05-19T09:56:40Z</time>
      </trkpt>
      <trkpt lat="45.79706" lon="3.30547">
        <ele>333.8</ele>
        <time>2024-05-19T09:56:41Z</time>
      </trkpt>
      <trkpt lat="45.7971" lon="3.30553">
        <ele>333.6</ele>
        <time>2024-05-19T09:56:42Z</time>
      </trkpt>
      <trkpt lat="45.79714" lon="3.3056">
        <ele>333.6</ele>
        <time>2024-05-19T09:56:43Z</time>
      </trkpt>
      <trkpt lat="45.79719" lon="3.30566">
        <ele>333.4</ele>
        <time>2024-05-19T09:56:44Z</time>
      </trkpt>
      <trkpt lat="45.79723" lon="3.30571">
        <ele>333.4</ele>
        <time>2024-05-19T09:56:45Z</time>
      </trkpt>
      <trkpt lat="45.79728" lon="3.30577">
        <ele>333.4</ele>
        <time>2024-05-19T09:56:46Z</time>
      </trkpt>
      <trkpt lat="45.79732" lon="3.30582">
        <ele>333.4</ele>
        <time>2024-05-19T09:56:47Z</time>
      </trkpt>
      <trkpt lat="45.79737" lon="3.30588">
        <ele>333.4</ele>
        <time>2024-05-19T09:56:48Z</time>
      </trkpt>
      <trkpt lat="45.79741" lon="3.30593">
        <ele>333.4</ele>
        <time>2024-05-19T09:56:49Z</time>
      </trkpt>
      <trkpt lat="45.79746" lon="3.30599">
        <ele>333.2</ele>
        <time>2024-05-19T09:56:50Z</time>
      </trkpt>
      <trkpt lat="45.7975" lon="3.30604">
        <ele>333.2</ele>
        <time>2024-05-19T09:56:51Z</time>
      </trkpt>
      <trkpt lat="45.79755" lon="3.3061">
        <ele>333.2</ele>
        <time>2024-05-19T09:56:52Z</time>
      </trkpt>
      <trkpt lat="45.79759" lon="3.30615">
        <ele>333.2</ele>
        <time>2024-05-19T09:56:53Z</time>
      </trkpt>
      <trkpt lat="45.79763" lon="3.30621">
        <ele>333.2</ele>
        <time>2024-05-19T09:56:54Z</time>
      </trkpt>
      <trkpt lat="45.79768" lon="3.30626">
        <ele>333.2</ele>
        <time>2024-05-19T09:56:55Z</time>
      </trkpt>
      <trkpt lat="45.79772" lon="3.30631">
        <ele>333.2</ele>
        <time>2024-05-19T09:56:56Z</time>
      </trkpt>
      <trkpt lat="45.79776" lon="3.30637">
        <ele>333.2</ele>
        <time>2024-05-19T09:56:57Z</time>
      </trkpt>
      <trkpt lat="45.79781" lon="3.30642">
        <ele>333</ele>
        <time>2024-05-19T09:56:58Z</time>
      </trkpt>
      <trkpt lat="45.79785" lon="3.30647">
        <ele>333</ele>
        <time>2024-05-19T09:56:59Z</time>
      </trkpt>
      <trkpt lat="45.79789" lon="3.30652">
        <ele>333</ele>
        <time>2024-05-19T09:57:00Z</time>
      </trkpt>
      <trkpt lat="45.79794" lon="3.30658">
        <ele>333</ele>
        <time>2024-05-19T09:57:01Z</time>
      </trkpt>
      <trkpt lat="45.79798" lon="3.30663">
        <ele>333</ele>
        <time>2024-05-19T09:57:02Z</time>
      </trkpt>
      <trkpt lat="45.79802" lon="3.30669">
        <ele>333</ele>
        <time>2024-05-19T09:57:03Z</time>
      </trkpt>
      <trkpt lat="45.79807" lon="3.30674">
        <ele>333</ele>
        <time>2024-05-19T09:57:04Z</time>
      </trkpt>
      <trkpt lat="45.79811" lon="3.30679">
        <ele>333</ele>
        <time>2024-05-19T09:57:05Z</time>
      </trkpt>
      <trkpt lat="45.79815" lon="3.30684">
        <ele>333</ele>
        <time>2024-05-19T09:57:06Z</time>
      </trkpt>
      <trkpt lat="45.79819" lon="3.30689">
        <ele>333</ele>
        <time>2024-05-19T09:57:07Z</time>
      </trkpt>
      <trkpt lat="45.79824" lon="3.30694">
        <ele>333</ele>
        <time>2024-05-19T09:57:08Z</time>
      </trkpt>
      <trkpt lat="45.79828" lon="3.307">
        <ele>333</ele>
        <time>2024-05-19T09:57:09Z</time>
      </trkpt>
      <trkpt lat="45.79832" lon="3.30705">
        <ele>333</ele>
        <time>2024-05-19T09:57:10Z</time>
      </trkpt>
      <trkpt lat="45.79836" lon="3.3071">
        <ele>333</ele>
        <time>2024-05-19T09:57:11Z</time>
      </trkpt>
      <trkpt lat="45.79841" lon="3.30715">
        <ele>333</ele>
        <time>2024-05-19T09:57:12Z</time>
      </trkpt>
      <trkpt lat="45.79845" lon="3.30721">
        <ele>333</ele>
        <time>2024-05-19T09:57:13Z</time>
      </trkpt>
      <trkpt lat="45.79849" lon="3.30726">
        <ele>333</ele>
        <time>2024-05-19T09:57:14Z</time>
      </trkpt>
      <trkpt lat="45.79854" lon="3.30731">
        <ele>333</ele>
        <time>2024-05-19T09:57:15Z</time>
      </trkpt>
      <trkpt lat="45.79858" lon="3.30737">
        <ele>333</ele>
        <time>2024-05-19T09:57:16Z</time>
      </trkpt>
      <trkpt lat="45.79862" lon="3.30742">
        <ele>333</ele>
        <time>2024-05-19T09:57:17Z</time>
      </trkpt>
      <trkpt lat="45.79866" lon="3.30747">
        <ele>333</ele>
        <time>2024-05-19T09:57:18Z</time>
      </trkpt>
      <trkpt lat="45.7987" lon="3.30752">
        <ele>333</ele>
        <time>2024-05-19T09:57:19Z</time>
      </trkpt>
      <trkpt lat="45.79875" lon="3.30758">
        <ele>333</ele>
        <time>2024-05-19T09:57:20Z</time>
      </trkpt>
      <trkpt lat="45.79879" lon="3.30763">
        <ele>333</ele>
        <time>2024-05-19T09:57:21Z</time>
      </trkpt>
      <trkpt lat="45.79883" lon="3.30768">
        <ele>333</ele>
        <time>2024-05-19T09:57:22Z</time>
      </trkpt>
      <trkpt lat="45.79887" lon="3.30774">
        <ele>333</ele>
        <time>2024-05-19T09:57:23Z</time>
      </trkpt>
      <trkpt lat="45.79891" lon="3.30779">
        <ele>333</ele>
        <time>2024-05-19T09:57:24Z</time>
      </trkpt>
      <trkpt lat="45.79895" lon="3.30785">
        <ele>333</ele>
        <time>2024-05-19T09:57:25Z</time>
      </trkpt>
      <trkpt lat="45.799" lon="3.3079">
        <ele>333.2</ele>
        <time>2024-05-19T09:57:26Z</time>
      </trkpt>
      <trkpt lat="45.79904" lon="3.30796">
        <ele>333.2</ele>
        <time>2024-05-19T09:57:27Z</time>
      </trkpt>
      <trkpt lat="45.79908" lon="3.30801">
        <ele>333.2</ele>
        <time>2024-05-19T09:57:28Z</time>
      </trkpt>
      <trkpt lat="45.79913" lon="3.30807">
        <ele>333.2</ele>
        <time>2024-05-19T09:57:29Z</time>
      </trkpt>
      <trkpt lat="45.79917" lon="3.30812">
        <ele>333.2</ele>
        <time>2024-05-19T09:57:30Z</time>
      </trkpt>
      <trkpt lat="45.79921" lon="3.30817">
        <ele>333.2</ele>
        <time>2024-05-19T09:57:31Z</time>
      </trkpt>
      <trkpt lat="45.79925" lon="3.30823">
        <ele>333.2</ele>
        <time>2024-05-19T09:57:32Z</time>
      </trkpt>
      <trkpt lat="45.79929" lon="3.30828">
        <ele>333.2</ele>
        <time>2024-05-19T09:57:33Z</time>
      </trkpt>
      <trkpt lat="45.79933" lon="3.30834">
        <ele>333.2</ele>
        <time>2024-05-19T09:57:34Z</time>
      </trkpt>
      <trkpt lat="45.79938" lon="3.30839">
        <ele>333.2</ele>
        <time>2024-05-19T09:57:35Z</time>
      </trkpt>
      <trkpt lat="45.79942" lon="3.30845">
        <ele>333.2</ele>
        <time>2024-05-19T09:57:36Z</time>
      </trkpt>
      <trkpt lat="45.79946" lon="3.3085">
        <ele>333.2</ele>
        <time>2024-05-19T09:57:37Z</time>
      </trkpt>
      <trkpt lat="45.7995" lon="3.30856">
        <ele>333.2</ele>
        <time>2024-05-19T09:57:38Z</time>
      </trkpt>
      <trkpt lat="45.79955" lon="3.30861">
        <ele>333.2</ele>
        <time>2024-05-19T09:57:39Z</time>
      </trkpt>
      <trkpt lat="45.79959" lon="3.30867">
        <ele>333.4</ele>
        <time>2024-05-19T09:57:40Z</time>
      </trkpt>
      <trkpt lat="45.79963" lon="3.30872">
        <ele>333.4</ele>
        <time>2024-05-19T09:57:41Z</time>
      </trkpt>
      <trkpt lat="45.79967" lon="3.30877">
        <ele>333.4</ele>
        <time>2024-05-19T09:57:42Z</time>
      </trkpt>
      <trkpt lat="45.79971" lon="3.30883">
        <ele>333.4</ele>
        <time>2024-05-19T09:57:43Z</time>
      </trkpt>
      <trkpt lat="45.79975" lon="3.30888">
        <ele>333.6</ele>
        <time>2024-05-19T09:57:44Z</time>
      </trkpt>
      <trkpt lat="45.79979" lon="3.30893">
        <ele>333.6</ele>
        <time>2024-05-19T09:57:45Z</time>
      </trkpt>
      <trkpt lat="45.79983" lon="3.30898">
        <ele>333.6</ele>
        <time>2024-05-19T09:57:46Z</time>
      </trkpt>
      <trkpt lat="45.79987" lon="3.30903">
        <ele>333.6</ele>
        <time>2024-05-19T09:57:47Z</time>
      </trkpt>
      <trkpt lat="45.79991" lon="3.30908">
        <ele>333.6</ele>
        <time>2024-05-19T09:57:48Z</time>
      </trkpt>
      <trkpt lat="45.79995" lon="3.30913">
        <ele>333.6</ele>
        <time>2024-05-19T09:57:49Z</time>
      </trkpt>
      <trkpt lat="45.79999" lon="3.30918">
        <ele>333.6</ele>
        <time>2024-05-19T09:57:50Z</time>
      </trkpt>
      <trkpt lat="45.80003" lon="3.30924">
        <ele>333.6</ele>
        <time>2024-05-19T09:57:51Z</time>
      </trkpt>
      <trkpt lat="45.80007" lon="3.30929">
        <ele>333.8</ele>
        <time>2024-05-19T09:57:52Z</time>
      </trkpt>
      <trkpt lat="45.80011" lon="3.30934">
        <ele>333.8</ele>
        <time>2024-05-19T09:57:53Z</time>
      </trkpt>
      <trkpt lat="45.80015" lon="3.30939">
        <ele>333.8</ele>
        <time>2024-05-19T09:57:54Z</time>
      </trkpt>
      <trkpt lat="45.80019" lon="3.30944">
        <ele>333.8</ele>
        <time>2024-05-19T09:57:55Z</time>
      </trkpt>
      <trkpt lat="45.80023" lon="3.3095">
        <ele>334</ele>
        <time>2024-05-19T09:57:56Z</time>
      </trkpt>
      <trkpt lat="45.80027" lon="3.30955">
        <ele>334</ele>
        <time>2024-05-19T09:57:57Z</time>
      </trkpt>
      <trkpt lat="45.80031" lon="3.3096">
        <ele>334</ele>
        <time>2024-05-19T09:57:58Z</time>
      </trkpt>
      <trkpt lat="45.80035" lon="3.30965">
        <ele>334</ele>
        <time>2024-05-19T09:57:59Z</time>
      </trkpt>
      <trkpt lat="45.80039" lon="3.3097">
        <ele>334.2</ele>
        <time>2024-05-19T09:58:00Z</time>
      </trkpt>
      <trkpt lat="45.80043" lon="3.30976">
        <ele>334.2</ele>
        <time>2024-05-19T09:58:01Z</time>
      </trkpt>
      <trkpt lat="45.80047" lon="3.30981">
        <ele>334.2</ele>
        <time>2024-05-19T09:58:02Z</time>
      </trkpt>
      <trkpt lat="45.80051" lon="3.30986">
        <ele>334.2</ele>
        <time>2024-05-19T09:58:03Z</time>
      </trkpt>
      <trkpt lat="45.80055" lon="3.30991">
        <ele>334.2</ele>
        <time>2024-05-19T09:58:04Z</time>
      </trkpt>
      <trkpt lat="45.80059" lon="3.30996">
        <ele>334.4</ele>
        <time>2024-05-19T09:58:05Z</time>
      </trkpt>
      <trkpt lat="45.80063" lon="3.31002">
        <ele>334.4</ele>
        <time>2024-05-19T09:58:06Z</time>
      </trkpt>
      <trkpt lat="45.80067" lon="3.31007">
        <ele>334.4</ele>
        <time>2024-05-19T09:58:07Z</time>
      </trkpt>
      <trkpt lat="45.80071" lon="3.31012">
        <ele>334.4</ele>
        <time>2024-05-19T09:58:08Z</time>
      </trkpt>
      <trkpt lat="45.80075" lon="3.31017">
        <ele>334.6</ele>
        <time>2024-05-19T09:58:09Z</time>
      </trkpt>
      <trkpt lat="45.80079" lon="3.31022">
        <ele>334.6</ele>
        <time>2024-05-19T09:58:10Z</time>
      </trkpt>
      <trkpt lat="45.80083" lon="3.31028">
        <ele>334.6</ele>
        <time>2024-05-19T09:58:11Z</time>
      </trkpt>
      <trkpt lat="45.80087" lon="3.31033">
        <ele>334.6</ele>
        <time>2024-05-19T09:58:12Z</time>
      </trkpt>
      <trkpt lat="45.80091" lon="3.31038">
        <ele>334.8</ele>
        <time>2024-05-19T09:58:13Z</time>
      </trkpt>
      <trkpt lat="45.80095" lon="3.31043">
        <ele>334.8</ele>
        <time>2024-05-19T09:58:14Z</time>
      </trkpt>
      <trkpt lat="45.80099" lon="3.31048">
        <ele>334.8</ele>
        <time>2024-05-19T09:58:15Z</time>
      </trkpt>
      <trkpt lat="45.80103" lon="3.31053">
        <ele>334.8</ele>
        <time>2024-05-19T09:58:16Z</time>
      </trkpt>
      <trkpt lat="45.80107" lon="3.31058">
        <ele>335</ele>
        <time>2024-05-19T09:58:17Z</time>
      </trkpt>
      <trkpt lat="45.80111" lon="3.31063">
        <ele>335</ele>
        <time>2024-05-19T09:58:18Z</time>
      </trkpt>
      <trkpt lat="45.80115" lon="3.31068">
        <ele>335</ele>
        <time>2024-05-19T09:58:19Z</time>
      </trkpt>
      <trkpt lat="45.80119" lon="3.31073">
        <ele>335.2</ele>
        <time>2024-05-19T09:58:20Z</time>
      </trkpt>
      <trkpt lat="45.80123" lon="3.31078">
        <ele>335.2</ele>
        <time>2024-05-19T09:58:21Z</time>
      </trkpt>
      <trkpt lat="45.80126" lon="3.31083">
        <ele>335.2</ele>
        <time>2024-05-19T09:58:22Z</time>
      </trkpt>
      <trkpt lat="45.8013" lon="3.31088">
        <ele>335.2</ele>
        <time>2024-05-19T09:58:23Z</time>
      </trkpt>
      <trkpt lat="45.80134" lon="3.31093">
        <ele>335.4</ele>
        <time>2024-05-19T09:58:24Z</time>
      </trkpt>
      <trkpt lat="45.80138" lon="3.31098">
        <ele>335.4</ele>
        <time>2024-05-19T09:58:25Z</time>
      </trkpt>
      <trkpt lat="45.80142" lon="3.31104">
        <ele>335.4</ele>
        <time>2024-05-19T09:58:26Z</time>
      </trkpt>
      <trkpt lat="45.80146" lon="3.31109">
        <ele>335.6</ele>
        <time>2024-05-19T09:58:27Z</time>
      </trkpt>
      <trkpt lat="45.8015" lon="3.31114">
        <ele>335.6</ele>
        <time>2024-05-19T09:58:28Z</time>
      </trkpt>
      <trkpt lat="45.80154" lon="3.31119">
        <ele>335.6</ele>
        <time>2024-05-19T09:58:29Z</time>
      </trkpt>
      <trkpt lat="45.80158" lon="3.31125">
        <ele>335.6</ele>
        <time>2024-05-19T09:58:30Z</time>
      </trkpt>
      <trkpt lat="45.80162" lon="3.3113">
        <ele>335.8</ele>
        <time>2024-05-19T09:58:31Z</time>
      </trkpt>
      <trkpt lat="45.80166" lon="3.31135">
        <ele>335.8</ele>
        <time>2024-05-19T09:58:32Z</time>
      </trkpt>
      <trkpt lat="45.8017" lon="3.3114">
        <ele>335.8</ele>
        <time>2024-05-19T09:58:33Z</time>
      </trkpt>
      <trkpt lat="45.80174" lon="3.31146">
        <ele>335.8</ele>
        <time>2024-05-19T09:58:34Z</time>
      </trkpt>
      <trkpt lat="45.80178" lon="3.31151">
        <ele>336</ele>
        <time>2024-05-19T09:58:35Z</time>
      </trkpt>
      <trkpt lat="45.80181" lon="3.31156">
        <ele>336</ele>
        <time>2024-05-19T09:58:36Z</time>
      </trkpt>
      <trkpt lat="45.80185" lon="3.31162">
        <ele>336.2</ele>
        <time>2024-05-19T09:58:37Z</time>
      </trkpt>
      <trkpt lat="45.80189" lon="3.31167">
        <ele>336.2</ele>
        <time>2024-05-19T09:58:38Z</time>
      </trkpt>
      <trkpt lat="45.80193" lon="3.31172">
        <ele>336.2</ele>
        <time>2024-05-19T09:58:39Z</time>
      </trkpt>
      <trkpt lat="45.80197" lon="3.31177">
        <ele>336.2</ele>
        <time>2024-05-19T09:58:40Z</time>
      </trkpt>
      <trkpt lat="45.80201" lon="3.31183">
        <ele>336.2</ele>
        <time>2024-05-19T09:58:41Z</time>
      </trkpt>
      <trkpt lat="45.80205" lon="3.31188">
        <ele>336.4</ele>
        <time>2024-05-19T09:58:42Z</time>
      </trkpt>
      <trkpt lat="45.80209" lon="3.31193">
        <ele>336.4</ele>
        <time>2024-05-19T09:58:43Z</time>
      </trkpt>
      <trkpt lat="45.80213" lon="3.31198">
        <ele>336.4</ele>
        <time>2024-05-19T09:58:44Z</time>
      </trkpt>
      <trkpt lat="45.80216" lon="3.31203">
        <ele>336.6</ele>
        <time>2024-05-19T09:58:45Z</time>
      </trkpt>
      <trkpt lat="45.8022" lon="3.31208">
        <ele>336.6</ele>
        <time>2024-05-19T09:58:46Z</time>
      </trkpt>
      <trkpt lat="45.80224" lon="3.31214">
        <ele>336.6</ele>
        <time>2024-05-19T09:58:47Z</time>
      </trkpt>
      <trkpt lat="45.80228" lon="3.31219">
        <ele>336.8</ele>
        <time>2024-05-19T09:58:48Z</time>
      </trkpt>
      <trkpt lat="45.80231" lon="3.31224">
        <ele>336.8</ele>
        <time>2024-05-19T09:58:49Z</time>
      </trkpt>
      <trkpt lat="45.80235" lon="3.31229">
        <ele>336.8</ele>
        <time>2024-05-19T09:58:50Z</time>
      </trkpt>
      <trkpt lat="45.80239" lon="3.31234">
        <ele>336.8</ele>
        <time>2024-05-19T09:58:51Z</time>
      </trkpt>
      <trkpt lat="45.80243" lon="3.31239">
        <ele>337</ele>
        <time>2024-05-19T09:58:52Z</time>
      </trkpt>
      <trkpt lat="45.80246" lon="3.31244">
        <ele>337</ele>
        <time>2024-05-19T09:58:53Z</time>
      </trkpt>
      <trkpt lat="45.8025" lon="3.31249">
        <ele>337</ele>
        <time>2024-05-19T09:58:54Z</time>
      </trkpt>
      <trkpt lat="45.80254" lon="3.31255">
        <ele>337.2</ele>
        <time>2024-05-19T09:58:55Z</time>
      </trkpt>
      <trkpt lat="45.80258" lon="3.31259">
        <ele>337.2</ele>
        <time>2024-05-19T09:58:56Z</time>
      </trkpt>
      <trkpt lat="45.80261" lon="3.31264">
        <ele>337.2</ele>
        <time>2024-05-19T09:58:57Z</time>
      </trkpt>
      <trkpt lat="45.80265" lon="3.31269">
        <ele>337.2</ele>
        <time>2024-05-19T09:58:58Z</time>
      </trkpt>
      <trkpt lat="45.80269" lon="3.31274">
        <ele>337.4</ele>
        <time>2024-05-19T09:58:59Z</time>
      </trkpt>
      <trkpt lat="45.80273" lon="3.3128">
        <ele>337.4</ele>
        <time>2024-05-19T09:59:00Z</time>
      </trkpt>
      <trkpt lat="45.8028" lon="3.3129">
        <ele>337.4</ele>
        <time>2024-05-19T09:59:01Z</time>
      </trkpt>
      <trkpt lat="45.8028" lon="3.3129">
        <ele>337.6</ele>
        <time>2024-05-19T09:59:02Z</time>
      </trkpt>
      <trkpt lat="45.80284" lon="3.31295">
        <ele>337.6</ele>
        <time>2024-05-19T09:59:03Z</time>
      </trkpt>
      <trkpt lat="45.80288" lon="3.313">
        <ele>337.6</ele>
        <time>2024-05-19T09:59:04Z</time>
      </trkpt>
      <trkpt lat="45.80291" lon="3.31305">
        <ele>337.8</ele>
        <time>2024-05-19T09:59:05Z</time>
      </trkpt>
      <trkpt lat="45.80295" lon="3.3131">
        <ele>337.8</ele>
        <time>2024-05-19T09:59:06Z</time>
      </trkpt>
      <trkpt lat="45.80299" lon="3.31315">
        <ele>338</ele>
        <time>2024-05-19T09:59:07Z</time>
      </trkpt>
      <trkpt lat="45.80303" lon="3.3132">
        <ele>338</ele>
        <time>2024-05-19T09:59:08Z</time>
      </trkpt>
      <trkpt lat="45.80306" lon="3.31325">
        <ele>338</ele>
        <time>2024-05-19T09:59:09Z</time>
      </trkpt>
      <trkpt lat="45.8031" lon="3.3133">
        <ele>338.2</ele>
        <time>2024-05-19T09:59:10Z</time>
      </trkpt>
      <trkpt lat="45.80317" lon="3.31339">
        <ele>338.4</ele>
        <time>2024-05-19T09:59:11Z</time>
      </trkpt>
      <trkpt lat="45.80317" lon="3.31339">
        <ele>338.4</ele>
        <time>2024-05-19T09:59:12Z</time>
      </trkpt>
      <trkpt lat="45.8032" lon="3.31344">
        <ele>338.6</ele>
        <time>2024-05-19T09:59:13Z</time>
      </trkpt>
      <trkpt lat="45.80324" lon="3.31349">
        <ele>338.6</ele>
        <time>2024-05-19T09:59:14Z</time>
      </trkpt>
      <trkpt lat="45.80327" lon="3.31353">
        <ele>338.6</ele>
        <time>2024-05-19T09:59:15Z</time>
      </trkpt>
      <trkpt lat="45.80331" lon="3.31358">
        <ele>338.8</ele>
        <time>2024-05-19T09:59:16Z</time>
      </trkpt>
      <trkpt lat="45.80334" lon="3.31362">
        <ele>338.8</ele>
        <time>2024-05-19T09:59:17Z</time>
      </trkpt>
      <trkpt lat="45.8034" lon="3.31371">
        <ele>339</ele>
        <time>2024-05-19T09:59:18Z</time>
      </trkpt>
      <trkpt lat="45.8034" lon="3.31371">
        <ele>339</ele>
        <time>2024-05-19T09:59:19Z</time>
      </trkpt>
      <trkpt lat="45.80344" lon="3.31376">
        <ele>339.2</ele>
        <time>2024-05-19T09:59:20Z</time>
      </trkpt>
      <trkpt lat="45.80351" lon="3.31386">
        <ele>339.2</ele>
        <time>2024-05-19T09:59:21Z</time>
      </trkpt>
      <trkpt lat="45.80351" lon="3.31386">
        <ele>339.4</ele>
        <time>2024-05-19T09:59:22Z</time>
      </trkpt>
      <trkpt lat="45.80358" lon="3.31396">
        <ele>339.4</ele>
        <time>2024-05-19T09:59:23Z</time>
      </trkpt>
      <trkpt lat="45.80362" lon="3.31401">
        <ele>339.6</ele>
        <time>2024-05-19T09:59:24Z</time>
      </trkpt>
      <trkpt lat="45.80366" lon="3.31406">
        <ele>339.8</ele>
        <time>2024-05-19T09:59:25Z</time>
      </trkpt>
      <trkpt lat="45.80369" lon="3.31411">
        <ele>339.8</ele>
        <time>2024-05-19T09:59:26Z</time>
      </trkpt>
      <trkpt lat="45.80373" lon="3.31416">
        <ele>339.8</ele>
        <time>2024-05-19T09:59:27Z</time>
      </trkpt>
      <trkpt lat="45.80377" lon="3.31421">
        <ele>340</ele>
        <time>2024-05-19T09:59:28Z</time>
      </trkpt>
      <trkpt lat="45.80377" lon="3.31421">
        <ele>340.2</ele>
        <time>2024-05-19T09:59:29Z</time>
      </trkpt>
      <trkpt lat="45.80384" lon="3.3143">
        <ele>340.2</ele>
        <time>2024-05-19T09:59:30Z</time>
      </trkpt>
      <trkpt lat="45.80387" lon="3.31435">
        <ele>340.4</ele>
        <time>2024-05-19T09:59:31Z</time>
      </trkpt>
      <trkpt lat="45.8039" lon="3.31439">
        <ele>340.4</ele>
        <time>2024-05-19T09:59:32Z</time>
      </trkpt>
      <trkpt lat="45.80394" lon="3.31443">
        <ele>340.6</ele>
        <time>2024-05-19T09:59:33Z</time>
      </trkpt>
      <trkpt lat="45.80397" lon="3.31448">
        <ele>340.6</ele>
        <time>2024-05-19T09:59:34Z</time>
      </trkpt>
      <trkpt lat="45.804" lon="3.31452">
        <ele>340.8</ele>
        <time>2024-05-19T09:59:35Z</time>
      </trkpt>
      <trkpt lat="45.80403" lon="3.31456">
        <ele>340.8</ele>
        <time>2024-05-19T09:59:36Z</time>
      </trkpt>
      <trkpt lat="45.80406" lon="3.3146">
        <ele>341</ele>
        <time>2024-05-19T09:59:37Z</time>
      </trkpt>
      <trkpt lat="45.80409" lon="3.31465">
        <ele>341.2</ele>
        <time>2024-05-19T09:59:38Z</time>
      </trkpt>
      <trkpt lat="45.80412" lon="3.31469">
        <ele>341.2</ele>
        <time>2024-05-19T09:59:39Z</time>
      </trkpt>
      <trkpt lat="45.80415" lon="3.31473">
        <ele>341.2</ele>
        <time>2024-05-19T09:59:40Z</time>
      </trkpt>
      <trkpt lat="45.80418" lon="3.31477">
        <ele>341.4</ele>
        <time>2024-05-19T09:59:41Z</time>
      </trkpt>
      <trkpt lat="45.80421" lon="3.31481">
        <ele>341.6</ele>
        <time>2024-05-19T09:59:42Z</time>
      </trkpt>
      <trkpt lat="45.80424" lon="3.31485">
        <ele>341.6</ele>
        <time>2024-05-19T09:59:43Z</time>
      </trkpt>
      <trkpt lat="45.80427" lon="3.31489">
        <ele>341.8</ele>
        <time>2024-05-19T09:59:44Z</time>
      </trkpt>
      <trkpt lat="45.8043" lon="3.31493">
        <ele>342</ele>
        <time>2024-05-19T09:59:45Z</time>
      </trkpt>
      <trkpt lat="45.80433" lon="3.31497">
        <ele>342</ele>
        <time>2024-05-19T09:59:46Z</time>
      </trkpt>
      <trkpt lat="45.80436" lon="3.31501">
        <ele>342.2</ele>
        <time>2024-05-19T09:59:47Z</time>
      </trkpt>
      <trkpt lat="45.80439" lon="3.31505">
        <ele>342.2</ele>
        <time>2024-05-19T09:59:48Z</time>
      </trkpt>
      <trkpt lat="45.80442" lon="3.31509">
        <ele>342.2</ele>
        <time>2024-05-19T09:59:49Z</time>
      </trkpt>
      <trkpt lat="45.80445" lon="3.31513">
        <ele>342.4</ele>
        <time>2024-05-19T09:59:50Z</time>
      </trkpt>
      <trkpt lat="45.80448" lon="3.31517">
        <ele>342.6</ele>
        <time>2024-05-19T09:59:51Z</time>
      </trkpt>
      <trkpt lat="45.80451" lon="3.31521">
        <ele>342.6</ele>
        <time>2024-05-19T09:59:52Z</time>
      </trkpt>
      <trkpt lat="45.80454" lon="3.31525">
        <ele>342.8</ele>
        <time>2024-05-19T09:59:53Z</time>
      </trkpt>
      <trkpt lat="45.80457" lon="3.31529">
        <ele>342.8</ele>
        <time>2024-05-19T09:59:54Z</time>
      </trkpt>
      <trkpt lat="45.8046" lon="3.31534">
        <ele>343</ele>
        <time>2024-05-19T09:59:55Z</time>
      </trkpt>
      <trkpt lat="45.80463" lon="3.31538">
        <ele>343.2</ele>
        <time>2024-05-19T09:59:56Z</time>
      </trkpt>
      <trkpt lat="45.80467" lon="3.31542">
        <ele>343.2</ele>
        <time>2024-05-19T09:59:57Z</time>
      </trkpt>
      <trkpt lat="45.8047" lon="3.31546">
        <ele>343.4</ele>
        <time>2024-05-19T09:59:58Z</time>
      </trkpt>
      <trkpt lat="45.80473" lon="3.31551">
        <ele>343.4</ele>
        <time>2024-05-19T09:59:59Z</time>
      </trkpt>
      <trkpt lat="45.80476" lon="3.31555">
        <ele>343.6</ele>
        <time>2024-05-19T10:00:00Z</time>
      </trkpt>
      <trkpt lat="45.80479" lon="3.31559">
        <ele>343.6</ele>
        <time>2024-05-19T10:00:01Z</time>
      </trkpt>
      <trkpt lat="45.80482" lon="3.31563">
        <ele>343.6</ele>
        <time>2024-05-19T10:00:02Z</time>
      </trkpt>
      <trkpt lat="45.80486" lon="3.31568">
        <ele>343.8</ele>
        <time>2024-05-19T10:00:03Z</time>
      </trkpt>
      <trkpt lat="45.80489" lon="3.31572">
        <ele>344</ele>
        <time>2024-05-19T10:00:04Z</time>
      </trkpt>
      <trkpt lat="45.80492" lon="3.31576">
        <ele>344</ele>
        <time>2024-05-19T10:00:05Z</time>
      </trkpt>
      <trkpt lat="45.80496" lon="3.31581">
        <ele>344</ele>
        <time>2024-05-19T10:00:06Z</time>
      </trkpt>
      <trkpt lat="45.80499" lon="3.31585">
        <ele>344.2</ele>
        <time>2024-05-19T10:00:07Z</time>
      </trkpt>
      <trkpt lat="45.80503" lon="3.3159">
        <ele>344.4</ele>
        <time>2024-05-19T10:00:08Z</time>
      </trkpt>
      <trkpt lat="45.80506" lon="3.31595">
        <ele>344.4</ele>
        <time>2024-05-19T10:00:09Z</time>
      </trkpt>
      <trkpt lat="45.8051" lon="3.316">
        <ele>344.6</ele>
        <time>2024-05-19T10:00:10Z</time>
      </trkpt>
      <trkpt lat="45.80514" lon="3.31605">
        <ele>344.6</ele>
        <time>2024-05-19T10:00:11Z</time>
      </trkpt>
      <trkpt lat="45.80518" lon="3.3161">
        <ele>344.8</ele>
        <time>2024-05-19T10:00:12Z</time>
      </trkpt>
      <trkpt lat="45.80522" lon="3.31615">
        <ele>344.8</ele>
        <time>2024-05-19T10:00:13Z</time>
      </trkpt>
      <trkpt lat="45.80525" lon="3.3162">
        <ele>345</ele>
        <time>2024-05-19T10:00:14Z</time>
      </trkpt>
      <trkpt lat="45.80529" lon="3.31625">
        <ele>345</ele>
        <time>2024-05-19T10:00:15Z</time>
      </trkpt>
      <trkpt lat="45.80533" lon="3.31631">
        <ele>345.2</ele>
        <time>2024-05-19T10:00:16Z</time>
      </trkpt>
      <trkpt lat="45.80537" lon="3.31636">
        <ele>345.2</ele>
        <time>2024-05-19T10:00:17Z</time>
      </trkpt>
      <trkpt lat="45.80541" lon="3.31641">
        <ele>345.4</ele>
        <time>2024-05-19T10:00:18Z</time>
      </trkpt>
      <trkpt lat="45.80545" lon="3.31646">
        <ele>345.6</ele>
        <time>2024-05-19T10:00:19Z</time>
      </trkpt>
      <trkpt lat="45.80549" lon="3.31651">
        <ele>345.6</ele>
        <time>2024-05-19T10:00:20Z</time>
      </trkpt>
      <trkpt lat="45.80553" lon="3.31657">
        <ele>345.8</ele>
        <time>2024-05-19T10:00:21Z</time>
      </trkpt>
      <trkpt lat="45.80557" lon="3.31662">
        <ele>345.8</ele>
        <time>2024-05-19T10:00:22Z</time>
      </trkpt>
      <trkpt lat="45.8056" lon="3.31667">
        <ele>346</ele>
        <time>2024-05-19T10:00:23Z</time>
      </trkpt>
      <trkpt lat="45.80564" lon="3.31672">
        <ele>346</ele>
        <time>2024-05-19T10:00:24Z</time>
      </trkpt>
      <trkpt lat="45.80568" lon="3.31677">
        <ele>346</ele>
        <time>2024-05-19T10:00:25Z</time>
      </trkpt>
      <trkpt lat="45.80572" lon="3.31683">
        <ele>346.2</ele>
        <time>2024-05-19T10:00:26Z</time>
      </trkpt>
      <trkpt lat="45.80577" lon="3.31688">
        <ele>346.2</ele>
        <time>2024-05-19T10:00:27Z</time>
      </trkpt>
      <trkpt lat="45.80581" lon="3.31694">
        <ele>346.2</ele>
        <time>2024-05-19T10:00:28Z</time>
      </trkpt>
      <trkpt lat="45.80586" lon="3.317">
        <ele>346.2</ele>
        <time>2024-05-19T10:00:29Z</time>
      </trkpt>
      <trkpt lat="45.80586" lon="3.317">
        <ele>346.2</ele>
        <time>2024-05-19T10:00:30Z</time>
      </trkpt>
      <trkpt lat="45.80595" lon="3.31713">
        <ele>346.4</ele>
        <time>2024-05-19T10:00:31Z</time>
      </trkpt>
      <trkpt lat="45.806" lon="3.31719">
        <ele>346.4</ele>
        <time>2024-05-19T10:00:32Z</time>
      </trkpt>
      <trkpt lat="45.80605" lon="3.31726">
        <ele>346.4</ele>
        <time>2024-05-19T10:00:33Z</time>
      </trkpt>
      <trkpt lat="45.8061" lon="3.31733">
        <ele>346.4</ele>
        <time>2024-05-19T10:00:34Z</time>
      </trkpt>
      <trkpt lat="45.80615" lon="3.3174">
        <ele>346.4</ele>
        <time>2024-05-19T10:00:35Z</time>
      </trkpt>
      <trkpt lat="45.8062" lon="3.31747">
        <ele>346.2</ele>
        <time>2024-05-19T10:00:36Z</time>
      </trkpt>
      <trkpt lat="45.80626" lon="3.31754">
        <ele>346.4</ele>
        <time>2024-05-19T10:00:37Z</time>
      </trkpt>
      <trkpt lat="45.80631" lon="3.31761">
        <ele>346.2</ele>
        <time>2024-05-19T10:00:38Z</time>
      </trkpt>
      <trkpt lat="45.80637" lon="3.31769">
        <ele>346.2</ele>
        <time>2024-05-19T10:00:39Z</time>
      </trkpt>
      <trkpt lat="45.80642" lon="3.31776">
        <ele>346.2</ele>
        <time>2024-05-19T10:00:40Z</time>
      </trkpt>
      <trkpt lat="45.80648" lon="3.31783">
        <ele>346.2</ele>
        <time>2024-05-19T10:00:41Z</time>
      </trkpt>
      <trkpt lat="45.80653" lon="3.31791">
        <ele>346.2</ele>
        <time>2024-05-19T10:00:42Z</time>
      </trkpt>
      <trkpt lat="45.80659" lon="3.31798">
        <ele>346.2</ele>
        <time>2024-05-19T10:00:43Z</time>
      </trkpt>
      <trkpt lat="45.80664" lon="3.31806">
        <ele>346.2</ele>
        <time>2024-05-19T10:00:44Z</time>
      </trkpt>
      <trkpt lat="45.8067" lon="3.31813">
        <ele>346.2</ele>
        <time>2024-05-19T10:00:45Z</time>
      </trkpt>
      <trkpt lat="45.80675" lon="3.31821">
        <ele>346.2</ele>
        <time>2024-05-19T10:00:46Z</time>
      </trkpt>
      <trkpt lat="45.8068" lon="3.31828">
        <ele>346.2</ele>
        <time>2024-05-19T10:00:47Z</time>
      </trkpt>
      <trkpt lat="45.80686" lon="3.31835">
        <ele>346.2</ele>
        <time>2024-05-19T10:00:48Z</time>
      </trkpt>
      <trkpt lat="45.80691" lon="3.31843">
        <ele>346.8</ele>
        <time>2024-05-19T10:00:49Z</time>
      </trkpt>
      <trkpt lat="45.80697" lon="3.3185">
        <ele>346.6</ele>
        <time>2024-05-19T10:00:50Z</time>
      </trkpt>
      <trkpt lat="45.80702" lon="3.31858">
        <ele>346.4</ele>
        <time>2024-05-19T10:00:51Z</time>
      </trkpt>
      <trkpt lat="45.80702" lon="3.31858">
        <ele>346.2</ele>
        <time>2024-05-19T10:00:52Z</time>
      </trkpt>
      <trkpt lat="45.80713" lon="3.31873">
        <ele>346</ele>
        <time>2024-05-19T10:00:53Z</time>
      </trkpt>
      <trkpt lat="45.80719" lon="3.3188">
        <ele>345.8</ele>
        <time>2024-05-19T10:00:54Z</time>
      </trkpt>
      <trkpt lat="45.80724" lon="3.31887">
        <ele>346</ele>
        <time>2024-05-19T10:00:55Z</time>
      </trkpt>
      <trkpt lat="45.80729" lon="3.31895">
        <ele>346</ele>
        <time>2024-05-19T10:00:56Z</time>
      </trkpt>
      <trkpt lat="45.80734" lon="3.31903">
        <ele>346</ele>
        <time>2024-05-19T10:00:57Z</time>
      </trkpt>
      <trkpt lat="45.80734" lon="3.31903">
        <ele>346</ele>
        <time>2024-05-19T10:00:58Z</time>
      </trkpt>
      <trkpt lat="45.80745" lon="3.31918">
        <ele>346</ele>
        <time>2024-05-19T10:00:59Z</time>
      </trkpt>
      <trkpt lat="45.8075" lon="3.31926">
        <ele>345.8</ele>
        <time>2024-05-19T10:01:00Z</time>
      </trkpt>
      <trkpt lat="45.80755" lon="3.31935">
        <ele>345.8</ele>
        <time>2024-05-19T10:01:01Z</time>
      </trkpt>
      <trkpt lat="45.80759" lon="3.31943">
        <ele>345.8</ele>
        <time>2024-05-19T10:01:02Z</time>
      </trkpt>
      <trkpt lat="45.80764" lon="3.31953">
        <ele>345.8</ele>
        <time>2024-05-19T10:01:03Z</time>
      </trkpt>
      <trkpt lat="45.80768" lon="3.31962">
        <ele>345.8</ele>
        <time>2024-05-19T10:01:04Z</time>
      </trkpt>
      <trkpt lat="45.80773" lon="3.31971">
        <ele>345.8</ele>
        <time>2024-05-19T10:01:05Z</time>
      </trkpt>
      <trkpt lat="45.80777" lon="3.3198">
        <ele>345.8</ele>
        <time>2024-05-19T10:01:06Z</time>
      </trkpt>
      <trkpt lat="45.80782" lon="3.31989">
        <ele>345.6</ele>
        <time>2024-05-19T10:01:07Z</time>
      </trkpt>
      <trkpt lat="45.80786" lon="3.31998">
        <ele>345.6</ele>
        <time>2024-05-19T10:01:08Z</time>
      </trkpt>
      <trkpt lat="45.80791" lon="3.32007">
        <ele>345.6</ele>
        <time>2024-05-19T10:01:09Z</time>
      </trkpt>
      <trkpt lat="45.80795" lon="3.32016">
        <ele>345.6</ele>
        <time>2024-05-19T10:01:10Z</time>
      </trkpt>
      <trkpt lat="45.808" lon="3.32025">
        <ele>345.4</ele>
        <time>2024-05-19T10:01:11Z</time>
      </trkpt>
      <trkpt lat="45.80804" lon="3.32034">
        <ele>345.4</ele>
        <time>2024-05-19T10:01:12Z</time>
      </trkpt>
      <trkpt lat="45.80808" lon="3.32042">
        <ele>345.4</ele>
        <time>2024-05-19T10:01:13Z</time>
      </trkpt>
      <trkpt lat="45.80813" lon="3.32051">
        <ele>345.2</ele>
        <time>2024-05-19T10:01:14Z</time>
      </trkpt>
      <trkpt lat="45.80816" lon="3.32061">
        <ele>345.2</ele>
        <time>2024-05-19T10:01:15Z</time>
      </trkpt>
      <trkpt lat="45.8082" lon="3.3207">
        <ele>345</ele>
        <time>2024-05-19T10:01:16Z</time>
      </trkpt>
      <trkpt lat="45.80823" lon="3.3208">
        <ele>345</ele>
        <time>2024-05-19T10:01:17Z</time>
      </trkpt>
      <trkpt lat="45.80827" lon="3.3209">
        <ele>344.8</ele>
        <time>2024-05-19T10:01:18Z</time>
      </trkpt>
      <trkpt lat="45.80831" lon="3.321">
        <ele>344.6</ele>
        <time>2024-05-19T10:01:19Z</time>
      </trkpt>
      <trkpt lat="45.80834" lon="3.3211">
        <ele>344.6</ele>
        <time>2024-05-19T10:01:20Z</time>
      </trkpt>
      <trkpt lat="45.80838" lon="3.3212">
        <ele>344.4</ele>
        <time>2024-05-19T10:01:21Z</time>
      </trkpt>
      <trkpt lat="45.80842" lon="3.32131">
        <ele>344.2</ele>
        <time>2024-05-19T10:01:22Z</time>
      </trkpt>
      <trkpt lat="45.80846" lon="3.32142">
        <ele>344.2</ele>
        <time>2024-05-19T10:01:23Z</time>
      </trkpt>
      <trkpt lat="45.8085" lon="3.32153">
        <ele>344</ele>
        <time>2024-05-19T10:01:24Z</time>
      </trkpt>
      <trkpt lat="45.80854" lon="3.32164">
        <ele>343.8</ele>
        <time>2024-05-19T10:01:25Z</time>
      </trkpt>
      <trkpt lat="45.80859" lon="3.32176">
        <ele>343.6</ele>
        <time>2024-05-19T10:01:26Z</time>
      </trkpt>
      <trkpt lat="45.80863" lon="3.32188">
        <ele>343.4</ele>
        <time>2024-05-19T10:01:27Z</time>
      </trkpt>
      <trkpt lat="45.80868" lon="3.322">
        <ele>343.2</ele>
        <time>2024-05-19T10:01:28Z</time>
      </trkpt>
      <trkpt lat="45.80872" lon="3.32213">
        <ele>343</ele>
        <time>2024-05-19T10:01:29Z</time>
      </trkpt>
      <trkpt lat="45.80872" lon="3.32213">
        <ele>342.8</ele>
        <time>2024-05-19T10:01:30Z</time>
      </trkpt>
      <trkpt lat="45.80877" lon="3.32225">
        <ele>342.6</ele>
        <time>2024-05-19T10:01:31Z</time>
      </trkpt>
      <trkpt lat="45.80886" lon="3.32251">
        <ele>342.4</ele>
        <time>2024-05-19T10:01:32Z</time>
      </trkpt>
      <trkpt lat="45.80891" lon="3.32264">
        <ele>342</ele>
        <time>2024-05-19T10:01:33Z</time>
      </trkpt>
      <trkpt lat="45.80896" lon="3.32277">
        <ele>341.8</ele>
        <time>2024-05-19T10:01:34Z</time>
      </trkpt>
      <trkpt lat="45.80901" lon="3.32291">
        <ele>341.6</ele>
        <time>2024-05-19T10:01:35Z</time>
      </trkpt>
      <trkpt lat="45.80906" lon="3.32304">
        <ele>341.2</ele>
        <time>2024-05-19T10:01:36Z</time>
      </trkpt>
      <trkpt lat="45.80912" lon="3.32318">
        <ele>341</ele>
        <time>2024-05-19T10:01:37Z</time>
      </trkpt>
      <trkpt lat="45.80917" lon="3.32332">
        <ele>340.6</ele>
        <time>2024-05-19T10:01:38Z</time>
      </trkpt>
      <trkpt lat="45.80922" lon="3.32346">
        <ele>340.4</ele>
        <time>2024-05-19T10:01:39Z</time>
      </trkpt>
      <trkpt lat="45.80927" lon="3.32361">
        <ele>340</ele>
        <time>2024-05-19T10:01:40Z</time>
      </trkpt>
      <trkpt lat="45.80933" lon="3.32375">
        <ele>339.8</ele>
        <time>2024-05-19T10:01:41Z</time>
      </trkpt>
      <trkpt lat="45.80938" lon="3.32389">
        <ele>339.4</ele>
        <time>2024-05-19T10:01:42Z</time>
      </trkpt>
      <trkpt lat="45.80943" lon="3.32403">
        <ele>339.2</ele>
        <time>2024-05-19T10:01:43Z</time>
      </trkpt>
      <trkpt lat="45.80948" lon="3.32418">
        <ele>338.8</ele>
        <time>2024-05-19T10:01:44Z</time>
      </trkpt>
      <trkpt lat="45.80953" lon="3.32431">
        <ele>338.6</ele>
        <time>2024-05-19T10:01:45Z</time>
      </trkpt>
      <trkpt lat="45.80958" lon="3.32445">
        <ele>338.2</ele>
        <time>2024-05-19T10:01:46Z</time>
      </trkpt>
      <trkpt lat="45.80963" lon="3.32458">
        <ele>338</ele>
        <time>2024-05-19T10:01:47Z</time>
      </trkpt>
      <trkpt lat="45.80968" lon="3.32471">
        <ele>337.8</ele>
        <time>2024-05-19T10:01:48Z</time>
      </trkpt>
      <trkpt lat="45.80973" lon="3.32484">
        <ele>337.6</ele>
        <time>2024-05-19T10:01:49Z</time>
      </trkpt>
      <trkpt lat="45.80977" lon="3.32497">
        <ele>337.4</ele>
        <time>2024-05-19T10:01:50Z</time>
      </trkpt>
      <trkpt lat="45.80982" lon="3.3251">
        <ele>337</ele>
        <time>2024-05-19T10:01:51Z</time>
      </trkpt>
      <trkpt lat="45.80987" lon="3.32523">
        <ele>336.8</ele>
        <time>2024-05-19T10:01:52Z</time>
      </trkpt>
      <trkpt lat="45.80991" lon="3.32536">
        <ele>336.6</ele>
        <time>2024-05-19T10:01:53Z</time>
      </trkpt>
      <trkpt lat="45.80996" lon="3.32548">
        <ele>336.4</ele>
        <time>2024-05-19T10:01:54Z</time>
      </trkpt>
      <trkpt lat="45.81001" lon="3.32561">
        <ele>336</ele>
        <time>2024-05-19T10:01:55Z</time>
      </trkpt>
      <trkpt lat="45.81005" lon="3.32574">
        <ele>335.8</ele>
        <time>2024-05-19T10:01:56Z</time>
      </trkpt>
      <trkpt lat="45.8101" lon="3.32586">
        <ele>335.6</ele>
        <time>2024-05-19T10:01:57Z</time>
      </trkpt>
      <trkpt lat="45.81015" lon="3.32599">
        <ele>335.4</ele>
        <time>2024-05-19T10:01:58Z</time>
      </trkpt>
      <trkpt lat="45.81015" lon="3.32599">
        <ele>335.2</ele>
        <time>2024-05-19T10:01:59Z</time>
      </trkpt>
      <trkpt lat="45.81024" lon="3.32624">
        <ele>335</ele>
        <time>2024-05-19T10:02:00Z</time>
      </trkpt>
      <trkpt lat="45.81028" lon="3.32636">
        <ele>334.8</ele>
        <time>2024-05-19T10:02:01Z</time>
      </trkpt>
      <trkpt lat="45.81032" lon="3.32648">
        <ele>334.4</ele>
        <time>2024-05-19T10:02:02Z</time>
      </trkpt>
      <trkpt lat="45.81037" lon="3.3266">
        <ele>334.2</ele>
        <time>2024-05-19T10:02:03Z</time>
      </trkpt>
      <trkpt lat="45.81041" lon="3.32672">
        <ele>334</ele>
        <time>2024-05-19T10:02:04Z</time>
      </trkpt>
      <trkpt lat="45.81046" lon="3.32684">
        <ele>333.8</ele>
        <time>2024-05-19T10:02:05Z</time>
      </trkpt>
      <trkpt lat="45.8105" lon="3.32696">
        <ele>333.6</ele>
        <time>2024-05-19T10:02:06Z</time>
      </trkpt>
      <trkpt lat="45.81054" lon="3.32707">
        <ele>333.4</ele>
        <time>2024-05-19T10:02:07Z</time>
      </trkpt>
      <trkpt lat="45.81058" lon="3.32719">
        <ele>333.2</ele>
        <time>2024-05-19T10:02:08Z</time>
      </trkpt>
      <trkpt lat="45.81062" lon="3.3273">
        <ele>333</ele>
        <time>2024-05-19T10:02:09Z</time>
      </trkpt>
      <trkpt lat="45.81067" lon="3.32741">
        <ele>332.6</ele>
        <time>2024-05-19T10:02:10Z</time>
      </trkpt>
      <trkpt lat="45.81071" lon="3.32752">
        <ele>332.4</ele>
        <time>2024-05-19T10:02:11Z</time>
      </trkpt>
      <trkpt lat="45.81075" lon="3.32763">
        <ele>332.2</ele>
        <time>2024-05-19T10:02:12Z</time>
      </trkpt>
      <trkpt lat="45.81079" lon="3.32774">
        <ele>332</ele>
        <time>2024-05-19T10:02:13Z</time>
      </trkpt>
      <trkpt lat="45.81083" lon="3.32785">
        <ele>331.8</ele>
        <time>2024-05-19T10:02:14Z</time>
      </trkpt>
      <trkpt lat="45.81086" lon="3.32796">
        <ele>331.6</ele>
        <time>2024-05-19T10:02:15Z</time>
      </trkpt>
      <trkpt lat="45.8109" lon="3.32807">
        <ele>331.4</ele>
        <time>2024-05-19T10:02:16Z</time>
      </trkpt>
      <trkpt lat="45.81094" lon="3.32817">
        <ele>331.2</ele>
        <time>2024-05-19T10:02:17Z</time>
      </trkpt>
      <trkpt lat="45.81098" lon="3.32828">
        <ele>331.2</ele>
        <time>2024-05-19T10:02:18Z</time>
      </trkpt>
      <trkpt lat="45.81102" lon="3.32838">
        <ele>331</ele>
        <time>2024-05-19T10:02:19Z</time>
      </trkpt>
      <trkpt lat="45.81106" lon="3.32849">
        <ele>330.8</ele>
        <time>2024-05-19T10:02:20Z</time>
      </trkpt>
      <trkpt lat="45.8111" lon="3.32859">
        <ele>330.6</ele>
        <time>2024-05-19T10:02:21Z</time>
      </trkpt>
      <trkpt lat="45.81113" lon="3.32869">
        <ele>330.4</ele>
        <time>2024-05-19T10:02:22Z</time>
      </trkpt>
      <trkpt lat="45.81117" lon="3.32879">
        <ele>330.4</ele>
        <time>2024-05-19T10:02:23Z</time>
      </trkpt>
      <trkpt lat="45.81121" lon="3.32889">
        <ele>330.2</ele>
        <time>2024-05-19T10:02:24Z</time>
      </trkpt>
      <trkpt lat="45.81124" lon="3.32899">
        <ele>330</ele>
        <time>2024-05-19T10:02:25Z</time>
      </trkpt>
      <trkpt lat="45.81128" lon="3.32909">
        <ele>330</ele>
        <time>2024-05-19T10:02:26Z</time>
      </trkpt>
      <trkpt lat="45.81132" lon="3.32919">
        <ele>329.8</ele>
        <time>2024-05-19T10:02:27Z</time>
      </trkpt>
      <trkpt lat="45.81135" lon="3.32928">
        <ele>329.8</ele>
        <time>2024-05-19T10:02:28Z</time>
      </trkpt>
      <trkpt lat="45.81139" lon="3.32938">
        <ele>329.6</ele>
        <time>2024-05-19T10:02:29Z</time>
      </trkpt>
      <trkpt lat="45.81142" lon="3.32948">
        <ele>329.4</ele>
        <time>2024-05-19T10:02:30Z</time>
      </trkpt>
      <trkpt lat="45.81146" lon="3.32957">
        <ele>329.2</ele>
        <time>2024-05-19T10:02:31Z</time>
      </trkpt>
      <trkpt lat="45.81146" lon="3.32957">
        <ele>329.2</ele>
        <time>2024-05-19T10:02:32Z</time>
      </trkpt>
      <trkpt lat="45.81153" lon="3.32977">
        <ele>329</ele>
        <time>2024-05-19T10:02:33Z</time>
      </trkpt>
      <trkpt lat="45.81157" lon="3.32986">
        <ele>328.8</ele>
        <time>2024-05-19T10:02:34Z</time>
      </trkpt>
      <trkpt lat="45.8116" lon="3.32996">
        <ele>328.8</ele>
        <time>2024-05-19T10:02:35Z</time>
      </trkpt>
      <trkpt lat="45.81164" lon="3.33005">
        <ele>328.6</ele>
        <time>2024-05-19T10:02:36Z</time>
      </trkpt>
      <trkpt lat="45.81167" lon="3.33015">
        <ele>328.6</ele>
        <time>2024-05-19T10:02:37Z</time>
      </trkpt>
      <trkpt lat="45.81171" lon="3.33024">
        <ele>328.4</ele>
        <time>2024-05-19T10:02:38Z</time>
      </trkpt>
      <trkpt lat="45.81174" lon="3.33034">
        <ele>328.2</ele>
        <time>2024-05-19T10:02:39Z</time>
      </trkpt>
      <trkpt lat="45.81178" lon="3.33043">
        <ele>328.2</ele>
        <time>2024-05-19T10:02:40Z</time>
      </trkpt>
      <trkpt lat="45.81181" lon="3.33052">
        <ele>328</ele>
        <time>2024-05-19T10:02:41Z</time>
      </trkpt>
      <trkpt lat="45.81185" lon="3.33062">
        <ele>328</ele>
        <time>2024-05-19T10:02:42Z</time>
      </trkpt>
      <trkpt lat="45.81188" lon="3.33071">
        <ele>327.8</ele>
        <time>2024-05-19T10:02:43Z</time>
      </trkpt>
      <trkpt lat="45.81192" lon="3.3308">
        <ele>327.6</ele>
        <time>2024-05-19T10:02:44Z</time>
      </trkpt>
      <trkpt lat="45.81195" lon="3.3309">
        <ele>327.4</ele>
        <time>2024-05-19T10:02:45Z</time>
      </trkpt>
      <trkpt lat="45.81199" lon="3.33099">
        <ele>327.4</ele>
        <time>2024-05-19T10:02:46Z</time>
      </trkpt>
      <trkpt lat="45.81202" lon="3.33108">
        <ele>327.2</ele>
        <time>2024-05-19T10:02:47Z</time>
      </trkpt>
      <trkpt lat="45.81206" lon="3.33118">
        <ele>327</ele>
        <time>2024-05-19T10:02:48Z</time>
      </trkpt>
      <trkpt lat="45.81209" lon="3.33127">
        <ele>327</ele>
        <time>2024-05-19T10:02:49Z</time>
      </trkpt>
      <trkpt lat="45.81212" lon="3.33136">
        <ele>326.8</ele>
        <time>2024-05-19T10:02:50Z</time>
      </trkpt>
      <trkpt lat="45.81216" lon="3.33145">
        <ele>326.6</ele>
        <time>2024-05-19T10:02:51Z</time>
      </trkpt>
      <trkpt lat="45.81219" lon="3.33154">
        <ele>326.6</ele>
        <time>2024-05-19T10:02:52Z</time>
      </trkpt>
      <trkpt lat="45.81223" lon="3.33163">
        <ele>326.6</ele>
        <time>2024-05-19T10:02:53Z</time>
      </trkpt>
      <trkpt lat="45.81226" lon="3.33172">
        <ele>326.4</ele>
        <time>2024-05-19T10:02:54Z</time>
      </trkpt>
      <trkpt lat="45.81229" lon="3.33181">
        <ele>326.2</ele>
        <time>2024-05-19T10:02:55Z</time>
      </trkpt>
      <trkpt lat="45.81233" lon="3.3319">
        <ele>326.2</ele>
        <time>2024-05-19T10:02:56Z</time>
      </trkpt>
      <trkpt lat="45.81236" lon="3.33199">
        <ele>326.2</ele>
        <time>2024-05-19T10:02:57Z</time>
      </trkpt>
      <trkpt lat="45.81239" lon="3.33208">
        <ele>326</ele>
        <time>2024-05-19T10:02:58Z</time>
      </trkpt>
      <trkpt lat="45.81243" lon="3.33217">
        <ele>326</ele>
        <time>2024-05-19T10:02:59Z</time>
      </trkpt>
      <trkpt lat="45.81243" lon="3.33217">
        <ele>325.8</ele>
        <time>2024-05-19T10:03:00Z</time>
      </trkpt>
      <trkpt lat="45.81243" lon="3.33217">
        <ele>325.8</ele>
        <time>2024-05-19T10:03:01Z</time>
      </trkpt>
      <trkpt lat="45.81253" lon="3.33244">
        <ele>325.6</ele>
        <time>2024-05-19T10:03:02Z</time>
      </trkpt>
      <trkpt lat="45.81256" lon="3.33252">
        <ele>325.6</ele>
        <time>2024-05-19T10:03:03Z</time>
      </trkpt>
      <trkpt lat="45.81259" lon="3.33261">
        <ele>325.4</ele>
        <time>2024-05-19T10:03:04Z</time>
      </trkpt>
      <trkpt lat="45.81262" lon="3.33269">
        <ele>325.4</ele>
        <time>2024-05-19T10:03:05Z</time>
      </trkpt>
      <trkpt lat="45.81265" lon="3.33278">
        <ele>325.4</ele>
        <time>2024-05-19T10:03:06Z</time>
      </trkpt>
      <trkpt lat="45.81269" lon="3.33286">
        <ele>325.4</ele>
        <time>2024-05-19T10:03:07Z</time>
      </trkpt>
      <trkpt lat="45.81272" lon="3.33295">
        <ele>325.2</ele>
        <time>2024-05-19T10:03:08Z</time>
      </trkpt>
      <trkpt lat="45.81272" lon="3.33295">
        <ele>325.2</ele>
        <time>2024-05-19T10:03:09Z</time>
      </trkpt>
      <trkpt lat="45.81275" lon="3.33303">
        <ele>325.2</ele>
        <time>2024-05-19T10:03:10Z</time>
      </trkpt>
      <trkpt lat="45.81281" lon="3.3332">
        <ele>325</ele>
        <time>2024-05-19T10:03:11Z</time>
      </trkpt>
      <trkpt lat="45.81284" lon="3.33329">
        <ele>325</ele>
        <time>2024-05-19T10:03:12Z</time>
      </trkpt>
      <trkpt lat="45.81288" lon="3.33338">
        <ele>324.8</ele>
        <time>2024-05-19T10:03:13Z</time>
      </trkpt>
      <trkpt lat="45.81291" lon="3.33346">
        <ele>324.8</ele>
        <time>2024-05-19T10:03:14Z</time>
      </trkpt>
      <trkpt lat="45.81291" lon="3.33346">
        <ele>324.8</ele>
        <time>2024-05-19T10:03:15Z</time>
      </trkpt>
      <trkpt lat="45.81297" lon="3.33364">
        <ele>324.6</ele>
        <time>2024-05-19T10:03:16Z</time>
      </trkpt>
      <trkpt lat="45.81301" lon="3.33373">
        <ele>324.6</ele>
        <time>2024-05-19T10:03:17Z</time>
      </trkpt>
      <trkpt lat="45.81304" lon="3.33382">
        <ele>324.6</ele>
        <time>2024-05-19T10:03:18Z</time>
      </trkpt>
      <trkpt lat="45.81307" lon="3.3339">
        <ele>324.4</ele>
        <time>2024-05-19T10:03:19Z</time>
      </trkpt>
      <trkpt lat="45.81311" lon="3.33399">
        <ele>324.4</ele>
        <time>2024-05-19T10:03:20Z</time>
      </trkpt>
      <trkpt lat="45.81314" lon="3.33408">
        <ele>324.4</ele>
        <time>2024-05-19T10:03:21Z</time>
      </trkpt>
      <trkpt lat="45.81317" lon="3.33417">
        <ele>324.2</ele>
        <time>2024-05-19T10:03:22Z</time>
      </trkpt>
      <trkpt lat="45.8132" lon="3.33426">
        <ele>324.2</ele>
        <time>2024-05-19T10:03:23Z</time>
      </trkpt>
      <trkpt lat="45.81324" lon="3.33435">
        <ele>324.2</ele>
        <time>2024-05-19T10:03:24Z</time>
      </trkpt>
      <trkpt lat="45.81327" lon="3.33443">
        <ele>324</ele>
        <time>2024-05-19T10:03:25Z</time>
      </trkpt>
      <trkpt lat="45.8133" lon="3.33452">
        <ele>324</ele>
        <time>2024-05-19T10:03:26Z</time>
      </trkpt>
      <trkpt lat="45.81334" lon="3.33461">
        <ele>324</ele>
        <time>2024-05-19T10:03:27Z</time>
      </trkpt>
      <trkpt lat="45.81337" lon="3.3347">
        <ele>323.8</ele>
        <time>2024-05-19T10:03:28Z</time>
      </trkpt>
      <trkpt lat="45.8134" lon="3.33478">
        <ele>323.8</ele>
        <time>2024-05-19T10:03:29Z</time>
      </trkpt>
      <trkpt lat="45.81343" lon="3.33487">
        <ele>323.8</ele>
        <time>2024-05-19T10:03:30Z</time>
      </trkpt>
      <trkpt lat="45.81346" lon="3.33495">
        <ele>323.8</ele>
        <time>2024-05-19T10:03:31Z</time>
      </trkpt>
      <trkpt lat="45.8135" lon="3.33504">
        <ele>323.8</ele>
        <time>2024-05-19T10:03:32Z</time>
      </trkpt>
      <trkpt lat="45.8135" lon="3.33504">
        <ele>323.8</ele>
        <time>2024-05-19T10:03:33Z</time>
      </trkpt>
      <trkpt lat="45.81356" lon="3.33521">
        <ele>323.8</ele>
        <time>2024-05-19T10:03:34Z</time>
      </trkpt>
      <trkpt lat="45.81359" lon="3.33529">
        <ele>323.8</ele>
        <time>2024-05-19T10:03:35Z</time>
      </trkpt>
      <trkpt lat="45.81362" lon="3.33537">
        <ele>323.6</ele>
        <time>2024-05-19T10:03:36Z</time>
      </trkpt>
      <trkpt lat="45.81365" lon="3.33545">
        <ele>323.6</ele>
        <time>2024-05-19T10:03:37Z</time>
      </trkpt>
      <trkpt lat="45.81368" lon="3.33554">
        <ele>323.6</ele>
        <time>2024-05-19T10:03:38Z</time>
      </trkpt>
      <trkpt lat="45.8137" lon="3.33562">
        <ele>323.6</ele>
        <time>2024-05-19T10:03:39Z</time>
      </trkpt>
      <trkpt lat="45.81373" lon="3.3357">
        <ele>323.6</ele>
        <time>2024-05-19T10:03:40Z</time>
      </trkpt>
      <trkpt lat="45.81376" lon="3.33578">
        <ele>323.6</ele>
        <time>2024-05-19T10:03:41Z</time>
      </trkpt>
      <trkpt lat="45.81376" lon="3.33578">
        <ele>323.6</ele>
        <time>2024-05-19T10:03:42Z</time>
      </trkpt>
      <trkpt lat="45.81382" lon="3.33594">
        <ele>323.6</ele>
        <time>2024-05-19T10:03:43Z</time>
      </trkpt>
      <trkpt lat="45.81385" lon="3.33602">
        <ele>323.6</ele>
        <time>2024-05-19T10:03:44Z</time>
      </trkpt>
      <trkpt lat="45.81388" lon="3.3361">
        <ele>323.6</ele>
        <time>2024-05-19T10:03:45Z</time>
      </trkpt>
      <trkpt lat="45.81391" lon="3.33618">
        <ele>323.6</ele>
        <time>2024-05-19T10:03:46Z</time>
      </trkpt>
      <trkpt lat="45.81394" lon="3.33626">
        <ele>323.6</ele>
        <time>2024-05-19T10:03:47Z</time>
      </trkpt>
      <trkpt lat="45.81396" lon="3.33634">
        <ele>323.6</ele>
        <time>2024-05-19T10:03:48Z</time>
      </trkpt>
      <trkpt lat="45.81399" lon="3.33642">
        <ele>323.6</ele>
        <time>2024-05-19T10:03:49Z</time>
      </trkpt>
      <trkpt lat="45.81402" lon="3.3365">
        <ele>323.6</ele>
        <time>2024-05-19T10:03:50Z</time>
      </trkpt>
      <trkpt lat="45.81405" lon="3.33658">
        <ele>323.6</ele>
        <time>2024-05-19T10:03:51Z</time>
      </trkpt>
      <trkpt lat="45.81408" lon="3.33666">
        <ele>323.6</ele>
        <time>2024-05-19T10:03:52Z</time>
      </trkpt>
      <trkpt lat="45.8141" lon="3.33674">
        <ele>323.6</ele>
        <time>2024-05-19T10:03:53Z</time>
      </trkpt>
      <trkpt lat="45.81413" lon="3.33682">
        <ele>323.6</ele>
        <time>2024-05-19T10:03:54Z</time>
      </trkpt>
      <trkpt lat="45.81416" lon="3.3369">
        <ele>323.6</ele>
        <time>2024-05-19T10:03:55Z</time>
      </trkpt>
      <trkpt lat="45.81419" lon="3.33698">
        <ele>323.6</ele>
        <time>2024-05-19T10:03:56Z</time>
      </trkpt>
      <trkpt lat="45.81422" lon="3.33706">
        <ele>323.6</ele>
        <time>2024-05-19T10:03:57Z</time>
      </trkpt>
      <trkpt lat="45.81424" lon="3.33714">
        <ele>323.6</ele>
        <time>2024-05-19T10:03:58Z</time>
      </trkpt>
      <trkpt lat="45.81427" lon="3.33722">
        <ele>323.6</ele>
        <time>2024-05-19T10:03:59Z</time>
      </trkpt>
      <trkpt lat="45.8143" lon="3.3373">
        <ele>323.6</ele>
        <time>2024-05-19T10:04:00Z</time>
      </trkpt>
      <trkpt lat="45.8143" lon="3.3373">
        <ele>323.6</ele>
        <time>2024-05-19T10:04:01Z</time>
      </trkpt>
      <trkpt lat="45.81436" lon="3.33746">
        <ele>323.4</ele>
        <time>2024-05-19T10:04:02Z</time>
      </trkpt>
      <trkpt lat="45.81439" lon="3.33755">
        <ele>323.6</ele>
        <time>2024-05-19T10:04:03Z</time>
      </trkpt>
      <trkpt lat="45.81442" lon="3.33763">
        <ele>323.6</ele>
        <time>2024-05-19T10:04:04Z</time>
      </trkpt>
      <trkpt lat="45.81445" lon="3.33772">
        <ele>323.6</ele>
        <time>2024-05-19T10:04:05Z</time>
      </trkpt>
      <trkpt lat="45.81449" lon="3.3378">
        <ele>323.6</ele>
        <time>2024-05-19T10:04:06Z</time>
      </trkpt>
      <trkpt lat="45.81452" lon="3.33789">
        <ele>323.6</ele>
        <time>2024-05-19T10:04:07Z</time>
      </trkpt>
      <trkpt lat="45.81455" lon="3.33797">
        <ele>323.6</ele>
        <time>2024-05-19T10:04:08Z</time>
      </trkpt>
      <trkpt lat="45.81458" lon="3.33805">
        <ele>323.6</ele>
        <time>2024-05-19T10:04:09Z</time>
      </trkpt>
      <trkpt lat="45.81461" lon="3.33813">
        <ele>323.4</ele>
        <time>2024-05-19T10:04:10Z</time>
      </trkpt>
      <trkpt lat="45.81464" lon="3.33822">
        <ele>323.6</ele>
        <time>2024-05-19T10:04:11Z</time>
      </trkpt>
      <trkpt lat="45.81467" lon="3.3383">
        <ele>323.4</ele>
        <time>2024-05-19T10:04:12Z</time>
      </trkpt>
      <trkpt lat="45.81466" lon="3.33841">
        <ele>323.6</ele>
        <time>2024-05-19T10:04:13Z</time>
      </trkpt>
      <trkpt lat="45.81473" lon="3.33846">
        <ele>323.4</ele>
        <time>2024-05-19T10:04:14Z</time>
      </trkpt>
      <trkpt lat="45.81476" lon="3.33854">
        <ele>323.4</ele>
        <time>2024-05-19T10:04:15Z</time>
      </trkpt>
      <trkpt lat="45.81479" lon="3.33863">
        <ele>323.4</ele>
        <time>2024-05-19T10:04:16Z</time>
      </trkpt>
      <trkpt lat="45.81482" lon="3.33871">
        <ele>323.4</ele>
        <time>2024-05-19T10:04:17Z</time>
      </trkpt>
      <trkpt lat="45.81485" lon="3.33879">
        <ele>323.4</ele>
        <time>2024-05-19T10:04:18Z</time>
      </trkpt>
      <trkpt lat="45.81488" lon="3.33887">
        <ele>323.4</ele>
        <time>2024-05-19T10:04:19Z</time>
      </trkpt>
      <trkpt lat="45.81492" lon="3.33896">
        <ele>323.4</ele>
        <time>2024-05-19T10:04:20Z</time>
      </trkpt>
      <trkpt lat="45.81495" lon="3.33904">
        <ele>323.4</ele>
        <time>2024-05-19T10:04:21Z</time>
      </trkpt>
      <trkpt lat="45.81498" lon="3.33912">
        <ele>323.4</ele>
        <time>2024-05-19T10:04:22Z</time>
      </trkpt>
      <trkpt lat="45.81501" lon="3.3392">
        <ele>323.4</ele>
        <time>2024-05-19T10:04:23Z</time>
      </trkpt>
      <trkpt lat="45.81504" lon="3.33929">
        <ele>323.4</ele>
        <time>2024-05-19T10:04:24Z</time>
      </trkpt>
      <trkpt lat="45.81507" lon="3.33937">
        <ele>323.4</ele>
        <time>2024-05-19T10:04:25Z</time>
      </trkpt>
      <trkpt lat="45.8151" lon="3.33945">
        <ele>323.4</ele>
        <time>2024-05-19T10:04:26Z</time>
      </trkpt>
      <trkpt lat="45.81513" lon="3.33953">
        <ele>323.4</ele>
        <time>2024-05-19T10:04:27Z</time>
      </trkpt>
      <trkpt lat="45.81516" lon="3.33961">
        <ele>323.4</ele>
        <time>2024-05-19T10:04:28Z</time>
      </trkpt>
      <trkpt lat="45.81519" lon="3.33969">
        <ele>323.4</ele>
        <time>2024-05-19T10:04:29Z</time>
      </trkpt>
      <trkpt lat="45.81522" lon="3.33978">
        <ele>323.4</ele>
        <time>2024-05-19T10:04:30Z</time>
      </trkpt>
      <trkpt lat="45.81525" lon="3.33985">
        <ele>323.4</ele>
        <time>2024-05-19T10:04:31Z</time>
      </trkpt>
      <trkpt lat="45.81528" lon="3.33993">
        <ele>323.4</ele>
        <time>2024-05-19T10:04:32Z</time>
      </trkpt>
      <trkpt lat="45.81531" lon="3.34001">
        <ele>323.4</ele>
        <time>2024-05-19T10:04:33Z</time>
      </trkpt>
      <trkpt lat="45.81531" lon="3.34001">
        <ele>323.4</ele>
        <time>2024-05-19T10:04:34Z</time>
      </trkpt>
      <trkpt lat="45.81537" lon="3.34017">
        <ele>323.4</ele>
        <time>2024-05-19T10:04:35Z</time>
      </trkpt>
      <trkpt lat="45.8154" lon="3.34025">
        <ele>323.4</ele>
        <time>2024-05-19T10:04:36Z</time>
      </trkpt>
      <trkpt lat="45.81542" lon="3.34033">
        <ele>323.6</ele>
        <time>2024-05-19T10:04:37Z</time>
      </trkpt>
      <trkpt lat="45.81545" lon="3.3404">
        <ele>323.4</ele>
        <time>2024-05-19T10:04:38Z</time>
      </trkpt>
      <trkpt lat="45.81548" lon="3.34048">
        <ele>323.4</ele>
        <time>2024-05-19T10:04:39Z</time>
      </trkpt>
      <trkpt lat="45.81551" lon="3.34056">
        <ele>323.6</ele>
        <time>2024-05-19T10:04:40Z</time>
      </trkpt>
      <trkpt lat="45.81554" lon="3.34064">
        <ele>323.6</ele>
        <time>2024-05-19T10:04:41Z</time>
      </trkpt>
      <trkpt lat="45.81557" lon="3.34072">
        <ele>323.6</ele>
        <time>2024-05-19T10:04:42Z</time>
      </trkpt>
      <trkpt lat="45.8156" lon="3.34081">
        <ele>323.6</ele>
        <time>2024-05-19T10:04:43Z</time>
      </trkpt>
      <trkpt lat="45.81563" lon="3.34089">
        <ele>323.6</ele>
        <time>2024-05-19T10:04:44Z</time>
      </trkpt>
      <trkpt lat="45.81566" lon="3.34097">
        <ele>323.6</ele>
        <time>2024-05-19T10:04:45Z</time>
      </trkpt>
      <trkpt lat="45.8157" lon="3.34105">
        <ele>323.6</ele>
        <time>2024-05-19T10:04:46Z</time>
      </trkpt>
      <trkpt lat="45.81573" lon="3.34114">
        <ele>323.6</ele>
        <time>2024-05-19T10:04:47Z</time>
      </trkpt>
      <trkpt lat="45.81576" lon="3.34122">
        <ele>323.6</ele>
        <time>2024-05-19T10:04:48Z</time>
      </trkpt>
      <trkpt lat="45.81579" lon="3.34131">
        <ele>323.6</ele>
        <time>2024-05-19T10:04:49Z</time>
      </trkpt>
      <trkpt lat="45.81582" lon="3.34139">
        <ele>323.6</ele>
        <time>2024-05-19T10:04:50Z</time>
      </trkpt>
      <trkpt lat="45.81585" lon="3.34147">
        <ele>323.6</ele>
        <time>2024-05-19T10:04:51Z</time>
      </trkpt>
      <trkpt lat="45.81588" lon="3.34155">
        <ele>323.6</ele>
        <time>2024-05-19T10:04:52Z</time>
      </trkpt>
      <trkpt lat="45.81591" lon="3.34164">
        <ele>323.6</ele>
        <time>2024-05-19T10:04:53Z</time>
      </trkpt>
      <trkpt lat="45.81594" lon="3.34172">
        <ele>323.6</ele>
        <time>2024-05-19T10:04:54Z</time>
      </trkpt>
      <trkpt lat="45.81598" lon="3.34181">
        <ele>323.6</ele>
        <time>2024-05-19T10:04:55Z</time>
      </trkpt>
      <trkpt lat="45.81601" lon="3.34189">
        <ele>323.6</ele>
        <time>2024-05-19T10:04:56Z</time>
      </trkpt>
      <trkpt lat="45.81604" lon="3.34197">
        <ele>323.6</ele>
        <time>2024-05-19T10:04:57Z</time>
      </trkpt>
      <trkpt lat="45.81607" lon="3.34206">
        <ele>323.6</ele>
        <time>2024-05-19T10:04:58Z</time>
      </trkpt>
      <trkpt lat="45.8161" lon="3.34214">
        <ele>323.6</ele>
        <time>2024-05-19T10:04:59Z</time>
      </trkpt>
      <trkpt lat="45.81613" lon="3.34222">
        <ele>323.6</ele>
        <time>2024-05-19T10:05:00Z</time>
      </trkpt>
      <trkpt lat="45.81616" lon="3.34231">
        <ele>323.6</ele>
        <time>2024-05-19T10:05:01Z</time>
      </trkpt>
      <trkpt lat="45.81619" lon="3.34239">
        <ele>323.6</ele>
        <time>2024-05-19T10:05:02Z</time>
      </trkpt>
      <trkpt lat="45.81623" lon="3.34248">
        <ele>323.6</ele>
        <time>2024-05-19T10:05:03Z</time>
      </trkpt>
      <trkpt lat="45.81626" lon="3.34256">
        <ele>323.6</ele>
        <time>2024-05-19T10:05:04Z</time>
      </trkpt>
      <trkpt lat="45.81629" lon="3.34265">
        <ele>323.6</ele>
        <time>2024-05-19T10:05:05Z</time>
      </trkpt>
      <trkpt lat="45.81632" lon="3.34274">
        <ele>323.6</ele>
        <time>2024-05-19T10:05:06Z</time>
      </trkpt>
      <trkpt lat="45.81636" lon="3.34283">
        <ele>323.6</ele>
        <time>2024-05-19T10:05:07Z</time>
      </trkpt>
      <trkpt lat="45.81639" lon="3.34291">
        <ele>323.6</ele>
        <time>2024-05-19T10:05:08Z</time>
      </trkpt>
      <trkpt lat="45.81642" lon="3.343">
        <ele>323.6</ele>
        <time>2024-05-19T10:05:09Z</time>
      </trkpt>
      <trkpt lat="45.81645" lon="3.34309">
        <ele>323.6</ele>
        <time>2024-05-19T10:05:10Z</time>
      </trkpt>
      <trkpt lat="45.81649" lon="3.34318">
        <ele>323.6</ele>
        <time>2024-05-19T10:05:11Z</time>
      </trkpt>
      <trkpt lat="45.81652" lon="3.34327">
        <ele>323.6</ele>
        <time>2024-05-19T10:05:12Z</time>
      </trkpt>
      <trkpt lat="45.81655" lon="3.34336">
        <ele>323.6</ele>
        <time>2024-05-19T10:05:13Z</time>
      </trkpt>
      <trkpt lat="45.81658" lon="3.34344">
        <ele>323.6</ele>
        <time>2024-05-19T10:05:14Z</time>
      </trkpt>
      <trkpt lat="45.81661" lon="3.34353">
        <ele>323.6</ele>
        <time>2024-05-19T10:05:15Z</time>
      </trkpt>
      <trkpt lat="45.81665" lon="3.34362">
        <ele>323.6</ele>
        <time>2024-05-19T10:05:16Z</time>
      </trkpt>
      <trkpt lat="45.81668" lon="3.34371">
        <ele>323.8</ele>
        <time>2024-05-19T10:05:17Z</time>
      </trkpt>
      <trkpt lat="45.81671" lon="3.3438">
        <ele>323.8</ele>
        <time>2024-05-19T10:05:18Z</time>
      </trkpt>
      <trkpt lat="45.81674" lon="3.34388">
        <ele>323.6</ele>
        <time>2024-05-19T10:05:19Z</time>
      </trkpt>
      <trkpt lat="45.81677" lon="3.34397">
        <ele>323.6</ele>
        <time>2024-05-19T10:05:20Z</time>
      </trkpt>
      <trkpt lat="45.8168" lon="3.34406">
        <ele>323.6</ele>
        <time>2024-05-19T10:05:21Z</time>
      </trkpt>
      <trkpt lat="45.81684" lon="3.34414">
        <ele>323.8</ele>
        <time>2024-05-19T10:05:22Z</time>
      </trkpt>
      <trkpt lat="45.81687" lon="3.34423">
        <ele>323.8</ele>
        <time>2024-05-19T10:05:23Z</time>
      </trkpt>
      <trkpt lat="45.8169" lon="3.34431">
        <ele>323.8</ele>
        <time>2024-05-19T10:05:24Z</time>
      </trkpt>
      <trkpt lat="45.81693" lon="3.3444">
        <ele>323.8</ele>
        <time>2024-05-19T10:05:25Z</time>
      </trkpt>
      <trkpt lat="45.81696" lon="3.34448">
        <ele>323.8</ele>
        <time>2024-05-19T10:05:26Z</time>
      </trkpt>
      <trkpt lat="45.81699" lon="3.34457">
        <ele>323.8</ele>
        <time>2024-05-19T10:05:27Z</time>
      </trkpt>
      <trkpt lat="45.81702" lon="3.34465">
        <ele>323.8</ele>
        <time>2024-05-19T10:05:28Z</time>
      </trkpt>
      <trkpt lat="45.81705" lon="3.34474">
        <ele>323.8</ele>
        <time>2024-05-19T10:05:29Z</time>
      </trkpt>
      <trkpt lat="45.81708" lon="3.34482">
        <ele>323.8</ele>
        <time>2024-05-19T10:05:30Z</time>
      </trkpt>
      <trkpt lat="45.81711" lon="3.34491">
        <ele>323.8</ele>
        <time>2024-05-19T10:05:31Z</time>
      </trkpt>
      <trkpt lat="45.81715" lon="3.345">
        <ele>323.8</ele>
        <time>2024-05-19T10:05:32Z</time>
      </trkpt>
      <trkpt lat="45.81718" lon="3.34508">
        <ele>323.8</ele>
        <time>2024-05-19T10:05:33Z</time>
      </trkpt>
      <trkpt lat="45.81721" lon="3.34517">
        <ele>323.8</ele>
        <time>2024-05-19T10:05:34Z</time>
      </trkpt>
      <trkpt lat="45.81724" lon="3.34526">
        <ele>323.8</ele>
        <time>2024-05-19T10:05:35Z</time>
      </trkpt>
      <trkpt lat="45.81727" lon="3.34535">
        <ele>323.8</ele>
        <time>2024-05-19T10:05:36Z</time>
      </trkpt>
      <trkpt lat="45.81731" lon="3.34543">
        <ele>324</ele>
        <time>2024-05-19T10:05:37Z</time>
      </trkpt>
      <trkpt lat="45.81734" lon="3.34552">
        <ele>324</ele>
        <time>2024-05-19T10:05:38Z</time>
      </trkpt>
      <trkpt lat="45.81737" lon="3.34561">
        <ele>324</ele>
        <time>2024-05-19T10:05:39Z</time>
      </trkpt>
      <trkpt lat="45.8174" lon="3.34569">
        <ele>324</ele>
        <time>2024-05-19T10:05:40Z</time>
      </trkpt>
      <trkpt lat="45.81743" lon="3.34578">
        <ele>324</ele>
        <time>2024-05-19T10:05:41Z</time>
      </trkpt>
      <trkpt lat="45.81746" lon="3.34587">
        <ele>324</ele>
        <time>2024-05-19T10:05:42Z</time>
      </trkpt>
      <trkpt lat="45.8175" lon="3.34596">
        <ele>324</ele>
        <time>2024-05-19T10:05:43Z</time>
      </trkpt>
      <trkpt lat="45.81753" lon="3.34604">
        <ele>324</ele>
        <time>2024-05-19T10:05:44Z</time>
      </trkpt>
      <trkpt lat="45.81756" lon="3.34612">
        <ele>324</ele>
        <time>2024-05-19T10:05:45Z</time>
      </trkpt>
      <trkpt lat="45.81759" lon="3.34621">
        <ele>324.2</ele>
        <time>2024-05-19T10:05:46Z</time>
      </trkpt>
      <trkpt lat="45.81762" lon="3.34629">
        <ele>324.2</ele>
        <time>2024-05-19T10:05:47Z</time>
      </trkpt>
      <trkpt lat="45.81765" lon="3.34638">
        <ele>324.2</ele>
        <time>2024-05-19T10:05:48Z</time>
      </trkpt>
      <trkpt lat="45.81768" lon="3.34646">
        <ele>324.2</ele>
        <time>2024-05-19T10:05:49Z</time>
      </trkpt>
      <trkpt lat="45.81771" lon="3.34655">
        <ele>324.2</ele>
        <time>2024-05-19T10:05:50Z</time>
      </trkpt>
      <trkpt lat="45.81774" lon="3.34663">
        <ele>324.2</ele>
        <time>2024-05-19T10:05:51Z</time>
      </trkpt>
      <trkpt lat="45.81777" lon="3.34672">
        <ele>324.2</ele>
        <time>2024-05-19T10:05:52Z</time>
      </trkpt>
      <trkpt lat="45.8178" lon="3.34681">
        <ele>324.2</ele>
        <time>2024-05-19T10:05:53Z</time>
      </trkpt>
      <trkpt lat="45.81784" lon="3.34689">
        <ele>324.2</ele>
        <time>2024-05-19T10:05:54Z</time>
      </trkpt>
      <trkpt lat="45.81787" lon="3.34697">
        <ele>324.2</ele>
        <time>2024-05-19T10:05:55Z</time>
      </trkpt>
      <trkpt lat="45.8179" lon="3.34706">
        <ele>324.2</ele>
        <time>2024-05-19T10:05:56Z</time>
      </trkpt>
      <trkpt lat="45.81793" lon="3.34714">
        <ele>324.2</ele>
        <time>2024-05-19T10:05:57Z</time>
      </trkpt>
      <trkpt lat="45.81796" lon="3.34723">
        <ele>324.2</ele>
        <time>2024-05-19T10:05:58Z</time>
      </trkpt>
      <trkpt lat="45.81799" lon="3.34731">
        <ele>324.2</ele>
        <time>2024-05-19T10:05:59Z</time>
      </trkpt>
      <trkpt lat="45.81802" lon="3.3474">
        <ele>324.2</ele>
        <time>2024-05-19T10:06:00Z</time>
      </trkpt>
      <trkpt lat="45.81805" lon="3.34748">
        <ele>324.2</ele>
        <time>2024-05-19T10:06:01Z</time>
      </trkpt>
      <trkpt lat="45.81809" lon="3.34757">
        <ele>324.2</ele>
        <time>2024-05-19T10:06:02Z</time>
      </trkpt>
      <trkpt lat="45.81812" lon="3.34765">
        <ele>324.2</ele>
        <time>2024-05-19T10:06:03Z</time>
      </trkpt>
      <trkpt lat="45.81815" lon="3.34774">
        <ele>324.2</ele>
        <time>2024-05-19T10:06:04Z</time>
      </trkpt>
      <trkpt lat="45.81818" lon="3.34782">
        <ele>324.2</ele>
        <time>2024-05-19T10:06:05Z</time>
      </trkpt>
      <trkpt lat="45.81821" lon="3.34791">
        <ele>324.2</ele>
        <time>2024-05-19T10:06:06Z</time>
      </trkpt>
      <trkpt lat="45.81824" lon="3.34799">
        <ele>324.2</ele>
        <time>2024-05-19T10:06:07Z</time>
      </trkpt>
      <trkpt lat="45.81827" lon="3.34808">
        <ele>324.2</ele>
        <time>2024-05-19T10:06:08Z</time>
      </trkpt>
      <trkpt lat="45.81831" lon="3.34816">
        <ele>324.2</ele>
        <time>2024-05-19T10:06:09Z</time>
      </trkpt>
      <trkpt lat="45.81834" lon="3.34825">
        <ele>324.2</ele>
        <time>2024-05-19T10:06:10Z</time>
      </trkpt>
      <trkpt lat="45.81837" lon="3.34834">
        <ele>324.2</ele>
        <time>2024-05-19T10:06:11Z</time>
      </trkpt>
      <trkpt lat="45.8184" lon="3.34842">
        <ele>324.2</ele>
        <time>2024-05-19T10:06:12Z</time>
      </trkpt>
      <trkpt lat="45.81843" lon="3.34851">
        <ele>324.2</ele>
        <time>2024-05-19T10:06:13Z</time>
      </trkpt>
      <trkpt lat="45.81846" lon="3.3486">
        <ele>324.2</ele>
        <time>2024-05-19T10:06:14Z</time>
      </trkpt>
      <trkpt lat="45.8185" lon="3.34868">
        <ele>324.2</ele>
        <time>2024-05-19T10:06:15Z</time>
      </trkpt>
      <trkpt lat="45.81853" lon="3.34877">
        <ele>324.4</ele>
        <time>2024-05-19T10:06:16Z</time>
      </trkpt>
      <trkpt lat="45.81856" lon="3.34885">
        <ele>324.2</ele>
        <time>2024-05-19T10:06:17Z</time>
      </trkpt>
      <trkpt lat="45.81859" lon="3.34894">
        <ele>324.2</ele>
        <time>2024-05-19T10:06:18Z</time>
      </trkpt>
      <trkpt lat="45.81863" lon="3.34903">
        <ele>324.2</ele>
        <time>2024-05-19T10:06:19Z</time>
      </trkpt>
      <trkpt lat="45.81866" lon="3.34912">
        <ele>324</ele>
        <time>2024-05-19T10:06:20Z</time>
      </trkpt>
      <trkpt lat="45.81869" lon="3.34921">
        <ele>324</ele>
        <time>2024-05-19T10:06:21Z</time>
      </trkpt>
      <trkpt lat="45.81873" lon="3.3493">
        <ele>324</ele>
        <time>2024-05-19T10:06:22Z</time>
      </trkpt>
      <trkpt lat="45.81876" lon="3.34939">
        <ele>324</ele>
        <time>2024-05-19T10:06:23Z</time>
      </trkpt>
      <trkpt lat="45.81879" lon="3.34949">
        <ele>324</ele>
        <time>2024-05-19T10:06:24Z</time>
      </trkpt>
      <trkpt lat="45.81883" lon="3.34958">
        <ele>324</ele>
        <time>2024-05-19T10:06:25Z</time>
      </trkpt>
      <trkpt lat="45.81886" lon="3.34967">
        <ele>324</ele>
        <time>2024-05-19T10:06:26Z</time>
      </trkpt>
      <trkpt lat="45.8189" lon="3.34976">
        <ele>324</ele>
        <time>2024-05-19T10:06:27Z</time>
      </trkpt>
      <trkpt lat="45.81893" lon="3.34986">
        <ele>324</ele>
        <time>2024-05-19T10:06:28Z</time>
      </trkpt>
      <trkpt lat="45.81896" lon="3.34995">
        <ele>323.8</ele>
        <time>2024-05-19T10:06:29Z</time>
      </trkpt>
      <trkpt lat="45.819" lon="3.35004">
        <ele>323.8</ele>
        <time>2024-05-19T10:06:30Z</time>
      </trkpt>
      <trkpt lat="45.81903" lon="3.35013">
        <ele>323.8</ele>
        <time>2024-05-19T10:06:31Z</time>
      </trkpt>
      <trkpt lat="45.81907" lon="3.35022">
        <ele>323.8</ele>
        <time>2024-05-19T10:06:32Z</time>
      </trkpt>
      <trkpt lat="45.8191" lon="3.35031">
        <ele>323.8</ele>
        <time>2024-05-19T10:06:33Z</time>
      </trkpt>
      <trkpt lat="45.81913" lon="3.3504">
        <ele>324</ele>
        <time>2024-05-19T10:06:34Z</time>
      </trkpt>
      <trkpt lat="45.81917" lon="3.35049">
        <ele>324</ele>
        <time>2024-05-19T10:06:35Z</time>
      </trkpt>
      <trkpt lat="45.8192" lon="3.35058">
        <ele>324</ele>
        <time>2024-05-19T10:06:36Z</time>
      </trkpt>
      <trkpt lat="45.81923" lon="3.35067">
        <ele>323.8</ele>
        <time>2024-05-19T10:06:37Z</time>
      </trkpt>
      <trkpt lat="45.81927" lon="3.35076">
        <ele>323.8</ele>
        <time>2024-05-19T10:06:38Z</time>
      </trkpt>
      <trkpt lat="45.8193" lon="3.35085">
        <ele>323.8</ele>
        <time>2024-05-19T10:06:39Z</time>
      </trkpt>
      <trkpt lat="45.81934" lon="3.35094">
        <ele>323.8</ele>
        <time>2024-05-19T10:06:40Z</time>
      </trkpt>
      <trkpt lat="45.81937" lon="3.35103">
        <ele>323.8</ele>
        <time>2024-05-19T10:06:41Z</time>
      </trkpt>
      <trkpt lat="45.8194" lon="3.35112">
        <ele>323.8</ele>
        <time>2024-05-19T10:06:42Z</time>
      </trkpt>
      <trkpt lat="45.81944" lon="3.35121">
        <ele>323.8</ele>
        <time>2024-05-19T10:06:43Z</time>
      </trkpt>
      <trkpt lat="45.81947" lon="3.35131">
        <ele>323.8</ele>
        <time>2024-05-19T10:06:44Z</time>
      </trkpt>
      <trkpt lat="45.8195" lon="3.35141">
        <ele>323.8</ele>
        <time>2024-05-19T10:06:45Z</time>
      </trkpt>
      <trkpt lat="45.81953" lon="3.3515">
        <ele>323.8</ele>
        <time>2024-05-19T10:06:46Z</time>
      </trkpt>
      <trkpt lat="45.81957" lon="3.3516">
        <ele>323.8</ele>
        <time>2024-05-19T10:06:47Z</time>
      </trkpt>
      <trkpt lat="45.8196" lon="3.35169">
        <ele>323.8</ele>
        <time>2024-05-19T10:06:48Z</time>
      </trkpt>
      <trkpt lat="45.81964" lon="3.35178">
        <ele>323.8</ele>
        <time>2024-05-19T10:06:49Z</time>
      </trkpt>
      <trkpt lat="45.81967" lon="3.35188">
        <ele>323.8</ele>
        <time>2024-05-19T10:06:50Z</time>
      </trkpt>
      <trkpt lat="45.81971" lon="3.35197">
        <ele>323.8</ele>
        <time>2024-05-19T10:06:51Z</time>
      </trkpt>
      <trkpt lat="45.81974" lon="3.35206">
        <ele>323.8</ele>
        <time>2024-05-19T10:06:52Z</time>
      </trkpt>
      <trkpt lat="45.81977" lon="3.35214">
        <ele>323.8</ele>
        <time>2024-05-19T10:06:53Z</time>
      </trkpt>
      <trkpt lat="45.81981" lon="3.35223">
        <ele>323.8</ele>
        <time>2024-05-19T10:06:54Z</time>
      </trkpt>
      <trkpt lat="45.81984" lon="3.35232">
        <ele>323.8</ele>
        <time>2024-05-19T10:06:55Z</time>
      </trkpt>
      <trkpt lat="45.81987" lon="3.35241">
        <ele>323.8</ele>
        <time>2024-05-19T10:06:56Z</time>
      </trkpt>
      <trkpt lat="45.81991" lon="3.3525">
        <ele>323.8</ele>
        <time>2024-05-19T10:06:57Z</time>
      </trkpt>
      <trkpt lat="45.81994" lon="3.35259">
        <ele>323.8</ele>
        <time>2024-05-19T10:06:58Z</time>
      </trkpt>
      <trkpt lat="45.81997" lon="3.35267">
        <ele>323.6</ele>
        <time>2024-05-19T10:06:59Z</time>
      </trkpt>
      <trkpt lat="45.82" lon="3.35276">
        <ele>323.6</ele>
        <time>2024-05-19T10:07:00Z</time>
      </trkpt>
      <trkpt lat="45.82004" lon="3.35285">
        <ele>323.8</ele>
        <time>2024-05-19T10:07:01Z</time>
      </trkpt>
      <trkpt lat="45.82007" lon="3.35294">
        <ele>323.8</ele>
        <time>2024-05-19T10:07:02Z</time>
      </trkpt>
      <trkpt lat="45.8201" lon="3.35302">
        <ele>323.8</ele>
        <time>2024-05-19T10:07:03Z</time>
      </trkpt>
      <trkpt lat="45.82013" lon="3.35311">
        <ele>323.8</ele>
        <time>2024-05-19T10:07:04Z</time>
      </trkpt>
      <trkpt lat="45.82017" lon="3.3532">
        <ele>323.8</ele>
        <time>2024-05-19T10:07:05Z</time>
      </trkpt>
      <trkpt lat="45.8202" lon="3.35328">
        <ele>323.8</ele>
        <time>2024-05-19T10:07:06Z</time>
      </trkpt>
      <trkpt lat="45.82023" lon="3.35337">
        <ele>323.8</ele>
        <time>2024-05-19T10:07:07Z</time>
      </trkpt>
      <trkpt lat="45.82027" lon="3.35346">
        <ele>323.8</ele>
        <time>2024-05-19T10:07:08Z</time>
      </trkpt>
      <trkpt lat="45.8203" lon="3.35355">
        <ele>323.6</ele>
        <time>2024-05-19T10:07:09Z</time>
      </trkpt>
      <trkpt lat="45.82033" lon="3.35364">
        <ele>323.6</ele>
        <time>2024-05-19T10:07:10Z</time>
      </trkpt>
      <trkpt lat="45.82037" lon="3.35373">
        <ele>323.6</ele>
        <time>2024-05-19T10:07:11Z</time>
      </trkpt>
      <trkpt lat="45.8204" lon="3.35382">
        <ele>323.6</ele>
        <time>2024-05-19T10:07:12Z</time>
      </trkpt>
      <trkpt lat="45.82044" lon="3.35392">
        <ele>323.6</ele>
        <time>2024-05-19T10:07:13Z</time>
      </trkpt>
      <trkpt lat="45.82047" lon="3.35401">
        <ele>323.6</ele>
        <time>2024-05-19T10:07:14Z</time>
      </trkpt>
      <trkpt lat="45.8205" lon="3.3541">
        <ele>323.6</ele>
        <time>2024-05-19T10:07:15Z</time>
      </trkpt>
      <trkpt lat="45.82054" lon="3.35419">
        <ele>323.6</ele>
        <time>2024-05-19T10:07:16Z</time>
      </trkpt>
      <trkpt lat="45.82057" lon="3.35428">
        <ele>323.6</ele>
        <time>2024-05-19T10:07:17Z</time>
      </trkpt>
      <trkpt lat="45.8206" lon="3.35436">
        <ele>323.6</ele>
        <time>2024-05-19T10:07:18Z</time>
      </trkpt>
      <trkpt lat="45.82064" lon="3.35445">
        <ele>323.6</ele>
        <time>2024-05-19T10:07:19Z</time>
      </trkpt>
      <trkpt lat="45.82067" lon="3.35454">
        <ele>323.8</ele>
        <time>2024-05-19T10:07:20Z</time>
      </trkpt>
      <trkpt lat="45.8207" lon="3.35463">
        <ele>323.8</ele>
        <time>2024-05-19T10:07:21Z</time>
      </trkpt>
      <trkpt lat="45.82074" lon="3.35472">
        <ele>323.8</ele>
        <time>2024-05-19T10:07:22Z</time>
      </trkpt>
      <trkpt lat="45.82077" lon="3.35481">
        <ele>323.8</ele>
        <time>2024-05-19T10:07:23Z</time>
      </trkpt>
      <trkpt lat="45.8208" lon="3.35489">
        <ele>323.8</ele>
        <time>2024-05-19T10:07:24Z</time>
      </trkpt>
      <trkpt lat="45.82084" lon="3.35498">
        <ele>323.8</ele>
        <time>2024-05-19T10:07:25Z</time>
      </trkpt>
      <trkpt lat="45.82087" lon="3.35507">
        <ele>323.8</ele>
        <time>2024-05-19T10:07:26Z</time>
      </trkpt>
      <trkpt lat="45.8209" lon="3.35516">
        <ele>323.8</ele>
        <time>2024-05-19T10:07:27Z</time>
      </trkpt>
      <trkpt lat="45.82094" lon="3.35525">
        <ele>323.8</ele>
        <time>2024-05-19T10:07:28Z</time>
      </trkpt>
      <trkpt lat="45.82097" lon="3.35534">
        <ele>323.8</ele>
        <time>2024-05-19T10:07:29Z</time>
      </trkpt>
      <trkpt lat="45.821" lon="3.35542">
        <ele>323.8</ele>
        <time>2024-05-19T10:07:30Z</time>
      </trkpt>
      <trkpt lat="45.82103" lon="3.3555">
        <ele>323.8</ele>
        <time>2024-05-19T10:07:31Z</time>
      </trkpt>
      <trkpt lat="45.82106" lon="3.35559">
        <ele>323.8</ele>
        <time>2024-05-19T10:07:32Z</time>
      </trkpt>
      <trkpt lat="45.82109" lon="3.35567">
        <ele>324</ele>
        <time>2024-05-19T10:07:33Z</time>
      </trkpt>
      <trkpt lat="45.82113" lon="3.35576">
        <ele>324</ele>
        <time>2024-05-19T10:07:34Z</time>
      </trkpt>
      <trkpt lat="45.82116" lon="3.35585">
        <ele>324</ele>
        <time>2024-05-19T10:07:35Z</time>
      </trkpt>
      <trkpt lat="45.8212" lon="3.35594">
        <ele>324</ele>
        <time>2024-05-19T10:07:36Z</time>
      </trkpt>
      <trkpt lat="45.82123" lon="3.35603">
        <ele>324</ele>
        <time>2024-05-19T10:07:37Z</time>
      </trkpt>
      <trkpt lat="45.82126" lon="3.35612">
        <ele>324</ele>
        <time>2024-05-19T10:07:38Z</time>
      </trkpt>
      <trkpt lat="45.82129" lon="3.35621">
        <ele>324</ele>
        <time>2024-05-19T10:07:39Z</time>
      </trkpt>
      <trkpt lat="45.82133" lon="3.35629">
        <ele>324</ele>
        <time>2024-05-19T10:07:40Z</time>
      </trkpt>
      <trkpt lat="45.82136" lon="3.35638">
        <ele>324</ele>
        <time>2024-05-19T10:07:41Z</time>
      </trkpt>
      <trkpt lat="45.82139" lon="3.35646">
        <ele>324</ele>
        <time>2024-05-19T10:07:42Z</time>
      </trkpt>
      <trkpt lat="45.82142" lon="3.35655">
        <ele>324</ele>
        <time>2024-05-19T10:07:43Z</time>
      </trkpt>
      <trkpt lat="45.82145" lon="3.35663">
        <ele>324.2</ele>
        <time>2024-05-19T10:07:44Z</time>
      </trkpt>
      <trkpt lat="45.82148" lon="3.35671">
        <ele>324.2</ele>
        <time>2024-05-19T10:07:45Z</time>
      </trkpt>
      <trkpt lat="45.82151" lon="3.35679">
        <ele>324.2</ele>
        <time>2024-05-19T10:07:46Z</time>
      </trkpt>
      <trkpt lat="45.82154" lon="3.35687">
        <ele>324.2</ele>
        <time>2024-05-19T10:07:47Z</time>
      </trkpt>
      <trkpt lat="45.82157" lon="3.35695">
        <ele>324.2</ele>
        <time>2024-05-19T10:07:48Z</time>
      </trkpt>
      <trkpt lat="45.8216" lon="3.35703">
        <ele>324.2</ele>
        <time>2024-05-19T10:07:49Z</time>
      </trkpt>
      <trkpt lat="45.82163" lon="3.35711">
        <ele>324.2</ele>
        <time>2024-05-19T10:07:50Z</time>
      </trkpt>
      <trkpt lat="45.82166" lon="3.35719">
        <ele>324.2</ele>
        <time>2024-05-19T10:07:51Z</time>
      </trkpt>
      <trkpt lat="45.82169" lon="3.35727">
        <ele>324.2</ele>
        <time>2024-05-19T10:07:52Z</time>
      </trkpt>
      <trkpt lat="45.82172" lon="3.35735">
        <ele>324.4</ele>
        <time>2024-05-19T10:07:53Z</time>
      </trkpt>
      <trkpt lat="45.82175" lon="3.35743">
        <ele>324.4</ele>
        <time>2024-05-19T10:07:54Z</time>
      </trkpt>
      <trkpt lat="45.82178" lon="3.35751">
        <ele>324.4</ele>
        <time>2024-05-19T10:07:55Z</time>
      </trkpt>
      <trkpt lat="45.82181" lon="3.35758">
        <ele>324.4</ele>
        <time>2024-05-19T10:07:56Z</time>
      </trkpt>
      <trkpt lat="45.82183" lon="3.35766">
        <ele>324.4</ele>
        <time>2024-05-19T10:07:57Z</time>
      </trkpt>
      <trkpt lat="45.82186" lon="3.35774">
        <ele>324.4</ele>
        <time>2024-05-19T10:07:58Z</time>
      </trkpt>
      <trkpt lat="45.82189" lon="3.35781">
        <ele>324.4</ele>
        <time>2024-05-19T10:07:59Z</time>
      </trkpt>
      <trkpt lat="45.82192" lon="3.35789">
        <ele>324.4</ele>
        <time>2024-05-19T10:08:00Z</time>
      </trkpt>
      <trkpt lat="45.82195" lon="3.35797">
        <ele>324.4</ele>
        <time>2024-05-19T10:08:01Z</time>
      </trkpt>
      <trkpt lat="45.82198" lon="3.35805">
        <ele>324.4</ele>
        <time>2024-05-19T10:08:02Z</time>
      </trkpt>
      <trkpt lat="45.822" lon="3.35812">
        <ele>324.4</ele>
        <time>2024-05-19T10:08:03Z</time>
      </trkpt>
      <trkpt lat="45.82203" lon="3.3582">
        <ele>324.6</ele>
        <time>2024-05-19T10:08:04Z</time>
      </trkpt>
      <trkpt lat="45.82206" lon="3.35827">
        <ele>324.6</ele>
        <time>2024-05-19T10:08:05Z</time>
      </trkpt>
      <trkpt lat="45.82209" lon="3.35835">
        <ele>324.6</ele>
        <time>2024-05-19T10:08:06Z</time>
      </trkpt>
      <trkpt lat="45.82212" lon="3.35842">
        <ele>324.6</ele>
        <time>2024-05-19T10:08:07Z</time>
      </trkpt>
      <trkpt lat="45.82214" lon="3.3585">
        <ele>324.6</ele>
        <time>2024-05-19T10:08:08Z</time>
      </trkpt>
      <trkpt lat="45.82217" lon="3.35857">
        <ele>324.8</ele>
        <time>2024-05-19T10:08:09Z</time>
      </trkpt>
      <trkpt lat="45.8222" lon="3.35865">
        <ele>324.8</ele>
        <time>2024-05-19T10:08:10Z</time>
      </trkpt>
      <trkpt lat="45.82223" lon="3.35872">
        <ele>324.8</ele>
        <time>2024-05-19T10:08:11Z</time>
      </trkpt>
      <trkpt lat="45.82226" lon="3.3588">
        <ele>324.8</ele>
        <time>2024-05-19T10:08:12Z</time>
      </trkpt>
      <trkpt lat="45.82228" lon="3.35888">
        <ele>324.8</ele>
        <time>2024-05-19T10:08:13Z</time>
      </trkpt>
      <trkpt lat="45.82231" lon="3.35895">
        <ele>324.8</ele>
        <time>2024-05-19T10:08:14Z</time>
      </trkpt>
      <trkpt lat="45.82234" lon="3.35902">
        <ele>324.8</ele>
        <time>2024-05-19T10:08:15Z</time>
      </trkpt>
      <trkpt lat="45.82236" lon="3.35909">
        <ele>324.8</ele>
        <time>2024-05-19T10:08:16Z</time>
      </trkpt>
      <trkpt lat="45.82239" lon="3.35916">
        <ele>324.8</ele>
        <time>2024-05-19T10:08:17Z</time>
      </trkpt>
      <trkpt lat="45.82241" lon="3.35923">
        <ele>325</ele>
        <time>2024-05-19T10:08:18Z</time>
      </trkpt>
      <trkpt lat="45.82244" lon="3.3593">
        <ele>325</ele>
        <time>2024-05-19T10:08:19Z</time>
      </trkpt>
      <trkpt lat="45.82247" lon="3.35938">
        <ele>325</ele>
        <time>2024-05-19T10:08:20Z</time>
      </trkpt>
      <trkpt lat="45.82249" lon="3.35945">
        <ele>325</ele>
        <time>2024-05-19T10:08:21Z</time>
      </trkpt>
      <trkpt lat="45.82252" lon="3.35952">
        <ele>325.2</ele>
        <time>2024-05-19T10:08:22Z</time>
      </trkpt>
      <trkpt lat="45.82254" lon="3.35959">
        <ele>325.2</ele>
        <time>2024-05-19T10:08:23Z</time>
      </trkpt>
      <trkpt lat="45.82257" lon="3.35966">
        <ele>325.2</ele>
        <time>2024-05-19T10:08:24Z</time>
      </trkpt>
      <trkpt lat="45.8226" lon="3.35973">
        <ele>325.4</ele>
        <time>2024-05-19T10:08:25Z</time>
      </trkpt>
      <trkpt lat="45.82262" lon="3.3598">
        <ele>325.4</ele>
        <time>2024-05-19T10:08:26Z</time>
      </trkpt>
      <trkpt lat="45.82265" lon="3.35987">
        <ele>325.4</ele>
        <time>2024-05-19T10:08:27Z</time>
      </trkpt>
      <trkpt lat="45.82267" lon="3.35994">
        <ele>325.4</ele>
        <time>2024-05-19T10:08:28Z</time>
      </trkpt>
      <trkpt lat="45.8227" lon="3.36001">
        <ele>325.6</ele>
        <time>2024-05-19T10:08:29Z</time>
      </trkpt>
      <trkpt lat="45.82272" lon="3.36008">
        <ele>325.6</ele>
        <time>2024-05-19T10:08:30Z</time>
      </trkpt>
      <trkpt lat="45.82275" lon="3.36014">
        <ele>325.6</ele>
        <time>2024-05-19T10:08:31Z</time>
      </trkpt>
      <trkpt lat="45.82277" lon="3.36021">
        <ele>325.6</ele>
        <time>2024-05-19T10:08:32Z</time>
      </trkpt>
      <trkpt lat="45.8228" lon="3.36027">
        <ele>325.6</ele>
        <time>2024-05-19T10:08:33Z</time>
      </trkpt>
      <trkpt lat="45.82282" lon="3.36034">
        <ele>325.6</ele>
        <time>2024-05-19T10:08:34Z</time>
      </trkpt>
      <trkpt lat="45.82285" lon="3.36042">
        <ele>325.6</ele>
        <time>2024-05-19T10:08:35Z</time>
      </trkpt>
      <trkpt lat="45.82288" lon="3.3605">
        <ele>325.6</ele>
        <time>2024-05-19T10:08:36Z</time>
      </trkpt>
      <trkpt lat="45.82291" lon="3.36058">
        <ele>325.6</ele>
        <time>2024-05-19T10:08:37Z</time>
      </trkpt>
      <trkpt lat="45.82294" lon="3.36066">
        <ele>325.6</ele>
        <time>2024-05-19T10:08:38Z</time>
      </trkpt>
      <trkpt lat="45.82297" lon="3.36074">
        <ele>325.6</ele>
        <time>2024-05-19T10:08:39Z</time>
      </trkpt>
      <trkpt lat="45.82299" lon="3.36081">
        <ele>325.6</ele>
        <time>2024-05-19T10:08:40Z</time>
      </trkpt>
      <trkpt lat="45.82302" lon="3.36089">
        <ele>325.6</ele>
        <time>2024-05-19T10:08:41Z</time>
      </trkpt>
      <trkpt lat="45.82305" lon="3.36096">
        <ele>325.6</ele>
        <time>2024-05-19T10:08:42Z</time>
      </trkpt>
      <trkpt lat="45.82308" lon="3.36104">
        <ele>325.8</ele>
        <time>2024-05-19T10:08:43Z</time>
      </trkpt>
      <trkpt lat="45.82311" lon="3.36111">
        <ele>325.8</ele>
        <time>2024-05-19T10:08:44Z</time>
      </trkpt>
      <trkpt lat="45.82313" lon="3.36119">
        <ele>325.8</ele>
        <time>2024-05-19T10:08:45Z</time>
      </trkpt>
      <trkpt lat="45.82316" lon="3.36126">
        <ele>325.8</ele>
        <time>2024-05-19T10:08:46Z</time>
      </trkpt>
      <trkpt lat="45.82319" lon="3.36134">
        <ele>325.8</ele>
        <time>2024-05-19T10:08:47Z</time>
      </trkpt>
      <trkpt lat="45.82322" lon="3.36141">
        <ele>325.8</ele>
        <time>2024-05-19T10:08:48Z</time>
      </trkpt>
      <trkpt lat="45.82324" lon="3.36149">
        <ele>326</ele>
        <time>2024-05-19T10:08:49Z</time>
      </trkpt>
      <trkpt lat="45.82327" lon="3.36156">
        <ele>326</ele>
        <time>2024-05-19T10:08:50Z</time>
      </trkpt>
      <trkpt lat="45.8233" lon="3.36163">
        <ele>326</ele>
        <time>2024-05-19T10:08:51Z</time>
      </trkpt>
      <trkpt lat="45.82332" lon="3.3617">
        <ele>326</ele>
        <time>2024-05-19T10:08:52Z</time>
      </trkpt>
      <trkpt lat="45.82335" lon="3.36178">
        <ele>326</ele>
        <time>2024-05-19T10:08:53Z</time>
      </trkpt>
      <trkpt lat="45.82338" lon="3.36185">
        <ele>326.2</ele>
        <time>2024-05-19T10:08:54Z</time>
      </trkpt>
      <trkpt lat="45.82341" lon="3.36193">
        <ele>326.2</ele>
        <time>2024-05-19T10:08:55Z</time>
      </trkpt>
      <trkpt lat="45.82344" lon="3.36201">
        <ele>326.2</ele>
        <time>2024-05-19T10:08:56Z</time>
      </trkpt>
      <trkpt lat="45.82347" lon="3.36209">
        <ele>326.4</ele>
        <time>2024-05-19T10:08:57Z</time>
      </trkpt>
      <trkpt lat="45.8235" lon="3.36217">
        <ele>326.4</ele>
        <time>2024-05-19T10:08:58Z</time>
      </trkpt>
      <trkpt lat="45.82353" lon="3.36224">
        <ele>326.4</ele>
        <time>2024-05-19T10:08:59Z</time>
      </trkpt>
      <trkpt lat="45.82356" lon="3.36232">
        <ele>326.4</ele>
        <time>2024-05-19T10:09:00Z</time>
      </trkpt>
      <trkpt lat="45.82359" lon="3.3624">
        <ele>326.6</ele>
        <time>2024-05-19T10:09:01Z</time>
      </trkpt>
      <trkpt lat="45.82362" lon="3.36247">
        <ele>326.6</ele>
        <time>2024-05-19T10:09:02Z</time>
      </trkpt>
      <trkpt lat="45.82365" lon="3.36255">
        <ele>326.6</ele>
        <time>2024-05-19T10:09:03Z</time>
      </trkpt>
      <trkpt lat="45.82367" lon="3.36262">
        <ele>326.6</ele>
        <time>2024-05-19T10:09:04Z</time>
      </trkpt>
      <trkpt lat="45.8237" lon="3.3627">
        <ele>326.6</ele>
        <time>2024-05-19T10:09:05Z</time>
      </trkpt>
      <trkpt lat="45.82373" lon="3.36277">
        <ele>326.6</ele>
        <time>2024-05-19T10:09:06Z</time>
      </trkpt>
      <trkpt lat="45.82376" lon="3.36285">
        <ele>326.8</ele>
        <time>2024-05-19T10:09:07Z</time>
      </trkpt>
      <trkpt lat="45.82379" lon="3.36292">
        <ele>326.8</ele>
        <time>2024-05-19T10:09:08Z</time>
      </trkpt>
      <trkpt lat="45.82381" lon="3.36299">
        <ele>326.8</ele>
        <time>2024-05-19T10:09:09Z</time>
      </trkpt>
      <trkpt lat="45.82384" lon="3.36306">
        <ele>327</ele>
        <time>2024-05-19T10:09:10Z</time>
      </trkpt>
      <trkpt lat="45.82387" lon="3.36313">
        <ele>327</ele>
        <time>2024-05-19T10:09:11Z</time>
      </trkpt>
      <trkpt lat="45.82389" lon="3.3632">
        <ele>327</ele>
        <time>2024-05-19T10:09:12Z</time>
      </trkpt>
      <trkpt lat="45.82392" lon="3.36328">
        <ele>327</ele>
        <time>2024-05-19T10:09:13Z</time>
      </trkpt>
      <trkpt lat="45.82394" lon="3.36335">
        <ele>327</ele>
        <time>2024-05-19T10:09:14Z</time>
      </trkpt>
      <trkpt lat="45.82397" lon="3.36342">
        <ele>327.2</ele>
        <time>2024-05-19T10:09:15Z</time>
      </trkpt>
      <trkpt lat="45.824" lon="3.36349">
        <ele>327.2</ele>
        <time>2024-05-19T10:09:16Z</time>
      </trkpt>
      <trkpt lat="45.82402" lon="3.36356">
        <ele>327.2</ele>
        <time>2024-05-19T10:09:17Z</time>
      </trkpt>
      <trkpt lat="45.82405" lon="3.36363">
        <ele>327.2</ele>
        <time>2024-05-19T10:09:18Z</time>
      </trkpt>
      <trkpt lat="45.82407" lon="3.3637">
        <ele>327.4</ele>
        <time>2024-05-19T10:09:19Z</time>
      </trkpt>
      <trkpt lat="45.8241" lon="3.36377">
        <ele>327.4</ele>
        <time>2024-05-19T10:09:20Z</time>
      </trkpt>
      <trkpt lat="45.82413" lon="3.36385">
        <ele>327.4</ele>
        <time>2024-05-19T10:09:21Z</time>
      </trkpt>
      <trkpt lat="45.82415" lon="3.36392">
        <ele>327.6</ele>
        <time>2024-05-19T10:09:22Z</time>
      </trkpt>
      <trkpt lat="45.82418" lon="3.36399">
        <ele>327.6</ele>
        <time>2024-05-19T10:09:23Z</time>
      </trkpt>
      <trkpt lat="45.82421" lon="3.36407">
        <ele>327.6</ele>
        <time>2024-05-19T10:09:24Z</time>
      </trkpt>
      <trkpt lat="45.82423" lon="3.36414">
        <ele>327.8</ele>
        <time>2024-05-19T10:09:25Z</time>
      </trkpt>
      <trkpt lat="45.82426" lon="3.36421">
        <ele>327.8</ele>
        <time>2024-05-19T10:09:26Z</time>
      </trkpt>
      <trkpt lat="45.82429" lon="3.36429">
        <ele>327.8</ele>
        <time>2024-05-19T10:09:27Z</time>
      </trkpt>
      <trkpt lat="45.82431" lon="3.36436">
        <ele>327.8</ele>
        <time>2024-05-19T10:09:28Z</time>
      </trkpt>
      <trkpt lat="45.82434" lon="3.36443">
        <ele>328</ele>
        <time>2024-05-19T10:09:29Z</time>
      </trkpt>
      <trkpt lat="45.82437" lon="3.3645">
        <ele>328</ele>
        <time>2024-05-19T10:09:30Z</time>
      </trkpt>
      <trkpt lat="45.82439" lon="3.36457">
        <ele>328.2</ele>
        <time>2024-05-19T10:09:31Z</time>
      </trkpt>
      <trkpt lat="45.82442" lon="3.36465">
        <ele>328.2</ele>
        <time>2024-05-19T10:09:32Z</time>
      </trkpt>
      <trkpt lat="45.82445" lon="3.36472">
        <ele>328.2</ele>
        <time>2024-05-19T10:09:33Z</time>
      </trkpt>
      <trkpt lat="45.82447" lon="3.36479">
        <ele>328.4</ele>
        <time>2024-05-19T10:09:34Z</time>
      </trkpt>
      <trkpt lat="45.8245" lon="3.36486">
        <ele>328.4</ele>
        <time>2024-05-19T10:09:35Z</time>
      </trkpt>
      <trkpt lat="45.82452" lon="3.36493">
        <ele>328.4</ele>
        <time>2024-05-19T10:09:36Z</time>
      </trkpt>
      <trkpt lat="45.82455" lon="3.36501">
        <ele>328.6</ele>
        <time>2024-05-19T10:09:37Z</time>
      </trkpt>
      <trkpt lat="45.82458" lon="3.36508">
        <ele>328.6</ele>
        <time>2024-05-19T10:09:38Z</time>
      </trkpt>
      <trkpt lat="45.82461" lon="3.36516">
        <ele>328.6</ele>
        <time>2024-05-19T10:09:39Z</time>
      </trkpt>
      <trkpt lat="45.82463" lon="3.36523">
        <ele>328.6</ele>
        <time>2024-05-19T10:09:40Z</time>
      </trkpt>
      <trkpt lat="45.82466" lon="3.3653">
        <ele>328.8</ele>
        <time>2024-05-19T10:09:41Z</time>
      </trkpt>
      <trkpt lat="45.82469" lon="3.36538">
        <ele>328.8</ele>
        <time>2024-05-19T10:09:42Z</time>
      </trkpt>
      <trkpt lat="45.82471" lon="3.36545">
        <ele>328.8</ele>
        <time>2024-05-19T10:09:43Z</time>
      </trkpt>
      <trkpt lat="45.82474" lon="3.36552">
        <ele>329</ele>
        <time>2024-05-19T10:09:44Z</time>
      </trkpt>
      <trkpt lat="45.82477" lon="3.36559">
        <ele>329</ele>
        <time>2024-05-19T10:09:45Z</time>
      </trkpt>
      <trkpt lat="45.82479" lon="3.36567">
        <ele>329</ele>
        <time>2024-05-19T10:09:46Z</time>
      </trkpt>
      <trkpt lat="45.82482" lon="3.36574">
        <ele>329</ele>
        <time>2024-05-19T10:09:47Z</time>
      </trkpt>
      <trkpt lat="45.82484" lon="3.36581">
        <ele>329.2</ele>
        <time>2024-05-19T10:09:48Z</time>
      </trkpt>
      <trkpt lat="45.82487" lon="3.36588">
        <ele>329.2</ele>
        <time>2024-05-19T10:09:49Z</time>
      </trkpt>
      <trkpt lat="45.8249" lon="3.36596">
        <ele>329.2</ele>
        <time>2024-05-19T10:09:50Z</time>
      </trkpt>
      <trkpt lat="45.82493" lon="3.36603">
        <ele>329.2</ele>
        <time>2024-05-19T10:09:51Z</time>
      </trkpt>
      <trkpt lat="45.82495" lon="3.3661">
        <ele>329.4</ele>
        <time>2024-05-19T10:09:52Z</time>
      </trkpt>
      <trkpt lat="45.82498" lon="3.36617">
        <ele>329.4</ele>
        <time>2024-05-19T10:09:53Z</time>
      </trkpt>
      <trkpt lat="45.825" lon="3.36624">
        <ele>329.4</ele>
        <time>2024-05-19T10:09:54Z</time>
      </trkpt>
      <trkpt lat="45.82503" lon="3.36632">
        <ele>329.6</ele>
        <time>2024-05-19T10:09:55Z</time>
      </trkpt>
      <trkpt lat="45.82506" lon="3.36639">
        <ele>329.6</ele>
        <time>2024-05-19T10:09:56Z</time>
      </trkpt>
      <trkpt lat="45.82508" lon="3.36646">
        <ele>329.8</ele>
        <time>2024-05-19T10:09:57Z</time>
      </trkpt>
      <trkpt lat="45.82511" lon="3.36653">
        <ele>329.8</ele>
        <time>2024-05-19T10:09:58Z</time>
      </trkpt>
      <trkpt lat="45.82513" lon="3.3666">
        <ele>329.8</ele>
        <time>2024-05-19T10:09:59Z</time>
      </trkpt>
      <trkpt lat="45.82516" lon="3.36667">
        <ele>330</ele>
        <time>2024-05-19T10:10:00Z</time>
      </trkpt>
      <trkpt lat="45.82519" lon="3.36674">
        <ele>330</ele>
        <time>2024-05-19T10:10:01Z</time>
      </trkpt>
      <trkpt lat="45.82521" lon="3.36681">
        <ele>330</ele>
        <time>2024-05-19T10:10:02Z</time>
      </trkpt>
      <trkpt lat="45.82524" lon="3.36688">
        <ele>330.2</ele>
        <time>2024-05-19T10:10:03Z</time>
      </trkpt>
      <trkpt lat="45.82526" lon="3.36695">
        <ele>330.2</ele>
        <time>2024-05-19T10:10:04Z</time>
      </trkpt>
      <trkpt lat="45.82529" lon="3.36702">
        <ele>330.2</ele>
        <time>2024-05-19T10:10:05Z</time>
      </trkpt>
      <trkpt lat="45.82531" lon="3.36709">
        <ele>330.2</ele>
        <time>2024-05-19T10:10:06Z</time>
      </trkpt>
      <trkpt lat="45.82534" lon="3.36715">
        <ele>330.4</ele>
        <time>2024-05-19T10:10:07Z</time>
      </trkpt>
      <trkpt lat="45.82536" lon="3.36722">
        <ele>330.4</ele>
        <time>2024-05-19T10:10:08Z</time>
      </trkpt>
      <trkpt lat="45.82539" lon="3.36729">
        <ele>330.4</ele>
        <time>2024-05-19T10:10:09Z</time>
      </trkpt>
      <trkpt lat="45.82541" lon="3.36735">
        <ele>330.6</ele>
        <time>2024-05-19T10:10:10Z</time>
      </trkpt>
      <trkpt lat="45.82543" lon="3.36742">
        <ele>330.6</ele>
        <time>2024-05-19T10:10:11Z</time>
      </trkpt>
      <trkpt lat="45.82546" lon="3.36749">
        <ele>330.6</ele>
        <time>2024-05-19T10:10:12Z</time>
      </trkpt>
      <trkpt lat="45.82548" lon="3.36755">
        <ele>330.8</ele>
        <time>2024-05-19T10:10:13Z</time>
      </trkpt>
      <trkpt lat="45.82551" lon="3.36762">
        <ele>330.8</ele>
        <time>2024-05-19T10:10:14Z</time>
      </trkpt>
      <trkpt lat="45.82553" lon="3.36769">
        <ele>331</ele>
        <time>2024-05-19T10:10:15Z</time>
      </trkpt>
      <trkpt lat="45.82556" lon="3.36776">
        <ele>331</ele>
        <time>2024-05-19T10:10:16Z</time>
      </trkpt>
      <trkpt lat="45.82558" lon="3.36783">
        <ele>331.2</ele>
        <time>2024-05-19T10:10:17Z</time>
      </trkpt>
      <trkpt lat="45.8256" lon="3.3679">
        <ele>331.2</ele>
        <time>2024-05-19T10:10:18Z</time>
      </trkpt>
      <trkpt lat="45.82563" lon="3.36796">
        <ele>331.2</ele>
        <time>2024-05-19T10:10:19Z</time>
      </trkpt>
      <trkpt lat="45.82565" lon="3.36803">
        <ele>331.4</ele>
        <time>2024-05-19T10:10:20Z</time>
      </trkpt>
      <trkpt lat="45.82567" lon="3.3681">
        <ele>331.4</ele>
        <time>2024-05-19T10:10:21Z</time>
      </trkpt>
      <trkpt lat="45.8257" lon="3.36817">
        <ele>331.6</ele>
        <time>2024-05-19T10:10:22Z</time>
      </trkpt>
      <trkpt lat="45.82572" lon="3.36823">
        <ele>331.6</ele>
        <time>2024-05-19T10:10:23Z</time>
      </trkpt>
      <trkpt lat="45.82574" lon="3.3683">
        <ele>331.6</ele>
        <time>2024-05-19T10:10:24Z</time>
      </trkpt>
      <trkpt lat="45.82577" lon="3.36837">
        <ele>331.8</ele>
        <time>2024-05-19T10:10:25Z</time>
      </trkpt>
      <trkpt lat="45.82579" lon="3.36844">
        <ele>331.8</ele>
        <time>2024-05-19T10:10:26Z</time>
      </trkpt>
      <trkpt lat="45.82581" lon="3.36851">
        <ele>331.8</ele>
        <time>2024-05-19T10:10:27Z</time>
      </trkpt>
      <trkpt lat="45.82584" lon="3.36857">
        <ele>332</ele>
        <time>2024-05-19T10:10:28Z</time>
      </trkpt>
      <trkpt lat="45.82586" lon="3.36864">
        <ele>332</ele>
        <time>2024-05-19T10:10:29Z</time>
      </trkpt>
      <trkpt lat="45.82588" lon="3.36871">
        <ele>332</ele>
        <time>2024-05-19T10:10:30Z</time>
      </trkpt>
      <trkpt lat="45.82591" lon="3.36878">
        <ele>332.2</ele>
        <time>2024-05-19T10:10:31Z</time>
      </trkpt>
      <trkpt lat="45.82593" lon="3.36885">
        <ele>332.2</ele>
        <time>2024-05-19T10:10:32Z</time>
      </trkpt>
      <trkpt lat="45.82594" lon="3.36892">
        <ele>332.4</ele>
        <time>2024-05-19T10:10:33Z</time>
      </trkpt>
      <trkpt lat="45.82596" lon="3.36899">
        <ele>332.4</ele>
        <time>2024-05-19T10:10:34Z</time>
      </trkpt>
      <trkpt lat="45.82598" lon="3.36907">
        <ele>332.4</ele>
        <time>2024-05-19T10:10:35Z</time>
      </trkpt>
      <trkpt lat="45.82599" lon="3.36915">
        <ele>332.6</ele>
        <time>2024-05-19T10:10:36Z</time>
      </trkpt>
      <trkpt lat="45.82601" lon="3.36923">
        <ele>332.6</ele>
        <time>2024-05-19T10:10:37Z</time>
      </trkpt>
      <trkpt lat="45.82602" lon="3.36931">
        <ele>332.6</ele>
        <time>2024-05-19T10:10:38Z</time>
      </trkpt>
      <trkpt lat="45.82604" lon="3.36939">
        <ele>332.8</ele>
        <time>2024-05-19T10:10:39Z</time>
      </trkpt>
      <trkpt lat="45.82605" lon="3.36947">
        <ele>332.8</ele>
        <time>2024-05-19T10:10:40Z</time>
      </trkpt>
      <trkpt lat="45.82606" lon="3.36955">
        <ele>333</ele>
        <time>2024-05-19T10:10:41Z</time>
      </trkpt>
      <trkpt lat="45.82607" lon="3.36962">
        <ele>333</ele>
        <time>2024-05-19T10:10:42Z</time>
      </trkpt>
      <trkpt lat="45.82607" lon="3.3697">
        <ele>333</ele>
        <time>2024-05-19T10:10:43Z</time>
      </trkpt>
      <trkpt lat="45.82607" lon="3.36978">
        <ele>333.2</ele>
        <time>2024-05-19T10:10:44Z</time>
      </trkpt>
      <trkpt lat="45.8261" lon="3.36987">
        <ele>333.2</ele>
        <time>2024-05-19T10:10:45Z</time>
      </trkpt>
      <trkpt lat="45.82613" lon="3.36994">
        <ele>333.4</ele>
        <time>2024-05-19T10:10:46Z</time>
      </trkpt>
      <trkpt lat="45.82627" lon="3.36989">
        <ele>333.4</ele>
        <time>2024-05-19T10:10:47Z</time>
      </trkpt>
      <trkpt lat="45.8263" lon="3.36995">
        <ele>333.4</ele>
        <time>2024-05-19T10:10:48Z</time>
      </trkpt>
      <trkpt lat="45.82633" lon="3.37">
        <ele>333.6</ele>
        <time>2024-05-19T10:10:49Z</time>
      </trkpt>
      <trkpt lat="45.82636" lon="3.37005">
        <ele>333.6</ele>
        <time>2024-05-19T10:10:50Z</time>
      </trkpt>
      <trkpt lat="45.82638" lon="3.37012">
        <ele>333.8</ele>
        <time>2024-05-19T10:10:51Z</time>
      </trkpt>
      <trkpt lat="45.8264" lon="3.37018">
        <ele>333.8</ele>
        <time>2024-05-19T10:10:52Z</time>
      </trkpt>
      <trkpt lat="45.82642" lon="3.37024">
        <ele>334</ele>
        <time>2024-05-19T10:10:53Z</time>
      </trkpt>
      <trkpt lat="45.82645" lon="3.37029">
        <ele>334</ele>
        <time>2024-05-19T10:10:54Z</time>
      </trkpt>
      <trkpt lat="45.82647" lon="3.37035">
        <ele>334</ele>
        <time>2024-05-19T10:10:55Z</time>
      </trkpt>
      <trkpt lat="45.82649" lon="3.37041">
        <ele>334.2</ele>
        <time>2024-05-19T10:10:56Z</time>
      </trkpt>
      <trkpt lat="45.82651" lon="3.37046">
        <ele>334.4</ele>
        <time>2024-05-19T10:10:57Z</time>
      </trkpt>
      <trkpt lat="45.82653" lon="3.37052">
        <ele>334.4</ele>
        <time>2024-05-19T10:10:58Z</time>
      </trkpt>
      <trkpt lat="45.82655" lon="3.37057">
        <ele>334.6</ele>
        <time>2024-05-19T10:10:59Z</time>
      </trkpt>
      <trkpt lat="45.82657" lon="3.37063">
        <ele>334.6</ele>
        <time>2024-05-19T10:11:00Z</time>
      </trkpt>
      <trkpt lat="45.82659" lon="3.37068">
        <ele>334.8</ele>
        <time>2024-05-19T10:11:01Z</time>
      </trkpt>
      <trkpt lat="45.82661" lon="3.37073">
        <ele>335</ele>
        <time>2024-05-19T10:11:02Z</time>
      </trkpt>
      <trkpt lat="45.82663" lon="3.37078">
        <ele>335</ele>
        <time>2024-05-19T10:11:03Z</time>
      </trkpt>
      <trkpt lat="45.82665" lon="3.37084">
        <ele>335.2</ele>
        <time>2024-05-19T10:11:04Z</time>
      </trkpt>
      <trkpt lat="45.82667" lon="3.37089">
        <ele>335.4</ele>
        <time>2024-05-19T10:11:05Z</time>
      </trkpt>
      <trkpt lat="45.82669" lon="3.37094">
        <ele>335.6</ele>
        <time>2024-05-19T10:11:06Z</time>
      </trkpt>
      <trkpt lat="45.82671" lon="3.37099">
        <ele>335.6</ele>
        <time>2024-05-19T10:11:07Z</time>
      </trkpt>
      <trkpt lat="45.82673" lon="3.37104">
        <ele>335.8</ele>
        <time>2024-05-19T10:11:08Z</time>
      </trkpt>
      <trkpt lat="45.82675" lon="3.3711">
        <ele>336</ele>
        <time>2024-05-19T10:11:09Z</time>
      </trkpt>
      <trkpt lat="45.82677" lon="3.37115">
        <ele>336</ele>
        <time>2024-05-19T10:11:10Z</time>
      </trkpt>
      <trkpt lat="45.82679" lon="3.3712">
        <ele>336.2</ele>
        <time>2024-05-19T10:11:11Z</time>
      </trkpt>
      <trkpt lat="45.82681" lon="3.37126">
        <ele>336.2</ele>
        <time>2024-05-19T10:11:12Z</time>
      </trkpt>
      <trkpt lat="45.82683" lon="3.37132">
        <ele>336.4</ele>
        <time>2024-05-19T10:11:13Z</time>
      </trkpt>
      <trkpt lat="45.82684" lon="3.37138">
        <ele>336.6</ele>
        <time>2024-05-19T10:11:14Z</time>
      </trkpt>
      <trkpt lat="45.82686" lon="3.37144">
        <ele>336.6</ele>
        <time>2024-05-19T10:11:15Z</time>
      </trkpt>
      <trkpt lat="45.82687" lon="3.3715">
        <ele>336.8</ele>
        <time>2024-05-19T10:11:16Z</time>
      </trkpt>
      <trkpt lat="45.82689" lon="3.37156">
        <ele>337</ele>
        <time>2024-05-19T10:11:17Z</time>
      </trkpt>
      <trkpt lat="45.8269" lon="3.37162">
        <ele>337</ele>
        <time>2024-05-19T10:11:18Z</time>
      </trkpt>
      <trkpt lat="45.8269" lon="3.37169">
        <ele>337.2</ele>
        <time>2024-05-19T10:11:19Z</time>
      </trkpt>
      <trkpt lat="45.82691" lon="3.37176">
        <ele>337.2</ele>
        <time>2024-05-19T10:11:20Z</time>
      </trkpt>
      <trkpt lat="45.82692" lon="3.37183">
        <ele>337.4</ele>
        <time>2024-05-19T10:11:21Z</time>
      </trkpt>
      <trkpt lat="45.82693" lon="3.37189">
        <ele>337.4</ele>
        <time>2024-05-19T10:11:22Z</time>
      </trkpt>
      <trkpt lat="45.82693" lon="3.37196">
        <ele>337.6</ele>
        <time>2024-05-19T10:11:23Z</time>
      </trkpt>
      <trkpt lat="45.82694" lon="3.37202">
        <ele>337.8</ele>
        <time>2024-05-19T10:11:24Z</time>
      </trkpt>
      <trkpt lat="45.82695" lon="3.37208">
        <ele>337.8</ele>
        <time>2024-05-19T10:11:25Z</time>
      </trkpt>
      <trkpt lat="45.82695" lon="3.37215">
        <ele>338</ele>
        <time>2024-05-19T10:11:26Z</time>
      </trkpt>
      <trkpt lat="45.82696" lon="3.37222">
        <ele>338</ele>
        <time>2024-05-19T10:11:27Z</time>
      </trkpt>
      <trkpt lat="45.82696" lon="3.37229">
        <ele>338.2</ele>
        <time>2024-05-19T10:11:28Z</time>
      </trkpt>
      <trkpt lat="45.82697" lon="3.37235">
        <ele>338.2</ele>
        <time>2024-05-19T10:11:29Z</time>
      </trkpt>
      <trkpt lat="45.82697" lon="3.37242">
        <ele>338.4</ele>
        <time>2024-05-19T10:11:30Z</time>
      </trkpt>
      <trkpt lat="45.82698" lon="3.37248">
        <ele>338.4</ele>
        <time>2024-05-19T10:11:31Z</time>
      </trkpt>
      <trkpt lat="45.82698" lon="3.37254">
        <ele>338.6</ele>
        <time>2024-05-19T10:11:32Z</time>
      </trkpt>
      <trkpt lat="45.82699" lon="3.3726">
        <ele>338.8</ele>
        <time>2024-05-19T10:11:33Z</time>
      </trkpt>
      <trkpt lat="45.82699" lon="3.37267">
        <ele>338.8</ele>
        <time>2024-05-19T10:11:34Z</time>
      </trkpt>
      <trkpt lat="45.827" lon="3.37273">
        <ele>339</ele>
        <time>2024-05-19T10:11:35Z</time>
      </trkpt>
      <trkpt lat="45.827" lon="3.37279">
        <ele>339</ele>
        <time>2024-05-19T10:11:36Z</time>
      </trkpt>
      <trkpt lat="45.82701" lon="3.37286">
        <ele>339.2</ele>
        <time>2024-05-19T10:11:37Z</time>
      </trkpt>
      <trkpt lat="45.82701" lon="3.37293">
        <ele>339.2</ele>
        <time>2024-05-19T10:11:38Z</time>
      </trkpt>
      <trkpt lat="45.82701" lon="3.373">
        <ele>339.4</ele>
        <time>2024-05-19T10:11:39Z</time>
      </trkpt>
      <trkpt lat="45.82702" lon="3.37307">
        <ele>339.4</ele>
        <time>2024-05-19T10:11:40Z</time>
      </trkpt>
      <trkpt lat="45.82702" lon="3.37314">
        <ele>339.6</ele>
        <time>2024-05-19T10:11:41Z</time>
      </trkpt>
      <trkpt lat="45.82703" lon="3.3732">
        <ele>339.8</ele>
        <time>2024-05-19T10:11:42Z</time>
      </trkpt>
      <trkpt lat="45.82703" lon="3.37327">
        <ele>339.8</ele>
        <time>2024-05-19T10:11:43Z</time>
      </trkpt>
      <trkpt lat="45.82704" lon="3.37334">
        <ele>340</ele>
        <time>2024-05-19T10:11:44Z</time>
      </trkpt>
      <trkpt lat="45.82704" lon="3.37341">
        <ele>340</ele>
        <time>2024-05-19T10:11:45Z</time>
      </trkpt>
      <trkpt lat="45.82705" lon="3.37349">
        <ele>340.2</ele>
        <time>2024-05-19T10:11:46Z</time>
      </trkpt>
      <trkpt lat="45.82705" lon="3.37355">
        <ele>340.4</ele>
        <time>2024-05-19T10:11:47Z</time>
      </trkpt>
      <trkpt lat="45.82706" lon="3.37362">
        <ele>340.4</ele>
        <time>2024-05-19T10:11:48Z</time>
      </trkpt>
      <trkpt lat="45.82706" lon="3.3737">
        <ele>340.6</ele>
        <time>2024-05-19T10:11:49Z</time>
      </trkpt>
      <trkpt lat="45.82707" lon="3.37377">
        <ele>340.8</ele>
        <time>2024-05-19T10:11:50Z</time>
      </trkpt>
      <trkpt lat="45.82707" lon="3.37384">
        <ele>340.8</ele>
        <time>2024-05-19T10:11:51Z</time>
      </trkpt>
      <trkpt lat="45.82708" lon="3.37391">
        <ele>341</ele>
        <time>2024-05-19T10:11:52Z</time>
      </trkpt>
      <trkpt lat="45.82708" lon="3.37398">
        <ele>341</ele>
        <time>2024-05-19T10:11:53Z</time>
      </trkpt>
      <trkpt lat="45.82709" lon="3.37406">
        <ele>341.2</ele>
        <time>2024-05-19T10:11:54Z</time>
      </trkpt>
      <trkpt lat="45.82709" lon="3.37413">
        <ele>341.2</ele>
        <time>2024-05-19T10:11:55Z</time>
      </trkpt>
      <trkpt lat="45.82709" lon="3.3742">
        <ele>341.4</ele>
        <time>2024-05-19T10:11:56Z</time>
      </trkpt>
      <trkpt lat="45.82709" lon="3.37428">
        <ele>341.4</ele>
        <time>2024-05-19T10:11:57Z</time>
      </trkpt>
      <trkpt lat="45.82709" lon="3.37435">
        <ele>341.6</ele>
        <time>2024-05-19T10:11:58Z</time>
      </trkpt>
      <trkpt lat="45.82709" lon="3.37442">
        <ele>341.8</ele>
        <time>2024-05-19T10:11:59Z</time>
      </trkpt>
      <trkpt lat="45.82709" lon="3.37449">
        <ele>341.8</ele>
        <time>2024-05-19T10:12:00Z</time>
      </trkpt>
      <trkpt lat="45.82709" lon="3.37457">
        <ele>341.8</ele>
        <time>2024-05-19T10:12:01Z</time>
      </trkpt>
      <trkpt lat="45.82709" lon="3.37464">
        <ele>342</ele>
        <time>2024-05-19T10:12:02Z</time>
      </trkpt>
      <trkpt lat="45.8271" lon="3.37472">
        <ele>342</ele>
        <time>2024-05-19T10:12:03Z</time>
      </trkpt>
      <trkpt lat="45.8271" lon="3.37479">
        <ele>342.2</ele>
        <time>2024-05-19T10:12:04Z</time>
      </trkpt>
      <trkpt lat="45.8271" lon="3.37487">
        <ele>342.2</ele>
        <time>2024-05-19T10:12:05Z</time>
      </trkpt>
      <trkpt lat="45.82711" lon="3.37494">
        <ele>342.4</ele>
        <time>2024-05-19T10:12:06Z</time>
      </trkpt>
      <trkpt lat="45.82711" lon="3.37502">
        <ele>342.4</ele>
        <time>2024-05-19T10:12:07Z</time>
      </trkpt>
      <trkpt lat="45.82711" lon="3.37509">
        <ele>342.6</ele>
        <time>2024-05-19T10:12:08Z</time>
      </trkpt>
      <trkpt lat="45.82712" lon="3.37516">
        <ele>342.6</ele>
        <time>2024-05-19T10:12:09Z</time>
      </trkpt>
      <trkpt lat="45.82712" lon="3.37524">
        <ele>342.8</ele>
        <time>2024-05-19T10:12:10Z</time>
      </trkpt>
      <trkpt lat="45.82712" lon="3.37531">
        <ele>342.8</ele>
        <time>2024-05-19T10:12:11Z</time>
      </trkpt>
      <trkpt lat="45.82713" lon="3.37538">
        <ele>343</ele>
        <time>2024-05-19T10:12:12Z</time>
      </trkpt>
      <trkpt lat="45.82712" lon="3.37545">
        <ele>343</ele>
        <time>2024-05-19T10:12:13Z</time>
      </trkpt>
      <trkpt lat="45.82712" lon="3.37551">
        <ele>343.2</ele>
        <time>2024-05-19T10:12:14Z</time>
      </trkpt>
      <trkpt lat="45.82711" lon="3.37558">
        <ele>343.2</ele>
        <time>2024-05-19T10:12:15Z</time>
      </trkpt>
      <trkpt lat="45.8271" lon="3.37565">
        <ele>343.4</ele>
        <time>2024-05-19T10:12:16Z</time>
      </trkpt>
      <trkpt lat="45.82709" lon="3.37571">
        <ele>343.6</ele>
        <time>2024-05-19T10:12:17Z</time>
      </trkpt>
      <trkpt lat="45.82708" lon="3.37577">
        <ele>343.6</ele>
        <time>2024-05-19T10:12:18Z</time>
      </trkpt>
      <trkpt lat="45.82707" lon="3.37584">
        <ele>343.8</ele>
        <time>2024-05-19T10:12:19Z</time>
      </trkpt>
      <trkpt lat="45.82707" lon="3.3759">
        <ele>343.8</ele>
        <time>2024-05-19T10:12:20Z</time>
      </trkpt>
      <trkpt lat="45.82706" lon="3.37596">
        <ele>344</ele>
        <time>2024-05-19T10:12:21Z</time>
      </trkpt>
      <trkpt lat="45.82705" lon="3.37603">
        <ele>344</ele>
        <time>2024-05-19T10:12:22Z</time>
      </trkpt>
      <trkpt lat="45.82705" lon="3.37609">
        <ele>344.2</ele>
        <time>2024-05-19T10:12:23Z</time>
      </trkpt>
      <trkpt lat="45.82704" lon="3.37616">
        <ele>344.4</ele>
        <time>2024-05-19T10:12:24Z</time>
      </trkpt>
      <trkpt lat="45.82703" lon="3.37622">
        <ele>344.4</ele>
        <time>2024-05-19T10:12:25Z</time>
      </trkpt>
      <trkpt lat="45.82702" lon="3.37629">
        <ele>344.6</ele>
        <time>2024-05-19T10:12:26Z</time>
      </trkpt>
      <trkpt lat="45.82702" lon="3.37635">
        <ele>344.8</ele>
        <time>2024-05-19T10:12:27Z</time>
      </trkpt>
      <trkpt lat="45.82701" lon="3.37642">
        <ele>344.8</ele>
        <time>2024-05-19T10:12:28Z</time>
      </trkpt>
      <trkpt lat="45.827" lon="3.37648">
        <ele>345</ele>
        <time>2024-05-19T10:12:29Z</time>
      </trkpt>
      <trkpt lat="45.827" lon="3.37655">
        <ele>345</ele>
        <time>2024-05-19T10:12:30Z</time>
      </trkpt>
      <trkpt lat="45.827" lon="3.37661">
        <ele>345.2</ele>
        <time>2024-05-19T10:12:31Z</time>
      </trkpt>
      <trkpt lat="45.827" lon="3.37668">
        <ele>345.4</ele>
        <time>2024-05-19T10:12:32Z</time>
      </trkpt>
      <trkpt lat="45.827" lon="3.37674">
        <ele>345.4</ele>
        <time>2024-05-19T10:12:33Z</time>
      </trkpt>
      <trkpt lat="45.827" lon="3.37681">
        <ele>345.6</ele>
        <time>2024-05-19T10:12:34Z</time>
      </trkpt>
      <trkpt lat="45.827" lon="3.37687">
        <ele>345.8</ele>
        <time>2024-05-19T10:12:35Z</time>
      </trkpt>
      <trkpt lat="45.827" lon="3.37693">
        <ele>345.8</ele>
        <time>2024-05-19T10:12:36Z</time>
      </trkpt>
      <trkpt lat="45.827" lon="3.377">
        <ele>346</ele>
        <time>2024-05-19T10:12:37Z</time>
      </trkpt>
      <trkpt lat="45.82701" lon="3.37706">
        <ele>346</ele>
        <time>2024-05-19T10:12:38Z</time>
      </trkpt>
      <trkpt lat="45.82701" lon="3.37712">
        <ele>346.2</ele>
        <time>2024-05-19T10:12:39Z</time>
      </trkpt>
      <trkpt lat="45.82702" lon="3.37718">
        <ele>346.2</ele>
        <time>2024-05-19T10:12:40Z</time>
      </trkpt>
      <trkpt lat="45.82705" lon="3.37723">
        <ele>346.4</ele>
        <time>2024-05-19T10:12:41Z</time>
      </trkpt>
      <trkpt lat="45.82709" lon="3.37727">
        <ele>346.6</ele>
        <time>2024-05-19T10:12:42Z</time>
      </trkpt>
      <trkpt lat="45.82712" lon="3.37729">
        <ele>346.8</ele>
        <time>2024-05-19T10:12:43Z</time>
      </trkpt>
      <trkpt lat="45.82716" lon="3.37731">
        <ele>346.8</ele>
        <time>2024-05-19T10:12:44Z</time>
      </trkpt>
      <trkpt lat="45.82721" lon="3.37732">
        <ele>346.8</ele>
        <time>2024-05-19T10:12:45Z</time>
      </trkpt>
      <trkpt lat="45.82725" lon="3.37734">
        <ele>346.8</ele>
        <time>2024-05-19T10:12:46Z</time>
      </trkpt>
      <trkpt lat="45.8273" lon="3.37735">
        <ele>346.8</ele>
        <time>2024-05-19T10:12:47Z</time>
      </trkpt>
      <trkpt lat="45.82734" lon="3.37737">
        <ele>346.8</ele>
        <time>2024-05-19T10:12:48Z</time>
      </trkpt>
      <trkpt lat="45.82738" lon="3.37738">
        <ele>346.8</ele>
        <time>2024-05-19T10:12:49Z</time>
      </trkpt>
      <trkpt lat="45.82743" lon="3.3774">
        <ele>346.8</ele>
        <time>2024-05-19T10:12:50Z</time>
      </trkpt>
      <trkpt lat="45.82747" lon="3.37742">
        <ele>346.8</ele>
        <time>2024-05-19T10:12:51Z</time>
      </trkpt>
      <trkpt lat="45.82752" lon="3.37743">
        <ele>346.8</ele>
        <time>2024-05-19T10:12:52Z</time>
      </trkpt>
      <trkpt lat="45.82756" lon="3.37746">
        <ele>346.8</ele>
        <time>2024-05-19T10:12:53Z</time>
      </trkpt>
      <trkpt lat="45.8276" lon="3.3775">
        <ele>347</ele>
        <time>2024-05-19T10:12:54Z</time>
      </trkpt>
      <trkpt lat="45.82764" lon="3.37753">
        <ele>347</ele>
        <time>2024-05-19T10:12:55Z</time>
      </trkpt>
      <trkpt lat="45.82768" lon="3.37757">
        <ele>347</ele>
        <time>2024-05-19T10:12:56Z</time>
      </trkpt>
      <trkpt lat="45.82772" lon="3.37761">
        <ele>347</ele>
        <time>2024-05-19T10:12:57Z</time>
      </trkpt>
      <trkpt lat="45.82776" lon="3.37765">
        <ele>347.2</ele>
        <time>2024-05-19T10:12:58Z</time>
      </trkpt>
      <trkpt lat="45.8278" lon="3.37768">
        <ele>347.2</ele>
        <time>2024-05-19T10:12:59Z</time>
      </trkpt>
      <trkpt lat="45.82784" lon="3.37771">
        <ele>347.4</ele>
        <time>2024-05-19T10:13:00Z</time>
      </trkpt>
      <trkpt lat="45.82789" lon="3.37776">
        <ele>347.4</ele>
        <time>2024-05-19T10:13:01Z</time>
      </trkpt>
      <trkpt lat="45.82792" lon="3.37781">
        <ele>347.6</ele>
        <time>2024-05-19T10:13:02Z</time>
      </trkpt>
      <trkpt lat="45.82796" lon="3.37786">
        <ele>347.6</ele>
        <time>2024-05-19T10:13:03Z</time>
      </trkpt>
      <trkpt lat="45.828" lon="3.3779">
        <ele>347.6</ele>
        <time>2024-05-19T10:13:04Z</time>
      </trkpt>
      <trkpt lat="45.82804" lon="3.37796">
        <ele>347.8</ele>
        <time>2024-05-19T10:13:05Z</time>
      </trkpt>
      <trkpt lat="45.82805" lon="3.37802">
        <ele>347.8</ele>
        <time>2024-05-19T10:13:06Z</time>
      </trkpt>
      <trkpt lat="45.82806" lon="3.37809">
        <ele>348</ele>
        <time>2024-05-19T10:13:07Z</time>
      </trkpt>
      <trkpt lat="45.82807" lon="3.37815">
        <ele>348</ele>
        <time>2024-05-19T10:13:08Z</time>
      </trkpt>
      <trkpt lat="45.82808" lon="3.37822">
        <ele>348.2</ele>
        <time>2024-05-19T10:13:09Z</time>
      </trkpt>
      <trkpt lat="45.8281" lon="3.37828">
        <ele>348.2</ele>
        <time>2024-05-19T10:13:10Z</time>
      </trkpt>
      <trkpt lat="45.82811" lon="3.37835">
        <ele>348.4</ele>
        <time>2024-05-19T10:13:11Z</time>
      </trkpt>
      <trkpt lat="45.82812" lon="3.37841">
        <ele>348.4</ele>
        <time>2024-05-19T10:13:12Z</time>
      </trkpt>
      <trkpt lat="45.82813" lon="3.37847">
        <ele>348.6</ele>
        <time>2024-05-19T10:13:13Z</time>
      </trkpt>
      <trkpt lat="45.82814" lon="3.37854">
        <ele>348.8</ele>
        <time>2024-05-19T10:13:14Z</time>
      </trkpt>
      <trkpt lat="45.82815" lon="3.3786">
        <ele>348.8</ele>
        <time>2024-05-19T10:13:15Z</time>
      </trkpt>
      <trkpt lat="45.82816" lon="3.37866">
        <ele>349</ele>
        <time>2024-05-19T10:13:16Z</time>
      </trkpt>
      <trkpt lat="45.82817" lon="3.37872">
        <ele>349</ele>
        <time>2024-05-19T10:13:17Z</time>
      </trkpt>
      <trkpt lat="45.82818" lon="3.37879">
        <ele>349.2</ele>
        <time>2024-05-19T10:13:18Z</time>
      </trkpt>
      <trkpt lat="45.82819" lon="3.37885">
        <ele>349.4</ele>
        <time>2024-05-19T10:13:19Z</time>
      </trkpt>
      <trkpt lat="45.82819" lon="3.37892">
        <ele>349.4</ele>
        <time>2024-05-19T10:13:20Z</time>
      </trkpt>
      <trkpt lat="45.8282" lon="3.37898">
        <ele>349.4</ele>
        <time>2024-05-19T10:13:21Z</time>
      </trkpt>
      <trkpt lat="45.8282" lon="3.37905">
        <ele>349.6</ele>
        <time>2024-05-19T10:13:22Z</time>
      </trkpt>
      <trkpt lat="45.8282" lon="3.37911">
        <ele>349.6</ele>
        <time>2024-05-19T10:13:23Z</time>
      </trkpt>
      <trkpt lat="45.8282" lon="3.37918">
        <ele>349.8</ele>
        <time>2024-05-19T10:13:24Z</time>
      </trkpt>
      <trkpt lat="45.8282" lon="3.37924">
        <ele>349.8</ele>
        <time>2024-05-19T10:13:25Z</time>
      </trkpt>
      <trkpt lat="45.8282" lon="3.37931">
        <ele>350</ele>
        <time>2024-05-19T10:13:26Z</time>
      </trkpt>
      <trkpt lat="45.8282" lon="3.37937">
        <ele>350</ele>
        <time>2024-05-19T10:13:27Z</time>
      </trkpt>
      <trkpt lat="45.8282" lon="3.37944">
        <ele>350.2</ele>
        <time>2024-05-19T10:13:28Z</time>
      </trkpt>
      <trkpt lat="45.8282" lon="3.3795">
        <ele>350.2</ele>
        <time>2024-05-19T10:13:29Z</time>
      </trkpt>
      <trkpt lat="45.8282" lon="3.37956">
        <ele>350.4</ele>
        <time>2024-05-19T10:13:30Z</time>
      </trkpt>
      <trkpt lat="45.8282" lon="3.37962">
        <ele>350.4</ele>
        <time>2024-05-19T10:13:31Z</time>
      </trkpt>
      <trkpt lat="45.8282" lon="3.37968">
        <ele>350.6</ele>
        <time>2024-05-19T10:13:32Z</time>
      </trkpt>
      <trkpt lat="45.8282" lon="3.37974">
        <ele>350.8</ele>
        <time>2024-05-19T10:13:33Z</time>
      </trkpt>
      <trkpt lat="45.8282" lon="3.3798">
        <ele>350.8</ele>
        <time>2024-05-19T10:13:34Z</time>
      </trkpt>
      <trkpt lat="45.8282" lon="3.37986">
        <ele>350.8</ele>
        <time>2024-05-19T10:13:35Z</time>
      </trkpt>
      <trkpt lat="45.8282" lon="3.37992">
        <ele>351</ele>
        <time>2024-05-19T10:13:36Z</time>
      </trkpt>
      <trkpt lat="45.8282" lon="3.37998">
        <ele>351</ele>
        <time>2024-05-19T10:13:37Z</time>
      </trkpt>
      <trkpt lat="45.8282" lon="3.38004">
        <ele>351</ele>
        <time>2024-05-19T10:13:38Z</time>
      </trkpt>
      <trkpt lat="45.8282" lon="3.3801">
        <ele>351.2</ele>
        <time>2024-05-19T10:13:39Z</time>
      </trkpt>
      <trkpt lat="45.8282" lon="3.38015">
        <ele>351.4</ele>
        <time>2024-05-19T10:13:40Z</time>
      </trkpt>
      <trkpt lat="45.8282" lon="3.38021">
        <ele>351.4</ele>
        <time>2024-05-19T10:13:41Z</time>
      </trkpt>
      <trkpt lat="45.8282" lon="3.38026">
        <ele>351.6</ele>
        <time>2024-05-19T10:13:42Z</time>
      </trkpt>
      <trkpt lat="45.82825" lon="3.38033">
        <ele>351.8</ele>
        <time>2024-05-19T10:13:43Z</time>
      </trkpt>
      <trkpt lat="45.82828" lon="3.38035">
        <ele>352</ele>
        <time>2024-05-19T10:13:44Z</time>
      </trkpt>
      <trkpt lat="45.82832" lon="3.38038">
        <ele>352</ele>
        <time>2024-05-19T10:13:45Z</time>
      </trkpt>
      <trkpt lat="45.82836" lon="3.38041">
        <ele>352.2</ele>
        <time>2024-05-19T10:13:46Z</time>
      </trkpt>
      <trkpt lat="45.82841" lon="3.38045">
        <ele>352.2</ele>
        <time>2024-05-19T10:13:47Z</time>
      </trkpt>
      <trkpt lat="45.82845" lon="3.38048">
        <ele>352.4</ele>
        <time>2024-05-19T10:13:48Z</time>
      </trkpt>
      <trkpt lat="45.8285" lon="3.38051">
        <ele>352.4</ele>
        <time>2024-05-19T10:13:49Z</time>
      </trkpt>
      <trkpt lat="45.82854" lon="3.38055">
        <ele>352.6</ele>
        <time>2024-05-19T10:13:50Z</time>
      </trkpt>
      <trkpt lat="45.82858" lon="3.38058">
        <ele>352.6</ele>
        <time>2024-05-19T10:13:51Z</time>
      </trkpt>
      <trkpt lat="45.82863" lon="3.38062">
        <ele>352.6</ele>
        <time>2024-05-19T10:13:52Z</time>
      </trkpt>
      <trkpt lat="45.82868" lon="3.38066">
        <ele>352.8</ele>
        <time>2024-05-19T10:13:53Z</time>
      </trkpt>
      <trkpt lat="45.82873" lon="3.3807">
        <ele>352.8</ele>
        <time>2024-05-19T10:13:54Z</time>
      </trkpt>
      <trkpt lat="45.82878" lon="3.38075">
        <ele>353</ele>
        <time>2024-05-19T10:13:55Z</time>
      </trkpt>
      <trkpt lat="45.82882" lon="3.38079">
        <ele>353</ele>
        <time>2024-05-19T10:13:56Z</time>
      </trkpt>
      <trkpt lat="45.82887" lon="3.38083">
        <ele>353</ele>
        <time>2024-05-19T10:13:57Z</time>
      </trkpt>
      <trkpt lat="45.82892" lon="3.38087">
        <ele>353.2</ele>
        <time>2024-05-19T10:13:58Z</time>
      </trkpt>
      <trkpt lat="45.82897" lon="3.38091">
        <ele>353.2</ele>
        <time>2024-05-19T10:13:59Z</time>
      </trkpt>
      <trkpt lat="45.82901" lon="3.38095">
        <ele>353.2</ele>
        <time>2024-05-19T10:14:00Z</time>
      </trkpt>
      <trkpt lat="45.82906" lon="3.38099">
        <ele>353.4</ele>
        <time>2024-05-19T10:14:01Z</time>
      </trkpt>
      <trkpt lat="45.82911" lon="3.38102">
        <ele>353.4</ele>
        <time>2024-05-19T10:14:02Z</time>
      </trkpt>
      <trkpt lat="45.82915" lon="3.38106">
        <ele>353.6</ele>
        <time>2024-05-19T10:14:03Z</time>
      </trkpt>
      <trkpt lat="45.8292" lon="3.3811">
        <ele>353.6</ele>
        <time>2024-05-19T10:14:04Z</time>
      </trkpt>
      <trkpt lat="45.82924" lon="3.38113">
        <ele>353.6</ele>
        <time>2024-05-19T10:14:05Z</time>
      </trkpt>
      <trkpt lat="45.82929" lon="3.38117">
        <ele>353.8</ele>
        <time>2024-05-19T10:14:06Z</time>
      </trkpt>
      <trkpt lat="45.82932" lon="3.3812">
        <ele>353.8</ele>
        <time>2024-05-19T10:14:07Z</time>
      </trkpt>
      <trkpt lat="45.82936" lon="3.38124">
        <ele>353.8</ele>
        <time>2024-05-19T10:14:08Z</time>
      </trkpt>
      <trkpt lat="45.82941" lon="3.38127">
        <ele>353.8</ele>
        <time>2024-05-19T10:14:09Z</time>
      </trkpt>
      <trkpt lat="45.82945" lon="3.3813">
        <ele>354</ele>
        <time>2024-05-19T10:14:10Z</time>
      </trkpt>
      <trkpt lat="45.82949" lon="3.38134">
        <ele>354</ele>
        <time>2024-05-19T10:14:11Z</time>
      </trkpt>
      <trkpt lat="45.82953" lon="3.38137">
        <ele>354</ele>
        <time>2024-05-19T10:14:12Z</time>
      </trkpt>
      <trkpt lat="45.82957" lon="3.3814">
        <ele>354.2</ele>
        <time>2024-05-19T10:14:13Z</time>
      </trkpt>
      <trkpt lat="45.82961" lon="3.38144">
        <ele>354.2</ele>
        <time>2024-05-19T10:14:14Z</time>
      </trkpt>
      <trkpt lat="45.82965" lon="3.38147">
        <ele>354.2</ele>
        <time>2024-05-19T10:14:15Z</time>
      </trkpt>
      <trkpt lat="45.82969" lon="3.3815">
        <ele>354.4</ele>
        <time>2024-05-19T10:14:16Z</time>
      </trkpt>
      <trkpt lat="45.82973" lon="3.38154">
        <ele>354.4</ele>
        <time>2024-05-19T10:14:17Z</time>
      </trkpt>
      <trkpt lat="45.82977" lon="3.38157">
        <ele>354.4</ele>
        <time>2024-05-19T10:14:18Z</time>
      </trkpt>
      <trkpt lat="45.82981" lon="3.38161">
        <ele>354.6</ele>
        <time>2024-05-19T10:14:19Z</time>
      </trkpt>
      <trkpt lat="45.82986" lon="3.38164">
        <ele>354.6</ele>
        <time>2024-05-19T10:14:20Z</time>
      </trkpt>
      <trkpt lat="45.8299" lon="3.38168">
        <ele>354.8</ele>
        <time>2024-05-19T10:14:21Z</time>
      </trkpt>
      <trkpt lat="45.82994" lon="3.38171">
        <ele>354.8</ele>
        <time>2024-05-19T10:14:22Z</time>
      </trkpt>
      <trkpt lat="45.82998" lon="3.38174">
        <ele>355</ele>
        <time>2024-05-19T10:14:23Z</time>
      </trkpt>
      <trkpt lat="45.83002" lon="3.38178">
        <ele>355</ele>
        <time>2024-05-19T10:14:24Z</time>
      </trkpt>
      <trkpt lat="45.83006" lon="3.38181">
        <ele>355</ele>
        <time>2024-05-19T10:14:25Z</time>
      </trkpt>
      <trkpt lat="45.8301" lon="3.38184">
        <ele>355.2</ele>
        <time>2024-05-19T10:14:26Z</time>
      </trkpt>
      <trkpt lat="45.83014" lon="3.38188">
        <ele>355.2</ele>
        <time>2024-05-19T10:14:27Z</time>
      </trkpt>
      <trkpt lat="45.83018" lon="3.38191">
        <ele>355.4</ele>
        <time>2024-05-19T10:14:28Z</time>
      </trkpt>
      <trkpt lat="45.83022" lon="3.38194">
        <ele>355.4</ele>
        <time>2024-05-19T10:14:29Z</time>
      </trkpt>
      <trkpt lat="45.83026" lon="3.38198">
        <ele>355.6</ele>
        <time>2024-05-19T10:14:30Z</time>
      </trkpt>
      <trkpt lat="45.8303" lon="3.38201">
        <ele>355.6</ele>
        <time>2024-05-19T10:14:31Z</time>
      </trkpt>
      <trkpt lat="45.83035" lon="3.38205">
        <ele>355.8</ele>
        <time>2024-05-19T10:14:32Z</time>
      </trkpt>
      <trkpt lat="45.83039" lon="3.38208">
        <ele>356</ele>
        <time>2024-05-19T10:14:33Z</time>
      </trkpt>
      <trkpt lat="45.83043" lon="3.38212">
        <ele>356</ele>
        <time>2024-05-19T10:14:34Z</time>
      </trkpt>
      <trkpt lat="45.83046" lon="3.38215">
        <ele>356.2</ele>
        <time>2024-05-19T10:14:35Z</time>
      </trkpt>
      <trkpt lat="45.8305" lon="3.38218">
        <ele>356.2</ele>
        <time>2024-05-19T10:14:36Z</time>
      </trkpt>
      <trkpt lat="45.83054" lon="3.38221">
        <ele>356.4</ele>
        <time>2024-05-19T10:14:37Z</time>
      </trkpt>
      <trkpt lat="45.83058" lon="3.38225">
        <ele>356.4</ele>
        <time>2024-05-19T10:14:38Z</time>
      </trkpt>
      <trkpt lat="45.83062" lon="3.38228">
        <ele>356.6</ele>
        <time>2024-05-19T10:14:39Z</time>
      </trkpt>
      <trkpt lat="45.83066" lon="3.38231">
        <ele>356.6</ele>
        <time>2024-05-19T10:14:40Z</time>
      </trkpt>
      <trkpt lat="45.8307" lon="3.38235">
        <ele>356.8</ele>
        <time>2024-05-19T10:14:41Z</time>
      </trkpt>
      <trkpt lat="45.83074" lon="3.38238">
        <ele>357</ele>
        <time>2024-05-19T10:14:42Z</time>
      </trkpt>
      <trkpt lat="45.83078" lon="3.38242">
        <ele>357</ele>
        <time>2024-05-19T10:14:43Z</time>
      </trkpt>
      <trkpt lat="45.83082" lon="3.38245">
        <ele>357.2</ele>
        <time>2024-05-19T10:14:44Z</time>
      </trkpt>
      <trkpt lat="45.83086" lon="3.38248">
        <ele>357.4</ele>
        <time>2024-05-19T10:14:45Z</time>
      </trkpt>
      <trkpt lat="45.8309" lon="3.38252">
        <ele>357.4</ele>
        <time>2024-05-19T10:14:46Z</time>
      </trkpt>
      <trkpt lat="45.83094" lon="3.38255">
        <ele>357.6</ele>
        <time>2024-05-19T10:14:47Z</time>
      </trkpt>
      <trkpt lat="45.83098" lon="3.38259">
        <ele>357.8</ele>
        <time>2024-05-19T10:14:48Z</time>
      </trkpt>
      <trkpt lat="45.83102" lon="3.38262">
        <ele>358</ele>
        <time>2024-05-19T10:14:49Z</time>
      </trkpt>
      <trkpt lat="45.83106" lon="3.38266">
        <ele>358</ele>
        <time>2024-05-19T10:14:50Z</time>
      </trkpt>
      <trkpt lat="45.8311" lon="3.3827">
        <ele>358.2</ele>
        <time>2024-05-19T10:14:51Z</time>
      </trkpt>
      <trkpt lat="45.83115" lon="3.38273">
        <ele>358.4</ele>
        <time>2024-05-19T10:14:52Z</time>
      </trkpt>
      <trkpt lat="45.83119" lon="3.38277">
        <ele>358.6</ele>
        <time>2024-05-19T10:14:53Z</time>
      </trkpt>
      <trkpt lat="45.83123" lon="3.38281">
        <ele>358.6</ele>
        <time>2024-05-19T10:14:54Z</time>
      </trkpt>
      <trkpt lat="45.83126" lon="3.38286">
        <ele>358.8</ele>
        <time>2024-05-19T10:14:55Z</time>
      </trkpt>
      <trkpt lat="45.83129" lon="3.38292">
        <ele>359</ele>
        <time>2024-05-19T10:14:56Z</time>
      </trkpt>
      <trkpt lat="45.83132" lon="3.38297">
        <ele>359.2</ele>
        <time>2024-05-19T10:14:57Z</time>
      </trkpt>
      <trkpt lat="45.83135" lon="3.38303">
        <ele>359.2</ele>
        <time>2024-05-19T10:14:58Z</time>
      </trkpt>
      <trkpt lat="45.83139" lon="3.38309">
        <ele>359.4</ele>
        <time>2024-05-19T10:14:59Z</time>
      </trkpt>
      <trkpt lat="45.83142" lon="3.38314">
        <ele>359.4</ele>
        <time>2024-05-19T10:15:00Z</time>
      </trkpt>
      <trkpt lat="45.83144" lon="3.38319">
        <ele>359.6</ele>
        <time>2024-05-19T10:15:01Z</time>
      </trkpt>
      <trkpt lat="45.8315" lon="3.38315">
        <ele>359.6</ele>
        <time>2024-05-19T10:15:02Z</time>
      </trkpt>
      <trkpt lat="45.83154" lon="3.38313">
        <ele>359.8</ele>
        <time>2024-05-19T10:15:03Z</time>
      </trkpt>
      <trkpt lat="45.83159" lon="3.3831">
        <ele>359.8</ele>
        <time>2024-05-19T10:15:04Z</time>
      </trkpt>
      <trkpt lat="45.8317" lon="3.38313">
        <ele>360</ele>
        <time>2024-05-19T10:15:05Z</time>
      </trkpt>
      <trkpt lat="45.83175" lon="3.38316">
        <ele>360</ele>
        <time>2024-05-19T10:15:06Z</time>
      </trkpt>
      <trkpt lat="45.8318" lon="3.38319">
        <ele>360.2</ele>
        <time>2024-05-19T10:15:07Z</time>
      </trkpt>
      <trkpt lat="45.83185" lon="3.38323">
        <ele>360.2</ele>
        <time>2024-05-19T10:15:08Z</time>
      </trkpt>
      <trkpt lat="45.83191" lon="3.38326">
        <ele>360.4</ele>
        <time>2024-05-19T10:15:09Z</time>
      </trkpt>
      <trkpt lat="45.83196" lon="3.38331">
        <ele>360.4</ele>
        <time>2024-05-19T10:15:10Z</time>
      </trkpt>
      <trkpt lat="45.83201" lon="3.38335">
        <ele>360.6</ele>
        <time>2024-05-19T10:15:11Z</time>
      </trkpt>
      <trkpt lat="45.83206" lon="3.38339">
        <ele>360.6</ele>
        <time>2024-05-19T10:15:12Z</time>
      </trkpt>
      <trkpt lat="45.83211" lon="3.38343">
        <ele>360.8</ele>
        <time>2024-05-19T10:15:13Z</time>
      </trkpt>
      <trkpt lat="45.83216" lon="3.38348">
        <ele>360.8</ele>
        <time>2024-05-19T10:15:14Z</time>
      </trkpt>
      <trkpt lat="45.83221" lon="3.38352">
        <ele>361</ele>
        <time>2024-05-19T10:15:15Z</time>
      </trkpt>
      <trkpt lat="45.83226" lon="3.38356">
        <ele>361</ele>
        <time>2024-05-19T10:15:16Z</time>
      </trkpt>
      <trkpt lat="45.83231" lon="3.3836">
        <ele>361.2</ele>
        <time>2024-05-19T10:15:17Z</time>
      </trkpt>
      <trkpt lat="45.83236" lon="3.38364">
        <ele>361.4</ele>
        <time>2024-05-19T10:15:18Z</time>
      </trkpt>
      <trkpt lat="45.83241" lon="3.38368">
        <ele>361.4</ele>
        <time>2024-05-19T10:15:19Z</time>
      </trkpt>
      <trkpt lat="45.83246" lon="3.38372">
        <ele>361.6</ele>
        <time>2024-05-19T10:15:20Z</time>
      </trkpt>
      <trkpt lat="45.83251" lon="3.38376">
        <ele>361.6</ele>
        <time>2024-05-19T10:15:21Z</time>
      </trkpt>
      <trkpt lat="45.83256" lon="3.3838">
        <ele>361.8</ele>
        <time>2024-05-19T10:15:22Z</time>
      </trkpt>
      <trkpt lat="45.83262" lon="3.38384">
        <ele>361.8</ele>
        <time>2024-05-19T10:15:23Z</time>
      </trkpt>
      <trkpt lat="45.83267" lon="3.38388">
        <ele>362</ele>
        <time>2024-05-19T10:15:24Z</time>
      </trkpt>
      <trkpt lat="45.83272" lon="3.38393">
        <ele>362</ele>
        <time>2024-05-19T10:15:25Z</time>
      </trkpt>
      <trkpt lat="45.83277" lon="3.38397">
        <ele>362.2</ele>
        <time>2024-05-19T10:15:26Z</time>
      </trkpt>
      <trkpt lat="45.83282" lon="3.38401">
        <ele>362.4</ele>
        <time>2024-05-19T10:15:27Z</time>
      </trkpt>
      <trkpt lat="45.83287" lon="3.38405">
        <ele>362.4</ele>
        <time>2024-05-19T10:15:28Z</time>
      </trkpt>
      <trkpt lat="45.83292" lon="3.38408">
        <ele>362.6</ele>
        <time>2024-05-19T10:15:29Z</time>
      </trkpt>
      <trkpt lat="45.83297" lon="3.38412">
        <ele>362.6</ele>
        <time>2024-05-19T10:15:30Z</time>
      </trkpt>
      <trkpt lat="45.83301" lon="3.38416">
        <ele>362.8</ele>
        <time>2024-05-19T10:15:31Z</time>
      </trkpt>
      <trkpt lat="45.83306" lon="3.3842">
        <ele>362.8</ele>
        <time>2024-05-19T10:15:32Z</time>
      </trkpt>
      <trkpt lat="45.83311" lon="3.38424">
        <ele>363</ele>
        <time>2024-05-19T10:15:33Z</time>
      </trkpt>
      <trkpt lat="45.83316" lon="3.38428">
        <ele>363</ele>
        <time>2024-05-19T10:15:34Z</time>
      </trkpt>
      <trkpt lat="45.83321" lon="3.38431">
        <ele>363</ele>
        <time>2024-05-19T10:15:35Z</time>
      </trkpt>
      <trkpt lat="45.83326" lon="3.38435">
        <ele>363.2</ele>
        <time>2024-05-19T10:15:36Z</time>
      </trkpt>
      <trkpt lat="45.8333" lon="3.38439">
        <ele>363.2</ele>
        <time>2024-05-19T10:15:37Z</time>
      </trkpt>
      <trkpt lat="45.83335" lon="3.38443">
        <ele>363.4</ele>
        <time>2024-05-19T10:15:38Z</time>
      </trkpt>
      <trkpt lat="45.8334" lon="3.38447">
        <ele>363.4</ele>
        <time>2024-05-19T10:15:39Z</time>
      </trkpt>
      <trkpt lat="45.83345" lon="3.38451">
        <ele>363.6</ele>
        <time>2024-05-19T10:15:40Z</time>
      </trkpt>
      <trkpt lat="45.83349" lon="3.38454">
        <ele>363.8</ele>
        <time>2024-05-19T10:15:41Z</time>
      </trkpt>
      <trkpt lat="45.83354" lon="3.38458">
        <ele>363.8</ele>
        <time>2024-05-19T10:15:42Z</time>
      </trkpt>
      <trkpt lat="45.83359" lon="3.38462">
        <ele>364</ele>
        <time>2024-05-19T10:15:43Z</time>
      </trkpt>
      <trkpt lat="45.83363" lon="3.38465">
        <ele>364</ele>
        <time>2024-05-19T10:15:44Z</time>
      </trkpt>
      <trkpt lat="45.83368" lon="3.38469">
        <ele>364.2</ele>
        <time>2024-05-19T10:15:45Z</time>
      </trkpt>
      <trkpt lat="45.83372" lon="3.38473">
        <ele>364.2</ele>
        <time>2024-05-19T10:15:46Z</time>
      </trkpt>
      <trkpt lat="45.83377" lon="3.38476">
        <ele>364.4</ele>
        <time>2024-05-19T10:15:47Z</time>
      </trkpt>
      <trkpt lat="45.83381" lon="3.3848">
        <ele>364.4</ele>
        <time>2024-05-19T10:15:48Z</time>
      </trkpt>
      <trkpt lat="45.83386" lon="3.38483">
        <ele>364.6</ele>
        <time>2024-05-19T10:15:49Z</time>
      </trkpt>
      <trkpt lat="45.8339" lon="3.38487">
        <ele>364.8</ele>
        <time>2024-05-19T10:15:50Z</time>
      </trkpt>
      <trkpt lat="45.83394" lon="3.3849">
        <ele>364.8</ele>
        <time>2024-05-19T10:15:51Z</time>
      </trkpt>
      <trkpt lat="45.83399" lon="3.38494">
        <ele>365</ele>
        <time>2024-05-19T10:15:52Z</time>
      </trkpt>
      <trkpt lat="45.83403" lon="3.38498">
        <ele>365</ele>
        <time>2024-05-19T10:15:53Z</time>
      </trkpt>
      <trkpt lat="45.83407" lon="3.38501">
        <ele>365.2</ele>
        <time>2024-05-19T10:15:54Z</time>
      </trkpt>
      <trkpt lat="45.83412" lon="3.38504">
        <ele>365.2</ele>
        <time>2024-05-19T10:15:55Z</time>
      </trkpt>
      <trkpt lat="45.83416" lon="3.38508">
        <ele>365.4</ele>
        <time>2024-05-19T10:15:56Z</time>
      </trkpt>
      <trkpt lat="45.8342" lon="3.38511">
        <ele>365.6</ele>
        <time>2024-05-19T10:15:57Z</time>
      </trkpt>
      <trkpt lat="45.83424" lon="3.38515">
        <ele>365.6</ele>
        <time>2024-05-19T10:15:58Z</time>
      </trkpt>
      <trkpt lat="45.83428" lon="3.38518">
        <ele>365.6</ele>
        <time>2024-05-19T10:15:59Z</time>
      </trkpt>
      <trkpt lat="45.83433" lon="3.38521">
        <ele>365.8</ele>
        <time>2024-05-19T10:16:00Z</time>
      </trkpt>
      <trkpt lat="45.83437" lon="3.38525">
        <ele>365.8</ele>
        <time>2024-05-19T10:16:01Z</time>
      </trkpt>
      <trkpt lat="45.83441" lon="3.38528">
        <ele>366</ele>
        <time>2024-05-19T10:16:02Z</time>
      </trkpt>
      <trkpt lat="45.83445" lon="3.38532">
        <ele>366</ele>
        <time>2024-05-19T10:16:03Z</time>
      </trkpt>
      <trkpt lat="45.8345" lon="3.38535">
        <ele>366</ele>
        <time>2024-05-19T10:16:04Z</time>
      </trkpt>
      <trkpt lat="45.83454" lon="3.38539">
        <ele>366.2</ele>
        <time>2024-05-19T10:16:05Z</time>
      </trkpt>
      <trkpt lat="45.83459" lon="3.38542">
        <ele>366.4</ele>
        <time>2024-05-19T10:16:06Z</time>
      </trkpt>
      <trkpt lat="45.83463" lon="3.38546">
        <ele>366.4</ele>
        <time>2024-05-19T10:16:07Z</time>
      </trkpt>
      <trkpt lat="45.83468" lon="3.3855">
        <ele>366.6</ele>
        <time>2024-05-19T10:16:08Z</time>
      </trkpt>
      <trkpt lat="45.83472" lon="3.38553">
        <ele>366.6</ele>
        <time>2024-05-19T10:16:09Z</time>
      </trkpt>
      <trkpt lat="45.83477" lon="3.38557">
        <ele>366.8</ele>
        <time>2024-05-19T10:16:10Z</time>
      </trkpt>
      <trkpt lat="45.83481" lon="3.38561">
        <ele>366.8</ele>
        <time>2024-05-19T10:16:11Z</time>
      </trkpt>
      <trkpt lat="45.83486" lon="3.38564">
        <ele>367</ele>
        <time>2024-05-19T10:16:12Z</time>
      </trkpt>
      <trkpt lat="45.8349" lon="3.38568">
        <ele>367</ele>
        <time>2024-05-19T10:16:13Z</time>
      </trkpt>
      <trkpt lat="45.83495" lon="3.38572">
        <ele>367.2</ele>
        <time>2024-05-19T10:16:14Z</time>
      </trkpt>
      <trkpt lat="45.83499" lon="3.38575">
        <ele>367.4</ele>
        <time>2024-05-19T10:16:15Z</time>
      </trkpt>
      <trkpt lat="45.83503" lon="3.38579">
        <ele>367.4</ele>
        <time>2024-05-19T10:16:16Z</time>
      </trkpt>
      <trkpt lat="45.83507" lon="3.38582">
        <ele>367.6</ele>
        <time>2024-05-19T10:16:17Z</time>
      </trkpt>
      <trkpt lat="45.83512" lon="3.38586">
        <ele>367.6</ele>
        <time>2024-05-19T10:16:18Z</time>
      </trkpt>
      <trkpt lat="45.83516" lon="3.38589">
        <ele>367.8</ele>
        <time>2024-05-19T10:16:19Z</time>
      </trkpt>
      <trkpt lat="45.8352" lon="3.38593">
        <ele>367.8</ele>
        <time>2024-05-19T10:16:20Z</time>
      </trkpt>
      <trkpt lat="45.83524" lon="3.38596">
        <ele>367.8</ele>
        <time>2024-05-19T10:16:21Z</time>
      </trkpt>
      <trkpt lat="45.83529" lon="3.386">
        <ele>368</ele>
        <time>2024-05-19T10:16:22Z</time>
      </trkpt>
      <trkpt lat="45.83533" lon="3.38604">
        <ele>368</ele>
        <time>2024-05-19T10:16:23Z</time>
      </trkpt>
      <trkpt lat="45.83538" lon="3.38607">
        <ele>368.2</ele>
        <time>2024-05-19T10:16:24Z</time>
      </trkpt>
      <trkpt lat="45.83543" lon="3.38611">
        <ele>368.2</ele>
        <time>2024-05-19T10:16:25Z</time>
      </trkpt>
      <trkpt lat="45.83547" lon="3.38615">
        <ele>368.4</ele>
        <time>2024-05-19T10:16:26Z</time>
      </trkpt>
      <trkpt lat="45.83552" lon="3.38619">
        <ele>368.4</ele>
        <time>2024-05-19T10:16:27Z</time>
      </trkpt>
      <trkpt lat="45.83556" lon="3.38622">
        <ele>368.6</ele>
        <time>2024-05-19T10:16:28Z</time>
      </trkpt>
      <trkpt lat="45.83561" lon="3.38626">
        <ele>368.6</ele>
        <time>2024-05-19T10:16:29Z</time>
      </trkpt>
      <trkpt lat="45.83565" lon="3.3863">
        <ele>368.8</ele>
        <time>2024-05-19T10:16:30Z</time>
      </trkpt>
      <trkpt lat="45.8357" lon="3.38633">
        <ele>368.8</ele>
        <time>2024-05-19T10:16:31Z</time>
      </trkpt>
      <trkpt lat="45.83574" lon="3.38637">
        <ele>369</ele>
        <time>2024-05-19T10:16:32Z</time>
      </trkpt>
      <trkpt lat="45.83579" lon="3.38641">
        <ele>369</ele>
        <time>2024-05-19T10:16:33Z</time>
      </trkpt>
      <trkpt lat="45.83583" lon="3.38645">
        <ele>369.2</ele>
        <time>2024-05-19T10:16:34Z</time>
      </trkpt>
      <trkpt lat="45.83587" lon="3.38648">
        <ele>369.4</ele>
        <time>2024-05-19T10:16:35Z</time>
      </trkpt>
      <trkpt lat="45.83592" lon="3.38652">
        <ele>369.4</ele>
        <time>2024-05-19T10:16:36Z</time>
      </trkpt>
      <trkpt lat="45.83596" lon="3.38655">
        <ele>369.4</ele>
        <time>2024-05-19T10:16:37Z</time>
      </trkpt>
      <trkpt lat="45.83601" lon="3.38659">
        <ele>369.6</ele>
        <time>2024-05-19T10:16:38Z</time>
      </trkpt>
      <trkpt lat="45.83605" lon="3.38662">
        <ele>369.8</ele>
        <time>2024-05-19T10:16:39Z</time>
      </trkpt>
      <trkpt lat="45.8361" lon="3.38666">
        <ele>369.8</ele>
        <time>2024-05-19T10:16:40Z</time>
      </trkpt>
      <trkpt lat="45.83615" lon="3.3867">
        <ele>370</ele>
        <time>2024-05-19T10:16:41Z</time>
      </trkpt>
      <trkpt lat="45.83619" lon="3.38674">
        <ele>370</ele>
        <time>2024-05-19T10:16:42Z</time>
      </trkpt>
      <trkpt lat="45.83624" lon="3.38678">
        <ele>370.2</ele>
        <time>2024-05-19T10:16:43Z</time>
      </trkpt>
      <trkpt lat="45.83629" lon="3.38682">
        <ele>370.2</ele>
        <time>2024-05-19T10:16:44Z</time>
      </trkpt>
      <trkpt lat="45.83634" lon="3.38686">
        <ele>370.4</ele>
        <time>2024-05-19T10:16:45Z</time>
      </trkpt>
      <trkpt lat="45.83639" lon="3.3869">
        <ele>370.4</ele>
        <time>2024-05-19T10:16:46Z</time>
      </trkpt>
      <trkpt lat="45.83644" lon="3.38694">
        <ele>370.6</ele>
        <time>2024-05-19T10:16:47Z</time>
      </trkpt>
      <trkpt lat="45.83649" lon="3.38698">
        <ele>370.6</ele>
        <time>2024-05-19T10:16:48Z</time>
      </trkpt>
      <trkpt lat="45.83654" lon="3.38702">
        <ele>370.8</ele>
        <time>2024-05-19T10:16:49Z</time>
      </trkpt>
      <trkpt lat="45.83659" lon="3.38706">
        <ele>370.8</ele>
        <time>2024-05-19T10:16:50Z</time>
      </trkpt>
      <trkpt lat="45.83665" lon="3.3871">
        <ele>371</ele>
        <time>2024-05-19T10:16:51Z</time>
      </trkpt>
      <trkpt lat="45.83669" lon="3.38714">
        <ele>371</ele>
        <time>2024-05-19T10:16:52Z</time>
      </trkpt>
      <trkpt lat="45.83675" lon="3.38719">
        <ele>371.2</ele>
        <time>2024-05-19T10:16:53Z</time>
      </trkpt>
      <trkpt lat="45.8368" lon="3.38723">
        <ele>371.2</ele>
        <time>2024-05-19T10:16:54Z</time>
      </trkpt>
      <trkpt lat="45.83685" lon="3.38727">
        <ele>371.4</ele>
        <time>2024-05-19T10:16:55Z</time>
      </trkpt>
      <trkpt lat="45.8369" lon="3.38731">
        <ele>371.4</ele>
        <time>2024-05-19T10:16:56Z</time>
      </trkpt>
      <trkpt lat="45.83695" lon="3.38735">
        <ele>371.4</ele>
        <time>2024-05-19T10:16:57Z</time>
      </trkpt>
      <trkpt lat="45.837" lon="3.38739">
        <ele>371.6</ele>
        <time>2024-05-19T10:16:58Z</time>
      </trkpt>
      <trkpt lat="45.83705" lon="3.38743">
        <ele>371.6</ele>
        <time>2024-05-19T10:16:59Z</time>
      </trkpt>
      <trkpt lat="45.8371" lon="3.38747">
        <ele>371.6</ele>
        <time>2024-05-19T10:17:00Z</time>
      </trkpt>
      <trkpt lat="45.83715" lon="3.38751">
        <ele>371.8</ele>
        <time>2024-05-19T10:17:01Z</time>
      </trkpt>
      <trkpt lat="45.8372" lon="3.38755">
        <ele>371.8</ele>
        <time>2024-05-19T10:17:02Z</time>
      </trkpt>
      <trkpt lat="45.83725" lon="3.38759">
        <ele>371.8</ele>
        <time>2024-05-19T10:17:03Z</time>
      </trkpt>
      <trkpt lat="45.83729" lon="3.38763">
        <ele>372</ele>
        <time>2024-05-19T10:17:04Z</time>
      </trkpt>
      <trkpt lat="45.83734" lon="3.38767">
        <ele>372</ele>
        <time>2024-05-19T10:17:05Z</time>
      </trkpt>
      <trkpt lat="45.83739" lon="3.38771">
        <ele>372.2</ele>
        <time>2024-05-19T10:17:06Z</time>
      </trkpt>
      <trkpt lat="45.83744" lon="3.38775">
        <ele>372.2</ele>
        <time>2024-05-19T10:17:07Z</time>
      </trkpt>
      <trkpt lat="45.83748" lon="3.38778">
        <ele>372.4</ele>
        <time>2024-05-19T10:17:08Z</time>
      </trkpt>
      <trkpt lat="45.83753" lon="3.38782">
        <ele>372.4</ele>
        <time>2024-05-19T10:17:09Z</time>
      </trkpt>
      <trkpt lat="45.83757" lon="3.38785">
        <ele>372.6</ele>
        <time>2024-05-19T10:17:10Z</time>
      </trkpt>
      <trkpt lat="45.83762" lon="3.38789">
        <ele>372.6</ele>
        <time>2024-05-19T10:17:11Z</time>
      </trkpt>
      <trkpt lat="45.83766" lon="3.38793">
        <ele>372.8</ele>
        <time>2024-05-19T10:17:12Z</time>
      </trkpt>
      <trkpt lat="45.8377" lon="3.38796">
        <ele>372.8</ele>
        <time>2024-05-19T10:17:13Z</time>
      </trkpt>
      <trkpt lat="45.83774" lon="3.38799">
        <ele>373</ele>
        <time>2024-05-19T10:17:14Z</time>
      </trkpt>
      <trkpt lat="45.83779" lon="3.38803">
        <ele>373</ele>
        <time>2024-05-19T10:17:15Z</time>
      </trkpt>
      <trkpt lat="45.83783" lon="3.38807">
        <ele>373.2</ele>
        <time>2024-05-19T10:17:16Z</time>
      </trkpt>
      <trkpt lat="45.83788" lon="3.3881">
        <ele>373.2</ele>
        <time>2024-05-19T10:17:17Z</time>
      </trkpt>
      <trkpt lat="45.83793" lon="3.38814">
        <ele>373.4</ele>
        <time>2024-05-19T10:17:18Z</time>
      </trkpt>
      <trkpt lat="45.83798" lon="3.38818">
        <ele>373.4</ele>
        <time>2024-05-19T10:17:19Z</time>
      </trkpt>
      <trkpt lat="45.83803" lon="3.38822">
        <ele>373.6</ele>
        <time>2024-05-19T10:17:20Z</time>
      </trkpt>
      <trkpt lat="45.83807" lon="3.38826">
        <ele>373.6</ele>
        <time>2024-05-19T10:17:21Z</time>
      </trkpt>
      <trkpt lat="45.83812" lon="3.38829">
        <ele>373.8</ele>
        <time>2024-05-19T10:17:22Z</time>
      </trkpt>
      <trkpt lat="45.83816" lon="3.38833">
        <ele>374</ele>
        <time>2024-05-19T10:17:23Z</time>
      </trkpt>
      <trkpt lat="45.83821" lon="3.38837">
        <ele>374</ele>
        <time>2024-05-19T10:17:24Z</time>
      </trkpt>
      <trkpt lat="45.83826" lon="3.38841">
        <ele>374.2</ele>
        <time>2024-05-19T10:17:25Z</time>
      </trkpt>
      <trkpt lat="45.8383" lon="3.38844">
        <ele>374.4</ele>
        <time>2024-05-19T10:17:26Z</time>
      </trkpt>
      <trkpt lat="45.83835" lon="3.38848">
        <ele>374.4</ele>
        <time>2024-05-19T10:17:27Z</time>
      </trkpt>
      <trkpt lat="45.83839" lon="3.38851">
        <ele>374.6</ele>
        <time>2024-05-19T10:17:28Z</time>
      </trkpt>
      <trkpt lat="45.83843" lon="3.38855">
        <ele>374.8</ele>
        <time>2024-05-19T10:17:29Z</time>
      </trkpt>
      <trkpt lat="45.83848" lon="3.38858">
        <ele>374.8</ele>
        <time>2024-05-19T10:17:30Z</time>
      </trkpt>
      <trkpt lat="45.83852" lon="3.38862">
        <ele>375</ele>
        <time>2024-05-19T10:17:31Z</time>
      </trkpt>
      <trkpt lat="45.83856" lon="3.38865">
        <ele>375</ele>
        <time>2024-05-19T10:17:32Z</time>
      </trkpt>
      <trkpt lat="45.8386" lon="3.38869">
        <ele>375.2</ele>
        <time>2024-05-19T10:17:33Z</time>
      </trkpt>
      <trkpt lat="45.83865" lon="3.38872">
        <ele>375.2</ele>
        <time>2024-05-19T10:17:34Z</time>
      </trkpt>
      <trkpt lat="45.83869" lon="3.38876">
        <ele>375.4</ele>
        <time>2024-05-19T10:17:35Z</time>
      </trkpt>
      <trkpt lat="45.83874" lon="3.38879">
        <ele>375.6</ele>
        <time>2024-05-19T10:17:36Z</time>
      </trkpt>
      <trkpt lat="45.83878" lon="3.38883">
        <ele>375.6</ele>
        <time>2024-05-19T10:17:37Z</time>
      </trkpt>
      <trkpt lat="45.83882" lon="3.38886">
        <ele>375.8</ele>
        <time>2024-05-19T10:17:38Z</time>
      </trkpt>
      <trkpt lat="45.83886" lon="3.3889">
        <ele>375.8</ele>
        <time>2024-05-19T10:17:39Z</time>
      </trkpt>
      <trkpt lat="45.83891" lon="3.38893">
        <ele>376</ele>
        <time>2024-05-19T10:17:40Z</time>
      </trkpt>
      <trkpt lat="45.83895" lon="3.38897">
        <ele>376</ele>
        <time>2024-05-19T10:17:41Z</time>
      </trkpt>
      <trkpt lat="45.83899" lon="3.389">
        <ele>376</ele>
        <time>2024-05-19T10:17:42Z</time>
      </trkpt>
      <trkpt lat="45.83904" lon="3.38904">
        <ele>376.2</ele>
        <time>2024-05-19T10:17:43Z</time>
      </trkpt>
      <trkpt lat="45.83908" lon="3.38908">
        <ele>376.2</ele>
        <time>2024-05-19T10:17:44Z</time>
      </trkpt>
      <trkpt lat="45.83913" lon="3.38911">
        <ele>376.4</ele>
        <time>2024-05-19T10:17:45Z</time>
      </trkpt>
      <trkpt lat="45.83918" lon="3.38915">
        <ele>376.4</ele>
        <time>2024-05-19T10:17:46Z</time>
      </trkpt>
      <trkpt lat="45.83922" lon="3.38919">
        <ele>376.4</ele>
        <time>2024-05-19T10:17:47Z</time>
      </trkpt>
      <trkpt lat="45.83927" lon="3.38922">
        <ele>376.6</ele>
        <time>2024-05-19T10:17:48Z</time>
      </trkpt>
      <trkpt lat="45.83931" lon="3.38926">
        <ele>376.8</ele>
        <time>2024-05-19T10:17:49Z</time>
      </trkpt>
      <trkpt lat="45.83936" lon="3.3893">
        <ele>376.8</ele>
        <time>2024-05-19T10:17:50Z</time>
      </trkpt>
      <trkpt lat="45.8394" lon="3.38933">
        <ele>376.8</ele>
        <time>2024-05-19T10:17:51Z</time>
      </trkpt>
      <trkpt lat="45.83945" lon="3.38937">
        <ele>377</ele>
        <time>2024-05-19T10:17:52Z</time>
      </trkpt>
      <trkpt lat="45.83949" lon="3.38941">
        <ele>377</ele>
        <time>2024-05-19T10:17:53Z</time>
      </trkpt>
      <trkpt lat="45.83954" lon="3.38944">
        <ele>377.2</ele>
        <time>2024-05-19T10:17:54Z</time>
      </trkpt>
      <trkpt lat="45.83958" lon="3.38948">
        <ele>377.2</ele>
        <time>2024-05-19T10:17:55Z</time>
      </trkpt>
      <trkpt lat="45.83963" lon="3.38952">
        <ele>377.4</ele>
        <time>2024-05-19T10:17:56Z</time>
      </trkpt>
      <trkpt lat="45.83967" lon="3.38955">
        <ele>377.4</ele>
        <time>2024-05-19T10:17:57Z</time>
      </trkpt>
      <trkpt lat="45.83972" lon="3.38959">
        <ele>377.6</ele>
        <time>2024-05-19T10:17:58Z</time>
      </trkpt>
      <trkpt lat="45.83976" lon="3.38962">
        <ele>377.8</ele>
        <time>2024-05-19T10:17:59Z</time>
      </trkpt>
      <trkpt lat="45.8398" lon="3.38966">
        <ele>378</ele>
        <time>2024-05-19T10:18:00Z</time>
      </trkpt>
      <trkpt lat="45.83985" lon="3.38969">
        <ele>378</ele>
        <time>2024-05-19T10:18:01Z</time>
      </trkpt>
      <trkpt lat="45.83989" lon="3.38973">
        <ele>378.2</ele>
        <time>2024-05-19T10:18:02Z</time>
      </trkpt>
      <trkpt lat="45.83993" lon="3.38976">
        <ele>378.4</ele>
        <time>2024-05-19T10:18:03Z</time>
      </trkpt>
      <trkpt lat="45.83998" lon="3.3898">
        <ele>378.4</ele>
        <time>2024-05-19T10:18:04Z</time>
      </trkpt>
      <trkpt lat="45.84002" lon="3.38983">
        <ele>378.6</ele>
        <time>2024-05-19T10:18:05Z</time>
      </trkpt>
      <trkpt lat="45.84006" lon="3.38987">
        <ele>378.6</ele>
        <time>2024-05-19T10:18:06Z</time>
      </trkpt>
      <trkpt lat="45.84011" lon="3.3899">
        <ele>378.8</ele>
        <time>2024-05-19T10:18:07Z</time>
      </trkpt>
      <trkpt lat="45.84015" lon="3.38993">
        <ele>379</ele>
        <time>2024-05-19T10:18:08Z</time>
      </trkpt>
      <trkpt lat="45.84019" lon="3.38997">
        <ele>379.2</ele>
        <time>2024-05-19T10:18:09Z</time>
      </trkpt>
      <trkpt lat="45.84023" lon="3.39">
        <ele>379.2</ele>
        <time>2024-05-19T10:18:10Z</time>
      </trkpt>
      <trkpt lat="45.84027" lon="3.39003">
        <ele>379.4</ele>
        <time>2024-05-19T10:18:11Z</time>
      </trkpt>
      <trkpt lat="45.84031" lon="3.39007">
        <ele>379.6</ele>
        <time>2024-05-19T10:18:12Z</time>
      </trkpt>
      <trkpt lat="45.84035" lon="3.3901">
        <ele>379.6</ele>
        <time>2024-05-19T10:18:13Z</time>
      </trkpt>
      <trkpt lat="45.84039" lon="3.39013">
        <ele>379.8</ele>
        <time>2024-05-19T10:18:14Z</time>
      </trkpt>
      <trkpt lat="45.84043" lon="3.39017">
        <ele>380</ele>
        <time>2024-05-19T10:18:15Z</time>
      </trkpt>
      <trkpt lat="45.84047" lon="3.3902">
        <ele>380</ele>
        <time>2024-05-19T10:18:16Z</time>
      </trkpt>
      <trkpt lat="45.84052" lon="3.39023">
        <ele>380</ele>
        <time>2024-05-19T10:18:17Z</time>
      </trkpt>
      <trkpt lat="45.84056" lon="3.39027">
        <ele>380.2</ele>
        <time>2024-05-19T10:18:18Z</time>
      </trkpt>
      <trkpt lat="45.8406" lon="3.3903">
        <ele>380.4</ele>
        <time>2024-05-19T10:18:19Z</time>
      </trkpt>
      <trkpt lat="45.84065" lon="3.39034">
        <ele>380.4</ele>
        <time>2024-05-19T10:18:20Z</time>
      </trkpt>
      <trkpt lat="45.84069" lon="3.39038">
        <ele>380.4</ele>
        <time>2024-05-19T10:18:21Z</time>
      </trkpt>
      <trkpt lat="45.84074" lon="3.39041">
        <ele>380.6</ele>
        <time>2024-05-19T10:18:22Z</time>
      </trkpt>
      <trkpt lat="45.84079" lon="3.39045">
        <ele>380.6</ele>
        <time>2024-05-19T10:18:23Z</time>
      </trkpt>
      <trkpt lat="45.84083" lon="3.39049">
        <ele>380.8</ele>
        <time>2024-05-19T10:18:24Z</time>
      </trkpt>
      <trkpt lat="45.84088" lon="3.39053">
        <ele>380.8</ele>
        <time>2024-05-19T10:18:25Z</time>
      </trkpt>
      <trkpt lat="45.84093" lon="3.39057">
        <ele>381</ele>
        <time>2024-05-19T10:18:26Z</time>
      </trkpt>
      <trkpt lat="45.84098" lon="3.39061">
        <ele>381</ele>
        <time>2024-05-19T10:18:27Z</time>
      </trkpt>
      <trkpt lat="45.84103" lon="3.39065">
        <ele>381</ele>
        <time>2024-05-19T10:18:28Z</time>
      </trkpt>
      <trkpt lat="45.84108" lon="3.39069">
        <ele>381.2</ele>
        <time>2024-05-19T10:18:29Z</time>
      </trkpt>
      <trkpt lat="45.84113" lon="3.39073">
        <ele>381.2</ele>
        <time>2024-05-19T10:18:30Z</time>
      </trkpt>
      <trkpt lat="45.84119" lon="3.39078">
        <ele>381.4</ele>
        <time>2024-05-19T10:18:31Z</time>
      </trkpt>
      <trkpt lat="45.84124" lon="3.39082">
        <ele>381.4</ele>
        <time>2024-05-19T10:18:32Z</time>
      </trkpt>
      <trkpt lat="45.84129" lon="3.39086">
        <ele>381.4</ele>
        <time>2024-05-19T10:18:33Z</time>
      </trkpt>
      <trkpt lat="45.84134" lon="3.3909">
        <ele>381.6</ele>
        <time>2024-05-19T10:18:34Z</time>
      </trkpt>
      <trkpt lat="45.84139" lon="3.39094">
        <ele>381.6</ele>
        <time>2024-05-19T10:18:35Z</time>
      </trkpt>
      <trkpt lat="45.84144" lon="3.39098">
        <ele>381.8</ele>
        <time>2024-05-19T10:18:36Z</time>
      </trkpt>
      <trkpt lat="45.84149" lon="3.39102">
        <ele>381.8</ele>
        <time>2024-05-19T10:18:37Z</time>
      </trkpt>
      <trkpt lat="45.84154" lon="3.39106">
        <ele>382</ele>
        <time>2024-05-19T10:18:38Z</time>
      </trkpt>
      <trkpt lat="45.84158" lon="3.3911">
        <ele>382</ele>
        <time>2024-05-19T10:18:39Z</time>
      </trkpt>
      <trkpt lat="45.84163" lon="3.39114">
        <ele>382.2</ele>
        <time>2024-05-19T10:18:40Z</time>
      </trkpt>
      <trkpt lat="45.84168" lon="3.39118">
        <ele>382.2</ele>
        <time>2024-05-19T10:18:41Z</time>
      </trkpt>
      <trkpt lat="45.84173" lon="3.39121">
        <ele>382.4</ele>
        <time>2024-05-19T10:18:42Z</time>
      </trkpt>
      <trkpt lat="45.84178" lon="3.39125">
        <ele>382.4</ele>
        <time>2024-05-19T10:18:43Z</time>
      </trkpt>
      <trkpt lat="45.84183" lon="3.39129">
        <ele>382.6</ele>
        <time>2024-05-19T10:18:44Z</time>
      </trkpt>
      <trkpt lat="45.84187" lon="3.39133">
        <ele>382.6</ele>
        <time>2024-05-19T10:18:45Z</time>
      </trkpt>
      <trkpt lat="45.84192" lon="3.39137">
        <ele>382.8</ele>
        <time>2024-05-19T10:18:46Z</time>
      </trkpt>
      <trkpt lat="45.84197" lon="3.39141">
        <ele>382.8</ele>
        <time>2024-05-19T10:18:47Z</time>
      </trkpt>
      <trkpt lat="45.84202" lon="3.39145">
        <ele>383</ele>
        <time>2024-05-19T10:18:48Z</time>
      </trkpt>
      <trkpt lat="45.84206" lon="3.39149">
        <ele>383</ele>
        <time>2024-05-19T10:18:49Z</time>
      </trkpt>
      <trkpt lat="45.84212" lon="3.39153">
        <ele>383.2</ele>
        <time>2024-05-19T10:18:50Z</time>
      </trkpt>
      <trkpt lat="45.84216" lon="3.39157">
        <ele>383.4</ele>
        <time>2024-05-19T10:18:51Z</time>
      </trkpt>
      <trkpt lat="45.84221" lon="3.3916">
        <ele>383.4</ele>
        <time>2024-05-19T10:18:52Z</time>
      </trkpt>
      <trkpt lat="45.84226" lon="3.39164">
        <ele>383.6</ele>
        <time>2024-05-19T10:18:53Z</time>
      </trkpt>
      <trkpt lat="45.84231" lon="3.39168">
        <ele>383.6</ele>
        <time>2024-05-19T10:18:54Z</time>
      </trkpt>
      <trkpt lat="45.84235" lon="3.39172">
        <ele>383.8</ele>
        <time>2024-05-19T10:18:55Z</time>
      </trkpt>
      <trkpt lat="45.8424" lon="3.39176">
        <ele>383.8</ele>
        <time>2024-05-19T10:18:56Z</time>
      </trkpt>
      <trkpt lat="45.84245" lon="3.39179">
        <ele>383.8</ele>
        <time>2024-05-19T10:18:57Z</time>
      </trkpt>
      <trkpt lat="45.84249" lon="3.39183">
        <ele>384</ele>
        <time>2024-05-19T10:18:58Z</time>
      </trkpt>
      <trkpt lat="45.84254" lon="3.39187">
        <ele>384</ele>
        <time>2024-05-19T10:18:59Z</time>
      </trkpt>
      <trkpt lat="45.84259" lon="3.39191">
        <ele>384.2</ele>
        <time>2024-05-19T10:19:00Z</time>
      </trkpt>
      <trkpt lat="45.84263" lon="3.39194">
        <ele>384.4</ele>
        <time>2024-05-19T10:19:01Z</time>
      </trkpt>
      <trkpt lat="45.84268" lon="3.39198">
        <ele>384.4</ele>
        <time>2024-05-19T10:19:02Z</time>
      </trkpt>
      <trkpt lat="45.84272" lon="3.39202">
        <ele>384.6</ele>
        <time>2024-05-19T10:19:03Z</time>
      </trkpt>
      <trkpt lat="45.84277" lon="3.39205">
        <ele>384.6</ele>
        <time>2024-05-19T10:19:04Z</time>
      </trkpt>
      <trkpt lat="45.84281" lon="3.39209">
        <ele>384.8</ele>
        <time>2024-05-19T10:19:05Z</time>
      </trkpt>
      <trkpt lat="45.84286" lon="3.39213">
        <ele>384.8</ele>
        <time>2024-05-19T10:19:06Z</time>
      </trkpt>
      <trkpt lat="45.8429" lon="3.39216">
        <ele>385</ele>
        <time>2024-05-19T10:19:07Z</time>
      </trkpt>
      <trkpt lat="45.84295" lon="3.3922">
        <ele>385.2</ele>
        <time>2024-05-19T10:19:08Z</time>
      </trkpt>
      <trkpt lat="45.84299" lon="3.39223">
        <ele>385.2</ele>
        <time>2024-05-19T10:19:09Z</time>
      </trkpt>
      <trkpt lat="45.84303" lon="3.39227">
        <ele>385.4</ele>
        <time>2024-05-19T10:19:10Z</time>
      </trkpt>
      <trkpt lat="45.84307" lon="3.3923">
        <ele>385.4</ele>
        <time>2024-05-19T10:19:11Z</time>
      </trkpt>
      <trkpt lat="45.84311" lon="3.39233">
        <ele>385.6</ele>
        <time>2024-05-19T10:19:12Z</time>
      </trkpt>
      <trkpt lat="45.84315" lon="3.39237">
        <ele>385.8</ele>
        <time>2024-05-19T10:19:13Z</time>
      </trkpt>
      <trkpt lat="45.8432" lon="3.3924">
        <ele>385.8</ele>
        <time>2024-05-19T10:19:14Z</time>
      </trkpt>
      <trkpt lat="45.84324" lon="3.39244">
        <ele>386</ele>
        <time>2024-05-19T10:19:15Z</time>
      </trkpt>
      <trkpt lat="45.84328" lon="3.39247">
        <ele>386.2</ele>
        <time>2024-05-19T10:19:16Z</time>
      </trkpt>
      <trkpt lat="45.84332" lon="3.3925">
        <ele>386.2</ele>
        <time>2024-05-19T10:19:17Z</time>
      </trkpt>
      <trkpt lat="45.84336" lon="3.39254">
        <ele>386.4</ele>
        <time>2024-05-19T10:19:18Z</time>
      </trkpt>
      <trkpt lat="45.84341" lon="3.39257">
        <ele>386.6</ele>
        <time>2024-05-19T10:19:19Z</time>
      </trkpt>
      <trkpt lat="45.84345" lon="3.39261">
        <ele>386.8</ele>
        <time>2024-05-19T10:19:20Z</time>
      </trkpt>
      <trkpt lat="45.8435" lon="3.39264">
        <ele>386.8</ele>
        <time>2024-05-19T10:19:21Z</time>
      </trkpt>
      <trkpt lat="45.84355" lon="3.39265">
        <ele>387</ele>
        <time>2024-05-19T10:19:22Z</time>
      </trkpt>
      <trkpt lat="45.8436" lon="3.39267">
        <ele>387</ele>
        <time>2024-05-19T10:19:23Z</time>
      </trkpt>
      <trkpt lat="45.84365" lon="3.39269">
        <ele>387.2</ele>
        <time>2024-05-19T10:19:24Z</time>
      </trkpt>
      <trkpt lat="45.8437" lon="3.39269">
        <ele>387.4</ele>
        <time>2024-05-19T10:19:25Z</time>
      </trkpt>
      <trkpt lat="45.84375" lon="3.39269">
        <ele>387.4</ele>
        <time>2024-05-19T10:19:26Z</time>
      </trkpt>
      <trkpt lat="45.84381" lon="3.39269">
        <ele>387.6</ele>
        <time>2024-05-19T10:19:27Z</time>
      </trkpt>
      <trkpt lat="45.84386" lon="3.39269">
        <ele>387.8</ele>
        <time>2024-05-19T10:19:28Z</time>
      </trkpt>
      <trkpt lat="45.84392" lon="3.39269">
        <ele>387.8</ele>
        <time>2024-05-19T10:19:29Z</time>
      </trkpt>
      <trkpt lat="45.84398" lon="3.39269">
        <ele>388</ele>
        <time>2024-05-19T10:19:30Z</time>
      </trkpt>
      <trkpt lat="45.84403" lon="3.39269">
        <ele>388</ele>
        <time>2024-05-19T10:19:31Z</time>
      </trkpt>
      <trkpt lat="45.84409" lon="3.39269">
        <ele>388.2</ele>
        <time>2024-05-19T10:19:32Z</time>
      </trkpt>
      <trkpt lat="45.84414" lon="3.39269">
        <ele>388.2</ele>
        <time>2024-05-19T10:19:33Z</time>
      </trkpt>
      <trkpt lat="45.8442" lon="3.39269">
        <ele>388.4</ele>
        <time>2024-05-19T10:19:34Z</time>
      </trkpt>
      <trkpt lat="45.84426" lon="3.39269">
        <ele>388.4</ele>
        <time>2024-05-19T10:19:35Z</time>
      </trkpt>
      <trkpt lat="45.84431" lon="3.39269">
        <ele>388.4</ele>
        <time>2024-05-19T10:19:36Z</time>
      </trkpt>
      <trkpt lat="45.84437" lon="3.39269">
        <ele>388.6</ele>
        <time>2024-05-19T10:19:37Z</time>
      </trkpt>
      <trkpt lat="45.84443" lon="3.39269">
        <ele>388.8</ele>
        <time>2024-05-19T10:19:38Z</time>
      </trkpt>
      <trkpt lat="45.84448" lon="3.39269">
        <ele>388.8</ele>
        <time>2024-05-19T10:19:39Z</time>
      </trkpt>
      <trkpt lat="45.84454" lon="3.39269">
        <ele>389</ele>
        <time>2024-05-19T10:19:40Z</time>
      </trkpt>
      <trkpt lat="45.84459" lon="3.39269">
        <ele>389</ele>
        <time>2024-05-19T10:19:41Z</time>
      </trkpt>
      <trkpt lat="45.84465" lon="3.39269">
        <ele>389.2</ele>
        <time>2024-05-19T10:19:42Z</time>
      </trkpt>
      <trkpt lat="45.84471" lon="3.39269">
        <ele>389.2</ele>
        <time>2024-05-19T10:19:43Z</time>
      </trkpt>
      <trkpt lat="45.84476" lon="3.39269">
        <ele>389.4</ele>
        <time>2024-05-19T10:19:44Z</time>
      </trkpt>
      <trkpt lat="45.84482" lon="3.39269">
        <ele>389.4</ele>
        <time>2024-05-19T10:19:45Z</time>
      </trkpt>
      <trkpt lat="45.84488" lon="3.39269">
        <ele>389.4</ele>
        <time>2024-05-19T10:19:46Z</time>
      </trkpt>
      <trkpt lat="45.84493" lon="3.39269">
        <ele>389.6</ele>
        <time>2024-05-19T10:19:47Z</time>
      </trkpt>
      <trkpt lat="45.84499" lon="3.39269">
        <ele>389.6</ele>
        <time>2024-05-19T10:19:48Z</time>
      </trkpt>
      <trkpt lat="45.84505" lon="3.39269">
        <ele>389.8</ele>
        <time>2024-05-19T10:19:49Z</time>
      </trkpt>
      <trkpt lat="45.84511" lon="3.39269">
        <ele>389.8</ele>
        <time>2024-05-19T10:19:50Z</time>
      </trkpt>
      <trkpt lat="45.84517" lon="3.39269">
        <ele>390</ele>
        <time>2024-05-19T10:19:51Z</time>
      </trkpt>
      <trkpt lat="45.84523" lon="3.39269">
        <ele>390</ele>
        <time>2024-05-19T10:19:52Z</time>
      </trkpt>
      <trkpt lat="45.84529" lon="3.39269">
        <ele>390.2</ele>
        <time>2024-05-19T10:19:53Z</time>
      </trkpt>
      <trkpt lat="45.84535" lon="3.39269">
        <ele>390.2</ele>
        <time>2024-05-19T10:19:54Z</time>
      </trkpt>
      <trkpt lat="45.84541" lon="3.39269">
        <ele>390.2</ele>
        <time>2024-05-19T10:19:55Z</time>
      </trkpt>
      <trkpt lat="45.84547" lon="3.39269">
        <ele>390.2</ele>
        <time>2024-05-19T10:19:56Z</time>
      </trkpt>
      <trkpt lat="45.84553" lon="3.39269">
        <ele>390.4</ele>
        <time>2024-05-19T10:19:57Z</time>
      </trkpt>
      <trkpt lat="45.84559" lon="3.39269">
        <ele>390.6</ele>
        <time>2024-05-19T10:19:58Z</time>
      </trkpt>
      <trkpt lat="45.84564" lon="3.39269">
        <ele>390.6</ele>
        <time>2024-05-19T10:19:59Z</time>
      </trkpt>
      <trkpt lat="45.8457" lon="3.39269">
        <ele>390.8</ele>
        <time>2024-05-19T10:20:00Z</time>
      </trkpt>
      <trkpt lat="45.84575" lon="3.39269">
        <ele>390.8</ele>
        <time>2024-05-19T10:20:01Z</time>
      </trkpt>
      <trkpt lat="45.84581" lon="3.39269">
        <ele>391</ele>
        <time>2024-05-19T10:20:02Z</time>
      </trkpt>
      <trkpt lat="45.84586" lon="3.39269">
        <ele>391</ele>
        <time>2024-05-19T10:20:03Z</time>
      </trkpt>
      <trkpt lat="45.84592" lon="3.39269">
        <ele>391.2</ele>
        <time>2024-05-19T10:20:04Z</time>
      </trkpt>
      <trkpt lat="45.84598" lon="3.39269">
        <ele>391.2</ele>
        <time>2024-05-19T10:20:05Z</time>
      </trkpt>
      <trkpt lat="45.84604" lon="3.39269">
        <ele>391.2</ele>
        <time>2024-05-19T10:20:06Z</time>
      </trkpt>
      <trkpt lat="45.84609" lon="3.39269">
        <ele>391.4</ele>
        <time>2024-05-19T10:20:07Z</time>
      </trkpt>
      <trkpt lat="45.84615" lon="3.39269">
        <ele>391.4</ele>
        <time>2024-05-19T10:20:08Z</time>
      </trkpt>
      <trkpt lat="45.8462" lon="3.39269">
        <ele>391.4</ele>
        <time>2024-05-19T10:20:09Z</time>
      </trkpt>
      <trkpt lat="45.84626" lon="3.39269">
        <ele>391.6</ele>
        <time>2024-05-19T10:20:10Z</time>
      </trkpt>
      <trkpt lat="45.84632" lon="3.39269">
        <ele>391.6</ele>
        <time>2024-05-19T10:20:11Z</time>
      </trkpt>
      <trkpt lat="45.84637" lon="3.39269">
        <ele>391.6</ele>
        <time>2024-05-19T10:20:12Z</time>
      </trkpt>
      <trkpt lat="45.84643" lon="3.39269">
        <ele>391.8</ele>
        <time>2024-05-19T10:20:13Z</time>
      </trkpt>
      <trkpt lat="45.84649" lon="3.39269">
        <ele>391.8</ele>
        <time>2024-05-19T10:20:14Z</time>
      </trkpt>
      <trkpt lat="45.84654" lon="3.39269">
        <ele>391.8</ele>
        <time>2024-05-19T10:20:15Z</time>
      </trkpt>
      <trkpt lat="45.8466" lon="3.39269">
        <ele>391.8</ele>
        <time>2024-05-19T10:20:16Z</time>
      </trkpt>
      <trkpt lat="45.84666" lon="3.39269">
        <ele>391.8</ele>
        <time>2024-05-19T10:20:17Z</time>
      </trkpt>
      <trkpt lat="45.84672" lon="3.39269">
        <ele>392</ele>
        <time>2024-05-19T10:20:18Z</time>
      </trkpt>
      <trkpt lat="45.84678" lon="3.39269">
        <ele>392</ele>
        <time>2024-05-19T10:20:19Z</time>
      </trkpt>
      <trkpt lat="45.84683" lon="3.39269">
        <ele>392</ele>
        <time>2024-05-19T10:20:20Z</time>
      </trkpt>
      <trkpt lat="45.84689" lon="3.39269">
        <ele>392.2</ele>
        <time>2024-05-19T10:20:21Z</time>
      </trkpt>
      <trkpt lat="45.84694" lon="3.39269">
        <ele>392.2</ele>
        <time>2024-05-19T10:20:22Z</time>
      </trkpt>
      <trkpt lat="45.847" lon="3.39269">
        <ele>392.2</ele>
        <time>2024-05-19T10:20:23Z</time>
      </trkpt>
      <trkpt lat="45.84705" lon="3.39269">
        <ele>392.4</ele>
        <time>2024-05-19T10:20:24Z</time>
      </trkpt>
      <trkpt lat="45.84711" lon="3.39269">
        <ele>392.4</ele>
        <time>2024-05-19T10:20:25Z</time>
      </trkpt>
      <trkpt lat="45.84717" lon="3.39269">
        <ele>392.4</ele>
        <time>2024-05-19T10:20:26Z</time>
      </trkpt>
      <trkpt lat="45.84722" lon="3.39269">
        <ele>392.4</ele>
        <time>2024-05-19T10:20:27Z</time>
      </trkpt>
      <trkpt lat="45.84728" lon="3.39269">
        <ele>392.6</ele>
        <time>2024-05-19T10:20:28Z</time>
      </trkpt>
      <trkpt lat="45.84734" lon="3.3927">
        <ele>392.6</ele>
        <time>2024-05-19T10:20:29Z</time>
      </trkpt>
      <trkpt lat="45.84739" lon="3.39271">
        <ele>392.8</ele>
        <time>2024-05-19T10:20:30Z</time>
      </trkpt>
      <trkpt lat="45.84744" lon="3.39272">
        <ele>392.8</ele>
        <time>2024-05-19T10:20:31Z</time>
      </trkpt>
      <trkpt lat="45.8475" lon="3.39273">
        <ele>393</ele>
        <time>2024-05-19T10:20:32Z</time>
      </trkpt>
      <trkpt lat="45.84755" lon="3.39273">
        <ele>393</ele>
        <time>2024-05-19T10:20:33Z</time>
      </trkpt>
      <trkpt lat="45.8476" lon="3.39274">
        <ele>393.2</ele>
        <time>2024-05-19T10:20:34Z</time>
      </trkpt>
      <trkpt lat="45.84766" lon="3.39275">
        <ele>393.2</ele>
        <time>2024-05-19T10:20:35Z</time>
      </trkpt>
      <trkpt lat="45.84771" lon="3.39276">
        <ele>393.2</ele>
        <time>2024-05-19T10:20:36Z</time>
      </trkpt>
      <trkpt lat="45.84776" lon="3.39277">
        <ele>393.4</ele>
        <time>2024-05-19T10:20:37Z</time>
      </trkpt>
      <trkpt lat="45.84781" lon="3.39278">
        <ele>393.4</ele>
        <time>2024-05-19T10:20:38Z</time>
      </trkpt>
      <trkpt lat="45.84787" lon="3.39282">
        <ele>393.6</ele>
        <time>2024-05-19T10:20:39Z</time>
      </trkpt>
      <trkpt lat="45.8479" lon="3.39287">
        <ele>393.6</ele>
        <time>2024-05-19T10:20:40Z</time>
      </trkpt>
      <trkpt lat="45.84795" lon="3.39289">
        <ele>393.8</ele>
        <time>2024-05-19T10:20:41Z</time>
      </trkpt>
      <trkpt lat="45.848" lon="3.3929">
        <ele>393.8</ele>
        <time>2024-05-19T10:20:42Z</time>
      </trkpt>
      <trkpt lat="45.84806" lon="3.3929">
        <ele>394</ele>
        <time>2024-05-19T10:20:43Z</time>
      </trkpt>
      <trkpt lat="45.84809" lon="3.39285">
        <ele>394</ele>
        <time>2024-05-19T10:20:44Z</time>
      </trkpt>
      <trkpt lat="45.84812" lon="3.3928">
        <ele>394</ele>
        <time>2024-05-19T10:20:45Z</time>
      </trkpt>
      <trkpt lat="45.84819" lon="3.39278">
        <ele>394.2</ele>
        <time>2024-05-19T10:20:46Z</time>
      </trkpt>
      <trkpt lat="45.84824" lon="3.39277">
        <ele>394.2</ele>
        <time>2024-05-19T10:20:47Z</time>
      </trkpt>
      <trkpt lat="45.84829" lon="3.39277">
        <ele>394.2</ele>
        <time>2024-05-19T10:20:48Z</time>
      </trkpt>
      <trkpt lat="45.84835" lon="3.39277">
        <ele>394.4</ele>
        <time>2024-05-19T10:20:49Z</time>
      </trkpt>
      <trkpt lat="45.8484" lon="3.39276">
        <ele>394.4</ele>
        <time>2024-05-19T10:20:50Z</time>
      </trkpt>
      <trkpt lat="45.84846" lon="3.39276">
        <ele>394.4</ele>
        <time>2024-05-19T10:20:51Z</time>
      </trkpt>
      <trkpt lat="45.84851" lon="3.39275">
        <ele>394.6</ele>
        <time>2024-05-19T10:20:52Z</time>
      </trkpt>
      <trkpt lat="45.84856" lon="3.39275">
        <ele>394.6</ele>
        <time>2024-05-19T10:20:53Z</time>
      </trkpt>
      <trkpt lat="45.84861" lon="3.39275">
        <ele>394.8</ele>
        <time>2024-05-19T10:20:54Z</time>
      </trkpt>
      <trkpt lat="45.84867" lon="3.39274">
        <ele>394.8</ele>
        <time>2024-05-19T10:20:55Z</time>
      </trkpt>
      <trkpt lat="45.84872" lon="3.39274">
        <ele>395</ele>
        <time>2024-05-19T10:20:56Z</time>
      </trkpt>
      <trkpt lat="45.84878" lon="3.39274">
        <ele>395</ele>
        <time>2024-05-19T10:20:57Z</time>
      </trkpt>
      <trkpt lat="45.84883" lon="3.39273">
        <ele>395.2</ele>
        <time>2024-05-19T10:20:58Z</time>
      </trkpt>
      <trkpt lat="45.84889" lon="3.39273">
        <ele>395.2</ele>
        <time>2024-05-19T10:20:59Z</time>
      </trkpt>
      <trkpt lat="45.84894" lon="3.39273">
        <ele>395.2</ele>
        <time>2024-05-19T10:21:00Z</time>
      </trkpt>
      <trkpt lat="45.849" lon="3.39272">
        <ele>395.4</ele>
        <time>2024-05-19T10:21:01Z</time>
      </trkpt>
      <trkpt lat="45.84906" lon="3.39272">
        <ele>395.4</ele>
        <time>2024-05-19T10:21:02Z</time>
      </trkpt>
      <trkpt lat="45.84911" lon="3.39272">
        <ele>395.4</ele>
        <time>2024-05-19T10:21:03Z</time>
      </trkpt>
      <trkpt lat="45.84917" lon="3.39272">
        <ele>395.4</ele>
        <time>2024-05-19T10:21:04Z</time>
      </trkpt>
      <trkpt lat="45.84923" lon="3.39272">
        <ele>395.6</ele>
        <time>2024-05-19T10:21:05Z</time>
      </trkpt>
      <trkpt lat="45.84929" lon="3.39272">
        <ele>395.6</ele>
        <time>2024-05-19T10:21:06Z</time>
      </trkpt>
      <trkpt lat="45.84935" lon="3.39272">
        <ele>395.6</ele>
        <time>2024-05-19T10:21:07Z</time>
      </trkpt>
      <trkpt lat="45.84941" lon="3.39273">
        <ele>395.8</ele>
        <time>2024-05-19T10:21:08Z</time>
      </trkpt>
      <trkpt lat="45.84947" lon="3.39273">
        <ele>395.8</ele>
        <time>2024-05-19T10:21:09Z</time>
      </trkpt>
      <trkpt lat="45.84953" lon="3.39273">
        <ele>395.8</ele>
        <time>2024-05-19T10:21:10Z</time>
      </trkpt>
      <trkpt lat="45.84959" lon="3.39273">
        <ele>396</ele>
        <time>2024-05-19T10:21:11Z</time>
      </trkpt>
      <trkpt lat="45.84966" lon="3.39274">
        <ele>396</ele>
        <time>2024-05-19T10:21:12Z</time>
      </trkpt>
      <trkpt lat="45.84972" lon="3.39274">
        <ele>396</ele>
        <time>2024-05-19T10:21:13Z</time>
      </trkpt>
      <trkpt lat="45.84979" lon="3.39274">
        <ele>396</ele>
        <time>2024-05-19T10:21:14Z</time>
      </trkpt>
      <trkpt lat="45.84986" lon="3.39274">
        <ele>396</ele>
        <time>2024-05-19T10:21:15Z</time>
      </trkpt>
      <trkpt lat="45.84992" lon="3.39275">
        <ele>396.2</ele>
        <time>2024-05-19T10:21:16Z</time>
      </trkpt>
      <trkpt lat="45.84998" lon="3.39275">
        <ele>396.2</ele>
        <time>2024-05-19T10:21:17Z</time>
      </trkpt>
      <trkpt lat="45.85004" lon="3.39275">
        <ele>396.2</ele>
        <time>2024-05-19T10:21:18Z</time>
      </trkpt>
      <trkpt lat="45.85011" lon="3.39275">
        <ele>396.2</ele>
        <time>2024-05-19T10:21:19Z</time>
      </trkpt>
      <trkpt lat="45.85017" lon="3.39276">
        <ele>396.2</ele>
        <time>2024-05-19T10:21:20Z</time>
      </trkpt>
      <trkpt lat="45.85023" lon="3.39276">
        <ele>396.4</ele>
        <time>2024-05-19T10:21:21Z</time>
      </trkpt>
      <trkpt lat="45.8503" lon="3.39276">
        <ele>396.4</ele>
        <time>2024-05-19T10:21:22Z</time>
      </trkpt>
      <trkpt lat="45.85036" lon="3.39276">
        <ele>396.4</ele>
        <time>2024-05-19T10:21:23Z</time>
      </trkpt>
      <trkpt lat="45.85043" lon="3.39277">
        <ele>396.4</ele>
        <time>2024-05-19T10:21:24Z</time>
      </trkpt>
      <trkpt lat="45.85049" lon="3.39277">
        <ele>396.4</ele>
        <time>2024-05-19T10:21:25Z</time>
      </trkpt>
      <trkpt lat="45.85055" lon="3.39277">
        <ele>396.6</ele>
        <time>2024-05-19T10:21:26Z</time>
      </trkpt>
      <trkpt lat="45.85062" lon="3.39277">
        <ele>396.6</ele>
        <time>2024-05-19T10:21:27Z</time>
      </trkpt>
      <trkpt lat="45.85068" lon="3.39277">
        <ele>396.6</ele>
        <time>2024-05-19T10:21:28Z</time>
      </trkpt>
      <trkpt lat="45.85075" lon="3.39278">
        <ele>396.6</ele>
        <time>2024-05-19T10:21:29Z</time>
      </trkpt>
      <trkpt lat="45.85081" lon="3.39278">
        <ele>396.8</ele>
        <time>2024-05-19T10:21:30Z</time>
      </trkpt>
      <trkpt lat="45.85088" lon="3.39278">
        <ele>396.8</ele>
        <time>2024-05-19T10:21:31Z</time>
      </trkpt>
      <trkpt lat="45.85094" lon="3.39277">
        <ele>396.8</ele>
        <time>2024-05-19T10:21:32Z</time>
      </trkpt>
      <trkpt lat="45.85101" lon="3.39277">
        <ele>396.8</ele>
        <time>2024-05-19T10:21:33Z</time>
      </trkpt>
      <trkpt lat="45.85108" lon="3.39276">
        <ele>396.8</ele>
        <time>2024-05-19T10:21:34Z</time>
      </trkpt>
      <trkpt lat="45.85115" lon="3.39276">
        <ele>397</ele>
        <time>2024-05-19T10:21:35Z</time>
      </trkpt>
      <trkpt lat="45.85122" lon="3.39275">
        <ele>397</ele>
        <time>2024-05-19T10:21:36Z</time>
      </trkpt>
      <trkpt lat="45.85129" lon="3.39274">
        <ele>397</ele>
        <time>2024-05-19T10:21:37Z</time>
      </trkpt>
      <trkpt lat="45.85136" lon="3.39274">
        <ele>397</ele>
        <time>2024-05-19T10:21:38Z</time>
      </trkpt>
      <trkpt lat="45.85143" lon="3.39273">
        <ele>397</ele>
        <time>2024-05-19T10:21:39Z</time>
      </trkpt>
      <trkpt lat="45.8515" lon="3.39273">
        <ele>397</ele>
        <time>2024-05-19T10:21:40Z</time>
      </trkpt>
      <trkpt lat="45.85157" lon="3.39272">
        <ele>397</ele>
        <time>2024-05-19T10:21:41Z</time>
      </trkpt>
      <trkpt lat="45.85164" lon="3.39272">
        <ele>397</ele>
        <time>2024-05-19T10:21:42Z</time>
      </trkpt>
      <trkpt lat="45.85171" lon="3.39271">
        <ele>397</ele>
        <time>2024-05-19T10:21:43Z</time>
      </trkpt>
      <trkpt lat="45.85179" lon="3.39271">
        <ele>397</ele>
        <time>2024-05-19T10:21:44Z</time>
      </trkpt>
      <trkpt lat="45.85186" lon="3.3927">
        <ele>397</ele>
        <time>2024-05-19T10:21:45Z</time>
      </trkpt>
      <trkpt lat="45.85193" lon="3.3927">
        <ele>397.2</ele>
        <time>2024-05-19T10:21:46Z</time>
      </trkpt>
      <trkpt lat="45.85201" lon="3.39269">
        <ele>397.2</ele>
        <time>2024-05-19T10:21:47Z</time>
      </trkpt>
      <trkpt lat="45.85208" lon="3.39268">
        <ele>397.2</ele>
        <time>2024-05-19T10:21:48Z</time>
      </trkpt>
      <trkpt lat="45.85216" lon="3.39268">
        <ele>397.2</ele>
        <time>2024-05-19T10:21:49Z</time>
      </trkpt>
      <trkpt lat="45.85223" lon="3.39267">
        <ele>397.4</ele>
        <time>2024-05-19T10:21:50Z</time>
      </trkpt>
      <trkpt lat="45.85231" lon="3.39266">
        <ele>397.2</ele>
        <time>2024-05-19T10:21:51Z</time>
      </trkpt>
      <trkpt lat="45.85238" lon="3.39265">
        <ele>397.4</ele>
        <time>2024-05-19T10:21:52Z</time>
      </trkpt>
      <trkpt lat="45.85246" lon="3.39264">
        <ele>397.2</ele>
        <time>2024-05-19T10:21:53Z</time>
      </trkpt>
      <trkpt lat="45.85253" lon="3.39263">
        <ele>397.2</ele>
        <time>2024-05-19T10:21:54Z</time>
      </trkpt>
      <trkpt lat="45.85261" lon="3.39262">
        <ele>397.2</ele>
        <time>2024-05-19T10:21:55Z</time>
      </trkpt>
      <trkpt lat="45.85268" lon="3.3926">
        <ele>397.4</ele>
        <time>2024-05-19T10:21:56Z</time>
      </trkpt>
      <trkpt lat="45.85274" lon="3.39259">
        <ele>397.4</ele>
        <time>2024-05-19T10:21:57Z</time>
      </trkpt>
      <trkpt lat="45.8528" lon="3.39257">
        <ele>397.2</ele>
        <time>2024-05-19T10:21:58Z</time>
      </trkpt>
      <trkpt lat="45.85287" lon="3.39267">
        <ele>397.2</ele>
        <time>2024-05-19T10:21:59Z</time>
      </trkpt>
      <trkpt lat="45.8529" lon="3.39276">
        <ele>397.2</ele>
        <time>2024-05-19T10:22:00Z</time>
      </trkpt>
      <trkpt lat="45.85292" lon="3.39286">
        <ele>397.2</ele>
        <time>2024-05-19T10:22:01Z</time>
      </trkpt>
      <trkpt lat="45.85293" lon="3.39297">
        <ele>397.2</ele>
        <time>2024-05-19T10:22:02Z</time>
      </trkpt>
      <trkpt lat="45.85295" lon="3.39307">
        <ele>397.2</ele>
        <time>2024-05-19T10:22:03Z</time>
      </trkpt>
      <trkpt lat="45.85297" lon="3.39318">
        <ele>397.2</ele>
        <time>2024-05-19T10:22:04Z</time>
      </trkpt>
      <trkpt lat="45.85298" lon="3.39329">
        <ele>397.2</ele>
        <time>2024-05-19T10:22:05Z</time>
      </trkpt>
      <trkpt lat="45.85298" lon="3.3934">
        <ele>397</ele>
        <time>2024-05-19T10:22:06Z</time>
      </trkpt>
      <trkpt lat="45.85297" lon="3.39352">
        <ele>397</ele>
        <time>2024-05-19T10:22:07Z</time>
      </trkpt>
      <trkpt lat="45.85297" lon="3.39363">
        <ele>397</ele>
        <time>2024-05-19T10:22:08Z</time>
      </trkpt>
      <trkpt lat="45.85296" lon="3.39374">
        <ele>397</ele>
        <time>2024-05-19T10:22:09Z</time>
      </trkpt>
      <trkpt lat="45.85294" lon="3.39384">
        <ele>397</ele>
        <time>2024-05-19T10:22:10Z</time>
      </trkpt>
      <trkpt lat="45.85292" lon="3.39395">
        <ele>397</ele>
        <time>2024-05-19T10:22:11Z</time>
      </trkpt>
      <trkpt lat="45.85289" lon="3.39405">
        <ele>397</ele>
        <time>2024-05-19T10:22:12Z</time>
      </trkpt>
      <trkpt lat="45.85287" lon="3.39415">
        <ele>397</ele>
        <time>2024-05-19T10:22:13Z</time>
      </trkpt>
      <trkpt lat="45.85284" lon="3.39426">
        <ele>396.8</ele>
        <time>2024-05-19T10:22:14Z</time>
      </trkpt>
      <trkpt lat="45.85282" lon="3.39436">
        <ele>396.8</ele>
        <time>2024-05-19T10:22:15Z</time>
      </trkpt>
      <trkpt lat="45.85279" lon="3.39446">
        <ele>396.8</ele>
        <time>2024-05-19T10:22:16Z</time>
      </trkpt>
      <trkpt lat="45.85277" lon="3.39457">
        <ele>397</ele>
        <time>2024-05-19T10:22:17Z</time>
      </trkpt>
      <trkpt lat="45.85274" lon="3.39467">
        <ele>397</ele>
        <time>2024-05-19T10:22:18Z</time>
      </trkpt>
      <trkpt lat="45.85272" lon="3.39477">
        <ele>397</ele>
        <time>2024-05-19T10:22:19Z</time>
      </trkpt>
      <trkpt lat="45.85269" lon="3.39487">
        <ele>397</ele>
        <time>2024-05-19T10:22:20Z</time>
      </trkpt>
      <trkpt lat="45.85267" lon="3.39498">
        <ele>397</ele>
        <time>2024-05-19T10:22:21Z</time>
      </trkpt>
      <trkpt lat="45.85266" lon="3.39508">
        <ele>397</ele>
        <time>2024-05-19T10:22:22Z</time>
      </trkpt>
      <trkpt lat="45.85264" lon="3.39518">
        <ele>397</ele>
        <time>2024-05-19T10:22:23Z</time>
      </trkpt>
      <trkpt lat="45.85262" lon="3.39528">
        <ele>397</ele>
        <time>2024-05-19T10:22:24Z</time>
      </trkpt>
      <trkpt lat="45.85261" lon="3.39538">
        <ele>397</ele>
        <time>2024-05-19T10:22:25Z</time>
      </trkpt>
      <trkpt lat="45.8526" lon="3.39548">
        <ele>397</ele>
        <time>2024-05-19T10:22:26Z</time>
      </trkpt>
      <trkpt lat="45.85259" lon="3.39559">
        <ele>397</ele>
        <time>2024-05-19T10:22:27Z</time>
      </trkpt>
      <trkpt lat="45.85258" lon="3.39569">
        <ele>397</ele>
        <time>2024-05-19T10:22:28Z</time>
      </trkpt>
      <trkpt lat="45.85258" lon="3.39579">
        <ele>397</ele>
        <time>2024-05-19T10:22:29Z</time>
      </trkpt>
      <trkpt lat="45.85257" lon="3.39588">
        <ele>397</ele>
        <time>2024-05-19T10:22:30Z</time>
      </trkpt>
      <trkpt lat="45.85257" lon="3.39598">
        <ele>397</ele>
        <time>2024-05-19T10:22:31Z</time>
      </trkpt>
      <trkpt lat="45.85256" lon="3.39608">
        <ele>396.8</ele>
        <time>2024-05-19T10:22:32Z</time>
      </trkpt>
      <trkpt lat="45.85256" lon="3.39617">
        <ele>396.8</ele>
        <time>2024-05-19T10:22:33Z</time>
      </trkpt>
      <trkpt lat="45.85255" lon="3.39627">
        <ele>396.8</ele>
        <time>2024-05-19T10:22:34Z</time>
      </trkpt>
      <trkpt lat="45.85254" lon="3.39636">
        <ele>396.8</ele>
        <time>2024-05-19T10:22:35Z</time>
      </trkpt>
      <trkpt lat="45.85254" lon="3.39646">
        <ele>396.8</ele>
        <time>2024-05-19T10:22:36Z</time>
      </trkpt>
      <trkpt lat="45.85253" lon="3.39655">
        <ele>396.8</ele>
        <time>2024-05-19T10:22:37Z</time>
      </trkpt>
      <trkpt lat="45.85253" lon="3.39665">
        <ele>396.8</ele>
        <time>2024-05-19T10:22:38Z</time>
      </trkpt>
      <trkpt lat="45.85252" lon="3.39675">
        <ele>396.8</ele>
        <time>2024-05-19T10:22:39Z</time>
      </trkpt>
      <trkpt lat="45.85252" lon="3.39684">
        <ele>396.8</ele>
        <time>2024-05-19T10:22:40Z</time>
      </trkpt>
      <trkpt lat="45.85251" lon="3.39694">
        <ele>396.8</ele>
        <time>2024-05-19T10:22:41Z</time>
      </trkpt>
      <trkpt lat="45.8525" lon="3.39703">
        <ele>396.8</ele>
        <time>2024-05-19T10:22:42Z</time>
      </trkpt>
      <trkpt lat="45.8525" lon="3.39713">
        <ele>396.8</ele>
        <time>2024-05-19T10:22:43Z</time>
      </trkpt>
      <trkpt lat="45.85249" lon="3.39722">
        <ele>396.8</ele>
        <time>2024-05-19T10:22:44Z</time>
      </trkpt>
      <trkpt lat="45.85249" lon="3.39731">
        <ele>396.8</ele>
        <time>2024-05-19T10:22:45Z</time>
      </trkpt>
      <trkpt lat="45.85248" lon="3.3974">
        <ele>396.8</ele>
        <time>2024-05-19T10:22:46Z</time>
      </trkpt>
      <trkpt lat="45.85248" lon="3.39748">
        <ele>396.8</ele>
        <time>2024-05-19T10:22:47Z</time>
      </trkpt>
      <trkpt lat="45.85247" lon="3.39757">
        <ele>396.8</ele>
        <time>2024-05-19T10:22:48Z</time>
      </trkpt>
      <trkpt lat="45.85247" lon="3.39766">
        <ele>396.8</ele>
        <time>2024-05-19T10:22:49Z</time>
      </trkpt>
      <trkpt lat="45.85246" lon="3.39774">
        <ele>396.8</ele>
        <time>2024-05-19T10:22:50Z</time>
      </trkpt>
      <trkpt lat="45.85246" lon="3.39783">
        <ele>397</ele>
        <time>2024-05-19T10:22:51Z</time>
      </trkpt>
      <trkpt lat="45.85245" lon="3.39791">
        <ele>397</ele>
        <time>2024-05-19T10:22:52Z</time>
      </trkpt>
      <trkpt lat="45.85245" lon="3.398">
        <ele>397</ele>
        <time>2024-05-19T10:22:53Z</time>
      </trkpt>
      <trkpt lat="45.85244" lon="3.39808">
        <ele>397</ele>
        <time>2024-05-19T10:22:54Z</time>
      </trkpt>
      <trkpt lat="45.85244" lon="3.39816">
        <ele>397</ele>
        <time>2024-05-19T10:22:55Z</time>
      </trkpt>
      <trkpt lat="45.85243" lon="3.39824">
        <ele>397</ele>
        <time>2024-05-19T10:22:56Z</time>
      </trkpt>
      <trkpt lat="45.85243" lon="3.39832">
        <ele>397</ele>
        <time>2024-05-19T10:22:57Z</time>
      </trkpt>
      <trkpt lat="45.85243" lon="3.39841">
        <ele>397</ele>
        <time>2024-05-19T10:22:58Z</time>
      </trkpt>
      <trkpt lat="45.85244" lon="3.39849">
        <ele>397</ele>
        <time>2024-05-19T10:22:59Z</time>
      </trkpt>
      <trkpt lat="45.85245" lon="3.39857">
        <ele>397</ele>
        <time>2024-05-19T10:23:00Z</time>
      </trkpt>
      <trkpt lat="45.85246" lon="3.39865">
        <ele>397.2</ele>
        <time>2024-05-19T10:23:01Z</time>
      </trkpt>
      <trkpt lat="45.85246" lon="3.39873">
        <ele>397.2</ele>
        <time>2024-05-19T10:23:02Z</time>
      </trkpt>
      <trkpt lat="45.85247" lon="3.39881">
        <ele>397.2</ele>
        <time>2024-05-19T10:23:03Z</time>
      </trkpt>
      <trkpt lat="45.85248" lon="3.3989">
        <ele>397.4</ele>
        <time>2024-05-19T10:23:04Z</time>
      </trkpt>
      <trkpt lat="45.85249" lon="3.39898">
        <ele>397.4</ele>
        <time>2024-05-19T10:23:05Z</time>
      </trkpt>
      <trkpt lat="45.85251" lon="3.39908">
        <ele>397.4</ele>
        <time>2024-05-19T10:23:06Z</time>
      </trkpt>
      <trkpt lat="45.85254" lon="3.39915">
        <ele>397.4</ele>
        <time>2024-05-19T10:23:07Z</time>
      </trkpt>
      <trkpt lat="45.85257" lon="3.39923">
        <ele>397.4</ele>
        <time>2024-05-19T10:23:08Z</time>
      </trkpt>
      <trkpt lat="45.8526" lon="3.3993">
        <ele>397.4</ele>
        <time>2024-05-19T10:23:09Z</time>
      </trkpt>
      <trkpt lat="45.85262" lon="3.39938">
        <ele>397.4</ele>
        <time>2024-05-19T10:23:10Z</time>
      </trkpt>
      <trkpt lat="45.85265" lon="3.39946">
        <ele>397.4</ele>
        <time>2024-05-19T10:23:11Z</time>
      </trkpt>
      <trkpt lat="45.85268" lon="3.39954">
        <ele>397.4</ele>
        <time>2024-05-19T10:23:12Z</time>
      </trkpt>
      <trkpt lat="45.85271" lon="3.39962">
        <ele>397.4</ele>
        <time>2024-05-19T10:23:13Z</time>
      </trkpt>
      <trkpt lat="45.85275" lon="3.39968">
        <ele>397.4</ele>
        <time>2024-05-19T10:23:14Z</time>
      </trkpt>
      <trkpt lat="45.85279" lon="3.39975">
        <ele>397.4</ele>
        <time>2024-05-19T10:23:15Z</time>
      </trkpt>
      <trkpt lat="45.85283" lon="3.39982">
        <ele>397.4</ele>
        <time>2024-05-19T10:23:16Z</time>
      </trkpt>
      <trkpt lat="45.85287" lon="3.39989">
        <ele>397.4</ele>
        <time>2024-05-19T10:23:17Z</time>
      </trkpt>
      <trkpt lat="45.85291" lon="3.39995">
        <ele>397.4</ele>
        <time>2024-05-19T10:23:18Z</time>
      </trkpt>
      <trkpt lat="45.85296" lon="3.40001">
        <ele>397.4</ele>
        <time>2024-05-19T10:23:19Z</time>
      </trkpt>
      <trkpt lat="45.85301" lon="3.40006">
        <ele>397.4</ele>
        <time>2024-05-19T10:23:20Z</time>
      </trkpt>
      <trkpt lat="45.85306" lon="3.40011">
        <ele>397.4</ele>
        <time>2024-05-19T10:23:21Z</time>
      </trkpt>
      <trkpt lat="45.8531" lon="3.40016">
        <ele>397.6</ele>
        <time>2024-05-19T10:23:22Z</time>
      </trkpt>
      <trkpt lat="45.85315" lon="3.40021">
        <ele>397.4</ele>
        <time>2024-05-19T10:23:23Z</time>
      </trkpt>
      <trkpt lat="45.8532" lon="3.40026">
        <ele>397</ele>
        <time>2024-05-19T10:23:24Z</time>
      </trkpt>
      <trkpt lat="45.85325" lon="3.40031">
        <ele>397.2</ele>
        <time>2024-05-19T10:23:25Z</time>
      </trkpt>
      <trkpt lat="45.8533" lon="3.40037">
        <ele>397</ele>
        <time>2024-05-19T10:23:26Z</time>
      </trkpt>
      <trkpt lat="45.85335" lon="3.40042">
        <ele>397</ele>
        <time>2024-05-19T10:23:27Z</time>
      </trkpt>
      <trkpt lat="45.85341" lon="3.40047">
        <ele>397</ele>
        <time>2024-05-19T10:23:28Z</time>
      </trkpt>
      <trkpt lat="45.85346" lon="3.40051">
        <ele>396.8</ele>
        <time>2024-05-19T10:23:29Z</time>
      </trkpt>
      <trkpt lat="45.85352" lon="3.40056">
        <ele>396.8</ele>
        <time>2024-05-19T10:23:30Z</time>
      </trkpt>
      <trkpt lat="45.85357" lon="3.4006">
        <ele>396.8</ele>
        <time>2024-05-19T10:23:31Z</time>
      </trkpt>
      <trkpt lat="45.85363" lon="3.40065">
        <ele>396.6</ele>
        <time>2024-05-19T10:23:32Z</time>
      </trkpt>
      <trkpt lat="45.85367" lon="3.40069">
        <ele>396.6</ele>
        <time>2024-05-19T10:23:33Z</time>
      </trkpt>
      <trkpt lat="45.85372" lon="3.40073">
        <ele>396.4</ele>
        <time>2024-05-19T10:23:34Z</time>
      </trkpt>
      <trkpt lat="45.85377" lon="3.40077">
        <ele>396.4</ele>
        <time>2024-05-19T10:23:35Z</time>
      </trkpt>
      <trkpt lat="45.85382" lon="3.40082">
        <ele>396.2</ele>
        <time>2024-05-19T10:23:36Z</time>
      </trkpt>
      <trkpt lat="45.85387" lon="3.40086">
        <ele>396</ele>
        <time>2024-05-19T10:23:37Z</time>
      </trkpt>
      <trkpt lat="45.85392" lon="3.40091">
        <ele>395.8</ele>
        <time>2024-05-19T10:23:38Z</time>
      </trkpt>
      <trkpt lat="45.85397" lon="3.40095">
        <ele>395.8</ele>
        <time>2024-05-19T10:23:39Z</time>
      </trkpt>
      <trkpt lat="45.85402" lon="3.40099">
        <ele>395.6</ele>
        <time>2024-05-19T10:23:40Z</time>
      </trkpt>
      <trkpt lat="45.85413" lon="3.40098">
        <ele>395.4</ele>
        <time>2024-05-19T10:23:41Z</time>
      </trkpt>
      <trkpt lat="45.85417" lon="3.40093">
        <ele>395.4</ele>
        <time>2024-05-19T10:23:42Z</time>
      </trkpt>
      <trkpt lat="45.85424" lon="3.40092">
        <ele>395.2</ele>
        <time>2024-05-19T10:23:43Z</time>
      </trkpt>
      <trkpt lat="45.85432" lon="3.40092">
        <ele>395</ele>
        <time>2024-05-19T10:23:44Z</time>
      </trkpt>
      <trkpt lat="45.85439" lon="3.40093">
        <ele>394.8</ele>
        <time>2024-05-19T10:23:45Z</time>
      </trkpt>
      <trkpt lat="45.85446" lon="3.40094">
        <ele>394.8</ele>
        <time>2024-05-19T10:23:46Z</time>
      </trkpt>
      <trkpt lat="45.85453" lon="3.40095">
        <ele>394.6</ele>
        <time>2024-05-19T10:23:47Z</time>
      </trkpt>
      <trkpt lat="45.8546" lon="3.40096">
        <ele>394.6</ele>
        <time>2024-05-19T10:23:48Z</time>
      </trkpt>
      <trkpt lat="45.85467" lon="3.40097">
        <ele>394.4</ele>
        <time>2024-05-19T10:23:49Z</time>
      </trkpt>
      <trkpt lat="45.85474" lon="3.40098">
        <ele>394.4</ele>
        <time>2024-05-19T10:23:50Z</time>
      </trkpt>
      <trkpt lat="45.85481" lon="3.40099">
        <ele>394.2</ele>
        <time>2024-05-19T10:23:51Z</time>
      </trkpt>
      <trkpt lat="45.85487" lon="3.401">
        <ele>394</ele>
        <time>2024-05-19T10:23:52Z</time>
      </trkpt>
      <trkpt lat="45.85494" lon="3.40101">
        <ele>393.8</ele>
        <time>2024-05-19T10:23:53Z</time>
      </trkpt>
      <trkpt lat="45.855" lon="3.40102">
        <ele>393.8</ele>
        <time>2024-05-19T10:23:54Z</time>
      </trkpt>
      <trkpt lat="45.85507" lon="3.40103">
        <ele>393.6</ele>
        <time>2024-05-19T10:23:55Z</time>
      </trkpt>
      <trkpt lat="45.85514" lon="3.40104">
        <ele>393.4</ele>
        <time>2024-05-19T10:23:56Z</time>
      </trkpt>
      <trkpt lat="45.8552" lon="3.40104">
        <ele>393.4</ele>
        <time>2024-05-19T10:23:57Z</time>
      </trkpt>
      <trkpt lat="45.85527" lon="3.40103">
        <ele>393.2</ele>
        <time>2024-05-19T10:23:58Z</time>
      </trkpt>
      <trkpt lat="45.85534" lon="3.40103">
        <ele>393</ele>
        <time>2024-05-19T10:23:59Z</time>
      </trkpt>
      <trkpt lat="45.8554" lon="3.40103">
        <ele>393</ele>
        <time>2024-05-19T10:24:00Z</time>
      </trkpt>
      <trkpt lat="45.85547" lon="3.40102">
        <ele>392.8</ele>
        <time>2024-05-19T10:24:01Z</time>
      </trkpt>
      <trkpt lat="45.85553" lon="3.40102">
        <ele>392.8</ele>
        <time>2024-05-19T10:24:02Z</time>
      </trkpt>
      <trkpt lat="45.85559" lon="3.40101">
        <ele>392.6</ele>
        <time>2024-05-19T10:24:03Z</time>
      </trkpt>
      <trkpt lat="45.85565" lon="3.40101">
        <ele>392.4</ele>
        <time>2024-05-19T10:24:04Z</time>
      </trkpt>
      <trkpt lat="45.85571" lon="3.40101">
        <ele>392.2</ele>
        <time>2024-05-19T10:24:05Z</time>
      </trkpt>
      <trkpt lat="45.85577" lon="3.401">
        <ele>392</ele>
        <time>2024-05-19T10:24:06Z</time>
      </trkpt>
      <trkpt lat="45.85583" lon="3.401">
        <ele>392</ele>
        <time>2024-05-19T10:24:07Z</time>
      </trkpt>
      <trkpt lat="45.85589" lon="3.40099">
        <ele>391.8</ele>
        <time>2024-05-19T10:24:08Z</time>
      </trkpt>
      <trkpt lat="45.85595" lon="3.40099">
        <ele>391.6</ele>
        <time>2024-05-19T10:24:09Z</time>
      </trkpt>
      <trkpt lat="45.856" lon="3.40099">
        <ele>391.4</ele>
        <time>2024-05-19T10:24:10Z</time>
      </trkpt>
      <trkpt lat="45.85606" lon="3.40098">
        <ele>391.4</ele>
        <time>2024-05-19T10:24:11Z</time>
      </trkpt>
      <trkpt lat="45.85612" lon="3.40098">
        <ele>391.2</ele>
        <time>2024-05-19T10:24:12Z</time>
      </trkpt>
      <trkpt lat="45.85617" lon="3.40098">
        <ele>391.2</ele>
        <time>2024-05-19T10:24:13Z</time>
      </trkpt>
      <trkpt lat="45.85623" lon="3.40098">
        <ele>391.2</ele>
        <time>2024-05-19T10:24:14Z</time>
      </trkpt>
      <trkpt lat="45.85628" lon="3.40098">
        <ele>391.4</ele>
        <time>2024-05-19T10:24:15Z</time>
      </trkpt>
      <trkpt lat="45.85633" lon="3.40099">
        <ele>391.2</ele>
        <time>2024-05-19T10:24:16Z</time>
      </trkpt>
      <trkpt lat="45.85638" lon="3.40099">
        <ele>391.4</ele>
        <time>2024-05-19T10:24:17Z</time>
      </trkpt>
      <trkpt lat="45.85644" lon="3.401">
        <ele>391.4</ele>
        <time>2024-05-19T10:24:18Z</time>
      </trkpt>
      <trkpt lat="45.8565" lon="3.40101">
        <ele>391.4</ele>
        <time>2024-05-19T10:24:19Z</time>
      </trkpt>
      <trkpt lat="45.85656" lon="3.40103">
        <ele>391.6</ele>
        <time>2024-05-19T10:24:20Z</time>
      </trkpt>
      <trkpt lat="45.85662" lon="3.40104">
        <ele>391.6</ele>
        <time>2024-05-19T10:24:21Z</time>
      </trkpt>
      <trkpt lat="45.85667" lon="3.40106">
        <ele>391.6</ele>
        <time>2024-05-19T10:24:22Z</time>
      </trkpt>
      <trkpt lat="45.85673" lon="3.40108">
        <ele>391.4</ele>
        <time>2024-05-19T10:24:23Z</time>
      </trkpt>
      <trkpt lat="45.85679" lon="3.4011">
        <ele>391.4</ele>
        <time>2024-05-19T10:24:24Z</time>
      </trkpt>
      <trkpt lat="45.85686" lon="3.40112">
        <ele>391.2</ele>
        <time>2024-05-19T10:24:25Z</time>
      </trkpt>
      <trkpt lat="45.85692" lon="3.40114">
        <ele>391.2</ele>
        <time>2024-05-19T10:24:26Z</time>
      </trkpt>
      <trkpt lat="45.85699" lon="3.40116">
        <ele>391</ele>
        <time>2024-05-19T10:24:27Z</time>
      </trkpt>
      <trkpt lat="45.85706" lon="3.40118">
        <ele>391</ele>
        <time>2024-05-19T10:24:28Z</time>
      </trkpt>
      <trkpt lat="45.85713" lon="3.4012">
        <ele>391</ele>
        <time>2024-05-19T10:24:29Z</time>
      </trkpt>
      <trkpt lat="45.85721" lon="3.40121">
        <ele>391</ele>
        <time>2024-05-19T10:24:30Z</time>
      </trkpt>
      <trkpt lat="45.85728" lon="3.40123">
        <ele>391</ele>
        <time>2024-05-19T10:24:31Z</time>
      </trkpt>
      <trkpt lat="45.85735" lon="3.40124">
        <ele>390.8</ele>
        <time>2024-05-19T10:24:32Z</time>
      </trkpt>
      <trkpt lat="45.85742" lon="3.40125">
        <ele>390.8</ele>
        <time>2024-05-19T10:24:33Z</time>
      </trkpt>
      <trkpt lat="45.85749" lon="3.40127">
        <ele>390.6</ele>
        <time>2024-05-19T10:24:34Z</time>
      </trkpt>
      <trkpt lat="45.85756" lon="3.40128">
        <ele>390.6</ele>
        <time>2024-05-19T10:24:35Z</time>
      </trkpt>
      <trkpt lat="45.85762" lon="3.40129">
        <ele>390.6</ele>
        <time>2024-05-19T10:24:36Z</time>
      </trkpt>
      <trkpt lat="45.85769" lon="3.4013">
        <ele>390.4</ele>
        <time>2024-05-19T10:24:37Z</time>
      </trkpt>
      <trkpt lat="45.85775" lon="3.40131">
        <ele>390.4</ele>
        <time>2024-05-19T10:24:38Z</time>
      </trkpt>
      <trkpt lat="45.85781" lon="3.40132">
        <ele>390.4</ele>
        <time>2024-05-19T10:24:39Z</time>
      </trkpt>
      <trkpt lat="45.85787" lon="3.40134">
        <ele>390.4</ele>
        <time>2024-05-19T10:24:40Z</time>
      </trkpt>
      <trkpt lat="45.85792" lon="3.40135">
        <ele>390.4</ele>
        <time>2024-05-19T10:24:41Z</time>
      </trkpt>
      <trkpt lat="45.85799" lon="3.40136">
        <ele>390.4</ele>
        <time>2024-05-19T10:24:42Z</time>
      </trkpt>
      <trkpt lat="45.85805" lon="3.40137">
        <ele>390.4</ele>
        <time>2024-05-19T10:24:43Z</time>
      </trkpt>
      <trkpt lat="45.85812" lon="3.40138">
        <ele>390.4</ele>
        <time>2024-05-19T10:24:44Z</time>
      </trkpt>
      <trkpt lat="45.85818" lon="3.40139">
        <ele>390.6</ele>
        <time>2024-05-19T10:24:45Z</time>
      </trkpt>
      <trkpt lat="45.85824" lon="3.4014">
        <ele>390.6</ele>
        <time>2024-05-19T10:24:46Z</time>
      </trkpt>
      <trkpt lat="45.8583" lon="3.40141">
        <ele>390.6</ele>
        <time>2024-05-19T10:24:47Z</time>
      </trkpt>
      <trkpt lat="45.85836" lon="3.40143">
        <ele>390.6</ele>
        <time>2024-05-19T10:24:48Z</time>
      </trkpt>
      <trkpt lat="45.85842" lon="3.40144">
        <ele>390.6</ele>
        <time>2024-05-19T10:24:49Z</time>
      </trkpt>
      <trkpt lat="45.85848" lon="3.40145">
        <ele>390.4</ele>
        <time>2024-05-19T10:24:50Z</time>
      </trkpt>
      <trkpt lat="45.85854" lon="3.40146">
        <ele>390.6</ele>
        <time>2024-05-19T10:24:51Z</time>
      </trkpt>
      <trkpt lat="45.8586" lon="3.40147">
        <ele>390.8</ele>
        <time>2024-05-19T10:24:52Z</time>
      </trkpt>
      <trkpt lat="45.85866" lon="3.40148">
        <ele>390.8</ele>
        <time>2024-05-19T10:24:53Z</time>
      </trkpt>
      <trkpt lat="45.85872" lon="3.40149">
        <ele>390.8</ele>
        <time>2024-05-19T10:24:54Z</time>
      </trkpt>
      <trkpt lat="45.85879" lon="3.4015">
        <ele>390.8</ele>
        <time>2024-05-19T10:24:55Z</time>
      </trkpt>
      <trkpt lat="45.85885" lon="3.40152">
        <ele>390.8</ele>
        <time>2024-05-19T10:24:56Z</time>
      </trkpt>
      <trkpt lat="45.85892" lon="3.40153">
        <ele>390.8</ele>
        <time>2024-05-19T10:24:57Z</time>
      </trkpt>
      <trkpt lat="45.85898" lon="3.40154">
        <ele>390.8</ele>
        <time>2024-05-19T10:24:58Z</time>
      </trkpt>
      <trkpt lat="45.85905" lon="3.40155">
        <ele>390.8</ele>
        <time>2024-05-19T10:24:59Z</time>
      </trkpt>
      <trkpt lat="45.85912" lon="3.40156">
        <ele>390.6</ele>
        <time>2024-05-19T10:25:00Z</time>
      </trkpt>
      <trkpt lat="45.85918" lon="3.40158">
        <ele>390.4</ele>
        <time>2024-05-19T10:25:01Z</time>
      </trkpt>
      <trkpt lat="45.85924" lon="3.4016">
        <ele>390.6</ele>
        <time>2024-05-19T10:25:02Z</time>
      </trkpt>
      <trkpt lat="45.8593" lon="3.40163">
        <ele>390.4</ele>
        <time>2024-05-19T10:25:03Z</time>
      </trkpt>
      <trkpt lat="45.85936" lon="3.40165">
        <ele>390.4</ele>
        <time>2024-05-19T10:25:04Z</time>
      </trkpt>
      <trkpt lat="45.85942" lon="3.40168">
        <ele>390.4</ele>
        <time>2024-05-19T10:25:05Z</time>
      </trkpt>
      <trkpt lat="45.85949" lon="3.4017">
        <ele>390.2</ele>
        <time>2024-05-19T10:25:06Z</time>
      </trkpt>
      <trkpt lat="45.85955" lon="3.40173">
        <ele>390.2</ele>
        <time>2024-05-19T10:25:07Z</time>
      </trkpt>
      <trkpt lat="45.8596" lon="3.40176">
        <ele>390.2</ele>
        <time>2024-05-19T10:25:08Z</time>
      </trkpt>
      <trkpt lat="45.85966" lon="3.40178">
        <ele>390</ele>
        <time>2024-05-19T10:25:09Z</time>
      </trkpt>
      <trkpt lat="45.85972" lon="3.40181">
        <ele>390</ele>
        <time>2024-05-19T10:25:10Z</time>
      </trkpt>
      <trkpt lat="45.85978" lon="3.40183">
        <ele>390</ele>
        <time>2024-05-19T10:25:11Z</time>
      </trkpt>
      <trkpt lat="45.85985" lon="3.40186">
        <ele>389.8</ele>
        <time>2024-05-19T10:25:12Z</time>
      </trkpt>
      <trkpt lat="45.85991" lon="3.40188">
        <ele>389.8</ele>
        <time>2024-05-19T10:25:13Z</time>
      </trkpt>
      <trkpt lat="45.85996" lon="3.40191">
        <ele>389.6</ele>
        <time>2024-05-19T10:25:14Z</time>
      </trkpt>
      <trkpt lat="45.86002" lon="3.40193">
        <ele>389.6</ele>
        <time>2024-05-19T10:25:15Z</time>
      </trkpt>
      <trkpt lat="45.86008" lon="3.40196">
        <ele>389.4</ele>
        <time>2024-05-19T10:25:16Z</time>
      </trkpt>
      <trkpt lat="45.86014" lon="3.40198">
        <ele>389.4</ele>
        <time>2024-05-19T10:25:17Z</time>
      </trkpt>
      <trkpt lat="45.8602" lon="3.40201">
        <ele>389.2</ele>
        <time>2024-05-19T10:25:18Z</time>
      </trkpt>
      <trkpt lat="45.86026" lon="3.40203">
        <ele>389.2</ele>
        <time>2024-05-19T10:25:19Z</time>
      </trkpt>
      <trkpt lat="45.86032" lon="3.40206">
        <ele>389.2</ele>
        <time>2024-05-19T10:25:20Z</time>
      </trkpt>
      <trkpt lat="45.86037" lon="3.40208">
        <ele>389.2</ele>
        <time>2024-05-19T10:25:21Z</time>
      </trkpt>
      <trkpt lat="45.86043" lon="3.4021">
        <ele>389</ele>
        <time>2024-05-19T10:25:22Z</time>
      </trkpt>
      <trkpt lat="45.86049" lon="3.40213">
        <ele>389</ele>
        <time>2024-05-19T10:25:23Z</time>
      </trkpt>
      <trkpt lat="45.86056" lon="3.40216">
        <ele>388.8</ele>
        <time>2024-05-19T10:25:24Z</time>
      </trkpt>
      <trkpt lat="45.86062" lon="3.40219">
        <ele>388.8</ele>
        <time>2024-05-19T10:25:25Z</time>
      </trkpt>
      <trkpt lat="45.86069" lon="3.40222">
        <ele>388.8</ele>
        <time>2024-05-19T10:25:26Z</time>
      </trkpt>
      <trkpt lat="45.86075" lon="3.40224">
        <ele>388.8</ele>
        <time>2024-05-19T10:25:27Z</time>
      </trkpt>
      <trkpt lat="45.86081" lon="3.40227">
        <ele>388.8</ele>
        <time>2024-05-19T10:25:28Z</time>
      </trkpt>
      <trkpt lat="45.86087" lon="3.4023">
        <ele>389</ele>
        <time>2024-05-19T10:25:29Z</time>
      </trkpt>
      <trkpt lat="45.86093" lon="3.40232">
        <ele>389</ele>
        <time>2024-05-19T10:25:30Z</time>
      </trkpt>
      <trkpt lat="45.86099" lon="3.40235">
        <ele>389</ele>
        <time>2024-05-19T10:25:31Z</time>
      </trkpt>
      <trkpt lat="45.86106" lon="3.40237">
        <ele>389</ele>
        <time>2024-05-19T10:25:32Z</time>
      </trkpt>
      <trkpt lat="45.86112" lon="3.40241">
        <ele>389</ele>
        <time>2024-05-19T10:25:33Z</time>
      </trkpt>
      <trkpt lat="45.86118" lon="3.40244">
        <ele>389</ele>
        <time>2024-05-19T10:25:34Z</time>
      </trkpt>
      <trkpt lat="45.86124" lon="3.40247">
        <ele>389</ele>
        <time>2024-05-19T10:25:35Z</time>
      </trkpt>
      <trkpt lat="45.8613" lon="3.40251">
        <ele>389</ele>
        <time>2024-05-19T10:25:36Z</time>
      </trkpt>
      <trkpt lat="45.86136" lon="3.40254">
        <ele>389</ele>
        <time>2024-05-19T10:25:37Z</time>
      </trkpt>
      <trkpt lat="45.86142" lon="3.40258">
        <ele>389</ele>
        <time>2024-05-19T10:25:38Z</time>
      </trkpt>
      <trkpt lat="45.86148" lon="3.40262">
        <ele>389</ele>
        <time>2024-05-19T10:25:39Z</time>
      </trkpt>
      <trkpt lat="45.86154" lon="3.40266">
        <ele>389</ele>
        <time>2024-05-19T10:25:40Z</time>
      </trkpt>
      <trkpt lat="45.8616" lon="3.40271">
        <ele>389</ele>
        <time>2024-05-19T10:25:41Z</time>
      </trkpt>
      <trkpt lat="45.86166" lon="3.40276">
        <ele>389</ele>
        <time>2024-05-19T10:25:42Z</time>
      </trkpt>
      <trkpt lat="45.86172" lon="3.40281">
        <ele>389</ele>
        <time>2024-05-19T10:25:43Z</time>
      </trkpt>
      <trkpt lat="45.86178" lon="3.40286">
        <ele>388.8</ele>
        <time>2024-05-19T10:25:44Z</time>
      </trkpt>
      <trkpt lat="45.86184" lon="3.4029">
        <ele>388.8</ele>
        <time>2024-05-19T10:25:45Z</time>
      </trkpt>
      <trkpt lat="45.8619" lon="3.40295">
        <ele>388.8</ele>
        <time>2024-05-19T10:25:46Z</time>
      </trkpt>
      <trkpt lat="45.86196" lon="3.403">
        <ele>388.6</ele>
        <time>2024-05-19T10:25:47Z</time>
      </trkpt>
      <trkpt lat="45.86202" lon="3.40306">
        <ele>388.6</ele>
        <time>2024-05-19T10:25:48Z</time>
      </trkpt>
      <trkpt lat="45.86207" lon="3.40312">
        <ele>388.6</ele>
        <time>2024-05-19T10:25:49Z</time>
      </trkpt>
      <trkpt lat="45.86212" lon="3.40317">
        <ele>388.6</ele>
        <time>2024-05-19T10:25:50Z</time>
      </trkpt>
      <trkpt lat="45.86217" lon="3.40323">
        <ele>388.4</ele>
        <time>2024-05-19T10:25:51Z</time>
      </trkpt>
      <trkpt lat="45.86223" lon="3.40328">
        <ele>388.4</ele>
        <time>2024-05-19T10:25:52Z</time>
      </trkpt>
      <trkpt lat="45.86228" lon="3.40334">
        <ele>388.4</ele>
        <time>2024-05-19T10:25:53Z</time>
      </trkpt>
      <trkpt lat="45.86234" lon="3.4034">
        <ele>388.4</ele>
        <time>2024-05-19T10:25:54Z</time>
      </trkpt>
      <trkpt lat="45.86239" lon="3.40345">
        <ele>388.4</ele>
        <time>2024-05-19T10:25:55Z</time>
      </trkpt>
      <trkpt lat="45.86245" lon="3.40351">
        <ele>388.4</ele>
        <time>2024-05-19T10:25:56Z</time>
      </trkpt>
      <trkpt lat="45.86251" lon="3.40357">
        <ele>388.4</ele>
        <time>2024-05-19T10:25:57Z</time>
      </trkpt>
      <trkpt lat="45.86256" lon="3.40363">
        <ele>388.4</ele>
        <time>2024-05-19T10:25:58Z</time>
      </trkpt>
      <trkpt lat="45.86262" lon="3.40369">
        <ele>388.4</ele>
        <time>2024-05-19T10:25:59Z</time>
      </trkpt>
      <trkpt lat="45.86267" lon="3.40374">
        <ele>388.4</ele>
        <time>2024-05-19T10:26:00Z</time>
      </trkpt>
      <trkpt lat="45.86273" lon="3.4038">
        <ele>388.4</ele>
        <time>2024-05-19T10:26:01Z</time>
      </trkpt>
      <trkpt lat="45.86278" lon="3.40386">
        <ele>388.4</ele>
        <time>2024-05-19T10:26:02Z</time>
      </trkpt>
      <trkpt lat="45.86284" lon="3.40392">
        <ele>388.4</ele>
        <time>2024-05-19T10:26:03Z</time>
      </trkpt>
      <trkpt lat="45.8629" lon="3.40396">
        <ele>388.4</ele>
        <time>2024-05-19T10:26:04Z</time>
      </trkpt>
      <trkpt lat="45.86296" lon="3.40401">
        <ele>388.4</ele>
        <time>2024-05-19T10:26:05Z</time>
      </trkpt>
      <trkpt lat="45.86302" lon="3.40406">
        <ele>388.2</ele>
        <time>2024-05-19T10:26:06Z</time>
      </trkpt>
      <trkpt lat="45.86308" lon="3.4041">
        <ele>388.2</ele>
        <time>2024-05-19T10:26:07Z</time>
      </trkpt>
      <trkpt lat="45.86314" lon="3.40415">
        <ele>388.2</ele>
        <time>2024-05-19T10:26:08Z</time>
      </trkpt>
      <trkpt lat="45.8632" lon="3.40419">
        <ele>388.2</ele>
        <time>2024-05-19T10:26:09Z</time>
      </trkpt>
      <trkpt lat="45.86326" lon="3.40424">
        <ele>388.2</ele>
        <time>2024-05-19T10:26:10Z</time>
      </trkpt>
      <trkpt lat="45.86331" lon="3.40428">
        <ele>388.2</ele>
        <time>2024-05-19T10:26:11Z</time>
      </trkpt>
      <trkpt lat="45.86337" lon="3.40433">
        <ele>388.2</ele>
        <time>2024-05-19T10:26:12Z</time>
      </trkpt>
      <trkpt lat="45.86343" lon="3.40437">
        <ele>388.2</ele>
        <time>2024-05-19T10:26:13Z</time>
      </trkpt>
      <trkpt lat="45.86349" lon="3.40442">
        <ele>388.2</ele>
        <time>2024-05-19T10:26:14Z</time>
      </trkpt>
      <trkpt lat="45.86355" lon="3.40446">
        <ele>388.2</ele>
        <time>2024-05-19T10:26:15Z</time>
      </trkpt>
      <trkpt lat="45.8636" lon="3.40453">
        <ele>388.2</ele>
        <time>2024-05-19T10:26:16Z</time>
      </trkpt>
      <trkpt lat="45.86364" lon="3.40461">
        <ele>388.2</ele>
        <time>2024-05-19T10:26:17Z</time>
      </trkpt>
      <trkpt lat="45.86368" lon="3.40468">
        <ele>388.2</ele>
        <time>2024-05-19T10:26:18Z</time>
      </trkpt>
      <trkpt lat="45.86372" lon="3.40476">
        <ele>388.2</ele>
        <time>2024-05-19T10:26:19Z</time>
      </trkpt>
      <trkpt lat="45.86376" lon="3.40483">
        <ele>388.2</ele>
        <time>2024-05-19T10:26:20Z</time>
      </trkpt>
      <trkpt lat="45.8638" lon="3.4049">
        <ele>388.2</ele>
        <time>2024-05-19T10:26:21Z</time>
      </trkpt>
      <trkpt lat="45.86383" lon="3.40497">
        <ele>388.2</ele>
        <time>2024-05-19T10:26:22Z</time>
      </trkpt>
      <trkpt lat="45.86387" lon="3.40504">
        <ele>388.2</ele>
        <time>2024-05-19T10:26:23Z</time>
      </trkpt>
      <trkpt lat="45.86391" lon="3.40511">
        <ele>388.2</ele>
        <time>2024-05-19T10:26:24Z</time>
      </trkpt>
      <trkpt lat="45.86395" lon="3.40517">
        <ele>388.2</ele>
        <time>2024-05-19T10:26:25Z</time>
      </trkpt>
      <trkpt lat="45.86399" lon="3.40523">
        <ele>388.2</ele>
        <time>2024-05-19T10:26:26Z</time>
      </trkpt>
      <trkpt lat="45.86404" lon="3.40528">
        <ele>388</ele>
        <time>2024-05-19T10:26:27Z</time>
      </trkpt>
      <trkpt lat="45.86409" lon="3.40533">
        <ele>388</ele>
        <time>2024-05-19T10:26:28Z</time>
      </trkpt>
      <trkpt lat="45.86414" lon="3.40539">
        <ele>388</ele>
        <time>2024-05-19T10:26:29Z</time>
      </trkpt>
      <trkpt lat="45.86419" lon="3.40544">
        <ele>388</ele>
        <time>2024-05-19T10:26:30Z</time>
      </trkpt>
      <trkpt lat="45.86424" lon="3.4055">
        <ele>388</ele>
        <time>2024-05-19T10:26:31Z</time>
      </trkpt>
      <trkpt lat="45.86429" lon="3.40555">
        <ele>388</ele>
        <time>2024-05-19T10:26:32Z</time>
      </trkpt>
      <trkpt lat="45.86434" lon="3.40561">
        <ele>388</ele>
        <time>2024-05-19T10:26:33Z</time>
      </trkpt>
      <trkpt lat="45.8644" lon="3.40567">
        <ele>388</ele>
        <time>2024-05-19T10:26:34Z</time>
      </trkpt>
      <trkpt lat="45.86446" lon="3.4057">
        <ele>388</ele>
        <time>2024-05-19T10:26:35Z</time>
      </trkpt>
      <trkpt lat="45.86452" lon="3.40574">
        <ele>388</ele>
        <time>2024-05-19T10:26:36Z</time>
      </trkpt>
      <trkpt lat="45.86459" lon="3.40577">
        <ele>388</ele>
        <time>2024-05-19T10:26:37Z</time>
      </trkpt>
      <trkpt lat="45.86465" lon="3.40581">
        <ele>388</ele>
        <time>2024-05-19T10:26:38Z</time>
      </trkpt>
      <trkpt lat="45.86471" lon="3.40584">
        <ele>387.8</ele>
        <time>2024-05-19T10:26:39Z</time>
      </trkpt>
      <trkpt lat="45.86478" lon="3.40588">
        <ele>387.8</ele>
        <time>2024-05-19T10:26:40Z</time>
      </trkpt>
      <trkpt lat="45.86484" lon="3.40592">
        <ele>387.8</ele>
        <time>2024-05-19T10:26:41Z</time>
      </trkpt>
      <trkpt lat="45.8649" lon="3.40595">
        <ele>387.8</ele>
        <time>2024-05-19T10:26:42Z</time>
      </trkpt>
      <trkpt lat="45.86497" lon="3.40599">
        <ele>387.8</ele>
        <time>2024-05-19T10:26:43Z</time>
      </trkpt>
      <trkpt lat="45.86503" lon="3.40602">
        <ele>387.8</ele>
        <time>2024-05-19T10:26:44Z</time>
      </trkpt>
      <trkpt lat="45.8651" lon="3.40606">
        <ele>388</ele>
        <time>2024-05-19T10:26:45Z</time>
      </trkpt>
      <trkpt lat="45.86517" lon="3.4061">
        <ele>387.8</ele>
        <time>2024-05-19T10:26:46Z</time>
      </trkpt>
      <trkpt lat="45.86523" lon="3.40614">
        <ele>387.8</ele>
        <time>2024-05-19T10:26:47Z</time>
      </trkpt>
      <trkpt lat="45.8653" lon="3.40617">
        <ele>388</ele>
        <time>2024-05-19T10:26:48Z</time>
      </trkpt>
      <trkpt lat="45.86537" lon="3.40621">
        <ele>388</ele>
        <time>2024-05-19T10:26:49Z</time>
      </trkpt>
      <trkpt lat="45.86543" lon="3.40625">
        <ele>387.8</ele>
        <time>2024-05-19T10:26:50Z</time>
      </trkpt>
      <trkpt lat="45.8655" lon="3.40629">
        <ele>387.8</ele>
        <time>2024-05-19T10:26:51Z</time>
      </trkpt>
      <trkpt lat="45.86556" lon="3.40634">
        <ele>387.8</ele>
        <time>2024-05-19T10:26:52Z</time>
      </trkpt>
      <trkpt lat="45.86562" lon="3.40639">
        <ele>387.8</ele>
        <time>2024-05-19T10:26:53Z</time>
      </trkpt>
      <trkpt lat="45.86569" lon="3.40644">
        <ele>387.8</ele>
        <time>2024-05-19T10:26:54Z</time>
      </trkpt>
      <trkpt lat="45.86574" lon="3.40648">
        <ele>387.8</ele>
        <time>2024-05-19T10:26:55Z</time>
      </trkpt>
      <trkpt lat="45.8658" lon="3.40653">
        <ele>387.8</ele>
        <time>2024-05-19T10:26:56Z</time>
      </trkpt>
      <trkpt lat="45.86586" lon="3.40658">
        <ele>387.8</ele>
        <time>2024-05-19T10:26:57Z</time>
      </trkpt>
      <trkpt lat="45.86592" lon="3.40662">
        <ele>387.8</ele>
        <time>2024-05-19T10:26:58Z</time>
      </trkpt>
      <trkpt lat="45.86598" lon="3.40667">
        <ele>387.8</ele>
        <time>2024-05-19T10:26:59Z</time>
      </trkpt>
      <trkpt lat="45.86603" lon="3.40672">
        <ele>388</ele>
        <time>2024-05-19T10:27:00Z</time>
      </trkpt>
      <trkpt lat="45.86609" lon="3.40677">
        <ele>388</ele>
        <time>2024-05-19T10:27:01Z</time>
      </trkpt>
      <trkpt lat="45.86616" lon="3.4068">
        <ele>388</ele>
        <time>2024-05-19T10:27:02Z</time>
      </trkpt>
      <trkpt lat="45.86622" lon="3.40683">
        <ele>388</ele>
        <time>2024-05-19T10:27:03Z</time>
      </trkpt>
      <trkpt lat="45.86629" lon="3.40687">
        <ele>388</ele>
        <time>2024-05-19T10:27:04Z</time>
      </trkpt>
      <trkpt lat="45.86635" lon="3.4069">
        <ele>388</ele>
        <time>2024-05-19T10:27:05Z</time>
      </trkpt>
      <trkpt lat="45.86642" lon="3.40694">
        <ele>387.8</ele>
        <time>2024-05-19T10:27:06Z</time>
      </trkpt>
      <trkpt lat="45.86648" lon="3.40697">
        <ele>387.8</ele>
        <time>2024-05-19T10:27:07Z</time>
      </trkpt>
      <trkpt lat="45.86655" lon="3.407">
        <ele>387.8</ele>
        <time>2024-05-19T10:27:08Z</time>
      </trkpt>
      <trkpt lat="45.86661" lon="3.40703">
        <ele>387.8</ele>
        <time>2024-05-19T10:27:09Z</time>
      </trkpt>
      <trkpt lat="45.86668" lon="3.40707">
        <ele>387.8</ele>
        <time>2024-05-19T10:27:10Z</time>
      </trkpt>
      <trkpt lat="45.86674" lon="3.4071">
        <ele>387.8</ele>
        <time>2024-05-19T10:27:11Z</time>
      </trkpt>
      <trkpt lat="45.86681" lon="3.40713">
        <ele>387.8</ele>
        <time>2024-05-19T10:27:12Z</time>
      </trkpt>
      <trkpt lat="45.86688" lon="3.40717">
        <ele>387.8</ele>
        <time>2024-05-19T10:27:13Z</time>
      </trkpt>
      <trkpt lat="45.86694" lon="3.4072">
        <ele>387.8</ele>
        <time>2024-05-19T10:27:14Z</time>
      </trkpt>
      <trkpt lat="45.86701" lon="3.40724">
        <ele>387.6</ele>
        <time>2024-05-19T10:27:15Z</time>
      </trkpt>
      <trkpt lat="45.86708" lon="3.40728">
        <ele>387.6</ele>
        <time>2024-05-19T10:27:16Z</time>
      </trkpt>
      <trkpt lat="45.86714" lon="3.40733">
        <ele>387.6</ele>
        <time>2024-05-19T10:27:17Z</time>
      </trkpt>
      <trkpt lat="45.86721" lon="3.40737">
        <ele>387.6</ele>
        <time>2024-05-19T10:27:18Z</time>
      </trkpt>
      <trkpt lat="45.86728" lon="3.40741">
        <ele>387.6</ele>
        <time>2024-05-19T10:27:19Z</time>
      </trkpt>
      <trkpt lat="45.86734" lon="3.40745">
        <ele>387.4</ele>
        <time>2024-05-19T10:27:20Z</time>
      </trkpt>
      <trkpt lat="45.86741" lon="3.4075">
        <ele>387.4</ele>
        <time>2024-05-19T10:27:21Z</time>
      </trkpt>
      <trkpt lat="45.86748" lon="3.40754">
        <ele>387.4</ele>
        <time>2024-05-19T10:27:22Z</time>
      </trkpt>
      <trkpt lat="45.86755" lon="3.40758">
        <ele>387.4</ele>
        <time>2024-05-19T10:27:23Z</time>
      </trkpt>
      <trkpt lat="45.86762" lon="3.40763">
        <ele>387.4</ele>
        <time>2024-05-19T10:27:24Z</time>
      </trkpt>
      <trkpt lat="45.86768" lon="3.40767">
        <ele>387.2</ele>
        <time>2024-05-19T10:27:25Z</time>
      </trkpt>
      <trkpt lat="45.86774" lon="3.40771">
        <ele>387.2</ele>
        <time>2024-05-19T10:27:26Z</time>
      </trkpt>
      <trkpt lat="45.86781" lon="3.40775">
        <ele>387.2</ele>
        <time>2024-05-19T10:27:27Z</time>
      </trkpt>
      <trkpt lat="45.86787" lon="3.40779">
        <ele>387.2</ele>
        <time>2024-05-19T10:27:28Z</time>
      </trkpt>
      <trkpt lat="45.86794" lon="3.40783">
        <ele>387</ele>
        <time>2024-05-19T10:27:29Z</time>
      </trkpt>
      <trkpt lat="45.868" lon="3.40787">
        <ele>387</ele>
        <time>2024-05-19T10:27:30Z</time>
      </trkpt>
      <trkpt lat="45.86807" lon="3.40791">
        <ele>387</ele>
        <time>2024-05-19T10:27:31Z</time>
      </trkpt>
      <trkpt lat="45.86813" lon="3.40795">
        <ele>387</ele>
        <time>2024-05-19T10:27:32Z</time>
      </trkpt>
      <trkpt lat="45.86819" lon="3.40799">
        <ele>387</ele>
        <time>2024-05-19T10:27:33Z</time>
      </trkpt>
      <trkpt lat="45.86826" lon="3.40803">
        <ele>386.8</ele>
        <time>2024-05-19T10:27:34Z</time>
      </trkpt>
      <trkpt lat="45.86832" lon="3.40807">
        <ele>386.8</ele>
        <time>2024-05-19T10:27:35Z</time>
      </trkpt>
      <trkpt lat="45.86839" lon="3.40811">
        <ele>386.8</ele>
        <time>2024-05-19T10:27:36Z</time>
      </trkpt>
      <trkpt lat="45.86845" lon="3.40815">
        <ele>386.6</ele>
        <time>2024-05-19T10:27:37Z</time>
      </trkpt>
      <trkpt lat="45.86851" lon="3.40819">
        <ele>386.6</ele>
        <time>2024-05-19T10:27:38Z</time>
      </trkpt>
      <trkpt lat="45.86858" lon="3.40823">
        <ele>386.6</ele>
        <time>2024-05-19T10:27:39Z</time>
      </trkpt>
      <trkpt lat="45.86864" lon="3.40827">
        <ele>386.6</ele>
        <time>2024-05-19T10:27:40Z</time>
      </trkpt>
      <trkpt lat="45.8687" lon="3.40831">
        <ele>386.4</ele>
        <time>2024-05-19T10:27:41Z</time>
      </trkpt>
      <trkpt lat="45.86876" lon="3.40835">
        <ele>386.4</ele>
        <time>2024-05-19T10:27:42Z</time>
      </trkpt>
      <trkpt lat="45.86883" lon="3.40839">
        <ele>386.2</ele>
        <time>2024-05-19T10:27:43Z</time>
      </trkpt>
      <trkpt lat="45.86889" lon="3.40843">
        <ele>386.2</ele>
        <time>2024-05-19T10:27:44Z</time>
      </trkpt>
      <trkpt lat="45.86895" lon="3.40847">
        <ele>386</ele>
        <time>2024-05-19T10:27:45Z</time>
      </trkpt>
      <trkpt lat="45.86902" lon="3.40851">
        <ele>385.8</ele>
        <time>2024-05-19T10:27:46Z</time>
      </trkpt>
      <trkpt lat="45.86908" lon="3.40853">
        <ele>385.8</ele>
        <time>2024-05-19T10:27:47Z</time>
      </trkpt>
      <trkpt lat="45.86914" lon="3.40856">
        <ele>385.6</ele>
        <time>2024-05-19T10:27:48Z</time>
      </trkpt>
      <trkpt lat="45.86921" lon="3.40858">
        <ele>385.4</ele>
        <time>2024-05-19T10:27:49Z</time>
      </trkpt>
      <trkpt lat="45.86927" lon="3.4086">
        <ele>385.2</ele>
        <time>2024-05-19T10:27:50Z</time>
      </trkpt>
      <trkpt lat="45.86934" lon="3.40863">
        <ele>385</ele>
        <time>2024-05-19T10:27:51Z</time>
      </trkpt>
      <trkpt lat="45.8694" lon="3.40865">
        <ele>384.8</ele>
        <time>2024-05-19T10:27:52Z</time>
      </trkpt>
      <trkpt lat="45.86947" lon="3.40868">
        <ele>384.6</ele>
        <time>2024-05-19T10:27:53Z</time>
      </trkpt>
      <trkpt lat="45.86954" lon="3.4087">
        <ele>384.4</ele>
        <time>2024-05-19T10:27:54Z</time>
      </trkpt>
      <trkpt lat="45.8696" lon="3.40872">
        <ele>384.2</ele>
        <time>2024-05-19T10:27:55Z</time>
      </trkpt>
      <trkpt lat="45.86967" lon="3.40875">
        <ele>384.2</ele>
        <time>2024-05-19T10:27:56Z</time>
      </trkpt>
      <trkpt lat="45.86974" lon="3.40877">
        <ele>384</ele>
        <time>2024-05-19T10:27:57Z</time>
      </trkpt>
      <trkpt lat="45.86981" lon="3.4088">
        <ele>383.8</ele>
        <time>2024-05-19T10:27:58Z</time>
      </trkpt>
      <trkpt lat="45.86988" lon="3.40882">
        <ele>383.6</ele>
        <time>2024-05-19T10:27:59Z</time>
      </trkpt>
      <trkpt lat="45.86995" lon="3.40885">
        <ele>383.4</ele>
        <time>2024-05-19T10:28:00Z</time>
      </trkpt>
      <trkpt lat="45.87001" lon="3.40887">
        <ele>383.2</ele>
        <time>2024-05-19T10:28:01Z</time>
      </trkpt>
      <trkpt lat="45.87008" lon="3.4089">
        <ele>383</ele>
        <time>2024-05-19T10:28:02Z</time>
      </trkpt>
      <trkpt lat="45.87014" lon="3.40892">
        <ele>382.8</ele>
        <time>2024-05-19T10:28:03Z</time>
      </trkpt>
      <trkpt lat="45.8702" lon="3.40894">
        <ele>382.6</ele>
        <time>2024-05-19T10:28:04Z</time>
      </trkpt>
      <trkpt lat="45.87027" lon="3.40897">
        <ele>382.4</ele>
        <time>2024-05-19T10:28:05Z</time>
      </trkpt>
      <trkpt lat="45.87033" lon="3.40899">
        <ele>382.2</ele>
        <time>2024-05-19T10:28:06Z</time>
      </trkpt>
      <trkpt lat="45.8704" lon="3.40902">
        <ele>382</ele>
        <time>2024-05-19T10:28:07Z</time>
      </trkpt>
      <trkpt lat="45.87047" lon="3.40904">
        <ele>381.8</ele>
        <time>2024-05-19T10:28:08Z</time>
      </trkpt>
      <trkpt lat="45.87054" lon="3.40907">
        <ele>381.4</ele>
        <time>2024-05-19T10:28:09Z</time>
      </trkpt>
      <trkpt lat="45.8706" lon="3.40909">
        <ele>381.2</ele>
        <time>2024-05-19T10:28:10Z</time>
      </trkpt>
      <trkpt lat="45.87065" lon="3.40911">
        <ele>381</ele>
        <time>2024-05-19T10:28:11Z</time>
      </trkpt>
      <trkpt lat="45.87069" lon="3.40912">
        <ele>380.6</ele>
        <time>2024-05-19T10:28:12Z</time>
      </trkpt>
      <trkpt lat="45.87074" lon="3.40914">
        <ele>380.2</ele>
        <time>2024-05-19T10:28:13Z</time>
      </trkpt>
      <trkpt lat="45.8708" lon="3.40916">
        <ele>380</ele>
        <time>2024-05-19T10:28:14Z</time>
      </trkpt>
      <trkpt lat="45.87087" lon="3.40919">
        <ele>379.6</ele>
        <time>2024-05-19T10:28:15Z</time>
      </trkpt>
      <trkpt lat="45.87093" lon="3.40921">
        <ele>379.4</ele>
        <time>2024-05-19T10:28:16Z</time>
      </trkpt>
      <trkpt lat="45.871" lon="3.40924">
        <ele>379</ele>
        <time>2024-05-19T10:28:17Z</time>
      </trkpt>
      <trkpt lat="45.87107" lon="3.40926">
        <ele>378.8</ele>
        <time>2024-05-19T10:28:18Z</time>
      </trkpt>
      <trkpt lat="45.87114" lon="3.40929">
        <ele>378.4</ele>
        <time>2024-05-19T10:28:19Z</time>
      </trkpt>
      <trkpt lat="45.87121" lon="3.40931">
        <ele>378.2</ele>
        <time>2024-05-19T10:28:20Z</time>
      </trkpt>
      <trkpt lat="45.87129" lon="3.40934">
        <ele>377.8</ele>
        <time>2024-05-19T10:28:21Z</time>
      </trkpt>
      <trkpt lat="45.87136" lon="3.40937">
        <ele>377.6</ele>
        <time>2024-05-19T10:28:22Z</time>
      </trkpt>
      <trkpt lat="45.87143" lon="3.40939">
        <ele>377.4</ele>
        <time>2024-05-19T10:28:23Z</time>
      </trkpt>
      <trkpt lat="45.87151" lon="3.40942">
        <ele>377</ele>
        <time>2024-05-19T10:28:24Z</time>
      </trkpt>
      <trkpt lat="45.87158" lon="3.40945">
        <ele>376.8</ele>
        <time>2024-05-19T10:28:25Z</time>
      </trkpt>
      <trkpt lat="45.87165" lon="3.40948">
        <ele>376.6</ele>
        <time>2024-05-19T10:28:26Z</time>
      </trkpt>
      <trkpt lat="45.87173" lon="3.4095">
        <ele>376.4</ele>
        <time>2024-05-19T10:28:27Z</time>
      </trkpt>
      <trkpt lat="45.8718" lon="3.40953">
        <ele>376.2</ele>
        <time>2024-05-19T10:28:28Z</time>
      </trkpt>
      <trkpt lat="45.87188" lon="3.40956">
        <ele>376.2</ele>
        <time>2024-05-19T10:28:29Z</time>
      </trkpt>
      <trkpt lat="45.87196" lon="3.40959">
        <ele>376</ele>
        <time>2024-05-19T10:28:30Z</time>
      </trkpt>
      <trkpt lat="45.87203" lon="3.40961">
        <ele>375.8</ele>
        <time>2024-05-19T10:28:31Z</time>
      </trkpt>
      <trkpt lat="45.8721" lon="3.40964">
        <ele>375.6</ele>
        <time>2024-05-19T10:28:32Z</time>
      </trkpt>
      <trkpt lat="45.87218" lon="3.40967">
        <ele>375.6</ele>
        <time>2024-05-19T10:28:33Z</time>
      </trkpt>
      <trkpt lat="45.87225" lon="3.4097">
        <ele>375.4</ele>
        <time>2024-05-19T10:28:34Z</time>
      </trkpt>
      <trkpt lat="45.87232" lon="3.40972">
        <ele>375.4</ele>
        <time>2024-05-19T10:28:35Z</time>
      </trkpt>
      <trkpt lat="45.8724" lon="3.40975">
        <ele>375.4</ele>
        <time>2024-05-19T10:28:36Z</time>
      </trkpt>
      <trkpt lat="45.87247" lon="3.40977">
        <ele>375.4</ele>
        <time>2024-05-19T10:28:37Z</time>
      </trkpt>
      <trkpt lat="45.87253" lon="3.4098">
        <ele>375.4</ele>
        <time>2024-05-19T10:28:38Z</time>
      </trkpt>
      <trkpt lat="45.8726" lon="3.40983">
        <ele>375.4</ele>
        <time>2024-05-19T10:28:39Z</time>
      </trkpt>
      <trkpt lat="45.87267" lon="3.40985">
        <ele>375.4</ele>
        <time>2024-05-19T10:28:40Z</time>
      </trkpt>
      <trkpt lat="45.87274" lon="3.40988">
        <ele>375.6</ele>
        <time>2024-05-19T10:28:41Z</time>
      </trkpt>
      <trkpt lat="45.87281" lon="3.4099">
        <ele>375.8</ele>
        <time>2024-05-19T10:28:42Z</time>
      </trkpt>
      <trkpt lat="45.87288" lon="3.40993">
        <ele>375.8</ele>
        <time>2024-05-19T10:28:43Z</time>
      </trkpt>
      <trkpt lat="45.87295" lon="3.40995">
        <ele>375.8</ele>
        <time>2024-05-19T10:28:44Z</time>
      </trkpt>
      <trkpt lat="45.87302" lon="3.40998">
        <ele>375.8</ele>
        <time>2024-05-19T10:28:45Z</time>
      </trkpt>
      <trkpt lat="45.87308" lon="3.41">
        <ele>375.8</ele>
        <time>2024-05-19T10:28:46Z</time>
      </trkpt>
      <trkpt lat="45.87315" lon="3.41003">
        <ele>376</ele>
        <time>2024-05-19T10:28:47Z</time>
      </trkpt>
      <trkpt lat="45.87322" lon="3.41006">
        <ele>376</ele>
        <time>2024-05-19T10:28:48Z</time>
      </trkpt>
      <trkpt lat="45.87329" lon="3.41008">
        <ele>376</ele>
        <time>2024-05-19T10:28:49Z</time>
      </trkpt>
      <trkpt lat="45.87336" lon="3.41011">
        <ele>374.2</ele>
        <time>2024-05-19T10:28:50Z</time>
      </trkpt>
      <trkpt lat="45.87343" lon="3.41013">
        <ele>374.2</ele>
        <time>2024-05-19T10:28:51Z</time>
      </trkpt>
      <trkpt lat="45.8735" lon="3.41016">
        <ele>374.4</ele>
        <time>2024-05-19T10:28:52Z</time>
      </trkpt>
      <trkpt lat="45.87357" lon="3.41018">
        <ele>374.8</ele>
        <time>2024-05-19T10:28:53Z</time>
      </trkpt>
      <trkpt lat="45.87364" lon="3.41021">
        <ele>374.8</ele>
        <time>2024-05-19T10:28:54Z</time>
      </trkpt>
      <trkpt lat="45.87371" lon="3.41024">
        <ele>375</ele>
        <time>2024-05-19T10:28:55Z</time>
      </trkpt>
      <trkpt lat="45.87377" lon="3.41026">
        <ele>375.2</ele>
        <time>2024-05-19T10:28:56Z</time>
      </trkpt>
      <trkpt lat="45.87384" lon="3.41029">
        <ele>375.6</ele>
        <time>2024-05-19T10:28:57Z</time>
      </trkpt>
      <trkpt lat="45.87391" lon="3.41031">
        <ele>375.6</ele>
        <time>2024-05-19T10:28:58Z</time>
      </trkpt>
      <trkpt lat="45.87398" lon="3.41034">
        <ele>375.8</ele>
        <time>2024-05-19T10:28:59Z</time>
      </trkpt>
      <trkpt lat="45.87404" lon="3.41036">
        <ele>376.2</ele>
        <time>2024-05-19T10:29:00Z</time>
      </trkpt>
      <trkpt lat="45.87411" lon="3.41039">
        <ele>376</ele>
        <time>2024-05-19T10:29:01Z</time>
      </trkpt>
      <trkpt lat="45.87418" lon="3.41041">
        <ele>376</ele>
        <time>2024-05-19T10:29:02Z</time>
      </trkpt>
      <trkpt lat="45.87425" lon="3.41044">
        <ele>376</ele>
        <time>2024-05-19T10:29:03Z</time>
      </trkpt>
      <trkpt lat="45.87432" lon="3.41046">
        <ele>376.2</ele>
        <time>2024-05-19T10:29:04Z</time>
      </trkpt>
      <trkpt lat="45.87438" lon="3.41049">
        <ele>376.2</ele>
        <time>2024-05-19T10:29:05Z</time>
      </trkpt>
      <trkpt lat="45.87445" lon="3.41051">
        <ele>376</ele>
        <time>2024-05-19T10:29:06Z</time>
      </trkpt>
      <trkpt lat="45.87452" lon="3.41054">
        <ele>376</ele>
        <time>2024-05-19T10:29:07Z</time>
      </trkpt>
      <trkpt lat="45.87459" lon="3.41057">
        <ele>376.2</ele>
        <time>2024-05-19T10:29:08Z</time>
      </trkpt>
      <trkpt lat="45.87466" lon="3.41059">
        <ele>376</ele>
        <time>2024-05-19T10:29:09Z</time>
      </trkpt>
      <trkpt lat="45.87473" lon="3.41062">
        <ele>376</ele>
        <time>2024-05-19T10:29:10Z</time>
      </trkpt>
      <trkpt lat="45.8748" lon="3.41065">
        <ele>375.8</ele>
        <time>2024-05-19T10:29:11Z</time>
      </trkpt>
      <trkpt lat="45.87487" lon="3.41067">
        <ele>375.6</ele>
        <time>2024-05-19T10:29:12Z</time>
      </trkpt>
      <trkpt lat="45.87494" lon="3.4107">
        <ele>375.6</ele>
        <time>2024-05-19T10:29:13Z</time>
      </trkpt>
      <trkpt lat="45.87501" lon="3.41073">
        <ele>375.8</ele>
        <time>2024-05-19T10:29:14Z</time>
      </trkpt>
      <trkpt lat="45.87507" lon="3.41075">
        <ele>375.8</ele>
        <time>2024-05-19T10:29:15Z</time>
      </trkpt>
      <trkpt lat="45.87514" lon="3.41078">
        <ele>376</ele>
        <time>2024-05-19T10:29:16Z</time>
      </trkpt>
      <trkpt lat="45.87521" lon="3.41081">
        <ele>376</ele>
        <time>2024-05-19T10:29:17Z</time>
      </trkpt>
      <trkpt lat="45.87528" lon="3.41083">
        <ele>375.8</ele>
        <time>2024-05-19T10:29:18Z</time>
      </trkpt>
      <trkpt lat="45.87534" lon="3.41086">
        <ele>375.8</ele>
        <time>2024-05-19T10:29:19Z</time>
      </trkpt>
      <trkpt lat="45.87541" lon="3.41088">
        <ele>375.6</ele>
        <time>2024-05-19T10:29:20Z</time>
      </trkpt>
      <trkpt lat="45.87548" lon="3.41091">
        <ele>375.8</ele>
        <time>2024-05-19T10:29:21Z</time>
      </trkpt>
      <trkpt lat="45.87554" lon="3.41094">
        <ele>376</ele>
        <time>2024-05-19T10:29:22Z</time>
      </trkpt>
      <trkpt lat="45.87561" lon="3.41096">
        <ele>376</ele>
        <time>2024-05-19T10:29:23Z</time>
      </trkpt>
      <trkpt lat="45.87567" lon="3.41099">
        <ele>376</ele>
        <time>2024-05-19T10:29:24Z</time>
      </trkpt>
      <trkpt lat="45.87573" lon="3.41101">
        <ele>376.2</ele>
        <time>2024-05-19T10:29:25Z</time>
      </trkpt>
      <trkpt lat="45.8758" lon="3.41104">
        <ele>376.4</ele>
        <time>2024-05-19T10:29:26Z</time>
      </trkpt>
      <trkpt lat="45.87586" lon="3.41106">
        <ele>376.4</ele>
        <time>2024-05-19T10:29:27Z</time>
      </trkpt>
      <trkpt lat="45.87592" lon="3.41108">
        <ele>376.4</ele>
        <time>2024-05-19T10:29:28Z</time>
      </trkpt>
      <trkpt lat="45.87598" lon="3.41111">
        <ele>376</ele>
        <time>2024-05-19T10:29:29Z</time>
      </trkpt>
      <trkpt lat="45.87604" lon="3.41114">
        <ele>376</ele>
        <time>2024-05-19T10:29:30Z</time>
      </trkpt>
      <trkpt lat="45.87609" lon="3.41119">
        <ele>376.2</ele>
        <time>2024-05-19T10:29:31Z</time>
      </trkpt>
      <trkpt lat="45.87614" lon="3.41124">
        <ele>376.2</ele>
        <time>2024-05-19T10:29:32Z</time>
      </trkpt>
      <trkpt lat="45.87619" lon="3.4113">
        <ele>376.2</ele>
        <time>2024-05-19T10:29:33Z</time>
      </trkpt>
      <trkpt lat="45.87624" lon="3.41136">
        <ele>376.2</ele>
        <time>2024-05-19T10:29:34Z</time>
      </trkpt>
      <trkpt lat="45.87629" lon="3.41141">
        <ele>376.2</ele>
        <time>2024-05-19T10:29:35Z</time>
      </trkpt>
      <trkpt lat="45.87635" lon="3.41147">
        <ele>376.4</ele>
        <time>2024-05-19T10:29:36Z</time>
      </trkpt>
      <trkpt lat="45.8764" lon="3.41153">
        <ele>376.4</ele>
        <time>2024-05-19T10:29:37Z</time>
      </trkpt>
      <trkpt lat="45.87645" lon="3.41159">
        <ele>376.4</ele>
        <time>2024-05-19T10:29:38Z</time>
      </trkpt>
      <trkpt lat="45.87651" lon="3.41165">
        <ele>376.4</ele>
        <time>2024-05-19T10:29:39Z</time>
      </trkpt>
      <trkpt lat="45.87656" lon="3.41171">
        <ele>376.4</ele>
        <time>2024-05-19T10:29:40Z</time>
      </trkpt>
      <trkpt lat="45.87661" lon="3.41177">
        <ele>376.4</ele>
        <time>2024-05-19T10:29:41Z</time>
      </trkpt>
      <trkpt lat="45.87667" lon="3.41183">
        <ele>376.4</ele>
        <time>2024-05-19T10:29:42Z</time>
      </trkpt>
      <trkpt lat="45.87672" lon="3.41189">
        <ele>376.4</ele>
        <time>2024-05-19T10:29:43Z</time>
      </trkpt>
      <trkpt lat="45.87678" lon="3.41195">
        <ele>376.4</ele>
        <time>2024-05-19T10:29:44Z</time>
      </trkpt>
      <trkpt lat="45.87683" lon="3.41201">
        <ele>376.4</ele>
        <time>2024-05-19T10:29:45Z</time>
      </trkpt>
      <trkpt lat="45.87689" lon="3.41207">
        <ele>376.4</ele>
        <time>2024-05-19T10:29:46Z</time>
      </trkpt>
      <trkpt lat="45.87696" lon="3.4121">
        <ele>376.4</ele>
        <time>2024-05-19T10:29:47Z</time>
      </trkpt>
      <trkpt lat="45.87703" lon="3.41212">
        <ele>376.4</ele>
        <time>2024-05-19T10:29:48Z</time>
      </trkpt>
      <trkpt lat="45.8771" lon="3.41214">
        <ele>376.4</ele>
        <time>2024-05-19T10:29:49Z</time>
      </trkpt>
      <trkpt lat="45.87716" lon="3.41217">
        <ele>376.4</ele>
        <time>2024-05-19T10:29:50Z</time>
      </trkpt>
      <trkpt lat="45.87723" lon="3.41219">
        <ele>376.4</ele>
        <time>2024-05-19T10:29:51Z</time>
      </trkpt>
      <trkpt lat="45.8773" lon="3.4122">
        <ele>376.4</ele>
        <time>2024-05-19T10:29:52Z</time>
      </trkpt>
      <trkpt lat="45.87737" lon="3.41222">
        <ele>376.4</ele>
        <time>2024-05-19T10:29:53Z</time>
      </trkpt>
      <trkpt lat="45.87744" lon="3.41223">
        <ele>376.4</ele>
        <time>2024-05-19T10:29:54Z</time>
      </trkpt>
      <trkpt lat="45.87751" lon="3.41225">
        <ele>376.6</ele>
        <time>2024-05-19T10:29:55Z</time>
      </trkpt>
      <trkpt lat="45.87758" lon="3.41226">
        <ele>376.6</ele>
        <time>2024-05-19T10:29:56Z</time>
      </trkpt>
      <trkpt lat="45.87765" lon="3.41227">
        <ele>376.4</ele>
        <time>2024-05-19T10:29:57Z</time>
      </trkpt>
      <trkpt lat="45.87772" lon="3.41229">
        <ele>376.2</ele>
        <time>2024-05-19T10:29:58Z</time>
      </trkpt>
      <trkpt lat="45.87779" lon="3.4123">
        <ele>376.2</ele>
        <time>2024-05-19T10:29:59Z</time>
      </trkpt>
      <trkpt lat="45.87787" lon="3.41232">
        <ele>376.2</ele>
        <time>2024-05-19T10:30:00Z</time>
      </trkpt>
      <trkpt lat="45.87794" lon="3.41233">
        <ele>376.2</ele>
        <time>2024-05-19T10:30:01Z</time>
      </trkpt>
      <trkpt lat="45.87801" lon="3.41235">
        <ele>376.2</ele>
        <time>2024-05-19T10:30:02Z</time>
      </trkpt>
      <trkpt lat="45.87808" lon="3.41236">
        <ele>376.2</ele>
        <time>2024-05-19T10:30:03Z</time>
      </trkpt>
      <trkpt lat="45.87815" lon="3.41238">
        <ele>376.2</ele>
        <time>2024-05-19T10:30:04Z</time>
      </trkpt>
      <trkpt lat="45.87822" lon="3.41239">
        <ele>376.2</ele>
        <time>2024-05-19T10:30:05Z</time>
      </trkpt>
      <trkpt lat="45.8783" lon="3.41241">
        <ele>376.2</ele>
        <time>2024-05-19T10:30:06Z</time>
      </trkpt>
      <trkpt lat="45.87837" lon="3.41242">
        <ele>376.2</ele>
        <time>2024-05-19T10:30:07Z</time>
      </trkpt>
      <trkpt lat="45.87844" lon="3.41244">
        <ele>376.2</ele>
        <time>2024-05-19T10:30:08Z</time>
      </trkpt>
      <trkpt lat="45.87852" lon="3.41246">
        <ele>376.2</ele>
        <time>2024-05-19T10:30:09Z</time>
      </trkpt>
      <trkpt lat="45.8786" lon="3.41245">
        <ele>376</ele>
        <time>2024-05-19T10:30:10Z</time>
      </trkpt>
      <trkpt lat="45.87867" lon="3.41245">
        <ele>376</ele>
        <time>2024-05-19T10:30:11Z</time>
      </trkpt>
      <trkpt lat="45.87875" lon="3.41245">
        <ele>376</ele>
        <time>2024-05-19T10:30:12Z</time>
      </trkpt>
      <trkpt lat="45.87882" lon="3.41245">
        <ele>376</ele>
        <time>2024-05-19T10:30:13Z</time>
      </trkpt>
      <trkpt lat="45.8789" lon="3.41245">
        <ele>376</ele>
        <time>2024-05-19T10:30:14Z</time>
      </trkpt>
      <trkpt lat="45.87898" lon="3.41245">
        <ele>375.8</ele>
        <time>2024-05-19T10:30:15Z</time>
      </trkpt>
      <trkpt lat="45.87905" lon="3.41244">
        <ele>375.8</ele>
        <time>2024-05-19T10:30:16Z</time>
      </trkpt>
      <trkpt lat="45.87913" lon="3.41244">
        <ele>375.8</ele>
        <time>2024-05-19T10:30:17Z</time>
      </trkpt>
      <trkpt lat="45.87921" lon="3.41244">
        <ele>375.8</ele>
        <time>2024-05-19T10:30:18Z</time>
      </trkpt>
      <trkpt lat="45.87928" lon="3.41244">
        <ele>375.8</ele>
        <time>2024-05-19T10:30:19Z</time>
      </trkpt>
      <trkpt lat="45.87936" lon="3.41244">
        <ele>375.8</ele>
        <time>2024-05-19T10:30:20Z</time>
      </trkpt>
      <trkpt lat="45.87944" lon="3.41244">
        <ele>375.8</ele>
        <time>2024-05-19T10:30:21Z</time>
      </trkpt>
      <trkpt lat="45.87951" lon="3.41245">
        <ele>375.8</ele>
        <time>2024-05-19T10:30:22Z</time>
      </trkpt>
      <trkpt lat="45.87959" lon="3.41248">
        <ele>375.6</ele>
        <time>2024-05-19T10:30:23Z</time>
      </trkpt>
      <trkpt lat="45.87966" lon="3.4125">
        <ele>375.6</ele>
        <time>2024-05-19T10:30:24Z</time>
      </trkpt>
      <trkpt lat="45.87974" lon="3.41252">
        <ele>375.6</ele>
        <time>2024-05-19T10:30:25Z</time>
      </trkpt>
      <trkpt lat="45.87981" lon="3.41255">
        <ele>375.6</ele>
        <time>2024-05-19T10:30:26Z</time>
      </trkpt>
      <trkpt lat="45.87988" lon="3.41257">
        <ele>375.6</ele>
        <time>2024-05-19T10:30:27Z</time>
      </trkpt>
      <trkpt lat="45.87995" lon="3.41259">
        <ele>375.6</ele>
        <time>2024-05-19T10:30:28Z</time>
      </trkpt>
      <trkpt lat="45.88002" lon="3.41262">
        <ele>375.6</ele>
        <time>2024-05-19T10:30:29Z</time>
      </trkpt>
      <trkpt lat="45.88008" lon="3.41264">
        <ele>375.4</ele>
        <time>2024-05-19T10:30:30Z</time>
      </trkpt>
      <trkpt lat="45.88015" lon="3.41266">
        <ele>375.4</ele>
        <time>2024-05-19T10:30:31Z</time>
      </trkpt>
      <trkpt lat="45.88022" lon="3.41268">
        <ele>375.4</ele>
        <time>2024-05-19T10:30:32Z</time>
      </trkpt>
      <trkpt lat="45.88029" lon="3.41271">
        <ele>375.4</ele>
        <time>2024-05-19T10:30:33Z</time>
      </trkpt>
      <trkpt lat="45.88036" lon="3.41273">
        <ele>375.4</ele>
        <time>2024-05-19T10:30:34Z</time>
      </trkpt>
      <trkpt lat="45.88043" lon="3.41275">
        <ele>375.4</ele>
        <time>2024-05-19T10:30:35Z</time>
      </trkpt>
      <trkpt lat="45.8805" lon="3.41277">
        <ele>375.4</ele>
        <time>2024-05-19T10:30:36Z</time>
      </trkpt>
      <trkpt lat="45.88057" lon="3.4128">
        <ele>375.4</ele>
        <time>2024-05-19T10:30:37Z</time>
      </trkpt>
      <trkpt lat="45.88064" lon="3.41282">
        <ele>375.4</ele>
        <time>2024-05-19T10:30:38Z</time>
      </trkpt>
      <trkpt lat="45.88071" lon="3.41286">
        <ele>375.4</ele>
        <time>2024-05-19T10:30:39Z</time>
      </trkpt>
      <trkpt lat="45.88078" lon="3.41291">
        <ele>375.2</ele>
        <time>2024-05-19T10:30:40Z</time>
      </trkpt>
      <trkpt lat="45.88084" lon="3.41296">
        <ele>375.2</ele>
        <time>2024-05-19T10:30:41Z</time>
      </trkpt>
      <trkpt lat="45.8809" lon="3.41302">
        <ele>375</ele>
        <time>2024-05-19T10:30:42Z</time>
      </trkpt>
      <trkpt lat="45.88096" lon="3.41308">
        <ele>375</ele>
        <time>2024-05-19T10:30:43Z</time>
      </trkpt>
      <trkpt lat="45.88102" lon="3.41315">
        <ele>375</ele>
        <time>2024-05-19T10:30:44Z</time>
      </trkpt>
      <trkpt lat="45.88108" lon="3.41321">
        <ele>374.8</ele>
        <time>2024-05-19T10:30:45Z</time>
      </trkpt>
      <trkpt lat="45.88114" lon="3.41328">
        <ele>374.8</ele>
        <time>2024-05-19T10:30:46Z</time>
      </trkpt>
      <trkpt lat="45.8812" lon="3.41335">
        <ele>374.8</ele>
        <time>2024-05-19T10:30:47Z</time>
      </trkpt>
      <trkpt lat="45.88126" lon="3.41341">
        <ele>374.6</ele>
        <time>2024-05-19T10:30:48Z</time>
      </trkpt>
      <trkpt lat="45.88131" lon="3.41347">
        <ele>374.6</ele>
        <time>2024-05-19T10:30:49Z</time>
      </trkpt>
      <trkpt lat="45.88137" lon="3.41353">
        <ele>374.4</ele>
        <time>2024-05-19T10:30:50Z</time>
      </trkpt>
      <trkpt lat="45.88143" lon="3.4136">
        <ele>374.4</ele>
        <time>2024-05-19T10:30:51Z</time>
      </trkpt>
      <trkpt lat="45.88149" lon="3.41366">
        <ele>374.2</ele>
        <time>2024-05-19T10:30:52Z</time>
      </trkpt>
      <trkpt lat="45.88155" lon="3.41372">
        <ele>374.2</ele>
        <time>2024-05-19T10:30:53Z</time>
      </trkpt>
      <trkpt lat="45.88161" lon="3.41378">
        <ele>374</ele>
        <time>2024-05-19T10:30:54Z</time>
      </trkpt>
      <trkpt lat="45.88168" lon="3.41383">
        <ele>374</ele>
        <time>2024-05-19T10:30:55Z</time>
      </trkpt>
      <trkpt lat="45.88175" lon="3.41387">
        <ele>373.8</ele>
        <time>2024-05-19T10:30:56Z</time>
      </trkpt>
      <trkpt lat="45.88183" lon="3.41392">
        <ele>373.8</ele>
        <time>2024-05-19T10:30:57Z</time>
      </trkpt>
      <trkpt lat="45.8819" lon="3.41396">
        <ele>373.6</ele>
        <time>2024-05-19T10:30:58Z</time>
      </trkpt>
      <trkpt lat="45.88197" lon="3.414">
        <ele>373.6</ele>
        <time>2024-05-19T10:30:59Z</time>
      </trkpt>
      <trkpt lat="45.88204" lon="3.41404">
        <ele>373.6</ele>
        <time>2024-05-19T10:31:00Z</time>
      </trkpt>
      <trkpt lat="45.88212" lon="3.41406">
        <ele>373.4</ele>
        <time>2024-05-19T10:31:01Z</time>
      </trkpt>
      <trkpt lat="45.8822" lon="3.41408">
        <ele>373.4</ele>
        <time>2024-05-19T10:31:02Z</time>
      </trkpt>
      <trkpt lat="45.88228" lon="3.4141">
        <ele>373.4</ele>
        <time>2024-05-19T10:31:03Z</time>
      </trkpt>
      <trkpt lat="45.88236" lon="3.41411">
        <ele>373.2</ele>
        <time>2024-05-19T10:31:04Z</time>
      </trkpt>
      <trkpt lat="45.88244" lon="3.41412">
        <ele>373.2</ele>
        <time>2024-05-19T10:31:05Z</time>
      </trkpt>
      <trkpt lat="45.88251" lon="3.41413">
        <ele>373.2</ele>
        <time>2024-05-19T10:31:06Z</time>
      </trkpt>
      <trkpt lat="45.88259" lon="3.41414">
        <ele>373</ele>
        <time>2024-05-19T10:31:07Z</time>
      </trkpt>
      <trkpt lat="45.88266" lon="3.41415">
        <ele>373</ele>
        <time>2024-05-19T10:31:08Z</time>
      </trkpt>
      <trkpt lat="45.88274" lon="3.41414">
        <ele>373</ele>
        <time>2024-05-19T10:31:09Z</time>
      </trkpt>
      <trkpt lat="45.88281" lon="3.41412">
        <ele>373</ele>
        <time>2024-05-19T10:31:10Z</time>
      </trkpt>
      <trkpt lat="45.88289" lon="3.4141">
        <ele>373</ele>
        <time>2024-05-19T10:31:11Z</time>
      </trkpt>
      <trkpt lat="45.88296" lon="3.41408">
        <ele>373</ele>
        <time>2024-05-19T10:31:12Z</time>
      </trkpt>
      <trkpt lat="45.88303" lon="3.41406">
        <ele>373</ele>
        <time>2024-05-19T10:31:13Z</time>
      </trkpt>
      <trkpt lat="45.8831" lon="3.41404">
        <ele>373</ele>
        <time>2024-05-19T10:31:14Z</time>
      </trkpt>
      <trkpt lat="45.88317" lon="3.41403">
        <ele>373</ele>
        <time>2024-05-19T10:31:15Z</time>
      </trkpt>
      <trkpt lat="45.88325" lon="3.41401">
        <ele>373</ele>
        <time>2024-05-19T10:31:16Z</time>
      </trkpt>
      <trkpt lat="45.88332" lon="3.41399">
        <ele>372.8</ele>
        <time>2024-05-19T10:31:17Z</time>
      </trkpt>
      <trkpt lat="45.88339" lon="3.41397">
        <ele>372.8</ele>
        <time>2024-05-19T10:31:18Z</time>
      </trkpt>
      <trkpt lat="45.88346" lon="3.41395">
        <ele>372.8</ele>
        <time>2024-05-19T10:31:19Z</time>
      </trkpt>
      <trkpt lat="45.88353" lon="3.41393">
        <ele>372.8</ele>
        <time>2024-05-19T10:31:20Z</time>
      </trkpt>
      <trkpt lat="45.8836" lon="3.41392">
        <ele>372.8</ele>
        <time>2024-05-19T10:31:21Z</time>
      </trkpt>
      <trkpt lat="45.88367" lon="3.4139">
        <ele>372.8</ele>
        <time>2024-05-19T10:31:22Z</time>
      </trkpt>
      <trkpt lat="45.88374" lon="3.41388">
        <ele>372.6</ele>
        <time>2024-05-19T10:31:23Z</time>
      </trkpt>
      <trkpt lat="45.88381" lon="3.41386">
        <ele>372.6</ele>
        <time>2024-05-19T10:31:24Z</time>
      </trkpt>
      <trkpt lat="45.88388" lon="3.41384">
        <ele>372.6</ele>
        <time>2024-05-19T10:31:25Z</time>
      </trkpt>
      <trkpt lat="45.88395" lon="3.41383">
        <ele>372.6</ele>
        <time>2024-05-19T10:31:26Z</time>
      </trkpt>
      <trkpt lat="45.88402" lon="3.41381">
        <ele>372.6</ele>
        <time>2024-05-19T10:31:27Z</time>
      </trkpt>
      <trkpt lat="45.88409" lon="3.41379">
        <ele>372.4</ele>
        <time>2024-05-19T10:31:28Z</time>
      </trkpt>
      <trkpt lat="45.88416" lon="3.41377">
        <ele>372.4</ele>
        <time>2024-05-19T10:31:29Z</time>
      </trkpt>
      <trkpt lat="45.88423" lon="3.41375">
        <ele>372.4</ele>
        <time>2024-05-19T10:31:30Z</time>
      </trkpt>
      <trkpt lat="45.8843" lon="3.41373">
        <ele>372.4</ele>
        <time>2024-05-19T10:31:31Z</time>
      </trkpt>
      <trkpt lat="45.88436" lon="3.41371">
        <ele>372.4</ele>
        <time>2024-05-19T10:31:32Z</time>
      </trkpt>
      <trkpt lat="45.88443" lon="3.41368">
        <ele>372.4</ele>
        <time>2024-05-19T10:31:33Z</time>
      </trkpt>
      <trkpt lat="45.8845" lon="3.41366">
        <ele>372.2</ele>
        <time>2024-05-19T10:31:34Z</time>
      </trkpt>
      <trkpt lat="45.88457" lon="3.41363">
        <ele>372.2</ele>
        <time>2024-05-19T10:31:35Z</time>
      </trkpt>
      <trkpt lat="45.88464" lon="3.41361">
        <ele>372.2</ele>
        <time>2024-05-19T10:31:36Z</time>
      </trkpt>
      <trkpt lat="45.88471" lon="3.41358">
        <ele>372</ele>
        <time>2024-05-19T10:31:37Z</time>
      </trkpt>
      <trkpt lat="45.88478" lon="3.41356">
        <ele>372</ele>
        <time>2024-05-19T10:31:38Z</time>
      </trkpt>
      <trkpt lat="45.88485" lon="3.41353">
        <ele>372</ele>
        <time>2024-05-19T10:31:39Z</time>
      </trkpt>
      <trkpt lat="45.88491" lon="3.41351">
        <ele>372</ele>
        <time>2024-05-19T10:31:40Z</time>
      </trkpt>
      <trkpt lat="45.88498" lon="3.41348">
        <ele>372</ele>
        <time>2024-05-19T10:31:41Z</time>
      </trkpt>
      <trkpt lat="45.88504" lon="3.41345">
        <ele>372</ele>
        <time>2024-05-19T10:31:42Z</time>
      </trkpt>
      <trkpt lat="45.88511" lon="3.41342">
        <ele>371.8</ele>
        <time>2024-05-19T10:31:43Z</time>
      </trkpt>
      <trkpt lat="45.88517" lon="3.41338">
        <ele>371.8</ele>
        <time>2024-05-19T10:31:44Z</time>
      </trkpt>
      <trkpt lat="45.88523" lon="3.41335">
        <ele>371.8</ele>
        <time>2024-05-19T10:31:45Z</time>
      </trkpt>
      <trkpt lat="45.88529" lon="3.41332">
        <ele>371.8</ele>
        <time>2024-05-19T10:31:46Z</time>
      </trkpt>
      <trkpt lat="45.88535" lon="3.41328">
        <ele>371.8</ele>
        <time>2024-05-19T10:31:47Z</time>
      </trkpt>
      <trkpt lat="45.88541" lon="3.41325">
        <ele>371.8</ele>
        <time>2024-05-19T10:31:48Z</time>
      </trkpt>
      <trkpt lat="45.88547" lon="3.41322">
        <ele>371.6</ele>
        <time>2024-05-19T10:31:49Z</time>
      </trkpt>
      <trkpt lat="45.88554" lon="3.41318">
        <ele>371.6</ele>
        <time>2024-05-19T10:31:50Z</time>
      </trkpt>
      <trkpt lat="45.8856" lon="3.41314">
        <ele>371.6</ele>
        <time>2024-05-19T10:31:51Z</time>
      </trkpt>
      <trkpt lat="45.88567" lon="3.41311">
        <ele>371.4</ele>
        <time>2024-05-19T10:31:52Z</time>
      </trkpt>
      <trkpt lat="45.88574" lon="3.41307">
        <ele>371.4</ele>
        <time>2024-05-19T10:31:53Z</time>
      </trkpt>
      <trkpt lat="45.8858" lon="3.41303">
        <ele>371.4</ele>
        <time>2024-05-19T10:31:54Z</time>
      </trkpt>
      <trkpt lat="45.88587" lon="3.413">
        <ele>371.4</ele>
        <time>2024-05-19T10:31:55Z</time>
      </trkpt>
      <trkpt lat="45.88593" lon="3.41296">
        <ele>371.2</ele>
        <time>2024-05-19T10:31:56Z</time>
      </trkpt>
      <trkpt lat="45.88599" lon="3.41293">
        <ele>371.2</ele>
        <time>2024-05-19T10:31:57Z</time>
      </trkpt>
      <trkpt lat="45.88606" lon="3.4129">
        <ele>371.2</ele>
        <time>2024-05-19T10:31:58Z</time>
      </trkpt>
      <trkpt lat="45.88613" lon="3.41288">
        <ele>371.2</ele>
        <time>2024-05-19T10:31:59Z</time>
      </trkpt>
      <trkpt lat="45.8862" lon="3.41286">
        <ele>371.2</ele>
        <time>2024-05-19T10:32:00Z</time>
      </trkpt>
      <trkpt lat="45.88627" lon="3.41284">
        <ele>371.2</ele>
        <time>2024-05-19T10:32:01Z</time>
      </trkpt>
      <trkpt lat="45.88634" lon="3.41283">
        <ele>371.2</ele>
        <time>2024-05-19T10:32:02Z</time>
      </trkpt>
      <trkpt lat="45.88641" lon="3.41281">
        <ele>371.2</ele>
        <time>2024-05-19T10:32:03Z</time>
      </trkpt>
      <trkpt lat="45.88648" lon="3.41279">
        <ele>371.2</ele>
        <time>2024-05-19T10:32:04Z</time>
      </trkpt>
      <trkpt lat="45.88655" lon="3.41277">
        <ele>371</ele>
        <time>2024-05-19T10:32:05Z</time>
      </trkpt>
      <trkpt lat="45.88662" lon="3.41275">
        <ele>371</ele>
        <time>2024-05-19T10:32:06Z</time>
      </trkpt>
      <trkpt lat="45.8867" lon="3.41273">
        <ele>371</ele>
        <time>2024-05-19T10:32:07Z</time>
      </trkpt>
      <trkpt lat="45.88677" lon="3.41271">
        <ele>371</ele>
        <time>2024-05-19T10:32:08Z</time>
      </trkpt>
      <trkpt lat="45.88684" lon="3.41269">
        <ele>371</ele>
        <time>2024-05-19T10:32:09Z</time>
      </trkpt>
      <trkpt lat="45.88692" lon="3.41267">
        <ele>371</ele>
        <time>2024-05-19T10:32:10Z</time>
      </trkpt>
      <trkpt lat="45.887" lon="3.41265">
        <ele>371</ele>
        <time>2024-05-19T10:32:11Z</time>
      </trkpt>
      <trkpt lat="45.88707" lon="3.41265">
        <ele>371</ele>
        <time>2024-05-19T10:32:12Z</time>
      </trkpt>
      <trkpt lat="45.88715" lon="3.41264">
        <ele>371</ele>
        <time>2024-05-19T10:32:13Z</time>
      </trkpt>
      <trkpt lat="45.88723" lon="3.41264">
        <ele>371</ele>
        <time>2024-05-19T10:32:14Z</time>
      </trkpt>
      <trkpt lat="45.8873" lon="3.41263">
        <ele>371</ele>
        <time>2024-05-19T10:32:15Z</time>
      </trkpt>
      <trkpt lat="45.88737" lon="3.41263">
        <ele>371</ele>
        <time>2024-05-19T10:32:16Z</time>
      </trkpt>
      <trkpt lat="45.88745" lon="3.41264">
        <ele>371</ele>
        <time>2024-05-19T10:32:17Z</time>
      </trkpt>
      <trkpt lat="45.88753" lon="3.41265">
        <ele>371</ele>
        <time>2024-05-19T10:32:18Z</time>
      </trkpt>
      <trkpt lat="45.8876" lon="3.41266">
        <ele>371</ele>
        <time>2024-05-19T10:32:19Z</time>
      </trkpt>
      <trkpt lat="45.88768" lon="3.41267">
        <ele>371</ele>
        <time>2024-05-19T10:32:20Z</time>
      </trkpt>
      <trkpt lat="45.88776" lon="3.41268">
        <ele>371</ele>
        <time>2024-05-19T10:32:21Z</time>
      </trkpt>
      <trkpt lat="45.88784" lon="3.4127">
        <ele>371</ele>
        <time>2024-05-19T10:32:22Z</time>
      </trkpt>
      <trkpt lat="45.88792" lon="3.41271">
        <ele>370.8</ele>
        <time>2024-05-19T10:32:23Z</time>
      </trkpt>
      <trkpt lat="45.888" lon="3.41272">
        <ele>370.8</ele>
        <time>2024-05-19T10:32:24Z</time>
      </trkpt>
      <trkpt lat="45.88808" lon="3.41273">
        <ele>370.8</ele>
        <time>2024-05-19T10:32:25Z</time>
      </trkpt>
      <trkpt lat="45.88815" lon="3.41275">
        <ele>370.8</ele>
        <time>2024-05-19T10:32:26Z</time>
      </trkpt>
      <trkpt lat="45.88823" lon="3.41276">
        <ele>370.6</ele>
        <time>2024-05-19T10:32:27Z</time>
      </trkpt>
      <trkpt lat="45.88831" lon="3.41277">
        <ele>370.6</ele>
        <time>2024-05-19T10:32:28Z</time>
      </trkpt>
      <trkpt lat="45.88839" lon="3.41278">
        <ele>370.6</ele>
        <time>2024-05-19T10:32:29Z</time>
      </trkpt>
      <trkpt lat="45.88847" lon="3.4128">
        <ele>370.4</ele>
        <time>2024-05-19T10:32:30Z</time>
      </trkpt>
      <trkpt lat="45.88854" lon="3.41281">
        <ele>370.4</ele>
        <time>2024-05-19T10:32:31Z</time>
      </trkpt>
      <trkpt lat="45.88862" lon="3.41282">
        <ele>370.4</ele>
        <time>2024-05-19T10:32:32Z</time>
      </trkpt>
      <trkpt lat="45.8887" lon="3.41283">
        <ele>370.2</ele>
        <time>2024-05-19T10:32:33Z</time>
      </trkpt>
      <trkpt lat="45.88877" lon="3.41285">
        <ele>370.2</ele>
        <time>2024-05-19T10:32:34Z</time>
      </trkpt>
      <trkpt lat="45.88885" lon="3.41286">
        <ele>370.2</ele>
        <time>2024-05-19T10:32:35Z</time>
      </trkpt>
      <trkpt lat="45.88892" lon="3.41287">
        <ele>370.2</ele>
        <time>2024-05-19T10:32:36Z</time>
      </trkpt>
      <trkpt lat="45.889" lon="3.41288">
        <ele>370.2</ele>
        <time>2024-05-19T10:32:37Z</time>
      </trkpt>
      <trkpt lat="45.88908" lon="3.41289">
        <ele>370.2</ele>
        <time>2024-05-19T10:32:38Z</time>
      </trkpt>
      <trkpt lat="45.88916" lon="3.41291">
        <ele>370</ele>
        <time>2024-05-19T10:32:39Z</time>
      </trkpt>
      <trkpt lat="45.88924" lon="3.41292">
        <ele>370</ele>
        <time>2024-05-19T10:32:40Z</time>
      </trkpt>
      <trkpt lat="45.88931" lon="3.41293">
        <ele>370</ele>
        <time>2024-05-19T10:32:41Z</time>
      </trkpt>
      <trkpt lat="45.88939" lon="3.41294">
        <ele>370</ele>
        <time>2024-05-19T10:32:42Z</time>
      </trkpt>
      <trkpt lat="45.88947" lon="3.41296">
        <ele>370</ele>
        <time>2024-05-19T10:32:43Z</time>
      </trkpt>
      <trkpt lat="45.88954" lon="3.41297">
        <ele>370</ele>
        <time>2024-05-19T10:32:44Z</time>
      </trkpt>
      <trkpt lat="45.88962" lon="3.41298">
        <ele>370</ele>
        <time>2024-05-19T10:32:45Z</time>
      </trkpt>
      <trkpt lat="45.8897" lon="3.413">
        <ele>369.8</ele>
        <time>2024-05-19T10:32:46Z</time>
      </trkpt>
      <trkpt lat="45.88977" lon="3.41301">
        <ele>369.8</ele>
        <time>2024-05-19T10:32:47Z</time>
      </trkpt>
      <trkpt lat="45.88984" lon="3.41303">
        <ele>369.8</ele>
        <time>2024-05-19T10:32:48Z</time>
      </trkpt>
      <trkpt lat="45.88992" lon="3.41304">
        <ele>369.8</ele>
        <time>2024-05-19T10:32:49Z</time>
      </trkpt>
      <trkpt lat="45.88999" lon="3.41306">
        <ele>369.6</ele>
        <time>2024-05-19T10:32:50Z</time>
      </trkpt>
      <trkpt lat="45.89007" lon="3.41307">
        <ele>369.6</ele>
        <time>2024-05-19T10:32:51Z</time>
      </trkpt>
      <trkpt lat="45.89014" lon="3.41309">
        <ele>369.6</ele>
        <time>2024-05-19T10:32:52Z</time>
      </trkpt>
      <trkpt lat="45.89022" lon="3.4131">
        <ele>369.6</ele>
        <time>2024-05-19T10:32:53Z</time>
      </trkpt>
      <trkpt lat="45.89029" lon="3.41312">
        <ele>369.4</ele>
        <time>2024-05-19T10:32:54Z</time>
      </trkpt>
      <trkpt lat="45.89036" lon="3.41313">
        <ele>369.4</ele>
        <time>2024-05-19T10:32:55Z</time>
      </trkpt>
      <trkpt lat="45.89044" lon="3.41315">
        <ele>369.4</ele>
        <time>2024-05-19T10:32:56Z</time>
      </trkpt>
      <trkpt lat="45.89051" lon="3.41317">
        <ele>369.2</ele>
        <time>2024-05-19T10:32:57Z</time>
      </trkpt>
      <trkpt lat="45.89058" lon="3.41318">
        <ele>369.2</ele>
        <time>2024-05-19T10:32:58Z</time>
      </trkpt>
      <trkpt lat="45.89066" lon="3.4132">
        <ele>369.2</ele>
        <time>2024-05-19T10:32:59Z</time>
      </trkpt>
      <trkpt lat="45.89073" lon="3.41321">
        <ele>369.2</ele>
        <time>2024-05-19T10:33:00Z</time>
      </trkpt>
      <trkpt lat="45.89081" lon="3.41323">
        <ele>369</ele>
        <time>2024-05-19T10:33:01Z</time>
      </trkpt>
      <trkpt lat="45.89088" lon="3.41324">
        <ele>369</ele>
        <time>2024-05-19T10:33:02Z</time>
      </trkpt>
      <trkpt lat="45.89096" lon="3.41326">
        <ele>369</ele>
        <time>2024-05-19T10:33:03Z</time>
      </trkpt>
      <trkpt lat="45.89103" lon="3.41327">
        <ele>369</ele>
        <time>2024-05-19T10:33:04Z</time>
      </trkpt>
      <trkpt lat="45.8911" lon="3.41331">
        <ele>368.8</ele>
        <time>2024-05-19T10:33:05Z</time>
      </trkpt>
      <trkpt lat="45.89118" lon="3.41334">
        <ele>368.8</ele>
        <time>2024-05-19T10:33:06Z</time>
      </trkpt>
      <trkpt lat="45.89125" lon="3.41337">
        <ele>368.8</ele>
        <time>2024-05-19T10:33:07Z</time>
      </trkpt>
      <trkpt lat="45.89132" lon="3.4134">
        <ele>368.6</ele>
        <time>2024-05-19T10:33:08Z</time>
      </trkpt>
      <trkpt lat="45.89139" lon="3.41344">
        <ele>368.6</ele>
        <time>2024-05-19T10:33:09Z</time>
      </trkpt>
      <trkpt lat="45.89146" lon="3.41347">
        <ele>368.6</ele>
        <time>2024-05-19T10:33:10Z</time>
      </trkpt>
      <trkpt lat="45.89153" lon="3.4135">
        <ele>368.6</ele>
        <time>2024-05-19T10:33:11Z</time>
      </trkpt>
      <trkpt lat="45.8916" lon="3.41354">
        <ele>368.6</ele>
        <time>2024-05-19T10:33:12Z</time>
      </trkpt>
      <trkpt lat="45.89167" lon="3.41357">
        <ele>368.4</ele>
        <time>2024-05-19T10:33:13Z</time>
      </trkpt>
      <trkpt lat="45.89175" lon="3.4136">
        <ele>368.4</ele>
        <time>2024-05-19T10:33:14Z</time>
      </trkpt>
      <trkpt lat="45.89182" lon="3.41364">
        <ele>368.4</ele>
        <time>2024-05-19T10:33:15Z</time>
      </trkpt>
      <trkpt lat="45.89189" lon="3.41366">
        <ele>368.2</ele>
        <time>2024-05-19T10:33:16Z</time>
      </trkpt>
      <trkpt lat="45.89196" lon="3.41369">
        <ele>368.2</ele>
        <time>2024-05-19T10:33:17Z</time>
      </trkpt>
      <trkpt lat="45.89204" lon="3.41371">
        <ele>368</ele>
        <time>2024-05-19T10:33:18Z</time>
      </trkpt>
      <trkpt lat="45.89211" lon="3.41373">
        <ele>368</ele>
        <time>2024-05-19T10:33:19Z</time>
      </trkpt>
      <trkpt lat="45.89218" lon="3.41375">
        <ele>367.8</ele>
        <time>2024-05-19T10:33:20Z</time>
      </trkpt>
      <trkpt lat="45.89226" lon="3.41377">
        <ele>367.8</ele>
        <time>2024-05-19T10:33:21Z</time>
      </trkpt>
      <trkpt lat="45.89233" lon="3.41379">
        <ele>367.6</ele>
        <time>2024-05-19T10:33:22Z</time>
      </trkpt>
      <trkpt lat="45.89241" lon="3.41381">
        <ele>367.6</ele>
        <time>2024-05-19T10:33:23Z</time>
      </trkpt>
      <trkpt lat="45.89249" lon="3.41383">
        <ele>367.4</ele>
        <time>2024-05-19T10:33:24Z</time>
      </trkpt>
      <trkpt lat="45.89256" lon="3.41386">
        <ele>367.4</ele>
        <time>2024-05-19T10:33:25Z</time>
      </trkpt>
      <trkpt lat="45.89264" lon="3.41388">
        <ele>367.4</ele>
        <time>2024-05-19T10:33:26Z</time>
      </trkpt>
      <trkpt lat="45.89272" lon="3.4139">
        <ele>367.2</ele>
        <time>2024-05-19T10:33:27Z</time>
      </trkpt>
      <trkpt lat="45.89279" lon="3.41392">
        <ele>367.2</ele>
        <time>2024-05-19T10:33:28Z</time>
      </trkpt>
      <trkpt lat="45.89287" lon="3.41394">
        <ele>367.2</ele>
        <time>2024-05-19T10:33:29Z</time>
      </trkpt>
      <trkpt lat="45.89295" lon="3.41396">
        <ele>367</ele>
        <time>2024-05-19T10:33:30Z</time>
      </trkpt>
      <trkpt lat="45.89302" lon="3.41399">
        <ele>367</ele>
        <time>2024-05-19T10:33:31Z</time>
      </trkpt>
      <trkpt lat="45.8931" lon="3.41401">
        <ele>367</ele>
        <time>2024-05-19T10:33:32Z</time>
      </trkpt>
      <trkpt lat="45.89317" lon="3.41403">
        <ele>366.8</ele>
        <time>2024-05-19T10:33:33Z</time>
      </trkpt>
      <trkpt lat="45.89325" lon="3.41404">
        <ele>366.8</ele>
        <time>2024-05-19T10:33:34Z</time>
      </trkpt>
      <trkpt lat="45.89333" lon="3.41406">
        <ele>366.8</ele>
        <time>2024-05-19T10:33:35Z</time>
      </trkpt>
      <trkpt lat="45.8934" lon="3.41408">
        <ele>366.6</ele>
        <time>2024-05-19T10:33:36Z</time>
      </trkpt>
      <trkpt lat="45.89348" lon="3.4141">
        <ele>366.6</ele>
        <time>2024-05-19T10:33:37Z</time>
      </trkpt>
      <trkpt lat="45.89356" lon="3.41412">
        <ele>366.6</ele>
        <time>2024-05-19T10:33:38Z</time>
      </trkpt>
      <trkpt lat="45.89364" lon="3.41413">
        <ele>366.4</ele>
        <time>2024-05-19T10:33:39Z</time>
      </trkpt>
      <trkpt lat="45.89371" lon="3.41415">
        <ele>366.4</ele>
        <time>2024-05-19T10:33:40Z</time>
      </trkpt>
      <trkpt lat="45.89379" lon="3.41417">
        <ele>366.4</ele>
        <time>2024-05-19T10:33:41Z</time>
      </trkpt>
      <trkpt lat="45.89387" lon="3.41419">
        <ele>366.2</ele>
        <time>2024-05-19T10:33:42Z</time>
      </trkpt>
      <trkpt lat="45.89394" lon="3.41419">
        <ele>366.2</ele>
        <time>2024-05-19T10:33:43Z</time>
      </trkpt>
      <trkpt lat="45.89402" lon="3.41419">
        <ele>366</ele>
        <time>2024-05-19T10:33:44Z</time>
      </trkpt>
      <trkpt lat="45.8941" lon="3.41419">
        <ele>366</ele>
        <time>2024-05-19T10:33:45Z</time>
      </trkpt>
      <trkpt lat="45.89418" lon="3.41419">
        <ele>365.8</ele>
        <time>2024-05-19T10:33:46Z</time>
      </trkpt>
      <trkpt lat="45.89425" lon="3.41419">
        <ele>365.8</ele>
        <time>2024-05-19T10:33:47Z</time>
      </trkpt>
      <trkpt lat="45.89433" lon="3.41419">
        <ele>365.6</ele>
        <time>2024-05-19T10:33:48Z</time>
      </trkpt>
      <trkpt lat="45.8944" lon="3.41419">
        <ele>365.6</ele>
        <time>2024-05-19T10:33:49Z</time>
      </trkpt>
      <trkpt lat="45.89448" lon="3.41417">
        <ele>365.6</ele>
        <time>2024-05-19T10:33:50Z</time>
      </trkpt>
      <trkpt lat="45.89455" lon="3.41415">
        <ele>365.4</ele>
        <time>2024-05-19T10:33:51Z</time>
      </trkpt>
      <trkpt lat="45.89463" lon="3.41413">
        <ele>365.4</ele>
        <time>2024-05-19T10:33:52Z</time>
      </trkpt>
      <trkpt lat="45.8947" lon="3.41411">
        <ele>365.4</ele>
        <time>2024-05-19T10:33:53Z</time>
      </trkpt>
      <trkpt lat="45.89477" lon="3.4141">
        <ele>365.2</ele>
        <time>2024-05-19T10:33:54Z</time>
      </trkpt>
      <trkpt lat="45.89484" lon="3.41406">
        <ele>365.2</ele>
        <time>2024-05-19T10:33:55Z</time>
      </trkpt>
      <trkpt lat="45.89491" lon="3.41402">
        <ele>365.2</ele>
        <time>2024-05-19T10:33:56Z</time>
      </trkpt>
      <trkpt lat="45.89497" lon="3.41398">
        <ele>365</ele>
        <time>2024-05-19T10:33:57Z</time>
      </trkpt>
      <trkpt lat="45.89504" lon="3.41394">
        <ele>365</ele>
        <time>2024-05-19T10:33:58Z</time>
      </trkpt>
      <trkpt lat="45.8951" lon="3.41388">
        <ele>364.8</ele>
        <time>2024-05-19T10:33:59Z</time>
      </trkpt>
      <trkpt lat="45.89516" lon="3.41383">
        <ele>364.8</ele>
        <time>2024-05-19T10:34:00Z</time>
      </trkpt>
      <trkpt lat="45.89522" lon="3.41377">
        <ele>364.8</ele>
        <time>2024-05-19T10:34:01Z</time>
      </trkpt>
      <trkpt lat="45.89528" lon="3.41372">
        <ele>364.8</ele>
        <time>2024-05-19T10:34:02Z</time>
      </trkpt>
      <trkpt lat="45.89534" lon="3.41366">
        <ele>364.8</ele>
        <time>2024-05-19T10:34:03Z</time>
      </trkpt>
      <trkpt lat="45.89541" lon="3.4136">
        <ele>364.6</ele>
        <time>2024-05-19T10:34:04Z</time>
      </trkpt>
      <trkpt lat="45.89547" lon="3.41355">
        <ele>364.6</ele>
        <time>2024-05-19T10:34:05Z</time>
      </trkpt>
      <trkpt lat="45.89553" lon="3.41349">
        <ele>364.6</ele>
        <time>2024-05-19T10:34:06Z</time>
      </trkpt>
      <trkpt lat="45.89559" lon="3.41344">
        <ele>364.6</ele>
        <time>2024-05-19T10:34:07Z</time>
      </trkpt>
      <trkpt lat="45.89566" lon="3.4134">
        <ele>364.4</ele>
        <time>2024-05-19T10:34:08Z</time>
      </trkpt>
      <trkpt lat="45.89573" lon="3.41336">
        <ele>364.4</ele>
        <time>2024-05-19T10:34:09Z</time>
      </trkpt>
      <trkpt lat="45.89579" lon="3.41331">
        <ele>364.4</ele>
        <time>2024-05-19T10:34:10Z</time>
      </trkpt>
      <trkpt lat="45.89586" lon="3.41327">
        <ele>364.2</ele>
        <time>2024-05-19T10:34:11Z</time>
      </trkpt>
      <trkpt lat="45.89592" lon="3.41323">
        <ele>364.2</ele>
        <time>2024-05-19T10:34:12Z</time>
      </trkpt>
      <trkpt lat="45.896" lon="3.41319">
        <ele>364.2</ele>
        <time>2024-05-19T10:34:13Z</time>
      </trkpt>
      <trkpt lat="45.89607" lon="3.41315">
        <ele>364.2</ele>
        <time>2024-05-19T10:34:14Z</time>
      </trkpt>
      <trkpt lat="45.89614" lon="3.41312">
        <ele>364</ele>
        <time>2024-05-19T10:34:15Z</time>
      </trkpt>
      <trkpt lat="45.89621" lon="3.41308">
        <ele>364</ele>
        <time>2024-05-19T10:34:16Z</time>
      </trkpt>
      <trkpt lat="45.89628" lon="3.41304">
        <ele>364</ele>
        <time>2024-05-19T10:34:17Z</time>
      </trkpt>
      <trkpt lat="45.89635" lon="3.413">
        <ele>363.8</ele>
        <time>2024-05-19T10:34:18Z</time>
      </trkpt>
      <trkpt lat="45.89642" lon="3.41297">
        <ele>363.8</ele>
        <time>2024-05-19T10:34:19Z</time>
      </trkpt>
      <trkpt lat="45.89649" lon="3.41293">
        <ele>363.8</ele>
        <time>2024-05-19T10:34:20Z</time>
      </trkpt>
      <trkpt lat="45.89656" lon="3.41289">
        <ele>363.6</ele>
        <time>2024-05-19T10:34:21Z</time>
      </trkpt>
      <trkpt lat="45.89663" lon="3.41286">
        <ele>363.6</ele>
        <time>2024-05-19T10:34:22Z</time>
      </trkpt>
      <trkpt lat="45.8967" lon="3.41282">
        <ele>363.6</ele>
        <time>2024-05-19T10:34:23Z</time>
      </trkpt>
      <trkpt lat="45.89677" lon="3.41279">
        <ele>363.4</ele>
        <time>2024-05-19T10:34:24Z</time>
      </trkpt>
      <trkpt lat="45.89684" lon="3.41275">
        <ele>363.4</ele>
        <time>2024-05-19T10:34:25Z</time>
      </trkpt>
      <trkpt lat="45.89691" lon="3.41271">
        <ele>363.4</ele>
        <time>2024-05-19T10:34:26Z</time>
      </trkpt>
      <trkpt lat="45.89698" lon="3.41268">
        <ele>363.2</ele>
        <time>2024-05-19T10:34:27Z</time>
      </trkpt>
      <trkpt lat="45.89705" lon="3.41264">
        <ele>363.2</ele>
        <time>2024-05-19T10:34:28Z</time>
      </trkpt>
      <trkpt lat="45.89712" lon="3.4126">
        <ele>363.2</ele>
        <time>2024-05-19T10:34:29Z</time>
      </trkpt>
      <trkpt lat="45.89719" lon="3.41256">
        <ele>363</ele>
        <time>2024-05-19T10:34:30Z</time>
      </trkpt>
      <trkpt lat="45.89727" lon="3.41253">
        <ele>363</ele>
        <time>2024-05-19T10:34:31Z</time>
      </trkpt>
      <trkpt lat="45.89734" lon="3.4125">
        <ele>363</ele>
        <time>2024-05-19T10:34:32Z</time>
      </trkpt>
      <trkpt lat="45.89742" lon="3.41247">
        <ele>362.8</ele>
        <time>2024-05-19T10:34:33Z</time>
      </trkpt>
      <trkpt lat="45.8975" lon="3.41244">
        <ele>362.8</ele>
        <time>2024-05-19T10:34:34Z</time>
      </trkpt>
      <trkpt lat="45.89758" lon="3.41241">
        <ele>362.8</ele>
        <time>2024-05-19T10:34:35Z</time>
      </trkpt>
      <trkpt lat="45.89765" lon="3.41238">
        <ele>362.8</ele>
        <time>2024-05-19T10:34:36Z</time>
      </trkpt>
      <trkpt lat="45.89773" lon="3.41235">
        <ele>362.6</ele>
        <time>2024-05-19T10:34:37Z</time>
      </trkpt>
      <trkpt lat="45.8978" lon="3.41232">
        <ele>362.6</ele>
        <time>2024-05-19T10:34:38Z</time>
      </trkpt>
      <trkpt lat="45.89788" lon="3.41228">
        <ele>362.4</ele>
        <time>2024-05-19T10:34:39Z</time>
      </trkpt>
      <trkpt lat="45.89795" lon="3.41225">
        <ele>362.4</ele>
        <time>2024-05-19T10:34:40Z</time>
      </trkpt>
      <trkpt lat="45.89802" lon="3.41222">
        <ele>362.4</ele>
        <time>2024-05-19T10:34:41Z</time>
      </trkpt>
      <trkpt lat="45.8981" lon="3.41219">
        <ele>362.2</ele>
        <time>2024-05-19T10:34:42Z</time>
      </trkpt>
      <trkpt lat="45.89817" lon="3.41216">
        <ele>362.2</ele>
        <time>2024-05-19T10:34:43Z</time>
      </trkpt>
      <trkpt lat="45.89824" lon="3.41213">
        <ele>362</ele>
        <time>2024-05-19T10:34:44Z</time>
      </trkpt>
      <trkpt lat="45.89832" lon="3.41209">
        <ele>362</ele>
        <time>2024-05-19T10:34:45Z</time>
      </trkpt>
      <trkpt lat="45.89839" lon="3.41206">
        <ele>361.8</ele>
        <time>2024-05-19T10:34:46Z</time>
      </trkpt>
      <trkpt lat="45.89846" lon="3.41203">
        <ele>361.8</ele>
        <time>2024-05-19T10:34:47Z</time>
      </trkpt>
      <trkpt lat="45.89854" lon="3.412">
        <ele>361.6</ele>
        <time>2024-05-19T10:34:48Z</time>
      </trkpt>
      <trkpt lat="45.89861" lon="3.41197">
        <ele>361.4</ele>
        <time>2024-05-19T10:34:49Z</time>
      </trkpt>
      <trkpt lat="45.89868" lon="3.41194">
        <ele>361.4</ele>
        <time>2024-05-19T10:34:50Z</time>
      </trkpt>
      <trkpt lat="45.89875" lon="3.41191">
        <ele>361.4</ele>
        <time>2024-05-19T10:34:51Z</time>
      </trkpt>
      <trkpt lat="45.89882" lon="3.41188">
        <ele>361.2</ele>
        <time>2024-05-19T10:34:52Z</time>
      </trkpt>
      <trkpt lat="45.89889" lon="3.41185">
        <ele>361.2</ele>
        <time>2024-05-19T10:34:53Z</time>
      </trkpt>
      <trkpt lat="45.89896" lon="3.41182">
        <ele>361</ele>
        <time>2024-05-19T10:34:54Z</time>
      </trkpt>
      <trkpt lat="45.89902" lon="3.41179">
        <ele>361</ele>
        <time>2024-05-19T10:34:55Z</time>
      </trkpt>
      <trkpt lat="45.89909" lon="3.41176">
        <ele>360.8</ele>
        <time>2024-05-19T10:34:56Z</time>
      </trkpt>
      <trkpt lat="45.89916" lon="3.41173">
        <ele>360.6</ele>
        <time>2024-05-19T10:34:57Z</time>
      </trkpt>
      <trkpt lat="45.89923" lon="3.4117">
        <ele>360.6</ele>
        <time>2024-05-19T10:34:58Z</time>
      </trkpt>
      <trkpt lat="45.89929" lon="3.41169">
        <ele>360.4</ele>
        <time>2024-05-19T10:34:59Z</time>
      </trkpt>
      <trkpt lat="45.89934" lon="3.41171">
        <ele>360.4</ele>
        <time>2024-05-19T10:35:00Z</time>
      </trkpt>
      <trkpt lat="45.89943" lon="3.4117">
        <ele>360.2</ele>
        <time>2024-05-19T10:35:01Z</time>
      </trkpt>
      <trkpt lat="45.89943" lon="3.4117">
        <ele>360.2</ele>
        <time>2024-05-19T10:35:02Z</time>
      </trkpt>
      <trkpt lat="45.89944" lon="3.41168">
        <ele>360</ele>
        <time>2024-05-19T10:35:03Z</time>
      </trkpt>
      <trkpt lat="45.89945" lon="3.41166">
        <ele>360</ele>
        <time>2024-05-19T10:35:04Z</time>
      </trkpt>
      <trkpt lat="45.89945" lon="3.41164">
        <ele>359.8</ele>
        <time>2024-05-19T10:35:05Z</time>
      </trkpt>
      <trkpt lat="45.89947" lon="3.41161">
        <ele>359.8</ele>
        <time>2024-05-19T10:35:06Z</time>
      </trkpt>
      <trkpt lat="45.89948" lon="3.41158">
        <ele>359.8</ele>
        <time>2024-05-19T10:35:07Z</time>
      </trkpt>
      <trkpt lat="45.8995" lon="3.41154">
        <ele>359.6</ele>
        <time>2024-05-19T10:35:08Z</time>
      </trkpt>
      <trkpt lat="45.89953" lon="3.41149">
        <ele>359.6</ele>
        <time>2024-05-19T10:35:09Z</time>
      </trkpt>
      <trkpt lat="45.89956" lon="3.41143">
        <ele>359.4</ele>
        <time>2024-05-19T10:35:10Z</time>
      </trkpt>
      <trkpt lat="45.89959" lon="3.41137">
        <ele>359.4</ele>
        <time>2024-05-19T10:35:11Z</time>
      </trkpt>
      <trkpt lat="45.89962" lon="3.41131">
        <ele>359.2</ele>
        <time>2024-05-19T10:35:12Z</time>
      </trkpt>
      <trkpt lat="45.89965" lon="3.41124">
        <ele>359</ele>
        <time>2024-05-19T10:35:13Z</time>
      </trkpt>
      <trkpt lat="45.89969" lon="3.41116">
        <ele>359</ele>
        <time>2024-05-19T10:35:14Z</time>
      </trkpt>
      <trkpt lat="45.89973" lon="3.41109">
        <ele>358.8</ele>
        <time>2024-05-19T10:35:15Z</time>
      </trkpt>
      <trkpt lat="45.89977" lon="3.41101">
        <ele>358.8</ele>
        <time>2024-05-19T10:35:16Z</time>
      </trkpt>
      <trkpt lat="45.8998" lon="3.41094">
        <ele>358.6</ele>
        <time>2024-05-19T10:35:17Z</time>
      </trkpt>
      <trkpt lat="45.89984" lon="3.41087">
        <ele>358.6</ele>
        <time>2024-05-19T10:35:18Z</time>
      </trkpt>
      <trkpt lat="45.89988" lon="3.41079">
        <ele>358.6</ele>
        <time>2024-05-19T10:35:19Z</time>
      </trkpt>
      <trkpt lat="45.89993" lon="3.41073">
        <ele>358.4</ele>
        <time>2024-05-19T10:35:20Z</time>
      </trkpt>
      <trkpt lat="45.89997" lon="3.41067">
        <ele>358.4</ele>
        <time>2024-05-19T10:35:21Z</time>
      </trkpt>
      <trkpt lat="45.90002" lon="3.41061">
        <ele>358.4</ele>
        <time>2024-05-19T10:35:22Z</time>
      </trkpt>
      <trkpt lat="45.90006" lon="3.41055">
        <ele>358.4</ele>
        <time>2024-05-19T10:35:23Z</time>
      </trkpt>
      <trkpt lat="45.9001" lon="3.41049">
        <ele>358.4</ele>
        <time>2024-05-19T10:35:24Z</time>
      </trkpt>
      <trkpt lat="45.90015" lon="3.41043">
        <ele>358.2</ele>
        <time>2024-05-19T10:35:25Z</time>
      </trkpt>
      <trkpt lat="45.90019" lon="3.41037">
        <ele>358.2</ele>
        <time>2024-05-19T10:35:26Z</time>
      </trkpt>
      <trkpt lat="45.90023" lon="3.41031">
        <ele>358.2</ele>
        <time>2024-05-19T10:35:27Z</time>
      </trkpt>
      <trkpt lat="45.90027" lon="3.41025">
        <ele>358</ele>
        <time>2024-05-19T10:35:28Z</time>
      </trkpt>
      <trkpt lat="45.90032" lon="3.4102">
        <ele>358.2</ele>
        <time>2024-05-19T10:35:29Z</time>
      </trkpt>
      <trkpt lat="45.90036" lon="3.41014">
        <ele>358.2</ele>
        <time>2024-05-19T10:35:30Z</time>
      </trkpt>
      <trkpt lat="45.9004" lon="3.41008">
        <ele>358.2</ele>
        <time>2024-05-19T10:35:31Z</time>
      </trkpt>
      <trkpt lat="45.90044" lon="3.41003">
        <ele>358.2</ele>
        <time>2024-05-19T10:35:32Z</time>
      </trkpt>
      <trkpt lat="45.90048" lon="3.40997">
        <ele>358.2</ele>
        <time>2024-05-19T10:35:33Z</time>
      </trkpt>
      <trkpt lat="45.90052" lon="3.40992">
        <ele>358.2</ele>
        <time>2024-05-19T10:35:34Z</time>
      </trkpt>
      <trkpt lat="45.90055" lon="3.40986">
        <ele>358</ele>
        <time>2024-05-19T10:35:35Z</time>
      </trkpt>
      <trkpt lat="45.90059" lon="3.40979">
        <ele>358</ele>
        <time>2024-05-19T10:35:36Z</time>
      </trkpt>
      <trkpt lat="45.90062" lon="3.40973">
        <ele>358</ele>
        <time>2024-05-19T10:35:37Z</time>
      </trkpt>
      <trkpt lat="45.90065" lon="3.40967">
        <ele>358</ele>
        <time>2024-05-19T10:35:38Z</time>
      </trkpt>
      <trkpt lat="45.90069" lon="3.4096">
        <ele>358</ele>
        <time>2024-05-19T10:35:39Z</time>
      </trkpt>
      <trkpt lat="45.90072" lon="3.40954">
        <ele>358</ele>
        <time>2024-05-19T10:35:40Z</time>
      </trkpt>
      <trkpt lat="45.90076" lon="3.40948">
        <ele>357.8</ele>
        <time>2024-05-19T10:35:41Z</time>
      </trkpt>
      <trkpt lat="45.90079" lon="3.40941">
        <ele>357.8</ele>
        <time>2024-05-19T10:35:42Z</time>
      </trkpt>
      <trkpt lat="45.90082" lon="3.40935">
        <ele>358</ele>
        <time>2024-05-19T10:35:43Z</time>
      </trkpt>
      <trkpt lat="45.90086" lon="3.40928">
        <ele>358</ele>
        <time>2024-05-19T10:35:44Z</time>
      </trkpt>
      <trkpt lat="45.90088" lon="3.40922">
        <ele>358</ele>
        <time>2024-05-19T10:35:45Z</time>
      </trkpt>
      <trkpt lat="45.90091" lon="3.40915">
        <ele>358</ele>
        <time>2024-05-19T10:35:46Z</time>
      </trkpt>
      <trkpt lat="45.90094" lon="3.40909">
        <ele>358</ele>
        <time>2024-05-19T10:35:47Z</time>
      </trkpt>
      <trkpt lat="45.90097" lon="3.40902">
        <ele>358</ele>
        <time>2024-05-19T10:35:48Z</time>
      </trkpt>
      <trkpt lat="45.901" lon="3.40896">
        <ele>357.6</ele>
        <time>2024-05-19T10:35:49Z</time>
      </trkpt>
      <trkpt lat="45.90102" lon="3.4089">
        <ele>357.8</ele>
        <time>2024-05-19T10:35:50Z</time>
      </trkpt>
      <trkpt lat="45.90105" lon="3.40883">
        <ele>358</ele>
        <time>2024-05-19T10:35:51Z</time>
      </trkpt>
      <trkpt lat="45.90108" lon="3.40877">
        <ele>358</ele>
        <time>2024-05-19T10:35:52Z</time>
      </trkpt>
      <trkpt lat="45.9011" lon="3.40871">
        <ele>358</ele>
        <time>2024-05-19T10:35:53Z</time>
      </trkpt>
      <trkpt lat="45.90113" lon="3.40864">
        <ele>358.2</ele>
        <time>2024-05-19T10:35:54Z</time>
      </trkpt>
      <trkpt lat="45.90116" lon="3.40858">
        <ele>358.2</ele>
        <time>2024-05-19T10:35:55Z</time>
      </trkpt>
      <trkpt lat="45.90119" lon="3.40851">
        <ele>358.2</ele>
        <time>2024-05-19T10:35:56Z</time>
      </trkpt>
      <trkpt lat="45.90122" lon="3.40844">
        <ele>358.2</ele>
        <time>2024-05-19T10:35:57Z</time>
      </trkpt>
      <trkpt lat="45.90125" lon="3.40837">
        <ele>358.2</ele>
        <time>2024-05-19T10:35:58Z</time>
      </trkpt>
      <trkpt lat="45.90128" lon="3.4083">
        <ele>358.2</ele>
        <time>2024-05-19T10:35:59Z</time>
      </trkpt>
      <trkpt lat="45.90131" lon="3.40823">
        <ele>358.2</ele>
        <time>2024-05-19T10:36:00Z</time>
      </trkpt>
      <trkpt lat="45.90134" lon="3.40816">
        <ele>358.2</ele>
        <time>2024-05-19T10:36:01Z</time>
      </trkpt>
      <trkpt lat="45.90137" lon="3.40809">
        <ele>358.2</ele>
        <time>2024-05-19T10:36:02Z</time>
      </trkpt>
      <trkpt lat="45.9014" lon="3.40802">
        <ele>358.2</ele>
        <time>2024-05-19T10:36:03Z</time>
      </trkpt>
      <trkpt lat="45.90143" lon="3.40795">
        <ele>358.2</ele>
        <time>2024-05-19T10:36:04Z</time>
      </trkpt>
      <trkpt lat="45.90146" lon="3.40788">
        <ele>358.2</ele>
        <time>2024-05-19T10:36:05Z</time>
      </trkpt>
      <trkpt lat="45.90149" lon="3.4078">
        <ele>358.2</ele>
        <time>2024-05-19T10:36:06Z</time>
      </trkpt>
      <trkpt lat="45.90152" lon="3.40773">
        <ele>358.2</ele>
        <time>2024-05-19T10:36:07Z</time>
      </trkpt>
      <trkpt lat="45.90156" lon="3.40766">
        <ele>358.2</ele>
        <time>2024-05-19T10:36:08Z</time>
      </trkpt>
      <trkpt lat="45.90159" lon="3.40759">
        <ele>358.2</ele>
        <time>2024-05-19T10:36:09Z</time>
      </trkpt>
      <trkpt lat="45.90162" lon="3.40752">
        <ele>358.2</ele>
        <time>2024-05-19T10:36:10Z</time>
      </trkpt>
      <trkpt lat="45.90165" lon="3.40745">
        <ele>358.2</ele>
        <time>2024-05-19T10:36:11Z</time>
      </trkpt>
      <trkpt lat="45.90168" lon="3.40737">
        <ele>358.2</ele>
        <time>2024-05-19T10:36:12Z</time>
      </trkpt>
      <trkpt lat="45.90171" lon="3.4073">
        <ele>358.2</ele>
        <time>2024-05-19T10:36:13Z</time>
      </trkpt>
      <trkpt lat="45.90174" lon="3.40723">
        <ele>358.2</ele>
        <time>2024-05-19T10:36:14Z</time>
      </trkpt>
      <trkpt lat="45.90177" lon="3.40716">
        <ele>358.2</ele>
        <time>2024-05-19T10:36:15Z</time>
      </trkpt>
      <trkpt lat="45.90181" lon="3.40708">
        <ele>358.4</ele>
        <time>2024-05-19T10:36:16Z</time>
      </trkpt>
      <trkpt lat="45.90186" lon="3.40702">
        <ele>358.4</ele>
        <time>2024-05-19T10:36:17Z</time>
      </trkpt>
      <trkpt lat="45.9019" lon="3.40696">
        <ele>358.4</ele>
        <time>2024-05-19T10:36:18Z</time>
      </trkpt>
      <trkpt lat="45.90195" lon="3.4069">
        <ele>358.4</ele>
        <time>2024-05-19T10:36:19Z</time>
      </trkpt>
      <trkpt lat="45.90199" lon="3.40683">
        <ele>358.4</ele>
        <time>2024-05-19T10:36:20Z</time>
      </trkpt>
      <trkpt lat="45.90204" lon="3.40677">
        <ele>358.4</ele>
        <time>2024-05-19T10:36:21Z</time>
      </trkpt>
      <trkpt lat="45.90208" lon="3.40671">
        <ele>358.4</ele>
        <time>2024-05-19T10:36:22Z</time>
      </trkpt>
      <trkpt lat="45.90213" lon="3.40665">
        <ele>358.4</ele>
        <time>2024-05-19T10:36:23Z</time>
      </trkpt>
      <trkpt lat="45.90217" lon="3.40658">
        <ele>358.4</ele>
        <time>2024-05-19T10:36:24Z</time>
      </trkpt>
      <trkpt lat="45.90222" lon="3.40652">
        <ele>358.4</ele>
        <time>2024-05-19T10:36:25Z</time>
      </trkpt>
      <trkpt lat="45.90227" lon="3.40646">
        <ele>358.4</ele>
        <time>2024-05-19T10:36:26Z</time>
      </trkpt>
      <trkpt lat="45.90231" lon="3.4064">
        <ele>358.4</ele>
        <time>2024-05-19T10:36:27Z</time>
      </trkpt>
      <trkpt lat="45.90236" lon="3.40634">
        <ele>358.6</ele>
        <time>2024-05-19T10:36:28Z</time>
      </trkpt>
      <trkpt lat="45.9024" lon="3.40627">
        <ele>358.6</ele>
        <time>2024-05-19T10:36:29Z</time>
      </trkpt>
      <trkpt lat="45.90245" lon="3.40621">
        <ele>358.6</ele>
        <time>2024-05-19T10:36:30Z</time>
      </trkpt>
      <trkpt lat="45.90249" lon="3.40615">
        <ele>358.6</ele>
        <time>2024-05-19T10:36:31Z</time>
      </trkpt>
      <trkpt lat="45.90254" lon="3.40608">
        <ele>358.6</ele>
        <time>2024-05-19T10:36:32Z</time>
      </trkpt>
      <trkpt lat="45.90259" lon="3.40602">
        <ele>358.8</ele>
        <time>2024-05-19T10:36:33Z</time>
      </trkpt>
      <trkpt lat="45.90264" lon="3.40595">
        <ele>358.8</ele>
        <time>2024-05-19T10:36:34Z</time>
      </trkpt>
      <trkpt lat="45.90268" lon="3.40589">
        <ele>358.8</ele>
        <time>2024-05-19T10:36:35Z</time>
      </trkpt>
      <trkpt lat="45.90273" lon="3.40582">
        <ele>358.6</ele>
        <time>2024-05-19T10:36:36Z</time>
      </trkpt>
      <trkpt lat="45.90278" lon="3.40575">
        <ele>358.6</ele>
        <time>2024-05-19T10:36:37Z</time>
      </trkpt>
      <trkpt lat="45.90283" lon="3.40568">
        <ele>358.6</ele>
        <time>2024-05-19T10:36:38Z</time>
      </trkpt>
      <trkpt lat="45.90288" lon="3.40561">
        <ele>358.6</ele>
        <time>2024-05-19T10:36:39Z</time>
      </trkpt>
      <trkpt lat="45.90292" lon="3.40554">
        <ele>358.6</ele>
        <time>2024-05-19T10:36:40Z</time>
      </trkpt>
      <trkpt lat="45.90297" lon="3.40546">
        <ele>358.6</ele>
        <time>2024-05-19T10:36:41Z</time>
      </trkpt>
      <trkpt lat="45.90302" lon="3.40539">
        <ele>358.8</ele>
        <time>2024-05-19T10:36:42Z</time>
      </trkpt>
      <trkpt lat="45.90307" lon="3.40532">
        <ele>358.8</ele>
        <time>2024-05-19T10:36:43Z</time>
      </trkpt>
      <trkpt lat="45.90312" lon="3.40525">
        <ele>358.8</ele>
        <time>2024-05-19T10:36:44Z</time>
      </trkpt>
      <trkpt lat="45.90316" lon="3.40517">
        <ele>358.8</ele>
        <time>2024-05-19T10:36:45Z</time>
      </trkpt>
      <trkpt lat="45.90321" lon="3.4051">
        <ele>358.6</ele>
        <time>2024-05-19T10:36:46Z</time>
      </trkpt>
      <trkpt lat="45.90326" lon="3.40503">
        <ele>358.6</ele>
        <time>2024-05-19T10:36:47Z</time>
      </trkpt>
      <trkpt lat="45.90331" lon="3.40495">
        <ele>358.6</ele>
        <time>2024-05-19T10:36:48Z</time>
      </trkpt>
      <trkpt lat="45.90336" lon="3.40488">
        <ele>358.6</ele>
        <time>2024-05-19T10:36:49Z</time>
      </trkpt>
      <trkpt lat="45.90341" lon="3.40481">
        <ele>358.8</ele>
        <time>2024-05-19T10:36:50Z</time>
      </trkpt>
      <trkpt lat="45.90346" lon="3.40473">
        <ele>358.6</ele>
        <time>2024-05-19T10:36:51Z</time>
      </trkpt>
      <trkpt lat="45.90351" lon="3.40466">
        <ele>358.6</ele>
        <time>2024-05-19T10:36:52Z</time>
      </trkpt>
      <trkpt lat="45.90355" lon="3.40459">
        <ele>358.6</ele>
        <time>2024-05-19T10:36:53Z</time>
      </trkpt>
      <trkpt lat="45.9036" lon="3.40451">
        <ele>358.6</ele>
        <time>2024-05-19T10:36:54Z</time>
      </trkpt>
      <trkpt lat="45.90365" lon="3.40444">
        <ele>358.4</ele>
        <time>2024-05-19T10:36:55Z</time>
      </trkpt>
      <trkpt lat="45.9037" lon="3.40436">
        <ele>358.4</ele>
        <time>2024-05-19T10:36:56Z</time>
      </trkpt>
      <trkpt lat="45.90375" lon="3.40429">
        <ele>358.4</ele>
        <time>2024-05-19T10:36:57Z</time>
      </trkpt>
      <trkpt lat="45.9038" lon="3.40422">
        <ele>358.6</ele>
        <time>2024-05-19T10:36:58Z</time>
      </trkpt>
      <trkpt lat="45.90385" lon="3.40415">
        <ele>358.6</ele>
        <time>2024-05-19T10:36:59Z</time>
      </trkpt>
      <trkpt lat="45.90389" lon="3.40407">
        <ele>358.4</ele>
        <time>2024-05-19T10:37:00Z</time>
      </trkpt>
      <trkpt lat="45.90394" lon="3.404">
        <ele>358.6</ele>
        <time>2024-05-19T10:37:01Z</time>
      </trkpt>
      <trkpt lat="45.90399" lon="3.40393">
        <ele>358.4</ele>
        <time>2024-05-19T10:37:02Z</time>
      </trkpt>
      <trkpt lat="45.90404" lon="3.40386">
        <ele>358.4</ele>
        <time>2024-05-19T10:37:03Z</time>
      </trkpt>
      <trkpt lat="45.90408" lon="3.40379">
        <ele>358.4</ele>
        <time>2024-05-19T10:37:04Z</time>
      </trkpt>
      <trkpt lat="45.90413" lon="3.40371">
        <ele>358.4</ele>
        <time>2024-05-19T10:37:05Z</time>
      </trkpt>
      <trkpt lat="45.90417" lon="3.4036">
        <ele>358.4</ele>
        <time>2024-05-19T10:37:06Z</time>
      </trkpt>
      <trkpt lat="45.9042" lon="3.4035">
        <ele>358.4</ele>
        <time>2024-05-19T10:37:07Z</time>
      </trkpt>
      <trkpt lat="45.90423" lon="3.40341">
        <ele>358.4</ele>
        <time>2024-05-19T10:37:08Z</time>
      </trkpt>
      <trkpt lat="45.90426" lon="3.40332">
        <ele>358.4</ele>
        <time>2024-05-19T10:37:09Z</time>
      </trkpt>
      <trkpt lat="45.90429" lon="3.40323">
        <ele>358.4</ele>
        <time>2024-05-19T10:37:10Z</time>
      </trkpt>
      <trkpt lat="45.90432" lon="3.40314">
        <ele>358.4</ele>
        <time>2024-05-19T10:37:11Z</time>
      </trkpt>
      <trkpt lat="45.90434" lon="3.40305">
        <ele>358.4</ele>
        <time>2024-05-19T10:37:12Z</time>
      </trkpt>
      <trkpt lat="45.90437" lon="3.40295">
        <ele>358.4</ele>
        <time>2024-05-19T10:37:13Z</time>
      </trkpt>
      <trkpt lat="45.90439" lon="3.40286">
        <ele>358.4</ele>
        <time>2024-05-19T10:37:14Z</time>
      </trkpt>
      <trkpt lat="45.90442" lon="3.40277">
        <ele>358.4</ele>
        <time>2024-05-19T10:37:15Z</time>
      </trkpt>
      <trkpt lat="45.90445" lon="3.40267">
        <ele>358.4</ele>
        <time>2024-05-19T10:37:16Z</time>
      </trkpt>
      <trkpt lat="45.90447" lon="3.40258">
        <ele>358.4</ele>
        <time>2024-05-19T10:37:17Z</time>
      </trkpt>
      <trkpt lat="45.9045" lon="3.40248">
        <ele>358.4</ele>
        <time>2024-05-19T10:37:18Z</time>
      </trkpt>
      <trkpt lat="45.90452" lon="3.40239">
        <ele>358.4</ele>
        <time>2024-05-19T10:37:19Z</time>
      </trkpt>
      <trkpt lat="45.90455" lon="3.40229">
        <ele>358.2</ele>
        <time>2024-05-19T10:37:20Z</time>
      </trkpt>
      <trkpt lat="45.90458" lon="3.4022">
        <ele>358.2</ele>
        <time>2024-05-19T10:37:21Z</time>
      </trkpt>
      <trkpt lat="45.9046" lon="3.40211">
        <ele>358.2</ele>
        <time>2024-05-19T10:37:22Z</time>
      </trkpt>
      <trkpt lat="45.90463" lon="3.40201">
        <ele>358.2</ele>
        <time>2024-05-19T10:37:23Z</time>
      </trkpt>
      <trkpt lat="45.90465" lon="3.40192">
        <ele>358.4</ele>
        <time>2024-05-19T10:37:24Z</time>
      </trkpt>
      <trkpt lat="45.90468" lon="3.40183">
        <ele>358.2</ele>
        <time>2024-05-19T10:37:25Z</time>
      </trkpt>
      <trkpt lat="45.9047" lon="3.40173">
        <ele>358.2</ele>
        <time>2024-05-19T10:37:26Z</time>
      </trkpt>
      <trkpt lat="45.90473" lon="3.40164">
        <ele>358.2</ele>
        <time>2024-05-19T10:37:27Z</time>
      </trkpt>
      <trkpt lat="45.90476" lon="3.40154">
        <ele>358.2</ele>
        <time>2024-05-19T10:37:28Z</time>
      </trkpt>
      <trkpt lat="45.90478" lon="3.40144">
        <ele>358.2</ele>
        <time>2024-05-19T10:37:29Z</time>
      </trkpt>
      <trkpt lat="45.90481" lon="3.40134">
        <ele>358</ele>
        <time>2024-05-19T10:37:30Z</time>
      </trkpt>
      <trkpt lat="45.90484" lon="3.40124">
        <ele>358</ele>
        <time>2024-05-19T10:37:31Z</time>
      </trkpt>
      <trkpt lat="45.90487" lon="3.40114">
        <ele>358</ele>
        <time>2024-05-19T10:37:32Z</time>
      </trkpt>
      <trkpt lat="45.9049" lon="3.40104">
        <ele>357.8</ele>
        <time>2024-05-19T10:37:33Z</time>
      </trkpt>
      <trkpt lat="45.90492" lon="3.40093">
        <ele>357.8</ele>
        <time>2024-05-19T10:37:34Z</time>
      </trkpt>
      <trkpt lat="45.90495" lon="3.40083">
        <ele>357.8</ele>
        <time>2024-05-19T10:37:35Z</time>
      </trkpt>
      <trkpt lat="45.90498" lon="3.40073">
        <ele>357.8</ele>
        <time>2024-05-19T10:37:36Z</time>
      </trkpt>
      <trkpt lat="45.90501" lon="3.40062">
        <ele>357.6</ele>
        <time>2024-05-19T10:37:37Z</time>
      </trkpt>
      <trkpt lat="45.90504" lon="3.40052">
        <ele>357.6</ele>
        <time>2024-05-19T10:37:38Z</time>
      </trkpt>
      <trkpt lat="45.90507" lon="3.40041">
        <ele>357.6</ele>
        <time>2024-05-19T10:37:39Z</time>
      </trkpt>
      <trkpt lat="45.90509" lon="3.40031">
        <ele>357.4</ele>
        <time>2024-05-19T10:37:40Z</time>
      </trkpt>
      <trkpt lat="45.90511" lon="3.4002">
        <ele>357.4</ele>
        <time>2024-05-19T10:37:41Z</time>
      </trkpt>
      <trkpt lat="45.90512" lon="3.40009">
        <ele>357.4</ele>
        <time>2024-05-19T10:37:42Z</time>
      </trkpt>
      <trkpt lat="45.90514" lon="3.39998">
        <ele>357.2</ele>
        <time>2024-05-19T10:37:43Z</time>
      </trkpt>
      <trkpt lat="45.90515" lon="3.39988">
        <ele>357.2</ele>
        <time>2024-05-19T10:37:44Z</time>
      </trkpt>
      <trkpt lat="45.90516" lon="3.39977">
        <ele>357.2</ele>
        <time>2024-05-19T10:37:45Z</time>
      </trkpt>
      <trkpt lat="45.90517" lon="3.39967">
        <ele>357.2</ele>
        <time>2024-05-19T10:37:46Z</time>
      </trkpt>
      <trkpt lat="45.90516" lon="3.39956">
        <ele>357</ele>
        <time>2024-05-19T10:37:47Z</time>
      </trkpt>
      <trkpt lat="45.90516" lon="3.39945">
        <ele>357</ele>
        <time>2024-05-19T10:37:48Z</time>
      </trkpt>
      <trkpt lat="45.90515" lon="3.39935">
        <ele>357</ele>
        <time>2024-05-19T10:37:49Z</time>
      </trkpt>
      <trkpt lat="45.90514" lon="3.39925">
        <ele>357</ele>
        <time>2024-05-19T10:37:50Z</time>
      </trkpt>
      <trkpt lat="45.90514" lon="3.39914">
        <ele>356.8</ele>
        <time>2024-05-19T10:37:51Z</time>
      </trkpt>
      <trkpt lat="45.90513" lon="3.39904">
        <ele>356.8</ele>
        <time>2024-05-19T10:37:52Z</time>
      </trkpt>
      <trkpt lat="45.90512" lon="3.39893">
        <ele>356.8</ele>
        <time>2024-05-19T10:37:53Z</time>
      </trkpt>
      <trkpt lat="45.90511" lon="3.39883">
        <ele>356.6</ele>
        <time>2024-05-19T10:37:54Z</time>
      </trkpt>
      <trkpt lat="45.90511" lon="3.39873">
        <ele>356.6</ele>
        <time>2024-05-19T10:37:55Z</time>
      </trkpt>
      <trkpt lat="45.9051" lon="3.39862">
        <ele>356.6</ele>
        <time>2024-05-19T10:37:56Z</time>
      </trkpt>
      <trkpt lat="45.90509" lon="3.39851">
        <ele>356.6</ele>
        <time>2024-05-19T10:37:57Z</time>
      </trkpt>
      <trkpt lat="45.90508" lon="3.3984">
        <ele>356.4</ele>
        <time>2024-05-19T10:37:58Z</time>
      </trkpt>
      <trkpt lat="45.90507" lon="3.39829">
        <ele>356.4</ele>
        <time>2024-05-19T10:37:59Z</time>
      </trkpt>
      <trkpt lat="45.90506" lon="3.39818">
        <ele>356.4</ele>
        <time>2024-05-19T10:38:00Z</time>
      </trkpt>
      <trkpt lat="45.90505" lon="3.39806">
        <ele>356.2</ele>
        <time>2024-05-19T10:38:01Z</time>
      </trkpt>
      <trkpt lat="45.90504" lon="3.39795">
        <ele>356.2</ele>
        <time>2024-05-19T10:38:02Z</time>
      </trkpt>
      <trkpt lat="45.90503" lon="3.39784">
        <ele>356</ele>
        <time>2024-05-19T10:38:03Z</time>
      </trkpt>
      <trkpt lat="45.90502" lon="3.39773">
        <ele>356</ele>
        <time>2024-05-19T10:38:04Z</time>
      </trkpt>
      <trkpt lat="45.90502" lon="3.39762">
        <ele>356</ele>
        <time>2024-05-19T10:38:05Z</time>
      </trkpt>
      <trkpt lat="45.90501" lon="3.39751">
        <ele>356</ele>
        <time>2024-05-19T10:38:06Z</time>
      </trkpt>
      <trkpt lat="45.905" lon="3.3974">
        <ele>356</ele>
        <time>2024-05-19T10:38:07Z</time>
      </trkpt>
      <trkpt lat="45.90499" lon="3.39731">
        <ele>355.8</ele>
        <time>2024-05-19T10:38:08Z</time>
      </trkpt>
      <trkpt lat="45.90498" lon="3.39721">
        <ele>355.8</ele>
        <time>2024-05-19T10:38:09Z</time>
      </trkpt>
      <trkpt lat="45.90497" lon="3.39711">
        <ele>355.8</ele>
        <time>2024-05-19T10:38:10Z</time>
      </trkpt>
      <trkpt lat="45.90497" lon="3.39702">
        <ele>355.8</ele>
        <time>2024-05-19T10:38:11Z</time>
      </trkpt>
      <trkpt lat="45.90496" lon="3.39691">
        <ele>355.8</ele>
        <time>2024-05-19T10:38:12Z</time>
      </trkpt>
      <trkpt lat="45.90496" lon="3.39682">
        <ele>356</ele>
        <time>2024-05-19T10:38:13Z</time>
      </trkpt>
      <trkpt lat="45.90497" lon="3.39672">
        <ele>356</ele>
        <time>2024-05-19T10:38:14Z</time>
      </trkpt>
      <trkpt lat="45.90498" lon="3.39663">
        <ele>356</ele>
        <time>2024-05-19T10:38:15Z</time>
      </trkpt>
      <trkpt lat="45.90499" lon="3.39654">
        <ele>356</ele>
        <time>2024-05-19T10:38:16Z</time>
      </trkpt>
      <trkpt lat="45.905" lon="3.39645">
        <ele>355.8</ele>
        <time>2024-05-19T10:38:17Z</time>
      </trkpt>
      <trkpt lat="45.90501" lon="3.39636">
        <ele>356</ele>
        <time>2024-05-19T10:38:18Z</time>
      </trkpt>
      <trkpt lat="45.90503" lon="3.39628">
        <ele>356</ele>
        <time>2024-05-19T10:38:19Z</time>
      </trkpt>
      <trkpt lat="45.90505" lon="3.39619">
        <ele>355.8</ele>
        <time>2024-05-19T10:38:20Z</time>
      </trkpt>
      <trkpt lat="45.90507" lon="3.3961">
        <ele>355.8</ele>
        <time>2024-05-19T10:38:21Z</time>
      </trkpt>
      <trkpt lat="45.90509" lon="3.39601">
        <ele>355.8</ele>
        <time>2024-05-19T10:38:22Z</time>
      </trkpt>
      <trkpt lat="45.90511" lon="3.39593">
        <ele>355.8</ele>
        <time>2024-05-19T10:38:23Z</time>
      </trkpt>
      <trkpt lat="45.90513" lon="3.39584">
        <ele>355.8</ele>
        <time>2024-05-19T10:38:24Z</time>
      </trkpt>
      <trkpt lat="45.90515" lon="3.39575">
        <ele>355.6</ele>
        <time>2024-05-19T10:38:25Z</time>
      </trkpt>
      <trkpt lat="45.90517" lon="3.39565">
        <ele>355.6</ele>
        <time>2024-05-19T10:38:26Z</time>
      </trkpt>
      <trkpt lat="45.90518" lon="3.39556">
        <ele>355.6</ele>
        <time>2024-05-19T10:38:27Z</time>
      </trkpt>
      <trkpt lat="45.9052" lon="3.39548">
        <ele>355.6</ele>
        <time>2024-05-19T10:38:28Z</time>
      </trkpt>
      <trkpt lat="45.90522" lon="3.39538">
        <ele>355.6</ele>
        <time>2024-05-19T10:38:29Z</time>
      </trkpt>
      <trkpt lat="45.90524" lon="3.39529">
        <ele>355.4</ele>
        <time>2024-05-19T10:38:30Z</time>
      </trkpt>
      <trkpt lat="45.90526" lon="3.3952">
        <ele>355.4</ele>
        <time>2024-05-19T10:38:31Z</time>
      </trkpt>
      <trkpt lat="45.90528" lon="3.39511">
        <ele>355.4</ele>
        <time>2024-05-19T10:38:32Z</time>
      </trkpt>
      <trkpt lat="45.9053" lon="3.39502">
        <ele>355.4</ele>
        <time>2024-05-19T10:38:33Z</time>
      </trkpt>
      <trkpt lat="45.90532" lon="3.39493">
        <ele>355.2</ele>
        <time>2024-05-19T10:38:34Z</time>
      </trkpt>
      <trkpt lat="45.90534" lon="3.39485">
        <ele>355.2</ele>
        <time>2024-05-19T10:38:35Z</time>
      </trkpt>
      <trkpt lat="45.90536" lon="3.39476">
        <ele>355.2</ele>
        <time>2024-05-19T10:38:36Z</time>
      </trkpt>
      <trkpt lat="45.90538" lon="3.39468">
        <ele>355.2</ele>
        <time>2024-05-19T10:38:37Z</time>
      </trkpt>
      <trkpt lat="45.90539" lon="3.3946">
        <ele>355.2</ele>
        <time>2024-05-19T10:38:38Z</time>
      </trkpt>
      <trkpt lat="45.90541" lon="3.39452">
        <ele>355.2</ele>
        <time>2024-05-19T10:38:39Z</time>
      </trkpt>
      <trkpt lat="45.90543" lon="3.39444">
        <ele>355.2</ele>
        <time>2024-05-19T10:38:40Z</time>
      </trkpt>
      <trkpt lat="45.90544" lon="3.39436">
        <ele>355.2</ele>
        <time>2024-05-19T10:38:41Z</time>
      </trkpt>
      <trkpt lat="45.90546" lon="3.39428">
        <ele>355.2</ele>
        <time>2024-05-19T10:38:42Z</time>
      </trkpt>
      <trkpt lat="45.90548" lon="3.3942">
        <ele>355.2</ele>
        <time>2024-05-19T10:38:43Z</time>
      </trkpt>
      <trkpt lat="45.9055" lon="3.39412">
        <ele>355.2</ele>
        <time>2024-05-19T10:38:44Z</time>
      </trkpt>
      <trkpt lat="45.90551" lon="3.39404">
        <ele>355.2</ele>
        <time>2024-05-19T10:38:45Z</time>
      </trkpt>
      <trkpt lat="45.90553" lon="3.39395">
        <ele>355.2</ele>
        <time>2024-05-19T10:38:46Z</time>
      </trkpt>
      <trkpt lat="45.90555" lon="3.39387">
        <ele>355.2</ele>
        <time>2024-05-19T10:38:47Z</time>
      </trkpt>
      <trkpt lat="45.90557" lon="3.39379">
        <ele>355.2</ele>
        <time>2024-05-19T10:38:48Z</time>
      </trkpt>
      <trkpt lat="45.90558" lon="3.39371">
        <ele>355.2</ele>
        <time>2024-05-19T10:38:49Z</time>
      </trkpt>
      <trkpt lat="45.9056" lon="3.39362">
        <ele>355.2</ele>
        <time>2024-05-19T10:38:50Z</time>
      </trkpt>
      <trkpt lat="45.90561" lon="3.39354">
        <ele>355</ele>
        <time>2024-05-19T10:38:51Z</time>
      </trkpt>
      <trkpt lat="45.90563" lon="3.39345">
        <ele>355</ele>
        <time>2024-05-19T10:38:52Z</time>
      </trkpt>
      <trkpt lat="45.90564" lon="3.39336">
        <ele>355</ele>
        <time>2024-05-19T10:38:53Z</time>
      </trkpt>
      <trkpt lat="45.90566" lon="3.39327">
        <ele>355</ele>
        <time>2024-05-19T10:38:54Z</time>
      </trkpt>
      <trkpt lat="45.90567" lon="3.39318">
        <ele>355</ele>
        <time>2024-05-19T10:38:55Z</time>
      </trkpt>
      <trkpt lat="45.90568" lon="3.39308">
        <ele>354.8</ele>
        <time>2024-05-19T10:38:56Z</time>
      </trkpt>
      <trkpt lat="45.9057" lon="3.39299">
        <ele>354.8</ele>
        <time>2024-05-19T10:38:57Z</time>
      </trkpt>
      <trkpt lat="45.90571" lon="3.3929">
        <ele>354.8</ele>
        <time>2024-05-19T10:38:58Z</time>
      </trkpt>
      <trkpt lat="45.90573" lon="3.3928">
        <ele>354.8</ele>
        <time>2024-05-19T10:38:59Z</time>
      </trkpt>
      <trkpt lat="45.90574" lon="3.3927">
        <ele>354.6</ele>
        <time>2024-05-19T10:39:00Z</time>
      </trkpt>
      <trkpt lat="45.90576" lon="3.3926">
        <ele>354.6</ele>
        <time>2024-05-19T10:39:01Z</time>
      </trkpt>
      <trkpt lat="45.90577" lon="3.3925">
        <ele>354.4</ele>
        <time>2024-05-19T10:39:02Z</time>
      </trkpt>
      <trkpt lat="45.90579" lon="3.3924">
        <ele>354.4</ele>
        <time>2024-05-19T10:39:03Z</time>
      </trkpt>
      <trkpt lat="45.9058" lon="3.3923">
        <ele>354.2</ele>
        <time>2024-05-19T10:39:04Z</time>
      </trkpt>
      <trkpt lat="45.90582" lon="3.39221">
        <ele>354.2</ele>
        <time>2024-05-19T10:39:05Z</time>
      </trkpt>
      <trkpt lat="45.90583" lon="3.3921">
        <ele>354</ele>
        <time>2024-05-19T10:39:06Z</time>
      </trkpt>
      <trkpt lat="45.90585" lon="3.392">
        <ele>354</ele>
        <time>2024-05-19T10:39:07Z</time>
      </trkpt>
      <trkpt lat="45.90587" lon="3.3919">
        <ele>354</ele>
        <time>2024-05-19T10:39:08Z</time>
      </trkpt>
      <trkpt lat="45.90588" lon="3.39179">
        <ele>353.8</ele>
        <time>2024-05-19T10:39:09Z</time>
      </trkpt>
      <trkpt lat="45.90589" lon="3.39169">
        <ele>353.8</ele>
        <time>2024-05-19T10:39:10Z</time>
      </trkpt>
      <trkpt lat="45.90589" lon="3.39158">
        <ele>353.8</ele>
        <time>2024-05-19T10:39:11Z</time>
      </trkpt>
      <trkpt lat="45.9059" lon="3.39148">
        <ele>353.6</ele>
        <time>2024-05-19T10:39:12Z</time>
      </trkpt>
      <trkpt lat="45.9059" lon="3.39138">
        <ele>353.6</ele>
        <time>2024-05-19T10:39:13Z</time>
      </trkpt>
      <trkpt lat="45.90591" lon="3.39128">
        <ele>353.4</ele>
        <time>2024-05-19T10:39:14Z</time>
      </trkpt>
      <trkpt lat="45.90592" lon="3.39118">
        <ele>353.4</ele>
        <time>2024-05-19T10:39:15Z</time>
      </trkpt>
      <trkpt lat="45.90592" lon="3.39107">
        <ele>353.4</ele>
        <time>2024-05-19T10:39:16Z</time>
      </trkpt>
      <trkpt lat="45.90592" lon="3.39097">
        <ele>353.4</ele>
        <time>2024-05-19T10:39:17Z</time>
      </trkpt>
      <trkpt lat="45.90592" lon="3.39087">
        <ele>353.2</ele>
        <time>2024-05-19T10:39:18Z</time>
      </trkpt>
      <trkpt lat="45.90592" lon="3.39077">
        <ele>353.2</ele>
        <time>2024-05-19T10:39:19Z</time>
      </trkpt>
      <trkpt lat="45.90591" lon="3.39067">
        <ele>353</ele>
        <time>2024-05-19T10:39:20Z</time>
      </trkpt>
      <trkpt lat="45.90591" lon="3.39059">
        <ele>353</ele>
        <time>2024-05-19T10:39:21Z</time>
      </trkpt>
      <trkpt lat="45.90591" lon="3.3905">
        <ele>353</ele>
        <time>2024-05-19T10:39:22Z</time>
      </trkpt>
      <trkpt lat="45.90591" lon="3.3904">
        <ele>353</ele>
        <time>2024-05-19T10:39:23Z</time>
      </trkpt>
      <trkpt lat="45.90591" lon="3.3903">
        <ele>353</ele>
        <time>2024-05-19T10:39:24Z</time>
      </trkpt>
      <trkpt lat="45.9059" lon="3.3902">
        <ele>353</ele>
        <time>2024-05-19T10:39:25Z</time>
      </trkpt>
      <trkpt lat="45.9059" lon="3.39009">
        <ele>352.8</ele>
        <time>2024-05-19T10:39:26Z</time>
      </trkpt>
      <trkpt lat="45.90589" lon="3.38999">
        <ele>352.8</ele>
        <time>2024-05-19T10:39:27Z</time>
      </trkpt>
      <trkpt lat="45.90586" lon="3.38989">
        <ele>352.8</ele>
        <time>2024-05-19T10:39:28Z</time>
      </trkpt>
      <trkpt lat="45.90584" lon="3.38979">
        <ele>352.6</ele>
        <time>2024-05-19T10:39:29Z</time>
      </trkpt>
      <trkpt lat="45.90581" lon="3.38968">
        <ele>352.6</ele>
        <time>2024-05-19T10:39:30Z</time>
      </trkpt>
      <trkpt lat="45.90578" lon="3.38958">
        <ele>352.4</ele>
        <time>2024-05-19T10:39:31Z</time>
      </trkpt>
      <trkpt lat="45.90575" lon="3.38947">
        <ele>352.4</ele>
        <time>2024-05-19T10:39:32Z</time>
      </trkpt>
      <trkpt lat="45.90573" lon="3.38935">
        <ele>352.2</ele>
        <time>2024-05-19T10:39:33Z</time>
      </trkpt>
      <trkpt lat="45.9057" lon="3.38924">
        <ele>352.2</ele>
        <time>2024-05-19T10:39:34Z</time>
      </trkpt>
      <trkpt lat="45.90567" lon="3.38913">
        <ele>352.2</ele>
        <time>2024-05-19T10:39:35Z</time>
      </trkpt>
      <trkpt lat="45.90564" lon="3.38901">
        <ele>352</ele>
        <time>2024-05-19T10:39:36Z</time>
      </trkpt>
      <trkpt lat="45.90561" lon="3.3889">
        <ele>351.8</ele>
        <time>2024-05-19T10:39:37Z</time>
      </trkpt>
      <trkpt lat="45.90558" lon="3.38878">
        <ele>351.8</ele>
        <time>2024-05-19T10:39:38Z</time>
      </trkpt>
      <trkpt lat="45.90555" lon="3.38865">
        <ele>351.6</ele>
        <time>2024-05-19T10:39:39Z</time>
      </trkpt>
      <trkpt lat="45.90551" lon="3.38853">
        <ele>351.4</ele>
        <time>2024-05-19T10:39:40Z</time>
      </trkpt>
      <trkpt lat="45.90549" lon="3.38839">
        <ele>351.4</ele>
        <time>2024-05-19T10:39:41Z</time>
      </trkpt>
      <trkpt lat="45.90548" lon="3.38826">
        <ele>351.2</ele>
        <time>2024-05-19T10:39:42Z</time>
      </trkpt>
      <trkpt lat="45.90547" lon="3.38812">
        <ele>351.2</ele>
        <time>2024-05-19T10:39:43Z</time>
      </trkpt>
      <trkpt lat="45.90549" lon="3.38798">
        <ele>351</ele>
        <time>2024-05-19T10:39:44Z</time>
      </trkpt>
      <trkpt lat="45.90552" lon="3.38784">
        <ele>350.8</ele>
        <time>2024-05-19T10:39:45Z</time>
      </trkpt>
      <trkpt lat="45.90554" lon="3.3877">
        <ele>350.8</ele>
        <time>2024-05-19T10:39:46Z</time>
      </trkpt>
      <trkpt lat="45.90556" lon="3.38756">
        <ele>350.8</ele>
        <time>2024-05-19T10:39:47Z</time>
      </trkpt>
      <trkpt lat="45.90558" lon="3.38742">
        <ele>350.6</ele>
        <time>2024-05-19T10:39:48Z</time>
      </trkpt>
      <trkpt lat="45.90561" lon="3.38728">
        <ele>350.6</ele>
        <time>2024-05-19T10:39:49Z</time>
      </trkpt>
      <trkpt lat="45.90563" lon="3.38714">
        <ele>350.4</ele>
        <time>2024-05-19T10:39:50Z</time>
      </trkpt>
      <trkpt lat="45.90565" lon="3.38701">
        <ele>350.2</ele>
        <time>2024-05-19T10:39:51Z</time>
      </trkpt>
      <trkpt lat="45.90567" lon="3.38688">
        <ele>350</ele>
        <time>2024-05-19T10:39:52Z</time>
      </trkpt>
      <trkpt lat="45.90569" lon="3.38674">
        <ele>349.8</ele>
        <time>2024-05-19T10:39:53Z</time>
      </trkpt>
      <trkpt lat="45.90571" lon="3.3866">
        <ele>349.8</ele>
        <time>2024-05-19T10:39:54Z</time>
      </trkpt>
      <trkpt lat="45.90574" lon="3.38646">
        <ele>349.6</ele>
        <time>2024-05-19T10:39:55Z</time>
      </trkpt>
      <trkpt lat="45.90576" lon="3.38633">
        <ele>349.4</ele>
        <time>2024-05-19T10:39:56Z</time>
      </trkpt>
      <trkpt lat="45.90578" lon="3.38619">
        <ele>349.2</ele>
        <time>2024-05-19T10:39:57Z</time>
      </trkpt>
      <trkpt lat="45.9058" lon="3.38606">
        <ele>349</ele>
        <time>2024-05-19T10:39:58Z</time>
      </trkpt>
      <trkpt lat="45.90582" lon="3.38593">
        <ele>348.8</ele>
        <time>2024-05-19T10:39:59Z</time>
      </trkpt>
      <trkpt lat="45.90584" lon="3.38579">
        <ele>348.6</ele>
        <time>2024-05-19T10:40:00Z</time>
      </trkpt>
      <trkpt lat="45.90587" lon="3.38567">
        <ele>348.4</ele>
        <time>2024-05-19T10:40:01Z</time>
      </trkpt>
      <trkpt lat="45.9059" lon="3.38555">
        <ele>348.2</ele>
        <time>2024-05-19T10:40:02Z</time>
      </trkpt>
      <trkpt lat="45.90594" lon="3.38542">
        <ele>348</ele>
        <time>2024-05-19T10:40:03Z</time>
      </trkpt>
      <trkpt lat="45.90597" lon="3.3853">
        <ele>347.8</ele>
        <time>2024-05-19T10:40:04Z</time>
      </trkpt>
      <trkpt lat="45.90601" lon="3.38518">
        <ele>347.6</ele>
        <time>2024-05-19T10:40:05Z</time>
      </trkpt>
      <trkpt lat="45.90604" lon="3.38506">
        <ele>347.4</ele>
        <time>2024-05-19T10:40:06Z</time>
      </trkpt>
      <trkpt lat="45.90608" lon="3.38495">
        <ele>347.2</ele>
        <time>2024-05-19T10:40:07Z</time>
      </trkpt>
      <trkpt lat="45.90611" lon="3.38484">
        <ele>347.2</ele>
        <time>2024-05-19T10:40:08Z</time>
      </trkpt>
      <trkpt lat="45.90614" lon="3.38472">
        <ele>347</ele>
        <time>2024-05-19T10:40:09Z</time>
      </trkpt>
      <trkpt lat="45.90617" lon="3.38461">
        <ele>346.8</ele>
        <time>2024-05-19T10:40:10Z</time>
      </trkpt>
      <trkpt lat="45.90621" lon="3.3845">
        <ele>346.6</ele>
        <time>2024-05-19T10:40:11Z</time>
      </trkpt>
      <trkpt lat="45.90624" lon="3.38439">
        <ele>346.4</ele>
        <time>2024-05-19T10:40:12Z</time>
      </trkpt>
      <trkpt lat="45.90627" lon="3.38428">
        <ele>346.4</ele>
        <time>2024-05-19T10:40:13Z</time>
      </trkpt>
      <trkpt lat="45.9063" lon="3.38417">
        <ele>346.2</ele>
        <time>2024-05-19T10:40:14Z</time>
      </trkpt>
      <trkpt lat="45.90633" lon="3.38407">
        <ele>346</ele>
        <time>2024-05-19T10:40:15Z</time>
      </trkpt>
      <trkpt lat="45.90636" lon="3.38396">
        <ele>346</ele>
        <time>2024-05-19T10:40:16Z</time>
      </trkpt>
      <trkpt lat="45.90639" lon="3.38385">
        <ele>345.8</ele>
        <time>2024-05-19T10:40:17Z</time>
      </trkpt>
      <trkpt lat="45.90642" lon="3.38374">
        <ele>345.6</ele>
        <time>2024-05-19T10:40:18Z</time>
      </trkpt>
      <trkpt lat="45.90644" lon="3.38364">
        <ele>345.4</ele>
        <time>2024-05-19T10:40:19Z</time>
      </trkpt>
      <trkpt lat="45.90645" lon="3.38352">
        <ele>345.4</ele>
        <time>2024-05-19T10:40:20Z</time>
      </trkpt>
      <trkpt lat="45.90647" lon="3.38341">
        <ele>345.2</ele>
        <time>2024-05-19T10:40:21Z</time>
      </trkpt>
      <trkpt lat="45.90648" lon="3.38329">
        <ele>345</ele>
        <time>2024-05-19T10:40:22Z</time>
      </trkpt>
      <trkpt lat="45.90649" lon="3.38318">
        <ele>344.8</ele>
        <time>2024-05-19T10:40:23Z</time>
      </trkpt>
      <trkpt lat="45.9065" lon="3.38306">
        <ele>344.6</ele>
        <time>2024-05-19T10:40:24Z</time>
      </trkpt>
      <trkpt lat="45.90651" lon="3.38295">
        <ele>344.4</ele>
        <time>2024-05-19T10:40:25Z</time>
      </trkpt>
      <trkpt lat="45.90652" lon="3.38283">
        <ele>344.4</ele>
        <time>2024-05-19T10:40:26Z</time>
      </trkpt>
      <trkpt lat="45.90653" lon="3.38271">
        <ele>344</ele>
        <time>2024-05-19T10:40:27Z</time>
      </trkpt>
      <trkpt lat="45.90654" lon="3.3826">
        <ele>344</ele>
        <time>2024-05-19T10:40:28Z</time>
      </trkpt>
      <trkpt lat="45.90656" lon="3.38249">
        <ele>343.6</ele>
        <time>2024-05-19T10:40:29Z</time>
      </trkpt>
      <trkpt lat="45.90657" lon="3.38237">
        <ele>343.4</ele>
        <time>2024-05-19T10:40:30Z</time>
      </trkpt>
      <trkpt lat="45.90658" lon="3.38226">
        <ele>343.4</ele>
        <time>2024-05-19T10:40:31Z</time>
      </trkpt>
      <trkpt lat="45.90659" lon="3.38215">
        <ele>343.2</ele>
        <time>2024-05-19T10:40:32Z</time>
      </trkpt>
      <trkpt lat="45.9066" lon="3.38204">
        <ele>343</ele>
        <time>2024-05-19T10:40:33Z</time>
      </trkpt>
      <trkpt lat="45.90661" lon="3.38192">
        <ele>342.8</ele>
        <time>2024-05-19T10:40:34Z</time>
      </trkpt>
      <trkpt lat="45.90662" lon="3.38181">
        <ele>342.6</ele>
        <time>2024-05-19T10:40:35Z</time>
      </trkpt>
      <trkpt lat="45.90663" lon="3.3817">
        <ele>342.4</ele>
        <time>2024-05-19T10:40:36Z</time>
      </trkpt>
      <trkpt lat="45.90664" lon="3.38159">
        <ele>342.2</ele>
        <time>2024-05-19T10:40:37Z</time>
      </trkpt>
      <trkpt lat="45.90665" lon="3.38147">
        <ele>342</ele>
        <time>2024-05-19T10:40:38Z</time>
      </trkpt>
      <trkpt lat="45.90667" lon="3.38136">
        <ele>341.8</ele>
        <time>2024-05-19T10:40:39Z</time>
      </trkpt>
      <trkpt lat="45.90668" lon="3.38125">
        <ele>341.8</ele>
        <time>2024-05-19T10:40:40Z</time>
      </trkpt>
      <trkpt lat="45.90669" lon="3.38114">
        <ele>341.6</ele>
        <time>2024-05-19T10:40:41Z</time>
      </trkpt>
      <trkpt lat="45.9067" lon="3.38103">
        <ele>341.4</ele>
        <time>2024-05-19T10:40:42Z</time>
      </trkpt>
      <trkpt lat="45.90671" lon="3.38092">
        <ele>341.4</ele>
        <time>2024-05-19T10:40:43Z</time>
      </trkpt>
      <trkpt lat="45.90672" lon="3.38081">
        <ele>341.2</ele>
        <time>2024-05-19T10:40:44Z</time>
      </trkpt>
      <trkpt lat="45.90673" lon="3.3807">
        <ele>341.2</ele>
        <time>2024-05-19T10:40:45Z</time>
      </trkpt>
      <trkpt lat="45.90674" lon="3.3806">
        <ele>341</ele>
        <time>2024-05-19T10:40:46Z</time>
      </trkpt>
      <trkpt lat="45.90675" lon="3.38049">
        <ele>340.8</ele>
        <time>2024-05-19T10:40:47Z</time>
      </trkpt>
      <trkpt lat="45.90676" lon="3.38039">
        <ele>340.8</ele>
        <time>2024-05-19T10:40:48Z</time>
      </trkpt>
      <trkpt lat="45.90677" lon="3.38029">
        <ele>340.6</ele>
        <time>2024-05-19T10:40:49Z</time>
      </trkpt>
      <trkpt lat="45.90678" lon="3.3802">
        <ele>340.6</ele>
        <time>2024-05-19T10:40:50Z</time>
      </trkpt>
      <trkpt lat="45.90679" lon="3.3801">
        <ele>340.4</ele>
        <time>2024-05-19T10:40:51Z</time>
      </trkpt>
      <trkpt lat="45.9068" lon="3.38001">
        <ele>340.4</ele>
        <time>2024-05-19T10:40:52Z</time>
      </trkpt>
      <trkpt lat="45.90681" lon="3.37992">
        <ele>340.2</ele>
        <time>2024-05-19T10:40:53Z</time>
      </trkpt>
      <trkpt lat="45.90682" lon="3.37982">
        <ele>340.2</ele>
        <time>2024-05-19T10:40:54Z</time>
      </trkpt>
      <trkpt lat="45.90683" lon="3.37973">
        <ele>340</ele>
        <time>2024-05-19T10:40:55Z</time>
      </trkpt>
      <trkpt lat="45.90683" lon="3.37964">
        <ele>339.8</ele>
        <time>2024-05-19T10:40:56Z</time>
      </trkpt>
      <trkpt lat="45.90684" lon="3.37954">
        <ele>339.6</ele>
        <time>2024-05-19T10:40:57Z</time>
      </trkpt>
      <trkpt lat="45.90697" lon="3.37949">
        <ele>339.4</ele>
        <time>2024-05-19T10:40:58Z</time>
      </trkpt>
      <trkpt lat="45.907" lon="3.37941">
        <ele>339.4</ele>
        <time>2024-05-19T10:40:59Z</time>
      </trkpt>
      <trkpt lat="45.90699" lon="3.37925">
        <ele>339.2</ele>
        <time>2024-05-19T10:41:00Z</time>
      </trkpt>
      <trkpt lat="45.90697" lon="3.3792">
        <ele>339.2</ele>
        <time>2024-05-19T10:41:01Z</time>
      </trkpt>
      <trkpt lat="45.90704" lon="3.37916">
        <ele>339.2</ele>
        <time>2024-05-19T10:41:02Z</time>
      </trkpt>
      <trkpt lat="45.9071" lon="3.37912">
        <ele>339</ele>
        <time>2024-05-19T10:41:03Z</time>
      </trkpt>
      <trkpt lat="45.90717" lon="3.37908">
        <ele>338.8</ele>
        <time>2024-05-19T10:41:04Z</time>
      </trkpt>
      <trkpt lat="45.90723" lon="3.37903">
        <ele>338.8</ele>
        <time>2024-05-19T10:41:05Z</time>
      </trkpt>
      <trkpt lat="45.9073" lon="3.37899">
        <ele>338.6</ele>
        <time>2024-05-19T10:41:06Z</time>
      </trkpt>
      <trkpt lat="45.90737" lon="3.37895">
        <ele>338.4</ele>
        <time>2024-05-19T10:41:07Z</time>
      </trkpt>
      <trkpt lat="45.90744" lon="3.3789">
        <ele>338.4</ele>
        <time>2024-05-19T10:41:08Z</time>
      </trkpt>
      <trkpt lat="45.90751" lon="3.37886">
        <ele>338.2</ele>
        <time>2024-05-19T10:41:09Z</time>
      </trkpt>
      <trkpt lat="45.90758" lon="3.37881">
        <ele>338</ele>
        <time>2024-05-19T10:41:10Z</time>
      </trkpt>
      <trkpt lat="45.90765" lon="3.37877">
        <ele>338</ele>
        <time>2024-05-19T10:41:11Z</time>
      </trkpt>
      <trkpt lat="45.90772" lon="3.37873">
        <ele>337.8</ele>
        <time>2024-05-19T10:41:12Z</time>
      </trkpt>
      <trkpt lat="45.90779" lon="3.37868">
        <ele>337.8</ele>
        <time>2024-05-19T10:41:13Z</time>
      </trkpt>
      <trkpt lat="45.90785" lon="3.37864">
        <ele>337.6</ele>
        <time>2024-05-19T10:41:14Z</time>
      </trkpt>
      <trkpt lat="45.90792" lon="3.3786">
        <ele>337.4</ele>
        <time>2024-05-19T10:41:15Z</time>
      </trkpt>
      <trkpt lat="45.90798" lon="3.37856">
        <ele>337.4</ele>
        <time>2024-05-19T10:41:16Z</time>
      </trkpt>
      <trkpt lat="45.90805" lon="3.37852">
        <ele>337.2</ele>
        <time>2024-05-19T10:41:17Z</time>
      </trkpt>
      <trkpt lat="45.90812" lon="3.37848">
        <ele>337.2</ele>
        <time>2024-05-19T10:41:18Z</time>
      </trkpt>
      <trkpt lat="45.90819" lon="3.37844">
        <ele>337</ele>
        <time>2024-05-19T10:41:19Z</time>
      </trkpt>
      <trkpt lat="45.90826" lon="3.3784">
        <ele>337</ele>
        <time>2024-05-19T10:41:20Z</time>
      </trkpt>
      <trkpt lat="45.90833" lon="3.37836">
        <ele>336.8</ele>
        <time>2024-05-19T10:41:21Z</time>
      </trkpt>
      <trkpt lat="45.90839" lon="3.37832">
        <ele>336.6</ele>
        <time>2024-05-19T10:41:22Z</time>
      </trkpt>
      <trkpt lat="45.90846" lon="3.37828">
        <ele>336.6</ele>
        <time>2024-05-19T10:41:23Z</time>
      </trkpt>
      <trkpt lat="45.90853" lon="3.37824">
        <ele>336.4</ele>
        <time>2024-05-19T10:41:24Z</time>
      </trkpt>
      <trkpt lat="45.9086" lon="3.3782">
        <ele>336.4</ele>
        <time>2024-05-19T10:41:25Z</time>
      </trkpt>
      <trkpt lat="45.90867" lon="3.37816">
        <ele>336.2</ele>
        <time>2024-05-19T10:41:26Z</time>
      </trkpt>
      <trkpt lat="45.90874" lon="3.37812">
        <ele>336</ele>
        <time>2024-05-19T10:41:27Z</time>
      </trkpt>
      <trkpt lat="45.9088" lon="3.37809">
        <ele>336</ele>
        <time>2024-05-19T10:41:28Z</time>
      </trkpt>
      <trkpt lat="45.90887" lon="3.37805">
        <ele>335.8</ele>
        <time>2024-05-19T10:41:29Z</time>
      </trkpt>
      <trkpt lat="45.90893" lon="3.37801">
        <ele>335.8</ele>
        <time>2024-05-19T10:41:30Z</time>
      </trkpt>
      <trkpt lat="45.909" lon="3.37797">
        <ele>335.6</ele>
        <time>2024-05-19T10:41:31Z</time>
      </trkpt>
      <trkpt lat="45.90906" lon="3.37794">
        <ele>335.6</ele>
        <time>2024-05-19T10:41:32Z</time>
      </trkpt>
      <trkpt lat="45.90912" lon="3.3779">
        <ele>335.4</ele>
        <time>2024-05-19T10:41:33Z</time>
      </trkpt>
      <trkpt lat="45.90919" lon="3.37787">
        <ele>335.2</ele>
        <time>2024-05-19T10:41:34Z</time>
      </trkpt>
      <trkpt lat="45.90925" lon="3.37783">
        <ele>335.2</ele>
        <time>2024-05-19T10:41:35Z</time>
      </trkpt>
      <trkpt lat="45.90932" lon="3.37779">
        <ele>335</ele>
        <time>2024-05-19T10:41:36Z</time>
      </trkpt>
      <trkpt lat="45.90938" lon="3.37776">
        <ele>335</ele>
        <time>2024-05-19T10:41:37Z</time>
      </trkpt>
      <trkpt lat="45.90945" lon="3.37772">
        <ele>335</ele>
        <time>2024-05-19T10:41:38Z</time>
      </trkpt>
      <trkpt lat="45.90951" lon="3.37768">
        <ele>334.8</ele>
        <time>2024-05-19T10:41:39Z</time>
      </trkpt>
      <trkpt lat="45.90958" lon="3.37765">
        <ele>334.8</ele>
        <time>2024-05-19T10:41:40Z</time>
      </trkpt>
      <trkpt lat="45.90964" lon="3.37761">
        <ele>334.6</ele>
        <time>2024-05-19T10:41:41Z</time>
      </trkpt>
      <trkpt lat="45.9097" lon="3.37757">
        <ele>334.6</ele>
        <time>2024-05-19T10:41:42Z</time>
      </trkpt>
      <trkpt lat="45.90977" lon="3.37754">
        <ele>334.4</ele>
        <time>2024-05-19T10:41:43Z</time>
      </trkpt>
      <trkpt lat="45.90983" lon="3.3775">
        <ele>334.4</ele>
        <time>2024-05-19T10:41:44Z</time>
      </trkpt>
      <trkpt lat="45.90989" lon="3.37747">
        <ele>334.2</ele>
        <time>2024-05-19T10:41:45Z</time>
      </trkpt>
      <trkpt lat="45.90994" lon="3.37744">
        <ele>334</ele>
        <time>2024-05-19T10:41:46Z</time>
      </trkpt>
      <trkpt lat="45.91001" lon="3.3774">
        <ele>333.8</ele>
        <time>2024-05-19T10:41:47Z</time>
      </trkpt>
      <trkpt lat="45.91007" lon="3.37737">
        <ele>333.6</ele>
        <time>2024-05-19T10:41:48Z</time>
      </trkpt>
      <trkpt lat="45.91013" lon="3.37733">
        <ele>333.4</ele>
        <time>2024-05-19T10:41:49Z</time>
      </trkpt>
      <trkpt lat="45.9102" lon="3.37729">
        <ele>333.2</ele>
        <time>2024-05-19T10:41:50Z</time>
      </trkpt>
      <trkpt lat="45.91026" lon="3.37726">
        <ele>333</ele>
        <time>2024-05-19T10:41:51Z</time>
      </trkpt>
      <trkpt lat="45.91032" lon="3.37722">
        <ele>332.8</ele>
        <time>2024-05-19T10:41:52Z</time>
      </trkpt>
      <trkpt lat="45.91038" lon="3.37719">
        <ele>332.6</ele>
        <time>2024-05-19T10:41:53Z</time>
      </trkpt>
      <trkpt lat="45.91044" lon="3.37716">
        <ele>332.4</ele>
        <time>2024-05-19T10:41:54Z</time>
      </trkpt>
      <trkpt lat="45.9105" lon="3.37712">
        <ele>332.4</ele>
        <time>2024-05-19T10:41:55Z</time>
      </trkpt>
      <trkpt lat="45.91056" lon="3.37709">
        <ele>332.2</ele>
        <time>2024-05-19T10:41:56Z</time>
      </trkpt>
      <trkpt lat="45.91062" lon="3.37705">
        <ele>332</ele>
        <time>2024-05-19T10:41:57Z</time>
      </trkpt>
      <trkpt lat="45.91068" lon="3.37702">
        <ele>331.8</ele>
        <time>2024-05-19T10:41:58Z</time>
      </trkpt>
      <trkpt lat="45.91074" lon="3.37699">
        <ele>331.6</ele>
        <time>2024-05-19T10:41:59Z</time>
      </trkpt>
      <trkpt lat="45.9108" lon="3.37695">
        <ele>331.4</ele>
        <time>2024-05-19T10:42:00Z</time>
      </trkpt>
      <trkpt lat="45.91085" lon="3.37692">
        <ele>331.2</ele>
        <time>2024-05-19T10:42:01Z</time>
      </trkpt>
      <trkpt lat="45.91092" lon="3.37689">
        <ele>331</ele>
        <time>2024-05-19T10:42:02Z</time>
      </trkpt>
      <trkpt lat="45.91097" lon="3.37685">
        <ele>330.8</ele>
        <time>2024-05-19T10:42:03Z</time>
      </trkpt>
      <trkpt lat="45.91103" lon="3.37682">
        <ele>330.8</ele>
        <time>2024-05-19T10:42:04Z</time>
      </trkpt>
      <trkpt lat="45.91112" lon="3.37673">
        <ele>330.6</ele>
        <time>2024-05-19T10:42:05Z</time>
      </trkpt>
      <trkpt lat="45.91114" lon="3.37664">
        <ele>330.4</ele>
        <time>2024-05-19T10:42:06Z</time>
      </trkpt>
      <trkpt lat="45.91117" lon="3.37655">
        <ele>330.4</ele>
        <time>2024-05-19T10:42:07Z</time>
      </trkpt>
      <trkpt lat="45.9112" lon="3.37645">
        <ele>330.2</ele>
        <time>2024-05-19T10:42:08Z</time>
      </trkpt>
      <trkpt lat="45.91124" lon="3.37637">
        <ele>330.2</ele>
        <time>2024-05-19T10:42:09Z</time>
      </trkpt>
      <trkpt lat="45.91129" lon="3.37629">
        <ele>330</ele>
        <time>2024-05-19T10:42:10Z</time>
      </trkpt>
      <trkpt lat="45.91133" lon="3.37621">
        <ele>330</ele>
        <time>2024-05-19T10:42:11Z</time>
      </trkpt>
      <trkpt lat="45.91137" lon="3.37613">
        <ele>330</ele>
        <time>2024-05-19T10:42:12Z</time>
      </trkpt>
      <trkpt lat="45.91142" lon="3.37605">
        <ele>329.8</ele>
        <time>2024-05-19T10:42:13Z</time>
      </trkpt>
      <trkpt lat="45.91146" lon="3.37597">
        <ele>329.8</ele>
        <time>2024-05-19T10:42:14Z</time>
      </trkpt>
      <trkpt lat="45.9115" lon="3.37589">
        <ele>329.6</ele>
        <time>2024-05-19T10:42:15Z</time>
      </trkpt>
      <trkpt lat="45.91155" lon="3.37582">
        <ele>329.6</ele>
        <time>2024-05-19T10:42:16Z</time>
      </trkpt>
      <trkpt lat="45.9116" lon="3.37576">
        <ele>329.6</ele>
        <time>2024-05-19T10:42:17Z</time>
      </trkpt>
      <trkpt lat="45.91164" lon="3.37569">
        <ele>329.4</ele>
        <time>2024-05-19T10:42:18Z</time>
      </trkpt>
      <trkpt lat="45.91168" lon="3.37563">
        <ele>329.4</ele>
        <time>2024-05-19T10:42:19Z</time>
      </trkpt>
      <trkpt lat="45.91173" lon="3.37556">
        <ele>329.4</ele>
        <time>2024-05-19T10:42:20Z</time>
      </trkpt>
      <trkpt lat="45.91177" lon="3.3755">
        <ele>329.2</ele>
        <time>2024-05-19T10:42:21Z</time>
      </trkpt>
      <trkpt lat="45.91182" lon="3.37543">
        <ele>329.2</ele>
        <time>2024-05-19T10:42:22Z</time>
      </trkpt>
      <trkpt lat="45.91186" lon="3.37537">
        <ele>329</ele>
        <time>2024-05-19T10:42:23Z</time>
      </trkpt>
      <trkpt lat="45.91191" lon="3.3753">
        <ele>329</ele>
        <time>2024-05-19T10:42:24Z</time>
      </trkpt>
      <trkpt lat="45.91196" lon="3.37523">
        <ele>328.8</ele>
        <time>2024-05-19T10:42:25Z</time>
      </trkpt>
      <trkpt lat="45.91201" lon="3.37516">
        <ele>328.6</ele>
        <time>2024-05-19T10:42:26Z</time>
      </trkpt>
      <trkpt lat="45.91206" lon="3.37509">
        <ele>328.6</ele>
        <time>2024-05-19T10:42:27Z</time>
      </trkpt>
      <trkpt lat="45.9121" lon="3.37502">
        <ele>328.4</ele>
        <time>2024-05-19T10:42:28Z</time>
      </trkpt>
      <trkpt lat="45.91215" lon="3.37495">
        <ele>328.2</ele>
        <time>2024-05-19T10:42:29Z</time>
      </trkpt>
      <trkpt lat="45.9122" lon="3.37488">
        <ele>328.2</ele>
        <time>2024-05-19T10:42:30Z</time>
      </trkpt>
      <trkpt lat="45.91225" lon="3.37481">
        <ele>328</ele>
        <time>2024-05-19T10:42:31Z</time>
      </trkpt>
      <trkpt lat="45.9123" lon="3.37474">
        <ele>327.8</ele>
        <time>2024-05-19T10:42:32Z</time>
      </trkpt>
      <trkpt lat="45.91235" lon="3.37466">
        <ele>327.8</ele>
        <time>2024-05-19T10:42:33Z</time>
      </trkpt>
      <trkpt lat="45.9124" lon="3.37459">
        <ele>327.6</ele>
        <time>2024-05-19T10:42:34Z</time>
      </trkpt>
      <trkpt lat="45.91245" lon="3.37451">
        <ele>327.6</ele>
        <time>2024-05-19T10:42:35Z</time>
      </trkpt>
      <trkpt lat="45.9125" lon="3.37441">
        <ele>327.4</ele>
        <time>2024-05-19T10:42:36Z</time>
      </trkpt>
      <trkpt lat="45.91254" lon="3.37431">
        <ele>327.2</ele>
        <time>2024-05-19T10:42:37Z</time>
      </trkpt>
      <trkpt lat="45.91258" lon="3.3742">
        <ele>327</ele>
        <time>2024-05-19T10:42:38Z</time>
      </trkpt>
      <trkpt lat="45.91261" lon="3.37409">
        <ele>327</ele>
        <time>2024-05-19T10:42:39Z</time>
      </trkpt>
      <trkpt lat="45.91263" lon="3.37398">
        <ele>326.8</ele>
        <time>2024-05-19T10:42:40Z</time>
      </trkpt>
      <trkpt lat="45.91266" lon="3.37388">
        <ele>326.8</ele>
        <time>2024-05-19T10:42:41Z</time>
      </trkpt>
      <trkpt lat="45.91269" lon="3.37378">
        <ele>326.6</ele>
        <time>2024-05-19T10:42:42Z</time>
      </trkpt>
      <trkpt lat="45.91277" lon="3.37376">
        <ele>326.4</ele>
        <time>2024-05-19T10:42:43Z</time>
      </trkpt>
      <trkpt lat="45.91284" lon="3.37373">
        <ele>326.2</ele>
        <time>2024-05-19T10:42:44Z</time>
      </trkpt>
      <trkpt lat="45.91292" lon="3.37369">
        <ele>326</ele>
        <time>2024-05-19T10:42:45Z</time>
      </trkpt>
      <trkpt lat="45.91299" lon="3.37367">
        <ele>326</ele>
        <time>2024-05-19T10:42:46Z</time>
      </trkpt>
      <trkpt lat="45.91306" lon="3.37364">
        <ele>325.8</ele>
        <time>2024-05-19T10:42:47Z</time>
      </trkpt>
      <trkpt lat="45.91313" lon="3.37361">
        <ele>325.6</ele>
        <time>2024-05-19T10:42:48Z</time>
      </trkpt>
      <trkpt lat="45.91319" lon="3.37358">
        <ele>325.4</ele>
        <time>2024-05-19T10:42:49Z</time>
      </trkpt>
    </trkseg>
  </trk>
</gpx>